
Distance (Route):
Temperature : 11.9°C
Humidity : 89.3%
Pressure : 1008.2hPa| Receiver | Frames | First received | Last received |
|---|---|---|---|
| DO2SHX-10 | 1131 | 2026-09-05 22:55:09 | 2026-09-06 01:40:27 |
| AA1-15 | 1047 | 2026-09-05 22:56:40 | 2026-09-06 01:48:46 |
| DL1XH-west | 1038 | 2026-09-05 22:46:58 | 2026-09-06 01:32:45 |
| DL1XH1-15 | 726 | 2026-09-05 22:47:02 | 2026-09-06 01:32:15 |
| DL1XH-15 | 676 | 2026-09-05 22:48:01 | 2026-09-06 01:28:21 |
| DM0DOS-11 | 646 | 2026-09-05 22:52:52 | 2026-09-06 01:38:04 |
| DF8AY | 635 | 2026-09-05 23:20:19 | 2026-09-06 01:37:14 |
| DB0DAN | 516 | 2026-09-05 22:48:40 | 2026-09-06 01:50:55 |
| GOEST3-10 | 251 | 2026-09-05 22:56:44 | 2026-09-06 01:01:25 |
| DJ2DS-15 | 207 | 2026-09-05 22:50:58 | 2026-09-06 01:26:48 |
| AM1SDL-15 | 132 | 2026-09-05 23:33:14 | 2026-09-06 01:52:02 |
| DL3AQ-11 | 90 | 2026-09-05 23:31:56 | 2026-09-06 01:01:05 |
| DF5WG-10 | 76 | 2026-09-05 23:12:10 | 2026-09-06 00:53:01 |
| S3001 | 71 | 2026-09-05 23:19:02 | 2026-09-06 01:52:44 |
| SMARD9-15 | 66 | 2026-09-05 23:04:13 | 2026-09-06 01:32:43 |
| SONDE2-11 | 64 | 2026-09-05 23:15:44 | 2026-09-06 01:48:56 |
| EDDB2-11 | 60 | 2026-09-05 23:28:37 | 2026-09-06 01:45:44 |
| DL4BBY-15 | 58 | 2026-09-05 23:12:24 | 2026-09-06 01:11:19 |
| DK7RCA | 54 | 2026-09-05 22:58:33 | 2026-09-06 00:56:06 |
| DO2JMG | 51 | 2026-09-06 00:02:07 | 2026-09-06 00:33:47 |
| EDDB2-12 | 50 | 2026-09-05 23:16:34 | 2026-09-06 01:41:59 |
| DC4HF-4 | 47 | 2026-09-05 23:13:32 | 2026-09-06 01:08:57 |
| DG6HD-15 | 47 | 2026-09-05 23:28:50 | 2026-09-06 01:16:11 |
| SONCRA | 42 | 2026-09-05 23:21:44 | 2026-09-06 01:24:29 |
| D01LWL | 41 | 2026-09-06 00:04:29 | 2026-09-06 01:41:46 |
| HTAHTA | 34 | 2026-09-05 23:17:47 | 2026-09-06 00:53:03 |
| DL4XJ-10 | 33 | 2026-09-05 23:38:01 | 2026-09-06 00:44:39 |
| DG6HD-11 | 26 | 2026-09-05 23:19:39 | 2026-09-06 01:14:30 |
| BIOWL1-15 | 24 | 2026-09-05 23:00:58 | 2026-09-05 23:13:43 |
| SP3BTT-10 | 24 | 2026-09-05 23:31:55 | 2026-09-06 01:21:23 |
| AP2371 | 21 | 2026-09-05 23:12:09 | 2026-09-06 00:53:00 |
| DL1ZP-14 | 21 | 2026-09-05 23:32:48 | 2026-09-06 00:55:45 |
| DB0UT-7 | 15 | 2026-09-05 23:37:01 | 2026-09-06 00:57:22 |
| MECKS9 | 15 | 2026-09-06 01:00:41 | 2026-09-06 01:37:56 |
| DO2LYB-13 | 13 | 2026-09-05 23:03:00 | 2026-09-06 00:37:39 |
| HARRO8 | 13 | 2026-09-05 23:59:32 | 2026-09-06 00:37:27 |
| SP3WXH-11 | 13 | 2026-09-06 00:09:09 | 2026-09-06 00:54:10 |
| BIOWL9-15 | 9 | 2026-09-05 23:00:56 | 2026-09-05 23:14:55 |
| SMARD9-10 | 7 | 2026-09-05 22:53:03 | 2026-09-06 01:15:31 |
| DL1CLM-18 | 7 | 2026-09-05 23:42:29 | 2026-09-06 00:46:13 |
| DO3MHA-11 | 5 | 2026-09-06 00:28:12 | 2026-09-06 00:31:35 |
| DB0ND-19 | 2 | 2026-09-06 00:25:47 | 2026-09-06 00:45:57 |
| DL8OAI-8 | 1 | 2026-09-05 23:21:22 | 2026-09-05 23:21:22 |
| BUE01 | 1 | 2026-09-05 23:31:58 | 2026-09-05 23:31:58 |
| ONDE2-11 | 1 | 2026-09-06 00:01:21 | 2026-09-06 00:01:21 |
| DO9LL-15 | 1 | 2026-09-06 01:00:31 | 2026-09-06 01:00:31 |
| DF7ER-10 | 1 | 2026-09-06 01:14:01 | 2026-09-06 01:14:01 |
| Receiver | Date | Latitude | Longitude | Direction | Speed | Altitude | Climb | Temperature | Humidity | Pressure | Voltage | Killtimer | Uptime | BKT | XDATA |
|---|---|---|---|---|---|---|---|---|---|---|---|---|---|---|---|
| S3001 | 2026-09-06 01:52:44 | 53.02772 | 12.64077 | 81° | 22km/h | 145m | -1.8m/s | 11.9°C | 89.3% | 1008.2hPa | 2.7V | 00:00:00 | 00:00:00 | 00:00:00 | |
| S3001 | 2026-09-06 01:52:13 | 53.02781 | 12.63878 | 82° | 27km/h | 194m | -2.8m/s | 11.7°C | 90.4% | 1002.8hPa | 2.7V | 00:00:00 | 00:00:00 | 00:00:00 | |
| AM1SDL-15 | 2026-09-06 01:52:02 | 53.02791 | 12.63720 | 101° | 33km/h | 232m | -3.3m/s | 11.5°C | 91.2% | 998.4hPa | 2.7V | 00:00:00 | 03:32:11 | 00:00:00 | |
| AM1SDL-15 | 2026-09-06 01:51:58 | 53.02802 | 12.63660 | 106° | 37km/h | 246m | -2.5m/s | 11.4°C | 91.8% | 996.6hPa | 2.7V | 00:00:00 | 03:32:07 | 00:00:00 | |
| AM1SDL-15 | 2026-09-06 01:51:56 | 53.02808 | 12.63629 | 107° | 37km/h | 250m | -2.4m/s | 11.3°C | 92.0% | 995.9hPa | 2.7V | 00:00:00 | 03:32:05 | 00:00:00 | |
| AM1SDL-15 | 2026-09-06 01:51:54 | 53.02813 | 12.63600 | 104° | 35km/h | 255m | -2.1m/s | 11.3°C | 92.2% | 995.6hPa | 2.7V | 07:11:00 | 03:32:03 | 00:00:00 | |
| AM1SDL-15 | 2026-09-06 01:51:52 | 53.02817 | 12.63571 | 103° | 35km/h | 258m | -2.7m/s | 11.3°C | 92.3% | 995.0hPa | 2.7V | 00:00:00 | 03:32:01 | 00:00:00 | |
| AM1SDL-15 | 2026-09-06 01:51:50 | 53.02819 | 12.63543 | 94° | 35km/h | 264m | -3.0m/s | 11.3°C | 92.4% | 994.2hPa | 2.7V | 00:00:00 | 03:31:59 | 00:00:00 | |
| AM1SDL-15 | 2026-09-06 01:51:48 | 53.02822 | 12.63511 | 102° | 42km/h | 269m | -2.8m/s | 11.2°C | 92.3% | 993.7hPa | 2.7V | 00:00:00 | 03:31:57 | 00:00:00 | |
| AM1SDL-15 | 2026-09-06 01:51:46 | 53.02826 | 12.63476 | 105° | 44km/h | 274m | -2.7m/s | 11.4°C | 90.9% | 993.0hPa | 2.7V | 00:00:00 | 03:31:55 | 00:00:00 | |
| AM1SDL-15 | 2026-09-06 01:51:44 | 53.02832 | 12.63440 | 105° | 44km/h | 280m | -3.0m/s | 11.4°C | 90.6% | 992.2hPa | 2.7V | 00:00:00 | 03:31:53 | 00:00:00 | |
| S3001 | 2026-09-06 01:51:42 | 53.02837 | 12.63403 | 101° | 44km/h | 286m | -4.0m/s | 11.4°C | 89.4% | 991.5hPa | 2.7V | 00:00:00 | 00:00:00 | 00:00:00 | |
| AM1SDL-15 | 2026-09-06 01:51:42 | 53.02837 | 12.63403 | 102° | 46km/h | 286m | -4.0m/s | 11.4°C | 90.3% | 991.4hPa | 2.7V | 00:00:00 | 03:31:51 | 00:00:00 | |
| AM1SDL-15 | 2026-09-06 01:51:40 | 53.02842 | 12.63366 | 106° | 46km/h | 294m | -4.0m/s | 11.3°C | 91.0% | 990.4hPa | 2.7V | 00:00:00 | 03:31:49 | 00:00:00 | |
| AM1SDL-15 | 2026-09-06 01:51:38 | 53.02849 | 12.63330 | 111° | 46km/h | 301m | -3.7m/s | 11.2°C | 91.3% | 989.7hPa | 2.7V | 07:12:00 | 03:31:47 | 00:00:00 | |
| AM1SDL-15 | 2026-09-06 01:51:36 | 53.02858 | 12.63294 | 111° | 44km/h | 308m | -2.7m/s | 11.2°C | 91.7% | 989.0hPa | 2.7V | 00:00:00 | 03:31:45 | 00:00:00 | |
| AM1SDL-15 | 2026-09-06 01:51:34 | 53.02866 | 12.63259 | 112° | 46km/h | 314m | -3.3m/s | 11.1°C | 91.9% | 988.4hPa | 2.7V | 00:00:00 | 03:31:43 | 00:00:00 | |
| AM1SDL-15 | 2026-09-06 01:51:32 | 53.02874 | 12.63223 | 112° | 46km/h | 321m | -3.0m/s | 11.0°C | 92.6% | 987.5hPa | 2.7V | 00:00:00 | 03:31:41 | 00:00:00 | |
| AM1SDL-15 | 2026-09-06 01:51:30 | 53.02882 | 12.63188 | 112° | 44km/h | 328m | -3.1m/s | 11.0°C | 92.2% | 986.6hPa | 2.7V | 00:00:00 | 03:31:39 | 00:00:00 | |
| AM1SDL-15 | 2026-09-06 01:51:28 | 53.02890 | 12.63155 | 109° | 42km/h | 334m | -3.6m/s | 11.1°C | 91.3% | 986.0hPa | 2.7V | 00:00:00 | 03:31:37 | 00:00:00 | |
| AM1SDL-15 | 2026-09-06 01:51:26 | 53.02895 | 12.63122 | 103° | 42km/h | 341m | -2.7m/s | 11.0°C | 91.9% | 985.0hPa | 2.7V | 00:00:00 | 03:31:35 | 00:00:00 | |
| AM1SDL-15 | 2026-09-06 01:51:22 | 53.02903 | 12.63046 | 101° | 49km/h | 353m | -4.2m/s | 10.9°C | 92.1% | 983.8hPa | 2.7V | 00:00:00 | 03:31:31 | 00:00:00 | |
| AM1SDL-15 | 2026-09-06 01:51:18 | 53.02914 | 12.62961 | 103° | 53km/h | 369m | -3.7m/s | 10.8°C | 93.0% | 981.9hPa | 2.7V | 00:00:00 | 03:31:27 | 00:00:00 | |
| AM1SDL-15 | 2026-09-06 01:51:16 | 53.02921 | 12.62917 | 107° | 55km/h | 376m | -3.3m/s | 10.7°C | 93.2% | 981.0hPa | 2.7V | 00:00:00 | 03:31:25 | 00:00:00 | |
| AM1SDL-15 | 2026-09-06 01:51:14 | 53.02930 | 12.62874 | 110° | 53km/h | 383m | -3.5m/s | 10.5°C | 94.2% | 979.9hPa | 2.7V | 00:00:00 | 03:31:23 | 00:00:00 | |
| AM1SDL-15 | 2026-09-06 01:51:12 | 53.02939 | 12.62832 | 112° | 53km/h | 390m | -3.4m/s | 10.5°C | 94.5% | 979.3hPa | 2.7V | 00:00:00 | 03:31:21 | 00:00:00 | |
| S3001 | 2026-09-06 01:51:11 | 53.02944 | 12.62812 | 111° | 51km/h | 393m | -3.2m/s | 10.5°C | 93.3% | 978.9hPa | 2.7V | 00:00:00 | 00:00:00 | 00:00:00 | |
| AM1SDL-15 | 2026-09-06 01:51:10 | 53.02949 | 12.62792 | 113° | 53km/h | 397m | -3.7m/s | 10.5°C | 94.3% | 978.5hPa | 2.7V | 00:00:00 | 03:31:19 | 00:00:00 | |
| AM1SDL-15 | 2026-09-06 01:51:08 | 53.02960 | 12.62751 | 114° | 51km/h | 404m | -3.3m/s | 10.5°C | 94.1% | 977.6hPa | 2.7V | 00:00:00 | 03:31:17 | 00:00:00 | |
| AM1SDL-15 | 2026-09-06 01:51:06 | 53.02970 | 12.62711 | 113° | 53km/h | 410m | -3.1m/s | 10.4°C | 94.4% | 976.9hPa | 2.7V | 00:00:00 | 03:31:15 | 00:00:00 | |
| AM1SDL-15 | 2026-09-06 01:51:04 | 53.02980 | 12.62669 | 113° | 55km/h | 416m | -2.7m/s | 10.4°C | 94.4% | 976.2hPa | 2.7V | 07:12:00 | 03:31:13 | 00:00:00 | |
| AM1SDL-15 | 2026-09-06 01:51:02 | 53.02991 | 12.62628 | 114° | 53km/h | 422m | -2.8m/s | 10.4°C | 94.1% | 975.4hPa | 2.7V | 00:00:00 | 03:31:11 | 00:00:00 | |
| AM1SDL-15 | 2026-09-06 01:51:00 | 53.03002 | 12.62589 | 117° | 49km/h | 428m | -2.9m/s | 10.4°C | 94.4% | 974.9hPa | 2.7V | 00:00:00 | 03:31:09 | 00:00:00 | |
| AM1SDL-15 | 2026-09-06 01:50:58 | 53.03014 | 12.62551 | 119° | 51km/h | 434m | -3.3m/s | 10.3°C | 94.5% | 974.1hPa | 2.8V | 00:00:00 | 03:31:07 | 00:00:00 | |
| DB0DAN | 2026-09-06 01:50:55 | 53.03033 | 12.62494 | 119° | 51km/h | 444m | -3m/s | 10.4°C | 92.8% | 973.06hPa | 2.8V | 00:00:00 | 00:00:00 | 00:00:00 | |
| AM1SDL-15 | 2026-09-06 01:50:54 | 53.03039 | 12.62475 | 120° | 53km/h | 447m | -2.9m/s | 10.3°C | 94.1% | 972.6hPa | 2.7V | 00:00:00 | 03:31:03 | 00:00:00 | |
| AM1SDL-15 | 2026-09-06 01:50:52 | 53.03052 | 12.62435 | 118° | 53km/h | 453m | -2.8m/s | 10.3°C | 93.6% | 972.0hPa | 2.7V | 00:00:00 | 03:31:01 | 00:00:00 | |
| AM1SDL-15 | 2026-09-06 01:50:50 | 53.03064 | 12.62394 | 115° | 57km/h | 458m | -2.3m/s | 10.3°C | 93.6% | 971.4hPa | 2.7V | 00:00:00 | 03:30:59 | 00:00:00 | |
| AM1SDL-15 | 2026-09-06 01:50:48 | 53.03076 | 12.62350 | 115° | 58km/h | 463m | -2.5m/s | 10.2°C | 93.9% | 970.9hPa | 2.7V | 07:13:00 | 03:30:57 | 00:00:00 | |
| AM1SDL-15 | 2026-09-06 01:50:44 | 53.03103 | 12.62261 | 119° | 58km/h | 475m | -2.5m/s | 10.2°C | 94.0% | 969.5hPa | 2.7V | 00:00:00 | 03:30:53 | 00:00:00 | |
| AM1SDL-15 | 2026-09-06 01:50:42 | 53.03117 | 12.62218 | 120° | 57km/h | 480m | -2.4m/s | 10.2°C | 93.8% | 968.6hPa | 2.7V | 00:00:00 | 03:30:51 | 00:00:00 | |
| DB0DAN | 2026-09-06 01:50:40 | 53.03132 | 12.62177 | 121° | 53km/h | 485m | -2.6m/s | 10.2°C | 92.7% | 968.12hPa | 2.8V | 00:00:00 | 00:00:00 | 00:00:00 | |
| S3001 | 2026-09-06 01:50:40 | 53.03132 | 12.62177 | 120° | 55km/h | 485m | -2.6m/s | 10.2°C | 92.7% | 968.1hPa | 2.7V | 00:00:00 | 00:00:00 | 00:00:00 | |
| AM1SDL-15 | 2026-09-06 01:50:40 | 53.03132 | 12.62177 | 121° | 57km/h | 485m | -2.5m/s | 10.2°C | 93.7% | 968.1hPa | 2.7V | 00:00:00 | 03:30:49 | 00:00:00 | |
| AM1SDL-15 | 2026-09-06 01:50:36 | 53.03160 | 12.62101 | 123° | 53km/h | 495m | -2.8m/s | 10.3°C | 91.9% | 966.8hPa | 2.7V | 00:00:00 | 03:30:45 | 00:00:00 | |
| AM1SDL-15 | 2026-09-06 01:50:34 | 53.03174 | 12.62063 | 121° | 53km/h | 501m | -2.7m/s | 10.4°C | 90.7% | 966.1hPa | 2.7V | 00:00:00 | 03:30:43 | 00:00:00 | |
| AM1SDL-15 | 2026-09-06 01:50:32 | 53.03187 | 12.62023 | 115° | 55km/h | 507m | -3.1m/s | 10.3°C | 91.0% | 965.6hPa | 2.7V | 07:13:00 | 03:30:41 | 00:00:00 | |
| AM1SDL-15 | 2026-09-06 01:50:30 | 53.03198 | 12.61979 | 112° | 60km/h | 513m | -3.1m/s | 10.3°C | 91.1% | 964.8hPa | 2.7V | 00:00:00 | 03:30:39 | 00:00:00 | |
| AM1SDL-15 | 2026-09-06 01:50:28 | 53.03210 | 12.61931 | 113° | 62km/h | 519m | -3.0m/s | 10.2°C | 91.5% | 964.2hPa | 2.8V | 00:00:00 | 03:30:37 | 00:00:00 | |
| DB0DAN | 2026-09-06 01:50:25 | 53.03230 | 12.61859 | 116° | 60km/h | 528m | -3.3m/s | 10.1°C | 91% | 962.92hPa | 2.8V | 00:00:00 | 00:00:00 | 00:00:00 | |
| AM1SDL-15 | 2026-09-06 01:50:24 | 53.03237 | 12.61835 | 118° | 66km/h | 532m | -3.2m/s | 10.1°C | 92.3% | 962.5hPa | 2.7V | 00:00:00 | 03:30:33 | 00:00:00 | |
| AM1SDL-15 | 2026-09-06 01:50:22 | 53.03253 | 12.61786 | 118° | 66km/h | 538m | -3.3m/s | 10.0°C | 92.4% | 961.9hPa | 2.7V | 00:00:00 | 03:30:31 | 00:00:00 | |
| AM1SDL-15 | 2026-09-06 01:50:20 | 53.03269 | 12.61737 | 121° | 66km/h | 545m | -3.9m/s | 9.9°C | 92.8% | 961.2hPa | 2.7V | 00:00:00 | 03:30:29 | 00:00:00 | |
| AM1SDL-15 | 2026-09-06 01:50:18 | 53.03286 | 12.61690 | 123° | 66km/h | 553m | -3.6m/s | 9.9°C | 93.5% | 960.1hPa | 2.7V | 00:00:00 | 03:30:27 | 00:00:00 | |
| AM1SDL-15 | 2026-09-06 01:50:16 | 53.03305 | 12.61645 | 126° | 64km/h | 560m | -3.1m/s | 9.8°C | 93.9% | 959.4hPa | 2.7V | 07:13:00 | 03:30:25 | 00:00:00 | |
| AM1SDL-15 | 2026-09-06 01:50:14 | 53.03323 | 12.61603 | 127° | 60km/h | 567m | -3.3m/s | 9.7°C | 94.6% | 958.8hPa | 2.7V | 00:00:00 | 03:30:23 | 00:00:00 | |
| AM1SDL-15 | 2026-09-06 01:50:12 | 53.03341 | 12.61563 | 127° | 58km/h | 573m | -3.2m/s | 9.6°C | 94.9% | 957.9hPa | 2.7V | 00:00:00 | 03:30:21 | 00:00:00 | |
| DB0DAN | 2026-09-06 01:50:10 | 53.03358 | 12.61524 | 126° | 55km/h | 579m | -3.1m/s | 9.6°C | 94.2% | 957.06hPa | 2.8V | 00:00:00 | 00:00:00 | 00:00:00 | |
| AM1SDL-15 | 2026-09-06 01:50:10 | 53.03358 | 12.61524 | 127° | 57km/h | 579m | -3.0m/s | 9.6°C | 95.3% | 957.0hPa | 2.7V | 00:00:00 | 03:30:19 | 00:00:00 | |
| S3001 | 2026-09-06 01:50:09 | 53.03367 | 12.61504 | 126° | 57km/h | 582m | -3.3m/s | 9.6°C | 94.0% | 956.8hPa | 2.7V | 00:00:00 | 00:00:00 | 00:00:00 | |
| AM1SDL-15 | 2026-09-06 01:50:08 | 53.03376 | 12.61485 | 127° | 58km/h | 586m | -3.3m/s | 9.5°C | 95.3% | 956.4hPa | 2.7V | 00:00:00 | 03:30:17 | 00:00:00 | |
| AM1SDL-15 | 2026-09-06 01:50:06 | 53.03394 | 12.61445 | 128° | 60km/h | 592m | -3.2m/s | 9.5°C | 94.9% | 955.8hPa | 2.7V | 00:00:00 | 03:30:15 | 00:00:00 | |
| AM1SDL-15 | 2026-09-06 01:50:04 | 53.03413 | 12.61402 | 126° | 64km/h | 599m | -3.1m/s | 9.5°C | 94.7% | 954.9hPa | 2.7V | 00:00:00 | 03:30:13 | 00:00:00 | |
| AM1SDL-15 | 2026-09-06 01:50:02 | 53.03431 | 12.61356 | 123° | 68km/h | 606m | -3.7m/s | 9.6°C | 93.2% | 954.3hPa | 2.7V | 00:00:00 | 03:30:11 | 00:00:00 | |
| AM1SDL-15 | 2026-09-06 01:50:00 | 53.03449 | 12.61308 | 122° | 69km/h | 613m | -3.3m/s | 9.5°C | 93.6% | 953.4hPa | 2.7V | 07:13:00 | 03:30:09 | 00:00:00 | |
| AM1SDL-15 | 2026-09-06 01:49:58 | 53.03468 | 12.61259 | 123° | 69km/h | 619m | -3.4m/s | 9.7°C | 91.8% | 952.7hPa | 2.7V | 00:00:00 | 03:30:07 | 00:00:00 | |
| AM1SDL-15 | 2026-09-06 01:49:56 | 53.03487 | 12.61212 | 126° | 68km/h | 626m | -3.3m/s | 9.6°C | 92.1% | 952.0hPa | 2.7V | 00:00:00 | 03:30:05 | 00:00:00 | |
| AM1SDL-15 | 2026-09-06 01:49:54 | 53.03508 | 12.61167 | 130° | 66km/h | 633m | -3.2m/s | 9.5°C | 92.8% | 951.1hPa | 2.7V | 00:00:00 | 03:30:03 | 00:00:00 | |
| AM1SDL-15 | 2026-09-06 01:49:52 | 53.03529 | 12.61127 | 132° | 64km/h | 639m | -3.1m/s | 9.5°C | 93.2% | 950.2hPa | 2.7V | 00:00:00 | 03:30:01 | 00:00:00 | |
| AM1SDL-15 | 2026-09-06 01:49:50 | 53.03550 | 12.61089 | 132° | 58km/h | 646m | -3.5m/s | 9.4°C | 93.3% | 949.4hPa | 2.7V | 00:00:00 | 03:29:59 | 00:00:00 | |
| AM1SDL-15 | 2026-09-06 01:49:48 | 53.03569 | 12.61052 | 132° | 58km/h | 653m | -3.5m/s | 9.3°C | 93.6% | 948.7hPa | 2.7V | 00:00:00 | 03:29:57 | 00:00:00 | |
| AM1SDL-15 | 2026-09-06 01:49:46 | 53.03590 | 12.61016 | 133° | 60km/h | 660m | -2.9m/s | 9.3°C | 93.8% | 948.0hPa | 2.7V | 00:00:00 | 03:29:55 | 00:00:00 | |
| AM1SDL-15 | 2026-09-06 01:49:44 | 53.03610 | 12.60979 | 133° | 62km/h | 666m | -3.0m/s | 9.4°C | 92.6% | 947.3hPa | 2.7V | 07:14:00 | 03:29:53 | 00:00:00 | |
| AM1SDL-15 | 2026-09-06 01:49:42 | 53.03632 | 12.60939 | 133° | 66km/h | 672m | -3.3m/s | 9.3°C | 92.4% | 946.5hPa | 2.7V | 00:00:00 | 03:29:51 | 00:00:00 | |
| DB0DAN | 2026-09-06 01:49:40 | 53.03654 | 12.60896 | 130° | 64km/h | 679m | -3.4m/s | 9.4°C | 90% | 945.84hPa | 2.8V | 00:00:00 | 00:00:00 | 00:00:00 | |
| AM1SDL-15 | 2026-09-06 01:49:40 | 53.03654 | 12.60896 | 130° | 68km/h | 679m | -3.3m/s | 9.3°C | 91.1% | 945.8hPa | 2.7V | 00:00:00 | 03:29:49 | 00:00:00 | |
| S3001 | 2026-09-06 01:49:38 | 53.03676 | 12.60852 | 128° | 68km/h | 686m | -3.2m/s | 9.3°C | 90.6% | 945.1hPa | 2.7V | 00:00:00 | 00:00:00 | 00:00:00 | |
| AM1SDL-15 | 2026-09-06 01:49:36 | 53.03697 | 12.60807 | 128° | 68km/h | 692m | -3.1m/s | 9.2°C | 91.8% | 944.2hPa | 2.7V | 00:00:00 | 03:29:45 | 00:00:00 | |
| AM1SDL-15 | 2026-09-06 01:49:34 | 53.03718 | 12.60762 | 128° | 68km/h | 699m | -3.3m/s | 9.2°C | 91.4% | 943.7hPa | 2.7V | 00:00:00 | 03:29:43 | 00:00:00 | |
| AM1SDL-15 | 2026-09-06 01:49:28 | 53.03777 | 12.60625 | 127° | 66km/h | 718m | -3.1m/s | 9.0°C | 92.3% | 941.2hPa | 2.8V | 00:00:00 | 03:29:37 | 00:00:00 | |
| DB0DAN | 2026-09-06 01:49:25 | 53.03809 | 12.60556 | 129° | 66km/h | 728m | -3.1m/s | 9°C | 91.6% | 940.3hPa | 2.8V | 00:00:00 | 00:00:00 | 00:00:00 | |
| AM1SDL-15 | 2026-09-06 01:49:16 | 53.03910 | 12.60378 | 133° | 60km/h | 756m | -3.1m/s | 8.7°C | 93.8% | 937.0hPa | 2.8V | 00:00:00 | 03:29:25 | 00:00:00 | |
| DB0DAN | 2026-09-06 01:49:10 | 53.03969 | 12.60273 | 136° | 57km/h | 776m | -3.3m/s | 8.6°C | 92.4% | 934.65hPa | 2.8V | 00:00:00 | 00:00:00 | 00:00:00 | |
| S3001 | 2026-09-06 01:49:07 | 53.04003 | 12.60220 | 138° | 64km/h | 785m | -3.5m/s | 8.5°C | 92.0% | 933.9hPa | 2.7V | 00:00:00 | 00:00:00 | 00:00:00 | |
| AM1SDL-15 | 2026-09-06 01:49:04 | 53.04041 | 12.60162 | 137° | 68km/h | 796m | -3.1m/s | 8.4°C | 93.0% | 932.6hPa | 2.7V | 00:00:00 | 03:29:13 | 00:00:00 | |
| SONDE2-11 | 2026-09-06 01:48:56 | 53.04206 | 12.59919 | 141° | 62km/h | 836m | -3.0m/s | 8.2°C | 92.6% | 928.1hPa | 2.7V | 00:00:00 | 00:00:00 | 00:00:00 | |
| DB0DAN | 2026-09-06 01:48:55 | 53.04157 | 12.59986 | 140° | 62km/h | 824m | -3.2m/s | 8.2°C | 92.5% | 929.55hPa | 2.7V | 00:00:00 | 00:00:00 | 00:00:00 | |
| AA1-15 | 2026-09-06 01:48:46 | 53.04272 | 12.59830 | 140° | 71km/h | 852m | -3.3m/s | 8.1°C | 93.8% | 926.4hPa | 2.8V | 07:16:38 | 03:28:55 | 00:00:00 | |
| AA1-15 | 2026-09-06 01:48:41 | 53.04340 | 12.59733 | 139° | 71km/h | 868m | -3.3m/s | 8°C | 93.8% | 924.6hPa | 2.8V | 07:16:38 | 03:28:50 | 00:00:00 | |
| DB0DAN | 2026-09-06 01:48:40 | 53.04354 | 12.59713 | 139° | 68km/h | 871m | -3.2m/s | 8°C | 90.4% | 924.19hPa | 2.8V | 00:00:00 | 00:00:00 | 00:00:00 | |
| AM1SDL-15 | 2026-09-06 01:48:40 | 53.04354 | 12.59713 | 140° | 66km/h | 871m | -3.1m/s | 7.9°C | 91.6% | 924.1hPa | 2.7V | 00:00:00 | 03:28:49 | 00:00:00 | |
| S3001 | 2026-09-06 01:48:36 | 53.04408 | 12.59639 | 141° | 68km/h | 884m | -3.5m/s | 7.9°C | 91.4% | 922.8hPa | 2.7V | 00:00:00 | 00:00:00 | 00:00:00 | |
| AM1SDL-15 | 2026-09-06 01:48:28 | 53.04506 | 12.59511 | 142° | 66km/h | 910m | -3.3m/s | 7.6°C | 92.8% | 919.8hPa | 2.7V | 00:00:00 | 03:28:37 | 00:00:00 | |
| DB0DAN | 2026-09-06 01:48:25 | 53.04543 | 12.59465 | 144° | 58km/h | 920m | -3m/s | 7.6°C | 92.2% | 918.76hPa | 2.8V | 00:00:00 | 00:00:00 | 00:00:00 | |
| SONDE2-11 | 2026-09-06 01:48:25 | 53.04543 | 12.59465 | 143° | 60km/h | 919m | -3.0m/s | 7.6°C | 92.2% | 918.8hPa | 2.8V | 00:00:00 | 00:00:00 | 00:00:00 | |
| AM1SDL-15 | 2026-09-06 01:48:16 | 53.04662 | 12.59296 | 136° | 69km/h | 949m | -3.2m/s | 7.4°C | 94.4% | 915.5hPa | 2.8V | 00:00:00 | 03:28:25 | 00:00:00 | |
| DB0DAN | 2026-09-06 01:48:10 | 53.04735 | 12.59172 | 133° | 64km/h | 967m | -2.8m/s | 7.4°C | 91.4% | 913.52hPa | 2.8V | 00:00:00 | 00:00:00 | 00:00:00 | |
| AA1-15 | 2026-09-06 01:48:10 | 53.04735 | 12.59172 | 133° | 68km/h | 967m | -2.8m/s | 7.4°C | 93.7% | 913.5hPa | 2.8V | 07:16:38 | 03:28:19 | 00:00:00 | |
| AA1-15 | 2026-09-06 01:48:02 | 53.04834 | 12.59006 | 139° | 71km/h | 992m | -3.2m/s | 7.4°C | 89.2% | 910.9hPa | 2.7V | 07:16:38 | 03:28:11 | 00:00:00 | |
| AA1-15 | 2026-09-06 01:48:00 | 53.04861 | 12.58966 | 138° | 71km/h | 997m | -2.9m/s | 7.3°C | 89.2% | 910.2hPa | 2.8V | 07:16:38 | 03:28:09 | 00:00:00 | |
| AA1-15 | 2026-09-06 01:47:59 | 53.04875 | 12.58946 | 137° | 71km/h | 1000m | -3.1m/s | 7.3°C | 89.4% | 909.7hPa | 2.8V | 07:16:38 | 03:28:08 | 00:00:00 | |
| AA1-15 | 2026-09-06 01:47:58 | 53.04888 | 12.58925 | 136° | 71km/h | 1003m | -2.9m/s | 7.3°C | 89.4% | 909.3hPa | 2.7V | 07:16:38 | 03:28:07 | 00:00:00 | |
| AA1-15 | 2026-09-06 01:47:56 | 53.04913 | 12.58884 | 134° | 69km/h | 1009m | -2.8m/s | 7.3°C | 88.6% | 908.9hPa | 2.8V | 07:16:38 | 03:28:05 | 00:00:00 | |
| DB0DAN | 2026-09-06 01:47:55 | 53.04925 | 12.58863 | 133° | 64km/h | 1012m | -2.9m/s | 7.3°C | 85.1% | 908.45hPa | 2.8V | 00:00:00 | 00:00:00 | 00:00:00 | |
| AA1-15 | 2026-09-06 01:47:54 | 53.04936 | 12.58842 | 132° | 66km/h | 1015m | -3m/s | 7.3°C | 88% | 908.2hPa | 2.7V | 07:16:38 | 03:28:03 | 00:00:00 | |
| AA1-15 | 2026-09-06 01:47:52 | 53.04958 | 12.58802 | 132° | 64km/h | 1021m | -3m/s | 7.3°C | 88.7% | 907.6hPa | 2.8V | 07:16:38 | 03:28:01 | 00:00:00 | |
| AA1-15 | 2026-09-06 01:47:51 | 53.04969 | 12.58782 | 133° | 62km/h | 1024m | -3m/s | 7.3°C | 87.8% | 907.2hPa | 2.7V | 07:16:38 | 03:28:00 | 00:00:00 | |
| AA1-15 | 2026-09-06 01:47:49 | 53.04991 | 12.58745 | 134° | 62km/h | 1030m | -3m/s | 7.2°C | 88.7% | 906.5hPa | 2.7V | 07:16:38 | 03:27:58 | 00:00:00 | |
| AA1-15 | 2026-09-06 01:47:48 | 53.05002 | 12.58726 | 134° | 60km/h | 1033m | -3.3m/s | 7.2°C | 88.9% | 906.2hPa | 2.7V | 07:16:38 | 03:27:57 | 00:00:00 | |
| AA1-15 | 2026-09-06 01:47:46 | 53.05023 | 12.58690 | 135° | 60km/h | 1039m | -3.1m/s | 7.2°C | 90.1% | 905.6hPa | 2.7V | 07:16:38 | 03:27:55 | 00:00:00 | |
| AA1-15 | 2026-09-06 01:47:45 | 53.05034 | 12.58672 | 135° | 60km/h | 1042m | -3m/s | 7.1°C | 90.2% | 905.3hPa | 2.7V | 07:16:38 | 03:27:54 | 00:00:00 | |
| AA1-15 | 2026-09-06 01:47:43 | 53.05055 | 12.58637 | 135° | 60km/h | 1048m | -3m/s | 7.1°C | 90.4% | 904.6hPa | 2.7V | 07:16:38 | 03:27:52 | 00:00:00 | |
| AA1-15 | 2026-09-06 01:47:41 | 53.05077 | 12.58600 | 134° | 60km/h | 1054m | -3.2m/s | 7°C | 90.4% | 903.8hPa | 2.8V | 07:16:38 | 03:27:50 | 00:00:00 | |
| DB0DAN | 2026-09-06 01:47:40 | 53.05087 | 12.58582 | 134° | 58km/h | 1057m | -3.1m/s | 7°C | 87.2% | 903.57hPa | 2.7V | 00:00:00 | 00:00:00 | 00:00:00 | |
| AA1-15 | 2026-09-06 01:47:39 | 53.05098 | 12.58563 | 133° | 62km/h | 1060m | -3.1m/s | 7°C | 90.3% | 903.2hPa | 2.7V | 07:16:38 | 03:27:48 | 00:00:00 | |
| AA1-15 | 2026-09-06 01:47:38 | 53.05109 | 12.58544 | 133° | 64km/h | 1063m | -2.9m/s | 7°C | 90.3% | 902.8hPa | 2.7V | 07:16:38 | 03:27:47 | 00:00:00 | |
| AA1-15 | 2026-09-06 01:47:36 | 53.05132 | 12.58503 | 134° | 68km/h | 1069m | -3.1m/s | 6.9°C | 90.8% | 902.3hPa | 2.7V | 07:16:38 | 03:27:45 | 00:00:00 | |
| AA1-15 | 2026-09-06 01:47:34 | 53.05156 | 12.58461 | 135° | 71km/h | 1075m | -3.2m/s | 6.9°C | 91% | 901.5hPa | 2.7V | 07:16:38 | 03:27:43 | 00:00:00 | |
| AA1-15 | 2026-09-06 01:47:33 | 53.05169 | 12.58440 | 135° | 71km/h | 1079m | -3m/s | 6.8°C | 91.1% | 901.1hPa | 2.7V | 07:16:38 | 03:27:42 | 00:00:00 | |
| AA1-15 | 2026-09-06 01:47:32 | 53.05182 | 12.58419 | 135° | 71km/h | 1082m | -3.2m/s | 6.8°C | 91% | 900.9hPa | 2.7V | 07:16:38 | 03:27:41 | 00:00:00 | |
| AA1-15 | 2026-09-06 01:47:30 | 53.05207 | 12.58377 | 135° | 69km/h | 1088m | -2.9m/s | 6.8°C | 90.7% | 900.1hPa | 2.8V | 07:16:38 | 03:27:39 | 00:00:00 | |
| AA1-15 | 2026-09-06 01:47:28 | 53.05231 | 12.58335 | 133° | 68km/h | 1094m | -2.9m/s | 6.7°C | 90.5% | 899.6hPa | 2.7V | 07:16:38 | 03:27:37 | 00:00:00 | |
| AA1-15 | 2026-09-06 01:47:27 | 53.05242 | 12.58315 | 133° | 64km/h | 1097m | -3m/s | 6.7°C | 90.6% | 899.2hPa | 2.7V | 07:16:38 | 03:27:36 | 00:00:00 | |
| AA1-15 | 2026-09-06 01:47:26 | 53.05253 | 12.58295 | 133° | 64km/h | 1100m | -3.2m/s | 6.7°C | 90.4% | 898.9hPa | 2.7V | 07:16:38 | 03:27:35 | 00:00:00 | |
| AA1-15 | 2026-09-06 01:47:24 | 53.05275 | 12.58258 | 134° | 60km/h | 1106m | -2.9m/s | 6.7°C | 89.4% | 898.2hPa | 2.7V | 07:16:38 | 03:27:33 | 00:00:00 | |
| AA1-15 | 2026-09-06 01:47:22 | 53.05297 | 12.58222 | 136° | 60km/h | 1112m | -3m/s | 6.7°C | 86.7% | 897.5hPa | 2.7V | 07:16:38 | 03:27:31 | 00:00:00 | |
| AA1-15 | 2026-09-06 01:47:20 | 53.05318 | 12.58188 | 136° | 58km/h | 1118m | -3.1m/s | 6.6°C | 85.5% | 897hPa | 2.7V | 07:16:38 | 03:27:29 | 00:00:00 | |
| AA1-15 | 2026-09-06 01:47:18 | 53.05340 | 12.58152 | 135° | 62km/h | 1124m | -3m/s | 6.6°C | 84.5% | 896.2hPa | 2.7V | 07:16:38 | 03:27:27 | 00:00:00 | |
| AA1-15 | 2026-09-06 01:47:16 | 53.05362 | 12.58113 | 134° | 66km/h | 1130m | -3.1m/s | 6.6°C | 85.1% | 895.6hPa | 2.7V | 07:16:38 | 03:27:25 | 00:00:00 | |
| AA1-15 | 2026-09-06 01:47:15 | 53.05374 | 12.58093 | 133° | 68km/h | 1133m | -2.9m/s | 6.5°C | 85.5% | 895.2hPa | 2.7V | 07:16:38 | 03:27:24 | 00:00:00 | |
| AA1-15 | 2026-09-06 01:47:13 | 53.05398 | 12.58051 | 134° | 69km/h | 1140m | -3.1m/s | 6.5°C | 84.2% | 894.6hPa | 2.7V | 07:17:29 | 03:27:22 | 00:00:00 | |
| AA1-15 | 2026-09-06 01:47:11 | 53.05422 | 12.58008 | 133° | 69km/h | 1146m | -3.2m/s | 6.4°C | 84.3% | 893.9hPa | 2.7V | 07:17:29 | 03:27:20 | 00:00:00 | |
| DB0DAN | 2026-09-06 01:47:10 | 53.05434 | 12.57988 | 133° | 64km/h | 1149m | -3m/s | 6.4°C | 81.2% | 893.49hPa | 2.7V | 00:00:00 | 00:00:00 | 00:00:00 | |
| AA1-15 | 2026-09-06 01:47:09 | 53.05445 | 12.57967 | 133° | 64km/h | 1152m | -3m/s | 6.4°C | 84.7% | 893.1hPa | 2.7V | 07:17:29 | 03:27:18 | 00:00:00 | |
| AA1-15 | 2026-09-06 01:47:07 | 53.05467 | 12.57929 | 135° | 60km/h | 1158m | -3.2m/s | 6.3°C | 85.9% | 892.5hPa | 2.7V | 07:17:29 | 03:27:16 | 00:00:00 | |
| AA1-15 | 2026-09-06 01:47:06 | 53.05478 | 12.57912 | 136° | 58km/h | 1161m | -2.9m/s | 6.3°C | 86.2% | 892.1hPa | 2.7V | 07:17:29 | 03:27:15 | 00:00:00 | |
| AA1-15 | 2026-09-06 01:47:05 | 53.05489 | 12.57895 | 138° | 58km/h | 1164m | -3m/s | 6.3°C | 85.7% | 891.9hPa | 2.7V | 07:17:29 | 03:27:14 | 00:00:00 | |
| AA1-15 | 2026-09-06 01:47:03 | 53.05511 | 12.57863 | 140° | 58km/h | 1170m | -3.2m/s | 6.3°C | 83.7% | 891.2hPa | 2.7V | 07:17:29 | 03:27:12 | 00:00:00 | |
| AA1-15 | 2026-09-06 01:47:01 | 53.05534 | 12.57832 | 142° | 60km/h | 1177m | -3.1m/s | 6.2°C | 84.2% | 890.5hPa | 2.7V | 07:17:29 | 03:27:10 | 00:00:00 | |
| DB0DAN | 2026-09-06 01:46:55 | 53.05608 | 12.57740 | 144° | 58km/h | 1196m | -3.2m/s | 6.1°C | 78.5% | 888.27hPa | 2.7V | 00:00:00 | 00:00:00 | 00:00:00 | |
| AA1-15 | 2026-09-06 01:46:54 | 53.05621 | 12.57725 | 144° | 62km/h | 1199m | -3.1m/s | 6.1°C | 82.9% | 887.9hPa | 2.7V | 07:17:29 | 03:27:03 | 00:00:00 | |
| SONDE2-11 | 2026-09-06 01:46:52 | 53.05646 | 12.57693 | 142° | 64km/h | 1205m | -3.0m/s | 6.0°C | 79.5% | 887.4hPa | 2.7V | 00:00:00 | 00:00:00 | 00:00:00 | |
| DB0DAN | 2026-09-06 01:46:40 | 53.05804 | 12.57479 | 143° | 58km/h | 1241m | -3.1m/s | 5.8°C | 78.3% | 883.61hPa | 2.7V | 00:00:00 | 00:00:00 | 00:00:00 | |
| AA1-15 | 2026-09-06 01:46:26 | 53.05949 | 12.57224 | 130° | 57km/h | 1283m | -3.1m/s | 5.7°C | 78% | 878.9hPa | 2.7V | 07:17:29 | 03:26:35 | 00:00:00 | |
| DB0DAN | 2026-09-06 01:46:25 | 53.05959 | 12.57206 | 130° | 55km/h | 1286m | -3.2m/s | 5.6°C | 74.2% | 878.63hPa | 2.7V | 00:00:00 | 00:00:00 | 00:00:00 | |
| AA1-15 | 2026-09-06 01:46:25 | 53.05959 | 12.57206 | 130° | 57km/h | 1286m | -3.2m/s | 5.6°C | 78% | 878.6hPa | 2.7V | 07:17:29 | 03:26:34 | 00:00:00 | |
| AA1-15 | 2026-09-06 01:46:23 | 53.05977 | 12.57169 | 130° | 57km/h | 1292m | -3.1m/s | 5.6°C | 78.4% | 878.1hPa | 2.7V | 07:18:20 | 03:26:32 | 00:00:00 | |
| AA1-15 | 2026-09-06 01:46:20 | 53.06005 | 12.57116 | 132° | 55km/h | 1301m | -3.1m/s | 5.5°C | 78.9% | 877hPa | 2.7V | 07:18:20 | 03:26:29 | 00:00:00 | |
| AA1-15 | 2026-09-06 01:46:19 | 53.06015 | 12.57099 | 133° | 55km/h | 1304m | -3m/s | 5.5°C | 78.7% | 876.6hPa | 2.7V | 07:18:20 | 03:26:28 | 00:00:00 | |
| AA1-15 | 2026-09-06 01:46:18 | 53.06024 | 12.57082 | 134° | 55km/h | 1307m | -2.9m/s | 5.4°C | 78.9% | 876.4hPa | 2.7V | 07:18:20 | 03:26:27 | 00:00:00 | |
| AA1-15 | 2026-09-06 01:46:16 | 53.06044 | 12.57048 | 134° | 55km/h | 1313m | -3.2m/s | 5.4°C | 79.9% | 875.7hPa | 2.7V | 07:18:20 | 03:26:25 | 00:00:00 | |
| AA1-15 | 2026-09-06 01:46:15 | 53.06053 | 12.57031 | 133° | 55km/h | 1316m | -3.2m/s | 5.4°C | 80.6% | 875.4hPa | 2.7V | 07:18:20 | 03:26:24 | 00:00:00 | |
| AA1-15 | 2026-09-06 01:46:13 | 53.06072 | 12.56996 | 130° | 57km/h | 1323m | -3.2m/s | 5.4°C | 80.9% | 874.7hPa | 2.7V | 07:18:20 | 03:26:22 | 00:00:00 | |
| AA1-15 | 2026-09-06 01:46:12 | 53.06081 | 12.56978 | 129° | 57km/h | 1326m | -3.3m/s | 5.3°C | 80.9% | 874.4hPa | 2.7V | 07:18:20 | 03:26:21 | 00:00:00 | |
| DB0DAN | 2026-09-06 01:46:10 | 53.06098 | 12.56941 | 129° | 53km/h | 1333m | -3.1m/s | 5.3°C | 77% | 873.5hPa | 2.7V | 00:00:00 | 00:00:00 | 00:00:00 | |
| AA1-15 | 2026-09-06 01:46:10 | 53.06098 | 12.56941 | 129° | 57km/h | 1333m | -3.1m/s | 5.3°C | 80.7% | 873.5hPa | 2.7V | 07:18:20 | 03:26:19 | 00:00:00 | |
| AA1-15 | 2026-09-06 01:46:08 | 53.06116 | 12.56905 | 131° | 57km/h | 1339m | -3.2m/s | 5.2°C | 83.9% | 872.9hPa | 2.7V | 07:18:20 | 03:26:17 | 00:00:00 | |
| AA1-15 | 2026-09-06 01:46:05 | 53.06147 | 12.56853 | 137° | 60km/h | 1348m | -3m/s | 5.2°C | 83.7% | 872hPa | 2.7V | 07:18:20 | 03:26:14 | 00:00:00 | |
| AA1-15 | 2026-09-06 01:46:00 | 53.06203 | 12.56756 | 129° | 66km/h | 1364m | -3.1m/s | 5.1°C | 85.4% | 870.3hPa | 2.7V | 07:18:20 | 03:26:09 | 00:00:00 | |
| AA1-15 | 2026-09-06 01:45:57 | 53.06232 | 12.56693 | 127° | 62km/h | 1374m | -3m/s | 5.1°C | 86.3% | 869.3hPa | 2.7V | 07:18:20 | 03:26:06 | 00:00:00 | |
| AA1-15 | 2026-09-06 01:45:56 | 53.06241 | 12.56673 | 126° | 60km/h | 1377m | -3m/s | 5.1°C | 86% | 869.1hPa | 2.7V | 07:18:20 | 03:26:05 | 00:00:00 | |
| DB0DAN | 2026-09-06 01:45:55 | 53.06250 | 12.56653 | 127° | 57km/h | 1380m | -3.3m/s | 5.1°C | 82% | 868.61hPa | 2.7V | 00:00:00 | 00:00:00 | 00:00:00 | |
| AA1-15 | 2026-09-06 01:45:53 | 53.06268 | 12.56612 | 127° | 60km/h | 1387m | -3.2m/s | 5°C | 86.1% | 867.9hPa | 2.7V | 07:18:20 | 03:26:02 | 00:00:00 | |
| AA1-15 | 2026-09-06 01:45:52 | 53.06278 | 12.56592 | 126° | 60km/h | 1390m | -3.1m/s | 5°C | 86.4% | 867.6hPa | 2.7V | 07:18:20 | 03:26:01 | 00:00:00 | |
| AA1-15 | 2026-09-06 01:45:50 | 53.06296 | 12.56551 | 127° | 62km/h | 1396m | -3.1m/s | 5°C | 87.1% | 866.9hPa | 2.7V | 07:18:20 | 03:25:59 | 00:00:00 | |
| AA1-15 | 2026-09-06 01:45:49 | 53.06306 | 12.56530 | 127° | 64km/h | 1399m | -3.2m/s | 4.9°C | 87.4% | 866.5hPa | 2.7V | 07:18:20 | 03:25:58 | 00:00:00 | |
| AA1-15 | 2026-09-06 01:45:47 | 53.06325 | 12.56487 | 128° | 66km/h | 1405m | -3.1m/s | 4.9°C | 87.8% | 865.8hPa | 2.7V | 07:18:20 | 03:25:56 | 00:00:00 | |
| EDDB2-11 | 2026-09-06 01:45:44 | 53.06366 | 12.56399 | 127° | 64km/h | 1418m | -3.3m/s | 4.8°C | 83.2% | 864.5hPa | 2.7V | 00:00:00 | 00:00:00 | 00:00:00 | |
| DB0DAN | 2026-09-06 01:45:40 | 53.06394 | 12.56339 | 129° | 53km/h | 1428m | -3.2m/s | 4.7°C | 83.1% | 863.52hPa | 2.7V | 00:00:00 | 00:00:00 | 00:00:00 | |
| AA1-15 | 2026-09-06 01:45:39 | 53.06403 | 12.56321 | 132° | 55km/h | 1431m | -3.2m/s | 4.7°C | 86.9% | 863.3hPa | 2.7V | 07:18:20 | 03:25:48 | 00:00:00 | |
| AA1-15 | 2026-09-06 01:45:38 | 53.06412 | 12.56304 | 134° | 55km/h | 1434m | -3.1m/s | 4.7°C | 86.9% | 862.9hPa | 2.7V | 07:18:20 | 03:25:47 | 00:00:00 | |
| AA1-15 | 2026-09-06 01:45:36 | 53.06433 | 12.56271 | 137° | 58km/h | 1440m | -3.2m/s | 4.6°C | 87.1% | 862.3hPa | 2.7V | 07:18:20 | 03:25:45 | 00:00:00 | |
| AA1-15 | 2026-09-06 01:45:35 | 53.06444 | 12.56254 | 137° | 60km/h | 1443m | -3.1m/s | 4.6°C | 87.3% | 861.9hPa | 2.7V | 07:18:20 | 03:25:44 | 00:00:00 | |
| AA1-15 | 2026-09-06 01:45:33 | 53.06467 | 12.56219 | 137° | 64km/h | 1450m | -3.1m/s | 4.5°C | 87.2% | 861.2hPa | 2.6V | 07:18:20 | 03:25:42 | 00:00:00 | |
| AA1-15 | 2026-09-06 01:45:31 | 53.06490 | 12.56181 | 135° | 66km/h | 1456m | -3.2m/s | 4.5°C | 87.7% | 860.5hPa | 2.7V | 07:19:11 | 03:25:40 | 00:00:00 | |
| AA1-15 | 2026-09-06 01:45:30 | 53.06502 | 12.56161 | 134° | 66km/h | 1459m | -3.3m/s | 4.5°C | 88% | 860.2hPa | 2.7V | 07:19:11 | 03:25:39 | 00:00:00 | |
| AA1-15 | 2026-09-06 01:45:28 | 53.06525 | 12.56120 | 133° | 68km/h | 1466m | -3.3m/s | 4.4°C | 87.7% | 859.5hPa | 2.7V | 07:19:11 | 03:25:37 | 00:00:00 | |
| AA1-15 | 2026-09-06 01:45:27 | 53.06537 | 12.56100 | 133° | 68km/h | 1469m | -3.4m/s | 4.4°C | 87.7% | 859.1hPa | 2.7V | 07:19:11 | 03:25:36 | 00:00:00 | |
| DB0DAN | 2026-09-06 01:45:25 | 53.06560 | 12.56059 | 134° | 62km/h | 1476m | -3m/s | 4.3°C | 84.5% | 858.42hPa | 2.7V | 00:00:00 | 00:00:00 | 00:00:00 | |
| AA1-15 | 2026-09-06 01:45:25 | 53.06560 | 12.56059 | 134° | 66km/h | 1476m | -3m/s | 4.3°C | 87% | 858.4hPa | 2.7V | 07:19:11 | 03:25:34 | 00:00:00 | |
| AA1-15 | 2026-09-06 01:45:24 | 53.06571 | 12.56039 | 135° | 64km/h | 1479m | -3m/s | 4.3°C | 86.7% | 858.2hPa | 2.7V | 07:19:11 | 03:25:33 | 00:00:00 | |
| AA1-15 | 2026-09-06 01:45:22 | 53.06594 | 12.56002 | 136° | 62km/h | 1485m | -3.1m/s | 4.3°C | 86.5% | 857.5hPa | 2.7V | 07:19:11 | 03:25:31 | 00:00:00 | |
| AA1-15 | 2026-09-06 01:45:21 | 53.06605 | 12.55984 | 136° | 60km/h | 1488m | -3.1m/s | 4.3°C | 86.5% | 857.2hPa | 2.7V | 07:19:11 | 03:25:30 | 00:00:00 | |
| AA1-15 | 2026-09-06 01:45:20 | 53.06616 | 12.55967 | 136° | 60km/h | 1491m | -3.3m/s | 4.2°C | 86.5% | 856.9hPa | 2.7V | 07:19:11 | 03:25:29 | 00:00:00 | |
| AA1-15 | 2026-09-06 01:45:18 | 53.06638 | 12.55932 | 137° | 62km/h | 1497m | -3.3m/s | 4.2°C | 85.9% | 856.2hPa | 2.7V | 07:19:11 | 03:25:27 | 00:00:00 | |
| AA1-15 | 2026-09-06 01:45:16 | 53.06661 | 12.55895 | 136° | 64km/h | 1504m | -3m/s | 4.2°C | 85.8% | 855.3hPa | 2.7V | 07:19:11 | 03:25:25 | 00:00:00 | |
| AA1-15 | 2026-09-06 01:45:16 | 53.06673 | 12.55876 | 135° | 66km/h | 1507m | -3.3m/s | 4.2°C | 85.6% | 855.3hPa | 2.7V | 07:19:11 | 03:25:24 | 00:00:00 | |
| AA1-15 | 2026-09-06 01:45:14 | 53.06685 | 12.55856 | 134° | 68km/h | 1510m | -3.1m/s | 4.2°C | 85.6% | 854.8hPa | 2.7V | 07:19:11 | 03:25:23 | 00:00:00 | |
| AA1-15 | 2026-09-06 01:45:12 | 53.06708 | 12.55814 | 131° | 69km/h | 1517m | -3.2m/s | 4.2°C | 84.2% | 854.2hPa | 2.6V | 07:19:11 | 03:25:21 | 00:00:00 | |
| AA1-15 | 2026-09-06 01:45:11 | 53.06719 | 12.55792 | 130° | 69km/h | 1520m | -3.2m/s | 4.2°C | 84.1% | 853.8hPa | 2.7V | 07:19:11 | 03:25:20 | 00:00:00 | |
| DB0DAN | 2026-09-06 01:45:10 | 53.06730 | 12.55770 | 128° | 66km/h | 1523m | -3.1m/s | 4.1°C | 80.2% | 853.54hPa | 2.7V | 00:00:00 | 00:00:00 | 00:00:00 | |
| AA1-15 | 2026-09-06 01:45:09 | 53.06741 | 12.55747 | 127° | 69km/h | 1526m | -3.3m/s | 4.1°C | 82.8% | 853.1hPa | 2.7V | 07:19:11 | 03:25:18 | 00:00:00 | |
| AA1-15 | 2026-09-06 01:45:08 | 53.06751 | 12.55724 | 125° | 68km/h | 1529m | -3.2m/s | 4.1°C | 82.4% | 852.6hPa | 2.7V | 07:19:11 | 03:25:17 | 00:00:00 | |
| AA1-15 | 2026-09-06 01:45:06 | 53.06770 | 12.55678 | 123° | 64km/h | 1536m | -3m/s | 4.1°C | 82.4% | 852.2hPa | 2.6V | 07:19:11 | 03:25:15 | 00:00:00 | |
| AA1-15 | 2026-09-06 01:45:04 | 53.06787 | 12.55633 | 123° | 60km/h | 1542m | -3.3m/s | 4°C | 82.3% | 851.4hPa | 2.7V | 07:19:11 | 03:25:13 | 00:00:00 | |
| AA1-15 | 2026-09-06 01:45:03 | 53.06795 | 12.55612 | 122° | 60km/h | 1545m | -3.4m/s | 4°C | 82.2% | 851.1hPa | 2.7V | 07:19:11 | 03:25:12 | 00:00:00 | |
| AA1-15 | 2026-09-06 01:45:01 | 53.06811 | 12.55570 | 123° | 58km/h | 1552m | -3.4m/s | 3.9°C | 81.5% | 850.4hPa | 2.6V | 07:19:11 | 03:25:10 | 00:00:00 | |
| AA1-15 | 2026-09-06 01:45:00 | 53.06819 | 12.55549 | 123° | 58km/h | 1555m | -3.3m/s | 3.9°C | 81.5% | 850hPa | 2.7V | 07:19:11 | 03:25:09 | 00:00:00 | |
| AA1-15 | 2026-09-06 01:44:59 | 53.06827 | 12.55528 | 122° | 60km/h | 1559m | -3.2m/s | 3.9°C | 81.8% | 849.7hPa | 2.7V | 07:19:11 | 03:25:08 | 00:00:00 | |
| AA1-15 | 2026-09-06 01:44:57 | 53.06844 | 12.55484 | 123° | 64km/h | 1565m | -3.2m/s | 3.8°C | 81.7% | 849hPa | 2.7V | 07:19:11 | 03:25:06 | 00:00:00 | |
| AA1-15 | 2026-09-06 01:44:56 | 53.06853 | 12.55462 | 123° | 66km/h | 1568m | -3.4m/s | 3.8°C | 80.5% | 848.8hPa | 2.7V | 07:19:11 | 03:25:05 | 00:00:00 | |
| AA1-15 | 2026-09-06 01:44:54 | 53.06871 | 12.55415 | 124° | 68km/h | 1575m | -3.2m/s | 3.8°C | 78.9% | 848.1hPa | 2.7V | 07:19:11 | 03:25:03 | 00:00:00 | |
| AA1-15 | 2026-09-06 01:44:53 | 53.06881 | 12.55392 | 124° | 68km/h | 1578m | -3.3m/s | 3.8°C | 78.6% | 847.7hPa | 2.6V | 07:19:11 | 03:25:02 | 00:00:00 | |
| AA1-15 | 2026-09-06 01:44:51 | 53.06900 | 12.55345 | 123° | 66km/h | 1585m | -3.4m/s | 3.8°C | 78.2% | 847.1hPa | 2.7V | 07:19:11 | 03:25:00 | 00:00:00 | |
| AA1-15 | 2026-09-06 01:44:49 | 53.06917 | 12.55299 | 121° | 64km/h | 1591m | -3.2m/s | 3.7°C | 78.5% | 846.2hPa | 2.7V | 07:19:11 | 03:24:58 | 00:00:00 | |
| AA1-15 | 2026-09-06 01:44:48 | 53.06925 | 12.55276 | 120° | 62km/h | 1594m | -3.5m/s | 3.7°C | 78.6% | 846hPa | 2.7V | 07:19:11 | 03:24:57 | 00:00:00 | |
| AA1-15 | 2026-09-06 01:44:47 | 53.06933 | 12.55254 | 120° | 60km/h | 1598m | -3.2m/s | 3.7°C | 78.4% | 845.8hPa | 2.7V | 07:19:11 | 03:24:56 | 00:00:00 | |
| AA1-15 | 2026-09-06 01:44:45 | 53.06948 | 12.55210 | 120° | 58km/h | 1604m | -3.3m/s | 3.7°C | 78.6% | 845hPa | 2.7V | 07:19:11 | 03:24:54 | 00:00:00 | |
| AA1-15 | 2026-09-06 01:44:44 | 53.06955 | 12.55189 | 120° | 57km/h | 1608m | -3.2m/s | 3.6°C | 78.6% | 844.8hPa | 2.7V | 07:19:11 | 03:24:53 | 00:00:00 | |
| AA1-15 | 2026-09-06 01:44:42 | 53.06970 | 12.55148 | 122° | 55km/h | 1614m | -3.3m/s | 3.6°C | 78.7% | 843.9hPa | 2.7V | 07:19:11 | 03:24:51 | 00:00:00 | |
| AA1-15 | 2026-09-06 01:44:40 | 53.06985 | 12.55110 | 124° | 53km/h | 1621m | -3.3m/s | 3.5°C | 78.9% | 843.3hPa | 2.7V | 07:20:02 | 03:24:49 | 00:00:00 | |
| AA1-15 | 2026-09-06 01:44:38 | 53.07000 | 12.55073 | 126° | 53km/h | 1627m | -3.3m/s | 3.5°C | 79% | 842.7hPa | 2.7V | 07:20:02 | 03:24:47 | 00:00:00 | |
| AA1-15 | 2026-09-06 01:44:37 | 53.07008 | 12.55056 | 128° | 53km/h | 1631m | -3.2m/s | 3.4°C | 79.1% | 842.1hPa | 2.7V | 07:20:02 | 03:24:46 | 00:00:00 | |
| AA1-15 | 2026-09-06 01:44:35 | 53.07025 | 12.55020 | 129° | 53km/h | 1637m | -3.2m/s | 3.4°C | 79.3% | 841.6hPa | 2.7V | 07:20:02 | 03:24:44 | 00:00:00 | |
| AA1-15 | 2026-09-06 01:44:33 | 53.07043 | 12.54985 | 131° | 55km/h | 1643m | -3.3m/s | 3.3°C | 79.5% | 841hPa | 2.7V | 07:20:02 | 03:24:42 | 00:00:00 | |
| AA1-15 | 2026-09-06 01:44:32 | 53.07052 | 12.54967 | 131° | 57km/h | 1647m | -3.4m/s | 3.3°C | 79.7% | 840.5hPa | 2.7V | 07:20:02 | 03:24:41 | 00:00:00 | |
| AA1-15 | 2026-09-06 01:44:30 | 53.07071 | 12.54931 | 131° | 57km/h | 1654m | -3.3m/s | 3.2°C | 80.1% | 839.8hPa | 2.7V | 07:20:02 | 03:24:39 | 00:00:00 | |
| AA1-15 | 2026-09-06 01:44:29 | 53.07080 | 12.54914 | 132° | 57km/h | 1657m | -3.3m/s | 3.2°C | 80.3% | 839.6hPa | 2.7V | 07:20:02 | 03:24:38 | 00:00:00 | |
| AA1-15 | 2026-09-06 01:44:28 | 53.07089 | 12.54896 | 131° | 55km/h | 1660m | -3.3m/s | 3.2°C | 80.5% | 839.3hPa | 2.7V | 07:20:02 | 03:24:37 | 00:00:00 | |
| AA1-15 | 2026-09-06 01:44:27 | 53.07099 | 12.54879 | 131° | 55km/h | 1663m | -3.2m/s | 3.1°C | 80.6% | 838.9hPa | 2.7V | 07:20:02 | 03:24:36 | 00:00:00 | |
| DB0DAN | 2026-09-06 01:44:25 | 53.07117 | 12.54844 | 132° | 53km/h | 1670m | -3.5m/s | 3.1°C | 76.4% | 838.24hPa | 2.7V | 00:00:00 | 00:00:00 | 00:00:00 | |
| AA1-15 | 2026-09-06 01:44:25 | 53.07117 | 12.54844 | 132° | 55km/h | 1670m | -3.5m/s | 3.1°C | 80.9% | 838.2hPa | 2.7V | 07:20:02 | 03:24:34 | 00:00:00 | |
| AA1-15 | 2026-09-06 01:44:24 | 53.07126 | 12.54826 | 132° | 57km/h | 1674m | -3.5m/s | 3°C | 81.1% | 837.9hPa | 2.7V | 07:20:02 | 03:24:33 | 00:00:00 | |
| AA1-15 | 2026-09-06 01:44:22 | 53.07145 | 12.54792 | 132° | 55km/h | 1680m | -3.4m/s | 3°C | 81.4% | 837.2hPa | 2.7V | 07:20:02 | 03:24:31 | 00:00:00 | |
| AA1-15 | 2026-09-06 01:44:20 | 53.07163 | 12.54757 | 132° | 55km/h | 1687m | -3.4m/s | 2.9°C | 81.8% | 836.4hPa | 2.7V | 07:20:02 | 03:24:29 | 00:00:00 | |
| AA1-15 | 2026-09-06 01:44:19 | 53.07172 | 12.54740 | 131° | 53km/h | 1690m | -3.2m/s | 2.9°C | 82.1% | 836.1hPa | 2.7V | 07:20:02 | 03:24:28 | 00:00:00 | |
| AA1-15 | 2026-09-06 01:44:17 | 53.07189 | 12.54707 | 128° | 51km/h | 1697m | -3.4m/s | 2.8°C | 82.3% | 835.4hPa | 2.7V | 07:20:02 | 03:24:26 | 00:00:00 | |
| AA1-15 | 2026-09-06 01:44:15 | 53.07204 | 12.54672 | 126° | 51km/h | 1703m | -3.2m/s | 2.8°C | 82.3% | 834.7hPa | 2.7V | 07:20:02 | 03:24:24 | 00:00:00 | |
| AA1-15 | 2026-09-06 01:44:14 | 53.07212 | 12.54655 | 126° | 49km/h | 1706m | -3.3m/s | 2.8°C | 82.4% | 834.3hPa | 2.7V | 07:20:02 | 03:24:23 | 00:00:00 | |
| AA1-15 | 2026-09-06 01:44:12 | 53.07227 | 12.54621 | 127° | 51km/h | 1713m | -3.5m/s | 2.7°C | 82.8% | 833.7hPa | 2.6V | 07:20:02 | 03:24:21 | 00:00:00 | |
| AA1-15 | 2026-09-06 01:44:10 | 53.07242 | 12.54587 | 130° | 51km/h | 1720m | -3.3m/s | 2.6°C | 83.2% | 833hPa | 2.7V | 07:20:02 | 03:24:19 | 00:00:00 | |
| AA1-15 | 2026-09-06 01:44:09 | 53.07251 | 12.54571 | 132° | 53km/h | 1723m | -3.5m/s | 2.6°C | 83.4% | 832.7hPa | 2.7V | 07:20:02 | 03:24:18 | 00:00:00 | |
| AA1-15 | 2026-09-06 01:44:07 | 53.07269 | 12.54537 | 133° | 57km/h | 1730m | -3.4m/s | 2.6°C | 83.7% | 832hPa | 2.7V | 07:20:02 | 03:24:16 | 00:00:00 | |
| AA1-15 | 2026-09-06 01:44:05 | 53.07289 | 12.54502 | 133° | 58km/h | 1736m | -3.4m/s | 2.5°C | 83.9% | 831.4hPa | 2.7V | 07:20:02 | 03:24:14 | 00:00:00 | |
| AA1-15 | 2026-09-06 01:44:04 | 53.07299 | 12.54483 | 131° | 60km/h | 1740m | -3.4m/s | 2.5°C | 84.1% | 830.9hPa | 2.7V | 07:20:02 | 03:24:13 | 00:00:00 | |
| AA1-15 | 2026-09-06 01:44:03 | 53.07309 | 12.54464 | 130° | 60km/h | 1743m | -3.1m/s | 2.5°C | 84.1% | 830.6hPa | 2.6V | 07:20:02 | 03:24:12 | 00:00:00 | |
| AA1-15 | 2026-09-06 01:44:01 | 53.07328 | 12.54423 | 126° | 62km/h | 1749m | -3.3m/s | 2.4°C | 84.4% | 829.9hPa | 2.7V | 07:20:02 | 03:24:10 | 00:00:00 | |
| AA1-15 | 2026-09-06 01:44:00 | 53.07337 | 12.54402 | 124° | 60km/h | 1753m | -3.3m/s | 2.4°C | 84.5% | 829.6hPa | 2.7V | 07:20:02 | 03:24:09 | 00:00:00 | |
| AA1-15 | 2026-09-06 01:43:59 | 53.07345 | 12.54381 | 122° | 60km/h | 1756m | -3.3m/s | 2.3°C | 84.9% | 829.3hPa | 2.7V | 07:20:02 | 03:24:08 | 00:00:00 | |
| AA1-15 | 2026-09-06 01:43:57 | 53.07360 | 12.54339 | 120° | 57km/h | 1763m | -3.3m/s | 2.3°C | 85.4% | 828.6hPa | 2.7V | 07:20:02 | 03:24:06 | 00:00:00 | |
| S3001 | 2026-09-06 01:43:57 | 53.07367 | 12.54318 | 119° | 55km/h | 1766m | -3.2m/s | 2.2°C | 82.2% | 828.3hPa | 2.7V | 00:00:00 | 00:00:00 | 00:00:00 | |
| DB0DAN | 2026-09-06 01:43:55 | 53.07374 | 12.54297 | 119° | 53km/h | 1769m | -3.1m/s | 2.2°C | 82.2% | 827.9hPa | 2.7V | 00:00:00 | 00:00:00 | 00:00:00 | |
| AA1-15 | 2026-09-06 01:43:55 | 53.07374 | 12.54297 | 119° | 57km/h | 1769m | -3.1m/s | 2.2°C | 86% | 827.9hPa | 2.7V | 07:20:02 | 03:24:04 | 00:00:00 | |
| AA1-15 | 2026-09-06 01:43:53 | 53.07388 | 12.54257 | 119° | 55km/h | 1776m | -3.4m/s | 2.2°C | 86.4% | 827.3hPa | 2.6V | 07:20:02 | 03:24:02 | 00:00:00 | |
| AA1-15 | 2026-09-06 01:43:51 | 53.07402 | 12.54216 | 120° | 57km/h | 1782m | -3.3m/s | 2.1°C | 86.7% | 826.7hPa | 2.7V | 07:20:02 | 03:24:00 | 00:00:00 | |
| AA1-15 | 2026-09-06 01:43:50 | 53.07409 | 12.54195 | 120° | 57km/h | 1786m | -3.3m/s | 2.1°C | 86.9% | 826.4hPa | 2.7V | 07:20:53 | 03:23:59 | 00:00:00 | |
| AA1-15 | 2026-09-06 01:43:49 | 53.07417 | 12.54174 | 121° | 58km/h | 1789m | -3.3m/s | 2°C | 87.3% | 826hPa | 2.7V | 07:20:53 | 03:23:58 | 00:00:00 | |
| AA1-15 | 2026-09-06 01:43:47 | 53.07432 | 12.54132 | 122° | 60km/h | 1796m | -3.4m/s | 2°C | 87.7% | 825.2hPa | 2.7V | 07:20:53 | 03:23:56 | 00:00:00 | |
| AA1-15 | 2026-09-06 01:43:46 | 53.07441 | 12.54111 | 122° | 60km/h | 1799m | -3.6m/s | 1.9°C | 87.8% | 824.9hPa | 2.7V | 07:20:53 | 03:23:55 | 00:00:00 | |
| AA1-15 | 2026-09-06 01:43:44 | 53.07456 | 12.54068 | 121° | 60km/h | 1806m | -3.2m/s | 1.9°C | 88.1% | 824.3hPa | 2.6V | 07:20:53 | 03:23:53 | 00:00:00 | |
| AA1-15 | 2026-09-06 01:43:43 | 53.07464 | 12.54047 | 120° | 58km/h | 1810m | -3.3m/s | 1.9°C | 88.2% | 824hPa | 2.6V | 07:20:53 | 03:23:52 | 00:00:00 | |
| AA1-15 | 2026-09-06 01:43:42 | 53.07471 | 12.54026 | 120° | 57km/h | 1813m | -3.2m/s | 1.8°C | 88.3% | 823.6hPa | 2.7V | 07:20:53 | 03:23:51 | 00:00:00 | |
| DB0DAN | 2026-09-06 01:43:40 | 53.07485 | 12.53986 | 119° | 51km/h | 1819m | -3.2m/s | 1.8°C | 84.9% | 822.85hPa | 2.7V | 00:00:00 | 00:00:00 | 00:00:00 | |
| AA1-15 | 2026-09-06 01:43:40 | 53.07485 | 12.53986 | 119° | 53km/h | 1819m | -3.2m/s | 1.8°C | 88.8% | 822.9hPa | 2.7V | 07:20:53 | 03:23:49 | 00:00:00 | |
| AA1-15 | 2026-09-06 01:43:38 | 53.07497 | 12.53948 | 119° | 49km/h | 1826m | -3.3m/s | 1.7°C | 89.2% | 822.2hPa | 2.6V | 07:20:53 | 03:23:47 | 00:00:00 | |
| AA1-15 | 2026-09-06 01:43:36 | 53.07510 | 12.53912 | 120° | 49km/h | 1832m | -3.4m/s | 1.6°C | 89.5% | 821.6hPa | 2.7V | 07:20:53 | 03:23:45 | 00:00:00 | |
| AA1-15 | 2026-09-06 01:43:35 | 53.07516 | 12.53894 | 120° | 49km/h | 1836m | -3.4m/s | 1.6°C | 89.8% | 821.2hPa | 2.7V | 07:20:53 | 03:23:44 | 00:00:00 | |
| AA1-15 | 2026-09-06 01:43:33 | 53.07528 | 12.53858 | 119° | 49km/h | 1842m | -3.3m/s | 1.5°C | 90.3% | 820.4hPa | 2.6V | 07:20:53 | 03:23:42 | 00:00:00 | |
| AA1-15 | 2026-09-06 01:43:31 | 53.07540 | 12.53821 | 118° | 51km/h | 1849m | -3.2m/s | 1.5°C | 90.9% | 819.9hPa | 2.7V | 07:20:53 | 03:23:40 | 00:00:00 | |
| AA1-15 | 2026-09-06 01:43:30 | 53.07546 | 12.53802 | 117° | 51km/h | 1852m | -3.5m/s | 1.4°C | 91% | 819.5hPa | 2.7V | 07:20:53 | 03:23:39 | 00:00:00 | |
| AA1-15 | 2026-09-06 01:43:28 | 53.07558 | 12.53763 | 117° | 53km/h | 1859m | -3.3m/s | 1.4°C | 91.4% | 818.9hPa | 2.7V | 07:20:53 | 03:23:37 | 00:00:00 | |
| AA1-15 | 2026-09-06 01:43:27 | 53.07564 | 12.53743 | 117° | 51km/h | 1862m | -3.2m/s | 1.3°C | 91.6% | 818.5hPa | 2.7V | 07:20:53 | 03:23:36 | 00:00:00 | |
| DB0DAN | 2026-09-06 01:43:25 | 53.07576 | 12.53706 | 119° | 46km/h | 1868m | -3.2m/s | 1.3°C | 87.8% | 817.78hPa | 2.6V | 00:00:00 | 00:00:00 | 00:00:00 | |
| AA1-15 | 2026-09-06 01:43:25 | 53.07576 | 12.53706 | 119° | 49km/h | 1868m | -3.2m/s | 1.3°C | 91.6% | 817.8hPa | 2.6V | 07:20:53 | 03:23:34 | 00:00:00 | |
| AA1-15 | 2026-09-06 01:43:23 | 53.07588 | 12.53673 | 125° | 47km/h | 1875m | -3.2m/s | 1.2°C | 91.7% | 817.2hPa | 2.7V | 07:20:53 | 03:23:32 | 00:00:00 | |
| AA1-15 | 2026-09-06 01:43:21 | 53.07603 | 12.53641 | 129° | 49km/h | 1881m | -3.2m/s | 1.2°C | 91.4% | 816.5hPa | 2.7V | 07:20:53 | 03:23:30 | 00:00:00 | |
| AA1-15 | 2026-09-06 01:43:20 | 53.07611 | 12.53624 | 129° | 51km/h | 1885m | -3.3m/s | 1.1°C | 91.4% | 816.3hPa | 2.7V | 07:20:53 | 03:23:29 | 00:00:00 | |
| AA1-15 | 2026-09-06 01:43:18 | 53.07628 | 12.53588 | 126° | 57km/h | 1891m | -3.2m/s | 1.1°C | 91.7% | 815.6hPa | 2.7V | 07:20:53 | 03:23:27 | 00:00:00 | |
| AA1-15 | 2026-09-06 01:43:17 | 53.07636 | 12.53569 | 124° | 57km/h | 1894m | -3.1m/s | 1.1°C | 91.8% | 815.3hPa | 2.7V | 07:20:53 | 03:23:26 | 00:00:00 | |
| AA1-15 | 2026-09-06 01:43:15 | 53.07652 | 12.53528 | 121° | 58km/h | 1900m | -3.1m/s | 1°C | 92.2% | 814.7hPa | 2.7V | 07:20:53 | 03:23:24 | 00:00:00 | |
| AA1-15 | 2026-09-06 01:43:14 | 53.07659 | 12.53507 | 121° | 58km/h | 1904m | -3.2m/s | 1°C | 92.2% | 814.2hPa | 2.7V | 07:20:53 | 03:23:23 | 00:00:00 | |
| AA1-15 | 2026-09-06 01:43:12 | 53.07675 | 12.53465 | 121° | 58km/h | 1910m | -3.3m/s | 0.9°C | 91.8% | 813.6hPa | 2.7V | 07:20:53 | 03:23:21 | 00:00:00 | |
| DB0DAN | 2026-09-06 01:43:10 | 53.07690 | 12.53424 | 123° | 55km/h | 1917m | -3.3m/s | 0.9°C | 89.7% | 813.01hPa | 2.6V | 00:00:00 | 00:00:00 | 00:00:00 | |
| AA1-15 | 2026-09-06 01:43:10 | 53.07690 | 12.53424 | 123° | 58km/h | 1917m | -3.3m/s | 0.9°C | 91.5% | 813hPa | 2.6V | 07:20:53 | 03:23:19 | 00:00:00 | |
| AA1-15 | 2026-09-06 01:43:08 | 53.07706 | 12.53384 | 125° | 57km/h | 1923m | -3.1m/s | 0.9°C | 91.7% | 812.3hPa | 2.7V | 07:20:53 | 03:23:17 | 00:00:00 | |
| AA1-15 | 2026-09-06 01:43:07 | 53.07714 | 12.53364 | 126° | 57km/h | 1927m | -3.4m/s | 0.8°C | 92.1% | 811.9hPa | 2.7V | 07:20:53 | 03:23:16 | 00:00:00 | |
| AA1-15 | 2026-09-06 01:43:05 | 53.07731 | 12.53326 | 126° | 57km/h | 1933m | -3.4m/s | 0.8°C | 92.4% | 811.3hPa | 2.7V | 07:20:53 | 03:23:14 | 00:00:00 | |
| AA1-15 | 2026-09-06 01:43:03 | 53.07747 | 12.53286 | 123° | 58km/h | 1940m | -3.2m/s | 0.7°C | 92.8% | 810.6hPa | 2.7V | 07:20:53 | 03:23:12 | 00:00:00 | |
| AA1-15 | 2026-09-06 01:43:02 | 53.07755 | 12.53265 | 120° | 58km/h | 1943m | -3.1m/s | 0.7°C | 92.9% | 810.2hPa | 2.6V | 07:20:53 | 03:23:11 | 00:00:00 | |
| AA1-15 | 2026-09-06 01:43:00 | 53.07769 | 12.53222 | 116° | 57km/h | 1950m | -3.3m/s | 0.7°C | 93% | 809.7hPa | 2.7V | 07:20:53 | 03:23:09 | 00:00:00 | |
| AA1-15 | 2026-09-06 01:42:58 | 53.07781 | 12.53180 | 114° | 55km/h | 1956m | -2.9m/s | 0.6°C | 92.8% | 809hPa | 2.7V | 07:21:44 | 03:23:07 | 00:00:00 | |
| AA1-15 | 2026-09-06 01:42:57 | 53.07786 | 12.53159 | 113° | 53km/h | 1959m | -3.1m/s | 0.6°C | 92.7% | 808.7hPa | 2.7V | 07:21:44 | 03:23:06 | 00:00:00 | |
| DB0DAN | 2026-09-06 01:42:55 | 53.07796 | 12.53119 | 112° | 49km/h | 1966m | -3.1m/s | 0.6°C | 88.9% | 807.96hPa | 2.7V | 00:00:00 | 00:00:00 | 00:00:00 | |
| AA1-15 | 2026-09-06 01:42:55 | 53.07796 | 12.53119 | 112° | 51km/h | 1966m | -3.1m/s | 0.6°C | 91.3% | 808hPa | 2.7V | 07:21:44 | 03:23:04 | 00:00:00 | |
| AA1-15 | 2026-09-06 01:42:53 | 53.07806 | 12.53079 | 112° | 53km/h | 1972m | -3.3m/s | 0.5°C | 91.5% | 807.4hPa | 2.6V | 07:21:44 | 03:23:02 | 00:00:00 | |
| AA1-15 | 2026-09-06 01:42:51 | 53.07816 | 12.53037 | 113° | 55km/h | 1979m | -3.3m/s | 0.4°C | 91.7% | 806.7hPa | 2.7V | 07:21:44 | 03:23:00 | 00:00:00 | |
| AA1-15 | 2026-09-06 01:42:49 | 53.07827 | 12.52995 | 114° | 57km/h | 1985m | -3.4m/s | 0.4°C | 91.6% | 806.1hPa | 2.7V | 07:21:44 | 03:22:58 | 00:00:00 | |
| AA1-15 | 2026-09-06 01:42:47 | 53.07839 | 12.52951 | 114° | 58km/h | 1991m | -3.2m/s | 0.3°C | 91.4% | 805.4hPa | 2.7V | 07:21:44 | 03:22:56 | 00:00:00 | |
| AA1-15 | 2026-09-06 01:42:46 | 53.07845 | 12.52929 | 115° | 58km/h | 1995m | -3.2m/s | 0.3°C | 91.2% | 805.1hPa | 2.7V | 07:21:44 | 03:22:55 | 00:00:00 | |
| AA1-15 | 2026-09-06 01:42:44 | 53.07857 | 12.52884 | 113° | 58km/h | 2001m | -3.1m/s | 0.3°C | 90% | 804.4hPa | 2.6V | 07:21:44 | 03:22:53 | 00:00:00 | |
| SONDE2-11 | 2026-09-06 01:42:43 | 53.07863 | 12.52862 | 112° | 57km/h | 2004m | -3.2m/s | 0.3°C | 87.3% | 804.1hPa | 2.7V | 00:00:00 | 00:00:00 | 00:00:00 | |
| DB0DAN | 2026-09-06 01:42:40 | 53.07879 | 12.52799 | 114° | 49km/h | 2014m | -3m/s | 0.2°C | 87% | 803.14hPa | 2.7V | 00:00:00 | 00:00:00 | 00:00:00 | |
| AA1-15 | 2026-09-06 01:42:33 | 53.07922 | 12.52670 | 120° | 49km/h | 2035m | -3m/s | 0.2°C | 83.9% | 801hPa | 2.7V | 07:21:44 | 03:22:42 | 00:00:00 | |
| AA1-15 | 2026-09-06 01:42:23 | 53.07990 | 12.52495 | 126° | 51km/h | 2067m | -3.5m/s | 0.6°C | 65.7% | 797.9hPa | 2.7V | 07:21:44 | 03:22:32 | 00:00:00 | |
| AA1-15 | 2026-09-06 01:42:12 | 53.08072 | 12.52296 | 122° | 53km/h | 2103m | -3.2m/s | 0.8°C | 70.9% | 794.2hPa | 2.7V | 07:21:44 | 03:22:21 | 00:00:00 | |
| DB0DAN | 2026-09-06 01:42:10 | 53.08086 | 12.52258 | 121° | 51km/h | 2110m | -3m/s | 0.9°C | 68.7% | 793.58hPa | 2.7V | 00:00:00 | 00:00:00 | 00:00:00 | |
| AA1-15 | 2026-09-06 01:42:01 | 53.08141 | 12.52080 | 119° | 55km/h | 2138m | -3.1m/s | 1.1°C | 63.9% | 790.9hPa | 2.7V | 07:22:35 | 03:22:10 | 00:00:00 | |
| EDDB2-12 | 2026-09-06 01:41:59 | 53.08155 | 12.52040 | 120° | 55km/h | 2144m | -3.5m/s | 1.1°C | 60.3% | 790.2hPa | 2.6V | 00:00:00 | 00:00:00 | 00:00:00 | |
| AM1SDL-15 | 2026-09-06 01:41:58 | 53.08162 | 12.52020 | 122° | 55km/h | 2148m | -3.4m/s | 1.1°C | 58.2% | 789.8hPa | 2.6V | 00:00:00 | 03:22:07 | 00:00:00 | |
| DB0DAN | 2026-09-06 01:41:55 | 53.08184 | 12.51961 | 124° | 53km/h | 2158m | -3.3m/s | 1.4°C | 44.7% | 788.81hPa | 2.6V | 00:00:00 | 00:00:00 | 00:00:00 | |
| AA1-15 | 2026-09-06 01:41:50 | 53.08225 | 12.51868 | 129° | 53km/h | 2174m | -3.5m/s | 1.5°C | 41.6% | 787.2hPa | 2.7V | 07:22:35 | 03:21:59 | 00:00:00 | |
| D01LWL | 2026-09-06 01:41:46 | 53.08259 | 12.51800 | 129° | 51km/h | 2188m | -3.3m/s | 1.8°C | 30.9% | 785.8hPa | 2.6V | 00:00:00 | 00:00:00 | 00:00:00 | |
| DB0DAN | 2026-09-06 01:41:40 | 53.08309 | 12.51695 | 127° | 51km/h | 2206m | -3.4m/s | 1.9°C | 25.2% | 784.04hPa | 2.6V | 00:00:00 | 00:00:00 | 00:00:00 | |
| AA1-15 | 2026-09-06 01:41:39 | 53.08317 | 12.51677 | 126° | 55km/h | 2209m | -3.3m/s | 1.9°C | 28.3% | 783.7hPa | 2.7V | 07:22:35 | 03:21:48 | 00:00:00 | |
| AA1-15 | 2026-09-06 01:41:28 | 53.08403 | 12.51470 | 122° | 51km/h | 2246m | -3.3m/s | 2°C | 20.9% | 780.4hPa | 2.7V | 07:22:35 | 03:21:37 | 00:00:00 | |
| DB0DAN | 2026-09-06 01:41:25 | 53.08423 | 12.51420 | 126° | 44km/h | 2256m | -3.2m/s | 2.1°C | 17.2% | 779.3hPa | 2.7V | 00:00:00 | 00:00:00 | 00:00:00 | |
| AA1-15 | 2026-09-06 01:41:18 | 53.08479 | 12.51323 | 138° | 47km/h | 2279m | -3.3m/s | 1.9°C | 19.1% | 777.1hPa | 2.7V | 07:22:35 | 03:21:27 | 00:00:00 | |
| D01LWL | 2026-09-06 01:41:15 | 53.08504 | 12.51284 | 136° | 44km/h | 2288m | -3.3m/s | 1.8°C | 0% | 776.2hPa | 2.7V | 00:00:00 | 00:00:00 | 00:00:00 | |
| DB0DAN | 2026-09-06 01:41:10 | 53.08544 | 12.51220 | 137° | 44km/h | 2305m | -3.5m/s | 1.7°C | 15.9% | 774.49hPa | 2.7V | 00:00:00 | 00:00:00 | 00:00:00 | |
| AA1-15 | 2026-09-06 01:41:08 | 53.08561 | 12.51193 | 137° | 47km/h | 2312m | -3m/s | 1.7°C | 17.2% | 774hPa | 2.7V | 07:23:26 | 03:21:17 | 00:00:00 | |
| EDDB2-11 | 2026-09-06 01:41:05 | 53.08597 | 12.51133 | 129° | 49km/h | 2325m | -3.3m/s | 1.6°C | 14.6% | 772.7hPa | 2.7V | 00:00:00 | 00:00:00 | 00:00:00 | |
| EDDB2-12 | 2026-09-06 01:40:57 | 53.08647 | 12.51029 | 128° | 44km/h | 2348m | -3.5m/s | 1.5°C | 13.1% | 770.5hPa | 2.7V | 00:00:00 | 00:00:00 | 00:00:00 | |
| AA1-15 | 2026-09-06 01:40:57 | 53.08647 | 12.51029 | 129° | 44km/h | 2348m | -3.5m/s | 1.5°C | 14.1% | 770.5hPa | 2.7V | 07:23:26 | 03:21:06 | 00:00:00 | |
| DB0DAN | 2026-09-06 01:40:55 | 53.08662 | 12.50999 | 128° | 44km/h | 2355m | -3.4m/s | 1.5°C | 13.2% | 769.82hPa | 2.7V | 00:00:00 | 00:00:00 | 00:00:00 | |
| AA1-15 | 2026-09-06 01:40:46 | 53.08731 | 12.50851 | 128° | 51km/h | 2387m | -3.4m/s | 1.5°C | 15.1% | 766.9hPa | 2.6V | 07:23:26 | 03:20:55 | 00:00:00 | |
| D01LWL | 2026-09-06 01:40:44 | 53.08747 | 12.50818 | 128° | 49km/h | 2394m | -3.7m/s | 1.4°C | 18.5% | 766.1hPa | 2.7V | 00:00:00 | 00:00:00 | 00:00:00 | |
| AA1-15 | 2026-09-06 01:40:36 | 53.08810 | 12.50688 | 129° | 49km/h | 2421m | -3.4m/s | 1.3°C | 21.6% | 763.5hPa | 2.7V | 07:23:26 | 03:20:45 | 00:00:00 | |
| AM1SDL-15 | 2026-09-06 01:40:34 | 53.08826 | 12.50655 | 129° | 47km/h | 2428m | -3.1m/s | 1.2°C | 19.1% | 762.9hPa | 2.7V | 00:00:00 | 03:20:43 | 00:00:00 | |
| EDDB2-11 | 2026-09-06 01:40:33 | 53.08834 | 12.50640 | 129° | 47km/h | 2431m | -3.4m/s | 1.2°C | 18.8% | 762.6hPa | 2.7V | 00:00:00 | 00:00:00 | 00:00:00 | |
| DO2SHX-10 | 2026-09-06 01:40:27 | 53.08879 | 12.50550 | 130° | 49km/h | 2452m | -3.4m/s | 1.2°C | 19.7% | 760.6hPa | 2.7V | 00:00:00 | 03:20:36 | 00:00:00 | |
| DB0DAN | 2026-09-06 01:40:25 | 53.08894 | 12.50520 | 130° | 44km/h | 2459m | -3.4m/s | 1.3°C | 13.1% | 760.06hPa | 2.7V | 00:00:00 | 00:00:00 | 00:00:00 | |
| AA1-15 | 2026-09-06 01:40:25 | 53.08894 | 12.50520 | 130° | 47km/h | 2459m | -3.4m/s | 1.3°C | 14.1% | 760.1hPa | 2.7V | 07:24:17 | 03:20:34 | 00:00:00 | |
| AA1-15 | 2026-09-06 01:40:14 | 53.08981 | 12.50355 | 132° | 46km/h | 2498m | -3.3m/s | 1.4°C | 5.6% | 756.4hPa | 2.6V | 07:24:17 | 03:20:23 | 00:00:00 | |
| D01LWL | 2026-09-06 01:40:13 | 53.08997 | 12.50327 | 134° | 46km/h | 2504m | -3.5m/s | 1.4°C | 6.5% | 755.8hPa | 2.7V | 00:00:00 | 00:00:00 | 00:00:00 | |
| DB0DAN | 2026-09-06 01:40:10 | 53.09014 | 12.50300 | 136° | 44km/h | 2512m | -3.7m/s | 1.4°C | 6% | 755.08hPa | 2.7V | 00:00:00 | 00:00:00 | 00:00:00 | |
| AA1-15 | 2026-09-06 01:40:03 | 53.09071 | 12.50207 | 135° | 44km/h | 2536m | -3.6m/s | 1.3°C | 4.8% | 752.6hPa | 2.7V | 07:24:17 | 03:20:12 | 00:00:00 | |
| EDDB2-11 | 2026-09-06 01:40:02 | 53.09079 | 12.50194 | 134° | 44km/h | 2540m | -3.6m/s | 1.3°C | 5.9% | 752.5hPa | 2.6V | 00:00:00 | 00:00:00 | 00:00:00 | |
| AM1SDL-15 | 2026-09-06 01:39:58 | 53.09111 | 12.50139 | 135° | 46km/h | 2554m | -3.5m/s | 1.3°C | 8.1% | 751.2hPa | 2.6V | 00:00:00 | 03:20:07 | 00:00:00 | |
| DB0DAN | 2026-09-06 01:39:55 | 53.09135 | 12.50099 | 137° | 42km/h | 2565m | -3.8m/s | 1.3°C | 9.3% | 750.15hPa | 2.7V | 00:00:00 | 00:00:00 | 00:00:00 | |
| AA1-15 | 2026-09-06 01:39:53 | 53.09152 | 12.50074 | 138° | 46km/h | 2572m | -3.6m/s | 1.3°C | 9.5% | 749.5hPa | 2.7V | 07:24:17 | 03:20:02 | 00:00:00 | |
| S3001 | 2026-09-06 01:39:48 | 53.09196 | 12.50010 | 139° | 46km/h | 2590m | -3.4m/s | 1.2°C | 8.9% | 747.7hPa | 2.7V | 00:00:00 | 00:00:00 | 00:00:00 | |
| AA1-15 | 2026-09-06 01:39:43 | 53.09242 | 12.49947 | 141° | 49km/h | 2607m | -3.5m/s | 1.1°C | 8.7% | 746.1hPa | 2.7V | 07:24:17 | 03:19:52 | 00:00:00 | |
| D01LWL | 2026-09-06 01:39:42 | 53.09252 | 12.49934 | 141° | 49km/h | 2611m | -3.4m/s | 1.1°C | 8.8% | 745.5hPa | 2.7V | 00:00:00 | 00:00:00 | 00:00:00 | |
| DB0DAN | 2026-09-06 01:39:40 | 53.09271 | 12.49908 | 141° | 46km/h | 2618m | -3.6m/s | 1.1°C | 7.5% | 745.02hPa | 2.7V | 00:00:00 | 00:00:00 | 00:00:00 | |
| AA1-15 | 2026-09-06 01:39:32 | 53.09341 | 12.49803 | 133° | 46km/h | 2647m | -3.7m/s | 0.8°C | 6.4% | 742.4hPa | 2.7V | 07:25:08 | 03:19:41 | 00:00:00 | |
| AA1-15 | 2026-09-06 01:39:21 | 53.09425 | 12.49651 | 132° | 44km/h | 2687m | -3.8m/s | 0.6°C | 6.5% | 738.5hPa | 2.7V | 07:25:08 | 03:19:30 | 00:00:00 | |
| AA1-15 | 2026-09-06 01:39:11 | 53.09504 | 12.49518 | 139° | 49km/h | 2724m | -3.6m/s | 0.3°C | 9.7% | 735.2hPa | 2.6V | 07:25:08 | 03:19:20 | 00:00:00 | |
| AA1-15 | 2026-09-06 01:39:00 | 53.09612 | 12.49354 | 138° | 53km/h | 2764m | -3.7m/s | 0.5°C | 2% | 731.5hPa | 2.7V | 07:25:08 | 03:19:09 | 00:00:00 | |
| AM1SDL-15 | 2026-09-06 01:38:58 | 53.09632 | 12.49324 | 137° | 57km/h | 2771m | -3.8m/s | 0.5°C | 6.2% | 730.7hPa | 2.6V | 00:00:00 | 03:19:07 | 00:00:00 | |
| DB0DAN | 2026-09-06 01:38:55 | 53.09662 | 12.49275 | 133° | 55km/h | 2783m | -3.8m/s | 0.6°C | 5.4% | 729.82hPa | 2.6V | 00:00:00 | 00:00:00 | 00:00:00 | |
| AA1-15 | 2026-09-06 01:38:50 | 53.09711 | 12.49185 | 132° | 58km/h | 2802m | -4m/s | 0.5°C | 7.4% | 728hPa | 2.7V | 07:25:08 | 03:18:59 | 00:00:00 | |
| S3001 | 2026-09-06 01:38:46 | 53.09751 | 12.49111 | 132° | 58km/h | 2817m | -3.5m/s | 0.6°C | 6.3% | 726.8hPa | 2.7V | 00:00:00 | 00:00:00 | 00:00:00 | |
| DB0DAN | 2026-09-06 01:38:40 | 53.09814 | 12.49006 | 138° | 53km/h | 2839m | -3.6m/s | 0.5°C | 7.2% | 724.72hPa | 2.7V | 00:00:00 | 00:00:00 | 00:00:00 | |
| AA1-15 | 2026-09-06 01:38:40 | 53.09814 | 12.49006 | 138° | 57km/h | 2839m | -3.6m/s | 0.5°C | 6.3% | 724.7hPa | 2.7V | 07:25:59 | 03:18:49 | 00:00:00 | |
| AA1-15 | 2026-09-06 01:38:30 | 53.09907 | 12.48849 | 130° | 51km/h | 2876m | -3.7m/s | 0.2°C | 13.8% | 721.3hPa | 2.6V | 07:25:59 | 03:18:39 | 00:00:00 | |
| EDDB2-11 | 2026-09-06 01:38:29 | 53.09915 | 12.48832 | 128° | 51km/h | 2879m | -4.0m/s | 0.1°C | 12.2% | 721.0hPa | 2.7V | 00:00:00 | 00:00:00 | 00:00:00 | |
| DB0DAN | 2026-09-06 01:38:25 | 53.09949 | 12.48759 | 128° | 55km/h | 2895m | -3.8m/s | 0°C | 14.1% | 719.51hPa | 2.7V | 00:00:00 | 00:00:00 | 00:00:00 | |
| AA1-15 | 2026-09-06 01:38:19 | 53.10009 | 12.48641 | 132° | 62km/h | 2917m | -3.7m/s | -0.2°C | 19.2% | 717.4hPa | 2.7V | 07:25:59 | 03:18:28 | 00:00:00 | |
| S3001 | 2026-09-06 01:38:15 | 53.10051 | 12.48562 | 130° | 60km/h | 2932m | -3.8m/s | -0.3°C | 19.6% | 716.2hPa | 2.7V | 00:00:00 | 00:00:00 | 00:00:00 | |
| DB0DAN | 2026-09-06 01:38:10 | 53.10098 | 12.48469 | 131° | 53km/h | 2951m | -3.7m/s | -0.5°C | 20.8% | 714.62hPa | 2.7V | 00:00:00 | 00:00:00 | 00:00:00 | |
| AA1-15 | 2026-09-06 01:38:08 | 53.10116 | 12.48435 | 131° | 55km/h | 2959m | -3.9m/s | -0.5°C | 25% | 713.8hPa | 2.6V | 07:25:59 | 03:18:17 | 00:00:00 | |
| DM0DOS-11 | 2026-09-06 01:38:04 | 53.10202 | 12.48292 | 139° | 55km/h | 2993m | -3.8m/s | -0.4°C | 12.6% | 710.8hPa | 2.6V | 07:25:54 | 03:18:08 | 00:00:00 | |
| DM0DOS-11 | 2026-09-06 01:37:59 | 53.10258 | 12.48213 | 138° | 62km/h | 3011m | -3.6m/s | -0.6°C | 12.1% | 709.2hPa | 2.7V | 07:25:59 | 03:18:03 | 00:00:00 | |
| AA1-15 | 2026-09-06 01:37:58 | 53.10212 | 12.48277 | 140° | 57km/h | 2997m | -3.4m/s | -0.5°C | 13.3% | 710.5hPa | 2.7V | 07:25:59 | 03:18:07 | 00:00:00 | |
| AM1SDL-15 | 2026-09-06 01:37:57 | 53.10223 | 12.48261 | 142° | 62km/h | 3000m | -3.7m/s | -0.5°C | 12.3% | 710.2hPa | 2.7V | 00:00:00 | 03:18:06 | 00:00:00 | |
| MECKS9 | 2026-09-06 01:37:56 | 53.10224 | 12.48261 | 142° | 58km/h | 3000m | -3.8m/s | -0.5°C | 12.1% | 710.2hPa | 2.7V | 00:00:00 | 00:00:00 | 00:00:00 | |
| DB0DAN | 2026-09-06 01:37:55 | 53.10247 | 12.48229 | 140° | 58km/h | 3008m | -3.8m/s | -0.6°C | 11.9% | 709.51hPa | 2.7V | 00:00:00 | 00:00:00 | 00:00:00 | |
| EDDB2-12 | 2026-09-06 01:37:51 | 53.10293 | 12.48158 | 135° | 64km/h | 3022m | -3.8m/s | -0.6°C | 11.0% | 708.2hPa | 2.7V | 00:00:00 | 00:00:00 | 00:00:00 | |
| DM0DOS-11 | 2026-09-06 01:37:50 | 53.10316 | 12.48121 | 136° | 64km/h | 3030m | -3.5m/s | -0.7°C | 11% | 707.5hPa | 2.7V | 07:26:04 | 03:17:58 | 00:00:00 | |
| AA1-15 | 2026-09-06 01:37:48 | 53.10328 | 12.48103 | 137° | 64km/h | 3034m | -3.6m/s | -0.7°C | 11.3% | 707.2hPa | 2.7V | 07:26:50 | 03:17:57 | 00:00:00 | |
| DM0DOS-11 | 2026-09-06 01:37:45 | 53.10375 | 12.48036 | 140° | 58km/h | 3048m | -3.8m/s | -0.8°C | 11.9% | 705.9hPa | 2.7V | 07:26:09 | 03:17:53 | 00:00:00 | |
| S3001 | 2026-09-06 01:37:44 | 53.10375 | 12.48035 | 140° | 58km/h | 3048m | -3.8m/s | -0.8°C | 11.6% | 705.9hPa | 2.7V | 00:00:00 | 00:00:00 | 00:00:00 | |
| DB0DAN | 2026-09-06 01:37:40 | 53.10422 | 12.47974 | 142° | 58km/h | 3064m | -3.7m/s | -0.9°C | 12.1% | 704.5hPa | 2.7V | 00:00:00 | 00:00:00 | 00:00:00 | |
| DM0DOS-11 | 2026-09-06 01:37:40 | 53.10434 | 12.47957 | 140° | 62km/h | 3068m | -3.7m/s | -0.9°C | 12.4% | 704.2hPa | 2.6V | 07:26:14 | 03:17:48 | 00:00:00 | |
| AA1-15 | 2026-09-06 01:37:37 | 53.10458 | 12.47922 | 137° | 64km/h | 3075m | -3.7m/s | -1°C | 13.4% | 703.5hPa | 2.7V | 07:26:50 | 03:17:46 | 00:00:00 | |
| DM0DOS-11 | 2026-09-06 01:37:35 | 53.10492 | 12.47864 | 132° | 64km/h | 3086m | -3.5m/s | -1.1°C | 12.6% | 702.6hPa | 2.7V | 07:26:19 | 03:17:43 | 00:00:00 | |
| AA1-15 | 2026-09-06 01:37:26 | 53.10581 | 12.47709 | 137° | 66km/h | 3117m | -4m/s | -1.3°C | 13.9% | 700.1hPa | 2.7V | 07:26:50 | 03:17:35 | 00:00:00 | |
| DB0DAN | 2026-09-06 01:37:25 | 53.10593 | 12.47690 | 137° | 62km/h | 3120m | -3.3m/s | -1.3°C | 13% | 699.62hPa | 2.6V | 00:00:00 | 00:00:00 | 00:00:00 | |
| AA1-15 | 2026-09-06 01:37:15 | 53.10702 | 12.47496 | 129° | 60km/h | 3157m | -3.8m/s | -1.5°C | 14.7% | 696.4hPa | 2.7V | 07:26:50 | 03:17:24 | 00:00:00 | |
| DF8AY | 2026-09-06 01:37:14 | 53.10712 | 12.47476 | 129° | 60km/h | 3161m | -4m/s | -1.6°C | 14.7% | 696hPa | 2.7V | 07:26:50 | 03:17:23 | 00:00:00 | |
| DO2SHX-10 | 2026-09-06 01:37:13 | 53.10721 | 12.47456 | 129° | 62km/h | 3165m | -3.4m/s | -1.5°C | 13.2% | 695.6hPa | 2.6V | 00:00:00 | 03:17:22 | 00:00:00 | |
| DB0DAN | 2026-09-06 01:37:10 | 53.10752 | 12.47394 | 131° | 62km/h | 3176m | -3.7m/s | -1.6°C | 12.7% | 694.62hPa | 2.6V | 00:00:00 | 00:00:00 | 00:00:00 | |
| AA1-15 | 2026-09-06 01:37:05 | 53.10810 | 12.47297 | 138° | 62km/h | 3194m | -3.8m/s | -1.8°C | 14% | 693hPa | 2.7V | 07:26:50 | 03:17:14 | 00:00:00 | |
| DF8AY | 2026-09-06 01:37:03 | 53.10833 | 12.47263 | 140° | 58km/h | 3202m | -3.8m/s | -1.9°C | 14.2% | 692.4hPa | 2.6V | 07:26:50 | 03:17:12 | 00:00:00 | |
| SONDE2-11 | 2026-09-06 01:37:02 | 53.10855 | 12.47233 | 138° | 55km/h | 3209m | -3.9m/s | -1.9°C | 12.8% | 691.7hPa | 2.7V | 00:00:00 | 00:00:00 | 00:00:00 | |
| EDDB2-11 | 2026-09-06 01:36:56 | 53.10903 | 12.47155 | 133° | 51km/h | 3228m | -3.8m/s | -2.1°C | 13.3% | 690.0hPa | 2.7V | 00:00:00 | 00:00:00 | 00:00:00 | |
| DB0DAN | 2026-09-06 01:36:55 | 53.10912 | 12.47139 | 131° | 51km/h | 3232m | -3.8m/s | -2.1°C | 13.3% | 689.7hPa | 2.7V | 00:00:00 | 00:00:00 | 00:00:00 | |
| AA1-15 | 2026-09-06 01:36:55 | 53.10912 | 12.47139 | 131° | 53km/h | 3232m | -3.8m/s | -2.1°C | 15% | 689.7hPa | 2.7V | 07:27:41 | 03:17:04 | 00:00:00 | |
| DO2SHX-10 | 2026-09-06 01:36:55 | 53.10912 | 12.47138 | 132° | 53km/h | 3232m | -3.8m/s | -2.1°C | 13.7% | 689.6hPa | 2.7V | 00:00:00 | 03:17:04 | 00:00:00 | |
| DO2SHX-10 | 2026-09-06 01:36:52 | 53.10938 | 12.47086 | 128° | 57km/h | 3244m | -4.2m/s | -2.2°C | 15.3% | 688.7hPa | 2.7V | 00:00:00 | 03:17:01 | 00:00:00 | |
| DM0DOS-11 | 2026-09-06 01:36:50 | 53.11006 | 12.46944 | 131° | 66km/h | 3271m | -3.8m/s | -2.5°C | 16.7% | 686.2hPa | 2.7V | 07:27:08 | 03:16:54 | 00:00:00 | |
| DF8AY | 2026-09-06 01:36:50 | 53.10956 | 12.47047 | 127° | 58km/h | 3252m | -3.9m/s | -2.3°C | 19.6% | 687.9hPa | 2.6V | 07:27:41 | 03:16:59 | 00:00:00 | |
| AA1-15 | 2026-09-06 01:36:44 | 53.11017 | 12.46924 | 133° | 66km/h | 3276m | -4m/s | -2.5°C | 20.8% | 685.9hPa | 2.7V | 07:27:41 | 03:16:53 | 00:00:00 | |
| DO2SHX-10 | 2026-09-06 01:36:43 | 53.11029 | 12.46904 | 135° | 66km/h | 3280m | -3.9m/s | -2.5°C | 18.3% | 685.7hPa | 2.6V | 00:00:00 | 03:16:52 | 00:00:00 | |
| DM0DOS-11 | 2026-09-06 01:36:40 | 53.11065 | 12.46847 | 138° | 64km/h | 3291m | -3.8m/s | -2.7°C | 19.1% | 684.7hPa | 2.7V | 07:27:13 | 03:16:49 | 00:00:00 | |
| DB0DAN | 2026-09-06 01:36:40 | 53.11065 | 12.46847 | 138° | 60km/h | 3291m | -3.8m/s | -2.7°C | 18.5% | 684.67hPa | 2.7V | 00:00:00 | 00:00:00 | 00:00:00 | |
| DF8AY | 2026-09-06 01:36:39 | 53.11077 | 12.46830 | 139° | 62km/h | 3295m | -3.7m/s | -2.7°C | 20.6% | 684.4hPa | 2.7V | 07:27:41 | 03:16:48 | 00:00:00 | |
| AA1-15 | 2026-09-06 01:36:34 | 53.11129 | 12.46746 | 131° | 57km/h | 3314m | -3.8m/s | -2.8°C | 19.8% | 682.7hPa | 2.7V | 07:27:41 | 03:16:43 | 00:00:00 | |
| DF8AY | 2026-09-06 01:36:28 | 53.11183 | 12.46629 | 126° | 62km/h | 3337m | -3.7m/s | -3°C | 20.5% | 680.7hPa | 2.6V | 07:27:41 | 03:16:37 | 00:00:00 | |
| DO2SHX-10 | 2026-09-06 01:36:27 | 53.11192 | 12.46608 | 127° | 66km/h | 3341m | -4.0m/s | -3.0°C | 18.1% | 680.4hPa | 2.7V | 00:00:00 | 03:16:36 | 00:00:00 | |
| DB0DAN | 2026-09-06 01:36:25 | 53.11212 | 12.46564 | 128° | 64km/h | 3349m | -3.8m/s | -3.1°C | 17.8% | 679.78hPa | 2.7V | 00:00:00 | 00:00:00 | 00:00:00 | |
| AA1-15 | 2026-09-06 01:36:23 | 53.11234 | 12.46520 | 131° | 69km/h | 3357m | -3.9m/s | -3.2°C | 21% | 679.1hPa | 2.7V | 07:27:41 | 03:16:32 | 00:00:00 | |
| DF8AY | 2026-09-06 01:36:17 | 53.11304 | 12.46402 | 135° | 60km/h | 3380m | -3.6m/s | -3.4°C | 22% | 677.1hPa | 2.7V | 07:27:41 | 03:16:26 | 00:00:00 | |
| AA1-15 | 2026-09-06 01:36:13 | 53.11343 | 12.46328 | 128° | 58km/h | 3395m | -3.9m/s | -3.5°C | 22.4% | 675.8hPa | 2.7V | 07:27:41 | 03:16:22 | 00:00:00 | |
| DF8AY | 2026-09-06 01:36:06 | 53.11406 | 12.46179 | 125° | 68km/h | 3422m | -3.9m/s | -3.7°C | 21.4% | 673.5hPa | 2.7V | 07:28:32 | 03:16:15 | 00:00:00 | |
| AA1-15 | 2026-09-06 01:36:03 | 53.11438 | 12.46110 | 130° | 68km/h | 3433m | -3.7m/s | -3.7°C | 20.9% | 672.5hPa | 2.7V | 07:28:32 | 03:16:12 | 00:00:00 | |
| DO2SHX-10 | 2026-09-06 01:36:03 | 53.11438 | 12.46110 | 131° | 68km/h | 3433m | -3.7m/s | -3.7°C | 18.6% | 672.5hPa | 2.6V | 00:00:00 | 03:16:12 | 00:00:00 | |
| SONDE2-11 | 2026-09-06 01:36:00 | 53.11480 | 12.46024 | 127° | 64km/h | 3448m | -3.7m/s | -3.8°C | 18.5% | 671.2hPa | 2.6V | 00:00:00 | 00:00:00 | 00:00:00 | |
| MECKS9 | 2026-09-06 01:35:57 | 53.11490 | 12.46002 | 126° | 66km/h | 3452m | -3.8m/s | -3.8°C | 18.6% | 671.0hPa | 2.6V | 00:00:00 | 00:00:00 | 00:00:00 | |
| DB0DAN | 2026-09-06 01:35:55 | 53.11520 | 12.45931 | 125° | 68km/h | 3463m | -3.7m/s | -3.9°C | 18.3% | 669.97hPa | 2.6V | 00:00:00 | 00:00:00 | 00:00:00 | |
| DF8AY | 2026-09-06 01:35:55 | 53.11520 | 12.45931 | 125° | 71km/h | 3463m | -3.7m/s | -3.9°C | 21.2% | 670hPa | 2.6V | 07:28:32 | 03:16:04 | 00:00:00 | |
| AA1-15 | 2026-09-06 01:35:52 | 53.11553 | 12.45859 | 129° | 71km/h | 3474m | -3.6m/s | -4°C | 20.7% | 669hPa | 2.7V | 07:28:32 | 03:16:01 | 00:00:00 | |
| DF8AY | 2026-09-06 01:35:50 | 53.11626 | 12.45701 | 125° | 71km/h | 3501m | -3.7m/s | -4.1°C | 19.7% | 666.8hPa | 2.7V | 07:28:32 | 03:15:54 | 00:00:00 | |
| EDDB2-12 | 2026-09-06 01:35:47 | 53.11616 | 12.45726 | 124° | 68km/h | 3497m | -3.7m/s | -4.1°C | 17.6% | 667.2hPa | 2.6V | 00:00:00 | 00:00:00 | 00:00:00 | |
| AA1-15 | 2026-09-06 01:35:42 | 53.11660 | 12.45629 | 130° | 73km/h | 3512m | -3.6m/s | -4.1°C | 18.2% | 665.9hPa | 2.6V | 07:28:32 | 03:15:51 | 00:00:00 | |
| DO2SHX-10 | 2026-09-06 01:35:42 | 53.11660 | 12.45629 | 131° | 71km/h | 3512m | -3.6m/s | -4.1°C | 16.5% | 665.9hPa | 2.7V | 00:00:00 | 03:15:51 | 00:00:00 | |
| DB0DAN | 2026-09-06 01:35:40 | 53.11683 | 12.45584 | 133° | 66km/h | 3519m | -3.7m/s | -4.1°C | 14.4% | 665.24hPa | 2.7V | 00:00:00 | 00:00:00 | 00:00:00 | |
| DM0DOS-11 | 2026-09-06 01:35:40 | 53.11726 | 12.45500 | 127° | 64km/h | 3534m | -3.5m/s | -4.2°C | 13.3% | 664hPa | 2.6V | 07:28:17 | 03:15:45 | 00:00:00 | |
| S3001 | 2026-09-06 01:35:40 | 53.11695 | 12.45563 | 132° | 66km/h | 3523m | -3.6m/s | -4.1°C | 13.7% | 665.0hPa | 2.7V | 00:00:00 | 00:00:00 | 00:00:00 | |
| DO2SHX-10 | 2026-09-06 01:35:39 | 53.11695 | 12.45562 | 133° | 66km/h | 3523m | -3.6m/s | -4.1°C | 14.1% | 664.9hPa | 2.7V | 00:00:00 | 03:15:48 | 00:00:00 | |
| DO2SHX-10 | 2026-09-06 01:35:36 | 53.11726 | 12.45500 | 128° | 66km/h | 3534m | -3.4m/s | -4.1°C | 13.3% | 663.9hPa | 2.7V | 00:00:00 | 03:15:45 | 00:00:00 | |
| DM0DOS-11 | 2026-09-06 01:35:35 | 53.11789 | 12.45358 | 129° | 73km/h | 3556m | -3.5m/s | -4.3°C | 11.2% | 662.1hPa | 2.7V | 07:28:23 | 03:15:39 | 00:00:00 | |
| DF8AY | 2026-09-06 01:35:34 | 53.11746 | 12.45454 | 125° | 69km/h | 3541m | -3.8m/s | -4.2°C | 13.6% | 663.4hPa | 2.7V | 07:28:32 | 03:15:43 | 00:00:00 | |
| AA1-15 | 2026-09-06 01:35:32 | 53.11777 | 12.45381 | 128° | 73km/h | 3553m | -3.8m/s | -4.3°C | 12.5% | 662.4hPa | 2.7V | 07:28:32 | 03:15:40 | 00:00:00 | |
| DO2SHX-10 | 2026-09-06 01:35:30 | 53.11789 | 12.45358 | 130° | 71km/h | 3556m | -3.5m/s | -4.2°C | 11.2% | 662.1hPa | 2.7V | 00:00:00 | 03:15:39 | 00:00:00 | |
| SONDE2-11 | 2026-09-06 01:35:29 | 53.11812 | 12.45312 | 130° | 68km/h | 3563m | -3.6m/s | -4.3°C | 10.3% | 661.5hPa | 2.7V | 00:00:00 | 00:00:00 | 00:00:00 | |
| DO2SHX-10 | 2026-09-06 01:35:27 | 53.11823 | 12.45290 | 130° | 66km/h | 3567m | -3.6m/s | -4.3°C | 10.6% | 661.1hPa | 2.7V | 00:00:00 | 03:15:36 | 00:00:00 | |
| DB0DAN | 2026-09-06 01:35:25 | 53.11843 | 12.45246 | 125° | 64km/h | 3575m | -3.5m/s | -4.4°C | 9.8% | 660.52hPa | 2.7V | 00:00:00 | 00:00:00 | 00:00:00 | |
| DM0DOS-11 | 2026-09-06 01:35:25 | 53.11843 | 12.45246 | 125° | 68km/h | 3575m | -3.5m/s | -4.3°C | 10.1% | 660.5hPa | 2.7V | 07:28:28 | 03:15:34 | 00:00:00 | |
| DF8AY | 2026-09-06 01:35:24 | 53.11853 | 12.45223 | 124° | 68km/h | 3578m | -3.7m/s | -4.3°C | 9.7% | 660.3hPa | 2.7V | 07:28:32 | 03:15:33 | 00:00:00 | |
| AA1-15 | 2026-09-06 01:35:21 | 53.11884 | 12.45150 | 127° | 73km/h | 3590m | -3.8m/s | -4.4°C | 8.8% | 659.3hPa | 2.7V | 07:28:32 | 03:15:30 | 00:00:00 | |
| DF8AY | 2026-09-06 01:35:13 | 53.11972 | 12.44963 | 124° | 71km/h | 3619m | -3.4m/s | -4.3°C | 5.2% | 656.8hPa | 2.7V | 07:29:23 | 03:15:22 | 00:00:00 | |
| DB0DAN | 2026-09-06 01:35:10 | 53.12005 | 12.44886 | 126° | 73km/h | 3630m | -3.7m/s | -4.3°C | 5.2% | 655.84hPa | 2.6V | 00:00:00 | 00:00:00 | 00:00:00 | |
| AA1-15 | 2026-09-06 01:35:10 | 53.12005 | 12.44886 | 126° | 77km/h | 3630m | -3.7m/s | -4.3°C | 3.8% | 655.8hPa | 2.6V | 07:29:23 | 03:15:19 | 00:00:00 | |
| S3001 | 2026-09-06 01:35:09 | 53.12028 | 12.44835 | 128° | 75km/h | 3637m | -3.7m/s | -4.3°C | 5.0% | 655.2hPa | 2.7V | 00:00:00 | 00:00:00 | 00:00:00 | |
| DM0DOS-11 | 2026-09-06 01:35:03 | 53.12135 | 12.44597 | 125° | 75km/h | 3674m | -3.8m/s | -4.3°C | 3.7% | 652.3hPa | 2.7V | 07:28:55 | 03:15:07 | 00:00:00 | |
| DF8AY | 2026-09-06 01:35:02 | 53.12094 | 12.44698 | 125° | 69km/h | 3660m | -3.8m/s | -4.3°C | 0.5% | 653.4hPa | 2.6V | 07:29:23 | 03:15:11 | 00:00:00 | |
| AA1-15 | 2026-09-06 01:35:00 | 53.12114 | 12.44648 | 124° | 73km/h | 3667m | -3.7m/s | -4.3°C | 0.7% | 652.8hPa | 2.7V | 07:29:23 | 03:15:09 | 00:00:00 | |
| DO2SHX-10 | 2026-09-06 01:35:00 | 53.12114 | 12.44648 | 124° | 75km/h | 3667m | -3.7m/s | -4.2°C | 3.4% | 652.8hPa | 2.7V | 00:00:00 | 03:15:09 | 00:00:00 | |
| DM0DOS-11 | 2026-09-06 01:34:58 | 53.12193 | 12.44475 | 127° | 69km/h | 3693m | -3.6m/s | -4.4°C | 6.6% | 650.7hPa | 2.7V | 07:29:00 | 03:15:02 | 00:00:00 | |
| DO2SHX-10 | 2026-09-06 01:34:57 | 53.12147 | 12.44571 | 128° | 75km/h | 3678m | -3.6m/s | -4.3°C | 4.1% | 651.8hPa | 2.7V | 00:00:00 | 03:15:06 | 00:00:00 | |
| DB0DAN | 2026-09-06 01:34:55 | 53.12170 | 12.44522 | 129° | 69km/h | 3686m | -3.7m/s | -4.3°C | 5.4% | 651.32hPa | 2.7V | 00:00:00 | 00:00:00 | 00:00:00 | |
| DF8AY | 2026-09-06 01:34:51 | 53.12213 | 12.44428 | 124° | 69km/h | 3700m | -3.7m/s | -4.5°C | 7.6% | 650.1hPa | 2.7V | 07:29:23 | 03:15:00 | 00:00:00 | |
| AA1-15 | 2026-09-06 01:34:50 | 53.12223 | 12.44403 | 123° | 71km/h | 3704m | -3.8m/s | -4.5°C | 8.1% | 649.8hPa | 2.6V | 07:29:23 | 03:14:59 | 00:00:00 | |
| DO2SHX-10 | 2026-09-06 01:34:48 | 53.12244 | 12.44351 | 125° | 77km/h | 3711m | -3.9m/s | -4.5°C | 9.8% | 649.1hPa | 2.7V | 00:00:00 | 03:14:57 | 00:00:00 | |
| DM0DOS-11 | 2026-09-06 01:34:46 | 53.12325 | 12.44183 | 128° | 66km/h | 3737m | -3.6m/s | -4.8°C | 13.1% | 647hPa | 2.7V | 07:29:12 | 03:14:50 | 00:00:00 | |
| EDDB2-12 | 2026-09-06 01:34:45 | 53.12291 | 12.44250 | 130° | 73km/h | 3726m | -3.5m/s | -4.7°C | 12.2% | 648.1hPa | 2.7V | 00:00:00 | 00:00:00 | 00:00:00 | |
| DM0DOS-11 | 2026-09-06 01:34:41 | 53.12374 | 12.44063 | 123° | 75km/h | 3755m | -3.9m/s | -5°C | 13.6% | 645.6hPa | 2.7V | 07:29:17 | 03:14:45 | 00:00:00 | |
| DF8AY | 2026-09-06 01:34:41 | 53.12325 | 12.44183 | 128° | 66km/h | 3737m | -3.6m/s | -4.8°C | 14.5% | 647hPa | 2.7V | 07:29:23 | 03:14:50 | 00:00:00 | |
| DB0DAN | 2026-09-06 01:34:40 | 53.12335 | 12.44160 | 126° | 62km/h | 3740m | -3.6m/s | -4.9°C | 12.7% | 646.78hPa | 2.7V | 00:00:00 | 00:00:00 | 00:00:00 | |
| AA1-15 | 2026-09-06 01:34:39 | 53.12345 | 12.44137 | 124° | 68km/h | 3744m | -3.7m/s | -4.9°C | 14.4% | 646.5hPa | 2.7V | 07:29:23 | 03:14:48 | 00:00:00 | |
| DO2SHX-10 | 2026-09-06 01:34:39 | 53.12345 | 12.44137 | 125° | 69km/h | 3744m | -3.7m/s | -4.8°C | 13.0% | 646.4hPa | 2.6V | 00:00:00 | 03:14:48 | 00:00:00 | |
| S3001 | 2026-09-06 01:34:38 | 53.12364 | 12.44089 | 122° | 71km/h | 3751m | -3.8m/s | -5.0°C | 13.1% | 645.8hPa | 2.6V | 00:00:00 | 00:00:00 | 00:00:00 | |
| DM0DOS-11 | 2026-09-06 01:34:36 | 53.12432 | 12.43933 | 129° | 75km/h | 3773m | -3.7m/s | -5.2°C | 13.8% | 644hPa | 2.6V | 07:29:22 | 03:14:40 | 00:00:00 | |
| DF8AY | 2026-09-06 01:34:30 | 53.12444 | 12.43909 | 130° | 71km/h | 3776m | -3.3m/s | -5.2°C | 15.4% | 643.8hPa | 2.6V | 07:29:23 | 03:14:39 | 00:00:00 | |
| AA1-15 | 2026-09-06 01:34:29 | 53.12455 | 12.43886 | 129° | 69km/h | 3780m | -3.6m/s | -5.2°C | 15.4% | 643.5hPa | 2.7V | 07:30:14 | 03:14:38 | 00:00:00 | |
| AM1SDL-15 | 2026-09-06 01:34:28 | 53.12466 | 12.43863 | 128° | 73km/h | 3783m | -3.5m/s | -5.2°C | 13.9% | 643.1hPa | 2.7V | 00:00:00 | 03:14:37 | 00:00:00 | |
| DO2SHX-10 | 2026-09-06 01:34:27 | 53.12476 | 12.43840 | 125° | 69km/h | 3787m | -3.6m/s | -5.3°C | 14.0% | 642.8hPa | 2.7V | 00:00:00 | 03:14:36 | 00:00:00 | |
| DB0DAN | 2026-09-06 01:34:25 | 53.12495 | 12.43791 | 122° | 68km/h | 3794m | -3.7m/s | -5.4°C | 13.5% | 642.27hPa | 2.6V | 00:00:00 | 00:00:00 | 00:00:00 | |
| DM0DOS-11 | 2026-09-06 01:34:25 | 53.12550 | 12.43659 | 128° | 77km/h | 3812m | -3.7m/s | -5.5°C | 14.2% | 640.7hPa | 2.7V | 07:29:33 | 03:14:29 | 00:00:00 | |
| DF8AY | 2026-09-06 01:34:20 | 53.12562 | 12.43634 | 130° | 75km/h | 3816m | -3.7m/s | -5.6°C | 15.9% | 640.5hPa | 2.6V | 07:30:14 | 03:14:28 | 00:00:00 | |
| DM0DOS-11 | 2026-09-06 01:34:20 | 53.12606 | 12.43542 | 125° | 68km/h | 3831m | -3.8m/s | -5.7°C | 14.3% | 639.2hPa | 2.7V | 07:29:38 | 03:14:24 | 00:00:00 | |
| AA1-15 | 2026-09-06 01:34:18 | 53.12574 | 12.43610 | 130° | 73km/h | 3820m | -3.5m/s | -5.6°C | 15.9% | 640.2hPa | 2.6V | 07:30:14 | 03:14:27 | 00:00:00 | |
| DO2SHX-10 | 2026-09-06 01:34:18 | 53.12574 | 12.43610 | 131° | 69km/h | 3820m | -3.5m/s | -5.6°C | 14.3% | 640.1hPa | 2.6V | 00:00:00 | 03:14:27 | 00:00:00 | |
| AM1SDL-15 | 2026-09-06 01:34:16 | 53.12596 | 12.43565 | 128° | 73km/h | 3827m | -3.7m/s | -5.6°C | 14.3% | 639.5hPa | 2.7V | 07:29:00 | 03:14:25 | 00:00:00 | |
| DO2SHX-10 | 2026-09-06 01:34:15 | 53.12606 | 12.43542 | 126° | 68km/h | 3831m | -3.7m/s | -5.7°C | 14.3% | 639.2hPa | 2.7V | 00:00:00 | 03:14:24 | 00:00:00 | |
| EDDB2-12 | 2026-09-06 01:34:13 | 53.12626 | 12.43495 | 121° | 68km/h | 3838m | -3.8m/s | -5.8°C | 13.7% | 638.6hPa | 2.7V | 00:00:00 | 00:00:00 | 00:00:00 | |
| DO2SHX-10 | 2026-09-06 01:34:12 | 53.12635 | 12.43469 | 121° | 73km/h | 3842m | -3.6m/s | -5.8°C | 14.2% | 638.4hPa | 2.7V | 00:00:00 | 03:14:21 | 00:00:00 | |
| DB0DAN | 2026-09-06 01:34:10 | 53.12654 | 12.43416 | 122° | 73km/h | 3849m | -3.4m/s | -5.9°C | 13.4% | 637.81hPa | 2.7V | 00:00:00 | 00:00:00 | 00:00:00 | |
| DF8AY | 2026-09-06 01:34:09 | 53.12664 | 12.43389 | 123° | 77km/h | 3853m | -4m/s | -5.9°C | 15.5% | 637.5hPa | 2.7V | 07:30:14 | 03:14:18 | 00:00:00 | |
| AA1-15 | 2026-09-06 01:34:08 | 53.12675 | 12.43362 | 125° | 78km/h | 3857m | -3.7m/s | -5.9°C | 15.6% | 637.2hPa | 2.7V | 07:30:14 | 03:14:17 | 00:00:00 | |
| AA1-15 | 2026-09-06 01:33:58 | 53.12785 | 12.43120 | 123° | 73km/h | 3894m | -3.7m/s | -6.3°C | 15.8% | 634.2hPa | 2.7V | 07:30:14 | 03:14:07 | 00:00:00 | |
| DO2SHX-10 | 2026-09-06 01:33:57 | 53.12796 | 12.43094 | 124° | 75km/h | 3898m | -3.8m/s | -6.3°C | 14.4% | 633.8hPa | 2.7V | 07:29:00 | 03:14:06 | 00:00:00 | |
| DB0DAN | 2026-09-06 01:33:55 | 53.12818 | 12.43042 | 126° | 73km/h | 3905m | -3.8m/s | -6.4°C | 14.1% | 633.3hPa | 2.7V | 00:00:00 | 00:00:00 | 00:00:00 | |
| DO2SHX-10 | 2026-09-06 01:33:54 | 53.12829 | 12.43016 | 128° | 73km/h | 3909m | -3.5m/s | -6.4°C | 14.6% | 633.0hPa | 2.7V | 00:00:00 | 03:14:03 | 00:00:00 | |
| AM1SDL-15 | 2026-09-06 01:33:52 | 53.12853 | 12.42968 | 130° | 73km/h | 3916m | -3.8m/s | -6.5°C | 14.7% | 632.4hPa | 2.7V | 00:00:00 | 03:14:01 | 00:00:00 | |
| DO2SHX-10 | 2026-09-06 01:33:51 | 53.12864 | 12.42944 | 129° | 69km/h | 3919m | -3.4m/s | -6.5°C | 14.8% | 632.2hPa | 2.7V | 00:00:00 | 03:14:00 | 00:00:00 | |
| DM0DOS-11 | 2026-09-06 01:33:50 | 53.12925 | 12.42797 | 124° | 77km/h | 3941m | -4m/s | -6.7°C | 15.4% | 630.3hPa | 2.7V | 07:30:08 | 03:13:54 | 00:00:00 | |
| DF8AY | 2026-09-06 01:33:48 | 53.12894 | 12.42874 | 123° | 69km/h | 3930m | -3.7m/s | -6.6°C | 16.4% | 631.2hPa | 2.7V | 07:30:14 | 03:13:57 | 00:00:00 | |
| AA1-15 | 2026-09-06 01:33:47 | 53.12904 | 12.42849 | 122° | 71km/h | 3934m | -3.7m/s | -6.7°C | 16.5% | 631hPa | 2.6V | 07:30:14 | 03:13:56 | 00:00:00 | |
| DO2SHX-10 | 2026-09-06 01:33:45 | 53.12925 | 12.42797 | 125° | 78km/h | 3942m | -3.9m/s | -6.7°C | 15.4% | 630.3hPa | 2.7V | 00:00:00 | 03:13:54 | 00:00:00 | |
| DO2SHX-10 | 2026-09-06 01:33:42 | 53.12960 | 12.42718 | 130° | 77km/h | 3953m | -3.6m/s | -6.8°C | 15.7% | 629.4hPa | 2.7V | 00:00:00 | 03:13:51 | 00:00:00 | |
| DB0DAN | 2026-09-06 01:33:40 | 53.12985 | 12.42670 | 131° | 71km/h | 3959m | -3.8m/s | -6.9°C | 14.3% | 628.81hPa | 2.6V | 00:00:00 | 00:00:00 | 00:00:00 | |
| DM0DOS-11 | 2026-09-06 01:33:40 | 53.13009 | 12.42623 | 128° | 69km/h | 3966m | -3.8m/s | -6.9°C | 14.9% | 628.1hPa | 2.7V | 07:30:15 | 03:13:47 | 00:00:00 | |
| AA1-15 | 2026-09-06 01:33:37 | 53.13020 | 12.42600 | 127° | 69km/h | 3970m | -4.1m/s | -7°C | 16.2% | 627.9hPa | 2.7V | 07:31:05 | 03:13:46 | 00:00:00 | |
| DO2SHX-10 | 2026-09-06 01:33:36 | 53.13030 | 12.42576 | 125° | 73km/h | 3975m | -4.1m/s | -6.9°C | 14.8% | 627.6hPa | 2.7V | 00:00:00 | 03:13:45 | 00:00:00 | |
| S3001 | 2026-09-06 01:33:35 | 53.13050 | 12.42524 | 122° | 75km/h | 3982m | -3.9m/s | -7.0°C | 13.9% | 627.1hPa | 2.7V | 00:00:00 | 00:00:00 | 00:00:00 | |
| DO2SHX-10 | 2026-09-06 01:33:33 | 53.13061 | 12.42497 | 123° | 78km/h | 3986m | -3.7m/s | -7.0°C | 14.2% | 626.7hPa | 2.7V | 07:30:00 | 03:13:42 | 00:00:00 | |
| DO2SHX-10 | 2026-09-06 01:33:30 | 53.13095 | 12.42416 | 128° | 78km/h | 3997m | -3.3m/s | -7.1°C | 13.0% | 625.9hPa | 2.6V | 00:00:00 | 03:13:39 | 00:00:00 | |
| DM0DOS-11 | 2026-09-06 01:33:28 | 53.13120 | 12.42364 | 129° | 77km/h | 4004m | -3.7m/s | -7.1°C | 12.4% | 625.2hPa | 2.6V | 07:30:25 | 03:13:37 | 00:00:00 | |
| AA1-15 | 2026-09-06 01:33:27 | 53.13132 | 12.42339 | 131° | 75km/h | 4008m | -3.9m/s | -7.1°C | 12.7% | 625hPa | 2.7V | 07:31:05 | 03:13:36 | 00:00:00 | |
| DO2SHX-10 | 2026-09-06 01:33:27 | 53.13132 | 12.42339 | 131° | 73km/h | 4008m | -3.9m/s | -7.1°C | 11.8% | 625.0hPa | 2.7V | 00:00:00 | 03:13:36 | 00:00:00 | |
| DB0DAN | 2026-09-06 01:33:25 | 53.13156 | 12.42292 | 128° | 69km/h | 4016m | -3.7m/s | -7.1°C | 10.7% | 624.35hPa | 2.7V | 00:00:00 | 00:00:00 | 00:00:00 | |
| SONDE2-11 | 2026-09-06 01:33:25 | 53.13167 | 12.42268 | 126° | 71km/h | 4019m | -3.9m/s | -7.2°C | 10.5% | 624.1hPa | 2.7V | 00:00:00 | 00:00:00 | 00:00:00 | |
| DO2SHX-10 | 2026-09-06 01:33:24 | 53.13167 | 12.42268 | 127° | 75km/h | 4020m | -3.9m/s | -7.1°C | 11.0% | 624.1hPa | 2.7V | 00:00:00 | 03:13:33 | 00:00:00 | |
| DM0DOS-11 | 2026-09-06 01:33:23 | 53.13237 | 12.42106 | 128° | 82km/h | 4043m | -3.9m/s | -7.3°C | 10.8% | 622.3hPa | 2.7V | 07:30:35 | 03:13:27 | 00:00:00 | |
| DO2SHX-10 | 2026-09-06 01:33:21 | 53.13200 | 12.42189 | 125° | 80km/h | 4031m | -3.9m/s | -7.2°C | 10.8% | 623.2hPa | 2.7V | 00:00:00 | 03:13:30 | 00:00:00 | |
| EDDB2-11 | 2026-09-06 01:33:19 | 53.13224 | 12.42134 | 126° | 80km/h | 4039m | -4.0m/s | -7.3°C | 10.4% | 622.5hPa | 2.7V | 00:00:00 | 00:00:00 | 00:00:00 | |
| DM0DOS-11 | 2026-09-06 01:33:18 | 53.13301 | 12.41980 | 129° | 75km/h | 4061m | -3.4m/s | -7.3°C | 10.3% | 620.7hPa | 2.7V | 07:30:40 | 03:13:22 | 00:00:00 | |
| AA1-15 | 2026-09-06 01:33:17 | 53.13249 | 12.42080 | 130° | 82km/h | 4046m | -3.7m/s | -7.3°C | 11.3% | 621.9hPa | 2.6V | 07:31:05 | 03:13:26 | 00:00:00 | |
| AM1SDL-15 | 2026-09-06 01:33:16 | 53.13263 | 12.42053 | 132° | 78km/h | 4050m | -3.7m/s | -7.3°C | 10.7% | 621.6hPa | 2.6V | 00:00:00 | 03:13:25 | 00:00:00 | |
| DO2SHX-10 | 2026-09-06 01:33:15 | 53.13276 | 12.42028 | 132° | 77km/h | 4054m | -3.5m/s | -7.3°C | 10.6% | 621.3hPa | 2.7V | 00:00:00 | 03:13:24 | 00:00:00 | |
| DO2SHX-10 | 2026-09-06 01:33:12 | 53.13312 | 12.41955 | 128° | 77km/h | 4065m | -3.8m/s | -7.3°C | 10.1% | 620.5hPa | 2.7V | 00:00:00 | 03:13:21 | 00:00:00 | |
| DM0DOS-11 | 2026-09-06 01:33:11 | 53.13385 | 12.41795 | 129° | 84km/h | 4086m | -3.6m/s | -7.3°C | 8.5% | 618.7hPa | 2.7V | 07:30:47 | 03:13:15 | 00:00:00 | |
| DB0DAN | 2026-09-06 01:33:10 | 53.13335 | 12.41904 | 125° | 75km/h | 4072m | -3.5m/s | -7.3°C | 9% | 619.87hPa | 2.6V | 00:00:00 | 00:00:00 | 00:00:00 | |
| DF8AY | 2026-09-06 01:33:07 | 53.13372 | 12.41822 | 128° | 82km/h | 4083m | -3.5m/s | -7.3°C | 8.5% | 619hPa | 2.7V | 07:31:05 | 03:13:16 | 00:00:00 | |
| AA1-15 | 2026-09-06 01:33:06 | 53.13385 | 12.41795 | 129° | 84km/h | 4087m | -3.7m/s | -7.3°C | 8.4% | 618.7hPa | 2.7V | 07:31:05 | 03:13:15 | 00:00:00 | |
| DO2SHX-10 | 2026-09-06 01:33:06 | 53.13385 | 12.41795 | 130° | 82km/h | 4087m | -3.6m/s | -7.3°C | 8.5% | 618.7hPa | 2.7V | 00:00:00 | 03:13:15 | 00:00:00 | |
| AM1SDL-15 | 2026-09-06 01:33:04 | 53.13412 | 12.41741 | 132° | 84km/h | 4094m | -3.8m/s | -7.3°C | 8.4% | 618.1hPa | 2.7V | 00:00:00 | 03:13:13 | 00:00:00 | |
| DO2SHX-10 | 2026-09-06 01:33:03 | 53.13426 | 12.41715 | 132° | 82km/h | 4098m | -3.4m/s | -7.3°C | 8.3% | 617.8hPa | 2.7V | 00:00:00 | 03:13:12 | 00:00:00 | |
| DM0DOS-11 | 2026-09-06 01:33:00 | 53.13516 | 12.41521 | 127° | 88km/h | 4124m | -4.3m/s | -7.5°C | 7.7% | 615.8hPa | 2.7V | 07:30:57 | 03:13:05 | 00:00:00 | |
| DF8AY | 2026-09-06 01:32:56 | 53.13516 | 12.41521 | 127° | 88km/h | 4124m | -4.3m/s | -7.6°C | 7.3% | 615.8hPa | 2.7V | 07:31:05 | 03:13:05 | 00:00:00 | |
| DB0DAN | 2026-09-06 01:32:55 | 53.13530 | 12.41492 | 128° | 84km/h | 4128m | -3.5m/s | -7.6°C | 7.4% | 615.42hPa | 2.7V | 00:00:00 | 00:00:00 | 00:00:00 | |
| DM0DOS-11 | 2026-09-06 01:32:55 | 53.13587 | 12.41380 | 132° | 86km/h | 4143m | -3.9m/s | -7.6°C | 6.8% | 614.1hPa | 2.7V | 07:31:02 | 03:13:00 | 00:00:00 | |
| AA1-15 | 2026-09-06 01:32:55 | 53.13530 | 12.41492 | 128° | 88km/h | 4128m | -3.5m/s | -7.6°C | 7.3% | 615.4hPa | 2.7V | 07:31:05 | 03:13:04 | 00:00:00 | |
| SONDE2-11 | 2026-09-06 01:32:53 | 53.13558 | 12.41435 | 130° | 88km/h | 4135m | -3.9m/s | -7.6°C | 7.2% | 614.8hPa | 2.7V | 00:00:00 | 00:00:00 | 00:00:00 | |
| AM1SDL-15 | 2026-09-06 01:32:52 | 53.13572 | 12.41407 | 132° | 88km/h | 4139m | -3.6m/s | -7.6°C | 7.1% | 614.5hPa | 2.7V | 00:00:00 | 03:13:01 | 00:00:00 | |
| DO2SHX-10 | 2026-09-06 01:32:51 | 53.13587 | 12.41380 | 133° | 84km/h | 4143m | -3.8m/s | -7.5°C | 6.8% | 614.1hPa | 2.7V | 00:00:00 | 03:13:00 | 00:00:00 | |
| MECKS9 | 2026-09-06 01:32:50 | 53.13587 | 12.41380 | 133° | 86km/h | 4143m | -3.9m/s | -7.6°C | 6.5% | 614.1hPa | 2.7V | 07:31:00 | 00:00:00 | 00:00:00 | |
| DO2SHX-10 | 2026-09-06 01:32:48 | 53.13629 | 12.41299 | 131° | 86km/h | 4154m | -3.7m/s | -7.5°C | 6.2% | 613.3hPa | 2.7V | 00:00:00 | 03:12:57 | 00:00:00 | |
| DM0DOS-11 | 2026-09-06 01:32:47 | 53.13715 | 12.41124 | 131° | 93km/h | 4177m | -4.1m/s | -7.4°C | 4.4% | 611.6hPa | 2.7V | 07:31:11 | 03:12:51 | 00:00:00 | |
| DL1XH-west | 2026-09-06 01:32:45 | 53.13671 | 12.41214 | 128° | 89km/h | 4165m | -3.4m/s | -7.5°C | 3.8% | 612.6hPa | 2.7V | 07:32:47 | 03:12:54 | 00:00:00 | |
| AA1-15 | 2026-09-06 01:32:44 | 53.13685 | 12.41184 | 129° | 91km/h | 4169m | -4m/s | -7.5°C | 3.3% | 612.2hPa | 2.7V | 07:31:56 | 03:12:53 | 00:00:00 | |
| SMARD9-15 | 2026-09-06 01:32:43 | 53.13700 | 12.41153 | 130° | 93km/h | 4173m | -3.7m/s | -7.4°C | 4.4% | 612.0hPa | 2.7V | 00:00:00 | 00:00:00 | 00:00:00 | |
| DM0DOS-11 | 2026-09-06 01:32:42 | 53.13793 | 12.40980 | 130° | 89km/h | 4196m | -3.7m/s | -7.4°C | 3.8% | 610.1hPa | 2.7V | 07:31:16 | 03:12:46 | 00:00:00 | |
| DO2SHX-10 | 2026-09-06 01:32:42 | 53.13715 | 12.41123 | 132° | 93km/h | 4177m | -4.1m/s | -7.4°C | 4.4% | 611.5hPa | 2.6V | 00:00:00 | 03:12:51 | 00:00:00 | |
| DB0DAN | 2026-09-06 01:32:40 | 53.13747 | 12.41065 | 133° | 88km/h | 4184m | -3.6m/s | -7.4°C | 3.9% | 610.95hPa | 2.6V | 00:00:00 | 00:00:00 | 00:00:00 | |
| AM1SDL-15 | 2026-09-06 01:32:40 | 53.13747 | 12.41065 | 133° | 89km/h | 4184m | -3.5m/s | -7.4°C | 4.1% | 610.9hPa | 2.6V | 07:31:00 | 03:12:49 | 00:00:00 | |
| DO2SHX-10 | 2026-09-06 01:32:39 | 53.13762 | 12.41037 | 133° | 91km/h | 4188m | -3.8m/s | -7.4°C | 4.0% | 610.7hPa | 2.7V | 00:00:00 | 03:12:48 | 00:00:00 | |
| DM0DOS-11 | 2026-09-06 01:32:37 | 53.13863 | 12.40833 | 127° | 88km/h | 4215m | -3.9m/s | -7.4°C | 3.6% | 608.6hPa | 2.7V | 07:31:21 | 03:12:41 | 00:00:00 | |
| DF8AY | 2026-09-06 01:32:34 | 53.13836 | 12.40892 | 128° | 89km/h | 4207m | -3.7m/s | -7.4°C | 1.3% | 609.3hPa | 2.6V | 07:31:56 | 03:12:43 | 00:00:00 | |
| AA1-15 | 2026-09-06 01:32:33 | 53.13849 | 12.40862 | 128° | 89km/h | 4211m | -3.6m/s | -7.4°C | 1.2% | 609hPa | 2.7V | 07:31:56 | 03:12:42 | 00:00:00 | |
| DO2SHX-10 | 2026-09-06 01:32:33 | 53.13849 | 12.40862 | 128° | 88km/h | 4211m | -3.6m/s | -7.4°C | 3.6% | 609.0hPa | 2.7V | 00:00:00 | 03:12:42 | 00:00:00 | |
| DM0DOS-11 | 2026-09-06 01:32:30 | 53.13946 | 12.40655 | 127° | 95km/h | 4238m | -4m/s | -7.5°C | 4.1% | 606.8hPa | 2.7V | 07:31:27 | 03:12:35 | 00:00:00 | |
| DO2SHX-10 | 2026-09-06 01:32:30 | 53.13890 | 12.40775 | 129° | 88km/h | 4222m | -3.7m/s | -7.4°C | 3.6% | 608.0hPa | 2.7V | 00:00:00 | 03:12:39 | 00:00:00 | |
| MECKS9 | 2026-09-06 01:32:29 | 53.13890 | 12.40775 | 129° | 88km/h | 4222m | -3.7m/s | -7.4°C | 3.5% | 608.0hPa | 2.7V | 00:00:00 | 00:00:00 | 00:00:00 | |
| DO2SHX-10 | 2026-09-06 01:32:27 | 53.13932 | 12.40686 | 128° | 93km/h | 4234m | -3.7m/s | -7.4°C | 4.1% | 607.0hPa | 2.7V | 00:00:00 | 03:12:36 | 00:00:00 | |
| DB0DAN | 2026-09-06 01:32:25 | 53.13961 | 12.40624 | 128° | 91km/h | 4242m | -4m/s | -7.5°C | 4% | 606.46hPa | 2.7V | 00:00:00 | 00:00:00 | 00:00:00 | |
| DM0DOS-11 | 2026-09-06 01:32:25 | 53.14042 | 12.40470 | 133° | 95km/h | 4261m | -3.8m/s | -7.4°C | 3.6% | 605hPa | 2.7V | 07:31:33 | 03:12:29 | 00:00:00 | |
| DF8AY | 2026-09-06 01:32:24 | 53.13976 | 12.40592 | 130° | 99km/h | 4246m | -3.8m/s | -7.4°C | 2.1% | 606.2hPa | 2.7V | 07:31:56 | 03:12:33 | 00:00:00 | |
| AA1-15 | 2026-09-06 01:32:23 | 53.13992 | 12.40560 | 131° | 99km/h | 4249m | -3.8m/s | -7.4°C | 1.9% | 606hPa | 2.6V | 07:31:56 | 03:12:32 | 00:00:00 | |
| SONDE2-11 | 2026-09-06 01:32:22 | 53.14009 | 12.40529 | 132° | 97km/h | 4253m | -3.9m/s | -7.4°C | 3.7% | 605.5hPa | 2.7V | 00:00:00 | 00:00:00 | 00:00:00 | |
| DO2SHX-10 | 2026-09-06 01:32:21 | 53.14025 | 12.40499 | 134° | 95km/h | 4257m | -4.0m/s | -7.4°C | 3.7% | 605.3hPa | 2.7V | 07:31:00 | 03:12:30 | 00:00:00 | |
| DM0DOS-11 | 2026-09-06 01:32:20 | 53.14116 | 12.40323 | 126° | 93km/h | 4280m | -4.2m/s | -7.5°C | 2.9% | 603.5hPa | 2.7V | 07:31:38 | 03:12:24 | 00:00:00 | |
| DO2SHX-10 | 2026-09-06 01:32:18 | 53.14073 | 12.40413 | 131° | 91km/h | 4269m | -3.6m/s | -7.4°C | 3.3% | 604.4hPa | 2.6V | 00:00:00 | 03:12:27 | 00:00:00 | |
| EDDB2-11 | 2026-09-06 01:32:17 | 53.14088 | 12.40384 | 129° | 89km/h | 4272m | -3.7m/s | -7.4°C | 2.9% | 604.1hPa | 2.6V | 00:00:00 | 00:00:00 | 00:00:00 | |
| DL1XH1-15 | 2026-09-06 01:32:15 | 53.14192 | 12.40160 | 130° | 100km/h | 4299m | -4m/s | -7.5°C | 2.8% | 602hPa | 2.6V | 07:31:43 | 03:12:19 | 00:00:00 | |
| DF8AY | 2026-09-06 01:32:13 | 53.14145 | 12.40258 | 127° | 99km/h | 4288m | -3.7m/s | -7.5°C | 0.1% | 602.8hPa | 2.7V | 07:31:56 | 03:12:22 | 00:00:00 | |
| AA1-15 | 2026-09-06 01:32:12 | 53.14160 | 12.40225 | 128° | 99km/h | 4292m | -3.8m/s | -7.5°C | 0% | 602.6hPa | 2.7V | 07:31:56 | 03:12:21 | 00:00:00 | |
| DO2SHX-10 | 2026-09-06 01:32:12 | 53.14160 | 12.40225 | 128° | 100km/h | 4292m | -3.8m/s | -7.5°C | 2.8% | 602.5hPa | 2.7V | 00:00:00 | 03:12:21 | 00:00:00 | |
| DM0DOS-11 | 2026-09-06 01:32:10 | 53.14276 | 12.40009 | 133° | 93km/h | 4319m | -3.9m/s | -7.6°C | 3.2% | 600.5hPa | 2.6V | 07:31:48 | 03:12:14 | 00:00:00 | |
| DL1XH-west | 2026-09-06 01:32:09 | 53.14209 | 12.40128 | 131° | 100km/h | 4303m | -4m/s | -7.5°C | 0.1% | 601.7hPa | 2.7V | 07:32:47 | 03:12:18 | 00:00:00 | |
| DO2SHX-10 | 2026-09-06 01:32:09 | 53.14208 | 12.40128 | 132° | 99km/h | 4303m | -4.0m/s | -7.5°C | 2.9% | 601.6hPa | 2.7V | 00:00:00 | 03:12:18 | 00:00:00 | |
| DL1XH1-15 | 2026-09-06 01:32:08 | 53.14308 | 12.39952 | 131° | 91km/h | 4327m | -3.8m/s | -7.6°C | 3.3% | 599.9hPa | 2.7V | 07:31:50 | 03:12:12 | 00:00:00 | |
| DF8AY | 2026-09-06 01:32:03 | 53.14308 | 12.39952 | 132° | 91km/h | 4327m | -3.8m/s | -7.6°C | 0.7% | 599.9hPa | 2.7V | 07:31:56 | 03:12:12 | 00:00:00 | |
| AA1-15 | 2026-09-06 01:32:01 | 53.14338 | 12.39894 | 129° | 91km/h | 4334m | -3.9m/s | -7.7°C | 0.8% | 599.3hPa | 2.7V | 07:31:56 | 03:12:10 | 00:00:00 | |
| DM0DOS-11 | 2026-09-06 01:32:00 | 53.14352 | 12.39864 | 127° | 91km/h | 4338m | -4.1m/s | -7.7°C | 3.3% | 598.9hPa | 2.6V | 07:31:53 | 03:12:09 | 00:00:00 | |
| DL1XH-west | 2026-09-06 01:31:58 | 53.14381 | 12.39801 | 127° | 97km/h | 4346m | -4.2m/s | -7.7°C | 0.7% | 598.3hPa | 2.7V | 07:32:47 | 03:12:07 | 00:00:00 | |
| D01LWL | 2026-09-06 01:31:56 | 53.14412 | 12.39736 | 129° | 99km/h | 4354m | -4.1m/s | -7.8°C | 3.4% | 597.8hPa | 2.7V | 00:00:00 | 00:00:00 | 00:00:00 | |
| DB0DAN | 2026-09-06 01:31:55 | 53.14428 | 12.39703 | 131° | 95km/h | 4358m | -4.1m/s | -7.8°C | 3.7% | 597.35hPa | 2.7V | 00:00:00 | 00:00:00 | 00:00:00 | |
| DM0DOS-11 | 2026-09-06 01:31:55 | 53.14510 | 12.39555 | 131° | 91km/h | 4378m | -4m/s | -8°C | 4.9% | 595.9hPa | 2.7V | 07:32:03 | 03:11:59 | 00:00:00 | |
| DF8AY | 2026-09-06 01:31:52 | 53.14478 | 12.39612 | 134° | 95km/h | 4370m | -4.3m/s | -7.9°C | 3.5% | 596.5hPa | 2.7V | 07:32:47 | 03:12:01 | 00:00:00 | |
| DO2SHX-10 | 2026-09-06 01:31:51 | 53.14495 | 12.39584 | 134° | 91km/h | 4374m | -3.8m/s | -7.9°C | 5.0% | 596.2hPa | 2.7V | 00:00:00 | 03:12:00 | 00:00:00 | |
| DM0DOS-11 | 2026-09-06 01:31:50 | 53.14584 | 12.39402 | 128° | 99km/h | 4398m | -4.1m/s | -8.1°C | 4.9% | 594.4hPa | 2.7V | 07:32:08 | 03:11:54 | 00:00:00 | |
| AA1-15 | 2026-09-06 01:31:50 | 53.14510 | 12.39555 | 132° | 91km/h | 4378m | -4m/s | -8°C | 3.3% | 595.9hPa | 2.7V | 07:32:47 | 03:11:59 | 00:00:00 | |
| EDDB2-11 | 2026-09-06 01:31:46 | 53.14569 | 12.39435 | 127° | 95km/h | 4394m | -4.2m/s | -8.1°C | 4.6% | 594.6hPa | 2.7V | 00:00:00 | 00:00:00 | 00:00:00 | |
| DM0DOS-11 | 2026-09-06 01:31:45 | 53.14668 | 12.39243 | 133° | 100km/h | 4418m | -4m/s | -8.2°C | 4.9% | 592.9hPa | 2.7V | 07:32:13 | 03:11:49 | 00:00:00 | |
| DF8AY | 2026-09-06 01:31:41 | 53.14650 | 12.39273 | 133° | 100km/h | 4414m | -4.3m/s | -8.2°C | 3.4% | 593.1hPa | 2.6V | 07:32:47 | 03:11:50 | 00:00:00 | |
| DB0DAN | 2026-09-06 01:31:40 | 53.14668 | 12.39243 | 134° | 95km/h | 4418m | -4.1m/s | -8.2°C | 4.6% | 592.87hPa | 2.7V | 00:00:00 | 00:00:00 | 00:00:00 | |
| AA1-15 | 2026-09-06 01:31:39 | 53.14685 | 12.39213 | 134° | 99km/h | 4422m | -4m/s | -8.2°C | 3.3% | 592.6hPa | 2.7V | 07:32:47 | 03:11:48 | 00:00:00 | |
| DO2SHX-10 | 2026-09-06 01:31:39 | 53.14685 | 12.39213 | 135° | 95km/h | 4422m | -4.0m/s | -8.2°C | 4.8% | 592.5hPa | 2.6V | 00:00:00 | 03:11:48 | 00:00:00 | |
| EDDB2-12 | 2026-09-06 01:31:38 | 53.14702 | 12.39184 | 134° | 95km/h | 4426m | -4.4m/s | -8.3°C | 4.6% | 592.2hPa | 2.6V | 00:00:00 | 00:00:00 | 00:00:00 | |
| AM1SDL-15 | 2026-09-06 01:31:37 | 53.14719 | 12.39155 | 134° | 99km/h | 4430m | -4.0m/s | -8.3°C | 4.7% | 591.9hPa | 2.6V | 00:00:00 | 03:11:46 | 00:00:00 | |
| DO2SHX-10 | 2026-09-06 01:31:36 | 53.14735 | 12.39126 | 133° | 93km/h | 4434m | -4.4m/s | -8.3°C | 4.7% | 591.6hPa | 2.6V | 00:00:00 | 03:11:45 | 00:00:00 | |
| DO2SHX-10 | 2026-09-06 01:31:33 | 53.14781 | 12.39034 | 129° | 99km/h | 4446m | -3.8m/s | -8.4°C | 4.8% | 590.7hPa | 2.7V | 07:32:00 | 03:11:42 | 00:00:00 | |
| MECKS9 | 2026-09-06 01:31:32 | 53.14781 | 12.39034 | 130° | 97km/h | 4446m | -3.9m/s | -8.4°C | 4.6% | 590.8hPa | 2.7V | 00:00:00 | 00:00:00 | 00:00:00 | |
| S3001 | 2026-09-06 01:31:31 | 53.14812 | 12.38969 | 129° | 100km/h | 4454m | -3.8m/s | -8.4°C | 4.7% | 590.1hPa | 2.7V | 00:00:00 | 00:00:00 | 00:00:00 | |
| DF8AY | 2026-09-06 01:31:31 | 53.14829 | 12.38937 | 130° | 102km/h | 4458m | -4m/s | -8.5°C | 3.4% | 589.8hPa | 2.6V | 07:32:47 | 03:11:39 | 00:00:00 | |
| DO2SHX-10 | 2026-09-06 01:31:30 | 53.14829 | 12.38937 | 131° | 102km/h | 4458m | -4.0m/s | -8.4°C | 4.9% | 589.7hPa | 2.7V | 00:00:00 | 03:11:39 | 00:00:00 | |
| DM0DOS-11 | 2026-09-06 01:31:29 | 53.14897 | 12.38812 | 133° | 99km/h | 4474m | -4m/s | -8.5°C | 4.5% | 588.5hPa | 2.7V | 07:32:27 | 03:11:35 | 00:00:00 | |
| AA1-15 | 2026-09-06 01:31:28 | 53.14863 | 12.38873 | 133° | 100km/h | 4466m | -4m/s | -8.5°C | 3% | 589.2hPa | 2.7V | 07:32:47 | 03:11:37 | 00:00:00 | |
| DO2SHX-10 | 2026-09-06 01:31:27 | 53.14880 | 12.38842 | 134° | 99km/h | 4470m | -4.3m/s | -8.4°C | 4.7% | 588.9hPa | 2.7V | 00:00:00 | 03:11:36 | 00:00:00 | |
| DL1XH1-15 | 2026-09-06 01:31:25 | 53.14994 | 12.38623 | 129° | 104km/h | 4499m | -4m/s | -8.5°C | 3.7% | 586.7hPa | 2.6V | 07:32:33 | 03:11:29 | 00:00:00 | |
| DB0DAN | 2026-09-06 01:31:25 | 53.14914 | 12.38782 | 133° | 91km/h | 4478m | -4m/s | -8.5°C | 4% | 588.26hPa | 2.6V | 00:00:00 | 00:00:00 | 00:00:00 | |
| D01LWL | 2026-09-06 01:31:25 | 53.14930 | 12.38752 | 131° | 95km/h | 4482m | -4.3m/s | -8.5°C | 3.8% | 588.0hPa | 2.7V | 00:00:00 | 00:00:00 | 00:00:00 | |
| DO2SHX-10 | 2026-09-06 01:31:24 | 53.14930 | 12.38751 | 132° | 97km/h | 4482m | -4.2m/s | -8.4°C | 4.0% | 587.9hPa | 2.7V | 00:00:00 | 03:11:33 | 00:00:00 | |
| DO2SHX-10 | 2026-09-06 01:31:21 | 53.14978 | 12.38656 | 130° | 104km/h | 4495m | -4.2m/s | -8.4°C | 3.8% | 587.0hPa | 2.7V | 00:00:00 | 03:11:30 | 00:00:00 | |
| DL1XH1-15 | 2026-09-06 01:31:20 | 53.15082 | 12.38461 | 133° | 100km/h | 4520m | -4.3m/s | -8.5°C | 3.4% | 585.1hPa | 2.7V | 07:32:38 | 03:11:24 | 00:00:00 | |
| DF8AY | 2026-09-06 01:31:20 | 53.15011 | 12.38590 | 131° | 106km/h | 4503m | -4.4m/s | -8.5°C | 1.3% | 586.4hPa | 2.6V | 07:32:47 | 03:11:28 | 00:00:00 | |
| DL1XH-west | 2026-09-06 01:31:17 | 53.15047 | 12.38523 | 133° | 104km/h | 4512m | -4.2m/s | -8.5°C | 1.2% | 585.9hPa | 2.7V | 07:32:47 | 03:11:26 | 00:00:00 | |
| DL1XH1-15 | 2026-09-06 01:31:15 | 53.15164 | 12.38307 | 128° | 100km/h | 4541m | -4.1m/s | -8.5°C | 3.4% | 583.6hPa | 2.7V | 07:32:43 | 03:11:19 | 00:00:00 | |
| DO2SHX-10 | 2026-09-06 01:31:15 | 53.15082 | 12.38461 | 134° | 99km/h | 4520m | -4.2m/s | -8.4°C | 3.4% | 585.1hPa | 2.7V | 00:00:00 | 03:11:24 | 00:00:00 | |
| AM1SDL-15 | 2026-09-06 01:31:13 | 53.15116 | 12.38401 | 133° | 102km/h | 4529m | -4.0m/s | -8.4°C | 3.5% | 584.5hPa | 2.7V | 00:00:00 | 03:11:22 | 00:00:00 | |
| DO2SHX-10 | 2026-09-06 01:31:12 | 53.15132 | 12.38370 | 132° | 99km/h | 4533m | -4.3m/s | -8.5°C | 3.5% | 584.1hPa | 2.7V | 00:00:00 | 03:11:21 | 00:00:00 | |
| DB0DAN | 2026-09-06 01:31:10 | 53.15164 | 12.38307 | 129° | 95km/h | 4541m | -4.1m/s | -8.5°C | 3.2% | 583.64hPa | 2.7V | 00:00:00 | 00:00:00 | 00:00:00 | |
| DL1XH1-15 | 2026-09-06 01:31:10 | 53.15250 | 12.38140 | 133° | 108km/h | 4562m | -4.3m/s | -8.6°C | 3.3% | 582hPa | 2.7V | 07:32:48 | 03:11:14 | 00:00:00 | |
| DF8AY | 2026-09-06 01:31:10 | 53.15180 | 12.38274 | 129° | 102km/h | 4545m | -4.2m/s | -8.5°C | 1% | 583.3hPa | 2.7V | 07:32:47 | 03:11:18 | 00:00:00 | |
| DL1XH-west | 2026-09-06 01:31:07 | 53.15214 | 12.38207 | 131° | 106km/h | 4553m | -4.2m/s | -8.5°C | 0.8% | 582.6hPa | 2.6V | 07:32:47 | 03:11:16 | 00:00:00 | |
| DF8AY | 2026-09-06 01:30:58 | 53.15373 | 12.37922 | 130° | 100km/h | 4591m | -3.9m/s | -8.6°C | 0.5% | 579.8hPa | 2.7V | 07:33:38 | 03:11:07 | 00:00:00 | |
| AA1-15 | 2026-09-06 01:30:56 | 53.15405 | 12.37856 | 130° | 104km/h | 4599m | -4.3m/s | -8.7°C | 0.4% | 579.2hPa | 2.6V | 07:33:38 | 03:11:05 | 00:00:00 | |
| DB0DAN | 2026-09-06 01:30:55 | 53.15422 | 12.37822 | 131° | 102km/h | 4603m | -4.3m/s | -8.7°C | 2.9% | 578.85hPa | 2.7V | 00:00:00 | 00:00:00 | 00:00:00 | |
| D01LWL | 2026-09-06 01:30:54 | 53.15459 | 12.37755 | 133° | 108km/h | 4611m | -4.0m/s | -8.7°C | 2.8% | 578.3hPa | 2.6V | 00:00:00 | 00:00:00 | 00:00:00 | |
| DO2SHX-10 | 2026-09-06 01:30:51 | 53.15497 | 12.37690 | 136° | 104km/h | 4619m | -4.1m/s | -8.7°C | 3.0% | 577.6hPa | 2.6V | 00:00:00 | 03:11:00 | 00:00:00 | |
| DL1XH1-15 | 2026-09-06 01:30:50 | 53.15606 | 12.37506 | 131° | 102km/h | 4645m | -4m/s | -8.6°C | 2.9% | 575.8hPa | 2.6V | 07:33:08 | 03:10:54 | 00:00:00 | |
| DF8AY | 2026-09-06 01:30:47 | 53.15571 | 12.37568 | 134° | 100km/h | 4636m | -4.4m/s | -8.7°C | 0.1% | 576.4hPa | 2.7V | 07:33:38 | 03:10:56 | 00:00:00 | |
| DL1XH-west | 2026-09-06 01:30:46 | 53.15588 | 12.37537 | 133° | 100km/h | 4641m | -4.1m/s | -8.7°C | 0.2% | 576hPa | 2.6V | 07:33:38 | 03:10:55 | 00:00:00 | |
| AA1-15 | 2026-09-06 01:30:45 | 53.15606 | 12.37506 | 131° | 102km/h | 4645m | -4.1m/s | -8.6°C | 0.2% | 575.8hPa | 2.6V | 07:33:38 | 03:10:54 | 00:00:00 | |
| DO2SHX-10 | 2026-09-06 01:30:45 | 53.15606 | 12.37506 | 132° | 104km/h | 4645m | -4.0m/s | -8.6°C | 2.9% | 575.7hPa | 2.7V | 07:33:00 | 03:10:54 | 00:00:00 | |
| EDDB2-11 | 2026-09-06 01:30:44 | 53.15640 | 12.37439 | 130° | 106km/h | 4653m | -4.4m/s | -8.7°C | 2.7% | 575.1hPa | 2.7V | 00:00:00 | 00:00:00 | 00:00:00 | |
| DM0DOS-11 | 2026-09-06 01:30:41 | 53.15773 | 12.37201 | 135° | 110km/h | 4683m | -4.5m/s | -8.8°C | 3.1% | 573hPa | 2.7V | 07:33:17 | 03:10:45 | 00:00:00 | |
| DB0DAN | 2026-09-06 01:30:40 | 53.15695 | 12.37335 | 132° | 106km/h | 4666m | -4.6m/s | -8.7°C | 2.8% | 574.21hPa | 2.6V | 00:00:00 | 00:00:00 | 00:00:00 | |
| DL1XH1-15 | 2026-09-06 01:30:40 | 53.15793 | 12.37169 | 136° | 110km/h | 4687m | -4.4m/s | -8.8°C | 3.1% | 572.6hPa | 2.6V | 07:33:18 | 03:10:44 | 00:00:00 | |
| DL1XH-west | 2026-09-06 01:30:36 | 53.15773 | 12.37201 | 136° | 111km/h | 4683m | -4.5m/s | -8.8°C | 0.5% | 573hPa | 2.7V | 07:33:38 | 03:10:45 | 00:00:00 | |
| AA1-15 | 2026-09-06 01:30:34 | 53.15813 | 12.37138 | 137° | 108km/h | 4692m | -4.3m/s | -8.8°C | 0.6% | 572.4hPa | 2.6V | 07:33:38 | 03:10:43 | 00:00:00 | |
| DO2SHX-10 | 2026-09-06 01:30:33 | 53.15832 | 12.37107 | 137° | 104km/h | 4696m | -4.5m/s | -8.8°C | 3.2% | 572.0hPa | 2.7V | 00:00:00 | 03:10:42 | 00:00:00 | |
| DO2SHX-10 | 2026-09-06 01:30:30 | 53.15888 | 12.37014 | 133° | 106km/h | 4709m | -4.3m/s | -8.9°C | 3.2% | 571.0hPa | 2.7V | 00:00:00 | 03:10:39 | 00:00:00 | |
| S3001 | 2026-09-06 01:30:29 | 53.15906 | 12.36982 | 131° | 104km/h | 4713m | -4.2m/s | -9.0°C | 3.0% | 570.7hPa | 2.7V | 00:00:00 | 00:00:00 | 00:00:00 | |
| DM0DOS-11 | 2026-09-06 01:30:28 | 53.15961 | 12.36879 | 132° | 111km/h | 4725m | -4.3m/s | -9.1°C | 3.3% | 569.8hPa | 2.7V | 07:33:27 | 03:10:35 | 00:00:00 | |
| DF8AY | 2026-09-06 01:30:26 | 53.15961 | 12.36879 | 132° | 111km/h | 4725m | -4.4m/s | -9.1°C | 0.9% | 569.8hPa | 2.7V | 07:33:38 | 03:10:35 | 00:00:00 | |
| DB0DAN | 2026-09-06 01:30:25 | 53.15980 | 12.36844 | 133° | 108km/h | 4730m | -4.3m/s | -9.1°C | 3.1% | 569.53hPa | 2.7V | 00:00:00 | 00:00:00 | 00:00:00 | |
| DL1XH-west | 2026-09-06 01:30:25 | 53.15980 | 12.36844 | 133° | 113km/h | 4730m | -4.3m/s | -9.1°C | 1% | 569.5hPa | 2.7V | 07:33:38 | 03:10:34 | 00:00:00 | |
| DL1XH1-15 | 2026-09-06 01:30:25 | 53.15980 | 12.36844 | 133° | 113km/h | 4730m | -4.3m/s | -9.1°C | 3.3% | 569.5hPa | 2.7V | 07:33:28 | 03:10:34 | 00:00:00 | |
| AA1-15 | 2026-09-06 01:30:24 | 53.16000 | 12.36810 | 134° | 113km/h | 4734m | -4.5m/s | -9.1°C | 1% | 569.1hPa | 2.6V | 07:33:38 | 03:10:33 | 00:00:00 | |
| DO2SHX-10 | 2026-09-06 01:30:24 | 53.16000 | 12.36810 | 135° | 113km/h | 4734m | -4.5m/s | -9.1°C | 3.3% | 569.1hPa | 2.6V | 00:00:00 | 03:10:33 | 00:00:00 | |
| DM0DOS-11 | 2026-09-06 01:30:21 | 53.16061 | 12.36712 | 136° | 110km/h | 4747m | -4.5m/s | -9.2°C | 3.4% | 568.1hPa | 2.7V | 07:33:32 | 03:10:30 | 00:00:00 | |
| DM0DOS-11 | 2026-09-06 01:30:21 | 53.16173 | 12.36518 | 131° | 110km/h | 4773m | -4.5m/s | -9.4°C | 3.4% | 566.3hPa | 2.7V | 07:33:38 | 03:10:24 | 00:00:00 | |
| DO2SHX-10 | 2026-09-06 01:30:21 | 53.16061 | 12.36712 | 137° | 108km/h | 4747m | -4.4m/s | -9.2°C | 3.4% | 568.1hPa | 2.7V | 07:33:00 | 03:10:30 | 00:00:00 | |
| DO2SHX-10 | 2026-09-06 01:30:18 | 53.16119 | 12.36618 | 135° | 106km/h | 4760m | -4.5m/s | -9.3°C | 3.4% | 567.3hPa | 2.7V | 00:00:00 | 03:10:27 | 00:00:00 | |
| DL1XH1-15 | 2026-09-06 01:30:16 | 53.16173 | 12.36518 | 131° | 110km/h | 4773m | -4.5m/s | -9.4°C | 3.4% | 566.3hPa | 2.7V | 07:33:38 | 03:10:24 | 00:00:00 | |
| DL1XH1-15 | 2026-09-06 01:30:16 | 53.16272 | 12.36342 | 135° | 117km/h | 4795m | -4.3m/s | -9.4°C | 3.6% | 564.7hPa | 2.7V | 07:33:43 | 03:10:19 | 00:00:00 | |
| DF8AY | 2026-09-06 01:30:15 | 53.16173 | 12.36518 | 132° | 110km/h | 4774m | -4.5m/s | -9.4°C | 1.1% | 566.3hPa | 2.7V | 07:33:38 | 03:10:24 | 00:00:00 | |
| DL1XH-west | 2026-09-06 01:30:14 | 53.16192 | 12.36483 | 132° | 113km/h | 4778m | -4.4m/s | -9.4°C | 1.2% | 565.9hPa | 2.7V | 07:34:29 | 03:10:23 | 00:00:00 | |
| AA1-15 | 2026-09-06 01:30:13 | 53.16211 | 12.36448 | 133° | 115km/h | 4783m | -4.3m/s | -9.3°C | 1.3% | 565.7hPa | 2.6V | 07:34:29 | 03:10:22 | 00:00:00 | |
| EDDB2-11 | 2026-09-06 01:30:13 | 53.16231 | 12.36412 | 133° | 115km/h | 4787m | -4.2m/s | -9.3°C | 3.3% | 565.4hPa | 2.7V | 00:00:00 | 00:00:00 | 00:00:00 | |
| DO2SHX-10 | 2026-09-06 01:30:12 | 53.16231 | 12.36412 | 134° | 117km/h | 4787m | -4.2m/s | -9.3°C | 3.6% | 565.3hPa | 2.7V | 00:00:00 | 03:10:21 | 00:00:00 | |
| DB0DAN | 2026-09-06 01:30:10 | 53.16273 | 12.36342 | 135° | 111km/h | 4795m | -4.3m/s | -9.4°C | 3.4% | 564.73hPa | 2.7V | 00:00:00 | 00:00:00 | 00:00:00 | |
| DO2SHX-10 | 2026-09-06 01:30:09 | 53.16293 | 12.36308 | 137° | 113km/h | 4800m | -4.1m/s | -9.4°C | 3.6% | 564.3hPa | 2.7V | 00:00:00 | 03:10:18 | 00:00:00 | |
| DM0DOS-11 | 2026-09-06 01:30:08 | 53.16376 | 12.36180 | 136° | 110km/h | 4816m | -4.3m/s | -9.5°C | 3.7% | 563.1hPa | 2.7V | 07:33:48 | 03:10:14 | 00:00:00 | |
| DF8AY | 2026-09-06 01:30:04 | 53.16396 | 12.36148 | 135° | 108km/h | 4820m | -4.2m/s | -9.6°C | 1.6% | 562.8hPa | 2.7V | 07:34:29 | 03:10:13 | 00:00:00 | |
| DL1XH-west | 2026-09-06 01:30:03 | 53.16415 | 12.36116 | 134° | 108km/h | 4825m | -4.2m/s | -9.6°C | 1.7% | 562.5hPa | 2.7V | 07:34:29 | 03:10:12 | 00:00:00 | |
| DM0DOS-11 | 2026-09-06 01:30:02 | 53.16473 | 12.36014 | 133° | 113km/h | 4837m | -4.4m/s | -9.7°C | 3.8% | 561.5hPa | 2.7V | 07:33:53 | 03:10:09 | 00:00:00 | |
| AA1-15 | 2026-09-06 01:30:02 | 53.16434 | 12.36083 | 133° | 110km/h | 4829m | -4.2m/s | -9.6°C | 1.7% | 562.2hPa | 2.6V | 07:34:29 | 03:10:11 | 00:00:00 | |
| S3001 | 2026-09-06 01:29:58 | 53.16514 | 12.35946 | 135° | 113km/h | 4846m | -3.9m/s | -9.8°C | 3.6% | 560.9hPa | 2.7V | 00:00:00 | 00:00:00 | 00:00:00 | |
| DO2SHX-10 | 2026-09-06 01:29:57 | 53.16535 | 12.35912 | 137° | 111km/h | 4850m | -4.2m/s | -9.8°C | 3.8% | 560.6hPa | 2.7V | 07:33:00 | 03:10:06 | 00:00:00 | |
| DM0DOS-11 | 2026-09-06 01:29:55 | 53.16576 | 12.35848 | 137° | 110km/h | 4859m | -4.2m/s | -9.9°C | 3.8% | 560.1hPa | 2.6V | 07:33:58 | 03:10:04 | 00:00:00 | |
| DM0DOS-11 | 2026-09-06 01:29:55 | 53.16674 | 12.35686 | 133° | 113km/h | 4880m | -4.6m/s | -10.1°C | 3.9% | 558.4hPa | 2.6V | 07:34:03 | 03:09:59 | 00:00:00 | |
| DB0DAN | 2026-09-06 01:29:55 | 53.16576 | 12.35848 | 137° | 104km/h | 4859m | -4.2m/s | -9.9°C | 3.6% | 560.07hPa | 2.6V | 00:00:00 | 00:00:00 | 00:00:00 | |
| DL1XH-west | 2026-09-06 01:29:53 | 53.16616 | 12.35785 | 135° | 108km/h | 4867m | -4.4m/s | -10°C | 1.9% | 559.3hPa | 2.7V | 07:34:29 | 03:10:02 | 00:00:00 | |
| DL1XH1-15 | 2026-09-06 01:29:52 | 53.16736 | 12.35583 | 136° | 117km/h | 4894m | -4.4m/s | -10.2°C | 3.9% | 557.4hPa | 2.7V | 07:34:06 | 03:09:56 | 00:00:00 | |
| AA1-15 | 2026-09-06 01:29:51 | 53.16655 | 12.35720 | 134° | 110km/h | 4876m | -4.5m/s | -10°C | 2% | 558.8hPa | 2.6V | 07:34:29 | 03:10:00 | 00:00:00 | |
| DO2SHX-10 | 2026-09-06 01:29:51 | 53.16655 | 12.35720 | 134° | 113km/h | 4876m | -4.4m/s | -10.0°C | 3.9% | 558.7hPa | 2.6V | 00:00:00 | 03:10:00 | 00:00:00 | |
| DM0DOS-11 | 2026-09-06 01:29:50 | 53.16779 | 12.35517 | 138° | 113km/h | 4902m | -4.2m/s | -10.2°C | 4% | 556.8hPa | 2.6V | 07:34:08 | 03:09:54 | 00:00:00 | |
| AM1SDL-15 | 2026-09-06 01:29:49 | 53.16694 | 12.35652 | 135° | 115km/h | 4885m | -4.4m/s | -10.0°C | 3.9% | 558.0hPa | 2.7V | 00:00:00 | 03:09:58 | 00:00:00 | |
| DO2SHX-10 | 2026-09-06 01:29:48 | 53.16715 | 12.35617 | 136° | 117km/h | 4890m | -4.3m/s | -10.1°C | 3.9% | 557.7hPa | 2.7V | 00:00:00 | 03:09:57 | 00:00:00 | |
| DL1XH1-15 | 2026-09-06 01:29:47 | 53.16842 | 12.35422 | 136° | 111km/h | 4916m | -4.3m/s | -10.4°C | 4% | 555.9hPa | 2.7V | 07:34:11 | 03:09:51 | 00:00:00 | |
| DM0DOS-11 | 2026-09-06 01:29:45 | 53.16882 | 12.35357 | 134° | 113km/h | 4923m | -4m/s | -10.4°C | 4% | 555.2hPa | 2.6V | 07:34:13 | 03:09:49 | 00:00:00 | |
| DL1XH-west | 2026-09-06 01:29:43 | 53.16821 | 12.35454 | 138° | 111km/h | 4912m | -4.2m/s | -10.3°C | 2.1% | 556.2hPa | 2.7V | 07:34:29 | 03:09:52 | 00:00:00 | |
| AA1-15 | 2026-09-06 01:29:41 | 53.16862 | 12.35390 | 135° | 111km/h | 4920m | -3.8m/s | -10.4°C | 2.2% | 555.6hPa | 2.7V | 07:34:29 | 03:09:50 | 00:00:00 | |
| DB0DAN | 2026-09-06 01:29:40 | 53.16882 | 12.35356 | 135° | 108km/h | 4923m | -4m/s | -10.5°C | 3.8% | 555.23hPa | 2.6V | 00:00:00 | 00:00:00 | 00:00:00 | |
| DO2SHX-10 | 2026-09-06 01:29:39 | 53.16902 | 12.35322 | 135° | 117km/h | 4928m | -4.5m/s | -10.4°C | 4.1% | 554.9hPa | 2.6V | 00:00:00 | 03:09:48 | 00:00:00 | |
| DM0DOS-11 | 2026-09-06 01:29:38 | 53.16987 | 12.35184 | 136° | 117km/h | 4945m | -4.5m/s | -10.6°C | 4.1% | 553.6hPa | 2.6V | 07:34:18 | 03:09:44 | 00:00:00 | |
| DF8AY | 2026-09-06 01:29:33 | 53.17030 | 12.35117 | 137° | 113km/h | 4955m | -4.2m/s | -10.7°C | 2.3% | 553.1hPa | 2.7V | 07:34:29 | 03:09:42 | 00:00:00 | |
| DO2SHX-10 | 2026-09-06 01:29:33 | 53.17030 | 12.35117 | 137° | 113km/h | 4955m | -4.2m/s | -10.7°C | 4.1% | 553.1hPa | 2.6V | 07:34:00 | 03:09:42 | 00:00:00 | |
| DM0DOS-11 | 2026-09-06 01:29:32 | 53.17091 | 12.35018 | 133° | 111km/h | 4967m | -4.2m/s | -10.8°C | 4.1% | 552.1hPa | 2.6V | 07:34:23 | 03:09:39 | 00:00:00 | |
| DL1XH1-15 | 2026-09-06 01:29:32 | 53.17051 | 12.35084 | 136° | 113km/h | 4959m | -4.3m/s | -10.8°C | 4.1% | 552.7hPa | 2.7V | 07:34:21 | 03:09:41 | 00:00:00 | |
| DL1XH-west | 2026-09-06 01:29:32 | 53.17051 | 12.35084 | 136° | 113km/h | 4959m | -4.3m/s | -10.8°C | 2.3% | 552.7hPa | 2.7V | 07:34:29 | 03:09:41 | 00:00:00 | |
| AA1-15 | 2026-09-06 01:29:30 | 53.17091 | 12.35018 | 134° | 111km/h | 4967m | -4.3m/s | -10.8°C | 2.3% | 552.1hPa | 2.6V | 07:34:29 | 03:09:39 | 00:00:00 | |
| DO2SHX-10 | 2026-09-06 01:29:30 | 53.17091 | 12.35018 | 134° | 113km/h | 4968m | -4.2m/s | -10.8°C | 4.1% | 552.0hPa | 2.6V | 00:00:00 | 03:09:39 | 00:00:00 | |
| DL1XH1-15 | 2026-09-06 01:29:27 | 53.17260 | 12.34733 | 137° | 120km/h | 5003m | -4.5m/s | -11°C | 4% | 549.6hPa | 2.6V | 07:34:31 | 03:09:31 | 00:00:00 | |
| DO2SHX-10 | 2026-09-06 01:29:27 | 53.17151 | 12.34912 | 134° | 120km/h | 4981m | -4.0m/s | -10.9°C | 4.2% | 551.1hPa | 2.6V | 00:00:00 | 03:09:36 | 00:00:00 | |
| DB0DAN | 2026-09-06 01:29:25 | 53.17193 | 12.34839 | 135° | 115km/h | 4989m | -4.4m/s | -11°C | 3.9% | 550.5hPa | 2.6V | 00:00:00 | 00:00:00 | 00:00:00 | |
| DM0DOS-11 | 2026-09-06 01:29:25 | 53.17193 | 12.34839 | 134° | 120km/h | 4989m | -4.4m/s | -10.9°C | 4.2% | 550.5hPa | 2.6V | 07:34:28 | 03:09:34 | 00:00:00 | |
| DM0DOS-11 | 2026-09-06 01:29:25 | 53.17303 | 12.34666 | 137° | 115km/h | 5012m | -4.2m/s | -11°C | 4% | 548.9hPa | 2.7V | 07:34:33 | 03:09:29 | 00:00:00 | |
| DF8AY | 2026-09-06 01:29:22 | 53.17259 | 12.34733 | 137° | 120km/h | 5003m | -4.5m/s | -11°C | 2.1% | 549.6hPa | 2.6V | 07:35:20 | 03:09:31 | 00:00:00 | |
| DL1XH-west | 2026-09-06 01:29:21 | 53.17282 | 12.34699 | 138° | 119km/h | 5007m | -4.4m/s | -11°C | 2% | 549.3hPa | 2.6V | 07:35:20 | 03:09:30 | 00:00:00 | |
| AA1-15 | 2026-09-06 01:29:20 | 53.17304 | 12.34666 | 138° | 115km/h | 5012m | -4.2m/s | -11°C | 2.1% | 548.9hPa | 2.7V | 07:35:20 | 03:09:29 | 00:00:00 | |
| MECKS9 | 2026-09-06 01:29:19 | 53.17303 | 12.34666 | 139° | 115km/h | 5012m | -4.2m/s | -11.0°C | 3.7% | 548.9hPa | 2.7V | 07:35:00 | 00:00:00 | 00:00:00 | |
| DO2SHX-10 | 2026-09-06 01:29:18 | 53.17345 | 12.34601 | 137° | 111km/h | 5021m | -4.7m/s | -11.1°C | 3.9% | 548.3hPa | 2.7V | 00:00:00 | 03:09:27 | 00:00:00 | |
| DL1XH1-15 | 2026-09-06 01:29:17 | 53.17466 | 12.34390 | 133° | 120km/h | 5047m | -4.3m/s | -11.4°C | 3.9% | 546.5hPa | 2.7V | 07:34:41 | 03:09:21 | 00:00:00 | |
| SONDE2-11 | 2026-09-06 01:29:16 | 53.17385 | 12.34534 | 133° | 111km/h | 5030m | -4.2m/s | -11.2°C | 3.7% | 547.8hPa | 2.6V | 00:00:00 | 00:00:00 | 00:00:00 | |
| DO2SHX-10 | 2026-09-06 01:29:15 | 53.17405 | 12.34499 | 134° | 117km/h | 5034m | -4.1m/s | -11.2°C | 4.0% | 547.3hPa | 2.6V | 00:00:00 | 03:09:24 | 00:00:00 | |
| DM0DOS-11 | 2026-09-06 01:29:12 | 53.17509 | 12.34315 | 134° | 124km/h | 5056m | -4.8m/s | -11.4°C | 3.9% | 545.9hPa | 2.6V | 07:34:43 | 03:09:19 | 00:00:00 | |
| DL1XH-west | 2026-09-06 01:29:11 | 53.17487 | 12.34352 | 134° | 122km/h | 5052m | -4.2m/s | -11.4°C | 2% | 546.2hPa | 2.7V | 07:35:20 | 03:09:20 | 00:00:00 | |
| DB0DAN | 2026-09-06 01:29:10 | 53.17509 | 12.34315 | 134° | 119km/h | 5056m | -4.8m/s | -11.5°C | 3.6% | 545.92hPa | 2.6V | 00:00:00 | 00:00:00 | 00:00:00 | |
| AA1-15 | 2026-09-06 01:29:10 | 53.17509 | 12.34315 | 134° | 124km/h | 5056m | -4.8m/s | -11.5°C | 1.9% | 545.9hPa | 2.6V | 07:35:20 | 03:09:19 | 00:00:00 | |
| DO2SHX-10 | 2026-09-06 01:29:09 | 53.17531 | 12.34278 | 136° | 124km/h | 5061m | -4.5m/s | -11.4°C | 3.7% | 545.5hPa | 2.6V | 07:34:00 | 03:09:18 | 00:00:00 | |
| MECKS9 | 2026-09-06 01:29:08 | 53.17531 | 12.34278 | 136° | 126km/h | 5061m | -4.6m/s | -11.5°C | 3.5% | 545.6hPa | 2.6V | 07:35:00 | 00:00:00 | 00:00:00 | |
| DL1XH1-15 | 2026-09-06 01:29:07 | 53.17685 | 12.34032 | 133° | 119km/h | 5090m | -4m/s | -11.7°C | 3.5% | 543.4hPa | 2.6V | 07:34:51 | 03:09:11 | 00:00:00 | |
| DO2SHX-10 | 2026-09-06 01:29:06 | 53.17599 | 12.34170 | 138° | 120km/h | 5074m | -4.1m/s | -11.5°C | 3.6% | 544.6hPa | 2.6V | 00:00:00 | 03:09:15 | 00:00:00 | |
| DM0DOS-11 | 2026-09-06 01:29:05 | 53.17727 | 12.33959 | 132° | 120km/h | 5099m | -4m/s | -11.8°C | 3.4% | 542.8hPa | 2.6V | 07:34:53 | 03:09:09 | 00:00:00 | |
| DL1XH-west | 2026-09-06 01:29:01 | 53.17706 | 12.33996 | 133° | 119km/h | 5095m | -4.4m/s | -11.8°C | 1.4% | 543hPa | 2.7V | 07:35:20 | 03:09:10 | 00:00:00 | |
| AA1-15 | 2026-09-06 01:28:59 | 53.17747 | 12.33921 | 132° | 124km/h | 5103m | -4.1m/s | -11.8°C | 1.2% | 542.5hPa | 2.6V | 07:35:20 | 03:09:08 | 00:00:00 | |
| DL1XH1-15 | 2026-09-06 01:28:57 | 53.17905 | 12.33657 | 136° | 122km/h | 5133m | -4.1m/s | -11.9°C | 3.3% | 540.3hPa | 2.6V | 07:35:01 | 03:09:01 | 00:00:00 | |
| S3001 | 2026-09-06 01:28:56 | 53.17813 | 12.33805 | 134° | 126km/h | 5115m | -4.2m/s | -11.9°C | 3.1% | 541.6hPa | 2.6V | 00:00:00 | 00:00:00 | 00:00:00 | |
| DB0DAN | 2026-09-06 01:28:55 | 53.17836 | 12.33767 | 136° | 122km/h | 5119m | -4.6m/s | -11.9°C | 3.2% | 541.27hPa | 2.6V | 00:00:00 | 00:00:00 | 00:00:00 | |
| DO2SHX-10 | 2026-09-06 01:28:54 | 53.17859 | 12.33730 | 137° | 124km/h | 5124m | -4.4m/s | -11.9°C | 3.4% | 540.9hPa | 2.6V | 00:00:00 | 03:09:03 | 00:00:00 | |
| DM0DOS-11 | 2026-09-06 01:28:52 | 53.17948 | 12.33586 | 134° | 120km/h | 5141m | -4.3m/s | -11.9°C | 3.2% | 539.6hPa | 2.6V | 07:35:03 | 03:08:59 | 00:00:00 | |
| DF8AY | 2026-09-06 01:28:51 | 53.17927 | 12.33622 | 136° | 120km/h | 5137m | -4.5m/s | -11.9°C | 0.8% | 540hPa | 2.6V | 07:35:20 | 03:09:00 | 00:00:00 | |
| DL1XH-west | 2026-09-06 01:28:50 | 53.17948 | 12.33586 | 134° | 120km/h | 5141m | -4.3m/s | -11.9°C | 0.8% | 539.7hPa | 2.6V | 07:35:20 | 03:08:59 | 00:00:00 | |
| AA1-15 | 2026-09-06 01:28:48 | 53.17990 | 12.33511 | 132° | 122km/h | 5150m | -4.3m/s | -11.9°C | 0.8% | 539.1hPa | 2.6V | 07:35:20 | 03:08:57 | 00:00:00 | |
| DO2SHX-10 | 2026-09-06 01:28:48 | 53.17990 | 12.33511 | 133° | 124km/h | 5150m | -4.3m/s | -11.9°C | 3.1% | 539.1hPa | 2.6V | 00:00:00 | 03:08:57 | 00:00:00 | |
| DM0DOS-11 | 2026-09-06 01:28:45 | 53.18170 | 12.33198 | 136° | 128km/h | 5185m | -4.5m/s | -12.2°C | 3.3% | 536.7hPa | 2.6V | 07:35:13 | 03:08:49 | 00:00:00 | |
| DO2SHX-10 | 2026-09-06 01:28:45 | 53.18054 | 12.33394 | 133° | 130km/h | 5163m | -4.2m/s | -12.0°C | 3.1% | 538.2hPa | 2.6V | 07:35:00 | 03:08:54 | 00:00:00 | |
| DO2SHX-10 | 2026-09-06 01:28:42 | 53.18122 | 12.33275 | 136° | 130km/h | 5177m | -4.5m/s | -12.1°C | 3.2% | 537.3hPa | 2.6V | 00:00:00 | 03:08:51 | 00:00:00 | |
| DB0DAN | 2026-09-06 01:28:40 | 53.18170 | 12.33198 | 136° | 122km/h | 5185m | -4.5m/s | -12.2°C | 3% | 536.73hPa | 2.6V | 00:00:00 | 00:00:00 | 00:00:00 | |
| DL1XH-west | 2026-09-06 01:28:40 | 53.18170 | 12.33198 | 137° | 128km/h | 5185m | -4.5m/s | -12.2°C | 1% | 536.7hPa | 2.6V | 07:35:20 | 03:08:49 | 00:00:00 | |
| AA1-15 | 2026-09-06 01:28:37 | 53.18238 | 12.33089 | 136° | 122km/h | 5198m | -4.4m/s | -12.3°C | 1.7% | 535.9hPa | 2.6V | 07:35:20 | 03:08:46 | 00:00:00 | |
| DO2SHX-10 | 2026-09-06 01:28:36 | 53.18260 | 12.33052 | 135° | 124km/h | 5202m | -4.1m/s | -12.2°C | 3.9% | 535.5hPa | 2.6V | 00:00:00 | 03:08:45 | 00:00:00 | |
| AM1SDL-15 | 2026-09-06 01:28:35 | 53.18282 | 12.33014 | 134° | 130km/h | 5207m | -3.9m/s | -12.3°C | 4.0% | 535.2hPa | 2.6V | 00:00:00 | 03:08:44 | 00:00:00 | |
| MECKS9 | 2026-09-06 01:28:34 | 53.18282 | 12.33014 | 134° | 124km/h | 5207m | -4.0m/s | -12.3°C | 3.7% | 535.2hPa | 2.6V | 07:35:00 | 00:00:00 | 00:00:00 | |
| DO2SHX-10 | 2026-09-06 01:28:33 | 53.18325 | 12.32936 | 133° | 131km/h | 5215m | -4.3m/s | -12.3°C | 4.2% | 534.6hPa | 2.6V | 00:00:00 | 03:08:42 | 00:00:00 | |
| DM0DOS-11 | 2026-09-06 01:28:32 | 53.18394 | 12.32816 | 134° | 133km/h | 5227m | -4m/s | -12.5°C | 4.5% | 533.7hPa | 2.6V | 07:35:23 | 03:08:39 | 00:00:00 | |
| DL1XH-west | 2026-09-06 01:28:29 | 53.18418 | 12.32776 | 136° | 133km/h | 5231m | -4.1m/s | -12.6°C | 3% | 533.4hPa | 2.5V | 07:36:11 | 03:08:38 | 00:00:00 | |
| DF8AY | 2026-09-06 01:28:28 | 53.18442 | 12.32738 | 137° | 131km/h | 5236m | -4.4m/s | -12.6°C | 3.1% | 533.1hPa | 2.6V | 07:36:11 | 03:08:37 | 00:00:00 | |
| DL1XH1-15 | 2026-09-06 01:28:27 | 53.18579 | 12.32515 | 132° | 124km/h | 5261m | -4m/s | -12.6°C | 4.1% | 531.4hPa | 2.5V | 07:35:31 | 03:08:31 | 00:00:00 | |
| AA1-15 | 2026-09-06 01:28:26 | 53.18490 | 12.32663 | 137° | 128km/h | 5243m | -3.8m/s | -12.6°C | 3.8% | 532.5hPa | 2.6V | 07:36:11 | 03:08:35 | 00:00:00 | |
| DM0DOS-11 | 2026-09-06 01:28:25 | 53.18622 | 12.32435 | 131° | 130km/h | 5269m | -4.4m/s | -12.6°C | 3.8% | 530.8hPa | 2.6V | 07:35:33 | 03:08:29 | 00:00:00 | |
| S3001 | 2026-09-06 01:28:25 | 53.18514 | 12.32627 | 136° | 124km/h | 5248m | -4.8m/s | -12.6°C | 4.4% | 532.3hPa | 2.5V | 00:00:00 | 00:00:00 | 00:00:00 | |
| DO2SHX-10 | 2026-09-06 01:28:24 | 53.18536 | 12.32590 | 136° | 124km/h | 5252m | -4.1m/s | -12.5°C | 4.5% | 532.0hPa | 2.5V | 00:00:00 | 03:08:33 | 00:00:00 | |
| AM1SDL-15 | 2026-09-06 01:28:23 | 53.18558 | 12.32553 | 134° | 130km/h | 5257m | -4.3m/s | -12.5°C | 4.4% | 531.6hPa | 2.5V | 00:00:00 | 03:08:32 | 00:00:00 | |
| DL1XH-15 | 2026-09-06 01:28:21 | 53.18690 | 12.32312 | 133° | 133km/h | 5282m | -4.1m/s | -12.6°C | 3.7% | 530hPa | 2.6V | 07:35:36 | 03:08:26 | 00:00:00 | |
| DL1XH-west | 2026-09-06 01:28:19 | 53.18645 | 12.32394 | 132° | 131km/h | 5274m | -4.3m/s | -12.6°C | 1.8% | 530.5hPa | 2.6V | 07:36:11 | 03:08:28 | 00:00:00 | |
| DF8AY | 2026-09-06 01:28:17 | 53.18691 | 12.32312 | 134° | 135km/h | 5282m | -4.1m/s | -12.6°C | 1.7% | 530hPa | 2.6V | 07:36:11 | 03:08:26 | 00:00:00 | |
| AA1-15 | 2026-09-06 01:28:16 | 53.18714 | 12.32272 | 135° | 133km/h | 5286m | -4.1m/s | -12.7°C | 1.3% | 529.8hPa | 2.5V | 07:36:11 | 03:08:25 | 00:00:00 | |
| DO2SHX-10 | 2026-09-06 01:28:15 | 53.18738 | 12.32232 | 137° | 130km/h | 5290m | -4.0m/s | -12.6°C | 3.2% | 529.4hPa | 2.6V | 00:00:00 | 03:08:24 | 00:00:00 | |
| SONDE2-11 | 2026-09-06 01:28:14 | 53.18762 | 12.32195 | 136° | 130km/h | 5294m | -3.8m/s | -12.6°C | 2.7% | 529.2hPa | 2.6V | 00:00:00 | 00:00:00 | 00:00:00 | |
| DM0DOS-11 | 2026-09-06 01:28:12 | 53.18855 | 12.32046 | 134° | 126km/h | 5310m | -4m/s | -12.7°C | 3.6% | 528hPa | 2.6V | 07:35:43 | 03:08:19 | 00:00:00 | |
| DF8AY | 2026-09-06 01:28:12 | 53.18923 | 12.31927 | 133° | 133km/h | 5322m | -4m/s | -12.7°C | 2.3% | 527.2hPa | 2.6V | 07:36:11 | 03:08:16 | 00:00:00 | |
| DO2SHX-10 | 2026-09-06 01:28:12 | 53.18809 | 12.32121 | 137° | 126km/h | 5302m | -4.3m/s | -12.6°C | 3.2% | 528.6hPa | 2.6V | 00:00:00 | 03:08:21 | 00:00:00 | |
| DB0DAN | 2026-09-06 01:28:10 | 53.18855 | 12.32046 | 135° | 120km/h | 5310m | -4m/s | -12.7°C | 3.3% | 528.05hPa | 2.6V | 00:00:00 | 00:00:00 | 00:00:00 | |
| DL1XH-west | 2026-09-06 01:28:09 | 53.18877 | 12.32008 | 133° | 128km/h | 5314m | -3.8m/s | -12.7°C | 2% | 527.7hPa | 2.6V | 07:36:11 | 03:08:18 | 00:00:00 | |
| DO2SHX-10 | 2026-09-06 01:28:09 | 53.18877 | 12.32008 | 134° | 131km/h | 5314m | -3.8m/s | -12.6°C | 3.9% | 527.6hPa | 2.6V | 00:00:00 | 03:08:18 | 00:00:00 | |
| DL1XH-15 | 2026-09-06 01:28:08 | 53.19016 | 12.31761 | 133° | 135km/h | 5337m | -4.2m/s | -12.7°C | 3% | 526hPa | 2.6V | 07:35:50 | 03:08:12 | 00:00:00 | |
| AA1-15 | 2026-09-06 01:28:05 | 53.18969 | 12.31844 | 133° | 137km/h | 5329m | -4.2m/s | -12.7°C | 2.1% | 526.6hPa | 2.5V | 07:36:11 | 03:08:14 | 00:00:00 | |
| DL1XH-west | 2026-09-06 01:27:58 | 53.19129 | 12.31564 | 133° | 126km/h | 5358m | -4.3m/s | -12.6°C | 0.5% | 524.6hPa | 2.6V | 07:36:11 | 03:08:07 | 00:00:00 | |
| DL1XH1-15 | 2026-09-06 01:27:57 | 53.19261 | 12.31323 | 131° | 133km/h | 5382m | -4m/s | -12.7°C | 4.3% | 523.1hPa | 2.6V | 07:36:01 | 03:08:01 | 00:00:00 | |
| DF8AY | 2026-09-06 01:27:56 | 53.19173 | 12.31486 | 133° | 128km/h | 5366m | -4.2m/s | -12.6°C | 0.9% | 524.1hPa | 2.5V | 07:36:11 | 03:08:05 | 00:00:00 | |
| DM0DOS-11 | 2026-09-06 01:27:55 | 53.19307 | 12.31239 | 132° | 135km/h | 5391m | -3.8m/s | -12.7°C | 4.7% | 522.4hPa | 2.6V | 07:36:03 | 03:07:59 | 00:00:00 | |
| DB0DAN | 2026-09-06 01:27:55 | 53.19195 | 12.31446 | 132° | 122km/h | 5371m | -4.4m/s | -12.6°C | 3.1% | 523.9hPa | 2.5V | 00:00:00 | 00:00:00 | 00:00:00 | |
| AA1-15 | 2026-09-06 01:27:55 | 53.19195 | 12.31446 | 132° | 130km/h | 5371m | -4.4m/s | -12.6°C | 1.4% | 523.9hPa | 2.5V | 07:36:11 | 03:08:04 | 00:00:00 | |
| DL1XH-west | 2026-09-06 01:27:48 | 53.19354 | 12.31155 | 134° | 137km/h | 5398m | -3.7m/s | -12.8°C | 4.1% | 521.9hPa | 2.6V | 07:36:11 | 03:07:57 | 00:00:00 | |
| DO2SHX-10 | 2026-09-06 01:27:48 | 53.19354 | 12.31155 | 134° | 137km/h | 5398m | -3.7m/s | -12.8°C | 5.2% | 521.9hPa | 2.6V | 00:00:00 | 03:07:57 | 00:00:00 | |
| DL1XH1-15 | 2026-09-06 01:27:47 | 53.19503 | 12.30910 | 136° | 135km/h | 5421m | -4.1m/s | -13°C | 5.9% | 520.4hPa | 2.6V | 07:36:11 | 03:07:51 | 00:00:00 | |
| DF8AY | 2026-09-06 01:27:46 | 53.19403 | 12.31072 | 135° | 139km/h | 5406m | -3.6m/s | -12.9°C | 5% | 521.4hPa | 2.5V | 07:36:11 | 03:07:55 | 00:00:00 | |
| DM0DOS-11 | 2026-09-06 01:27:45 | 53.19552 | 12.30832 | 135° | 133km/h | 5429m | -3.8m/s | -13.1°C | 6.2% | 519.8hPa | 2.5V | 07:36:13 | 03:07:49 | 00:00:00 | |
| AA1-15 | 2026-09-06 01:27:44 | 53.19453 | 12.30990 | 136° | 137km/h | 5413m | -3.7m/s | -12.9°C | 4.5% | 520.8hPa | 2.6V | 07:36:11 | 03:07:53 | 00:00:00 | |
| SONDE2-11 | 2026-09-06 01:27:43 | 53.19478 | 12.30950 | 136° | 135km/h | 5417m | -3.9m/s | -13.0°C | 5.2% | 520.5hPa | 2.6V | 00:00:00 | 00:00:00 | 00:00:00 | |
| DO2SHX-10 | 2026-09-06 01:27:42 | 53.19503 | 12.30910 | 137° | 135km/h | 5421m | -4.0m/s | -13.0°C | 5.9% | 520.3hPa | 2.6V | 00:00:00 | 03:07:51 | 00:00:00 | |
| DL1XH-15 | 2026-09-06 01:27:41 | 53.19645 | 12.30673 | 133° | 131km/h | 5444m | -3.9m/s | -13.2°C | 6.3% | 518.8hPa | 2.5V | 07:36:17 | 03:07:45 | 00:00:00 | |
| DB0DAN | 2026-09-06 01:27:40 | 53.19552 | 12.30832 | 136° | 128km/h | 5429m | -3.8m/s | -13.1°C | 5.7% | 519.84hPa | 2.5V | 00:00:00 | 00:00:00 | 00:00:00 | |
| DL1XH-west | 2026-09-06 01:27:38 | 53.19599 | 12.30753 | 134° | 131km/h | 5436m | -3.7m/s | -13.1°C | 5.5% | 519.4hPa | 2.6V | 07:37:02 | 03:07:47 | 00:00:00 | |
| EDDB2-11 | 2026-09-06 01:27:38 | 53.19622 | 12.30713 | 133° | 130km/h | 5440m | -3.8m/s | -13.2°C | 5.8% | 519.0hPa | 2.6V | 00:00:00 | 00:00:00 | 00:00:00 | |
| DL1XH1-15 | 2026-09-06 01:27:37 | 53.19738 | 12.30512 | 134° | 131km/h | 5459m | -3.9m/s | -13.2°C | 6.6% | 517.7hPa | 2.6V | 07:36:21 | 03:07:41 | 00:00:00 | |
| DO2SHX-10 | 2026-09-06 01:27:36 | 53.19644 | 12.30673 | 134° | 133km/h | 5444m | -3.9m/s | -13.1°C | 6.3% | 518.7hPa | 2.5V | 00:00:00 | 03:07:45 | 00:00:00 | |
| DM0DOS-11 | 2026-09-06 01:27:35 | 53.19785 | 12.30435 | 134° | 128km/h | 5467m | -3.8m/s | -13.3°C | 6.6% | 517.2hPa | 2.5V | 07:36:23 | 03:07:39 | 00:00:00 | |
| DF8AY | 2026-09-06 01:27:35 | 53.19667 | 12.30633 | 134° | 133km/h | 5448m | -3.7m/s | -13.2°C | 6.1% | 518.5hPa | 2.6V | 07:37:02 | 03:07:44 | 00:00:00 | |
| AA1-15 | 2026-09-06 01:27:33 | 53.19714 | 12.30552 | 135° | 133km/h | 5455m | -4m/s | -13.2°C | 5.7% | 518hPa | 2.6V | 07:37:02 | 03:07:42 | 00:00:00 | |
| DO2SHX-10 | 2026-09-06 01:27:33 | 53.19714 | 12.30552 | 135° | 131km/h | 5455m | -3.9m/s | -13.2°C | 6.5% | 517.9hPa | 2.6V | 07:36:00 | 03:07:42 | 00:00:00 | |
| AM1SDL-15 | 2026-09-06 01:27:32 | 53.19738 | 12.30512 | 135° | 131km/h | 5459m | -3.8m/s | -13.2°C | 6.6% | 517.7hPa | 2.5V | 00:00:00 | 03:07:41 | 00:00:00 | |
| DO2SHX-10 | 2026-09-06 01:27:30 | 53.19784 | 12.30434 | 135° | 128km/h | 5467m | -3.8m/s | -13.2°C | 6.6% | 517.1hPa | 2.5V | 00:00:00 | 03:07:39 | 00:00:00 | |
| DO2SHX-10 | 2026-09-06 01:27:27 | 53.19851 | 12.30317 | 133° | 131km/h | 5479m | -3.7m/s | -13.3°C | 6.7% | 516.5hPa | 2.5V | 00:00:00 | 03:07:36 | 00:00:00 | |
| DL1XH-west | 2026-09-06 01:27:27 | 53.19852 | 12.30317 | 132° | 130km/h | 5479m | -3.7m/s | -13.4°C | 6.1% | 516.5hPa | 2.6V | 07:37:02 | 03:07:36 | 00:00:00 | |
| DB0DAN | 2026-09-06 01:27:25 | 53.19896 | 12.30234 | 132° | 126km/h | 5486m | -4.1m/s | -13.4°C | 6.3% | 515.81hPa | 2.5V | 00:00:00 | 00:00:00 | 00:00:00 | |
| DM0DOS-11 | 2026-09-06 01:27:25 | 53.20013 | 12.30032 | 135° | 130km/h | 5505m | -3.7m/s | -13.4°C | 6.7% | 514.6hPa | 2.5V | 07:36:33 | 03:07:29 | 00:00:00 | |
| AA1-15 | 2026-09-06 01:27:22 | 53.19966 | 12.30110 | 134° | 133km/h | 5498m | -3.9m/s | -13.5°C | 6% | 515.1hPa | 2.6V | 07:37:02 | 03:07:31 | 00:00:00 | |
| DL1XH-15 | 2026-09-06 01:27:21 | 53.20101 | 12.29878 | 131° | 126km/h | 5521m | -4.1m/s | -13.5°C | 5.8% | 513.5hPa | 2.5V | 07:36:37 | 03:07:25 | 00:00:00 | |
| DO2SHX-10 | 2026-09-06 01:27:21 | 53.19989 | 12.30070 | 136° | 130km/h | 5502m | -3.6m/s | -13.4°C | 6.5% | 514.8hPa | 2.6V | 00:00:00 | 03:07:30 | 00:00:00 | |
| AM1SDL-15 | 2026-09-06 01:27:20 | 53.20013 | 12.30032 | 136° | 131km/h | 5506m | -3.7m/s | -13.4°C | 6.7% | 514.5hPa | 2.6V | 00:00:00 | 03:07:29 | 00:00:00 | |
| DO2SHX-10 | 2026-09-06 01:27:18 | 53.20058 | 12.29956 | 134° | 124km/h | 5513m | -3.9m/s | -13.4°C | 6.4% | 514.0hPa | 2.6V | 00:00:00 | 03:07:27 | 00:00:00 | |
| DL1XH1-15 | 2026-09-06 01:27:17 | 53.20186 | 12.29712 | 130° | 133km/h | 5537m | -3.5m/s | -13.5°C | 5% | 512.5hPa | 2.6V | 07:36:41 | 03:07:21 | 00:00:00 | |
| DL1XH-west | 2026-09-06 01:27:17 | 53.20080 | 12.29917 | 133° | 124km/h | 5517m | -4m/s | -13.5°C | 5.3% | 513.9hPa | 2.6V | 07:37:02 | 03:07:26 | 00:00:00 | |
| MECKS9 | 2026-09-06 01:27:16 | 53.20080 | 12.29917 | 134° | 124km/h | 5517m | -4.0m/s | -13.5°C | 5.7% | 513.9hPa | 2.5V | 00:00:00 | 00:00:00 | 00:00:00 | |
| DM0DOS-11 | 2026-09-06 01:27:15 | 53.20231 | 12.29626 | 131° | 137km/h | 5545m | -3.6m/s | -13.5°C | 4.9% | 512hPa | 2.5V | 07:36:43 | 03:07:19 | 00:00:00 | |
| DF8AY | 2026-09-06 01:27:12 | 53.20186 | 12.29712 | 131° | 133km/h | 5537m | -3.5m/s | -13.5°C | 3.8% | 512.5hPa | 2.6V | 07:37:02 | 03:07:21 | 00:00:00 | |
| DO2SHX-10 | 2026-09-06 01:27:12 | 53.20186 | 12.29712 | 131° | 135km/h | 5537m | -3.5m/s | -13.5°C | 5.0% | 512.5hPa | 2.5V | 00:00:00 | 03:07:21 | 00:00:00 | |
| DL1XH-15 | 2026-09-06 01:27:11 | 53.20326 | 12.29458 | 134° | 133km/h | 5559m | -3.7m/s | -13.6°C | 4.5% | 511hPa | 2.5V | 07:36:47 | 03:07:15 | 00:00:00 | |
| AA1-15 | 2026-09-06 01:27:11 | 53.20208 | 12.29669 | 131° | 137km/h | 5541m | -3.9m/s | -13.5°C | 3.7% | 512.2hPa | 2.5V | 07:37:02 | 03:07:20 | 00:00:00 | |
| DB0DAN | 2026-09-06 01:27:10 | 53.20231 | 12.29626 | 132° | 130km/h | 5545m | -3.6m/s | -13.5°C | 4.5% | 511.97hPa | 2.5V | 00:00:00 | 00:00:00 | 00:00:00 | |
| DO2SHX-10 | 2026-09-06 01:27:09 | 53.20255 | 12.29583 | 133° | 137km/h | 5548m | -3.3m/s | -13.5°C | 4.8% | 511.7hPa | 2.6V | 07:36:00 | 03:07:18 | 00:00:00 | |
| DL1XH1-15 | 2026-09-06 01:27:08 | 53.20418 | 12.29305 | 133° | 124km/h | 5574m | -3.5m/s | -13.7°C | 4.3% | 510hPa | 2.6V | 07:36:51 | 03:07:11 | 00:00:00 | |
| DL1XH-west | 2026-09-06 01:27:06 | 53.20326 | 12.29458 | 135° | 133km/h | 5559m | -3.7m/s | -13.6°C | 3% | 511hPa | 2.5V | 07:37:02 | 03:07:15 | 00:00:00 | |
| DF8AY | 2026-09-06 01:27:02 | 53.20418 | 12.29305 | 134° | 124km/h | 5574m | -3.5m/s | -13.7°C | 2.6% | 510hPa | 2.6V | 07:37:02 | 03:07:11 | 00:00:00 | |
| AA1-15 | 2026-09-06 01:27:01 | 53.20439 | 12.29267 | 133° | 124km/h | 5578m | -3.9m/s | -13.8°C | 2.6% | 509.8hPa | 2.5V | 07:37:02 | 03:07:10 | 00:00:00 | |
| EDDB2-12 | 2026-09-06 01:26:59 | 53.20482 | 12.29189 | 132° | 124km/h | 5585m | -3.4m/s | -13.8°C | 3.9% | 509.2hPa | 2.6V | 00:00:00 | 00:00:00 | 00:00:00 | |
| DL1XH1-15 | 2026-09-06 01:26:57 | 53.20638 | 12.28903 | 134° | 131km/h | 5610m | -3.9m/s | -13.7°C | 4.3% | 507.5hPa | 2.6V | 07:37:01 | 03:07:01 | 00:00:00 | |
| DO2SHX-10 | 2026-09-06 01:26:57 | 53.20524 | 12.29108 | 131° | 131km/h | 5592m | -3.4m/s | -13.7°C | 4.4% | 508.7hPa | 2.6V | 00:00:00 | 03:07:06 | 00:00:00 | |
| DB0DAN | 2026-09-06 01:26:55 | 53.20568 | 12.29025 | 132° | 126km/h | 5598m | -3.5m/s | -13.8°C | 4% | 508.27hPa | 2.5V | 00:00:00 | 00:00:00 | 00:00:00 | |
| DL1XH-west | 2026-09-06 01:26:55 | 53.20568 | 12.29025 | 132° | 133km/h | 5598m | -3.5m/s | -13.8°C | 2.7% | 508.3hPa | 2.5V | 07:37:02 | 03:07:04 | 00:00:00 | |
| DF8AY | 2026-09-06 01:26:52 | 53.20637 | 12.28903 | 135° | 131km/h | 5610m | -3.9m/s | -13.7°C | 2.6% | 507.6hPa | 2.6V | 07:37:02 | 03:07:01 | 00:00:00 | |
| AA1-15 | 2026-09-06 01:26:51 | 53.20661 | 12.28864 | 135° | 130km/h | 5614m | -3.8m/s | -13.7°C | 2.7% | 507.3hPa | 2.5V | 07:37:02 | 03:07:00 | 00:00:00 | |
| DJ2DS-15 | 2026-09-06 01:26:48 | 53.20773 | 12.28673 | 132° | 128km/h | 5633m | -3.7m/s | -13.8°C | 4.0% | 506.1hPa | 2.6V | 00:00:00 | 00:00:00 | 00:00:00 | |
| DL1XH1-15 | 2026-09-06 01:26:47 | 53.20864 | 12.28509 | 134° | 135km/h | 5647m | -3.3m/s | -13.8°C | 4.3% | 505.1hPa | 2.6V | 07:37:11 | 03:06:51 | 00:00:00 | |
| DM0DOS-11 | 2026-09-06 01:26:45 | 53.20912 | 12.28429 | 136° | 133km/h | 5654m | -3.9m/s | -13.8°C | 4.1% | 504.7hPa | 2.5V | 07:37:13 | 03:06:49 | 00:00:00 | |
| DL1XH-west | 2026-09-06 01:26:44 | 53.20817 | 12.28591 | 132° | 133km/h | 5640m | -3.5m/s | -13.8°C | 2.7% | 505.6hPa | 2.6V | 07:37:53 | 03:06:53 | 00:00:00 | |
| DF8AY | 2026-09-06 01:26:41 | 53.20888 | 12.28468 | 135° | 135km/h | 5650m | -3.8m/s | -13.8°C | 2.5% | 504.9hPa | 2.5V | 07:37:53 | 03:06:50 | 00:00:00 | |
| DB0DAN | 2026-09-06 01:26:40 | 53.20912 | 12.28429 | 136° | 128km/h | 5654m | -3.9m/s | -13.8°C | 3.7% | 504.69hPa | 2.5V | 00:00:00 | 00:00:00 | 00:00:00 | |
| AA1-15 | 2026-09-06 01:26:40 | 53.20912 | 12.28429 | 136° | 133km/h | 5654m | -3.9m/s | -13.8°C | 2.4% | 504.7hPa | 2.5V | 07:37:53 | 03:06:49 | 00:00:00 | |
| DO2SHX-10 | 2026-09-06 01:26:39 | 53.20936 | 12.28390 | 137° | 130km/h | 5658m | -4.1m/s | -13.7°C | 4.0% | 504.3hPa | 2.6V | 00:00:00 | 03:06:48 | 00:00:00 | |
| DL1XH1-15 | 2026-09-06 01:26:37 | 53.21097 | 12.28128 | 132° | 128km/h | 5684m | -3.8m/s | -13.9°C | 4.1% | 502.7hPa | 2.6V | 07:37:21 | 03:06:41 | 00:00:00 | |
| DL1XH-west | 2026-09-06 01:26:34 | 53.21053 | 12.28205 | 135° | 124km/h | 5676m | -3.7m/s | -13.9°C | 2.3% | 503.1hPa | 2.5V | 07:37:53 | 03:06:43 | 00:00:00 | |
| DF8AY | 2026-09-06 01:26:30 | 53.21142 | 12.28047 | 134° | 133km/h | 5691m | -3.9m/s | -13.9°C | 2.5% | 502.2hPa | 2.6V | 07:37:53 | 03:06:39 | 00:00:00 | |
| AA1-15 | 2026-09-06 01:26:29 | 53.21166 | 12.28006 | 134° | 135km/h | 5695m | -3.6m/s | -13.9°C | 2.7% | 501.9hPa | 2.5V | 07:37:53 | 03:06:38 | 00:00:00 | |
| EDDB2-12 | 2026-09-06 01:26:28 | 53.21190 | 12.27966 | 135° | 135km/h | 5699m | -3.7m/s | -13.9°C | 4.1% | 501.7hPa | 2.5V | 00:00:00 | 00:00:00 | 00:00:00 | |
| DL1XH1-15 | 2026-09-06 01:26:27 | 53.21334 | 12.27739 | 135° | 126km/h | 5720m | -3.5m/s | -14°C | 5% | 500.3hPa | 2.5V | 07:37:31 | 03:06:31 | 00:00:00 | |
| DO2SHX-10 | 2026-09-06 01:26:27 | 53.21214 | 12.27927 | 137° | 133km/h | 5702m | -3.8m/s | -13.8°C | 4.6% | 501.5hPa | 2.6V | 00:00:00 | 03:06:36 | 00:00:00 | |
| DB0DAN | 2026-09-06 01:26:25 | 53.21263 | 12.27850 | 137° | 124km/h | 5709m | -3.6m/s | -13.9°C | 4.3% | 500.94hPa | 2.6V | 00:00:00 | 00:00:00 | 00:00:00 | |
| DM0DOS-11 | 2026-09-06 01:26:24 | 53.21402 | 12.27623 | 134° | 131km/h | 5731m | -3.4m/s | -14.1°C | 5.2% | 499.6hPa | 2.6V | 07:37:34 | 03:06:28 | 00:00:00 | |
| DL1XH-west | 2026-09-06 01:26:23 | 53.21311 | 12.27776 | 136° | 126km/h | 5717m | -3.6m/s | -14°C | 3.6% | 500.5hPa | 2.5V | 07:37:53 | 03:06:32 | 00:00:00 | |
| DF8AY | 2026-09-06 01:26:20 | 53.21379 | 12.27663 | 134° | 130km/h | 5727m | -3.9m/s | -14.1°C | 3.9% | 499.8hPa | 2.6V | 07:37:53 | 03:06:29 | 00:00:00 | |
| AA1-15 | 2026-09-06 01:26:19 | 53.21402 | 12.27623 | 134° | 131km/h | 5731m | -3.4m/s | -14.1°C | 3.9% | 499.6hPa | 2.6V | 07:37:53 | 03:06:28 | 00:00:00 | |
| DL1XH-15 | 2026-09-06 01:26:18 | 53.21549 | 12.27390 | 137° | 130km/h | 5753m | -3.6m/s | -14.2°C | 5.3% | 498.2hPa | 2.6V | 07:37:40 | 03:06:22 | 00:00:00 | |
| DO2SHX-10 | 2026-09-06 01:26:18 | 53.21426 | 12.27583 | 135° | 135km/h | 5735m | -3.4m/s | -14.1°C | 5.1% | 499.2hPa | 2.6V | 00:00:00 | 03:06:27 | 00:00:00 | |
| DL1XH1-15 | 2026-09-06 01:26:17 | 53.21573 | 12.27353 | 136° | 128km/h | 5756m | -3.7m/s | -14.3°C | 5.4% | 497.8hPa | 2.6V | 07:37:41 | 03:06:21 | 00:00:00 | |
| DO2SHX-10 | 2026-09-06 01:26:15 | 53.21500 | 12.27466 | 138° | 131km/h | 5745m | -3.7m/s | -14.2°C | 5.2% | 498.5hPa | 2.5V | 00:00:00 | 03:06:24 | 00:00:00 | |
| DM0DOS-11 | 2026-09-06 01:26:14 | 53.21642 | 12.27238 | 133° | 131km/h | 5767m | -4m/s | -14.4°C | 5.5% | 497.2hPa | 2.5V | 07:37:44 | 03:06:18 | 00:00:00 | |
| DL1XH-west | 2026-09-06 01:26:13 | 53.21549 | 12.27390 | 137° | 130km/h | 5753m | -3.6m/s | -14.3°C | 4.1% | 498.2hPa | 2.6V | 07:37:53 | 03:06:22 | 00:00:00 | |
| DO2SHX-10 | 2026-09-06 01:26:12 | 53.21573 | 12.27353 | 137° | 128km/h | 5756m | -3.6m/s | -14.2°C | 5.4% | 497.8hPa | 2.6V | 00:00:00 | 03:06:21 | 00:00:00 | |
| DB0DAN | 2026-09-06 01:26:10 | 53.21619 | 12.27278 | 134° | 122km/h | 5764m | -3.3m/s | -14.3°C | 5% | 497.48hPa | 2.5V | 00:00:00 | 00:00:00 | 00:00:00 | |
| DF8AY | 2026-09-06 01:26:09 | 53.21642 | 12.27238 | 134° | 131km/h | 5767m | -4m/s | -14.4°C | 4.5% | 497.2hPa | 2.5V | 07:37:53 | 03:06:18 | 00:00:00 | |
| DO2SHX-10 | 2026-09-06 01:26:09 | 53.21642 | 12.27238 | 134° | 133km/h | 5767m | -3.9m/s | -14.3°C | 5.5% | 497.1hPa | 2.6V | 00:00:00 | 03:06:18 | 00:00:00 | |
| DL1XH-15 | 2026-09-06 01:26:08 | 53.21790 | 12.26998 | 138° | 135km/h | 5788m | -3.9m/s | -14.5°C | 6.9% | 495.8hPa | 2.6V | 07:37:50 | 03:06:12 | 00:00:00 | |
| AA1-15 | 2026-09-06 01:26:08 | 53.21665 | 12.27198 | 134° | 133km/h | 5771m | -3.3m/s | -14.4°C | 4.7% | 497hPa | 2.6V | 07:37:53 | 03:06:17 | 00:00:00 | |
| DL1XH1-15 | 2026-09-06 01:26:07 | 53.21815 | 12.26961 | 139° | 133km/h | 5792m | -3.6m/s | -14.5°C | 7.6% | 495.6hPa | 2.6V | 07:37:51 | 03:06:11 | 00:00:00 | |
| DO2SHX-10 | 2026-09-06 01:26:06 | 53.21713 | 12.27116 | 136° | 137km/h | 5778m | -3.0m/s | -14.4°C | 6.0% | 496.5hPa | 2.5V | 00:00:00 | 03:06:15 | 00:00:00 | |
| DM0DOS-11 | 2026-09-06 01:26:05 | 53.21889 | 12.26853 | 138° | 128km/h | 5803m | -3.7m/s | -14.6°C | 9.7% | 494.9hPa | 2.5V | 07:37:54 | 03:06:08 | 00:00:00 | |
| DL1XH-west | 2026-09-06 01:26:02 | 53.21815 | 12.26961 | 139° | 133km/h | 5792m | -3.6m/s | -14.5°C | 7.4% | 495.6hPa | 2.6V | 07:37:53 | 03:06:11 | 00:00:00 | |
| AA1-15 | 2026-09-06 01:25:58 | 53.21913 | 12.26818 | 138° | 126km/h | 5807m | -4m/s | -14.6°C | 10.7% | 494.6hPa | 2.5V | 07:38:44 | 03:06:07 | 00:00:00 | |
| DL1XH1-15 | 2026-09-06 01:25:57 | 53.22056 | 12.26586 | 136° | 139km/h | 5828m | -3.6m/s | -14.6°C | 22.7% | 493.2hPa | 2.5V | 07:38:01 | 03:06:01 | 00:00:00 | |
| DO2SHX-10 | 2026-09-06 01:25:57 | 53.21936 | 12.26781 | 137° | 130km/h | 5810m | -3.4m/s | -14.5°C | 11.4% | 494.3hPa | 2.6V | 07:37:00 | 03:06:06 | 00:00:00 | |
| DB0DAN | 2026-09-06 01:25:55 | 53.21983 | 12.26706 | 135° | 124km/h | 5818m | -3.6m/s | -14.6°C | 11.6% | 493.81hPa | 2.6V | 00:00:00 | 00:00:00 | 00:00:00 | |
| DM0DOS-11 | 2026-09-06 01:25:54 | 53.22134 | 12.26469 | 138° | 137km/h | 5839m | -3.9m/s | -14.7°C | 29.7% | 492.5hPa | 2.6V | 07:38:04 | 03:05:58 | 00:00:00 | |
| DL1XH-west | 2026-09-06 01:25:52 | 53.22056 | 12.26586 | 136° | 139km/h | 5828m | -3.6m/s | -14.6°C | 24.9% | 493.2hPa | 2.5V | 07:38:44 | 03:06:01 | 00:00:00 | |
| AA1-15 | 2026-09-06 01:25:48 | 53.22160 | 12.26431 | 140° | 135km/h | 5843m | -4.1m/s | -14.7°C | 33.2% | 492.2hPa | 2.6V | 07:38:44 | 03:05:57 | 00:00:00 | |
| DO2SHX-10 | 2026-09-06 01:25:48 | 53.22160 | 12.26431 | 140° | 133km/h | 5843m | -4.0m/s | -14.6°C | 31.1% | 492.2hPa | 2.6V | 00:00:00 | 03:05:57 | 00:00:00 | |
| DL1XH1-15 | 2026-09-06 01:25:47 | 53.22307 | 12.26209 | 134° | 133km/h | 5865m | -3.6m/s | -14.7°C | 28.4% | 490.8hPa | 2.6V | 07:38:11 | 03:05:51 | 00:00:00 | |
| MECKS9 | 2026-09-06 01:25:46 | 53.22186 | 12.26395 | 141° | 133km/h | 5846m | -3.5m/s | -14.7°C | 28.9% | 492.1hPa | 2.5V | 07:38:00 | 00:00:00 | 00:00:00 | |
| DO2SHX-10 | 2026-09-06 01:25:45 | 53.22236 | 12.26323 | 139° | 130km/h | 5854m | -3.6m/s | -14.6°C | 28.1% | 491.5hPa | 2.5V | 00:00:00 | 03:05:54 | 00:00:00 | |
| DM0DOS-11 | 2026-09-06 01:25:44 | 53.22380 | 12.26088 | 136° | 139km/h | 5875m | -3.9m/s | -14.7°C | 28.8% | 490.1hPa | 2.6V | 07:38:14 | 03:05:48 | 00:00:00 | |
| DL1XH-west | 2026-09-06 01:25:42 | 53.22307 | 12.26209 | 135° | 133km/h | 5865m | -3.6m/s | -14.7°C | 30.5% | 490.8hPa | 2.6V | 07:38:44 | 03:05:51 | 00:00:00 | |
| DO2SHX-10 | 2026-09-06 01:25:42 | 53.22307 | 12.26209 | 135° | 135km/h | 5865m | -3.6m/s | -14.6°C | 28.4% | 490.8hPa | 2.6V | 00:00:00 | 03:05:51 | 00:00:00 | |
| DB0DAN | 2026-09-06 01:25:40 | 53.22355 | 12.26129 | 135° | 131km/h | 5872m | -3.5m/s | -14.7°C | 27% | 490.35hPa | 2.6V | 00:00:00 | 00:00:00 | 00:00:00 | |
| AA1-15 | 2026-09-06 01:25:38 | 53.22406 | 12.26048 | 137° | 141km/h | 5879m | -3.9m/s | -14.7°C | 31.3% | 489.9hPa | 2.5V | 07:38:44 | 03:05:47 | 00:00:00 | |
| DF8AY | 2026-09-06 01:25:37 | 53.22432 | 12.26008 | 138° | 141km/h | 5883m | -3.2m/s | -14.7°C | 31.3% | 489.6hPa | 2.5V | 07:38:44 | 03:05:46 | 00:00:00 | |
| DJ2DS-15 | 2026-09-06 01:25:36 | 53.22538 | 12.25857 | 140° | 133km/h | 5897m | -3.7m/s | -14.8°C | 28.0% | 488.7hPa | 2.5V | 00:00:00 | 00:00:00 | 00:00:00 | |
| DM0DOS-11 | 2026-09-06 01:25:34 | 53.22641 | 12.25707 | 137° | 137km/h | 5911m | -3.4m/s | -14.9°C | 30.6% | 487.8hPa | 2.5V | 07:38:24 | 03:05:38 | 00:00:00 | |
| DL1XH-west | 2026-09-06 01:25:31 | 53.22590 | 12.25784 | 139° | 133km/h | 5904m | -3.4m/s | -14.8°C | 32.2% | 488.3hPa | 2.5V | 07:38:44 | 03:05:40 | 00:00:00 | |
| AA1-15 | 2026-09-06 01:25:27 | 53.22692 | 12.25628 | 137° | 141km/h | 5918m | -3.7m/s | -14.9°C | 32.6% | 487.4hPa | 2.6V | 07:38:44 | 03:05:36 | 00:00:00 | |
| DM0DOS-11 | 2026-09-06 01:25:24 | 53.22899 | 12.25316 | 135° | 137km/h | 5947m | -3.8m/s | -15.1°C | 30.8% | 485.4hPa | 2.6V | 07:38:34 | 03:05:28 | 00:00:00 | |
| DO2SHX-10 | 2026-09-06 01:25:24 | 53.22772 | 12.25509 | 139° | 137km/h | 5929m | -4.1m/s | -14.9°C | 30.8% | 486.6hPa | 2.6V | 00:00:00 | 03:05:33 | 00:00:00 | |
| DO2SHX-10 | 2026-09-06 01:25:21 | 53.22849 | 12.25394 | 138° | 135km/h | 5940m | -3.2m/s | -15.0°C | 31.0% | 485.9hPa | 2.6V | 00:00:00 | 03:05:30 | 00:00:00 | |
| DL1XH-west | 2026-09-06 01:25:21 | 53.22849 | 12.25394 | 137° | 135km/h | 5940m | -3.3m/s | -15°C | 32.8% | 485.9hPa | 2.6V | 07:38:44 | 03:05:30 | 00:00:00 | |
| AM1SDL-15 | 2026-09-06 01:25:20 | 53.22874 | 12.25355 | 137° | 137km/h | 5943m | -3.6m/s | -15.0°C | 30.9% | 485.5hPa | 2.6V | 00:00:00 | 03:05:29 | 00:00:00 | |
| DL1XH1-15 | 2026-09-06 01:25:18 | 53.23056 | 12.25073 | 139° | 141km/h | 5969m | -4m/s | -15°C | 15.6% | 484hPa | 2.6V | 07:38:40 | 03:05:22 | 00:00:00 | |
| AA1-15 | 2026-09-06 01:25:16 | 53.22975 | 12.25193 | 137° | 142km/h | 5958m | -3.7m/s | -15.1°C | 31% | 484.8hPa | 2.5V | 07:38:44 | 03:05:25 | 00:00:00 | |
| DO2SHX-10 | 2026-09-06 01:25:15 | 53.23001 | 12.25152 | 138° | 142km/h | 5962m | -3.4m/s | -15.0°C | 25.5% | 484.5hPa | 2.5V | 00:00:00 | 03:05:24 | 00:00:00 | |
| DM0DOS-11 | 2026-09-06 01:25:14 | 53.23158 | 12.24921 | 136° | 133km/h | 5984m | -3.5m/s | -15°C | 8.4% | 483.1hPa | 2.5V | 07:38:44 | 03:05:18 | 00:00:00 | |
| DO2SHX-10 | 2026-09-06 01:25:12 | 53.23082 | 12.25035 | 140° | 135km/h | 5973m | -4.0m/s | -15.0°C | 14.5% | 483.9hPa | 2.6V | 00:00:00 | 03:05:21 | 00:00:00 | |
| DL1XH-15 | 2026-09-06 01:25:11 | 53.23207 | 12.24841 | 134° | 139km/h | 5991m | -4.2m/s | -15.1°C | 8% | 482.6hPa | 2.6V | 07:38:46 | 03:05:16 | 00:00:00 | |
| DL1XH-west | 2026-09-06 01:25:11 | 53.23108 | 12.24997 | 138° | 135km/h | 5977m | -3.7m/s | -15°C | 15.3% | 483.6hPa | 2.6V | 07:38:44 | 03:05:20 | 00:00:00 | |
| DB0DAN | 2026-09-06 01:25:10 | 53.23133 | 12.24959 | 138° | 128km/h | 5980m | -3.7m/s | -15°C | 11.3% | 483.24hPa | 2.5V | 00:00:00 | 00:00:00 | 00:00:00 | |
| DO2SHX-10 | 2026-09-06 01:25:09 | 53.23158 | 12.24921 | 137° | 135km/h | 5984m | -3.5m/s | -15.0°C | 8.4% | 483.0hPa | 2.5V | 07:38:00 | 03:05:18 | 00:00:00 | |
| DL1XH1-15 | 2026-09-06 01:25:08 | 53.23309 | 12.24671 | 136° | 146km/h | 6006m | -3.2m/s | -15.2°C | 10.9% | 481.6hPa | 2.5V | 07:38:50 | 03:05:12 | 00:00:00 | |
| AA1-15 | 2026-09-06 01:25:05 | 53.23257 | 12.24756 | 135° | 144km/h | 5999m | -3.9m/s | -15.1°C | 9.9% | 482.1hPa | 2.6V | 07:39:35 | 03:05:14 | 00:00:00 | |
| EDDB2-11 | 2026-09-06 01:25:03 | 53.23336 | 12.24629 | 137° | 144km/h | 6010m | -4.7m/s | -15.2°C | 10.3% | 481.4hPa | 2.6V | 00:00:00 | 00:00:00 | 00:00:00 | |
| DL1XH-15 | 2026-09-06 01:25:01 | 53.23467 | 12.24433 | 137° | 133km/h | 6029m | -3.8m/s | -15.4°C | 15.5% | 480.2hPa | 2.6V | 07:38:56 | 03:05:06 | 00:00:00 | |
| DL1XH-west | 2026-09-06 01:25:01 | 53.23363 | 12.24588 | 138° | 144km/h | 6014m | -3.6m/s | -15.3°C | 12.5% | 481.1hPa | 2.6V | 07:39:35 | 03:05:10 | 00:00:00 | |
| DO2SHX-10 | 2026-09-06 01:25:00 | 53.23390 | 12.24549 | 139° | 139km/h | 6018m | -4.1m/s | -15.2°C | 12.5% | 480.8hPa | 2.6V | 00:00:00 | 03:05:09 | 00:00:00 | |
| DO2SHX-10 | 2026-09-06 01:24:57 | 53.23467 | 12.24433 | 138° | 133km/h | 6030m | -3.7m/s | -15.3°C | 15.5% | 480.1hPa | 2.6V | 00:00:00 | 03:05:06 | 00:00:00 | |
| DB0DAN | 2026-09-06 01:24:55 | 53.23516 | 12.24355 | 136° | 128km/h | 6037m | -3.9m/s | -15.4°C | 14.7% | 479.67hPa | 2.6V | 00:00:00 | 00:00:00 | 00:00:00 | |
| AA1-15 | 2026-09-06 01:24:54 | 53.23540 | 12.24315 | 135° | 135km/h | 6041m | -4.3m/s | -15.5°C | 17.8% | 479.4hPa | 2.5V | 07:39:35 | 03:05:03 | 00:00:00 | |
| DO2SHX-10 | 2026-09-06 01:24:54 | 53.23540 | 12.24315 | 135° | 137km/h | 6041m | -4.2m/s | -15.4°C | 16.2% | 479.4hPa | 2.6V | 00:00:00 | 03:05:03 | 00:00:00 | |
| DO2SHX-10 | 2026-09-06 01:24:51 | 53.23613 | 12.24189 | 134° | 144km/h | 6053m | -3.8m/s | -15.5°C | 15.5% | 478.6hPa | 2.6V | 00:00:00 | 03:05:00 | 00:00:00 | |
| DL1XH-15 | 2026-09-06 01:24:48 | 53.23819 | 12.23838 | 135° | 144km/h | 6084m | -4.1m/s | -15.7°C | 5% | 476.7hPa | 2.6V | 07:39:10 | 03:04:52 | 00:00:00 | |
| DL1XH-west | 2026-09-06 01:24:48 | 53.23689 | 12.24057 | 134° | 146km/h | 6064m | -4.1m/s | -15.6°C | 7.4% | 477.9hPa | 2.6V | 07:39:35 | 03:04:57 | 00:00:00 | |
| DF8AY | 2026-09-06 01:24:44 | 53.23793 | 12.23881 | 135° | 146km/h | 6080m | -4.7m/s | -15.6°C | 4.2% | 476.9hPa | 2.6V | 07:39:35 | 03:04:53 | 00:00:00 | |
| AA1-15 | 2026-09-06 01:24:43 | 53.23819 | 12.23838 | 136° | 144km/h | 6085m | -4.1m/s | -15.7°C | 3.8% | 476.7hPa | 2.6V | 07:39:35 | 03:04:52 | 00:00:00 | |
| DO2SHX-10 | 2026-09-06 01:24:42 | 53.23845 | 12.23796 | 137° | 141km/h | 6089m | -4.2m/s | -15.6°C | 4.9% | 476.3hPa | 2.6V | 00:00:00 | 03:04:51 | 00:00:00 | |
| DB0DAN | 2026-09-06 01:24:40 | 53.23896 | 12.23714 | 136° | 131km/h | 6097m | -4.1m/s | -15.7°C | 4.2% | 475.94hPa | 2.5V | 00:00:00 | 00:00:00 | 00:00:00 | |
| DO2SHX-10 | 2026-09-06 01:24:39 | 53.23921 | 12.23673 | 135° | 137km/h | 6101m | -3.6m/s | -15.7°C | 4.4% | 475.7hPa | 2.5V | 00:00:00 | 03:04:48 | 00:00:00 | |
| DL1XH-15 | 2026-09-06 01:24:38 | 53.24066 | 12.23411 | 133° | 148km/h | 6125m | -4.1m/s | -15.7°C | 3.4% | 474.1hPa | 2.5V | 07:39:20 | 03:04:42 | 00:00:00 | |
| DL1XH-west | 2026-09-06 01:24:38 | 53.23945 | 12.23632 | 133° | 137km/h | 6105m | -4.2m/s | -15.8°C | 2.6% | 475.4hPa | 2.5V | 07:39:35 | 03:04:47 | 00:00:00 | |
| DO2SHX-10 | 2026-09-06 01:24:36 | 53.23992 | 12.23546 | 133° | 142km/h | 6113m | -4.0m/s | -15.7°C | 3.6% | 474.9hPa | 2.5V | 00:00:00 | 03:04:45 | 00:00:00 | |
| DM0DOS-11 | 2026-09-06 01:24:34 | 53.24171 | 12.23236 | 136° | 142km/h | 6141m | -4.2m/s | -15.7°C | 3.6% | 473.2hPa | 2.5V | 07:39:24 | 03:04:38 | 00:00:00 | |
| DF8AY | 2026-09-06 01:24:33 | 53.24066 | 12.23411 | 133° | 148km/h | 6125m | -4.1m/s | -15.7°C | 1.5% | 474.1hPa | 2.5V | 07:39:35 | 03:04:42 | 00:00:00 | |
| AA1-15 | 2026-09-06 01:24:32 | 53.24092 | 12.23366 | 134° | 148km/h | 6129m | -4m/s | -15.7°C | 1.5% | 473.8hPa | 2.6V | 07:39:35 | 03:04:41 | 00:00:00 | |
| EDDB2-11 | 2026-09-06 01:24:31 | 53.24118 | 12.23322 | 134° | 146km/h | 6133m | -4.2m/s | -15.7°C | 3.1% | 473.6hPa | 2.6V | 00:00:00 | 00:00:00 | 00:00:00 | |
| DL1XH1-15 | 2026-09-06 01:24:30 | 53.24271 | 12.23071 | 133° | 139km/h | 6157m | -4.3m/s | -15.8°C | 3.5% | 472.1hPa | 2.6V | 07:39:28 | 03:04:34 | 00:00:00 | |
| DO2SHX-10 | 2026-09-06 01:24:30 | 53.24144 | 12.23278 | 136° | 142km/h | 6137m | -3.8m/s | -15.7°C | 3.5% | 473.4hPa | 2.6V | 00:00:00 | 03:04:39 | 00:00:00 | |
| SONCRA | 2026-09-06 01:24:29 | 53.24271 | 12.23071 | 133° | 137km/h | 6157m | -4.3m/s | -15.8°C | 3.1% | 472.1hPa | 2.6V | 00:00:00 | 00:00:00 | 00:00:00 | |
| DL1XH-15 | 2026-09-06 01:24:28 | 53.24320 | 12.22984 | 132° | 142km/h | 6165m | -4m/s | -15.8°C | 3.6% | 471.7hPa | 2.6V | 07:39:30 | 03:04:32 | 00:00:00 | |
| DL1XH-west | 2026-09-06 01:24:26 | 53.24247 | 12.23113 | 135° | 139km/h | 6153m | -4.1m/s | -15.8°C | 1.6% | 472.4hPa | 2.6V | 07:39:35 | 03:04:35 | 00:00:00 | |
| DB0DAN | 2026-09-06 01:24:25 | 53.24271 | 12.23071 | 134° | 131km/h | 6157m | -4.3m/s | -15.8°C | 3.1% | 472.15hPa | 2.6V | 00:00:00 | 00:00:00 | 00:00:00 | |
| DM0DOS-11 | 2026-09-06 01:24:24 | 53.24423 | 12.22806 | 135° | 148km/h | 6181m | -4.2m/s | -15.9°C | 4% | 470.6hPa | 2.6V | 07:39:34 | 03:04:28 | 00:00:00 | |
| DF8AY | 2026-09-06 01:24:23 | 53.24320 | 12.22984 | 133° | 142km/h | 6165m | -4m/s | -15.8°C | 1.7% | 471.7hPa | 2.6V | 07:39:35 | 03:04:32 | 00:00:00 | |
| AA1-15 | 2026-09-06 01:24:22 | 53.24345 | 12.22939 | 133° | 146km/h | 6169m | -4.4m/s | -15.8°C | 1.9% | 471.4hPa | 2.5V | 07:39:35 | 03:04:31 | 00:00:00 | |
| DO2SHX-10 | 2026-09-06 01:24:21 | 53.24370 | 12.22895 | 134° | 148km/h | 6173m | -3.9m/s | -15.8°C | 3.7% | 471.1hPa | 2.6V | 07:39:00 | 03:04:30 | 00:00:00 | |
| AM1SDL-15 | 2026-09-06 01:24:20 | 53.24397 | 12.22850 | 135° | 142km/h | 6177m | -4.2m/s | -15.8°C | 3.8% | 470.8hPa | 2.6V | 00:00:00 | 03:04:29 | 00:00:00 | |
| DL1XH1-15 | 2026-09-06 01:24:20 | 53.24527 | 12.22640 | 135° | 139km/h | 6198m | -4.3m/s | -16°C | 4.7% | 469.6hPa | 2.5V | 07:39:38 | 03:04:24 | 00:00:00 | |
| DL1XH-15 | 2026-09-06 01:24:18 | 53.24576 | 12.22556 | 133° | 139km/h | 6206m | -3.9m/s | -16°C | 5.8% | 469.1hPa | 2.6V | 07:39:40 | 03:04:22 | 00:00:00 | |
| DO2SHX-10 | 2026-09-06 01:24:18 | 53.24449 | 12.22763 | 137° | 142km/h | 6186m | -4.2m/s | -15.9°C | 4.2% | 470.3hPa | 2.5V | 00:00:00 | 03:04:27 | 00:00:00 | |
| S3001 | 2026-09-06 01:24:16 | 53.24502 | 12.22681 | 136° | 139km/h | 6194m | -4.4m/s | -16.0°C | 4.0% | 469.9hPa | 2.5V | 00:00:00 | 00:00:00 | 00:00:00 | |
| DO2SHX-10 | 2026-09-06 01:24:15 | 53.24527 | 12.22640 | 136° | 139km/h | 6198m | -4.2m/s | -15.9°C | 4.7% | 469.5hPa | 2.5V | 00:00:00 | 03:04:24 | 00:00:00 | |
| DL1XH-west | 2026-09-06 01:24:15 | 53.24527 | 12.22640 | 135° | 139km/h | 6198m | -4.3m/s | -16°C | 3.5% | 469.6hPa | 2.5V | 07:40:26 | 03:04:24 | 00:00:00 | |
| DM0DOS-11 | 2026-09-06 01:24:14 | 53.24674 | 12.22379 | 132° | 148km/h | 6223m | -4.3m/s | -16.1°C | 8% | 468.1hPa | 2.5V | 07:39:44 | 03:04:18 | 00:00:00 | |
| DF8AY | 2026-09-06 01:24:12 | 53.24600 | 12.22513 | 133° | 141km/h | 6210m | -4.1m/s | -16.1°C | 6% | 468.9hPa | 2.6V | 07:40:26 | 03:04:21 | 00:00:00 | |
| AA1-15 | 2026-09-06 01:24:11 | 53.24624 | 12.22469 | 133° | 142km/h | 6215m | -4.4m/s | -16.1°C | 6.3% | 468.6hPa | 2.5V | 07:40:26 | 03:04:20 | 00:00:00 | |
| DB0DAN | 2026-09-06 01:24:10 | 53.24649 | 12.22424 | 133° | 139km/h | 6219m | -4.3m/s | -16.1°C | 7.1% | 468.28hPa | 2.5V | 00:00:00 | 00:00:00 | 00:00:00 | |
| D01LWL | 2026-09-06 01:24:10 | 53.24649 | 12.22424 | 132° | 144km/h | 6219m | -4.3m/s | -16.1°C | 7.1% | 468.3hPa | 2.5V | 00:00:00 | 00:00:00 | 00:00:00 | |
| DL1XH1-15 | 2026-09-06 01:24:09 | 53.24805 | 12.22158 | 136° | 144km/h | 6244m | -4.1m/s | -16.3°C | 9% | 466.7hPa | 2.5V | 07:39:49 | 03:04:13 | 00:00:00 | |
| DO2SHX-10 | 2026-09-06 01:24:09 | 53.24674 | 12.22379 | 133° | 148km/h | 6223m | -4.3m/s | -16.1°C | 8.0% | 468.0hPa | 2.6V | 00:00:00 | 03:04:18 | 00:00:00 | |
| AM1SDL-15 | 2026-09-06 01:24:08 | 53.24699 | 12.22333 | 134° | 146km/h | 6227m | -3.9m/s | -16.1°C | 8.3% | 467.7hPa | 2.6V | 00:00:00 | 03:04:17 | 00:00:00 | |
| DL1XH-15 | 2026-09-06 01:24:08 | 53.24832 | 12.22116 | 135° | 142km/h | 6247m | -4m/s | -16.3°C | 9.3% | 466.5hPa | 2.5V | 07:39:50 | 03:04:12 | 00:00:00 | |
| DO2SHX-10 | 2026-09-06 01:24:06 | 53.24752 | 12.22244 | 136° | 146km/h | 6235m | -4.5m/s | -16.2°C | 8.6% | 467.2hPa | 2.6V | 00:00:00 | 03:04:15 | 00:00:00 | |
| SONDE2-11 | 2026-09-06 01:24:05 | 53.24779 | 12.22201 | 135° | 146km/h | 6239m | -4.1m/s | -16.3°C | 8.0% | 467.0hPa | 2.6V | 00:00:00 | 00:00:00 | 00:00:00 | |
| DM0DOS-11 | 2026-09-06 01:24:04 | 53.24932 | 12.21943 | 132° | 146km/h | 6265m | -4.2m/s | -16.4°C | 10% | 465.4hPa | 2.6V | 07:39:54 | 03:04:08 | 00:00:00 | |
| DL1XH-west | 2026-09-06 01:24:04 | 53.24806 | 12.22158 | 136° | 144km/h | 6244m | -4.1m/s | -16.3°C | 9.3% | 466.7hPa | 2.5V | 07:40:26 | 03:04:13 | 00:00:00 | |
| DF8AY | 2026-09-06 01:24:02 | 53.24857 | 12.22074 | 135° | 142km/h | 6252m | -4.2m/s | -16.4°C | 9.9% | 466.2hPa | 2.5V | 07:40:26 | 03:04:11 | 00:00:00 | |
| AA1-15 | 2026-09-06 01:24:01 | 53.24882 | 12.22031 | 134° | 142km/h | 6256m | -4.4m/s | -16.4°C | 10.3% | 465.9hPa | 2.6V | 07:40:26 | 03:04:10 | 00:00:00 | |
| DO2SHX-10 | 2026-09-06 01:24:00 | 53.24907 | 12.21987 | 133° | 146km/h | 6260m | -4.7m/s | -16.4°C | 9.8% | 465.7hPa | 2.6V | 00:00:00 | 03:04:09 | 00:00:00 | |
| DL1XH1-15 | 2026-09-06 01:23:59 | 53.25062 | 12.21714 | 135° | 150km/h | 6286m | -4.5m/s | -16.6°C | 11.7% | 464.1hPa | 2.6V | 07:39:59 | 03:04:03 | 00:00:00 | |
| DL1XH-15 | 2026-09-06 01:23:58 | 53.25089 | 12.21671 | 135° | 148km/h | 6290m | -4.3m/s | -16.6°C | 12.2% | 463.9hPa | 2.5V | 07:40:00 | 03:04:02 | 00:00:00 | |
| DO2SHX-10 | 2026-09-06 01:23:57 | 53.24982 | 12.21851 | 133° | 150km/h | 6273m | -4.4m/s | -16.5°C | 10.6% | 464.9hPa | 2.5V | 07:39:00 | 03:04:06 | 00:00:00 | |
| DB0DAN | 2026-09-06 01:23:55 | 53.25035 | 12.21759 | 135° | 144km/h | 6281m | -4.5m/s | -16.6°C | 10.6% | 464.39hPa | 2.6V | 00:00:00 | 00:00:00 | 00:00:00 | |
| DL1XH-west | 2026-09-06 01:23:54 | 53.25062 | 12.21714 | 136° | 150km/h | 6286m | -4.5m/s | -16.6°C | 12.7% | 464.1hPa | 2.6V | 07:40:26 | 03:04:03 | 00:00:00 | |
| DF8AY | 2026-09-06 01:23:52 | 53.25116 | 12.21628 | 136° | 144km/h | 6294m | -4.3m/s | -16.7°C | 14.1% | 463.6hPa | 2.5V | 07:40:26 | 03:04:01 | 00:00:00 | |
| AA1-15 | 2026-09-06 01:23:50 | 53.25167 | 12.21542 | 134° | 142km/h | 6304m | -4.3m/s | -16.7°C | 16% | 463.1hPa | 2.6V | 07:40:26 | 03:03:59 | 00:00:00 | |
| DL1XH1-15 | 2026-09-06 01:23:48 | 53.25343 | 12.21223 | 133° | 150km/h | 6332m | -4.2m/s | -16.9°C | 23.4% | 461.2hPa | 2.6V | 07:40:10 | 03:03:52 | 00:00:00 | |
| DL1XH-west | 2026-09-06 01:23:44 | 53.25317 | 12.21269 | 133° | 151km/h | 6328m | -4.3m/s | -16.9°C | 25.1% | 461.5hPa | 2.6V | 07:40:26 | 03:03:53 | 00:00:00 | |
| DF8AY | 2026-09-06 01:23:41 | 53.25627 | 12.20731 | 135° | 150km/h | 6380m | -4m/s | -17.4°C | 28.7% | 458.3hPa | 2.6V | 07:40:26 | 03:03:41 | 00:00:00 | |
| DB0DAN | 2026-09-06 01:23:40 | 53.25422 | 12.21090 | 135° | 139km/h | 6345m | -4.8m/s | -17.1°C | 23.6% | 460.45hPa | 2.5V | 00:00:00 | 00:00:00 | 00:00:00 | |
| AA1-15 | 2026-09-06 01:23:40 | 53.25422 | 12.21090 | 135° | 144km/h | 6345m | -4.8m/s | -17.1°C | 27.3% | 460.4hPa | 2.5V | 07:40:26 | 03:03:49 | 00:00:00 | |
| DO2SHX-10 | 2026-09-06 01:23:39 | 53.25448 | 12.21047 | 135° | 144km/h | 6350m | -4.6m/s | -17.1°C | 25.4% | 460.1hPa | 2.6V | 00:00:00 | 03:03:48 | 00:00:00 | |
| DL1XH1-15 | 2026-09-06 01:23:38 | 53.25600 | 12.20777 | 133° | 150km/h | 6376m | -4.2m/s | -17.3°C | 26.5% | 458.5hPa | 2.6V | 07:40:20 | 03:03:42 | 00:00:00 | |
| DL1XH-west | 2026-09-06 01:23:33 | 53.25600 | 12.20777 | 134° | 150km/h | 6376m | -4.3m/s | -17.3°C | 28.6% | 458.5hPa | 2.6V | 07:40:26 | 03:03:42 | 00:00:00 | |
| AA1-15 | 2026-09-06 01:23:29 | 53.25705 | 12.20598 | 134° | 144km/h | 6393m | -4.5m/s | -17.5°C | 29.1% | 457.5hPa | 2.5V | 07:40:26 | 03:03:38 | 00:00:00 | |
| DL1XH1-15 | 2026-09-06 01:23:28 | 53.25858 | 12.20327 | 134° | 148km/h | 6420m | -4.5m/s | -17.8°C | 27.1% | 455.8hPa | 2.6V | 07:40:30 | 03:03:32 | 00:00:00 | |
| DO2SHX-10 | 2026-09-06 01:23:27 | 53.25756 | 12.20509 | 133° | 148km/h | 6402m | -4.5m/s | -17.5°C | 27.2% | 457.0hPa | 2.5V | 00:00:00 | 03:03:36 | 00:00:00 | |
| DB0DAN | 2026-09-06 01:23:25 | 53.25806 | 12.20418 | 133° | 141km/h | 6411m | -4.5m/s | -17.7°C | 25.5% | 456.4hPa | 2.5V | 00:00:00 | 00:00:00 | 00:00:00 | |
| DL1XH-west | 2026-09-06 01:23:23 | 53.25858 | 12.20327 | 134° | 148km/h | 6420m | -4.5m/s | -17.8°C | 29.2% | 455.8hPa | 2.6V | 07:41:17 | 03:03:32 | 00:00:00 | |
| DF8AY | 2026-09-06 01:23:21 | 53.25910 | 12.20239 | 135° | 146km/h | 6429m | -4.1m/s | -17.8°C | 29.4% | 455.4hPa | 2.6V | 07:41:17 | 03:03:30 | 00:00:00 | |
| AA1-15 | 2026-09-06 01:23:19 | 53.25961 | 12.20152 | 134° | 142km/h | 6437m | -4.5m/s | -17.9°C | 29.9% | 454.8hPa | 2.5V | 07:41:17 | 03:03:28 | 00:00:00 | |
| DL1XH1-15 | 2026-09-06 01:23:18 | 53.26113 | 12.19878 | 134° | 151km/h | 6464m | -4.5m/s | -18.2°C | 28.7% | 453.1hPa | 2.5V | 07:40:40 | 03:03:22 | 00:00:00 | |
| DO2SHX-10 | 2026-09-06 01:23:18 | 53.25986 | 12.20108 | 133° | 146km/h | 6442m | -3.8m/s | -17.9°C | 28.4% | 454.4hPa | 2.6V | 00:00:00 | 03:03:27 | 00:00:00 | |
| DL1XH-15 | 2026-09-06 01:23:17 | 53.26139 | 12.19832 | 134° | 150km/h | 6468m | -4.7m/s | -18.2°C | 28.3% | 452.9hPa | 2.6V | 07:40:41 | 03:03:21 | 00:00:00 | |
| DL1XH-west | 2026-09-06 01:23:13 | 53.26113 | 12.19878 | 134° | 151km/h | 6464m | -4.5m/s | -18.2°C | 30.7% | 453.2hPa | 2.5V | 07:41:17 | 03:03:22 | 00:00:00 | |
| DO2SHX-10 | 2026-09-06 01:23:12 | 53.26139 | 12.19832 | 135° | 148km/h | 6468m | -4.7m/s | -18.2°C | 28.3% | 452.8hPa | 2.6V | 00:00:00 | 03:03:21 | 00:00:00 | |
| DB0DAN | 2026-09-06 01:23:10 | 53.26192 | 12.19744 | 135° | 139km/h | 6477m | -4.7m/s | -18.3°C | 26.4% | 452.38hPa | 2.5V | 00:00:00 | 00:00:00 | 00:00:00 | |
| DF8AY | 2026-09-06 01:23:10 | 53.26192 | 12.19744 | 135° | 144km/h | 6477m | -4.7m/s | -18.3°C | 30.2% | 452.4hPa | 2.5V | 07:41:17 | 03:03:19 | 00:00:00 | |
| DO2SHX-10 | 2026-09-06 01:23:09 | 53.26218 | 12.19701 | 135° | 142km/h | 6482m | -4.6m/s | -18.3°C | 28.3% | 452.0hPa | 2.5V | 07:40:00 | 03:03:18 | 00:00:00 | |
| DL1XH1-15 | 2026-09-06 01:23:08 | 53.26365 | 12.19430 | 131° | 151km/h | 6510m | -4.4m/s | -18.6°C | 28.4% | 450.4hPa | 2.5V | 07:40:50 | 03:03:12 | 00:00:00 | |
| D01LWL | 2026-09-06 01:23:08 | 53.26243 | 12.19658 | 133° | 141km/h | 6486m | -4.4m/s | -18.4°C | 26.5% | 451.8hPa | 2.6V | 00:00:00 | 00:00:00 | 00:00:00 | |
| AA1-15 | 2026-09-06 01:23:08 | 53.26243 | 12.19658 | 134° | 141km/h | 6486m | -4.4m/s | -18.4°C | 30.3% | 451.8hPa | 2.6V | 07:41:17 | 03:03:17 | 00:00:00 | |
| DL1XH-15 | 2026-09-06 01:23:07 | 53.26390 | 12.19382 | 132° | 151km/h | 6514m | -4.5m/s | -18.6°C | 28.5% | 450.1hPa | 2.6V | 07:40:51 | 03:03:11 | 00:00:00 | |
| DL1XH-west | 2026-09-06 01:23:02 | 53.26390 | 12.19382 | 132° | 151km/h | 6514m | -4.5m/s | -18.6°C | 30.5% | 450.1hPa | 2.6V | 07:41:17 | 03:03:11 | 00:00:00 | |
| DF8AY | 2026-09-06 01:23:00 | 53.26442 | 12.19288 | 134° | 153km/h | 6523m | -4.1m/s | -18.7°C | 32.3% | 449.6hPa | 2.6V | 07:41:17 | 03:03:09 | 00:00:00 | |
| AA1-15 | 2026-09-06 01:22:58 | 53.26496 | 12.19198 | 135° | 148km/h | 6532m | -4.5m/s | -18.8°C | 37.4% | 449.1hPa | 2.5V | 07:41:17 | 03:03:07 | 00:00:00 | |
| DL1XH-15 | 2026-09-06 01:22:57 | 53.26645 | 12.18934 | 130° | 144km/h | 6558m | -4.6m/s | -19.1°C | 41.8% | 447.4hPa | 2.5V | 07:41:01 | 03:03:01 | 00:00:00 | |
| DM0DOS-11 | 2026-09-06 01:22:57 | 53.26597 | 12.19024 | 132° | 142km/h | 6549m | -4.5m/s | -19°C | 38.9% | 447.9hPa | 2.5V | 07:40:59 | 03:03:03 | 00:00:00 | |
| SONCRA | 2026-09-06 01:22:56 | 53.26548 | 12.19111 | 134° | 141km/h | 6540m | -4.4m/s | -18.9°C | 36.6% | 448.6hPa | 2.6V | 00:00:00 | 00:00:00 | 00:00:00 | |
| DB0DAN | 2026-09-06 01:22:55 | 53.26573 | 12.19068 | 133° | 135km/h | 6545m | -4.5m/s | -19°C | 36.2% | 448.22hPa | 2.6V | 00:00:00 | 00:00:00 | 00:00:00 | |
| DL1XH-west | 2026-09-06 01:22:52 | 53.26644 | 12.18934 | 130° | 144km/h | 6558m | -4.6m/s | -19.1°C | 43% | 447.4hPa | 2.5V | 07:41:17 | 03:03:01 | 00:00:00 | |
| DF8AY | 2026-09-06 01:22:50 | 53.26693 | 12.18839 | 131° | 150km/h | 6568m | -4.6m/s | -19.2°C | 45.2% | 446.8hPa | 2.6V | 07:41:17 | 03:02:59 | 00:00:00 | |
| DL1XH1-15 | 2026-09-06 01:22:48 | 53.26875 | 12.18517 | 134° | 144km/h | 6600m | -4.6m/s | -19.5°C | 55.7% | 444.9hPa | 2.6V | 07:41:10 | 03:02:52 | 00:00:00 | |
| AA1-15 | 2026-09-06 01:22:48 | 53.26744 | 12.18743 | 132° | 153km/h | 6578m | -4.5m/s | -19.3°C | 46.7% | 446.3hPa | 2.5V | 07:41:17 | 03:02:57 | 00:00:00 | |
| DL1XH-west | 2026-09-06 01:22:41 | 53.26925 | 12.18430 | 133° | 142km/h | 6610m | -4.5m/s | -19.5°C | 54.5% | 444.3hPa | 2.5V | 07:41:17 | 03:02:50 | 00:00:00 | |
| DB0DAN | 2026-09-06 01:22:40 | 53.26950 | 12.18386 | 132° | 137km/h | 6614m | -4.2m/s | -19.5°C | 51.8% | 444.02hPa | 2.5V | 00:00:00 | 00:00:00 | 00:00:00 | |
| DF8AY | 2026-09-06 01:22:39 | 53.26974 | 12.18340 | 132° | 146km/h | 6618m | -4.3m/s | -19.5°C | 54.5% | 443.8hPa | 2.5V | 07:41:17 | 03:02:48 | 00:00:00 | |
| DO2SHX-10 | 2026-09-06 01:22:39 | 53.26974 | 12.18340 | 132° | 148km/h | 6618m | -4.2m/s | -19.5°C | 55.0% | 443.7hPa | 2.6V | 00:00:00 | 03:02:48 | 00:00:00 | |
| DL1XH-15 | 2026-09-06 01:22:37 | 53.27155 | 12.18022 | 135° | 144km/h | 6651m | -4.8m/s | -19.8°C | 57% | 441.8hPa | 2.6V | 07:41:21 | 03:02:41 | 00:00:00 | |
| DM0DOS-11 | 2026-09-06 01:22:37 | 53.27103 | 12.18110 | 134° | 148km/h | 6642m | -4.7m/s | -19.7°C | 56.3% | 442.3hPa | 2.5V | 07:41:19 | 03:02:43 | 00:00:00 | |
| AA1-15 | 2026-09-06 01:22:37 | 53.27025 | 12.18248 | 132° | 150km/h | 6627m | -5.4m/s | -19.6°C | 55% | 443.2hPa | 2.6V | 07:41:17 | 03:02:46 | 00:00:00 | |
| DF8AY | 2026-09-06 01:22:33 | 53.27257 | 12.17849 | 133° | 146km/h | 6670m | -4.5m/s | -19.9°C | 58.1% | 440.7hPa | 2.5V | 07:42:08 | 03:02:37 | 00:00:00 | |
| DL1XH-west | 2026-09-06 01:22:30 | 53.27207 | 12.17936 | 134° | 142km/h | 6661m | -4.7m/s | -19.8°C | 57% | 441.3hPa | 2.6V | 07:42:08 | 03:02:39 | 00:00:00 | |
| DO2SHX-10 | 2026-09-06 01:22:30 | 53.27206 | 12.17936 | 135° | 144km/h | 6661m | -4.6m/s | -19.8°C | 58.1% | 441.2hPa | 2.5V | 00:00:00 | 03:02:39 | 00:00:00 | |
| DM0DOS-11 | 2026-09-06 01:22:27 | 53.27361 | 12.17667 | 135° | 150km/h | 6689m | -5.1m/s | -19.9°C | 58.7% | 439.5hPa | 2.5V | 07:41:29 | 03:02:33 | 00:00:00 | |
| DL1XH-15 | 2026-09-06 01:22:27 | 53.27414 | 12.17580 | 135° | 144km/h | 6699m | -4.9m/s | -19.9°C | 56.2% | 439hPa | 2.5V | 07:41:31 | 03:02:31 | 00:00:00 | |
| AA1-15 | 2026-09-06 01:22:26 | 53.27308 | 12.17758 | 133° | 150km/h | 6680m | -5m/s | -19.9°C | 58.5% | 440.1hPa | 2.6V | 07:42:08 | 03:02:35 | 00:00:00 | |
| DL1XH-west | 2026-09-06 01:22:20 | 53.27465 | 12.17495 | 134° | 141km/h | 6708m | -4.7m/s | -20°C | 53.2% | 438.4hPa | 2.6V | 07:42:08 | 03:02:29 | 00:00:00 | |
| EDDB2-12 | 2026-09-06 01:22:20 | 53.27490 | 12.17453 | 133° | 141km/h | 6713m | -5.1m/s | -20.0°C | 49.4% | 438.1hPa | 2.6V | 00:00:00 | 00:00:00 | 00:00:00 | |
| DL1XH1-15 | 2026-09-06 01:22:18 | 53.27643 | 12.17186 | 135° | 148km/h | 6742m | -4.8m/s | -20.1°C | 53.7% | 436.4hPa | 2.6V | 07:41:40 | 03:02:22 | 00:00:00 | |
| DF8AY | 2026-09-06 01:22:17 | 53.27539 | 12.17365 | 133° | 144km/h | 6723m | -4.5m/s | -20°C | 53.2% | 437.6hPa | 2.5V | 07:42:08 | 03:02:26 | 00:00:00 | |
| AA1-15 | 2026-09-06 01:22:15 | 53.27590 | 12.17275 | 134° | 148km/h | 6732m | -5.1m/s | -20.1°C | 53.3% | 437hPa | 2.6V | 07:42:08 | 03:02:24 | 00:00:00 | |
| DO2SHX-10 | 2026-09-06 01:22:15 | 53.27590 | 12.17275 | 135° | 148km/h | 6733m | -5.0m/s | -20.0°C | 53.8% | 436.9hPa | 2.6V | 00:00:00 | 03:02:24 | 00:00:00 | |
| DO2SHX-10 | 2026-09-06 01:22:12 | 53.27670 | 12.17142 | 136° | 144km/h | 6747m | -4.9m/s | -20.1°C | 53.4% | 436.1hPa | 2.6V | 00:00:00 | 03:02:21 | 00:00:00 | |
| DB0DAN | 2026-09-06 01:22:10 | 53.27722 | 12.17057 | 135° | 137km/h | 6757m | -4.8m/s | -20.3°C | 49.6% | 435.58hPa | 2.6V | 00:00:00 | 00:00:00 | 00:00:00 | |
| DL1XH-west | 2026-09-06 01:22:09 | 53.27748 | 12.17015 | 134° | 142km/h | 6761m | -5m/s | -20.3°C | 50.6% | 435.3hPa | 2.6V | 07:42:08 | 03:02:18 | 00:00:00 | |
| DO2SHX-10 | 2026-09-06 01:22:09 | 53.27747 | 12.17014 | 135° | 144km/h | 6761m | -4.9m/s | -20.2°C | 51.0% | 435.3hPa | 2.6V | 00:00:00 | 03:02:18 | 00:00:00 | |
| AM1SDL-15 | 2026-09-06 01:22:08 | 53.27772 | 12.16971 | 134° | 146km/h | 6766m | -5.0m/s | -20.3°C | 49.2% | 435.0hPa | 2.6V | 00:00:00 | 03:02:17 | 00:00:00 | |
| DM0DOS-11 | 2026-09-06 01:22:07 | 53.27874 | 12.16791 | 134° | 148km/h | 6785m | -4.5m/s | -20.3°C | 34.4% | 433.9hPa | 2.6V | 07:41:49 | 03:02:13 | 00:00:00 | |
| DF8AY | 2026-09-06 01:22:07 | 53.27797 | 12.16927 | 133° | 144km/h | 6771m | -4.5m/s | -20.3°C | 48.8% | 434.8hPa | 2.5V | 07:42:08 | 03:02:16 | 00:00:00 | |
| AA1-15 | 2026-09-06 01:22:05 | 53.27848 | 12.16836 | 134° | 148km/h | 6781m | -4.9m/s | -20.4°C | 41.8% | 434.1hPa | 2.6V | 07:42:08 | 03:02:14 | 00:00:00 | |
| DL1XH-west | 2026-09-06 01:21:58 | 53.28030 | 12.16532 | 134° | 144km/h | 6814m | -4.5m/s | -20.5°C | 37.2% | 432.2hPa | 2.6V | 07:42:08 | 03:02:07 | 00:00:00 | |
| DL1XH-15 | 2026-09-06 01:21:57 | 53.28186 | 12.16258 | 135° | 151km/h | 6844m | -4.7m/s | -20.7°C | 41.4% | 430.4hPa | 2.6V | 07:42:01 | 03:02:01 | 00:00:00 | |
| DM0DOS-11 | 2026-09-06 01:21:57 | 53.28133 | 12.16350 | 133° | 151km/h | 6834m | -5m/s | -20.7°C | 40.8% | 431.1hPa | 2.6V | 07:41:59 | 03:02:03 | 00:00:00 | |
| DF8AY | 2026-09-06 01:21:56 | 53.28080 | 12.16442 | 133° | 148km/h | 6824m | -5.1m/s | -20.6°C | 40.8% | 431.6hPa | 2.5V | 07:42:08 | 03:02:05 | 00:00:00 | |
| AA1-15 | 2026-09-06 01:21:55 | 53.28106 | 12.16396 | 133° | 151km/h | 6829m | -4.8m/s | -20.6°C | 40.8% | 431.3hPa | 2.5V | 07:42:08 | 03:02:04 | 00:00:00 | |
| DJ2DS-15 | 2026-09-06 01:21:55 | 53.28106 | 12.16396 | 134° | 153km/h | 6829m | -4.8m/s | -20.6°C | 40.1% | 431.3hPa | 2.5V | 00:00:00 | 03:02:04 | 00:00:00 | |
| DO2SHX-10 | 2026-09-06 01:21:54 | 53.28133 | 12.16350 | 134° | 151km/h | 6834m | -4.9m/s | -20.6°C | 40.8% | 431.0hPa | 2.5V | 00:00:00 | 03:02:03 | 00:00:00 | |
| DO2SHX-10 | 2026-09-06 01:21:51 | 53.28214 | 12.16212 | 136° | 151km/h | 6849m | -4.9m/s | -20.7°C | 41.1% | 430.1hPa | 2.5V | 00:00:00 | 03:02:00 | 00:00:00 | |
| DO2SHX-10 | 2026-09-06 01:21:48 | 53.28297 | 12.16080 | 137° | 150km/h | 6863m | -4.5m/s | -20.8°C | 40.6% | 429.3hPa | 2.5V | 00:00:00 | 03:01:57 | 00:00:00 | |
| DL1XH-15 | 2026-09-06 01:21:47 | 53.28461 | 12.15808 | 135° | 157km/h | 6893m | -5.1m/s | -20.9°C | 50.3% | 427.7hPa | 2.5V | 07:42:11 | 03:01:51 | 00:00:00 | |
| DM0DOS-11 | 2026-09-06 01:21:47 | 53.28405 | 12.15901 | 134° | 153km/h | 6883m | -4.5m/s | -20.9°C | 46.4% | 428.1hPa | 2.6V | 07:42:09 | 03:01:53 | 00:00:00 | |
| DL1XH-west | 2026-09-06 01:21:47 | 53.28324 | 12.16036 | 136° | 150km/h | 6868m | -5m/s | -20.9°C | 40.7% | 429.1hPa | 2.5V | 07:42:08 | 03:01:56 | 00:00:00 | |
| DF8AY | 2026-09-06 01:21:46 | 53.28351 | 12.15992 | 135° | 150km/h | 6873m | -4.8m/s | -20.9°C | 43.4% | 428.8hPa | 2.5V | 07:42:08 | 03:01:55 | 00:00:00 | |
| AA1-15 | 2026-09-06 01:21:44 | 53.28405 | 12.15901 | 135° | 153km/h | 6884m | -4.5m/s | -20.9°C | 45.8% | 428.1hPa | 2.6V | 07:42:59 | 03:01:53 | 00:00:00 | |
| DO2SHX-10 | 2026-09-06 01:21:42 | 53.28460 | 12.15808 | 136° | 157km/h | 6893m | -5.1m/s | -20.9°C | 50.3% | 427.6hPa | 2.5V | 00:00:00 | 03:01:51 | 00:00:00 | |
| DB0DAN | 2026-09-06 01:21:40 | 53.28518 | 12.15716 | 137° | 150km/h | 6904m | -5.1m/s | -21°C | 49.7% | 427.01hPa | 2.5V | 00:00:00 | 00:00:00 | 00:00:00 | |
| DO2SHX-10 | 2026-09-06 01:21:39 | 53.28547 | 12.15671 | 138° | 157km/h | 6909m | -4.6m/s | -20.9°C | 53.8% | 426.7hPa | 2.6V | 00:00:00 | 03:01:48 | 00:00:00 | |
| DL1XH1-15 | 2026-09-06 01:21:38 | 53.28722 | 12.15401 | 135° | 161km/h | 6938m | -4.7m/s | -21°C | 56.7% | 425hPa | 2.6V | 07:42:20 | 03:01:42 | 00:00:00 | |
| DM0DOS-11 | 2026-09-06 01:21:37 | 53.28693 | 12.15447 | 136° | 159km/h | 6933m | -4.8m/s | -21°C | 55.9% | 425.3hPa | 2.5V | 07:42:19 | 03:01:43 | 00:00:00 | |
| DL1XH-west | 2026-09-06 01:21:37 | 53.28606 | 12.15582 | 138° | 155km/h | 6918m | -5m/s | -21°C | 53.3% | 426.2hPa | 2.6V | 07:42:59 | 03:01:46 | 00:00:00 | |
| DF8AY | 2026-09-06 01:21:36 | 53.28664 | 12.15493 | 137° | 157km/h | 6928m | -4.8m/s | -21°C | 53.6% | 425.6hPa | 2.5V | 07:42:59 | 03:01:44 | 00:00:00 | |
| AA1-15 | 2026-09-06 01:21:34 | 53.28693 | 12.15447 | 136° | 159km/h | 6933m | -4.8m/s | -21°C | 54.1% | 425.3hPa | 2.5V | 07:42:59 | 03:01:43 | 00:00:00 | |
| DO2SHX-10 | 2026-09-06 01:21:33 | 53.28722 | 12.15401 | 136° | 162km/h | 6938m | -4.6m/s | -21.0°C | 56.7% | 425.0hPa | 2.6V | 07:42:00 | 03:01:42 | 00:00:00 | |
| AM1SDL-15 | 2026-09-06 01:21:32 | 53.28751 | 12.15353 | 136° | 162km/h | 6942m | -4.5m/s | -21.0°C | 57.6% | 424.7hPa | 2.5V | 00:00:00 | 03:01:41 | 00:00:00 | |
| DO2SHX-10 | 2026-09-06 01:21:30 | 53.28810 | 12.15257 | 137° | 164km/h | 6952m | -4.9m/s | -21.0°C | 58.7% | 424.1hPa | 2.5V | 00:00:00 | 03:01:39 | 00:00:00 | |
| DL1XH1-15 | 2026-09-06 01:21:28 | 53.29021 | 12.14936 | 136° | 157km/h | 6986m | -4.4m/s | -21°C | 59.2% | 422.2hPa | 2.5V | 07:42:30 | 03:01:32 | 00:00:00 | |
| DM0DOS-11 | 2026-09-06 01:21:27 | 53.28992 | 12.14981 | 137° | 157km/h | 6982m | -4.6m/s | -21°C | 58.9% | 422.5hPa | 2.5V | 07:42:29 | 03:01:33 | 00:00:00 | |
| DL1XH-west | 2026-09-06 01:21:27 | 53.28902 | 12.15116 | 138° | 162km/h | 6967m | -5.4m/s | -21°C | 56.7% | 423.3hPa | 2.6V | 07:42:59 | 03:01:36 | 00:00:00 | |
| DF8AY | 2026-09-06 01:21:25 | 53.28962 | 12.15026 | 138° | 157km/h | 6977m | -4.9m/s | -21°C | 56.4% | 422.8hPa | 2.6V | 07:42:59 | 03:01:34 | 00:00:00 | |
| DB0DAN | 2026-09-06 01:21:25 | 53.28962 | 12.15026 | 138° | 150km/h | 6977m | -4.9m/s | -21°C | 55.1% | 422.79hPa | 2.6V | 00:00:00 | 00:00:00 | 00:00:00 | |
| AA1-15 | 2026-09-06 01:21:24 | 53.28992 | 12.14981 | 138° | 157km/h | 6982m | -4.6m/s | -21°C | 56.7% | 422.5hPa | 2.5V | 07:42:59 | 03:01:33 | 00:00:00 | |
| DO2SHX-10 | 2026-09-06 01:21:24 | 53.28992 | 12.14981 | 138° | 157km/h | 6982m | -4.6m/s | -20.9°C | 58.9% | 422.4hPa | 2.5V | 00:00:00 | 03:01:33 | 00:00:00 | |
| SP3BTT-10 | 2026-09-06 01:21:23 | 53.29021 | 12.14936 | 137° | 166km/h | 6986m | -4.4m/s | -20.9°C | 59.2% | 422.1hPa | 2.5V | 00:00:00 | 00:00:00 | 00:00:00 | |
| DO2SHX-10 | 2026-09-06 01:21:21 | 53.29078 | 12.14842 | 136° | 162km/h | 6996m | -5.5m/s | -20.9°C | 59.3% | 421.6hPa | 2.6V | 00:00:00 | 03:01:30 | 00:00:00 | |
| AM1SDL-15 | 2026-09-06 01:21:20 | 53.29107 | 12.14794 | 136° | 161km/h | 7002m | -5.1m/s | -20.8°C | 59.6% | 421.3hPa | 2.6V | 07:42:00 | 03:01:29 | 00:00:00 | |
| DL1XH1-15 | 2026-09-06 01:21:18 | 53.29319 | 12.14467 | 137° | 157km/h | 7035m | -5m/s | -20.6°C | 57.3% | 419.4hPa | 2.6V | 07:42:40 | 03:01:22 | 00:00:00 | |
| DO2SHX-10 | 2026-09-06 01:21:18 | 53.29167 | 12.14697 | 137° | 164km/h | 7012m | -4.9m/s | -20.8°C | 60.1% | 420.8hPa | 2.5V | 00:00:00 | 03:01:27 | 00:00:00 | |
| DL1XH-15 | 2026-09-06 01:21:17 | 53.29348 | 12.14422 | 137° | 157km/h | 7040m | -5.2m/s | -20.6°C | 56.6% | 419.1hPa | 2.5V | 07:42:41 | 03:01:21 | 00:00:00 | |
| DM0DOS-11 | 2026-09-06 01:21:17 | 53.29289 | 12.14512 | 138° | 159km/h | 7030m | -4.7m/s | -20.7°C | 58.4% | 419.7hPa | 2.6V | 07:42:39 | 03:01:23 | 00:00:00 | |
| DL1XH-west | 2026-09-06 01:21:16 | 53.29228 | 12.14603 | 138° | 164km/h | 7021m | -5.1m/s | -20.8°C | 57.3% | 420.3hPa | 2.5V | 07:42:59 | 03:01:25 | 00:00:00 | |
| DF8AY | 2026-09-06 01:21:14 | 53.29289 | 12.14512 | 138° | 159km/h | 7030m | -4.7m/s | -20.7°C | 56.6% | 419.7hPa | 2.6V | 07:42:59 | 03:01:23 | 00:00:00 | |
| AA1-15 | 2026-09-06 01:21:13 | 53.29319 | 12.14467 | 138° | 157km/h | 7035m | -5m/s | -20.7°C | 55.8% | 419.4hPa | 2.6V | 07:42:59 | 03:01:22 | 00:00:00 | |
| DO2SHX-10 | 2026-09-06 01:21:12 | 53.29348 | 12.14422 | 138° | 157km/h | 7040m | -5.1m/s | -20.6°C | 56.6% | 419.1hPa | 2.6V | 00:00:00 | 03:01:21 | 00:00:00 | |
| S3001 | 2026-09-06 01:21:10 | 53.29405 | 12.14330 | 135° | 157km/h | 7050m | -4.9m/s | -20.7°C | 51.2% | 418.6hPa | 2.6V | 00:00:00 | 00:00:00 | 00:00:00 | |
| DO2SHX-10 | 2026-09-06 01:21:09 | 53.29434 | 12.14283 | 136° | 164km/h | 7055m | -5.1m/s | -20.7°C | 53.4% | 418.3hPa | 2.6V | 07:42:00 | 03:01:18 | 00:00:00 | |
| AM1SDL-15 | 2026-09-06 01:21:08 | 53.29463 | 12.14235 | 136° | 162km/h | 7060m | -4.9m/s | -20.7°C | 52.7% | 418.0hPa | 2.6V | 00:00:00 | 03:01:17 | 00:00:00 | |
| DM0DOS-11 | 2026-09-06 01:21:07 | 53.29620 | 12.13999 | 139° | 166km/h | 7083m | -4.7m/s | -20.9°C | 50.4% | 416.7hPa | 2.6V | 07:42:50 | 03:01:12 | 00:00:00 | |
| DL1XH-15 | 2026-09-06 01:21:07 | 53.29652 | 12.13954 | 139° | 164km/h | 7088m | -5.5m/s | -20.9°C | 50.2% | 416.4hPa | 2.6V | 07:42:51 | 03:01:11 | 00:00:00 | |
| DL1XH-west | 2026-09-06 01:21:06 | 53.29525 | 12.14139 | 138° | 168km/h | 7070m | -4.7m/s | -20.8°C | 50.5% | 417.5hPa | 2.5V | 07:42:59 | 03:01:15 | 00:00:00 | |
| DF8AY | 2026-09-06 01:21:04 | 53.29588 | 12.14045 | 139° | 166km/h | 7079m | -5m/s | -20.8°C | 50.2% | 417hPa | 2.6V | 07:42:59 | 03:01:13 | 00:00:00 | |
| AA1-15 | 2026-09-06 01:21:03 | 53.29620 | 12.13999 | 139° | 166km/h | 7084m | -4.7m/s | -20.9°C | 50.1% | 416.7hPa | 2.6V | 07:42:59 | 03:01:12 | 00:00:00 | |
| DO2SHX-10 | 2026-09-06 01:21:03 | 53.29620 | 12.13999 | 140° | 164km/h | 7084m | -4.7m/s | -20.8°C | 50.4% | 416.6hPa | 2.5V | 00:00:00 | 03:01:12 | 00:00:00 | |
| SONDE2-11 | 2026-09-06 01:20:59 | 53.29744 | 12.13822 | 138° | 157km/h | 7103m | -4.6m/s | -21.0°C | 46.3% | 415.6hPa | 2.5V | 00:00:00 | 00:00:00 | 00:00:00 | |
| DL1XH1-15 | 2026-09-06 01:20:58 | 53.29926 | 12.13544 | 138° | 166km/h | 7131m | -4.9m/s | -21.1°C | 44.5% | 413.9hPa | 2.5V | 07:43:00 | 03:01:02 | 00:00:00 | |
| DL1XH-15 | 2026-09-06 01:20:57 | 53.29958 | 12.13497 | 138° | 166km/h | 7136m | -5.1m/s | -21.1°C | 44.2% | 413.6hPa | 2.6V | 07:43:01 | 03:01:01 | 00:00:00 | |
| DL1XH-west | 2026-09-06 01:20:55 | 53.29864 | 12.13639 | 137° | 164km/h | 7121m | -5.3m/s | -21.1°C | 46.2% | 414.5hPa | 2.5V | 07:42:59 | 03:01:04 | 00:00:00 | |
| DF8AY | 2026-09-06 01:20:53 | 53.29926 | 12.13544 | 138° | 166km/h | 7132m | -4.9m/s | -21.1°C | 44.7% | 413.9hPa | 2.5V | 07:43:50 | 03:01:02 | 00:00:00 | |
| AA1-15 | 2026-09-06 01:20:52 | 53.29957 | 12.13497 | 139° | 166km/h | 7136m | -5.1m/s | -21.1°C | 44.4% | 413.6hPa | 2.6V | 07:43:50 | 03:01:01 | 00:00:00 | |
| SONCRA | 2026-09-06 01:20:52 | 53.29989 | 12.13451 | 138° | 164km/h | 7141m | -5.3m/s | -21.2°C | 41.1% | 413.3hPa | 2.5V | 00:00:00 | 00:00:00 | 00:00:00 | |
| SMARD9-15 | 2026-09-06 01:20:49 | 53.30051 | 12.13360 | 138° | 161km/h | 7151m | -4.6m/s | -21.2°C | 39.5% | 412.9hPa | 2.5V | 00:00:00 | 00:00:00 | 00:00:00 | |
| DL1XH1-15 | 2026-09-06 01:20:48 | 53.30236 | 12.13078 | 138° | 168km/h | 7180m | -4.9m/s | -20.9°C | 33% | 411.2hPa | 2.5V | 07:43:10 | 03:00:52 | 00:00:00 | |
| DJ2DS-15 | 2026-09-06 01:20:47 | 53.30112 | 12.13268 | 137° | 162km/h | 7160m | -5.1m/s | -21.1°C | 35.6% | 412.3hPa | 2.5V | 00:00:00 | 00:00:00 | 00:00:00 | |
| DL1XH-15 | 2026-09-06 01:20:47 | 53.30268 | 12.13031 | 139° | 168km/h | 7185m | -4.9m/s | -21°C | 32.8% | 410.8hPa | 2.5V | 07:43:11 | 03:00:51 | 00:00:00 | |
| DM0DOS-11 | 2026-09-06 01:20:46 | 53.30300 | 12.12985 | 139° | 164km/h | 7189m | -5m/s | -21°C | 32.6% | 410.6hPa | 2.5V | 07:43:12 | 03:00:50 | 00:00:00 | |
| DL1XH-west | 2026-09-06 01:20:45 | 53.30174 | 12.13173 | 137° | 168km/h | 7170m | -5.2m/s | -20.9°C | 34.6% | 411.7hPa | 2.6V | 07:43:50 | 03:00:54 | 00:00:00 | |
| DF8AY | 2026-09-06 01:20:43 | 53.30236 | 12.13078 | 138° | 168km/h | 7180m | -4.9m/s | -21°C | 34.4% | 411.2hPa | 2.5V | 07:43:50 | 03:00:52 | 00:00:00 | |
| AA1-15 | 2026-09-06 01:20:42 | 53.30268 | 12.13031 | 139° | 168km/h | 7185m | -4.9m/s | -21°C | 34.2% | 410.8hPa | 2.5V | 07:43:50 | 03:00:51 | 00:00:00 | |
| DO2SHX-10 | 2026-09-06 01:20:42 | 53.30268 | 12.13031 | 140° | 164km/h | 7185m | -4.8m/s | -20.9°C | 32.8% | 410.8hPa | 2.6V | 00:00:00 | 03:00:51 | 00:00:00 | |
| MECKS9 | 2026-09-06 01:20:41 | 53.30268 | 12.13031 | 140° | 168km/h | 7185m | -4.9m/s | -21.0°C | 30.5% | 410.8hPa | 2.6V | 00:00:00 | 00:00:00 | 00:00:00 | |
| DO2SHX-10 | 2026-09-06 01:20:39 | 53.30362 | 12.12896 | 139° | 159km/h | 7199m | -4.6m/s | -21.0°C | 32.3% | 410.1hPa | 2.6V | 00:00:00 | 03:00:48 | 00:00:00 | |
| DL1XH-15 | 2026-09-06 01:20:37 | 53.30573 | 12.12564 | 137° | 172km/h | 7232m | -4.8m/s | -21.2°C | 30% | 408.3hPa | 2.6V | 07:43:21 | 03:00:41 | 00:00:00 | |
| DM0DOS-11 | 2026-09-06 01:20:36 | 53.30605 | 12.12516 | 138° | 172km/h | 7237m | -5.1m/s | -21.2°C | 29.7% | 408hPa | 2.5V | 07:43:22 | 03:00:40 | 00:00:00 | |
| DL1XH-west | 2026-09-06 01:20:35 | 53.30481 | 12.12712 | 136° | 164km/h | 7218m | -4.9m/s | -21.2°C | 32.6% | 409hPa | 2.5V | 07:43:50 | 03:00:44 | 00:00:00 | |
| DF8AY | 2026-09-06 01:20:32 | 53.30702 | 12.12373 | 139° | 168km/h | 7252m | -4.9m/s | -21.3°C | 29.3% | 407.2hPa | 2.6V | 07:43:50 | 03:00:37 | 00:00:00 | |
| AA1-15 | 2026-09-06 01:20:31 | 53.30605 | 12.12516 | 138° | 172km/h | 7237m | -5.1m/s | -21.3°C | 31.2% | 408hPa | 2.5V | 07:43:50 | 03:00:40 | 00:00:00 | |
| DO2SHX-10 | 2026-09-06 01:20:30 | 53.30638 | 12.12467 | 139° | 170km/h | 7242m | -4.8m/s | -21.2°C | 29.4% | 407.7hPa | 2.5V | 00:00:00 | 03:00:39 | 00:00:00 | |
| SONDE2-11 | 2026-09-06 01:20:28 | 53.30702 | 12.12373 | 138° | 168km/h | 7252m | -4.9m/s | -21.3°C | 25.7% | 407.2hPa | 2.6V | 00:00:00 | 00:00:00 | 00:00:00 | |
| DL1XH-15 | 2026-09-06 01:20:27 | 53.30886 | 12.12085 | 135° | 170km/h | 7279m | -5m/s | -21.4°C | 24.6% | 405.6hPa | 2.6V | 07:43:31 | 03:00:31 | 00:00:00 | |
| DO2SHX-10 | 2026-09-06 01:20:27 | 53.30734 | 12.12326 | 139° | 164km/h | 7257m | -4.6m/s | -21.3°C | 27.5% | 406.9hPa | 2.6V | 00:00:00 | 03:00:36 | 00:00:00 | |
| DM0DOS-11 | 2026-09-06 01:20:26 | 53.30917 | 12.12035 | 135° | 172km/h | 7284m | -5.1m/s | -21.4°C | 24.2% | 405.4hPa | 2.6V | 07:43:32 | 03:00:30 | 00:00:00 | |
| DL1XH-west | 2026-09-06 01:20:24 | 53.30826 | 12.12184 | 136° | 166km/h | 7270m | -4.7m/s | -21.4°C | 28.8% | 406.2hPa | 2.5V | 07:43:50 | 03:00:33 | 00:00:00 | |
| AA1-15 | 2026-09-06 01:20:20 | 53.30949 | 12.11984 | 137° | 173km/h | 7289m | -5.2m/s | -21.4°C | 25.3% | 405.2hPa | 2.6V | 07:43:50 | 03:00:29 | 00:00:00 | |
| DL1XH1-15 | 2026-09-06 01:20:18 | 53.31169 | 12.11650 | 135° | 162km/h | 7322m | -4.9m/s | -21.5°C | 26.2% | 403.4hPa | 2.5V | 07:43:40 | 03:00:22 | 00:00:00 | |
| DF8AY | 2026-09-06 01:20:17 | 53.31046 | 12.11837 | 139° | 170km/h | 7304m | -5m/s | -21.4°C | 25.4% | 404.4hPa | 2.5V | 07:43:50 | 03:00:26 | 00:00:00 | |
| SP3BTT-10 | 2026-09-06 01:20:17 | 53.31046 | 12.11837 | 139° | 170km/h | 7304m | -4.9m/s | -21.4°C | 23.8% | 404.4hPa | 2.5V | 00:00:00 | 00:00:00 | 00:00:00 | |
| DM0DOS-11 | 2026-09-06 01:20:16 | 53.31227 | 12.11553 | 134° | 164km/h | 7332m | -5.1m/s | -21.6°C | 28.9% | 402.9hPa | 2.5V | 07:43:42 | 03:00:20 | 00:00:00 | |
| DL1XH-west | 2026-09-06 01:20:13 | 53.31169 | 12.11650 | 136° | 162km/h | 7322m | -4.9m/s | -21.5°C | 28.1% | 403.4hPa | 2.5V | 07:43:50 | 03:00:22 | 00:00:00 | |
| AA1-15 | 2026-09-06 01:20:10 | 53.31256 | 12.11503 | 134° | 166km/h | 7337m | -4.7m/s | -21.6°C | 31.3% | 402.6hPa | 2.6V | 07:43:50 | 03:00:19 | 00:00:00 | |
| DO2SHX-10 | 2026-09-06 01:20:09 | 53.31285 | 12.11452 | 134° | 172km/h | 7341m | -5.0m/s | -21.6°C | 30.7% | 402.3hPa | 2.6V | 00:00:00 | 03:00:18 | 00:00:00 | |
| DL1XH1-15 | 2026-09-06 01:20:08 | 53.31474 | 12.11143 | 138° | 173km/h | 7370m | -4.7m/s | -21.9°C | 43% | 400.8hPa | 2.6V | 07:43:50 | 03:00:12 | 00:00:00 | |
| AM1SDL-15 | 2026-09-06 01:20:08 | 53.31315 | 12.11400 | 134° | 172km/h | 7347m | -4.7m/s | -21.7°C | 32.9% | 402.0hPa | 2.6V | 00:00:00 | 03:00:17 | 00:00:00 | |
| DL1XH-15 | 2026-09-06 01:20:07 | 53.31507 | 12.11094 | 138° | 172km/h | 7375m | -4.8m/s | -21.9°C | 43.5% | 400.6hPa | 2.6V | 07:43:51 | 03:00:11 | 00:00:00 | |
| DF8AY | 2026-09-06 01:20:07 | 53.31346 | 12.11347 | 135° | 175km/h | 7351m | -4.7m/s | -21.8°C | 38.2% | 401.8hPa | 2.5V | 07:43:50 | 03:00:16 | 00:00:00 | |
| DL1XH-west | 2026-09-06 01:20:02 | 53.31507 | 12.11094 | 138° | 172km/h | 7375m | -4.8m/s | -22°C | 44.3% | 400.6hPa | 2.6V | 07:44:41 | 03:00:11 | 00:00:00 | |
| AA1-15 | 2026-09-06 01:19:59 | 53.31602 | 12.10951 | 137° | 164km/h | 7389m | -4.3m/s | -22.1°C | 45.8% | 399.9hPa | 2.5V | 07:44:41 | 03:00:08 | 00:00:00 | |
| DM0DOS-11 | 2026-09-06 01:19:57 | 53.31691 | 12.10803 | 133° | 168km/h | 7403m | -4.4m/s | -22.2°C | 46.5% | 399.1hPa | 2.6V | 07:43:57 | 03:00:05 | 00:00:00 | |
| DL1XH-15 | 2026-09-06 01:19:57 | 53.31812 | 12.10593 | 134° | 175km/h | 7421m | -4.6m/s | -22.3°C | 47.4% | 398.1hPa | 2.6V | 07:44:01 | 03:00:01 | 00:00:00 | |
| DF8AY | 2026-09-06 01:19:57 | 53.31691 | 12.10803 | 134° | 168km/h | 7403m | -4.4m/s | -22.2°C | 46.9% | 399.1hPa | 2.6V | 07:44:41 | 03:00:05 | 00:00:00 | |
| DO2SHX-10 | 2026-09-06 01:19:57 | 53.31662 | 12.10854 | 135° | 168km/h | 7398m | -4.7m/s | -22.1°C | 46.2% | 399.2hPa | 2.5V | 07:43:00 | 03:00:06 | 00:00:00 | |
| DB0DAN | 2026-09-06 01:19:55 | 53.31720 | 12.10751 | 133° | 162km/h | 7408m | -4.7m/s | -22.2°C | 43.8% | 398.83hPa | 2.5V | 00:00:00 | 00:00:00 | 00:00:00 | |
| DL1XH-west | 2026-09-06 01:19:51 | 53.31844 | 12.10541 | 136° | 175km/h | 7426m | -4.2m/s | -22.4°C | 47.5% | 397.8hPa | 2.6V | 07:44:41 | 03:00:00 | 00:00:00 | |
| SONCRA | 2026-09-06 01:19:50 | 53.31908 | 12.10440 | 137° | 173km/h | 7435m | -4.7m/s | -22.4°C | 44.0% | 397.3hPa | 2.5V | 00:00:00 | 00:00:00 | 00:00:00 | |
| DL1XH1-15 | 2026-09-06 01:19:48 | 53.32096 | 12.10145 | 135° | 170km/h | 7463m | -4.6m/s | -22.4°C | 43% | 395.8hPa | 2.5V | 07:44:10 | 02:59:52 | 00:00:00 | |
| AA1-15 | 2026-09-06 01:19:48 | 53.31940 | 12.10391 | 137° | 172km/h | 7440m | -4.6m/s | -22.4°C | 46.5% | 397.1hPa | 2.5V | 07:44:41 | 02:59:57 | 00:00:00 | |
| DO2SHX-10 | 2026-09-06 01:19:48 | 53.31940 | 12.10390 | 138° | 170km/h | 7440m | -4.6m/s | -22.4°C | 46.4% | 397.1hPa | 2.6V | 00:00:00 | 02:59:57 | 00:00:00 | |
| DM0DOS-11 | 2026-09-06 01:19:47 | 53.32034 | 12.10244 | 136° | 168km/h | 7454m | -5.1m/s | -22.5°C | 45.4% | 396.3hPa | 2.6V | 07:44:08 | 02:59:54 | 00:00:00 | |
| DF8AY | 2026-09-06 01:19:45 | 53.32034 | 12.10244 | 137° | 168km/h | 7454m | -5.1m/s | -22.5°C | 45.4% | 396.3hPa | 2.6V | 07:44:41 | 02:59:54 | 00:00:00 | |
| EDDB2-12 | 2026-09-06 01:19:44 | 53.32065 | 12.10195 | 136° | 168km/h | 7459m | -4.7m/s | -22.5°C | 41.7% | 396.1hPa | 2.5V | 00:00:00 | 00:00:00 | 00:00:00 | |
| DL1XH-west | 2026-09-06 01:19:41 | 53.32159 | 12.10043 | 135° | 175km/h | 7472m | -4.6m/s | -22.3°C | 40.5% | 395.4hPa | 2.5V | 07:44:41 | 02:59:50 | 00:00:00 | |
| DO2SHX-10 | 2026-09-06 01:19:39 | 53.32223 | 12.09939 | 137° | 175km/h | 7481m | -4.5m/s | -22.3°C | 39.6% | 394.8hPa | 2.5V | 00:00:00 | 02:59:48 | 00:00:00 | |
| DL1XH1-15 | 2026-09-06 01:19:38 | 53.32414 | 12.09643 | 136° | 168km/h | 7508m | -4.6m/s | -22.5°C | 38.8% | 393.4hPa | 2.5V | 07:44:20 | 02:59:42 | 00:00:00 | |
| AA1-15 | 2026-09-06 01:19:37 | 53.32288 | 12.09838 | 138° | 173km/h | 7490m | -4.5m/s | -22.4°C | 40.5% | 394.4hPa | 2.5V | 07:44:41 | 02:59:46 | 00:00:00 | |
| DL1XH-15 | 2026-09-06 01:19:37 | 53.32444 | 12.09593 | 135° | 170km/h | 7512m | -4.6m/s | -22.5°C | 38.6% | 393.1hPa | 2.6V | 07:44:21 | 02:59:41 | 00:00:00 | |
| DM0DOS-11 | 2026-09-06 01:19:37 | 53.32352 | 12.09740 | 137° | 168km/h | 7499m | -4.2m/s | -22.4°C | 39.1% | 393.8hPa | 2.6V | 07:44:18 | 02:59:44 | 00:00:00 | |
| DF8AY | 2026-09-06 01:19:35 | 53.32352 | 12.09740 | 137° | 168km/h | 7499m | -4.2m/s | -22.4°C | 40.2% | 393.8hPa | 2.6V | 07:44:41 | 02:59:44 | 00:00:00 | |
| DL1XH-west | 2026-09-06 01:19:31 | 53.32475 | 12.09543 | 136° | 172km/h | 7517m | -4.5m/s | -22.5°C | 38.9% | 392.9hPa | 2.6V | 07:44:41 | 02:59:40 | 00:00:00 | |
| D01LWL | 2026-09-06 01:19:31 | 53.32506 | 12.09492 | 136° | 172km/h | 7521m | -4.4m/s | -22.5°C | 34.1% | 392.7hPa | 2.5V | 00:00:00 | 00:00:00 | 00:00:00 | |
| DO2SHX-10 | 2026-09-06 01:19:30 | 53.32506 | 12.09492 | 137° | 173km/h | 7522m | -4.3m/s | -22.5°C | 36.7% | 392.7hPa | 2.5V | 00:00:00 | 02:59:39 | 00:00:00 | |
| DL1XH1-15 | 2026-09-06 01:19:28 | 53.32730 | 12.09149 | 136° | 170km/h | 7552m | -4.4m/s | -22.6°C | 24.9% | 391hPa | 2.5V | 07:44:30 | 02:59:32 | 00:00:00 | |
| DL1XH-15 | 2026-09-06 01:19:27 | 53.32761 | 12.09099 | 136° | 172km/h | 7556m | -4.3m/s | -22.5°C | 24.4% | 390.8hPa | 2.5V | 07:44:31 | 02:59:31 | 00:00:00 | |
| DM0DOS-11 | 2026-09-06 01:19:27 | 53.32666 | 12.09246 | 137° | 170km/h | 7543m | -4.4m/s | -22.6°C | 29.5% | 391.5hPa | 2.6V | 07:44:28 | 02:59:34 | 00:00:00 | |
| AA1-15 | 2026-09-06 01:19:26 | 53.32635 | 12.09294 | 138° | 170km/h | 7539m | -4.5m/s | -22.6°C | 32.5% | 391.8hPa | 2.6V | 07:44:41 | 02:59:35 | 00:00:00 | |
| DF8AY | 2026-09-06 01:19:24 | 53.32698 | 12.09198 | 137° | 170km/h | 7548m | -4.2m/s | -22.6°C | 28.4% | 391.3hPa | 2.5V | 07:44:41 | 02:59:33 | 00:00:00 | |
| DL1XH-west | 2026-09-06 01:19:20 | 53.32825 | 12.08999 | 138° | 175km/h | 7565m | -4.5m/s | -22.5°C | 23.8% | 390.3hPa | 2.6V | 07:44:41 | 02:59:29 | 00:00:00 | |
| SONCRA | 2026-09-06 01:19:19 | 53.32891 | 12.08901 | 138° | 172km/h | 7574m | -4.9m/s | -22.6°C | 18.5% | 389.8hPa | 2.6V | 00:00:00 | 00:00:00 | 00:00:00 | |
| DL1XH1-15 | 2026-09-06 01:19:18 | 53.33051 | 12.08665 | 136° | 168km/h | 7596m | -4.7m/s | -22.7°C | 18.5% | 388.7hPa | 2.6V | 07:44:40 | 02:59:22 | 00:00:00 | |
| DO2SHX-10 | 2026-09-06 01:19:18 | 53.32891 | 12.08901 | 139° | 172km/h | 7574m | -4.9m/s | -22.5°C | 20.2% | 389.8hPa | 2.5V | 00:00:00 | 02:59:27 | 00:00:00 | |
| DL1XH-15 | 2026-09-06 01:19:17 | 53.33081 | 12.08616 | 136° | 170km/h | 7600m | -4.8m/s | -22.8°C | 18.5% | 388.4hPa | 2.5V | 07:44:41 | 02:59:21 | 00:00:00 | |
| DM0DOS-11 | 2026-09-06 01:19:17 | 53.32988 | 12.08760 | 138° | 168km/h | 7587m | -4.5m/s | -22.6°C | 18.5% | 389.1hPa | 2.6V | 07:44:38 | 02:59:24 | 00:00:00 | |
| AA1-15 | 2026-09-06 01:19:15 | 53.32988 | 12.08760 | 139° | 168km/h | 7587m | -4.5m/s | -22.6°C | 20.3% | 389.1hPa | 2.6V | 07:44:41 | 02:59:24 | 00:00:00 | |
| DF8AY | 2026-09-06 01:19:13 | 53.33050 | 12.08665 | 137° | 168km/h | 7596m | -4.7m/s | -22.7°C | 20.2% | 388.7hPa | 2.6V | 07:44:41 | 02:59:22 | 00:00:00 | |
| DL1XH-west | 2026-09-06 01:19:10 | 53.33145 | 12.08516 | 137° | 175km/h | 7610m | -4.2m/s | -22.8°C | 19.7% | 388hPa | 2.5V | 07:45:32 | 02:59:19 | 00:00:00 | |
| DO2SHX-10 | 2026-09-06 01:19:09 | 53.33178 | 12.08466 | 139° | 175km/h | 7614m | -4.6m/s | -22.8°C | 17.6% | 387.7hPa | 2.6V | 07:44:00 | 02:59:18 | 00:00:00 | |
| AM1SDL-15 | 2026-09-06 01:19:08 | 53.33211 | 12.08417 | 139° | 172km/h | 7618m | -4.1m/s | -22.9°C | 17.3% | 387.4hPa | 2.5V | 00:00:00 | 02:59:17 | 00:00:00 | |
| DL1XH1-15 | 2026-09-06 01:19:08 | 53.33375 | 12.08181 | 138° | 168km/h | 7639m | -4.5m/s | -23.1°C | 16.9% | 386.4hPa | 2.5V | 07:44:50 | 02:59:12 | 00:00:00 | |
| DL1XH-15 | 2026-09-06 01:19:07 | 53.33406 | 12.08134 | 137° | 168km/h | 7643m | -3.9m/s | -23.1°C | 16.8% | 386.1hPa | 2.5V | 07:44:51 | 02:59:11 | 00:00:00 | |
| DM0DOS-11 | 2026-09-06 01:19:07 | 53.33311 | 12.08274 | 139° | 170km/h | 7631m | -4.3m/s | -23°C | 16.8% | 386.8hPa | 2.6V | 07:44:48 | 02:59:14 | 00:00:00 | |
| AA1-15 | 2026-09-06 01:19:04 | 53.33343 | 12.08228 | 139° | 168km/h | 7635m | -4.3m/s | -23.1°C | 18.5% | 386.5hPa | 2.6V | 07:45:32 | 02:59:13 | 00:00:00 | |
| DF8AY | 2026-09-06 01:19:02 | 53.33407 | 12.08134 | 138° | 168km/h | 7643m | -3.9m/s | -23.1°C | 18.4% | 386.1hPa | 2.5V | 07:45:32 | 02:59:11 | 00:00:00 | |
| DL1XH-west | 2026-09-06 01:19:00 | 53.33470 | 12.08038 | 138° | 172km/h | 7652m | -4.6m/s | -23.2°C | 17.8% | 385.7hPa | 2.6V | 07:45:32 | 02:59:09 | 00:00:00 | |
| D01LWL | 2026-09-06 01:19:00 | 53.33502 | 12.07989 | 138° | 172km/h | 7657m | -4.9m/s | -23.2°C | 14.7% | 385.4hPa | 2.6V | 00:00:00 | 00:00:00 | 00:00:00 | |
| DJ2DS-15 | 2026-09-06 01:18:59 | 53.33502 | 12.07989 | 138° | 172km/h | 7657m | -4.9m/s | -23.2°C | 14.7% | 385.4hPa | 2.6V | 00:00:00 | 00:00:00 | 00:00:00 | |
| DL1XH1-15 | 2026-09-06 01:18:58 | 53.33701 | 12.07710 | 139° | 166km/h | 7683m | -4.3m/s | -23.5°C | 15.8% | 384hPa | 2.6V | 07:45:00 | 02:59:02 | 00:00:00 | |
| DL1XH-15 | 2026-09-06 01:18:57 | 53.33733 | 12.07664 | 138° | 166km/h | 7688m | -4.9m/s | -23.5°C | 15.7% | 383.8hPa | 2.6V | 07:45:01 | 02:59:01 | 00:00:00 | |
| AA1-15 | 2026-09-06 01:18:54 | 53.33668 | 12.07755 | 141° | 168km/h | 7679m | -4.3m/s | -23.4°C | 17.3% | 384.3hPa | 2.6V | 07:45:32 | 02:59:03 | 00:00:00 | |
| DF8AY | 2026-09-06 01:18:53 | 53.33733 | 12.07664 | 139° | 166km/h | 7688m | -4.9m/s | -23.5°C | 17.2% | 383.8hPa | 2.6V | 07:45:32 | 02:59:01 | 00:00:00 | |
| DL1XH-west | 2026-09-06 01:18:50 | 53.33796 | 12.07569 | 138° | 170km/h | 7697m | -4m/s | -23.6°C | 17.1% | 383.4hPa | 2.5V | 07:45:32 | 02:58:59 | 00:00:00 | |
| DL1XH1-15 | 2026-09-06 01:18:48 | 53.34030 | 12.07239 | 141° | 170km/h | 7728m | -4.5m/s | -23.8°C | 15.2% | 381.8hPa | 2.6V | 07:45:10 | 02:58:52 | 00:00:00 | |
| DO2SHX-10 | 2026-09-06 01:18:48 | 53.33861 | 12.07472 | 139° | 175km/h | 7705m | -4.4m/s | -23.6°C | 15.7% | 382.9hPa | 2.5V | 00:00:00 | 02:58:57 | 00:00:00 | |
| DL1XH-15 | 2026-09-06 01:18:47 | 53.34064 | 12.07194 | 141° | 168km/h | 7732m | -4.3m/s | -23.8°C | 15.1% | 381.5hPa | 2.5V | 07:45:11 | 02:58:51 | 00:00:00 | |
| SMARD9-15 | 2026-09-06 01:18:45 | 53.33962 | 12.07329 | 140° | 172km/h | 7718m | -4.8m/s | -23.8°C | 13.9% | 382.3hPa | 2.6V | 00:00:00 | 00:00:00 | 00:00:00 | |
| AA1-15 | 2026-09-06 01:18:43 | 53.34030 | 12.07239 | 142° | 170km/h | 7728m | -4.5m/s | -23.8°C | 16.6% | 381.8hPa | 2.6V | 07:45:32 | 02:58:52 | 00:00:00 | |
| DF8AY | 2026-09-06 01:18:42 | 53.34064 | 12.07194 | 141° | 168km/h | 7732m | -4.3m/s | -23.8°C | 16.5% | 381.5hPa | 2.5V | 07:45:32 | 02:58:51 | 00:00:00 | |
| DL1XH-west | 2026-09-06 01:18:39 | 53.34161 | 12.07056 | 139° | 172km/h | 7745m | -4.3m/s | -24°C | 16.7% | 380.8hPa | 2.6V | 07:45:32 | 02:58:48 | 00:00:00 | |
| DL1XH1-15 | 2026-09-06 01:18:38 | 53.34366 | 12.06767 | 141° | 175km/h | 7771m | -4.2m/s | -24.1°C | 15.6% | 379.5hPa | 2.6V | 07:45:20 | 02:58:42 | 00:00:00 | |
| DL1XH-15 | 2026-09-06 01:18:37 | 53.34401 | 12.06721 | 141° | 175km/h | 7775m | -3.8m/s | -24.2°C | 15.7% | 379.2hPa | 2.6V | 07:45:21 | 02:58:41 | 00:00:00 | |
| AA1-15 | 2026-09-06 01:18:33 | 53.34366 | 12.06767 | 141° | 177km/h | 7771m | -4.2m/s | -24.1°C | 17.1% | 379.5hPa | 2.6V | 07:45:32 | 02:58:42 | 00:00:00 | |
| DF8AY | 2026-09-06 01:18:31 | 53.34435 | 12.06675 | 142° | 172km/h | 7779m | -4.2m/s | -24.2°C | 17.4% | 379.1hPa | 2.5V | 07:45:32 | 02:58:40 | 00:00:00 | |
| DL1XH-west | 2026-09-06 01:18:29 | 53.34501 | 12.06585 | 140° | 168km/h | 7788m | -4.4m/s | -24.3°C | 18.3% | 378.6hPa | 2.6V | 07:45:32 | 02:58:38 | 00:00:00 | |
| D01LWL | 2026-09-06 01:18:29 | 53.34534 | 12.06539 | 139° | 168km/h | 7792m | -4.3m/s | -24.3°C | 15.8% | 378.4hPa | 2.6V | 00:00:00 | 00:00:00 | 00:00:00 | |
| DL1XH1-15 | 2026-09-06 01:18:28 | 53.34701 | 12.06294 | 140° | 181km/h | 7814m | -4.1m/s | -24.3°C | 21.2% | 377.2hPa | 2.6V | 07:45:30 | 02:58:32 | 00:00:00 | |
| DL1XH-15 | 2026-09-06 01:18:27 | 53.34736 | 12.06246 | 141° | 181km/h | 7819m | -4.5m/s | -24.4°C | 21.4% | 377.1hPa | 2.6V | 07:45:31 | 02:58:31 | 00:00:00 | |
| DM0DOS-11 | 2026-09-06 01:18:27 | 53.34632 | 12.06393 | 138° | 177km/h | 7805m | -4.7m/s | -24.3°C | 20.1% | 377.7hPa | 2.5V | 07:45:28 | 02:58:34 | 00:00:00 | |
| DO2SHX-10 | 2026-09-06 01:18:27 | 53.34566 | 12.06491 | 139° | 175km/h | 7796m | -4.5m/s | -24.2°C | 18.4% | 378.1hPa | 2.5V | 00:00:00 | 02:58:36 | 00:00:00 | |
| DB0DAN | 2026-09-06 01:18:25 | 53.34632 | 12.06393 | 139° | 170km/h | 7806m | -4.7m/s | -24.3°C | 18.3% | 377.74hPa | 2.5V | 00:00:00 | 00:00:00 | 00:00:00 | |
| AA1-15 | 2026-09-06 01:18:22 | 53.34736 | 12.06246 | 141° | 181km/h | 7819m | -4.6m/s | -24.4°C | 23.5% | 377.1hPa | 2.6V | 07:45:32 | 02:58:31 | 00:00:00 | |
| DF8AY | 2026-09-06 01:18:21 | 53.34772 | 12.06198 | 142° | 179km/h | 7823m | -4.4m/s | -24.4°C | 23.8% | 376.8hPa | 2.5V | 07:45:32 | 02:58:30 | 00:00:00 | |
| DL1XH-west | 2026-09-06 01:18:19 | 53.34843 | 12.06107 | 142° | 173km/h | 7832m | -4.3m/s | -24.5°C | 24.5% | 376.3hPa | 2.5V | 07:46:23 | 02:58:28 | 00:00:00 | |
| DO2SHX-10 | 2026-09-06 01:18:18 | 53.34877 | 12.06062 | 143° | 168km/h | 7837m | -4.5m/s | -24.5°C | 22.5% | 376.0hPa | 2.5V | 00:00:00 | 02:58:27 | 00:00:00 | |
| DL1XH-15 | 2026-09-06 01:18:17 | 53.35072 | 12.05787 | 138° | 173km/h | 7864m | -4.9m/s | -24.8°C | 23.4% | 374.8hPa | 2.5V | 07:45:41 | 02:58:21 | 00:00:00 | |
| AA1-15 | 2026-09-06 01:18:11 | 53.35105 | 12.05737 | 138° | 177km/h | 7869m | -4.2m/s | -24.8°C | 25.7% | 374.5hPa | 2.5V | 07:46:23 | 02:58:20 | 00:00:00 | |
| DF8AY | 2026-09-06 01:18:10 | 53.35139 | 12.05688 | 139° | 179km/h | 7873m | -4m/s | -24.8°C | 25.9% | 374.2hPa | 2.5V | 07:46:23 | 02:58:19 | 00:00:00 | |
| DL1XH1-15 | 2026-09-06 01:18:08 | 53.35378 | 12.05358 | 139° | 166km/h | 7903m | -4.4m/s | -25.1°C | 24.5% | 372.7hPa | 2.6V | 07:45:50 | 02:58:12 | 00:00:00 | |
| DL1XH-west | 2026-09-06 01:18:08 | 53.35208 | 12.05589 | 141° | 181km/h | 7881m | -4m/s | -24.9°C | 26.1% | 373.9hPa | 2.6V | 07:46:23 | 02:58:17 | 00:00:00 | |
| DF8AY | 2026-09-06 01:18:00 | 53.35504 | 12.05167 | 137° | 172km/h | 7921m | -4.2m/s | -25.3°C | 27.3% | 371.8hPa | 2.5V | 07:46:23 | 02:58:08 | 00:00:00 | |
| AA1-15 | 2026-09-06 01:18:00 | 53.35472 | 12.05216 | 137° | 170km/h | 7916m | -4.9m/s | -25.2°C | 27.2% | 372hPa | 2.5V | 07:46:23 | 02:58:09 | 00:00:00 | |
| DO2SHX-10 | 2026-09-06 01:18:00 | 53.35472 | 12.05216 | 137° | 172km/h | 7916m | -4.8m/s | -25.2°C | 24.9% | 372.0hPa | 2.5V | 00:00:00 | 02:58:09 | 00:00:00 | |
| DL1XH1-15 | 2026-09-06 01:17:58 | 53.35703 | 12.04866 | 140° | 177km/h | 7946m | -4.3m/s | -25.5°C | 26.6% | 370.5hPa | 2.5V | 07:46:00 | 02:58:02 | 00:00:00 | |
| D01LWL | 2026-09-06 01:17:58 | 53.35568 | 12.05065 | 137° | 177km/h | 7929m | -4.4m/s | -25.4°C | 23.2% | 371.4hPa | 2.6V | 00:00:00 | 00:00:00 | 00:00:00 | |
| DL1XH-15 | 2026-09-06 01:17:57 | 53.35738 | 12.04819 | 140° | 175km/h | 7950m | -4.3m/s | -25.6°C | 26.7% | 370.3hPa | 2.6V | 07:46:01 | 02:58:01 | 00:00:00 | |
| DL1XH-west | 2026-09-06 01:17:57 | 53.35568 | 12.05065 | 137° | 177km/h | 7929m | -4.4m/s | -25.4°C | 27.7% | 371.4hPa | 2.6V | 07:46:23 | 02:58:06 | 00:00:00 | |
| AA1-15 | 2026-09-06 01:17:49 | 53.35838 | 12.04680 | 139° | 168km/h | 7963m | -4.6m/s | -25.7°C | 29.3% | 369.6hPa | 2.5V | 07:46:23 | 02:57:58 | 00:00:00 | |
| DF8AY | 2026-09-06 01:17:48 | 53.35870 | 12.04634 | 138° | 168km/h | 7967m | -4.5m/s | -25.7°C | 29.4% | 369.3hPa | 2.5V | 07:46:23 | 02:57:57 | 00:00:00 | |
| DO2SHX-10 | 2026-09-06 01:17:48 | 53.35870 | 12.04634 | 139° | 168km/h | 7967m | -4.4m/s | -25.7°C | 27.1% | 369.3hPa | 2.5V | 00:00:00 | 02:57:57 | 00:00:00 | |
| DL1XH-15 | 2026-09-06 01:17:47 | 53.36062 | 12.04341 | 138° | 175km/h | 7995m | -4.6m/s | -26°C | 28.1% | 367.9hPa | 2.5V | 07:46:11 | 02:57:51 | 00:00:00 | |
| DL1XH-west | 2026-09-06 01:17:46 | 53.35933 | 12.04538 | 137° | 170km/h | 7976m | -4.7m/s | -25.8°C | 29.7% | 369hPa | 2.6V | 07:46:23 | 02:57:55 | 00:00:00 | |
| DO2SHX-10 | 2026-09-06 01:17:45 | 53.35965 | 12.04489 | 138° | 173km/h | 7981m | -4.8m/s | -25.8°C | 27.6% | 368.6hPa | 2.6V | 00:00:00 | 02:57:54 | 00:00:00 | |
| SMARD9-15 | 2026-09-06 01:17:43 | 53.36029 | 12.04390 | 137° | 173km/h | 7990m | -4.8m/s | -26.0°C | 25.5% | 368.1hPa | 2.6V | 00:00:00 | 00:00:00 | 00:00:00 | |
| DO2SHX-10 | 2026-09-06 01:17:42 | 53.36062 | 12.04340 | 139° | 173km/h | 7995m | -4.6m/s | -26.0°C | 28.1% | 367.9hPa | 2.6V | 00:00:00 | 02:57:51 | 00:00:00 | |
| DB0DAN | 2026-09-06 01:17:40 | 53.36129 | 12.04244 | 139° | 164km/h | 8004m | -4.4m/s | -26.1°C | 25.8% | 367.51hPa | 2.6V | 00:00:00 | 00:00:00 | 00:00:00 | |
| AA1-15 | 2026-09-06 01:17:39 | 53.36161 | 12.04197 | 139° | 170km/h | 8008m | -4.4m/s | -26.1°C | 30.6% | 367.3hPa | 2.5V | 07:46:23 | 02:57:48 | 00:00:00 | |
| DF8AY | 2026-09-06 01:17:38 | 53.36194 | 12.04150 | 139° | 168km/h | 8013m | -5m/s | -26.2°C | 30.6% | 367hPa | 2.5V | 07:46:23 | 02:57:47 | 00:00:00 | |
| DL1XH-15 | 2026-09-06 01:17:37 | 53.36388 | 12.03857 | 138° | 177km/h | 8040m | -4.7m/s | -26.4°C | 29.1% | 365.6hPa | 2.5V | 07:46:21 | 02:57:41 | 00:00:00 | |
| DL1XH-west | 2026-09-06 01:17:35 | 53.36290 | 12.04006 | 137° | 172km/h | 8027m | -4.8m/s | -26.3°C | 31% | 366.4hPa | 2.6V | 07:46:23 | 02:57:44 | 00:00:00 | |
| AA1-15 | 2026-09-06 01:17:29 | 53.36489 | 12.03714 | 140° | 170km/h | 8055m | -4.2m/s | -26.6°C | 31.7% | 364.9hPa | 2.6V | 07:47:14 | 02:57:38 | 00:00:00 | |
| DL1XH-15 | 2026-09-06 01:17:27 | 53.36712 | 12.03369 | 137° | 179km/h | 8087m | -4.6m/s | -26.9°C | 30.2% | 363.3hPa | 2.5V | 07:46:31 | 02:57:31 | 00:00:00 | |
| DF8AY | 2026-09-06 01:17:27 | 53.36553 | 12.03620 | 138° | 168km/h | 8063m | -4.7m/s | -26.7°C | 31.9% | 364.5hPa | 2.5V | 07:47:14 | 02:57:36 | 00:00:00 | |
| DO2SHX-10 | 2026-09-06 01:17:27 | 53.36553 | 12.03620 | 139° | 170km/h | 8063m | -4.6m/s | -26.6°C | 29.6% | 364.4hPa | 2.6V | 00:00:00 | 02:57:36 | 00:00:00 | |
| DB0DAN | 2026-09-06 01:17:25 | 53.36616 | 12.03522 | 136° | 162km/h | 8072m | -4.5m/s | -26.8°C | 27.2% | 363.99hPa | 2.6V | 00:00:00 | 00:00:00 | 00:00:00 | |
| DL1XH-west | 2026-09-06 01:17:24 | 53.36647 | 12.03471 | 136° | 173km/h | 8077m | -4.9m/s | -26.8°C | 32.3% | 363.8hPa | 2.6V | 07:47:14 | 02:57:33 | 00:00:00 | |
| AA1-15 | 2026-09-06 01:17:19 | 53.36814 | 12.03220 | 141° | 175km/h | 8102m | -5m/s | -27°C | 32.8% | 362.6hPa | 2.6V | 07:47:14 | 02:57:28 | 00:00:00 | |
| DO2SHX-10 | 2026-09-06 01:17:18 | 53.36848 | 12.03173 | 141° | 170km/h | 8107m | -4.6m/s | -27.0°C | 30.6% | 362.3hPa | 2.6V | 00:00:00 | 02:57:27 | 00:00:00 | |
| DL1XH-15 | 2026-09-06 01:17:17 | 53.37038 | 12.02892 | 135° | 168km/h | 8134m | -4.3m/s | -27.4°C | 31.1% | 361hPa | 2.6V | 07:46:41 | 02:57:21 | 00:00:00 | |
| DM0DOS-11 | 2026-09-06 01:17:17 | 53.36946 | 12.03036 | 138° | 164km/h | 8120m | -4.8m/s | -27.2°C | 30.9% | 361.6hPa | 2.5V | 07:46:38 | 02:57:24 | 00:00:00 | |
| DF8AY | 2026-09-06 01:17:17 | 53.36881 | 12.03128 | 140° | 170km/h | 8111m | -4.9m/s | -27.1°C | 32.9% | 362.1hPa | 2.5V | 07:47:14 | 02:57:26 | 00:00:00 | |
| DL1XH-west | 2026-09-06 01:17:13 | 53.37008 | 12.02942 | 137° | 168km/h | 8129m | -4.9m/s | -27.3°C | 33.3% | 361.2hPa | 2.6V | 07:47:14 | 02:57:22 | 00:00:00 | |
| DO2SHX-10 | 2026-09-06 01:17:12 | 53.37038 | 12.02892 | 136° | 172km/h | 8134m | -4.3m/s | -27.3°C | 31.1% | 361.0hPa | 2.6V | 00:00:00 | 02:57:21 | 00:00:00 | |
| DB0DAN | 2026-09-06 01:17:10 | 53.37100 | 12.02789 | 134° | 166km/h | 8143m | -4.4m/s | -27.4°C | 28.4% | 360.49hPa | 2.5V | 00:00:00 | 00:00:00 | 00:00:00 | |
| AA1-15 | 2026-09-06 01:17:09 | 53.37131 | 12.02736 | 135° | 177km/h | 8147m | -4.8m/s | -27.5°C | 33.5% | 360.2hPa | 2.5V | 07:47:14 | 02:57:18 | 00:00:00 | |
| DF8AY | 2026-09-06 01:17:07 | 53.37194 | 12.02629 | 136° | 179km/h | 8157m | -4.6m/s | -27.6°C | 33.7% | 359.8hPa | 2.6V | 07:47:14 | 02:57:16 | 00:00:00 | |
| DM0DOS-11 | 2026-09-06 01:17:07 | 53.37260 | 12.02525 | 137° | 179km/h | 8165m | -3.6m/s | -27.7°C | 32.1% | 359.4hPa | 2.6V | 07:46:48 | 02:57:14 | 00:00:00 | |
| DL1XH-west | 2026-09-06 01:17:03 | 53.37326 | 12.02426 | 139° | 173km/h | 8173m | -4.7m/s | -27.7°C | 34.3% | 358.9hPa | 2.5V | 07:47:14 | 02:57:12 | 00:00:00 | |
| DO2SHX-10 | 2026-09-06 01:17:03 | 53.37326 | 12.02426 | 140° | 170km/h | 8173m | -4.7m/s | -27.7°C | 32.2% | 358.9hPa | 2.5V | 00:00:00 | 02:57:12 | 00:00:00 | |
| S3001 | 2026-09-06 01:17:02 | 53.37359 | 12.02379 | 138° | 168km/h | 8178m | -5.3m/s | -27.8°C | 29.3% | 358.7hPa | 2.5V | 00:00:00 | 00:00:00 | 00:00:00 | |
| DO2SHX-10 | 2026-09-06 01:17:00 | 53.37422 | 12.02285 | 139° | 164km/h | 8188m | -5.1m/s | -27.8°C | 32.1% | 358.2hPa | 2.5V | 00:00:00 | 02:57:09 | 00:00:00 | |
| DL1XH1-15 | 2026-09-06 01:16:58 | 53.37630 | 12.01934 | 133° | 175km/h | 8220m | -4.8m/s | -28.1°C | 32% | 356.5hPa | 2.5V | 07:47:00 | 02:57:02 | 00:00:00 | |
| AA1-15 | 2026-09-06 01:16:58 | 53.37483 | 12.02191 | 136° | 164km/h | 8197m | -4.7m/s | -27.9°C | 33.9% | 357.7hPa | 2.5V | 07:47:14 | 02:57:07 | 00:00:00 | |
| DM0DOS-11 | 2026-09-06 01:16:57 | 53.37571 | 12.02040 | 133° | 168km/h | 8211m | -4.8m/s | -28°C | 31.9% | 357.1hPa | 2.6V | 07:46:58 | 02:57:04 | 00:00:00 | |
| DF8AY | 2026-09-06 01:16:57 | 53.37512 | 12.02142 | 134° | 164km/h | 8202m | -4.4m/s | -27.9°C | 34% | 357.5hPa | 2.5V | 07:47:14 | 02:57:06 | 00:00:00 | |
| DO2SHX-10 | 2026-09-06 01:16:57 | 53.37512 | 12.02142 | 135° | 168km/h | 8202m | -4.3m/s | -27.8°C | 31.7% | 357.4hPa | 2.6V | 00:00:00 | 02:57:06 | 00:00:00 | |
| DB0DAN | 2026-09-06 01:16:55 | 53.37571 | 12.02040 | 133° | 161km/h | 8211m | -4.9m/s | -28°C | 29% | 357.06hPa | 2.6V | 00:00:00 | 00:00:00 | 00:00:00 | |
| DL1XH-west | 2026-09-06 01:16:52 | 53.37661 | 12.01879 | 133° | 177km/h | 8225m | -4.2m/s | -28.1°C | 34.1% | 356.4hPa | 2.5V | 07:47:14 | 02:57:01 | 00:00:00 | |
| SONDE2-11 | 2026-09-06 01:16:51 | 53.37724 | 12.01772 | 135° | 177km/h | 8233m | -4.4m/s | -28.2°C | 29.3% | 355.9hPa | 2.5V | 00:00:00 | 00:00:00 | 00:00:00 | |
| AM1SDL-15 | 2026-09-06 01:16:50 | 53.37723 | 12.01772 | 136° | 172km/h | 8233m | -4.4m/s | -28.1°C | 32.2% | 355.9hPa | 2.5V | 00:00:00 | 02:56:59 | 00:00:00 | |
| DL1XH1-15 | 2026-09-06 01:16:48 | 53.37944 | 12.01424 | 135° | 164km/h | 8263m | -4.5m/s | -28.5°C | 33.1% | 354.4hPa | 2.6V | 07:47:10 | 02:56:52 | 00:00:00 | |
| DO2SHX-10 | 2026-09-06 01:16:48 | 53.37788 | 12.01668 | 137° | 172km/h | 8241m | -4.1m/s | -28.2°C | 32.5% | 355.4hPa | 2.5V | 00:00:00 | 02:56:57 | 00:00:00 | |
| DM0DOS-11 | 2026-09-06 01:16:47 | 53.37884 | 12.01521 | 136° | 168km/h | 8254m | -4.8m/s | -28.4°C | 32.9% | 354.8hPa | 2.5V | 07:47:08 | 02:56:54 | 00:00:00 | |
| DF8AY | 2026-09-06 01:16:47 | 53.37853 | 12.01569 | 138° | 170km/h | 8250m | -4.3m/s | -28.3°C | 34.7% | 355.1hPa | 2.5V | 07:47:14 | 02:56:55 | 00:00:00 | |
| AA1-15 | 2026-09-06 01:16:47 | 53.37821 | 12.01618 | 138° | 172km/h | 8246m | -4.8m/s | -28.3°C | 34.6% | 355.3hPa | 2.6V | 07:47:14 | 02:56:56 | 00:00:00 | |
| EDDB2-11 | 2026-09-06 01:16:46 | 53.37884 | 12.01521 | 136° | 166km/h | 8254m | -4.8m/s | -28.4°C | 29.9% | 354.8hPa | 2.5V | 00:00:00 | 00:00:00 | 00:00:00 | |
| DL1XH-west | 2026-09-06 01:16:41 | 53.38002 | 12.01323 | 133° | 168km/h | 8272m | -4.9m/s | -28.6°C | 35.5% | 353.9hPa | 2.5V | 07:47:14 | 02:56:50 | 00:00:00 | |
| DO2SHX-10 | 2026-09-06 01:16:39 | 53.38060 | 12.01218 | 133° | 173km/h | 8282m | -4.9m/s | -28.6°C | 33.4% | 353.4hPa | 2.6V | 00:00:00 | 02:56:48 | 00:00:00 | |
| DL1XH1-15 | 2026-09-06 01:16:38 | 53.38246 | 12.00894 | 135° | 179km/h | 8310m | -5.1m/s | -28.9°C | 34% | 352.1hPa | 2.6V | 07:47:20 | 02:56:42 | 00:00:00 | |
| DL1XH-15 | 2026-09-06 01:16:37 | 53.38278 | 12.00842 | 136° | 175km/h | 8316m | -5.1m/s | -29°C | 34.1% | 351.8hPa | 2.5V | 07:47:21 | 02:56:41 | 00:00:00 | |
| DM0DOS-11 | 2026-09-06 01:16:37 | 53.38182 | 12.01001 | 134° | 179km/h | 8301m | -5m/s | -28.8°C | 33.8% | 352.6hPa | 2.5V | 07:47:18 | 02:56:44 | 00:00:00 | |
| AA1-15 | 2026-09-06 01:16:36 | 53.38150 | 12.01055 | 133° | 179km/h | 8296m | -4.5m/s | -28.8°C | 35.9% | 352.8hPa | 2.5V | 07:48:05 | 02:56:45 | 00:00:00 | |
| DL1XH-west | 2026-09-06 01:16:30 | 53.38342 | 12.00743 | 137° | 170km/h | 8325m | -4.7m/s | -29.1°C | 36.2% | 351.4hPa | 2.5V | 07:48:05 | 02:56:39 | 00:00:00 | |
| DO2SHX-10 | 2026-09-06 01:16:30 | 53.38342 | 12.00743 | 138° | 166km/h | 8325m | -4.7m/s | -29.0°C | 34.2% | 351.4hPa | 2.6V | 00:00:00 | 02:56:39 | 00:00:00 | |
| DL1XH1-15 | 2026-09-06 01:16:28 | 53.38548 | 12.00393 | 131° | 170km/h | 8358m | -4.5m/s | -29.3°C | 34.5% | 349.8hPa | 2.6V | 07:47:30 | 02:56:32 | 00:00:00 | |
| DL1XH-15 | 2026-09-06 01:16:27 | 53.38577 | 12.00340 | 132° | 172km/h | 8363m | -5m/s | -29.4°C | 34.7% | 349.6hPa | 2.6V | 07:47:31 | 02:56:31 | 00:00:00 | |
| DM0DOS-11 | 2026-09-06 01:16:27 | 53.38491 | 12.00497 | 133° | 164km/h | 8348m | -5.2m/s | -29.2°C | 34% | 350.3hPa | 2.5V | 07:47:28 | 02:56:34 | 00:00:00 | |
| AA1-15 | 2026-09-06 01:16:26 | 53.38462 | 12.00548 | 134° | 164km/h | 8343m | -4.9m/s | -29.2°C | 36.1% | 350.5hPa | 2.5V | 07:48:05 | 02:56:35 | 00:00:00 | |
| DB0DAN | 2026-09-06 01:16:25 | 53.38491 | 12.00497 | 134° | 157km/h | 8348m | -5.2m/s | -29.2°C | 30.8% | 350.3hPa | 2.5V | 00:00:00 | 00:00:00 | 00:00:00 | |
| DL1XH-west | 2026-09-06 01:16:20 | 53.38637 | 12.00231 | 133° | 177km/h | 8373m | -4.3m/s | -29.5°C | 36.8% | 349.1hPa | 2.5V | 07:48:05 | 02:56:29 | 00:00:00 | |
| SONDE2-11 | 2026-09-06 01:16:19 | 53.38668 | 12.00177 | 133° | 175km/h | 8377m | -4.3m/s | -29.5°C | 32.0% | 348.9hPa | 2.5V | 00:00:00 | 00:00:00 | 00:00:00 | |
| DL1XH1-15 | 2026-09-06 01:16:18 | 53.38850 | 11.99867 | 132° | 166km/h | 8405m | -5.2m/s | -29.7°C | 34.4% | 347.5hPa | 2.5V | 07:47:40 | 02:56:22 | 00:00:00 | |
| DO2SHX-10 | 2026-09-06 01:16:18 | 53.38699 | 12.00123 | 135° | 173km/h | 8382m | -4.7m/s | -29.5°C | 35.3% | 348.7hPa | 2.5V | 00:00:00 | 02:56:27 | 00:00:00 | |
| DL1XH-15 | 2026-09-06 01:16:17 | 53.38878 | 11.99815 | 131° | 166km/h | 8410m | -4.7m/s | -29.7°C | 34.4% | 347.3hPa | 2.5V | 07:47:41 | 02:56:21 | 00:00:00 | |
| DF8AY | 2026-09-06 01:16:15 | 53.38791 | 11.99969 | 135° | 168km/h | 8396m | -4.4m/s | -29.7°C | 36.4% | 348hPa | 2.6V | 07:48:05 | 02:56:24 | 00:00:00 | |
| EDDB2-11 | 2026-09-06 01:16:15 | 53.38821 | 11.99918 | 133° | 164km/h | 8400m | -4.9m/s | -29.7°C | 31.2% | 347.8hPa | 2.6V | 00:00:00 | 00:00:00 | 00:00:00 | |
| DO2SHX-10 | 2026-09-06 01:16:12 | 53.38878 | 11.99815 | 132° | 168km/h | 8410m | -4.6m/s | -29.7°C | 34.4% | 347.2hPa | 2.6V | 00:00:00 | 02:56:21 | 00:00:00 | |
| DG6HD-15 | 2026-09-06 01:16:11 | 53.38878 | 11.99815 | 132° | 166km/h | 8410m | -4.7m/s | -29.7°C | 31.2% | 347.3hPa | 2.6V | 00:00:00 | 00:00:00 | 00:00:00 | |
| DB0DAN | 2026-09-06 01:16:10 | 53.38933 | 11.99707 | 130° | 162km/h | 8420m | -4.9m/s | -29.8°C | 31.2% | 346.82hPa | 2.6V | 00:00:00 | 00:00:00 | 00:00:00 | |
| DL1XH-west | 2026-09-06 01:16:10 | 53.38933 | 11.99707 | 130° | 170km/h | 8420m | -4.9m/s | -29.8°C | 36.4% | 346.8hPa | 2.6V | 07:48:05 | 02:56:19 | 00:00:00 | |
| SMARD9-15 | 2026-09-06 01:16:10 | 53.38961 | 11.99652 | 129° | 172km/h | 8425m | -4.9m/s | -29.9°C | 31.3% | 346.6hPa | 2.6V | 00:00:00 | 00:00:00 | 00:00:00 | |
| DO2SHX-10 | 2026-09-06 01:16:09 | 53.38961 | 11.99651 | 130° | 175km/h | 8425m | -4.8m/s | -29.8°C | 34.6% | 346.6hPa | 2.6V | 00:00:00 | 02:56:18 | 00:00:00 | |
| DL1XH1-15 | 2026-09-06 01:16:08 | 53.39140 | 11.99312 | 133° | 179km/h | 8454m | -4.9m/s | -30.1°C | 33.7% | 345.3hPa | 2.6V | 07:47:50 | 02:56:12 | 00:00:00 | |
| DL1XH-15 | 2026-09-06 01:16:07 | 53.39171 | 11.99257 | 134° | 177km/h | 8459m | -4.7m/s | -30.1°C | 33.2% | 345hPa | 2.6V | 07:47:51 | 02:56:11 | 00:00:00 | |
| DM0DOS-11 | 2026-09-06 01:16:07 | 53.39077 | 11.99424 | 131° | 181km/h | 8444m | -5m/s | -30°C | 33.9% | 345.7hPa | 2.5V | 07:47:48 | 02:56:14 | 00:00:00 | |
| AA1-15 | 2026-09-06 01:16:05 | 53.39078 | 11.99424 | 132° | 181km/h | 8444m | -5m/s | -30°C | 36% | 345.8hPa | 2.5V | 07:48:05 | 02:56:14 | 00:00:00 | |
| DL1XH-west | 2026-09-06 01:15:59 | 53.39263 | 11.99100 | 133° | 172km/h | 8473m | -5.1m/s | -30.2°C | 34.8% | 344.4hPa | 2.5V | 07:48:05 | 02:56:08 | 00:00:00 | |
| DJ2DS-15 | 2026-09-06 01:15:59 | 53.39292 | 11.99047 | 132° | 170km/h | 8478m | -5.1m/s | -30.2°C | 29.4% | 344.1hPa | 2.5V | 00:00:00 | 00:00:00 | 00:00:00 | |
| DL1XH1-15 | 2026-09-06 01:15:58 | 53.39441 | 11.98767 | 132° | 183km/h | 8501m | -4.5m/s | -30.3°C | 31.6% | 343hPa | 2.5V | 07:48:00 | 02:56:02 | 00:00:00 | |
| DL1XH-15 | 2026-09-06 01:15:57 | 53.39472 | 11.98710 | 132° | 183km/h | 8505m | -4.9m/s | -30.4°C | 31.3% | 342.7hPa | 2.5V | 07:48:01 | 02:56:01 | 00:00:00 | |
| DM0DOS-11 | 2026-09-06 01:15:57 | 53.39380 | 11.98881 | 131° | 179km/h | 8492m | -4.9m/s | -30.2°C | 31.6% | 343.4hPa | 2.6V | 07:47:58 | 02:56:04 | 00:00:00 | |
| DO2SHX-10 | 2026-09-06 01:15:57 | 53.39321 | 11.98992 | 132° | 175km/h | 8483m | -4.8m/s | -30.1°C | 31.8% | 343.9hPa | 2.6V | 07:47:00 | 02:56:06 | 00:00:00 | |
| DB0DAN | 2026-09-06 01:15:55 | 53.39380 | 11.98881 | 131° | 170km/h | 8492m | -4.9m/s | -30.3°C | 28.5% | 343.44hPa | 2.6V | 00:00:00 | 00:00:00 | 00:00:00 | |
| AA1-15 | 2026-09-06 01:15:54 | 53.39410 | 11.98824 | 132° | 181km/h | 8497m | -4.2m/s | -30.3°C | 33.8% | 343.2hPa | 2.6V | 07:48:05 | 02:56:03 | 00:00:00 | |
| DL1XH-west | 2026-09-06 01:15:48 | 53.39597 | 11.98493 | 134° | 173km/h | 8524m | -4.4m/s | -30.4°C | 32.4% | 341.9hPa | 2.6V | 07:48:05 | 02:55:57 | 00:00:00 | |
| DL1XH1-15 | 2026-09-06 01:15:48 | 53.39744 | 11.98220 | 131° | 179km/h | 8547m | -4.6m/s | -30.6°C | 30.6% | 340.8hPa | 2.5V | 07:48:10 | 02:55:52 | 00:00:00 | |
| DO2SHX-10 | 2026-09-06 01:15:48 | 53.39597 | 11.98493 | 134° | 172km/h | 8524m | -4.4m/s | -30.4°C | 30.2% | 341.8hPa | 2.6V | 00:00:00 | 02:55:57 | 00:00:00 | |
| DL1XH-15 | 2026-09-06 01:15:47 | 53.39774 | 11.98163 | 132° | 183km/h | 8551m | -4.7m/s | -30.6°C | 30.6% | 340.6hPa | 2.6V | 07:48:11 | 02:55:51 | 00:00:00 | |
| DM0DOS-11 | 2026-09-06 01:15:47 | 53.39685 | 11.98332 | 131° | 173km/h | 8537m | -4.6m/s | -30.5°C | 30.5% | 341.2hPa | 2.5V | 07:48:08 | 02:55:54 | 00:00:00 | |
| AA1-15 | 2026-09-06 01:15:43 | 53.39744 | 11.98220 | 131° | 179km/h | 8547m | -4.6m/s | -30.6°C | 32.7% | 340.8hPa | 2.5V | 07:48:56 | 02:55:52 | 00:00:00 | |
| DO2SHX-10 | 2026-09-06 01:15:42 | 53.39774 | 11.98163 | 133° | 183km/h | 8551m | -4.6m/s | -30.6°C | 30.6% | 340.5hPa | 2.6V | 00:00:00 | 02:55:51 | 00:00:00 | |
| DB0DAN | 2026-09-06 01:15:40 | 53.39837 | 11.98049 | 134° | 175km/h | 8561m | -4.8m/s | -30.7°C | 27.4% | 340.08hPa | 2.6V | 00:00:00 | 00:00:00 | 00:00:00 | |
| DL1XH-west | 2026-09-06 01:15:38 | 53.39902 | 11.97940 | 135° | 179km/h | 8571m | -4.7m/s | -30.8°C | 33% | 339.6hPa | 2.5V | 07:48:56 | 02:55:47 | 00:00:00 | |
| DL1XH-15 | 2026-09-06 01:15:37 | 53.40085 | 11.97623 | 131° | 173km/h | 8598m | -4.8m/s | -31.1°C | 31.3% | 338.2hPa | 2.5V | 07:48:21 | 02:55:41 | 00:00:00 | |
| DM0DOS-11 | 2026-09-06 01:15:37 | 53.39996 | 11.97783 | 134° | 172km/h | 8584m | -4.9m/s | -30.9°C | 30.9% | 338.9hPa | 2.6V | 07:48:18 | 02:55:44 | 00:00:00 | |
| DF8AY | 2026-09-06 01:15:33 | 53.40055 | 11.97677 | 133° | 172km/h | 8594m | -4.4m/s | -31°C | 33.3% | 338.5hPa | 2.6V | 07:48:56 | 02:55:42 | 00:00:00 | |
| AA1-15 | 2026-09-06 01:15:32 | 53.40085 | 11.97623 | 132° | 173km/h | 8598m | -4.8m/s | -31.1°C | 33.4% | 338.2hPa | 2.5V | 07:48:56 | 02:55:41 | 00:00:00 | |
| SMARD9-10 | 2026-09-06 01:15:31 | 53.40085 | 11.97623 | 133° | 173km/h | 8599m | -4.8m/s | -31.1°C | 28.1% | 338.2hPa | 2.6V | 07:48:00 | 00:00:00 | 00:00:00 | |
| DO2SHX-10 | 2026-09-06 01:15:30 | 53.40145 | 11.97512 | 133° | 179km/h | 8608m | -5.1m/s | -31.1°C | 31.3% | 337.7hPa | 2.6V | 00:00:00 | 02:55:39 | 00:00:00 | |
| S3001 | 2026-09-06 01:15:29 | 53.40206 | 11.97401 | 133° | 179km/h | 8618m | -5.0m/s | -31.2°C | 28.2% | 337.3hPa | 2.6V | 00:00:00 | 00:00:00 | 00:00:00 | |
| DL1XH1-15 | 2026-09-06 01:15:28 | 53.40361 | 11.97135 | 133° | 172km/h | 8642m | -4.9m/s | -31.4°C | 31.3% | 336.2hPa | 2.6V | 07:48:30 | 02:55:32 | 00:00:00 | |
| DL1XH-west | 2026-09-06 01:15:28 | 53.40206 | 11.97401 | 134° | 179km/h | 8618m | -5m/s | -31.2°C | 33.5% | 337.3hPa | 2.6V | 07:48:56 | 02:55:37 | 00:00:00 | |
| DM0DOS-11 | 2026-09-06 01:15:27 | 53.40300 | 11.97240 | 134° | 173km/h | 8632m | -4.9m/s | -31.3°C | 31.2% | 336.6hPa | 2.5V | 07:48:28 | 02:55:34 | 00:00:00 | |
| DO2SHX-10 | 2026-09-06 01:15:27 | 53.40238 | 11.97346 | 135° | 177km/h | 8623m | -5.0m/s | -31.2°C | 31.3% | 337.0hPa | 2.5V | 00:00:00 | 02:55:36 | 00:00:00 | |
| DB0DAN | 2026-09-06 01:15:25 | 53.40300 | 11.97240 | 135° | 166km/h | 8632m | -4.9m/s | -31.3°C | 28% | 336.59hPa | 2.5V | 00:00:00 | 00:00:00 | 00:00:00 | |
| AA1-15 | 2026-09-06 01:15:22 | 53.40391 | 11.97082 | 133° | 172km/h | 8647m | -4.8m/s | -31.5°C | 33.6% | 335.9hPa | 2.6V | 07:48:56 | 02:55:31 | 00:00:00 | |
| DO2SHX-10 | 2026-09-06 01:15:21 | 53.40421 | 11.97028 | 133° | 177km/h | 8652m | -4.6m/s | -31.5°C | 31.5% | 335.7hPa | 2.5V | 00:00:00 | 02:55:30 | 00:00:00 | |
| DL1XH1-15 | 2026-09-06 01:15:18 | 53.40675 | 11.96596 | 135° | 172km/h | 8690m | -5m/s | -31.9°C | 32.3% | 333.9hPa | 2.5V | 07:48:40 | 02:55:22 | 00:00:00 | |
| DO2SHX-10 | 2026-09-06 01:15:18 | 53.40513 | 11.96862 | 134° | 183km/h | 8665m | -4.4m/s | -31.6°C | 31.8% | 335.0hPa | 2.5V | 00:00:00 | 02:55:27 | 00:00:00 | |
| DL1XH-15 | 2026-09-06 01:15:17 | 53.40705 | 11.96546 | 135° | 170km/h | 8695m | -5m/s | -31.9°C | 32.4% | 333.6hPa | 2.5V | 07:48:41 | 02:55:21 | 00:00:00 | |
| DM0DOS-11 | 2026-09-06 01:15:17 | 53.40611 | 11.96699 | 135° | 179km/h | 8680m | -5.2m/s | -31.8°C | 32.2% | 334.3hPa | 2.5V | 07:48:38 | 02:55:24 | 00:00:00 | |
| DL1XH-west | 2026-09-06 01:15:17 | 53.40546 | 11.96807 | 135° | 183km/h | 8670m | -5.1m/s | -31.7°C | 34.1% | 334.9hPa | 2.6V | 07:48:56 | 02:55:26 | 00:00:00 | |
| DF8AY | 2026-09-06 01:15:12 | 53.40705 | 11.96546 | 135° | 170km/h | 8695m | -5m/s | -31.9°C | 34.5% | 333.6hPa | 2.5V | 07:48:56 | 02:55:21 | 00:00:00 | |
| AA1-15 | 2026-09-06 01:15:11 | 53.40736 | 11.96494 | 134° | 170km/h | 8700m | -5.4m/s | -32°C | 34.5% | 333.4hPa | 2.6V | 07:48:56 | 02:55:20 | 00:00:00 | |
| SONCRA | 2026-09-06 01:15:10 | 53.40765 | 11.96443 | 133° | 168km/h | 8705m | -4.6m/s | -32.0°C | 29.2% | 333.2hPa | 2.5V | 00:00:00 | 00:00:00 | 00:00:00 | |
| DG6HD-15 | 2026-09-06 01:15:09 | 53.40795 | 11.96390 | 133° | 172km/h | 8710m | -4.6m/s | -32.1°C | 29.2% | 333.0hPa | 2.5V | 07:48:00 | 00:00:00 | 00:00:00 | |
| DL1XH1-15 | 2026-09-06 01:15:08 | 53.40982 | 11.96066 | 137° | 177km/h | 8738m | -4.9m/s | -32.4°C | 33.1% | 331.6hPa | 2.5V | 07:48:50 | 02:55:12 | 00:00:00 | |
| SMARD9-15 | 2026-09-06 01:15:08 | 53.40854 | 11.96281 | 132° | 177km/h | 8719m | -4.7m/s | -32.2°C | 29.4% | 332.5hPa | 2.5V | 00:00:00 | 00:00:00 | 00:00:00 | |
| DL1XH-15 | 2026-09-06 01:15:07 | 53.41015 | 11.96016 | 137° | 173km/h | 8743m | -5.4m/s | -32.4°C | 33.2% | 331.3hPa | 2.5V | 07:48:51 | 02:55:11 | 00:00:00 | |
| DL1XH-west | 2026-09-06 01:15:06 | 53.40885 | 11.96226 | 134° | 179km/h | 8724m | -5.1m/s | -32.2°C | 35% | 332.3hPa | 2.5V | 07:48:56 | 02:55:15 | 00:00:00 | |
| DF8AY | 2026-09-06 01:15:02 | 53.41015 | 11.96016 | 137° | 173km/h | 8743m | -5.4m/s | -32.4°C | 35.2% | 331.3hPa | 2.5V | 07:48:56 | 02:55:11 | 00:00:00 | |
| AA1-15 | 2026-09-06 01:15:00 | 53.41079 | 11.95917 | 137° | 170km/h | 8754m | -4.9m/s | -32.5°C | 35.2% | 330.9hPa | 2.6V | 07:48:56 | 02:55:09 | 00:00:00 | |
| DO2SHX-10 | 2026-09-06 01:15:00 | 53.41079 | 11.95917 | 137° | 168km/h | 8754m | -4.9m/s | -32.4°C | 33.4% | 330.8hPa | 2.6V | 00:00:00 | 02:55:09 | 00:00:00 | |
| DL1XH1-15 | 2026-09-06 01:14:58 | 53.41293 | 11.95556 | 134° | 179km/h | 8788m | -5.3m/s | -32.8°C | 34% | 329.3hPa | 2.6V | 07:49:00 | 02:55:02 | 00:00:00 | |
| S3001 | 2026-09-06 01:14:58 | 53.41170 | 11.95768 | 134° | 168km/h | 8768m | -5.1m/s | -32.6°C | 30.2% | 330.2hPa | 2.6V | 00:00:00 | 00:00:00 | 00:00:00 | |
| DL1XH-15 | 2026-09-06 01:14:57 | 53.41326 | 11.95503 | 135° | 179km/h | 8793m | -4.7m/s | -32.8°C | 34% | 329.1hPa | 2.6V | 07:49:01 | 02:55:01 | 00:00:00 | |
| DM0DOS-11 | 2026-09-06 01:14:57 | 53.41231 | 11.95664 | 133° | 175km/h | 8778m | -4.8m/s | -32.7°C | 34% | 329.8hPa | 2.5V | 07:48:58 | 02:55:04 | 00:00:00 | |
| DF8AY | 2026-09-06 01:14:56 | 53.41358 | 11.95451 | 137° | 179km/h | 8797m | -4.7m/s | -32.9°C | 36% | 328.8hPa | 2.5V | 07:49:47 | 02:55:00 | 00:00:00 | |
| DL1XH-west | 2026-09-06 01:14:55 | 53.41231 | 11.95664 | 134° | 175km/h | 8778m | -4.8m/s | -32.7°C | 35.8% | 329.8hPa | 2.5V | 07:49:47 | 02:55:04 | 00:00:00 | |
| AA1-15 | 2026-09-06 01:14:49 | 53.41423 | 11.95349 | 137° | 173km/h | 8808m | -5m/s | -33°C | 35.9% | 328.4hPa | 2.5V | 07:49:47 | 02:54:58 | 00:00:00 | |
| DL1XH1-15 | 2026-09-06 01:14:48 | 53.41610 | 11.95042 | 134° | 177km/h | 8837m | -4.7m/s | -33.2°C | 34.5% | 327.1hPa | 2.6V | 07:49:10 | 02:54:52 | 00:00:00 | |
| DG6HD-15 | 2026-09-06 01:14:48 | 53.41455 | 11.95299 | 138° | 172km/h | 8812m | -4.9m/s | -33.0°C | 30.5% | 328.2hPa | 2.5V | 07:49:00 | 00:00:00 | 00:00:00 | |
| DM0DOS-11 | 2026-09-06 01:14:47 | 53.41548 | 11.95148 | 134° | 172km/h | 8827m | -5.2m/s | -33.1°C | 34.3% | 327.5hPa | 2.5V | 07:49:08 | 02:54:54 | 00:00:00 | |
| DL1XH-15 | 2026-09-06 01:14:47 | 53.41642 | 11.94988 | 135° | 181km/h | 8842m | -4.7m/s | -33.2°C | 34.6% | 326.8hPa | 2.6V | 07:49:11 | 02:54:51 | 00:00:00 | |
| DJ2DS-15 | 2026-09-06 01:14:47 | 53.41517 | 11.95199 | 135° | 170km/h | 8822m | -5.2m/s | -33.1°C | 30.6% | 327.7hPa | 2.5V | 00:00:00 | 00:00:00 | 00:00:00 | |
| DF8AY | 2026-09-06 01:14:46 | 53.41675 | 11.94935 | 136° | 181km/h | 8847m | -4.2m/s | -33.3°C | 36.7% | 326.6hPa | 2.5V | 07:49:47 | 02:54:50 | 00:00:00 | |
| DL1XH-west | 2026-09-06 01:14:44 | 53.41579 | 11.95096 | 134° | 175km/h | 8832m | -4.9m/s | -33.2°C | 36.3% | 327.3hPa | 2.5V | 07:49:47 | 02:54:53 | 00:00:00 | |
| AA1-15 | 2026-09-06 01:14:38 | 53.41776 | 11.94781 | 139° | 177km/h | 8861m | -4.6m/s | -33.4°C | 36.9% | 325.9hPa | 2.6V | 07:49:47 | 02:54:47 | 00:00:00 | |
| DL1XH-15 | 2026-09-06 01:14:37 | 53.41968 | 11.94491 | 135° | 168km/h | 8889m | -4.1m/s | -33.7°C | 35.9% | 324.5hPa | 2.6V | 07:49:21 | 02:54:41 | 00:00:00 | |
| DM0DOS-11 | 2026-09-06 01:14:37 | 53.41875 | 11.94637 | 138° | 170km/h | 8875m | -4.8m/s | -33.6°C | 35.6% | 325.3hPa | 2.5V | 07:49:18 | 02:54:44 | 00:00:00 | |
| DL1XH-west | 2026-09-06 01:14:34 | 53.41907 | 11.94589 | 138° | 168km/h | 8880m | -4.7m/s | -33.6°C | 37.2% | 324.9hPa | 2.5V | 07:49:47 | 02:54:43 | 00:00:00 | |
| DF8AY | 2026-09-06 01:14:30 | 53.42030 | 11.94387 | 135° | 175km/h | 8899m | -4.7m/s | -33.8°C | 37.6% | 324.1hPa | 2.5V | 07:49:47 | 02:54:39 | 00:00:00 | |
| DG6HD-11 | 2026-09-06 01:14:30 | 53.42030 | 11.94387 | 135° | 175km/h | 8899m | -4.6m/s | -33.8°C | 36.1% | 324.1hPa | 2.5V | 00:00:00 | 00:00:00 | 00:00:00 | |
| DL1XH1-15 | 2026-09-06 01:14:28 | 53.42262 | 11.94026 | 139° | 173km/h | 8932m | -4.9m/s | -34.1°C | 36.3% | 322.6hPa | 2.6V | 07:49:30 | 02:54:32 | 00:00:00 | |
| AA1-15 | 2026-09-06 01:14:28 | 53.42093 | 11.94281 | 136° | 181km/h | 8908m | -5m/s | -33.9°C | 37.6% | 323.7hPa | 2.6V | 07:49:47 | 02:54:37 | 00:00:00 | |
| DL1XH-west | 2026-09-06 01:14:23 | 53.42262 | 11.94026 | 140° | 173km/h | 8932m | -4.9m/s | -34.1°C | 37.9% | 322.6hPa | 2.6V | 07:49:47 | 02:54:32 | 00:00:00 | |
| DF8AY | 2026-09-06 01:14:20 | 53.42359 | 11.93885 | 138° | 168km/h | 8946m | -4.6m/s | -34.2°C | 38.1% | 322hPa | 2.5V | 07:49:47 | 02:54:29 | 00:00:00 | |
| DL1XH1-15 | 2026-09-06 01:14:18 | 53.42584 | 11.93525 | 137° | 183km/h | 8979m | -4.5m/s | -34.5°C | 37.2% | 320.4hPa | 2.6V | 07:49:40 | 02:54:22 | 00:00:00 | |
| DO2SHX-10 | 2026-09-06 01:14:18 | 53.42421 | 11.93787 | 136° | 173km/h | 8956m | -4.4m/s | -34.3°C | 36.9% | 321.5hPa | 2.5V | 00:00:00 | 02:54:27 | 00:00:00 | |
| DM0DOS-11 | 2026-09-06 01:14:17 | 53.42517 | 11.93631 | 136° | 181km/h | 8970m | -4.6m/s | -34.4°C | 37.1% | 320.9hPa | 2.5V | 07:49:38 | 02:54:24 | 00:00:00 | |
| AA1-15 | 2026-09-06 01:14:17 | 53.42452 | 11.93736 | 136° | 173km/h | 8961m | -4.7m/s | -34.4°C | 38.3% | 321.3hPa | 2.6V | 07:49:47 | 02:54:26 | 00:00:00 | |
| DL1XH-west | 2026-09-06 01:14:12 | 53.42619 | 11.93474 | 139° | 183km/h | 8984m | -5.4m/s | -34.6°C | 38.7% | 320.2hPa | 2.6V | 07:49:47 | 02:54:21 | 00:00:00 | |
| DF8AY | 2026-09-06 01:14:09 | 53.42722 | 11.93326 | 140° | 175km/h | 8999m | -5m/s | -34.7°C | 38.5% | 319.5hPa | 2.5V | 07:49:47 | 02:54:18 | 00:00:00 | |
| DO2SHX-10 | 2026-09-06 01:14:09 | 53.42722 | 11.93326 | 141° | 172km/h | 8999m | -4.9m/s | -34.6°C | 37.1% | 319.5hPa | 2.5V | 00:00:00 | 02:54:18 | 00:00:00 | |
| SONCRA | 2026-09-06 01:14:08 | 53.42789 | 11.93232 | 139° | 168km/h | 9009m | -5.3m/s | -34.8°C | 33.0% | 319.1hPa | 2.5V | 00:00:00 | 00:00:00 | 00:00:00 | |
| DM0DOS-11 | 2026-09-06 01:14:07 | 53.42853 | 11.93138 | 136° | 166km/h | 9018m | -5.3m/s | -34.9°C | 36.5% | 318.7hPa | 2.5V | 07:49:48 | 02:54:14 | 00:00:00 | |
| AA1-15 | 2026-09-06 01:14:06 | 53.42821 | 11.93185 | 139° | 168km/h | 9014m | -4.4m/s | -34.8°C | 38.1% | 318.9hPa | 2.5V | 07:49:47 | 02:54:15 | 00:00:00 | |
| DL1XH-west | 2026-09-06 01:14:02 | 53.42945 | 11.92989 | 136° | 172km/h | 9033m | -4.8m/s | -34.9°C | 35.6% | 318.1hPa | 2.6V | 07:50:38 | 02:54:11 | 00:00:00 | |
| DF7ER-10 | 2026-09-06 01:14:01 | 53.42944 | 11.92989 | 137° | 172km/h | 9033m | -4.8m/s | 0°C | 0% | 0hPa | 2.6V | 00:00:00 | 00:00:00 | 00:00:00 | |
| DG6HD-11 | 2026-09-06 01:14:00 | 53.43007 | 11.92886 | 136° | 179km/h | 9043m | -5.0m/s | -35.0°C | 33.5% | 317.5hPa | 2.6V | 00:00:00 | 00:00:00 | 00:00:00 | |
| DL1XH1-15 | 2026-09-06 01:13:58 | 53.43247 | 11.92536 | 141° | 175km/h | 9077m | -5.1m/s | -35.3°C | 32.8% | 316hPa | 2.6V | 07:50:00 | 02:54:02 | 00:00:00 | |
| DF8AY | 2026-09-06 01:13:58 | 53.43073 | 11.92782 | 138° | 181km/h | 9053m | -5.1m/s | -35.1°C | 34.5% | 317.1hPa | 2.6V | 07:50:38 | 02:54:07 | 00:00:00 | |
| DM0DOS-11 | 2026-09-06 01:13:57 | 53.43177 | 11.92631 | 140° | 181km/h | 9067m | -5.4m/s | -35.2°C | 32.6% | 316.4hPa | 2.5V | 07:49:58 | 02:54:04 | 00:00:00 | |
| AA1-15 | 2026-09-06 01:13:56 | 53.43142 | 11.92680 | 140° | 183km/h | 9062m | -4.6m/s | -35.1°C | 34.1% | 316.7hPa | 2.4V | 07:50:38 | 02:54:05 | 00:00:00 | |
| DL1XH-west | 2026-09-06 01:13:51 | 53.43314 | 11.92443 | 140° | 170km/h | 9087m | -5.1m/s | -35.4°C | 34.1% | 315.6hPa | 2.5V | 07:50:38 | 02:54:00 | 00:00:00 | |
| D01LWL | 2026-09-06 01:13:49 | 53.43378 | 11.92347 | 137° | 170km/h | 9096m | -4.8m/s | -35.5°C | 29.4% | 315.2hPa | 2.6V | 00:00:00 | 00:00:00 | 00:00:00 | |
| DL1XH1-15 | 2026-09-06 01:13:48 | 53.43575 | 11.92035 | 138° | 186km/h | 9126m | -5m/s | -35.7°C | 32% | 313.8hPa | 2.6V | 07:50:10 | 02:53:52 | 00:00:00 | |
| DO2SHX-10 | 2026-09-06 01:13:48 | 53.43410 | 11.92297 | 137° | 175km/h | 9101m | -4.8m/s | -35.5°C | 33.2% | 314.9hPa | 2.6V | 00:00:00 | 02:53:57 | 00:00:00 | |
| DL1XH-15 | 2026-09-06 01:13:47 | 53.43610 | 11.91983 | 139° | 186km/h | 9131m | -4.7m/s | -35.8°C | 31.5% | 313.5hPa | 2.6V | 07:50:11 | 02:53:51 | 00:00:00 | |
| DF8AY | 2026-09-06 01:13:47 | 53.43441 | 11.92246 | 136° | 175km/h | 9106m | -4.9m/s | -35.6°C | 34.3% | 314.7hPa | 2.6V | 07:50:38 | 02:53:56 | 00:00:00 | |
| AA1-15 | 2026-09-06 01:13:46 | 53.43474 | 11.92194 | 136° | 179km/h | 9111m | -5.2m/s | -35.6°C | 34.3% | 314.4hPa | 2.5V | 07:50:38 | 02:53:55 | 00:00:00 | |
| DO2SHX-10 | 2026-09-06 01:13:45 | 53.43506 | 11.92141 | 137° | 184km/h | 9116m | -5.0m/s | -35.6°C | 32.9% | 314.2hPa | 2.5V | 00:00:00 | 02:53:54 | 00:00:00 | |
| DO2SHX-10 | 2026-09-06 01:13:42 | 53.43610 | 11.91983 | 140° | 186km/h | 9131m | -4.6m/s | -35.7°C | 31.5% | 313.5hPa | 2.5V | 00:00:00 | 02:53:51 | 00:00:00 | |
| DB0DAN | 2026-09-06 01:13:40 | 53.43683 | 11.91882 | 141° | 175km/h | 9141m | -5.5m/s | -35.8°C | 26.6% | 313.09hPa | 2.5V | 00:00:00 | 00:00:00 | 00:00:00 | |
| DL1XH-west | 2026-09-06 01:13:40 | 53.43683 | 11.91882 | 141° | 184km/h | 9141m | -5.5m/s | -35.8°C | 31.6% | 313.1hPa | 2.5V | 07:50:38 | 02:53:49 | 00:00:00 | |
| EDDB2-11 | 2026-09-06 01:13:40 | 53.43718 | 11.91833 | 141° | 181km/h | 9146m | -4.7m/s | -35.8°C | 25.9% | 312.9hPa | 2.6V | 00:00:00 | 00:00:00 | 00:00:00 | |
| DO2SHX-10 | 2026-09-06 01:13:39 | 53.43718 | 11.91833 | 142° | 179km/h | 9146m | -4.6m/s | -35.8°C | 29.5% | 312.8hPa | 2.6V | 00:00:00 | 02:53:48 | 00:00:00 | |
| DL1XH1-15 | 2026-09-06 01:13:38 | 53.43922 | 11.91541 | 137° | 179km/h | 9175m | -5.2m/s | -35.9°C | 24.6% | 311.6hPa | 2.6V | 07:50:20 | 02:53:42 | 00:00:00 | |
| DL1XH-15 | 2026-09-06 01:13:37 | 53.43956 | 11.91490 | 137° | 181km/h | 9181m | -5.4m/s | -35.9°C | 23.7% | 311.3hPa | 2.6V | 07:50:21 | 02:53:41 | 00:00:00 | |
| AA1-15 | 2026-09-06 01:13:36 | 53.43822 | 11.91690 | 139° | 175km/h | 9160m | -5.3m/s | -35.8°C | 28.5% | 312.2hPa | 2.5V | 07:50:38 | 02:53:45 | 00:00:00 | |
| DL1XH-west | 2026-09-06 01:13:29 | 53.44061 | 11.91336 | 140° | 184km/h | 9196m | -4.6m/s | -35.8°C | 22.9% | 310.6hPa | 2.5V | 07:50:38 | 02:53:38 | 00:00:00 | |
| DL1XH1-15 | 2026-09-06 01:13:28 | 53.44270 | 11.91039 | 137° | 181km/h | 9226m | -4.8m/s | -35.9°C | 21.5% | 309.4hPa | 2.4V | 07:50:30 | 02:53:32 | 00:00:00 | |
| DL1XH-15 | 2026-09-06 01:13:27 | 53.44304 | 11.90988 | 137° | 183km/h | 9231m | -5.3m/s | -36°C | 21.6% | 309.1hPa | 2.5V | 07:50:31 | 02:53:31 | 00:00:00 | |
| DM0DOS-11 | 2026-09-06 01:13:27 | 53.44202 | 11.91140 | 139° | 177km/h | 9216m | -5.1m/s | -35.9°C | 21.5% | 309.8hPa | 2.6V | 07:50:28 | 02:53:34 | 00:00:00 | |
| DO2SHX-10 | 2026-09-06 01:13:27 | 53.44133 | 11.91237 | 141° | 179km/h | 9206m | -4.7m/s | -35.7°C | 21.3% | 310.2hPa | 2.6V | 00:00:00 | 02:53:36 | 00:00:00 | |
| DB0DAN | 2026-09-06 01:13:25 | 53.44202 | 11.91140 | 139° | 170km/h | 9216m | -5.1m/s | -35.9°C | 18.6% | 309.76hPa | 2.6V | 00:00:00 | 00:00:00 | 00:00:00 | |
| DF8AY | 2026-09-06 01:13:25 | 53.44202 | 11.91140 | 139° | 177km/h | 9216m | -5.1m/s | -35.9°C | 23.3% | 309.8hPa | 2.6V | 07:50:38 | 02:53:34 | 00:00:00 | |
| DL1XH-west | 2026-09-06 01:13:19 | 53.44409 | 11.90831 | 140° | 186km/h | 9246m | -5.1m/s | -36.1°C | 23.6% | 308.4hPa | 2.6V | 07:50:38 | 02:53:28 | 00:00:00 | |
| DL1XH1-15 | 2026-09-06 01:13:18 | 53.44619 | 11.90539 | 138° | 177km/h | 9276m | -5.1m/s | -36.4°C | 22.2% | 307.1hPa | 2.4V | 07:50:40 | 02:53:22 | 00:00:00 | |
| DO2SHX-10 | 2026-09-06 01:13:18 | 53.44445 | 11.90781 | 141° | 183km/h | 9251m | -4.8m/s | -36.1°C | 21.9% | 308.2hPa | 2.4V | 00:00:00 | 02:53:27 | 00:00:00 | |
| DM0DOS-11 | 2026-09-06 01:13:17 | 53.44551 | 11.90636 | 140° | 177km/h | 9266m | -5.5m/s | -36.3°C | 22% | 307.6hPa | 2.6V | 07:50:38 | 02:53:24 | 00:00:00 | |
| DL1XH-15 | 2026-09-06 01:13:17 | 53.44652 | 11.90488 | 137° | 179km/h | 9281m | -4.6m/s | -36.5°C | 22.2% | 306.9hPa | 2.5V | 07:50:41 | 02:53:21 | 00:00:00 | |
| AA1-15 | 2026-09-06 01:13:15 | 53.44551 | 11.90636 | 140° | 177km/h | 9266m | -5.5m/s | -36.3°C | 23.8% | 307.6hPa | 2.6V | 07:50:38 | 02:53:24 | 00:00:00 | |
| DF8AY | 2026-09-06 01:13:14 | 53.44585 | 11.90588 | 139° | 175km/h | 9271m | -4.9m/s | -36.4°C | 23.9% | 307.4hPa | 2.6V | 07:52:20 | 02:53:23 | 00:00:00 | |
| DF8AY | 2026-09-06 01:13:09 | 53.44935 | 11.90079 | 141° | 179km/h | 9320m | -5m/s | -36.8°C | 24.6% | 305.2hPa | 2.6V | 07:52:20 | 02:53:13 | 00:00:00 | |
| DL1XH-west | 2026-09-06 01:13:08 | 53.44791 | 11.90278 | 139° | 188km/h | 9300m | -4.9m/s | -36.7°C | 24.4% | 306.1hPa | 2.4V | 07:51:29 | 02:53:17 | 00:00:00 | |
| DL1XH1-15 | 2026-09-06 01:13:08 | 53.44969 | 11.90032 | 140° | 175km/h | 9325m | -5m/s | -36.9°C | 22.9% | 304.9hPa | 2.6V | 07:50:50 | 02:53:12 | 00:00:00 | |
| DL1XH-15 | 2026-09-06 01:13:07 | 53.45003 | 11.89984 | 139° | 175km/h | 9330m | -4.8m/s | -36.9°C | 22.9% | 304.7hPa | 2.6V | 07:50:51 | 02:53:11 | 00:00:00 | |
| DM0DOS-11 | 2026-09-06 01:13:07 | 53.44899 | 11.90127 | 141° | 181km/h | 9315m | -4.8m/s | -36.8°C | 22.7% | 305.4hPa | 2.5V | 07:50:48 | 02:53:14 | 00:00:00 | |
| AA1-15 | 2026-09-06 01:13:05 | 53.44899 | 11.90127 | 141° | 181km/h | 9315m | -4.8m/s | -36.8°C | 24.6% | 305.4hPa | 2.5V | 07:51:29 | 02:53:14 | 00:00:00 | |
| DG6HD-15 | 2026-09-06 01:13:04 | 53.44899 | 11.90127 | 142° | 181km/h | 9315m | -4.8m/s | -36.8°C | 19.6% | 305.4hPa | 2.5V | 07:51:00 | 00:00:00 | 00:00:00 | |
| DO2SHX-10 | 2026-09-06 01:13:03 | 53.44969 | 11.90032 | 141° | 175km/h | 9325m | -4.9m/s | -36.8°C | 22.9% | 304.9hPa | 2.5V | 00:00:00 | 02:53:12 | 00:00:00 | |
| EDDB2-12 | 2026-09-06 01:13:01 | 53.45070 | 11.89885 | 137° | 177km/h | 9340m | -5.4m/s | -37.0°C | 19.9% | 304.3hPa | 2.5V | 00:00:00 | 00:00:00 | 00:00:00 | |
| DM0DOS-11 | 2026-09-06 01:13:00 | 53.45242 | 11.89625 | 139° | 186km/h | 9364m | -5.1m/s | -37.3°C | 23.4% | 303.2hPa | 2.5V | 07:50:58 | 02:53:04 | 00:00:00 | |
| DO2SHX-10 | 2026-09-06 01:13:00 | 53.45070 | 11.89885 | 138° | 181km/h | 9340m | -5.4m/s | -37.0°C | 23.1% | 304.2hPa | 2.5V | 00:00:00 | 02:53:09 | 00:00:00 | |
| DL1XH1-15 | 2026-09-06 01:12:58 | 53.45314 | 11.89525 | 140° | 181km/h | 9374m | -4.8m/s | -37.4°C | 23.4% | 302.8hPa | 2.5V | 07:51:00 | 02:53:02 | 00:00:00 | |
| DL1XH-west | 2026-09-06 01:12:58 | 53.45137 | 11.89781 | 137° | 184km/h | 9349m | -4.7m/s | -37.1°C | 25% | 303.9hPa | 2.5V | 07:51:29 | 02:53:07 | 00:00:00 | |
| DL1XH-15 | 2026-09-06 01:12:57 | 53.45349 | 11.89476 | 140° | 179km/h | 9378m | -4.7m/s | -37.4°C | 23.4% | 302.6hPa | 2.6V | 07:51:01 | 02:53:01 | 00:00:00 | |
| DO2SHX-10 | 2026-09-06 01:12:57 | 53.45171 | 11.89729 | 138° | 186km/h | 9354m | -4.8m/s | -37.1°C | 23.3% | 303.6hPa | 2.5V | 00:00:00 | 02:53:06 | 00:00:00 | |
| DB0DAN | 2026-09-06 01:12:55 | 53.45242 | 11.89625 | 140° | 177km/h | 9364m | -5.1m/s | -37.3°C | 20.2% | 303.23hPa | 2.5V | 00:00:00 | 00:00:00 | 00:00:00 | |
| AA1-15 | 2026-09-06 01:12:54 | 53.45278 | 11.89574 | 140° | 184km/h | 9369m | -4.7m/s | -37.3°C | 25.1% | 303hPa | 2.5V | 07:51:29 | 02:53:03 | 00:00:00 | |
| DF8AY | 2026-09-06 01:12:53 | 53.45314 | 11.89525 | 140° | 181km/h | 9374m | -4.9m/s | -37.4°C | 25% | 302.8hPa | 2.5V | 07:52:20 | 02:53:02 | 00:00:00 | |
| DO2SHX-10 | 2026-09-06 01:12:51 | 53.45383 | 11.89427 | 140° | 177km/h | 9383m | -4.9m/s | -37.4°C | 23.4% | 302.3hPa | 2.6V | 00:00:00 | 02:53:00 | 00:00:00 | |
| MECKS9 | 2026-09-06 01:12:50 | 53.45417 | 11.89378 | 140° | 177km/h | 9388m | -5.1m/s | -37.5°C | 20.0% | 302.2hPa | 2.4V | 00:00:00 | 00:00:00 | 00:00:00 | |
| DL1XH1-15 | 2026-09-06 01:12:48 | 53.45658 | 11.89026 | 139° | 179km/h | 9422m | -5.1m/s | -37.8°C | 22.8% | 300.7hPa | 2.4V | 07:51:10 | 02:52:52 | 00:00:00 | |
| DL1XH-west | 2026-09-06 01:12:48 | 53.45485 | 11.89278 | 138° | 181km/h | 9398m | -5.2m/s | -37.6°C | 24.6% | 301.8hPa | 2.5V | 07:51:29 | 02:52:57 | 00:00:00 | |
| DL1XH-15 | 2026-09-06 01:12:47 | 53.45692 | 11.88977 | 139° | 177km/h | 9427m | -4.8m/s | -37.8°C | 22.7% | 300.4hPa | 2.5V | 07:51:11 | 02:52:51 | 00:00:00 | |
| DM0DOS-11 | 2026-09-06 01:12:47 | 53.45588 | 11.89125 | 139° | 183km/h | 9412m | -5.2m/s | -37.7°C | 22.8% | 301.1hPa | 2.6V | 07:51:08 | 02:52:54 | 00:00:00 | |
| AA1-15 | 2026-09-06 01:12:43 | 53.45658 | 11.89026 | 140° | 179km/h | 9422m | -5.1m/s | -37.8°C | 24.2% | 300.7hPa | 2.4V | 07:51:29 | 02:52:52 | 00:00:00 | |
| DO2SHX-10 | 2026-09-06 01:12:42 | 53.45692 | 11.88977 | 140° | 177km/h | 9427m | -4.7m/s | -37.8°C | 22.7% | 300.4hPa | 2.5V | 00:00:00 | 02:52:51 | 00:00:00 | |
| DB0DAN | 2026-09-06 01:12:40 | 53.45760 | 11.88877 | 138° | 170km/h | 9437m | -4.7m/s | -37.9°C | 19.4% | 300.02hPa | 2.5V | 00:00:00 | 00:00:00 | 00:00:00 | |
| DM0DOS-11 | 2026-09-06 01:12:40 | 53.45932 | 11.88620 | 140° | 184km/h | 9461m | -5.2m/s | -38.1°C | 22.6% | 299hPa | 2.5V | 07:51:18 | 02:52:44 | 00:00:00 | |
| DL1XH-west | 2026-09-06 01:12:38 | 53.45827 | 11.88774 | 138° | 183km/h | 9446m | -5.1m/s | -38°C | 23.9% | 299.6hPa | 2.6V | 07:51:29 | 02:52:47 | 00:00:00 | |
| DL1XH-15 | 2026-09-06 01:12:37 | 53.46038 | 11.88474 | 140° | 175km/h | 9476m | -4.9m/s | -38.3°C | 22.6% | 298.3hPa | 2.6V | 07:51:21 | 02:52:41 | 00:00:00 | |
| DF8AY | 2026-09-06 01:12:33 | 53.46004 | 11.88522 | 141° | 179km/h | 9471m | -5.3m/s | -38.3°C | 24.1% | 298.5hPa | 2.6V | 07:52:20 | 02:52:42 | 00:00:00 | |
| AA1-15 | 2026-09-06 01:12:32 | 53.46038 | 11.88474 | 140° | 175km/h | 9476m | -4.9m/s | -38.3°C | 24.1% | 298.3hPa | 2.6V | 07:51:29 | 02:52:41 | 00:00:00 | |
| DL1XH-west | 2026-09-06 01:12:28 | 53.46171 | 11.88277 | 137° | 179km/h | 9496m | -5.6m/s | -38.5°C | 23.8% | 297.4hPa | 2.5V | 07:51:29 | 02:52:37 | 00:00:00 | |
| DM0DOS-11 | 2026-09-06 01:12:27 | 53.46271 | 11.88118 | 137° | 184km/h | 9512m | -4.8m/s | -38.6°C | 22.3% | 296.8hPa | 2.6V | 07:51:28 | 02:52:34 | 00:00:00 | |
| DO2SHX-10 | 2026-09-06 01:12:27 | 53.46204 | 11.88224 | 137° | 183km/h | 9502m | -5.0m/s | -38.5°C | 22.4% | 297.2hPa | 2.6V | 00:00:00 | 02:52:36 | 00:00:00 | |
| DB0DAN | 2026-09-06 01:12:25 | 53.46271 | 11.88118 | 137° | 175km/h | 9512m | -4.9m/s | -38.6°C | 19.1% | 296.79hPa | 2.6V | 00:00:00 | 00:00:00 | 00:00:00 | |
| DO2SHX-10 | 2026-09-06 01:12:24 | 53.46306 | 11.88066 | 139° | 183km/h | 9516m | -5.0m/s | -38.6°C | 22.2% | 296.6hPa | 2.4V | 00:00:00 | 02:52:33 | 00:00:00 | |
| DL1XH-15 | 2026-09-06 01:12:23 | 53.46376 | 11.87965 | 140° | 181km/h | 9527m | -5m/s | -38.7°C | 22% | 296.1hPa | 2.5V | 07:51:31 | 02:52:31 | 00:00:00 | |
| DF8AY | 2026-09-06 01:12:22 | 53.46376 | 11.87965 | 140° | 181km/h | 9527m | -5m/s | -38.7°C | 23.3% | 296.2hPa | 2.5V | 07:52:20 | 02:52:31 | 00:00:00 | |
| AA1-15 | 2026-09-06 01:12:21 | 53.46411 | 11.87917 | 140° | 177km/h | 9531m | -4.8m/s | -38.8°C | 23.2% | 296hPa | 2.5V | 07:52:20 | 02:52:30 | 00:00:00 | |
| DO2SHX-10 | 2026-09-06 01:12:21 | 53.46411 | 11.87917 | 141° | 175km/h | 9531m | -4.8m/s | -38.7°C | 21.9% | 295.9hPa | 2.4V | 07:51:00 | 02:52:30 | 00:00:00 | |
| DL1XH1-15 | 2026-09-06 01:12:19 | 53.46609 | 11.87618 | 136° | 181km/h | 9561m | -4.7m/s | -39°C | 20.8% | 294.7hPa | 2.4V | 07:51:38 | 02:52:24 | 00:00:00 | |
| DL1XH-west | 2026-09-06 01:12:18 | 53.46512 | 11.87772 | 138° | 173km/h | 9546m | -4.8m/s | -38.9°C | 22.6% | 295.3hPa | 2.5V | 07:52:20 | 02:52:27 | 00:00:00 | |
| DL1XH-15 | 2026-09-06 01:12:17 | 53.46712 | 11.87459 | 138° | 184km/h | 9575m | -5m/s | -39.1°C | 20% | 294.1hPa | 2.6V | 07:51:41 | 02:52:21 | 00:00:00 | |
| AA1-15 | 2026-09-06 01:12:11 | 53.46747 | 11.87408 | 140° | 183km/h | 9580m | -4.7m/s | -39.2°C | 20.9% | 293.9hPa | 2.6V | 07:52:20 | 02:52:20 | 00:00:00 | |
| DO2SHX-10 | 2026-09-06 01:12:09 | 53.46816 | 11.87310 | 140° | 173km/h | 9590m | -4.8m/s | -39.2°C | 19.2% | 293.4hPa | 2.6V | 00:00:00 | 02:52:18 | 00:00:00 | |
| DM0DOS-11 | 2026-09-06 01:12:07 | 53.46946 | 11.87115 | 136° | 173km/h | 9610m | -4.8m/s | -39.4°C | 18.8% | 292.6hPa | 2.6V | 07:51:48 | 02:52:14 | 00:00:00 | |
| DL1XH-west | 2026-09-06 01:12:07 | 53.46882 | 11.87214 | 138° | 170km/h | 9600m | -4.9m/s | -39.3°C | 20.2% | 293hPa | 2.4V | 07:52:20 | 02:52:16 | 00:00:00 | |
| DO2SHX-10 | 2026-09-06 01:12:06 | 53.46914 | 11.87165 | 138° | 173km/h | 9605m | -4.8m/s | -39.3°C | 18.9% | 292.7hPa | 2.5V | 00:00:00 | 02:52:15 | 00:00:00 | |
| MECKS9 | 2026-09-06 01:12:05 | 53.46914 | 11.87165 | 138° | 172km/h | 9605m | -4.8m/s | -39.4°C | 15.9% | 292.8hPa | 2.5V | 07:52:00 | 00:00:00 | 00:00:00 | |
| DL1XH-15 | 2026-09-06 01:12:03 | 53.47044 | 11.86959 | 137° | 184km/h | 9624m | -4.8m/s | -39.5°C | 18.8% | 291.9hPa | 2.5V | 07:51:51 | 02:52:11 | 00:00:00 | |
| AA1-15 | 2026-09-06 01:12:01 | 53.47079 | 11.86906 | 138° | 186km/h | 9629m | -5m/s | -39.6°C | 19.9% | 291.8hPa | 2.5V | 07:52:20 | 02:52:10 | 00:00:00 | |
| DF8AY | 2026-09-06 01:12:00 | 53.47114 | 11.86854 | 139° | 186km/h | 9634m | -4.8m/s | -39.6°C | 20% | 291.6hPa | 2.6V | 07:52:20 | 02:52:09 | 00:00:00 | |
| EDDB2-12 | 2026-09-06 01:11:59 | 53.47186 | 11.86751 | 139° | 181km/h | 9644m | -5.2m/s | -39.7°C | 15.8% | 291.1hPa | 2.4V | 00:00:00 | 00:00:00 | 00:00:00 | |
| DL1XH-15 | 2026-09-06 01:11:57 | 53.47382 | 11.86452 | 136° | 172km/h | 9673m | -5.2m/s | -40°C | 19.1% | 289.8hPa | 2.4V | 07:52:01 | 02:52:01 | 00:00:00 | |
| DL1XH-west | 2026-09-06 01:11:57 | 53.47221 | 11.86702 | 139° | 179km/h | 9649m | -4.9m/s | -39.8°C | 20% | 290.9hPa | 2.4V | 07:52:20 | 02:52:06 | 00:00:00 | |
| AA1-15 | 2026-09-06 01:11:50 | 53.47445 | 11.86353 | 138° | 170km/h | 9684m | -5.2m/s | -40.1°C | 20.6% | 289.4hPa | 2.5V | 07:52:20 | 02:51:59 | 00:00:00 | |
| DO2SHX-10 | 2026-09-06 01:11:48 | 53.47509 | 11.86258 | 140° | 173km/h | 9694m | -4.9m/s | -40.1°C | 19.4% | 289.0hPa | 2.6V | 00:00:00 | 02:51:57 | 00:00:00 | |
| DM0DOS-11 | 2026-09-06 01:11:47 | 53.47612 | 11.86117 | 141° | 179km/h | 9709m | -4.8m/s | -40.3°C | 19.6% | 288.3hPa | 2.5V | 07:52:08 | 02:51:54 | 00:00:00 | |
| DL1XH-west | 2026-09-06 01:11:47 | 53.47543 | 11.86211 | 141° | 173km/h | 9699m | -5.3m/s | -40.2°C | 20.8% | 288.8hPa | 2.4V | 07:52:20 | 02:51:56 | 00:00:00 | |
| DJ2DS-15 | 2026-09-06 01:11:47 | 53.47577 | 11.86165 | 141° | 175km/h | 9704m | -5.1m/s | -40.3°C | 16.3% | 288.6hPa | 2.4V | 00:00:00 | 00:00:00 | 00:00:00 | |
| DO2SHX-10 | 2026-09-06 01:11:45 | 53.47612 | 11.86117 | 142° | 183km/h | 9709m | -4.8m/s | -40.2°C | 19.6% | 288.3hPa | 2.4V | 00:00:00 | 02:51:54 | 00:00:00 | |
| DO2SHX-10 | 2026-09-06 01:11:42 | 53.47721 | 11.85971 | 141° | 186km/h | 9724m | -4.9m/s | -40.4°C | 19.5% | 287.7hPa | 2.4V | 00:00:00 | 02:51:51 | 00:00:00 | |
| DB0DAN | 2026-09-06 01:11:40 | 53.47793 | 11.85871 | 140° | 177km/h | 9734m | -5.1m/s | -40.5°C | 16.6% | 287.29hPa | 2.4V | 00:00:00 | 00:00:00 | 00:00:00 | |
| AA1-15 | 2026-09-06 01:11:39 | 53.47829 | 11.85820 | 139° | 184km/h | 9739m | -5.2m/s | -40.6°C | 20.9% | 287.1hPa | 2.5V | 07:52:20 | 02:51:48 | 00:00:00 | |
| DO2SHX-10 | 2026-09-06 01:11:39 | 53.47829 | 11.85820 | 140° | 183km/h | 9740m | -5.2m/s | -40.5°C | 19.8% | 287.1hPa | 2.5V | 00:00:00 | 02:51:48 | 00:00:00 | |
| DL1XH-15 | 2026-09-06 01:11:37 | 53.48060 | 11.85458 | 135° | 179km/h | 9774m | -5m/s | -40.9°C | 19.6% | 285.6hPa | 2.6V | 07:52:21 | 02:51:41 | 00:00:00 | |
| DM0DOS-11 | 2026-09-06 01:11:37 | 53.47963 | 11.85614 | 136° | 175km/h | 9759m | -5.1m/s | -40.7°C | 19.6% | 286.3hPa | 2.4V | 07:52:18 | 02:51:44 | 00:00:00 | |
| DL1XH-west | 2026-09-06 01:11:37 | 53.47898 | 11.85717 | 138° | 181km/h | 9749m | -4.8m/s | -40.7°C | 20.9% | 286.7hPa | 2.6V | 07:52:20 | 02:51:46 | 00:00:00 | |
| AA1-15 | 2026-09-06 01:11:28 | 53.48195 | 11.85243 | 137° | 188km/h | 9794m | -5m/s | -41.1°C | 21.3% | 284.8hPa | 2.5V | 07:53:11 | 02:51:37 | 00:00:00 | |
| EDDB2-12 | 2026-09-06 01:11:28 | 53.48229 | 11.85189 | 137° | 186km/h | 9799m | -5.2m/s | -41.1°C | 17.0% | 284.6hPa | 2.4V | 00:00:00 | 00:00:00 | 00:00:00 | |
| DM0DOS-11 | 2026-09-06 01:11:27 | 53.48300 | 11.85085 | 139° | 184km/h | 9809m | -4.7m/s | -41.2°C | 20.7% | 284.2hPa | 2.4V | 07:52:28 | 02:51:34 | 00:00:00 | |
| DL1XH-west | 2026-09-06 01:11:26 | 53.48265 | 11.85136 | 139° | 186km/h | 9804m | -5m/s | -41.2°C | 21.7% | 284.3hPa | 2.6V | 07:53:11 | 02:51:35 | 00:00:00 | |
| DO2SHX-10 | 2026-09-06 01:11:24 | 53.48335 | 11.85034 | 140° | 179km/h | 9814m | -4.7m/s | -41.2°C | 20.8% | 283.9hPa | 2.5V | 00:00:00 | 02:51:33 | 00:00:00 | |
| AM1SDL-15 | 2026-09-06 01:11:22 | 53.48404 | 11.84936 | 140° | 179km/h | 9823m | -4.8m/s | -41.3°C | 21.0% | 283.5hPa | 2.5V | 00:00:00 | 02:51:31 | 00:00:00 | |
| MECKS9 | 2026-09-06 01:11:21 | 53.48438 | 11.84888 | 139° | 175km/h | 9828m | -5.2m/s | -41.4°C | 17.7% | 283.3hPa | 2.5V | 00:00:00 | 00:00:00 | 00:00:00 | |
| DL1XH1-15 | 2026-09-06 01:11:19 | 53.48637 | 11.84573 | 137° | 188km/h | 9858m | -5.3m/s | -41.7°C | 21.6% | 282.1hPa | 2.5V | 07:52:38 | 02:51:24 | 00:00:00 | |
| DL4BBY-15 | 2026-09-06 01:11:19 | 53.48503 | 11.84787 | 137° | 181km/h | 9838m | -5.0m/s | -42.1°C | 0% | 0hPa | 2.4V | 00:00:00 | 00:00:00 | 00:00:00 | |
| DO2SHX-10 | 2026-09-06 01:11:18 | 53.48535 | 11.84735 | 136° | 183km/h | 9844m | -5.3m/s | -41.5°C | 21.5% | 282.7hPa | 2.4V | 00:00:00 | 02:51:27 | 00:00:00 | |
| DM0DOS-11 | 2026-09-06 01:11:17 | 53.48672 | 11.84519 | 138° | 188km/h | 9864m | -5.4m/s | -41.7°C | 21.6% | 281.9hPa | 2.4V | 07:52:39 | 02:51:23 | 00:00:00 | |
| AA1-15 | 2026-09-06 01:11:17 | 53.48568 | 11.84682 | 136° | 183km/h | 9848m | -5m/s | -41.6°C | 22.9% | 282.5hPa | 2.5V | 07:53:11 | 02:51:26 | 00:00:00 | |
| DL1XH-west | 2026-09-06 01:11:15 | 53.48637 | 11.84573 | 137° | 188km/h | 9858m | -5.3m/s | -41.7°C | 22.9% | 282.1hPa | 2.5V | 07:53:11 | 02:51:24 | 00:00:00 | |
| DO2SHX-10 | 2026-09-06 01:11:15 | 53.48636 | 11.84573 | 138° | 188km/h | 9859m | -5.2m/s | -41.6°C | 21.6% | 282.0hPa | 2.4V | 00:00:00 | 02:51:24 | 00:00:00 | |
| D01LWL | 2026-09-06 01:11:14 | 53.48707 | 11.84466 | 138° | 186km/h | 9869m | -5.0m/s | -41.8°C | 18.3% | 281.6hPa | 2.4V | 00:00:00 | 00:00:00 | 00:00:00 | |
| DO2SHX-10 | 2026-09-06 01:11:12 | 53.48743 | 11.84415 | 140° | 181km/h | 9874m | -4.7m/s | -41.8°C | 22.1% | 281.4hPa | 2.4V | 00:00:00 | 02:51:21 | 00:00:00 | |
| DJ2DS-15 | 2026-09-06 01:11:11 | 53.48812 | 11.84316 | 139° | 175km/h | 9883m | -4.6m/s | -41.9°C | 18.7% | 281.0hPa | 2.6V | 00:00:00 | 00:00:00 | 00:00:00 | |
| DL1XH1-15 | 2026-09-06 01:11:09 | 53.48973 | 11.84062 | 134° | 177km/h | 9909m | -5.1m/s | -42.1°C | 22.1% | 280hPa | 2.6V | 07:52:48 | 02:51:14 | 00:00:00 | |
| DO2SHX-10 | 2026-09-06 01:11:09 | 53.48845 | 11.84267 | 139° | 173km/h | 9888m | -4.7m/s | -41.9°C | 22.4% | 280.7hPa | 2.5V | 07:52:00 | 02:51:18 | 00:00:00 | |
| DM0DOS-11 | 2026-09-06 01:11:07 | 53.49004 | 11.84008 | 134° | 181km/h | 9914m | -5.2m/s | -42.1°C | 22% | 279.7hPa | 2.5V | 07:52:49 | 02:51:13 | 00:00:00 | |
| DF8AY | 2026-09-06 01:11:07 | 53.48910 | 11.84167 | 136° | 173km/h | 9899m | -5.3m/s | -42°C | 23.6% | 280.4hPa | 2.4V | 07:53:11 | 02:51:16 | 00:00:00 | |
| AA1-15 | 2026-09-06 01:11:06 | 53.48941 | 11.84115 | 135° | 175km/h | 9904m | -5.2m/s | -42.1°C | 23.5% | 280.2hPa | 2.5V | 07:53:11 | 02:51:15 | 00:00:00 | |
| DL1XH-west | 2026-09-06 01:11:05 | 53.48973 | 11.84062 | 135° | 177km/h | 9909m | -5.1m/s | -42.1°C | 23.4% | 280hPa | 2.6V | 07:53:11 | 02:51:14 | 00:00:00 | |
| EDDB2-11 | 2026-09-06 01:11:04 | 53.49004 | 11.84008 | 134° | 179km/h | 9914m | -5.2m/s | -42.1°C | 18.4% | 279.7hPa | 2.4V | 00:00:00 | 00:00:00 | 00:00:00 | |
| DO2SHX-10 | 2026-09-06 01:11:03 | 53.49036 | 11.83953 | 135° | 186km/h | 9919m | -5.1m/s | -42.1°C | 22.0% | 279.3hPa | 2.4V | 00:00:00 | 02:51:12 | 00:00:00 | |
| SONCRA | 2026-09-06 01:11:02 | 53.49103 | 11.83842 | 135° | 188km/h | 9929m | -5.1m/s | -42.3°C | 18.2% | 279.2hPa | 2.5V | 00:00:00 | 00:00:00 | 00:00:00 | |
| DO2SHX-10 | 2026-09-06 01:11:00 | 53.49138 | 11.83786 | 137° | 188km/h | 9934m | -4.7m/s | -42.2°C | 21.7% | 278.9hPa | 2.5V | 00:00:00 | 02:51:09 | 00:00:00 | |
| DL1XH1-15 | 2026-09-06 01:10:59 | 53.49310 | 11.83528 | 137° | 175km/h | 9959m | -5m/s | -42.4°C | 21.1% | 277.9hPa | 2.5V | 07:52:58 | 02:51:04 | 00:00:00 | |
| DL1XH-15 | 2026-09-06 01:10:57 | 53.49405 | 11.83373 | 134° | 177km/h | 9975m | -5.4m/s | -42.5°C | 21.1% | 277.4hPa | 2.4V | 07:53:01 | 02:51:01 | 00:00:00 | |
| DM0DOS-11 | 2026-09-06 01:10:57 | 53.49342 | 11.83478 | 136° | 173km/h | 9965m | -5.3m/s | -42.5°C | 21% | 277.7hPa | 2.6V | 07:52:59 | 02:51:03 | 00:00:00 | |
| DF8AY | 2026-09-06 01:10:56 | 53.49277 | 11.83578 | 138° | 177km/h | 9954m | -5.2m/s | -42.4°C | 22.4% | 278.1hPa | 2.4V | 07:53:11 | 02:51:05 | 00:00:00 | |
| DL1XH-west | 2026-09-06 01:10:55 | 53.49310 | 11.83528 | 137° | 175km/h | 9959m | -5m/s | -42.4°C | 22.4% | 277.9hPa | 2.5V | 07:53:11 | 02:51:04 | 00:00:00 | |
| DO2SHX-10 | 2026-09-06 01:10:54 | 53.49342 | 11.83478 | 137° | 175km/h | 9965m | -5.2m/s | -42.4°C | 21.0% | 277.7hPa | 2.6V | 00:00:00 | 02:51:03 | 00:00:00 | |
| AM1SDL-15 | 2026-09-06 01:10:52 | 53.49404 | 11.83373 | 135° | 184km/h | 9975m | -5.3m/s | -42.5°C | 21.1% | 277.3hPa | 2.6V | 00:00:00 | 02:51:01 | 00:00:00 | |
| DO2SHX-10 | 2026-09-06 01:10:51 | 53.49435 | 11.83319 | 134° | 183km/h | 9980m | -5.0m/s | -42.6°C | 21.1% | 277.0hPa | 2.6V | 00:00:00 | 02:51:00 | 00:00:00 | |
| DL4BBY-15 | 2026-09-06 01:10:49 | 53.49499 | 11.83206 | 134° | 183km/h | 9991m | -5.3m/s | -43.3°C | 0% | 0hPa | 2.6V | 00:00:00 | 00:00:00 | 00:00:00 | |
| DO2SHX-10 | 2026-09-06 01:10:48 | 53.49531 | 11.83148 | 134° | 192km/h | 9996m | -4.8m/s | -42.7°C | 21.1% | 276.4hPa | 2.6V | 00:00:00 | 02:50:57 | 00:00:00 | |
| DL1XH-15 | 2026-09-06 01:10:47 | 53.49738 | 11.82814 | 137° | 181km/h | 10025m | -4.8m/s | -43°C | 21.4% | 275.2hPa | 2.6V | 07:53:11 | 02:50:51 | 00:00:00 | |
| DM0DOS-11 | 2026-09-06 01:10:47 | 53.49669 | 11.82920 | 137° | 190km/h | 10015m | -4.8m/s | -42.9°C | 21.3% | 275.6hPa | 2.5V | 07:53:09 | 02:50:53 | 00:00:00 | |
| DF8AY | 2026-09-06 01:10:46 | 53.49599 | 11.83032 | 135° | 192km/h | 10005m | -5.1m/s | -42.8°C | 22.4% | 276hPa | 2.4V | 07:53:11 | 02:50:55 | 00:00:00 | |
| AA1-15 | 2026-09-06 01:10:44 | 53.49669 | 11.82920 | 137° | 190km/h | 10015m | -4.8m/s | -42.9°C | 22.5% | 275.7hPa | 2.5V | 07:53:11 | 02:50:53 | 00:00:00 | |
| DL1XH-west | 2026-09-06 01:10:43 | 53.49704 | 11.82867 | 138° | 186km/h | 10020m | -4.9m/s | -42.9°C | 22.6% | 275.4hPa | 2.6V | 07:53:11 | 02:50:52 | 00:00:00 | |
| DO2SHX-10 | 2026-09-06 01:10:42 | 53.49738 | 11.82814 | 138° | 179km/h | 10025m | -4.8m/s | -42.9°C | 21.4% | 275.2hPa | 2.6V | 00:00:00 | 02:50:51 | 00:00:00 | |
| DO2SHX-10 | 2026-09-06 01:10:39 | 53.49835 | 11.82658 | 135° | 177km/h | 10041m | -5.6m/s | -43.1°C | 21.5% | 274.5hPa | 2.6V | 00:00:00 | 02:50:48 | 00:00:00 | |
| SONDE2-11 | 2026-09-06 01:10:38 | 53.49866 | 11.82604 | 133° | 175km/h | 10047m | -5.3m/s | -43.2°C | 17.8% | 274.4hPa | 2.6V | 00:00:00 | 00:00:00 | 00:00:00 | |
| DL1XH-15 | 2026-09-06 01:10:37 | 53.50058 | 11.82258 | 135° | 192km/h | 10077m | -4.9m/s | -43.5°C | 22.1% | 273hPa | 2.6V | 07:53:21 | 02:50:41 | 00:00:00 | |
| DF8AY | 2026-09-06 01:10:35 | 53.49959 | 11.82433 | 132° | 188km/h | 10062m | -4.8m/s | -43.3°C | 23% | 273.7hPa | 2.4V | 07:54:02 | 02:50:44 | 00:00:00 | |
| DM0DOS-11 | 2026-09-06 01:10:35 | 53.49991 | 11.82374 | 132° | 190km/h | 10068m | -5.2m/s | -43.4°C | 21.9% | 273.5hPa | 2.4V | 07:53:19 | 02:50:43 | 00:00:00 | |
| DJ2DS-15 | 2026-09-06 01:10:35 | 53.49959 | 11.82433 | 133° | 184km/h | 10063m | -4.7m/s | -43.3°C | 21.8% | 273.7hPa | 2.4V | 07:53:00 | 02:50:44 | 00:00:00 | |
| DL1XH1-15 | 2026-09-06 01:10:34 | 53.50162 | 11.82092 | 137° | 183km/h | 10093m | -5m/s | -43.6°C | 22.3% | 272.5hPa | 2.4V | 07:53:24 | 02:50:38 | 00:00:00 | |
| AA1-15 | 2026-09-06 01:10:33 | 53.50025 | 11.82316 | 134° | 192km/h | 10072m | -4.7m/s | -43.4°C | 23.2% | 273.4hPa | 2.5V | 07:54:02 | 02:50:42 | 00:00:00 | |
| DL1XH-west | 2026-09-06 01:10:32 | 53.50059 | 11.82258 | 135° | 192km/h | 10077m | -4.9m/s | -43.5°C | 23.3% | 273.1hPa | 2.6V | 07:54:02 | 02:50:41 | 00:00:00 | |
| SONCRA | 2026-09-06 01:10:31 | 53.50128 | 11.82146 | 137° | 186km/h | 10087m | -5.1m/s | -43.6°C | 18.4% | 272.7hPa | 2.4V | 00:00:00 | 00:00:00 | 00:00:00 | |
| DO2SHX-10 | 2026-09-06 01:10:30 | 53.50128 | 11.82146 | 138° | 183km/h | 10088m | -5.0m/s | -43.5°C | 22.2% | 272.6hPa | 2.4V | 00:00:00 | 02:50:39 | 00:00:00 | |
| DM0DOS-11 | 2026-09-06 01:10:28 | 53.50322 | 11.81829 | 133° | 177km/h | 10118m | -4.8m/s | -43.9°C | 22.3% | 271.4hPa | 2.4V | 07:53:29 | 02:50:33 | 00:00:00 | |
| EDDB2-12 | 2026-09-06 01:10:26 | 53.50291 | 11.81883 | 134° | 173km/h | 10113m | -4.8m/s | -43.8°C | 18.4% | 271.7hPa | 2.5V | 00:00:00 | 00:00:00 | 00:00:00 | |
| DL1XH-15 | 2026-09-06 01:10:24 | 53.50383 | 11.81717 | 131° | 181km/h | 10128m | -5.2m/s | -44°C | 22.3% | 271.1hPa | 2.5V | 07:53:31 | 02:50:31 | 00:00:00 | |
| DF8AY | 2026-09-06 01:10:24 | 53.50322 | 11.81829 | 133° | 177km/h | 10118m | -4.8m/s | -43.9°C | 23.5% | 271.4hPa | 2.4V | 07:54:02 | 02:50:33 | 00:00:00 | |
| AA1-15 | 2026-09-06 01:10:23 | 53.50353 | 11.81774 | 132° | 179km/h | 10123m | -5.1m/s | -43.9°C | 23.5% | 271.2hPa | 2.4V | 07:54:02 | 02:50:32 | 00:00:00 | |
| DL1XH-west | 2026-09-06 01:10:21 | 53.50414 | 11.81659 | 131° | 184km/h | 10133m | -5m/s | -44°C | 23.4% | 270.8hPa | 2.6V | 07:54:02 | 02:50:30 | 00:00:00 | |
| DO2SHX-10 | 2026-09-06 01:10:21 | 53.50414 | 11.81659 | 132° | 188km/h | 10133m | -5.0m/s | -43.9°C | 22.2% | 270.8hPa | 2.6V | 07:53:00 | 02:50:30 | 00:00:00 | |
| DL4BBY-15 | 2026-09-06 01:10:19 | 53.50477 | 11.81540 | 133° | 190km/h | 10143m | -5.4m/s | -44.7°C | 0% | 0hPa | 2.6V | 00:00:00 | 00:00:00 | 00:00:00 | |
| DM0DOS-11 | 2026-09-06 01:10:18 | 53.50644 | 11.81253 | 135° | 183km/h | 10169m | -4.8m/s | -44.3°C | 22.2% | 269.4hPa | 2.6V | 07:53:39 | 02:50:23 | 00:00:00 | |
| DL1XH-15 | 2026-09-06 01:10:18 | 53.50710 | 11.81145 | 134° | 179km/h | 10179m | -5.2m/s | -44.4°C | 22.1% | 269.1hPa | 2.4V | 07:53:41 | 02:50:21 | 00:00:00 | |
| DF8AY | 2026-09-06 01:10:14 | 53.50644 | 11.81253 | 136° | 184km/h | 10169m | -4.8m/s | -44.3°C | 23.2% | 269.4hPa | 2.6V | 07:54:02 | 02:50:23 | 00:00:00 | |
| AA1-15 | 2026-09-06 01:10:12 | 53.50709 | 11.81145 | 134° | 181km/h | 10179m | -5.2m/s | -44.4°C | 23.1% | 269.1hPa | 2.4V | 07:54:02 | 02:50:21 | 00:00:00 | |
| DL1XH-west | 2026-09-06 01:10:11 | 53.50741 | 11.81090 | 133° | 181km/h | 10184m | -4.9m/s | -44.4°C | 23% | 268.8hPa | 2.5V | 07:54:02 | 02:50:20 | 00:00:00 | |
| DB0DAN | 2026-09-06 01:10:10 | 53.50772 | 11.81033 | 132° | 173km/h | 10189m | -5.2m/s | -44.5°C | 17.9% | 268.62hPa | 2.4V | 00:00:00 | 00:00:00 | 00:00:00 | |
| DO2SHX-10 | 2026-09-06 01:10:09 | 53.50803 | 11.80975 | 132° | 190km/h | 10194m | -5.0m/s | -44.4°C | 21.7% | 268.3hPa | 2.6V | 00:00:00 | 02:50:18 | 00:00:00 | |
| DM0DOS-11 | 2026-09-06 01:10:07 | 53.50967 | 11.80675 | 134° | 192km/h | 10220m | -5.3m/s | -44.6°C | 21.4% | 267.4hPa | 2.6V | 07:53:49 | 02:50:13 | 00:00:00 | |
| DO2SHX-10 | 2026-09-06 01:10:06 | 53.50900 | 11.80794 | 133° | 193km/h | 10210m | -4.7m/s | -44.6°C | 21.3% | 267.7hPa | 2.4V | 00:00:00 | 02:50:15 | 00:00:00 | |
| DL1XH-15 | 2026-09-06 01:10:04 | 53.51035 | 11.80561 | 134° | 184km/h | 10230m | -5m/s | -44.7°C | 21.5% | 267.1hPa | 2.4V | 07:53:51 | 02:50:11 | 00:00:00 | |
| DF8AY | 2026-09-06 01:10:03 | 53.51001 | 11.80618 | 135° | 188km/h | 10225m | -5.3m/s | -44.7°C | 22.5% | 267.2hPa | 2.6V | 07:54:02 | 02:50:12 | 00:00:00 | |
| AA1-15 | 2026-09-06 01:10:02 | 53.51034 | 11.80561 | 135° | 184km/h | 10230m | -5m/s | -44.7°C | 22.7% | 267.1hPa | 2.4V | 07:54:02 | 02:50:11 | 00:00:00 | |
| DL1XH-west | 2026-09-06 01:10:00 | 53.51098 | 11.80450 | 133° | 181km/h | 10240m | -4.5m/s | -44.8°C | 23.1% | 266.6hPa | 2.4V | 07:54:02 | 02:50:09 | 00:00:00 | |
| SONCRA | 2026-09-06 01:10:00 | 53.51129 | 11.80394 | 131° | 179km/h | 10245m | -5.1m/s | -44.8°C | 18.1% | 266.4hPa | 2.5V | 00:00:00 | 00:00:00 | 00:00:00 | |
| DL1XH1-15 | 2026-09-06 01:09:59 | 53.51129 | 11.80394 | 131° | 181km/h | 10245m | -5.1m/s | -44.8°C | 22.1% | 266.4hPa | 2.5V | 07:53:54 | 02:50:08 | 00:00:00 | |
| DF8AY | 2026-09-06 01:09:58 | 53.51315 | 11.80028 | 132° | 197km/h | 10276m | -4.9m/s | -45.1°C | 25.6% | 265.2hPa | 2.5V | 07:54:02 | 02:50:02 | 00:00:00 | |
| DL1XH-15 | 2026-09-06 01:09:57 | 53.51348 | 11.79967 | 133° | 195km/h | 10281m | -5m/s | -45.1°C | 24.9% | 264.9hPa | 2.6V | 07:54:01 | 02:50:01 | 00:00:00 | |
| DM0DOS-11 | 2026-09-06 01:09:57 | 53.51315 | 11.80028 | 131° | 197km/h | 10276m | -4.9m/s | -45.1°C | 24.4% | 265.2hPa | 2.5V | 07:54:00 | 02:50:02 | 00:00:00 | |
| AA1-15 | 2026-09-06 01:09:51 | 53.51382 | 11.79907 | 134° | 193km/h | 10286m | -5.2m/s | -45.1°C | 26.4% | 264.8hPa | 2.6V | 07:54:02 | 02:50:00 | 00:00:00 | |
| DL1XH-west | 2026-09-06 01:09:50 | 53.51416 | 11.79849 | 135° | 190km/h | 10291m | -4.9m/s | -45.1°C | 26.6% | 264.5hPa | 2.4V | 07:55:44 | 02:49:59 | 00:00:00 | |
| DL1XH1-15 | 2026-09-06 01:09:49 | 53.51450 | 11.79792 | 135° | 186km/h | 10296m | -5m/s | -45.2°C | 25.5% | 264.3hPa | 2.5V | 07:54:04 | 02:49:58 | 00:00:00 | |
| DL4BBY-15 | 2026-09-06 01:09:49 | 53.51450 | 11.79792 | 136° | 186km/h | 10297m | -5.0m/s | -45.8°C | 0% | 0hPa | 2.4V | 00:00:00 | 00:00:00 | 00:00:00 | |
| DO2SHX-10 | 2026-09-06 01:09:48 | 53.51483 | 11.79737 | 135° | 183km/h | 10301m | -5.0m/s | -45.2°C | 25.5% | 264.1hPa | 2.4V | 00:00:00 | 02:49:57 | 00:00:00 | |
| DM0DOS-11 | 2026-09-06 01:09:47 | 53.51638 | 11.79454 | 129° | 183km/h | 10327m | -4.9m/s | -45.4°C | 25.4% | 263.1hPa | 2.4V | 07:54:10 | 02:49:52 | 00:00:00 | |
| DO2SHX-10 | 2026-09-06 01:09:45 | 53.51577 | 11.79570 | 132° | 181km/h | 10317m | -5.4m/s | -45.3°C | 25.6% | 263.5hPa | 2.4V | 00:00:00 | 02:49:54 | 00:00:00 | |
| DL1XH1-15 | 2026-09-06 01:09:44 | 53.51760 | 11.79206 | 130° | 195km/h | 10347m | -5m/s | -45.5°C | 25.1% | 262.3hPa | 2.4V | 07:54:14 | 02:49:48 | 00:00:00 | |
| DF8AY | 2026-09-06 01:09:42 | 53.51667 | 11.79393 | 129° | 186km/h | 10332m | -5m/s | -45.4°C | 26.8% | 263hPa | 2.5V | 07:55:44 | 02:49:51 | 00:00:00 | |
| AA1-15 | 2026-09-06 01:09:41 | 53.51697 | 11.79332 | 129° | 190km/h | 10337m | -5.1m/s | -45.4°C | 26.7% | 262.7hPa | 2.6V | 07:54:53 | 02:49:50 | 00:00:00 | |
| D01LWL | 2026-09-06 01:09:41 | 53.51728 | 11.79269 | 129° | 192km/h | 10342m | -5.3m/s | -45.5°C | 20.8% | 262.5hPa | 2.4V | 00:00:00 | 00:00:00 | 00:00:00 | |
| DO2SHX-10 | 2026-09-06 01:09:39 | 53.51760 | 11.79206 | 131° | 195km/h | 10348m | -4.9m/s | -45.5°C | 25.1% | 262.2hPa | 2.4V | 00:00:00 | 02:49:48 | 00:00:00 | |
| DL1XH-west | 2026-09-06 01:09:39 | 53.51760 | 11.79206 | 131° | 195km/h | 10347m | -5m/s | -45.5°C | 26.7% | 262.3hPa | 2.4V | 07:55:44 | 02:49:48 | 00:00:00 | |
| DL1XH-15 | 2026-09-06 01:09:37 | 53.51989 | 11.78795 | 132° | 179km/h | 10382m | -4.7m/s | -45.9°C | 25.1% | 260.9hPa | 2.4V | 07:54:21 | 02:49:41 | 00:00:00 | |
| DF8AY | 2026-09-06 01:09:32 | 53.52169 | 11.78435 | 131° | 192km/h | 10410m | -5m/s | -46.1°C | 26.4% | 259.7hPa | 2.4V | 07:55:44 | 02:49:35 | 00:00:00 | |
| AA1-15 | 2026-09-06 01:09:31 | 53.52019 | 11.78738 | 131° | 179km/h | 10387m | -5m/s | -45.9°C | 26.6% | 260.7hPa | 2.5V | 07:54:53 | 02:49:40 | 00:00:00 | |
| DO2SHX-10 | 2026-09-06 01:09:31 | 53.52049 | 11.78680 | 130° | 184km/h | 10392m | -4.4m/s | -45.9°C | 25.2% | 260.5hPa | 2.4V | 00:00:00 | 02:49:39 | 00:00:00 | |
| DL1XH1-15 | 2026-09-06 01:09:29 | 53.52138 | 11.78497 | 129° | 190km/h | 10406m | -5.2m/s | -46.1°C | 25.2% | 259.9hPa | 2.4V | 07:54:26 | 02:49:36 | 00:00:00 | |
| DL1XH-west | 2026-09-06 01:09:28 | 53.52108 | 11.78559 | 129° | 186km/h | 10401m | -4.8m/s | -46°C | 26.5% | 260.1hPa | 2.4V | 07:55:44 | 02:49:37 | 00:00:00 | |
| DL1XH-15 | 2026-09-06 01:09:28 | 53.52299 | 11.78196 | 133° | 186km/h | 10430m | -5m/s | -46.3°C | 25.3% | 259hPa | 2.4V | 07:54:31 | 02:49:31 | 00:00:00 | |
| DO2SHX-10 | 2026-09-06 01:09:27 | 53.52138 | 11.78497 | 130° | 192km/h | 10406m | -5.2m/s | -46.0°C | 25.2% | 259.9hPa | 2.4V | 00:00:00 | 02:49:36 | 00:00:00 | |
| DB0DAN | 2026-09-06 01:09:25 | 53.52201 | 11.78374 | 132° | 184km/h | 10416m | -4.9m/s | -46.2°C | 20.7% | 259.56hPa | 2.4V | 00:00:00 | 00:00:00 | 00:00:00 | |
| AA1-15 | 2026-09-06 01:09:21 | 53.52331 | 11.78139 | 133° | 184km/h | 10435m | -4.8m/s | -46.4°C | 26.6% | 258.9hPa | 2.4V | 07:54:53 | 02:49:30 | 00:00:00 | |
| DF8AY | 2026-09-06 01:09:19 | 53.52393 | 11.78023 | 131° | 183km/h | 10445m | -4.9m/s | -46.5°C | 26.7% | 258.4hPa | 2.5V | 07:55:44 | 02:49:28 | 00:00:00 | |
| DO2SHX-10 | 2026-09-06 01:09:18 | 53.52423 | 11.77964 | 131° | 186km/h | 10449m | -5.0m/s | -46.5°C | 25.4% | 258.2hPa | 2.6V | 00:00:00 | 02:49:27 | 00:00:00 | |
| DL1XH-15 | 2026-09-06 01:09:17 | 53.52613 | 11.77600 | 133° | 190km/h | 10479m | -4.9m/s | -46.8°C | 25.1% | 257.1hPa | 2.6V | 07:54:41 | 02:49:21 | 00:00:00 | |
| DL1XH-west | 2026-09-06 01:09:17 | 53.52454 | 11.77904 | 130° | 186km/h | 10455m | -5.2m/s | -46.6°C | 26.8% | 258hPa | 2.6V | 07:55:44 | 02:49:26 | 00:00:00 | |
| DM0DOS-11 | 2026-09-06 01:09:16 | 53.52580 | 11.77659 | 132° | 192km/h | 10474m | -4.8m/s | -46.7°C | 25.1% | 257.3hPa | 2.5V | 07:54:40 | 02:49:22 | 00:00:00 | |
| AA1-15 | 2026-09-06 01:09:10 | 53.52678 | 11.77486 | 134° | 183km/h | 10489m | -5m/s | -46.9°C | 26.1% | 256.6hPa | 2.4V | 07:54:53 | 02:49:19 | 00:00:00 | |
| DB0DAN | 2026-09-06 01:09:10 | 53.52678 | 11.77486 | 134° | 173km/h | 10489m | -5m/s | -46.9°C | 20.3% | 256.65hPa | 2.4V | 00:00:00 | 00:00:00 | 00:00:00 | |
| DF8AY | 2026-09-06 01:09:09 | 53.52710 | 11.77431 | 133° | 179km/h | 10494m | -5.1m/s | -46.9°C | 26.3% | 256.5hPa | 2.4V | 07:55:44 | 02:49:18 | 00:00:00 | |
| DO2SHX-10 | 2026-09-06 01:09:09 | 53.52710 | 11.77431 | 134° | 179km/h | 10494m | -5.0m/s | -46.9°C | 25.1% | 256.5hPa | 2.5V | 07:54:00 | 02:49:18 | 00:00:00 | |
| DL1XH-15 | 2026-09-06 01:09:07 | 53.52923 | 11.77013 | 131° | 195km/h | 10527m | -5m/s | -47.2°C | 26% | 255.2hPa | 2.5V | 07:54:51 | 02:49:11 | 00:00:00 | |
| DL1XH-west | 2026-09-06 01:09:07 | 53.52771 | 11.77318 | 131° | 181km/h | 10504m | -4.6m/s | -47°C | 26.4% | 256.1hPa | 2.5V | 07:55:44 | 02:49:16 | 00:00:00 | |
| DO2SHX-10 | 2026-09-06 01:09:06 | 53.52800 | 11.77259 | 130° | 186km/h | 10509m | -4.9m/s | -47.0°C | 25.4% | 255.9hPa | 2.6V | 00:00:00 | 02:49:15 | 00:00:00 | |
| DO2SHX-10 | 2026-09-06 01:09:03 | 53.52891 | 11.77075 | 131° | 195km/h | 10523m | -4.6m/s | -47.1°C | 25.8% | 255.3hPa | 2.5V | 00:00:00 | 02:49:12 | 00:00:00 | |
| DO2SHX-10 | 2026-09-06 01:09:00 | 53.52990 | 11.76891 | 134° | 192km/h | 10537m | -4.9m/s | -47.3°C | 26.2% | 254.8hPa | 2.5V | 00:00:00 | 02:49:09 | 00:00:00 | |
| DL1XH1-15 | 2026-09-06 01:08:59 | 53.53057 | 11.76775 | 134° | 188km/h | 10547m | -5m/s | -47.4°C | 26.5% | 254.4hPa | 2.5V | 07:54:55 | 02:49:07 | 00:00:00 | |
| AA1-15 | 2026-09-06 01:08:59 | 53.53023 | 11.76833 | 135° | 192km/h | 10542m | -5.1m/s | -47.4°C | 27.6% | 254.6hPa | 2.4V | 07:55:44 | 02:49:08 | 00:00:00 | |
| DF8AY | 2026-09-06 01:08:58 | 53.53057 | 11.76775 | 135° | 188km/h | 10547m | -5m/s | -47.4°C | 27.8% | 254.5hPa | 2.5V | 07:55:44 | 02:49:07 | 00:00:00 | |
| DC4HF-4 | 2026-09-06 01:08:57 | 53.53122 | 11.76664 | 133° | 181km/h | 10557m | -4.8m/s | -47.5°C | 22.1% | 254.1hPa | 2.6V | 00:00:00 | 00:00:00 | 00:00:00 | |
| DB0DAN | 2026-09-06 01:08:55 | 53.53154 | 11.76608 | 133° | 170km/h | 10562m | -5.1m/s | -47.6°C | 22.1% | 253.87hPa | 2.6V | 00:00:00 | 00:00:00 | 00:00:00 | |
| DM0DOS-11 | 2026-09-06 01:08:55 | 53.53214 | 11.76494 | 130° | 179km/h | 10572m | -4.9m/s | -47.6°C | 27.3% | 253.5hPa | 2.4V | 07:55:00 | 02:49:02 | 00:00:00 | |
| DL1XH-west | 2026-09-06 01:08:55 | 53.53154 | 11.76608 | 133° | 179km/h | 10562m | -5.1m/s | -47.6°C | 28.3% | 253.9hPa | 2.6V | 07:55:44 | 02:49:04 | 00:00:00 | |
| DJ2DS-15 | 2026-09-06 01:08:55 | 53.53153 | 11.76608 | 133° | 186km/h | 10562m | -5.0m/s | -47.5°C | 27.0% | 253.8hPa | 2.6V | 00:00:00 | 02:49:04 | 00:00:00 | |
| DO2SHX-10 | 2026-09-06 01:08:54 | 53.53184 | 11.76552 | 132° | 181km/h | 10567m | -5.2m/s | -47.6°C | 27.2% | 253.6hPa | 2.6V | 00:00:00 | 02:49:03 | 00:00:00 | |
| SP3BTT-10 | 2026-09-06 01:08:52 | 53.53243 | 11.76435 | 130° | 188km/h | 10577m | -5.2m/s | -47.7°C | 27.4% | 253.3hPa | 2.6V | 00:00:00 | 00:00:00 | 00:00:00 | |
| DO2SHX-10 | 2026-09-06 01:08:51 | 53.53273 | 11.76375 | 129° | 188km/h | 10583m | -5.3m/s | -47.7°C | 27.5% | 253.1hPa | 2.6V | 00:00:00 | 02:49:00 | 00:00:00 | |
| DL1XH1-15 | 2026-09-06 01:08:49 | 53.53362 | 11.76188 | 128° | 193km/h | 10598m | -4.8m/s | -47.9°C | 27.9% | 252.5hPa | 2.6V | 07:55:05 | 02:48:57 | 00:00:00 | |
| AA1-15 | 2026-09-06 01:08:48 | 53.53362 | 11.76188 | 129° | 193km/h | 10598m | -4.8m/s | -47.9°C | 29.2% | 252.5hPa | 2.6V | 07:55:44 | 02:48:57 | 00:00:00 | |
| DF8AY | 2026-09-06 01:08:47 | 53.53394 | 11.76124 | 130° | 195km/h | 10602m | -4.6m/s | -48°C | 29.3% | 252.3hPa | 2.4V | 07:55:44 | 02:48:56 | 00:00:00 | |
| DL1XH-west | 2026-09-06 01:08:44 | 53.53493 | 11.75937 | 133° | 195km/h | 10618m | -5.2m/s | -48.1°C | 29.7% | 251.7hPa | 2.4V | 07:55:44 | 02:48:53 | 00:00:00 | |
| DO2SHX-10 | 2026-09-06 01:08:42 | 53.53561 | 11.75819 | 136° | 186km/h | 10628m | -4.6m/s | -48.1°C | 28.5% | 251.3hPa | 2.4V | 00:00:00 | 02:48:51 | 00:00:00 | |
| DB0DAN | 2026-09-06 01:08:40 | 53.53628 | 11.75707 | 135° | 175km/h | 10638m | -5.6m/s | -48.3°C | 23.5% | 250.97hPa | 2.4V | 00:00:00 | 00:00:00 | 00:00:00 | |
| DL1XH1-15 | 2026-09-06 01:08:39 | 53.53691 | 11.75597 | 133° | 179km/h | 10649m | -5.5m/s | -48.4°C | 29% | 250.6hPa | 2.5V | 07:55:15 | 02:48:47 | 00:00:00 | |
| AA1-15 | 2026-09-06 01:08:38 | 53.53691 | 11.75597 | 134° | 179km/h | 10649m | -5.5m/s | -48.4°C | 30.3% | 250.6hPa | 2.5V | 07:55:44 | 02:48:47 | 00:00:00 | |
| DL1XH-15 | 2026-09-06 01:08:37 | 53.53870 | 11.75243 | 128° | 190km/h | 10680m | -5.5m/s | -48.7°C | 29.6% | 249.3hPa | 2.5V | 07:55:21 | 02:48:41 | 00:00:00 | |
| DF8AY | 2026-09-06 01:08:36 | 53.53752 | 11.75484 | 131° | 179km/h | 10659m | -5.2m/s | -48.5°C | 30.5% | 250.2hPa | 2.6V | 07:55:44 | 02:48:45 | 00:00:00 | |
| DL1XH-west | 2026-09-06 01:08:34 | 53.53811 | 11.75367 | 129° | 183km/h | 10669m | -5.1m/s | -48.6°C | 30.8% | 249.7hPa | 2.5V | 07:55:44 | 02:48:43 | 00:00:00 | |
| SONDE2-11 | 2026-09-06 01:08:34 | 53.53841 | 11.75306 | 128° | 184km/h | 10674m | -5.1m/s | -48.7°C | 24.2% | 249.6hPa | 2.5V | 00:00:00 | 00:00:00 | 00:00:00 | |
| DO2SHX-10 | 2026-09-06 01:08:33 | 53.53840 | 11.75306 | 129° | 190km/h | 10674m | -5.1m/s | -48.6°C | 29.5% | 249.5hPa | 2.5V | 00:00:00 | 02:48:42 | 00:00:00 | |
| DO2SHX-10 | 2026-09-06 01:08:30 | 53.53932 | 11.75116 | 130° | 195km/h | 10691m | -5.6m/s | -48.8°C | 30.0% | 248.9hPa | 2.5V | 00:00:00 | 02:48:39 | 00:00:00 | |
| DL1XH1-15 | 2026-09-06 01:08:29 | 53.53996 | 11.74991 | 132° | 195km/h | 10702m | -5.8m/s | -48.9°C | 30.3% | 248.5hPa | 2.5V | 07:55:25 | 02:48:37 | 00:00:00 | |
| DL1XH-15 | 2026-09-06 01:08:27 | 53.54196 | 11.74650 | 134° | 177km/h | 10736m | -5.6m/s | -49.3°C | 30.5% | 247.3hPa | 2.4V | 07:55:31 | 02:48:31 | 00:00:00 | |
| AA1-15 | 2026-09-06 01:08:27 | 53.54030 | 11.74930 | 134° | 193km/h | 10707m | -5.3m/s | -49°C | 31.7% | 248.3hPa | 2.5V | 07:55:44 | 02:48:36 | 00:00:00 | |
| DF8AY | 2026-09-06 01:08:26 | 53.54064 | 11.74872 | 135° | 192km/h | 10713m | -5.8m/s | -49°C | 31.8% | 248.1hPa | 2.6V | 07:55:44 | 02:48:35 | 00:00:00 | |
| DB0DAN | 2026-09-06 01:08:25 | 53.54098 | 11.74815 | 136° | 179km/h | 10719m | -5.9m/s | -49.1°C | 24.7% | 247.91hPa | 2.6V | 00:00:00 | 00:00:00 | 00:00:00 | |
| DL1XH-west | 2026-09-06 01:08:24 | 53.54132 | 11.74759 | 135° | 184km/h | 10724m | -5.8m/s | -49.2°C | 31.8% | 247.7hPa | 2.5V | 07:55:44 | 02:48:33 | 00:00:00 | |
| AA1-15 | 2026-09-06 01:08:17 | 53.54345 | 11.74366 | 130° | 184km/h | 10763m | -5.5m/s | -49.5°C | 32.6% | 246.2hPa | 2.4V | 07:55:44 | 02:48:26 | 00:00:00 | |
| DM0DOS-11 | 2026-09-06 01:08:15 | 53.54468 | 11.74119 | 131° | 195km/h | 10785m | -5.8m/s | -49.7°C | 31.7% | 245.4hPa | 2.6V | 07:55:40 | 02:48:22 | 00:00:00 | |
| DF8AY | 2026-09-06 01:08:15 | 53.54405 | 11.74244 | 130° | 192km/h | 10774m | -5.5m/s | -49.6°C | 32.8% | 245.8hPa | 2.5V | 07:55:44 | 02:48:24 | 00:00:00 | |
| DL1XH-west | 2026-09-06 01:08:13 | 53.54468 | 11.74119 | 131° | 195km/h | 10785m | -5.8m/s | -49.7°C | 33% | 245.4hPa | 2.6V | 07:55:44 | 02:48:22 | 00:00:00 | |
| DO2SHX-10 | 2026-09-06 01:08:12 | 53.54501 | 11.74057 | 133° | 193km/h | 10791m | -5.6m/s | -49.7°C | 31.8% | 245.1hPa | 2.4V | 00:00:00 | 02:48:21 | 00:00:00 | |
| DB0DAN | 2026-09-06 01:08:10 | 53.54568 | 11.73937 | 134° | 184km/h | 10802m | -5.3m/s | -49.9°C | 26.2% | 244.8hPa | 2.4V | 00:00:00 | 00:00:00 | 00:00:00 | |
| DL1XH1-15 | 2026-09-06 01:08:09 | 53.54636 | 11.73823 | 135° | 186km/h | 10812m | -5.2m/s | -50°C | 32.2% | 244.4hPa | 2.6V | 07:55:45 | 02:48:17 | 00:00:00 | |
| AA1-15 | 2026-09-06 01:08:07 | 53.54670 | 11.73769 | 136° | 183km/h | 10817m | -5.2m/s | -50°C | 33.3% | 244.2hPa | 2.5V | 07:56:35 | 02:48:16 | 00:00:00 | |
| DM0DOS-11 | 2026-09-06 01:08:06 | 53.54798 | 11.73549 | 132° | 183km/h | 10837m | -5.2m/s | -50.2°C | 33% | 243.4hPa | 2.5V | 07:55:50 | 02:48:12 | 00:00:00 | |
| DF8AY | 2026-09-06 01:08:04 | 53.54767 | 11.73605 | 134° | 181km/h | 10832m | -5.3m/s | -50.2°C | 33.6% | 243.6hPa | 2.4V | 07:56:35 | 02:48:13 | 00:00:00 | |
| DL1XH-west | 2026-09-06 01:08:02 | 53.54829 | 11.73492 | 132° | 183km/h | 10842m | -5.5m/s | -50.3°C | 33.9% | 243.2hPa | 2.6V | 07:56:35 | 02:48:11 | 00:00:00 | |
| DG6HD-11 | 2026-09-06 01:08:00 | 53.54892 | 11.73376 | 133° | 188km/h | 10853m | -5.4m/s | -50.4°C | 33.4% | 242.8hPa | 2.4V | 00:00:00 | 00:00:00 | 00:00:00 | |
| DL1XH1-15 | 2026-09-06 01:07:59 | 53.54957 | 11.73260 | 133° | 188km/h | 10863m | -5.4m/s | -50.5°C | 33.2% | 242.4hPa | 2.4V | 07:55:55 | 02:48:07 | 00:00:00 | |
| EDDB2-11 | 2026-09-06 01:07:58 | 53.54990 | 11.73203 | 134° | 184km/h | 10868m | -5.1m/s | -50.5°C | 27.1% | 242.2hPa | 2.5V | 00:00:00 | 00:00:00 | 00:00:00 | |
| DL1XH-15 | 2026-09-06 01:07:57 | 53.55152 | 11.72919 | 133° | 190km/h | 10895m | -5.5m/s | -50.8°C | 33.8% | 241.2hPa | 2.5V | 07:56:01 | 02:48:01 | 00:00:00 | |
| AA1-15 | 2026-09-06 01:07:56 | 53.55022 | 11.73147 | 134° | 184km/h | 10873m | -5.4m/s | -50.6°C | 34.4% | 242.1hPa | 2.6V | 07:56:35 | 02:48:05 | 00:00:00 | |
| DM0DOS-11 | 2026-09-06 01:07:55 | 53.55119 | 11.72977 | 133° | 186km/h | 10890m | -5.4m/s | -50.7°C | 33.7% | 241.4hPa | 2.4V | 07:56:00 | 02:48:02 | 00:00:00 | |
| DB0DAN | 2026-09-06 01:07:55 | 53.55055 | 11.73091 | 134° | 175km/h | 10879m | -5.7m/s | -50.6°C | 27.4% | 241.91hPa | 2.6V | 00:00:00 | 00:00:00 | 00:00:00 | |
| DF8AY | 2026-09-06 01:07:53 | 53.55119 | 11.72977 | 133° | 186km/h | 10890m | -5.4m/s | -50.7°C | 34.8% | 241.4hPa | 2.4V | 07:56:35 | 02:48:02 | 00:00:00 | |
| DL1XH-west | 2026-09-06 01:07:51 | 53.55185 | 11.72861 | 134° | 192km/h | 10900m | -5.1m/s | -50.9°C | 35% | 241hPa | 2.5V | 07:56:35 | 02:48:00 | 00:00:00 | |
| EDDB2-12 | 2026-09-06 01:07:50 | 53.55219 | 11.72802 | 135° | 192km/h | 10905m | -5.7m/s | -50.9°C | 27.5% | 240.9hPa | 2.4V | 00:00:00 | 00:00:00 | 00:00:00 | |
| DO2SHX-10 | 2026-09-06 01:07:48 | 53.55289 | 11.72690 | 138° | 186km/h | 10917m | -5.8m/s | -51.0°C | 33.8% | 240.4hPa | 2.4V | 00:00:00 | 02:47:57 | 00:00:00 | |
| DL1XH-15 | 2026-09-06 01:07:47 | 53.55487 | 11.72375 | 133° | 175km/h | 10950m | -5.4m/s | -51.3°C | 34.9% | 239.2hPa | 2.4V | 07:56:11 | 02:47:51 | 00:00:00 | |
| AA1-15 | 2026-09-06 01:07:46 | 53.55359 | 11.72584 | 138° | 183km/h | 10928m | -5.8m/s | -51.1°C | 35% | 240hPa | 2.5V | 07:56:35 | 02:47:55 | 00:00:00 | |
| DM0DOS-11 | 2026-09-06 01:07:45 | 53.55456 | 11.72428 | 134° | 175km/h | 10944m | -5.4m/s | -51.2°C | 34.7% | 239.4hPa | 2.6V | 07:56:10 | 02:47:52 | 00:00:00 | |
| DC4HF-4 | 2026-09-06 01:07:44 | 53.55425 | 11.72480 | 136° | 175km/h | 10939m | -5.7m/s | -51.2°C | 28.0% | 239.7hPa | 2.6V | 00:00:00 | 00:00:00 | 00:00:00 | |
| DF8AY | 2026-09-06 01:07:42 | 53.55614 | 11.72145 | 133° | 192km/h | 10971m | -5.5m/s | -51.4°C | 35.7% | 238.5hPa | 2.6V | 07:56:35 | 02:47:47 | 00:00:00 | |
| DO2SHX-10 | 2026-09-06 01:07:42 | 53.55487 | 11.72375 | 134° | 181km/h | 10950m | -5.4m/s | -51.2°C | 34.9% | 239.2hPa | 2.4V | 00:00:00 | 02:47:51 | 00:00:00 | |
| DB0DAN | 2026-09-06 01:07:40 | 53.55550 | 11.72263 | 133° | 175km/h | 10960m | -5.2m/s | -51.4°C | 28.8% | 238.88hPa | 2.4V | 00:00:00 | 00:00:00 | 00:00:00 | |
| DL1XH-west | 2026-09-06 01:07:40 | 53.55550 | 11.72263 | 133° | 184km/h | 10960m | -5.2m/s | -51.4°C | 35.4% | 238.9hPa | 2.4V | 07:56:35 | 02:47:49 | 00:00:00 | |
| DO2SHX-10 | 2026-09-06 01:07:39 | 53.55582 | 11.72204 | 133° | 192km/h | 10966m | -5.2m/s | -51.4°C | 35.4% | 238.6hPa | 2.6V | 00:00:00 | 02:47:48 | 00:00:00 | |
| AM1SDL-15 | 2026-09-06 01:07:38 | 53.55614 | 11.72145 | 134° | 192km/h | 10971m | -5.4m/s | -51.4°C | 35.4% | 238.5hPa | 2.6V | 07:56:00 | 02:47:47 | 00:00:00 | |
| DL1XH-15 | 2026-09-06 01:07:37 | 53.55824 | 11.71793 | 137° | 195km/h | 11003m | -5.5m/s | -51.7°C | 35.9% | 237.3hPa | 2.6V | 07:56:21 | 02:47:41 | 00:00:00 | |
| DO2SHX-10 | 2026-09-06 01:07:36 | 53.55682 | 11.72026 | 134° | 197km/h | 10982m | -5.2m/s | -51.5°C | 35.4% | 238.1hPa | 2.4V | 00:00:00 | 02:47:45 | 00:00:00 | |
| DM0DOS-11 | 2026-09-06 01:07:35 | 53.55788 | 11.71849 | 136° | 195km/h | 10997m | -5.5m/s | -51.6°C | 35.8% | 237.4hPa | 2.5V | 07:56:20 | 02:47:42 | 00:00:00 | |
| AA1-15 | 2026-09-06 01:07:35 | 53.55717 | 11.71966 | 135° | 197km/h | 10987m | -5.8m/s | -51.6°C | 35.9% | 237.9hPa | 2.5V | 07:56:35 | 02:47:44 | 00:00:00 | |
| DF8AY | 2026-09-06 01:07:32 | 53.55824 | 11.71793 | 138° | 195km/h | 11003m | -5.5m/s | -51.7°C | 36.2% | 237.3hPa | 2.6V | 07:56:35 | 02:47:41 | 00:00:00 | |
| SONDE2-11 | 2026-09-06 01:07:32 | 53.55861 | 11.71737 | 138° | 193km/h | 11008m | -5.2m/s | -51.7°C | 29.4% | 237.2hPa | 2.5V | 00:00:00 | 00:00:00 | 00:00:00 | |
| DO2SHX-10 | 2026-09-06 01:07:30 | 53.55897 | 11.71683 | 140° | 184km/h | 11013m | -5.2m/s | -51.7°C | 36.2% | 236.9hPa | 2.5V | 00:00:00 | 02:47:39 | 00:00:00 | |
| DL1XH1-15 | 2026-09-06 01:07:29 | 53.55968 | 11.71581 | 138° | 181km/h | 11024m | -5.3m/s | -51.8°C | 36.1% | 236.6hPa | 2.5V | 07:56:25 | 02:47:37 | 00:00:00 | |
| DL1XH-west | 2026-09-06 01:07:29 | 53.55933 | 11.71631 | 139° | 184km/h | 11019m | -5.5m/s | -51.7°C | 36.3% | 236.7hPa | 2.4V | 07:56:35 | 02:47:38 | 00:00:00 | |
| DL1XH-15 | 2026-09-06 01:07:27 | 53.56160 | 11.71263 | 133° | 184km/h | 11054m | -5.3m/s | -52°C | 36.2% | 235.4hPa | 2.4V | 07:56:31 | 02:47:31 | 00:00:00 | |
| DO2SHX-10 | 2026-09-06 01:07:27 | 53.56002 | 11.71530 | 139° | 175km/h | 11029m | -4.8m/s | -51.8°C | 36.2% | 236.3hPa | 2.5V | 00:00:00 | 02:47:36 | 00:00:00 | |
| DB0DAN | 2026-09-06 01:07:25 | 53.56067 | 11.71428 | 135° | 168km/h | 11039m | -5.6m/s | -51.9°C | 29.5% | 235.96hPa | 2.6V | 00:00:00 | 00:00:00 | 00:00:00 | |
| AA1-15 | 2026-09-06 01:07:24 | 53.56098 | 11.71375 | 134° | 175km/h | 11044m | -5.2m/s | -52°C | 36.3% | 235.8hPa | 2.4V | 07:56:35 | 02:47:33 | 00:00:00 | |
| DF8AY | 2026-09-06 01:07:22 | 53.56160 | 11.71263 | 133° | 184km/h | 11054m | -5.3m/s | -52°C | 36.3% | 235.4hPa | 2.4V | 07:56:35 | 02:47:31 | 00:00:00 | |
| SP3BTT-10 | 2026-09-06 01:07:22 | 53.56160 | 11.71263 | 134° | 184km/h | 11054m | -5.2m/s | -52.0°C | 36.2% | 235.4hPa | 2.4V | 00:00:00 | 00:00:00 | 00:00:00 | |
| DO2SHX-10 | 2026-09-06 01:07:21 | 53.56193 | 11.71205 | 134° | 192km/h | 11060m | -5.2m/s | -52.0°C | 36.2% | 235.2hPa | 2.4V | 00:00:00 | 02:47:30 | 00:00:00 | |
| DL1XH1-15 | 2026-09-06 01:07:19 | 53.56296 | 11.71030 | 135° | 197km/h | 11075m | -5.2m/s | -52.2°C | 36.1% | 234.7hPa | 2.4V | 07:56:35 | 02:47:27 | 00:00:00 | |
| DL1XH-west | 2026-09-06 01:07:18 | 53.56296 | 11.71030 | 136° | 197km/h | 11075m | -5.2m/s | -52.2°C | 36.4% | 234.7hPa | 2.4V | 07:56:35 | 02:47:27 | 00:00:00 | |
| DO2SHX-10 | 2026-09-06 01:07:18 | 53.56296 | 11.71030 | 136° | 195km/h | 11075m | -5.1m/s | -52.1°C | 36.1% | 234.7hPa | 2.4V | 00:00:00 | 02:47:27 | 00:00:00 | |
| DM0DOS-11 | 2026-09-06 01:07:15 | 53.56479 | 11.70756 | 139° | 188km/h | 11101m | -5.3m/s | -52.4°C | 36.2% | 233.8hPa | 2.6V | 07:56:40 | 02:47:22 | 00:00:00 | |
| AA1-15 | 2026-09-06 01:07:14 | 53.56442 | 11.70808 | 139° | 190km/h | 11096m | -5.2m/s | -52.4°C | 36.4% | 234hPa | 2.6V | 07:57:26 | 02:47:23 | 00:00:00 | |
| DF8AY | 2026-09-06 01:07:11 | 53.56549 | 11.70655 | 140° | 179km/h | 11112m | -5.2m/s | -52.5°C | 36.2% | 233.4hPa | 2.5V | 07:57:26 | 02:47:20 | 00:00:00 | |
| DB0DAN | 2026-09-06 01:07:10 | 53.56583 | 11.70606 | 140° | 168km/h | 11117m | -5.3m/s | -52.5°C | 29.2% | 233.26hPa | 2.5V | 00:00:00 | 00:00:00 | 00:00:00 | |
| DO2SHX-10 | 2026-09-06 01:07:09 | 53.56617 | 11.70557 | 139° | 173km/h | 11122m | -5.3m/s | -52.5°C | 36.0% | 233.0hPa | 2.5V | 07:56:00 | 02:47:18 | 00:00:00 | |
| DL1XH-15 | 2026-09-06 01:07:08 | 53.56841 | 11.70185 | 134° | 188km/h | 11158m | -5.1m/s | -52.8°C | 36% | 231.8hPa | 2.6V | 07:56:51 | 02:47:11 | 00:00:00 | |
| DL1XH-west | 2026-09-06 01:07:07 | 53.56681 | 11.70458 | 136° | 172km/h | 11133m | -5.1m/s | -52.6°C | 35.9% | 232.7hPa | 2.6V | 07:57:26 | 02:47:16 | 00:00:00 | |
| DO2SHX-10 | 2026-09-06 01:07:06 | 53.56713 | 11.70406 | 136° | 179km/h | 11138m | -5.1m/s | -52.6°C | 36.1% | 232.4hPa | 2.5V | 00:00:00 | 02:47:15 | 00:00:00 | |
| D01LWL | 2026-09-06 01:07:05 | 53.56744 | 11.70353 | 134° | 177km/h | 11143m | -5.4m/s | -52.7°C | 29.3% | 232.2hPa | 2.5V | 00:00:00 | 00:00:00 | 00:00:00 | |
| DM0DOS-11 | 2026-09-06 01:07:04 | 53.56808 | 11.70242 | 133° | 186km/h | 11153m | -4.9m/s | -52.8°C | 36.2% | 231.9hPa | 2.5V | 07:56:50 | 02:47:12 | 00:00:00 | |
| AA1-15 | 2026-09-06 01:07:03 | 53.56808 | 11.70242 | 134° | 186km/h | 11153m | -4.9m/s | -52.8°C | 35.7% | 231.9hPa | 2.5V | 07:57:26 | 02:47:12 | 00:00:00 | |
| DF8AY | 2026-09-06 01:07:01 | 53.56875 | 11.70128 | 136° | 190km/h | 11164m | -5.4m/s | -52.7°C | 35.6% | 231.5hPa | 2.6V | 07:57:26 | 02:47:10 | 00:00:00 | |
| SONDE2-11 | 2026-09-06 01:07:00 | 53.56909 | 11.70072 | 137° | 188km/h | 11169m | -5.3m/s | -52.7°C | 29.0% | 231.3hPa | 2.5V | 00:00:00 | 00:00:00 | 00:00:00 | |
| DJ2DS-15 | 2026-09-06 01:06:58 | 53.56980 | 11.69966 | 139° | 184km/h | 11179m | -5.5m/s | -52.8°C | 28.8% | 231.0hPa | 2.5V | 00:00:00 | 00:00:00 | 00:00:00 | |
| DL1XH-15 | 2026-09-06 01:06:57 | 53.57181 | 11.69676 | 137° | 166km/h | 11212m | -5.4m/s | -52.8°C | 36.4% | 229.8hPa | 2.5V | 07:57:01 | 02:47:01 | 00:00:00 | |
| DL1XH-west | 2026-09-06 01:06:56 | 53.57050 | 11.69867 | 140° | 177km/h | 11190m | -5.7m/s | -52.8°C | 36% | 230.6hPa | 2.6V | 07:57:26 | 02:47:05 | 00:00:00 | |
| DB0DAN | 2026-09-06 01:06:55 | 53.57084 | 11.69819 | 140° | 166km/h | 11196m | -5.5m/s | -52.8°C | 29.2% | 230.42hPa | 2.6V | 00:00:00 | 00:00:00 | 00:00:00 | |
| DJ2DS-15 | 2026-09-06 01:06:55 | 53.57084 | 11.69819 | 141° | 173km/h | 11196m | -5.4m/s | -52.8°C | 36.1% | 230.4hPa | 2.4V | 00:00:00 | 02:47:04 | 00:00:00 | |
| DM0DOS-11 | 2026-09-06 01:06:54 | 53.57150 | 11.69724 | 138° | 168km/h | 11207m | -5.6m/s | -52.8°C | 36.3% | 230.1hPa | 2.4V | 07:57:00 | 02:47:02 | 00:00:00 | |
| AA1-15 | 2026-09-06 01:06:52 | 53.57181 | 11.69676 | 137° | 166km/h | 11212m | -5.4m/s | -52.8°C | 36.6% | 229.8hPa | 2.5V | 07:57:26 | 02:47:01 | 00:00:00 | |
| DF8AY | 2026-09-06 01:06:50 | 53.57242 | 11.69577 | 135° | 168km/h | 11223m | -5.4m/s | -52.8°C | 36.9% | 229.5hPa | 2.6V | 07:57:26 | 02:46:59 | 00:00:00 | |
| DL1XH1-15 | 2026-09-06 01:06:49 | 53.57301 | 11.69473 | 133° | 172km/h | 11234m | -5.2m/s | -52.9°C | 37.1% | 229.1hPa | 2.5V | 07:57:05 | 02:46:57 | 00:00:00 | |
| AM1SDL-15 | 2026-09-06 01:06:49 | 53.57271 | 11.69525 | 135° | 175km/h | 11229m | -5.3m/s | -52.8°C | 36.8% | 229.3hPa | 2.4V | 00:00:00 | 02:46:58 | 00:00:00 | |
| DO2SHX-10 | 2026-09-06 01:06:48 | 53.57301 | 11.69473 | 134° | 173km/h | 11234m | -5.2m/s | -52.9°C | 37.1% | 229.0hPa | 2.4V | 00:00:00 | 02:46:57 | 00:00:00 | |
| DL1XH-15 | 2026-09-06 01:06:47 | 53.57487 | 11.69145 | 135° | 183km/h | 11266m | -5.2m/s | -53.1°C | 39.5% | 228hPa | 2.4V | 07:57:11 | 02:46:51 | 00:00:00 | |
| DL1XH-west | 2026-09-06 01:06:45 | 53.57392 | 11.69310 | 133° | 177km/h | 11250m | -5.5m/s | -53°C | 38.3% | 228.5hPa | 2.5V | 07:57:26 | 02:46:54 | 00:00:00 | |
| DO2SHX-10 | 2026-09-06 01:06:45 | 53.57392 | 11.69310 | 133° | 179km/h | 11250m | -5.5m/s | -53.0°C | 38.2% | 228.5hPa | 2.6V | 07:57:00 | 02:46:54 | 00:00:00 | |
| DG6HD-15 | 2026-09-06 01:06:44 | 53.57392 | 11.69310 | 134° | 177km/h | 11250m | -5.5m/s | -53.0°C | 31.0% | 228.5hPa | 2.6V | 07:57:00 | 00:00:00 | 00:00:00 | |
| DM0DOS-11 | 2026-09-06 01:06:43 | 53.57455 | 11.69199 | 134° | 183km/h | 11261m | -5.3m/s | -53.1°C | 39.2% | 228.1hPa | 2.6V | 07:57:10 | 02:46:52 | 00:00:00 | |
| AA1-15 | 2026-09-06 01:06:42 | 53.57487 | 11.69145 | 136° | 183km/h | 11266m | -5.2m/s | -53.2°C | 39.4% | 228hPa | 2.4V | 07:57:26 | 02:46:51 | 00:00:00 | |
| DF8AY | 2026-09-06 01:06:39 | 53.57588 | 11.68991 | 139° | 173km/h | 11282m | -5.3m/s | -53.3°C | 40.2% | 227.4hPa | 2.5V | 07:57:26 | 02:46:48 | 00:00:00 | |
| DL1XH1-15 | 2026-09-06 01:06:39 | 53.57621 | 11.68944 | 139° | 170km/h | 11287m | -5.2m/s | -53.3°C | 40.1% | 227.2hPa | 2.6V | 07:57:15 | 02:46:47 | 00:00:00 | |
| DO2SHX-10 | 2026-09-06 01:06:39 | 53.57588 | 11.68991 | 140° | 170km/h | 11282m | -5.2m/s | -53.2°C | 40.2% | 227.3hPa | 2.6V | 00:00:00 | 02:46:48 | 00:00:00 | |
| DL1XH-15 | 2026-09-06 01:06:37 | 53.57803 | 11.68663 | 134° | 162km/h | 11318m | -5.1m/s | -53.5°C | 41.5% | 226.2hPa | 2.6V | 07:57:21 | 02:46:41 | 00:00:00 | |
| DO2SHX-10 | 2026-09-06 01:06:36 | 53.57685 | 11.68851 | 139° | 162km/h | 11298m | -5.4m/s | -53.3°C | 40.5% | 226.8hPa | 2.5V | 00:00:00 | 02:46:45 | 00:00:00 | |
| DM0DOS-11 | 2026-09-06 01:06:35 | 53.57774 | 11.68712 | 135° | 161km/h | 11313m | -5m/s | -53.5°C | 41.4% | 226.3hPa | 2.5V | 07:57:20 | 02:46:42 | 00:00:00 | |
| DL1XH-west | 2026-09-06 01:06:35 | 53.57715 | 11.68806 | 138° | 161km/h | 11303m | -5.1m/s | -53.4°C | 41.1% | 226.7hPa | 2.5V | 07:57:26 | 02:46:44 | 00:00:00 | |
| AA1-15 | 2026-09-06 01:06:31 | 53.57831 | 11.68613 | 133° | 164km/h | 11323m | -5.2m/s | -53.6°C | 42% | 225.9hPa | 2.6V | 07:57:26 | 02:46:40 | 00:00:00 | |
| DF8AY | 2026-09-06 01:06:29 | 53.57888 | 11.68507 | 131° | 172km/h | 11334m | -5.3m/s | -53.6°C | 42.5% | 225.5hPa | 2.5V | 07:57:26 | 02:46:38 | 00:00:00 | |
| DL1XH1-15 | 2026-09-06 01:06:29 | 53.57917 | 11.68452 | 131° | 173km/h | 11339m | -5.6m/s | -53.7°C | 42.8% | 225.4hPa | 2.5V | 07:57:25 | 02:46:37 | 00:00:00 | |
| DL1XH-15 | 2026-09-06 01:06:27 | 53.58104 | 11.68133 | 138° | 172km/h | 11370m | -5m/s | -54°C | 44.8% | 224.3hPa | 2.5V | 07:57:31 | 02:46:31 | 00:00:00 | |
| DO2SHX-10 | 2026-09-06 01:06:27 | 53.57946 | 11.68397 | 133° | 177km/h | 11345m | -5.2m/s | -53.7°C | 43.2% | 225.1hPa | 2.4V | 00:00:00 | 02:46:36 | 00:00:00 | |
| DM0DOS-11 | 2026-09-06 01:06:25 | 53.58072 | 11.68182 | 137° | 175km/h | 11365m | -5m/s | -53.9°C | 44.7% | 224.6hPa | 2.4V | 07:57:30 | 02:46:32 | 00:00:00 | |
| DB0DAN | 2026-09-06 01:06:25 | 53.58007 | 11.68287 | 134° | 170km/h | 11355m | -5.1m/s | -53.8°C | 36.2% | 224.82hPa | 2.6V | 00:00:00 | 00:00:00 | 00:00:00 | |
| DL1XH-west | 2026-09-06 01:06:25 | 53.58007 | 11.68287 | 134° | 179km/h | 11355m | -5.1m/s | -53.8°C | 43.8% | 224.8hPa | 2.6V | 07:58:17 | 02:46:34 | 00:00:00 | |
| AA1-15 | 2026-09-06 01:06:21 | 53.58136 | 11.68086 | 139° | 166km/h | 11375m | -5.1m/s | -54°C | 45% | 224.2hPa | 2.5V | 07:58:17 | 02:46:30 | 00:00:00 | |
| DO2SHX-10 | 2026-09-06 01:06:21 | 53.58136 | 11.68086 | 139° | 162km/h | 11375m | -5.1m/s | -54.0°C | 45.1% | 224.1hPa | 2.4V | 07:57:00 | 02:46:30 | 00:00:00 | |
| DL1XH1-15 | 2026-09-06 01:06:19 | 53.58226 | 11.67947 | 135° | 157km/h | 11391m | -5.4m/s | -54.1°C | 46% | 223.6hPa | 2.4V | 07:57:35 | 02:46:27 | 00:00:00 | |
| DF8AY | 2026-09-06 01:06:18 | 53.58226 | 11.67947 | 135° | 157km/h | 11391m | -5.4m/s | -54.1°C | 46% | 223.6hPa | 2.4V | 07:58:17 | 02:46:27 | 00:00:00 | |
| DO2SHX-10 | 2026-09-06 01:06:18 | 53.58226 | 11.67947 | 136° | 159km/h | 11391m | -5.3m/s | -54.1°C | 46.0% | 223.5hPa | 2.5V | 00:00:00 | 02:46:27 | 00:00:00 | |
| DL1XH-15 | 2026-09-06 01:06:17 | 53.58395 | 11.67631 | 132° | 177km/h | 11422m | -5.4m/s | -54.4°C | 48% | 222.5hPa | 2.5V | 07:57:41 | 02:46:21 | 00:00:00 | |
| DL1XH-west | 2026-09-06 01:06:14 | 53.58337 | 11.67742 | 131° | 170km/h | 11412m | -5.3m/s | -54.3°C | 47% | 222.9hPa | 2.6V | 07:58:17 | 02:46:23 | 00:00:00 | |
| AA1-15 | 2026-09-06 01:06:11 | 53.58426 | 11.67576 | 133° | 179km/h | 11428m | -5.4m/s | -54.5°C | 48% | 222.3hPa | 2.5V | 07:58:17 | 02:46:20 | 00:00:00 | |
| AM1SDL-15 | 2026-09-06 01:06:10 | 53.58457 | 11.67521 | 135° | 166km/h | 11433m | -5.1m/s | -54.5°C | 49.0% | 222.1hPa | 2.6V | 00:00:00 | 02:46:19 | 00:00:00 | |
| DL1XH1-15 | 2026-09-06 01:06:09 | 53.58521 | 11.67418 | 137° | 173km/h | 11443m | -4.9m/s | -54.6°C | 49.7% | 221.8hPa | 2.6V | 07:57:45 | 02:46:17 | 00:00:00 | |
| DF8AY | 2026-09-06 01:06:08 | 53.58521 | 11.67418 | 137° | 173km/h | 11443m | -4.9m/s | -54.6°C | 48.9% | 221.8hPa | 2.6V | 07:58:17 | 02:46:17 | 00:00:00 | |
| DL1XH-15 | 2026-09-06 01:06:07 | 53.58697 | 11.67132 | 131° | 159km/h | 11474m | -5.3m/s | -54.9°C | 51.2% | 220.7hPa | 2.6V | 07:57:51 | 02:46:11 | 00:00:00 | |
| DL1XH-west | 2026-09-06 01:06:04 | 53.58642 | 11.67228 | 135° | 157km/h | 11463m | -5.1m/s | -54.8°C | 50% | 221.1hPa | 2.5V | 07:58:17 | 02:46:13 | 00:00:00 | |
| AA1-15 | 2026-09-06 01:06:00 | 53.58751 | 11.67028 | 131° | 166km/h | 11484m | -5m/s | -55°C | 51% | 220.3hPa | 2.5V | 07:58:17 | 02:46:09 | 00:00:00 | |
| DG6HD-11 | 2026-09-06 01:06:00 | 53.58751 | 11.67028 | 131° | 168km/h | 11484m | -4.9m/s | -54.9°C | 51.9% | 220.3hPa | 2.5V | 00:00:00 | 00:00:00 | 00:00:00 | |
| DL1XH1-15 | 2026-09-06 01:05:59 | 53.58808 | 11.66918 | 131° | 175km/h | 11494m | -5.3m/s | -55.1°C | 52.5% | 220hPa | 2.5V | 07:57:55 | 02:46:07 | 00:00:00 | |
| DF8AY | 2026-09-06 01:05:57 | 53.58838 | 11.66863 | 133° | 177km/h | 11499m | -5.4m/s | -55.1°C | 51.9% | 219.8hPa | 2.5V | 07:58:17 | 02:46:06 | 00:00:00 | |
| DL1XH-west | 2026-09-06 01:05:54 | 53.58932 | 11.66701 | 136° | 175km/h | 11516m | -5.1m/s | -55.3°C | 52.8% | 219.3hPa | 2.5V | 07:58:17 | 02:46:03 | 00:00:00 | |
| AA1-15 | 2026-09-06 01:05:50 | 53.59056 | 11.66507 | 137° | 161km/h | 11536m | -5.3m/s | -55.5°C | 53.7% | 218.5hPa | 2.6V | 07:58:17 | 02:45:59 | 00:00:00 | |
| DF8AY | 2026-09-06 01:05:47 | 53.59142 | 11.66367 | 134° | 157km/h | 11553m | -5.3m/s | -55.6°C | 54.2% | 218hPa | 2.5V | 07:58:17 | 02:45:56 | 00:00:00 | |
| DJ2DS-15 | 2026-09-06 01:05:46 | 53.59197 | 11.66268 | 132° | 161km/h | 11563m | -5.0m/s | -55.7°C | 45.9% | 217.7hPa | 2.5V | 00:00:00 | 00:00:00 | 00:00:00 | |
| DM0DOS-11 | 2026-09-06 01:05:45 | 53.59310 | 11.66056 | 133° | 173km/h | 11583m | -5.1m/s | -55.9°C | 56.7% | 217hPa | 2.5V | 07:58:12 | 02:45:50 | 00:00:00 | |
| DL1XH-west | 2026-09-06 01:05:43 | 53.59252 | 11.66163 | 132° | 168km/h | 11573m | -5.1m/s | -55.8°C | 54.9% | 217.3hPa | 2.6V | 07:58:17 | 02:45:52 | 00:00:00 | |
| DO2SHX-10 | 2026-09-06 01:05:42 | 53.59281 | 11.66110 | 133° | 172km/h | 11578m | -5.1m/s | -55.8°C | 56.5% | 217.1hPa | 2.6V | 00:00:00 | 02:45:51 | 00:00:00 | |
| DL1XH1-15 | 2026-09-06 01:05:39 | 53.59401 | 11.65901 | 135° | 166km/h | 11598m | -5.1m/s | -56°C | 57.3% | 216.4hPa | 2.6V | 07:58:15 | 02:45:47 | 00:00:00 | |
| AA1-15 | 2026-09-06 01:05:39 | 53.59371 | 11.65951 | 135° | 170km/h | 11593m | -5m/s | -56°C | 55.5% | 216.6hPa | 2.5V | 07:58:17 | 02:45:48 | 00:00:00 | |
| S3001 | 2026-09-06 01:05:39 | 53.59401 | 11.65901 | 135° | 164km/h | 11599m | -5.1m/s | -56.0°C | 47.3% | 216.4hPa | 2.6V | 00:00:00 | 00:00:00 | 00:00:00 | |
| DL1XH-15 | 2026-09-06 01:05:37 | 53.59569 | 11.65597 | 130° | 168km/h | 11629m | -5.1m/s | -56.3°C | 58.7% | 215.4hPa | 2.6V | 07:58:21 | 02:45:41 | 00:00:00 | |
| DF8AY | 2026-09-06 01:05:36 | 53.59459 | 11.65803 | 134° | 161km/h | 11608m | -5.1m/s | -56.1°C | 56.1% | 216.1hPa | 2.5V | 07:58:17 | 02:45:45 | 00:00:00 | |
| DL1XH-west | 2026-09-06 01:05:32 | 53.59569 | 11.65597 | 131° | 168km/h | 11629m | -5.1m/s | -56.3°C | 56.8% | 215.4hPa | 2.6V | 07:59:08 | 02:45:41 | 00:00:00 | |
| DF8AY | 2026-09-06 01:05:31 | 53.59740 | 11.65282 | 132° | 162km/h | 11660m | -5.4m/s | -56.6°C | 58% | 214.4hPa | 2.6V | 07:59:08 | 02:45:35 | 00:00:00 | |
| DO2SHX-10 | 2026-09-06 01:05:30 | 53.59626 | 11.65489 | 133° | 168km/h | 11639m | -5.0m/s | -56.4°C | 59.4% | 215.0hPa | 2.5V | 00:00:00 | 02:45:39 | 00:00:00 | |
| DL1XH1-15 | 2026-09-06 01:05:29 | 53.59684 | 11.65384 | 133° | 166km/h | 11649m | -5.2m/s | -56.5°C | 59.7% | 214.7hPa | 2.5V | 07:58:25 | 02:45:37 | 00:00:00 | |
| AA1-15 | 2026-09-06 01:05:29 | 53.59655 | 11.65436 | 133° | 168km/h | 11644m | -5.2m/s | -56.5°C | 57.5% | 214.8hPa | 2.5V | 07:59:08 | 02:45:38 | 00:00:00 | |
| DL1XH-15 | 2026-09-06 01:05:27 | 53.59851 | 11.65070 | 131° | 170km/h | 11681m | -5.4m/s | -56.8°C | 61% | 213.6hPa | 2.5V | 07:58:31 | 02:45:31 | 00:00:00 | |
| DL1XH-west | 2026-09-06 01:05:21 | 53.59880 | 11.65016 | 133° | 170km/h | 11686m | -5.2m/s | -56.8°C | 58.9% | 213.5hPa | 2.5V | 07:59:08 | 02:45:30 | 00:00:00 | |
| DO2SHX-10 | 2026-09-06 01:05:21 | 53.59880 | 11.65016 | 133° | 168km/h | 11687m | -5.2m/s | -56.8°C | 61.4% | 213.5hPa | 2.5V | 00:00:00 | 02:45:30 | 00:00:00 | |
| SONCRA | 2026-09-06 01:05:20 | 53.59909 | 11.64964 | 133° | 166km/h | 11692m | -5.2m/s | -56.9°C | 51.1% | 213.3hPa | 2.5V | 00:00:00 | 00:00:00 | 00:00:00 | |
| DL1XH1-15 | 2026-09-06 01:05:19 | 53.59966 | 11.64863 | 133° | 161km/h | 11702m | -4.9m/s | -57°C | 62.4% | 212.9hPa | 2.5V | 07:58:35 | 02:45:27 | 00:00:00 | |
| AA1-15 | 2026-09-06 01:05:18 | 53.59966 | 11.64863 | 133° | 161km/h | 11702m | -4.9m/s | -57°C | 59.4% | 212.9hPa | 2.5V | 07:59:08 | 02:45:27 | 00:00:00 | |
| DO2SHX-10 | 2026-09-06 01:05:18 | 53.59966 | 11.64862 | 134° | 161km/h | 11702m | -4.9m/s | -56.9°C | 62.4% | 212.9hPa | 2.5V | 00:00:00 | 02:45:27 | 00:00:00 | |
| AM1SDL-15 | 2026-09-06 01:05:17 | 53.59993 | 11.64812 | 132° | 162km/h | 11707m | -5.0m/s | -56.9°C | 62.9% | 212.7hPa | 2.5V | 00:00:00 | 02:45:26 | 00:00:00 | |
| DM0DOS-11 | 2026-09-06 01:05:16 | 53.60156 | 11.64491 | 132° | 172km/h | 11738m | -5.4m/s | -57.3°C | 64.4% | 211.7hPa | 2.5V | 07:58:42 | 02:45:20 | 00:00:00 | |
| DF8AY | 2026-09-06 01:05:15 | 53.60046 | 11.64709 | 130° | 162km/h | 11717m | -5.2m/s | -57.1°C | 60% | 212.4hPa | 2.5V | 07:59:08 | 02:45:24 | 00:00:00 | |
| DL1XH-15 | 2026-09-06 01:05:15 | 53.60128 | 11.64546 | 130° | 172km/h | 11733m | -5.2m/s | -57.2°C | 64.1% | 211.9hPa | 2.5V | 07:58:41 | 02:45:21 | 00:00:00 | |
| DO2SHX-10 | 2026-09-06 01:05:15 | 53.60046 | 11.64709 | 130° | 166km/h | 11717m | -5.2m/s | -57.0°C | 63.7% | 212.4hPa | 2.5V | 00:00:00 | 02:45:24 | 00:00:00 | |
| DO2SHX-10 | 2026-09-06 01:05:12 | 53.60127 | 11.64546 | 131° | 170km/h | 11733m | -5.1m/s | -57.2°C | 64.1% | 211.9hPa | 2.5V | 00:00:00 | 02:45:21 | 00:00:00 | |
| DB0DAN | 2026-09-06 01:05:10 | 53.60185 | 11.64438 | 133° | 161km/h | 11743m | -5.6m/s | -57.3°C | 53.1% | 211.56hPa | 2.5V | 00:00:00 | 00:00:00 | 00:00:00 | |
| DL1XH-west | 2026-09-06 01:05:10 | 53.60185 | 11.64438 | 133° | 170km/h | 11743m | -5.6m/s | -57.3°C | 60.8% | 211.6hPa | 2.5V | 07:59:08 | 02:45:19 | 00:00:00 | |
| DL1XH1-15 | 2026-09-06 01:05:09 | 53.60243 | 11.64336 | 132° | 161km/h | 11754m | -5.3m/s | -57.4°C | 64.3% | 211.2hPa | 2.6V | 07:58:45 | 02:45:17 | 00:00:00 | |
| AA1-15 | 2026-09-06 01:05:08 | 53.60243 | 11.64336 | 133° | 161km/h | 11754m | -5.3m/s | -57.4°C | 60.9% | 211.2hPa | 2.6V | 07:59:08 | 02:45:17 | 00:00:00 | |
| S3001 | 2026-09-06 01:05:08 | 53.60270 | 11.64286 | 131° | 157km/h | 11759m | -5.2m/s | -57.5°C | 53.1% | 211.0hPa | 2.6V | 00:00:00 | 00:00:00 | 00:00:00 | |
| DL1XH-15 | 2026-09-06 01:05:07 | 53.60423 | 11.63957 | 127° | 175km/h | 11790m | -5.5m/s | -57.8°C | 64.1% | 210hPa | 2.6V | 07:58:52 | 02:45:10 | 00:00:00 | |
| DF8AY | 2026-09-06 01:05:05 | 53.60321 | 11.64183 | 128° | 159km/h | 11770m | -5.2m/s | -57.6°C | 61.1% | 210.7hPa | 2.5V | 07:59:08 | 02:45:14 | 00:00:00 | |
| DM0DOS-11 | 2026-09-06 01:05:03 | 53.60423 | 11.63957 | 127° | 175km/h | 11790m | -5.5m/s | -57.8°C | 64.1% | 210hPa | 2.6V | 07:58:52 | 02:45:10 | 00:00:00 | |
| D01LWL | 2026-09-06 01:05:01 | 53.60423 | 11.63957 | 127° | 175km/h | 11790m | -5.5m/s | -57.8°C | 52.8% | 210.0hPa | 2.5V | 00:00:00 | 00:00:00 | 00:00:00 | |
| DO2SHX-10 | 2026-09-06 01:05:00 | 53.60451 | 11.63898 | 130° | 177km/h | 11796m | -5.4m/s | -57.8°C | 64.4% | 209.7hPa | 2.5V | 00:00:00 | 02:45:09 | 00:00:00 | |
| DL1XH1-15 | 2026-09-06 01:04:59 | 53.60509 | 11.63784 | 132° | 175km/h | 11806m | -5.3m/s | -57.9°C | 65% | 209.4hPa | 2.5V | 07:58:55 | 02:45:07 | 00:00:00 | |
| DL1XH-west | 2026-09-06 01:04:59 | 53.60480 | 11.63840 | 131° | 177km/h | 11801m | -5.1m/s | -57.9°C | 61.1% | 209.6hPa | 2.5V | 07:59:08 | 02:45:08 | 00:00:00 | |
| AA1-15 | 2026-09-06 01:04:58 | 53.60509 | 11.63784 | 132° | 175km/h | 11806m | -5.3m/s | -57.9°C | 61.2% | 209.4hPa | 2.5V | 07:59:08 | 02:45:07 | 00:00:00 | |
| SONDE2-11 | 2026-09-06 01:04:56 | 53.60569 | 11.63677 | 133° | 166km/h | 11816m | -5.4m/s | -57.9°C | 53.0% | 209.1hPa | 2.6V | 00:00:00 | 00:00:00 | 00:00:00 | |
| DB0DAN | 2026-09-06 01:04:55 | 53.60597 | 11.63626 | 133° | 155km/h | 11822m | -5.3m/s | -57.9°C | 53% | 208.93hPa | 2.6V | 00:00:00 | 00:00:00 | 00:00:00 | |
| DM0DOS-11 | 2026-09-06 01:04:55 | 53.60702 | 11.63421 | 127° | 159km/h | 11842m | -4.9m/s | -58°C | 64.2% | 208.2hPa | 2.5V | 07:59:02 | 02:45:00 | 00:00:00 | |
| DF8AY | 2026-09-06 01:04:54 | 53.60625 | 11.63576 | 132° | 161km/h | 11827m | -5.3m/s | -57.9°C | 61.1% | 208.7hPa | 2.5V | 07:59:08 | 02:45:03 | 00:00:00 | |
| EDDB2-11 | 2026-09-06 01:04:52 | 53.60702 | 11.63421 | 127° | 157km/h | 11842m | -4.9m/s | -58.1°C | 52.8% | 208.2hPa | 2.5V | 00:00:00 | 00:00:00 | 00:00:00 | |
| DO2SHX-10 | 2026-09-06 01:04:51 | 53.60702 | 11.63421 | 128° | 162km/h | 11842m | -4.9m/s | -58.0°C | 64.2% | 208.2hPa | 2.5V | 00:00:00 | 02:45:00 | 00:00:00 | |
| AM1SDL-15 | 2026-09-06 01:04:50 | 53.60726 | 11.63366 | 127° | 172km/h | 11848m | -5.4m/s | -58.0°C | 64.2% | 208.0hPa | 2.5V | 00:00:00 | 02:44:59 | 00:00:00 | |
| DL1XH1-15 | 2026-09-06 01:04:49 | 53.60775 | 11.63252 | 125° | 170km/h | 11858m | -5.3m/s | -58.2°C | 64.6% | 207.7hPa | 2.5V | 07:59:05 | 02:44:57 | 00:00:00 | |
| DL1XH-west | 2026-09-06 01:04:48 | 53.60775 | 11.63252 | 126° | 170km/h | 11858m | -5.3m/s | -58.2°C | 61.2% | 207.7hPa | 2.5V | 07:59:08 | 02:44:57 | 00:00:00 | |
| AA1-15 | 2026-09-06 01:04:47 | 53.60801 | 11.63193 | 126° | 173km/h | 11863m | -5.2m/s | -58.2°C | 61.4% | 207.5hPa | 2.5V | 07:59:08 | 02:44:56 | 00:00:00 | |
| DF8AY | 2026-09-06 01:04:44 | 53.60883 | 11.63014 | 129° | 177km/h | 11879m | -5.1m/s | -58.3°C | 61.4% | 207hPa | 2.6V | 07:59:59 | 02:44:53 | 00:00:00 | |
| DM0DOS-11 | 2026-09-06 01:04:43 | 53.60968 | 11.62845 | 130° | 170km/h | 11895m | -5.4m/s | -58.4°C | 66.6% | 206.5hPa | 2.5V | 07:59:12 | 02:44:50 | 00:00:00 | |
| DO2SHX-10 | 2026-09-06 01:04:42 | 53.60940 | 11.62900 | 131° | 170km/h | 11890m | -5.4m/s | -58.3°C | 66.4% | 206.6hPa | 2.6V | 00:00:00 | 02:44:51 | 00:00:00 | |
| DG6HD-15 | 2026-09-06 01:04:40 | 53.60968 | 11.62845 | 131° | 170km/h | 11895m | -5.4m/s | -58.4°C | 54.7% | 206.5hPa | 2.6V | 07:59:00 | 00:00:00 | 00:00:00 | |
| DL1XH1-15 | 2026-09-06 01:04:39 | 53.61049 | 11.62681 | 129° | 166km/h | 11911m | -5.4m/s | -58.5°C | 66.4% | 206hPa | 2.6V | 07:59:15 | 02:44:47 | 00:00:00 | |
| DL1XH-west | 2026-09-06 01:04:38 | 53.61049 | 11.62681 | 129° | 166km/h | 11911m | -5.4m/s | -58.5°C | 61.9% | 206hPa | 2.6V | 07:59:59 | 02:44:47 | 00:00:00 | |
| AA1-15 | 2026-09-06 01:04:37 | 53.61075 | 11.62626 | 129° | 166km/h | 11916m | -5.4m/s | -58.6°C | 61.9% | 205.8hPa | 2.6V | 07:59:59 | 02:44:46 | 00:00:00 | |
| S3001 | 2026-09-06 01:04:37 | 53.61102 | 11.62572 | 128° | 164km/h | 11921m | -5.4m/s | -58.6°C | 54.6% | 205.6hPa | 2.5V | 00:00:00 | 00:00:00 | 00:00:00 | |
| DO2SHX-10 | 2026-09-06 01:04:36 | 53.61102 | 11.62571 | 129° | 164km/h | 11922m | -5.3m/s | -58.5°C | 66.5% | 205.6hPa | 2.5V | 00:00:00 | 02:44:45 | 00:00:00 | |
| DL1XH-15 | 2026-09-06 01:04:34 | 53.61227 | 11.62295 | 126° | 162km/h | 11948m | -5.5m/s | -58.8°C | 65.3% | 204.8hPa | 2.6V | 07:59:22 | 02:44:40 | 00:00:00 | |
| DF8AY | 2026-09-06 01:04:33 | 53.61179 | 11.62406 | 127° | 162km/h | 11937m | -5.3m/s | -58.7°C | 62% | 205.2hPa | 2.5V | 07:59:59 | 02:44:42 | 00:00:00 | |
| DL1XH-west | 2026-09-06 01:04:27 | 53.61323 | 11.62070 | 124° | 164km/h | 11970m | -5.7m/s | -58.9°C | 62.1% | 204hPa | 2.5V | 07:59:59 | 02:44:36 | 00:00:00 | |
| AA1-15 | 2026-09-06 01:04:26 | 53.61346 | 11.62011 | 124° | 168km/h | 11975m | -5.4m/s | -59°C | 62.2% | 203.9hPa | 2.6V | 07:59:59 | 02:44:35 | 00:00:00 | |
| DB0DAN | 2026-09-06 01:04:25 | 53.61370 | 11.61951 | 124° | 164km/h | 11981m | -5.4m/s | -59°C | 54.4% | 203.77hPa | 2.6V | 00:00:00 | 00:00:00 | 00:00:00 | |
| DF8AY | 2026-09-06 01:04:24 | 53.61420 | 11.61826 | 124° | 181km/h | 11991m | -5.1m/s | -59.1°C | 62.4% | 203.4hPa | 2.5V | 07:59:59 | 02:44:32 | 00:00:00 | |
| DL4BBY-15 | 2026-09-06 01:04:24 | 53.61395 | 11.61889 | 124° | 177km/h | 11986m | -5.2m/s | -59.7°C | 0% | 0hPa | 2.5V | 00:00:00 | 00:00:00 | 00:00:00 | |
| SP3BTT-10 | 2026-09-06 01:04:22 | 53.61446 | 11.61762 | 126° | 177km/h | 11997m | -5.3m/s | -59.1°C | 66.9% | 203.2hPa | 2.5V | 00:00:00 | 00:00:00 | 00:00:00 | |
| DO2SHX-10 | 2026-09-06 01:04:21 | 53.61473 | 11.61699 | 127° | 183km/h | 12002m | -5.3m/s | -59.1°C | 67.2% | 203.0hPa | 2.5V | 07:59:00 | 02:44:30 | 00:00:00 | |
| DG6HD-15 | 2026-09-06 01:04:20 | 53.61473 | 11.61699 | 127° | 184km/h | 12002m | -5.3m/s | -59.2°C | 55.0% | 203.0hPa | 2.5V | 07:59:00 | 00:00:00 | 00:00:00 | |
| DL1XH1-15 | 2026-09-06 01:04:19 | 53.61558 | 11.61518 | 129° | 173km/h | 12018m | -5m/s | -59.3°C | 67.6% | 202.5hPa | 2.5V | 07:59:35 | 02:44:27 | 00:00:00 | |
| DL1XH-west | 2026-09-06 01:04:17 | 53.61585 | 11.61461 | 129° | 168km/h | 12023m | -4.8m/s | -59.3°C | 62.9% | 202.4hPa | 2.5V | 07:59:59 | 02:44:26 | 00:00:00 | |
| AA1-15 | 2026-09-06 01:04:16 | 53.61611 | 11.61406 | 128° | 164km/h | 12027m | -5.2m/s | -59.3°C | 62.9% | 202.2hPa | 2.5V | 07:59:59 | 02:44:25 | 00:00:00 | |
| DF8AY | 2026-09-06 01:04:12 | 53.61708 | 11.61180 | 124° | 166km/h | 12050m | -5.7m/s | -59.5°C | 63.1% | 201.4hPa | 2.5V | 07:59:59 | 02:44:21 | 00:00:00 | |
| DO2SHX-10 | 2026-09-06 01:04:12 | 53.61708 | 11.61180 | 124° | 170km/h | 12050m | -5.6m/s | -59.4°C | 67.1% | 201.4hPa | 2.5V | 00:00:00 | 02:44:21 | 00:00:00 | |
| DB0DAN | 2026-09-06 01:04:10 | 53.61754 | 11.61059 | 122° | 166km/h | 12060m | -5.2m/s | -59.5°C | 55% | 201.15hPa | 2.5V | 00:00:00 | 00:00:00 | 00:00:00 | |
| DL1XH1-15 | 2026-09-06 01:04:09 | 53.61803 | 11.60930 | 123° | 184km/h | 12071m | -5.3m/s | -59.6°C | 67.3% | 200.8hPa | 2.6V | 07:59:45 | 02:44:17 | 00:00:00 | |
| DL1XH-west | 2026-09-06 01:04:06 | 53.61856 | 11.60799 | 125° | 188km/h | 12082m | -5.8m/s | -59.7°C | 63.6% | 200.4hPa | 2.5V | 07:59:59 | 02:44:15 | 00:00:00 | |
| AA1-15 | 2026-09-06 01:04:05 | 53.61884 | 11.60733 | 126° | 190km/h | 12088m | -5.7m/s | -59.8°C | 63.6% | 200.3hPa | 2.5V | 07:59:59 | 02:44:14 | 00:00:00 | |
| DF8AY | 2026-09-06 01:04:01 | 53.61999 | 11.60482 | 129° | 183km/h | 12111m | -5.6m/s | -60°C | 63.9% | 199.5hPa | 2.6V | 07:59:59 | 02:44:10 | 00:00:00 | |
| DM0DOS-11 | 2026-09-06 01:04:00 | 53.62155 | 11.60127 | 122° | 175km/h | 12143m | -5.4m/s | -60.2°C | 67.8% | 198.5hPa | 2.6V | 07:59:58 | 02:44:04 | 00:00:00 | |
| DG6HD-11 | 2026-09-06 01:04:00 | 53.62027 | 11.60422 | 129° | 183km/h | 12116m | -5.6m/s | -60.0°C | 69.2% | 199.3hPa | 2.5V | 00:00:00 | 00:00:00 | 00:00:00 | |
| DL1XH1-15 | 2026-09-06 01:03:59 | 53.62082 | 11.60307 | 126° | 170km/h | 12127m | -5.4m/s | -60.1°C | 69.1% | 199hPa | 2.5V | 07:59:55 | 02:44:07 | 00:00:00 | |
| D01LWL | 2026-09-06 01:03:59 | 53.62055 | 11.60364 | 128° | 172km/h | 12122m | -5.2m/s | -60.1°C | 56.6% | 199.2hPa | 2.6V | 00:00:00 | 00:00:00 | 00:00:00 | |
| DJ2DS-15 | 2026-09-06 01:03:58 | 53.62107 | 11.60248 | 125° | 168km/h | 12132m | -5.5m/s | -60.2°C | 56.2% | 198.8hPa | 2.6V | 00:00:00 | 00:00:00 | 00:00:00 | |
| DO2SHX-10 | 2026-09-06 01:03:57 | 53.62106 | 11.60248 | 126° | 172km/h | 12133m | -5.5m/s | -60.1°C | 68.9% | 198.8hPa | 2.6V | 07:59:00 | 02:44:06 | 00:00:00 | |
| DB0DAN | 2026-09-06 01:03:55 | 53.62155 | 11.60127 | 123° | 166km/h | 12143m | -5.4m/s | -60.2°C | 55.2% | 198.5hPa | 2.6V | 00:00:00 | 00:00:00 | 00:00:00 | |
| DL1XH-west | 2026-09-06 01:03:55 | 53.62155 | 11.60127 | 123° | 175km/h | 12143m | -5.4m/s | -60.2°C | 63.6% | 198.5hPa | 2.6V | 07:59:59 | 02:44:04 | 00:00:00 | |
| AA1-15 | 2026-09-06 01:03:54 | 53.62179 | 11.60063 | 122° | 179km/h | 12149m | -5.4m/s | -60.3°C | 63.5% | 198.3hPa | 2.5V | 07:59:59 | 02:44:03 | 00:00:00 | |
| DO2SHX-10 | 2026-09-06 01:03:54 | 53.62179 | 11.60063 | 123° | 183km/h | 12149m | -5.4m/s | -60.2°C | 67.4% | 198.3hPa | 2.5V | 00:00:00 | 02:44:03 | 00:00:00 | |
| DL1XH-15 | 2026-09-06 01:03:51 | 53.62255 | 11.59865 | 123° | 190km/h | 12166m | -5.7m/s | -60.4°C | 67.6% | 197.8hPa | 2.5V | 08:00:02 | 02:44:00 | 00:00:00 | |
| DF8AY | 2026-09-06 01:03:51 | 53.62255 | 11.59865 | 124° | 190km/h | 12166m | -5.7m/s | -60.4°C | 63.3% | 197.8hPa | 2.5V | 08:00:50 | 02:44:00 | 00:00:00 | |
| DO2SHX-10 | 2026-09-06 01:03:51 | 53.62255 | 11.59865 | 124° | 190km/h | 12166m | -5.7m/s | -60.3°C | 67.6% | 197.8hPa | 2.5V | 08:00:00 | 02:44:00 | 00:00:00 | |
| AM1SDL-15 | 2026-09-06 01:03:50 | 53.62282 | 11.59798 | 125° | 186km/h | 12172m | -5.3m/s | -60.4°C | 67.7% | 197.6hPa | 2.5V | 00:00:00 | 02:43:59 | 00:00:00 | |
| DL1XH1-15 | 2026-09-06 01:03:49 | 53.62338 | 11.59667 | 126° | 190km/h | 12182m | -5.6m/s | -60.5°C | 67.6% | 197.2hPa | 2.5V | 08:00:05 | 02:43:57 | 00:00:00 | |
| DO2SHX-10 | 2026-09-06 01:03:48 | 53.62338 | 11.59667 | 127° | 188km/h | 12182m | -5.5m/s | -60.4°C | 67.6% | 197.2hPa | 2.6V | 00:00:00 | 02:43:57 | 00:00:00 | |
| DM0DOS-11 | 2026-09-06 01:03:45 | 53.62454 | 11.59421 | 128° | 177km/h | 12204m | -5.1m/s | -60.6°C | 68.3% | 196.6hPa | 2.6V | 08:00:09 | 02:43:53 | 00:00:00 | |
| DL1XH-west | 2026-09-06 01:03:45 | 53.62426 | 11.59480 | 129° | 181km/h | 12198m | -5.1m/s | -60.6°C | 63.2% | 196.8hPa | 2.5V | 08:00:50 | 02:43:54 | 00:00:00 | |
| SMARD9-15 | 2026-09-06 01:03:44 | 53.62454 | 11.59421 | 128° | 177km/h | 12204m | -5.1m/s | -60.6°C | 55.5% | 196.6hPa | 2.6V | 00:00:00 | 00:00:00 | 00:00:00 | |
| AA1-15 | 2026-09-06 01:03:43 | 53.62481 | 11.59361 | 127° | 175km/h | 12209m | -5.3m/s | -60.6°C | 63.2% | 196.4hPa | 2.6V | 08:00:50 | 02:43:52 | 00:00:00 | |
| DL1XH-15 | 2026-09-06 01:03:41 | 53.62534 | 11.59239 | 124° | 179km/h | 12219m | -5.4m/s | -60.7°C | 69% | 196.1hPa | 2.5V | 08:00:12 | 02:43:50 | 00:00:00 | |
| DB0DAN | 2026-09-06 01:03:40 | 53.62560 | 11.59175 | 124° | 175km/h | 12225m | -5.4m/s | -60.8°C | 56% | 195.93hPa | 2.5V | 00:00:00 | 00:00:00 | 00:00:00 | |
| DF8AY | 2026-09-06 01:03:40 | 53.62560 | 11.59175 | 124° | 184km/h | 12225m | -5.4m/s | -60.8°C | 63.1% | 195.9hPa | 2.5V | 08:00:50 | 02:43:49 | 00:00:00 | |
| DL1XH1-15 | 2026-09-06 01:03:39 | 53.62614 | 11.59044 | 125° | 192km/h | 12236m | -5.6m/s | -60.8°C | 68.5% | 195.5hPa | 2.6V | 08:00:15 | 02:43:47 | 00:00:00 | |
| DO2SHX-10 | 2026-09-06 01:03:39 | 53.62586 | 11.59110 | 125° | 190km/h | 12231m | -5.6m/s | -60.8°C | 68.8% | 195.7hPa | 2.6V | 00:00:00 | 02:43:48 | 00:00:00 | |
| AM1SDL-15 | 2026-09-06 01:03:38 | 53.62614 | 11.59044 | 126° | 190km/h | 12236m | -5.6m/s | -60.8°C | 68.5% | 195.5hPa | 2.6V | 00:00:00 | 02:43:47 | 00:00:00 | |
| DL1XH-15 | 2026-09-06 01:03:36 | 53.62815 | 11.58597 | 125° | 183km/h | 12275m | -5.5m/s | -61.1°C | 67.7% | 194.4hPa | 2.6V | 08:00:22 | 02:43:40 | 00:00:00 | |
| DO2SHX-10 | 2026-09-06 01:03:36 | 53.62671 | 11.58913 | 128° | 190km/h | 12247m | -5.5m/s | -60.8°C | 68.4% | 195.2hPa | 2.5V | 00:00:00 | 02:43:45 | 00:00:00 | |
| DM0DOS-11 | 2026-09-06 01:03:35 | 53.62730 | 11.58785 | 128° | 188km/h | 12258m | -5.5m/s | -61°C | 68.8% | 194.9hPa | 2.5V | 08:00:19 | 02:43:43 | 00:00:00 | |
| DL1XH-west | 2026-09-06 01:03:34 | 53.62730 | 11.58785 | 128° | 188km/h | 12258m | -5.5m/s | -61°C | 62.6% | 194.9hPa | 2.5V | 08:00:50 | 02:43:43 | 00:00:00 | |
| AA1-15 | 2026-09-06 01:03:33 | 53.62759 | 11.58722 | 128° | 184km/h | 12264m | -5.4m/s | -61°C | 62.5% | 194.7hPa | 2.5V | 08:00:50 | 02:43:42 | 00:00:00 | |
| DF8AY | 2026-09-06 01:03:30 | 53.62841 | 11.58533 | 125° | 186km/h | 12280m | -5.7m/s | -61.1°C | 61.9% | 194.2hPa | 2.5V | 08:00:50 | 02:43:39 | 00:00:00 | |
| DO2SHX-10 | 2026-09-06 01:03:30 | 53.62841 | 11.58533 | 125° | 190km/h | 12280m | -5.7m/s | -61.0°C | 66.9% | 194.2hPa | 2.6V | 00:00:00 | 02:43:39 | 00:00:00 | |
| D01LWL | 2026-09-06 01:03:28 | 53.62897 | 11.58401 | 125° | 193km/h | 12291m | -5.8m/s | -61.2°C | 53.5% | 193.9hPa | 2.6V | 00:00:00 | 00:00:00 | 00:00:00 | |
| DO2SHX-10 | 2026-09-06 01:03:27 | 53.62925 | 11.58334 | 127° | 197km/h | 12297m | -5.4m/s | -61.2°C | 66.0% | 193.6hPa | 2.6V | 00:00:00 | 02:43:36 | 00:00:00 | |
| AM1SDL-15 | 2026-09-06 01:03:26 | 53.62956 | 11.58267 | 128° | 195km/h | 12303m | -5.3m/s | -61.2°C | 65.3% | 193.4hPa | 2.6V | 00:00:00 | 02:43:35 | 00:00:00 | |
| DM0DOS-11 | 2026-09-06 01:03:25 | 53.63018 | 11.58137 | 129° | 197km/h | 12314m | -5.8m/s | -61.3°C | 64.1% | 193.2hPa | 2.5V | 08:00:29 | 02:43:33 | 00:00:00 | |
| DB0DAN | 2026-09-06 01:03:25 | 53.62987 | 11.58202 | 129° | 188km/h | 12308m | -5.5m/s | -61.3°C | 51.9% | 193.32hPa | 2.5V | 00:00:00 | 00:00:00 | 00:00:00 | |
| DL1XH-15 | 2026-09-06 01:03:24 | 53.63115 | 11.57944 | 130° | 197km/h | 12331m | -5.7m/s | -61.5°C | 63.9% | 192.6hPa | 2.6V | 08:00:32 | 02:43:30 | 00:00:00 | |
| DL1XH-west | 2026-09-06 01:03:23 | 53.63050 | 11.58072 | 130° | 197km/h | 12319m | -5.8m/s | -61.4°C | 59.9% | 193hPa | 2.5V | 08:00:50 | 02:43:32 | 00:00:00 | |
| DF8AY | 2026-09-06 01:03:19 | 53.63179 | 11.57818 | 131° | 193km/h | 12343m | -5.6m/s | -61.6°C | 58.8% | 192.3hPa | 2.5V | 08:00:50 | 02:43:28 | 00:00:00 | |
| DO2SHX-10 | 2026-09-06 01:03:18 | 53.63211 | 11.57756 | 131° | 188km/h | 12348m | -5.6m/s | -61.6°C | 64.9% | 192.0hPa | 2.5V | 00:00:00 | 02:43:27 | 00:00:00 | |
| DL1XH-15 | 2026-09-06 01:03:16 | 53.63409 | 11.57313 | 124° | 186km/h | 12387m | -5.9m/s | -61.9°C | 61.8% | 190.9hPa | 2.5V | 08:00:42 | 02:43:20 | 00:00:00 | |
| DL1XH-west | 2026-09-06 01:03:12 | 53.63382 | 11.57378 | 125° | 186km/h | 12381m | -5.9m/s | -61.8°C | 56.1% | 191.1hPa | 2.5V | 08:00:50 | 02:43:21 | 00:00:00 | |
| DF8AY | 2026-09-06 01:03:09 | 53.63462 | 11.57180 | 124° | 192km/h | 12399m | -5.7m/s | -62°C | 54.6% | 190.5hPa | 2.6V | 08:00:50 | 02:43:18 | 00:00:00 | |
| DO2SHX-10 | 2026-09-06 01:03:09 | 53.63462 | 11.57180 | 125° | 195km/h | 12399m | -5.6m/s | -61.9°C | 61.0% | 190.5hPa | 2.5V | 00:00:00 | 02:43:18 | 00:00:00 | |
| DO2SHX-10 | 2026-09-06 01:03:06 | 53.63547 | 11.56973 | 126° | 203km/h | 12416m | -5.4m/s | -62.1°C | 60.5% | 189.9hPa | 2.5V | 00:00:00 | 02:43:15 | 00:00:00 | |
| DL1XH-15 | 2026-09-06 01:03:04 | 53.63705 | 11.56637 | 129° | 193km/h | 12443m | -5.5m/s | -62.3°C | 59% | 189.2hPa | 2.5V | 08:00:52 | 02:43:10 | 00:00:00 | |
| DL1XH-west | 2026-09-06 01:03:02 | 53.63673 | 11.56701 | 130° | 199km/h | 12438m | -5.6m/s | -62.3°C | 50.7% | 189.4hPa | 2.6V | 08:01:41 | 02:43:11 | 00:00:00 | |
| DO2SHX-10 | 2026-09-06 01:03:00 | 53.63735 | 11.56574 | 130° | 186km/h | 12449m | -5.2m/s | -62.3°C | 58.5% | 189.0hPa | 2.5V | 00:00:00 | 02:43:09 | 00:00:00 | |
| DL1XH1-15 | 2026-09-06 01:02:59 | 53.63793 | 11.56449 | 126° | 184km/h | 12460m | -5.7m/s | -62.3°C | 57.2% | 188.7hPa | 2.5V | 08:00:55 | 02:43:07 | 00:00:00 | |
| DF8AY | 2026-09-06 01:02:58 | 53.63793 | 11.56449 | 127° | 184km/h | 12460m | -5.7m/s | -62.3°C | 48% | 188.7hPa | 2.5V | 08:01:41 | 02:43:07 | 00:00:00 | |
| DO2SHX-10 | 2026-09-06 01:02:57 | 53.63821 | 11.56386 | 126° | 190km/h | 12466m | -5.9m/s | -62.3°C | 56.9% | 188.4hPa | 2.6V | 08:00:00 | 02:43:06 | 00:00:00 | |
| DL1XH-15 | 2026-09-06 01:02:56 | 53.63994 | 11.55976 | 127° | 203km/h | 12500m | -5.8m/s | -62.4°C | 56% | 187.4hPa | 2.6V | 08:01:02 | 02:43:00 | 00:00:00 | |
| DC4HF-4 | 2026-09-06 01:02:56 | 53.63848 | 11.56320 | 124° | 190km/h | 12472m | -6.0m/s | -62.3°C | 44.4% | 188.3hPa | 2.5V | 00:00:00 | 00:00:00 | 00:00:00 | |
| DB0DAN | 2026-09-06 01:02:55 | 53.63876 | 11.56253 | 125° | 184km/h | 12478m | -5.9m/s | -62.3°C | 44.4% | 188.11hPa | 2.5V | 00:00:00 | 00:00:00 | 00:00:00 | |
| DL1XH-west | 2026-09-06 01:02:52 | 53.63963 | 11.56045 | 127° | 204km/h | 12495m | -5.4m/s | -62.4°C | 44.2% | 187.6hPa | 2.5V | 08:01:41 | 02:43:01 | 00:00:00 | |
| DO2SHX-10 | 2026-09-06 01:02:51 | 53.63994 | 11.55976 | 128° | 199km/h | 12500m | -5.8m/s | -62.3°C | 56.0% | 187.4hPa | 2.5V | 00:00:00 | 02:43:00 | 00:00:00 | |
| AA1-15 | 2026-09-06 01:02:51 | 53.63994 | 11.55976 | 128° | 203km/h | 12500m | -5.8m/s | -62.4°C | 43.6% | 187.4hPa | 2.6V | 08:01:41 | 02:43:00 | 00:00:00 | |
| DL1XH1-15 | 2026-09-06 01:02:49 | 53.64086 | 11.55777 | 127° | 192km/h | 12518m | -5.1m/s | -62.3°C | 52.9% | 186.9hPa | 2.5V | 08:01:05 | 02:42:57 | 00:00:00 | |
| DF8AY | 2026-09-06 01:02:48 | 53.64086 | 11.55777 | 127° | 192km/h | 12518m | -5.1m/s | -62.3°C | 41.3% | 186.9hPa | 2.5V | 08:01:41 | 02:42:57 | 00:00:00 | |
| EDDB2-11 | 2026-09-06 01:02:47 | 53.64115 | 11.55713 | 127° | 186km/h | 12523m | -5.9m/s | -62.2°C | 39.6% | 186.7hPa | 2.5V | 00:00:00 | 00:00:00 | 00:00:00 | |
| DJ2DS-15 | 2026-09-06 01:02:46 | 53.64171 | 11.55586 | 126° | 183km/h | 12535m | -5.8m/s | -61.9°C | 38.0% | 186.4hPa | 2.5V | 00:00:00 | 00:00:00 | 00:00:00 | |
| DO2SHX-10 | 2026-09-06 01:02:45 | 53.64171 | 11.55586 | 127° | 181km/h | 12535m | -5.7m/s | -61.9°C | 49.4% | 186.3hPa | 2.5V | 00:00:00 | 02:42:54 | 00:00:00 | |
| DL1XH-15 | 2026-09-06 01:02:41 | 53.64277 | 11.55340 | 125° | 175km/h | 12559m | -6.4m/s | -60.2°C | 41.4% | 185.7hPa | 2.5V | 08:01:12 | 02:42:50 | 00:00:00 | |
| DL1XH-west | 2026-09-06 01:02:41 | 53.64277 | 11.55340 | 126° | 177km/h | 12559m | -6.4m/s | -60.2°C | 35.7% | 185.7hPa | 2.5V | 08:01:41 | 02:42:50 | 00:00:00 | |
| AA1-15 | 2026-09-06 01:02:40 | 53.64302 | 11.55279 | 125° | 175km/h | 12565m | -5.8m/s | -59.9°C | 35.2% | 185.5hPa | 2.6V | 08:01:41 | 02:42:49 | 00:00:00 | |
| EDDB2-12 | 2026-09-06 01:02:40 | 53.64327 | 11.55216 | 123° | 175km/h | 12571m | -5.9m/s | -59.7°C | 29.8% | 185.3hPa | 2.6V | 00:00:00 | 00:00:00 | 00:00:00 | |
| DM0DOS-11 | 2026-09-06 01:02:39 | 53.64450 | 11.54884 | 121° | 193km/h | 12600m | -6m/s | -59.7°C | 37.2% | 184.5hPa | 2.6V | 08:01:19 | 02:42:43 | 00:00:00 | |
| DL1XH1-15 | 2026-09-06 01:02:39 | 53.64352 | 11.55153 | 122° | 179km/h | 12577m | -5.8m/s | -59.6°C | 38.3% | 185.2hPa | 2.5V | 08:01:15 | 02:42:47 | 00:00:00 | |
| DF8AY | 2026-09-06 01:02:38 | 53.64352 | 11.55153 | 123° | 179km/h | 12577m | -5.8m/s | -59.6°C | 34.6% | 185.2hPa | 2.5V | 08:01:41 | 02:42:47 | 00:00:00 | |
| DG6HD-15 | 2026-09-06 01:02:37 | 53.64352 | 11.55153 | 124° | 179km/h | 12577m | -5.8m/s | -59.6°C | 29.3% | 185.2hPa | 2.5V | 08:01:00 | 00:00:00 | 00:00:00 | |
| DO2SHX-10 | 2026-09-06 01:02:36 | 53.64401 | 11.55022 | 122° | 190km/h | 12589m | -5.7m/s | -59.6°C | 37.8% | 184.7hPa | 2.5V | 00:00:00 | 02:42:45 | 00:00:00 | |
| AM1SDL-15 | 2026-09-06 01:02:35 | 53.64425 | 11.54953 | 122° | 188km/h | 12594m | -5.9m/s | -59.7°C | 37.6% | 184.6hPa | 2.5V | 00:00:00 | 02:42:44 | 00:00:00 | |
| DJ2DS-15 | 2026-09-06 01:02:34 | 53.64450 | 11.54884 | 122° | 186km/h | 12600m | -5.9m/s | -59.7°C | 37.2% | 184.4hPa | 2.5V | 00:00:00 | 02:42:43 | 00:00:00 | |
| DO2SHX-10 | 2026-09-06 01:02:33 | 53.64476 | 11.54814 | 122° | 195km/h | 12606m | -5.6m/s | -59.6°C | 36.9% | 184.2hPa | 2.5V | 00:00:00 | 02:42:42 | 00:00:00 | |
| DL1XH-15 | 2026-09-06 01:02:31 | 53.64530 | 11.54674 | 123° | 197km/h | 12618m | -5.8m/s | -59.5°C | 36.3% | 183.9hPa | 2.5V | 08:01:22 | 02:42:40 | 00:00:00 | |
| DL1XH-west | 2026-09-06 01:02:30 | 53.64558 | 11.54605 | 125° | 195km/h | 12623m | -5.8m/s | -59.3°C | 32.9% | 183.8hPa | 2.5V | 08:01:41 | 02:42:39 | 00:00:00 | |
| DG6HD-11 | 2026-09-06 01:02:30 | 53.64558 | 11.54605 | 126° | 188km/h | 12624m | -5.7m/s | -59.3°C | 35.8% | 183.7hPa | 2.5V | 00:00:00 | 00:00:00 | 00:00:00 | |
| DM0DOS-11 | 2026-09-06 01:02:29 | 53.64727 | 11.54229 | 126° | 173km/h | 12658m | -6.1m/s | -58.6°C | 33.1% | 182.8hPa | 2.5V | 08:01:29 | 02:42:33 | 00:00:00 | |
| DL1XH1-15 | 2026-09-06 01:02:29 | 53.64616 | 11.54473 | 127° | 190km/h | 12635m | -5.8m/s | -59°C | 34.5% | 183.4hPa | 2.6V | 08:01:25 | 02:42:37 | 00:00:00 | |
| DF8AY | 2026-09-06 01:02:28 | 53.64616 | 11.54473 | 128° | 190km/h | 12635m | -5.8m/s | -59°C | 32.4% | 183.4hPa | 2.6V | 08:01:41 | 02:42:37 | 00:00:00 | |
| DO2SHX-10 | 2026-09-06 01:02:27 | 53.64645 | 11.54410 | 128° | 181km/h | 12641m | -5.9m/s | -58.9°C | 34.2% | 183.2hPa | 2.5V | 00:00:00 | 02:42:36 | 00:00:00 | |
| DB0DAN | 2026-09-06 01:02:25 | 53.64701 | 11.54289 | 127° | 170km/h | 12653m | -5.5m/s | -58.8°C | 25.7% | 182.94hPa | 2.5V | 00:00:00 | 00:00:00 | 00:00:00 | |
| DL1XH-15 | 2026-09-06 01:02:24 | 53.64802 | 11.54046 | 122° | 175km/h | 12676m | -6m/s | -58.7°C | 33% | 182.2hPa | 2.6V | 08:01:32 | 02:42:30 | 00:00:00 | |
| DL1XH-west | 2026-09-06 01:02:20 | 53.64826 | 11.53983 | 122° | 177km/h | 12682m | -5.9m/s | -58.7°C | 32.2% | 182.1hPa | 2.5V | 08:01:41 | 02:42:29 | 00:00:00 | |
| DL1XH1-15 | 2026-09-06 01:02:19 | 53.64874 | 11.53852 | 120° | 184km/h | 12694m | -5.8m/s | -58.8°C | 33% | 181.7hPa | 2.5V | 08:01:35 | 02:42:27 | 00:00:00 | |
| DF8AY | 2026-09-06 01:02:17 | 53.64898 | 11.53784 | 120° | 188km/h | 12699m | -5.8m/s | -58.8°C | 32.2% | 181.5hPa | 2.5V | 08:01:41 | 02:42:26 | 00:00:00 | |
| DL1XH-15 | 2026-09-06 01:02:16 | 53.65050 | 11.53360 | 122° | 199km/h | 12735m | -6m/s | -59°C | 32.9% | 180.5hPa | 2.6V | 08:01:42 | 02:42:20 | 00:00:00 | |
| DO2SHX-10 | 2026-09-06 01:02:15 | 53.64946 | 11.53644 | 121° | 195km/h | 12712m | -5.8m/s | -58.8°C | 32.8% | 181.1hPa | 2.5V | 00:00:00 | 02:42:24 | 00:00:00 | |
| DJ2DS-15 | 2026-09-06 01:02:14 | 53.64971 | 11.53573 | 122° | 190km/h | 12717m | -5.9m/s | -58.8°C | 32.9% | 181.0hPa | 2.5V | 00:00:00 | 02:42:23 | 00:00:00 | |
| DO2SHX-10 | 2026-09-06 01:02:12 | 53.65023 | 11.53431 | 123° | 199km/h | 12730m | -6.0m/s | -58.9°C | 32.9% | 180.7hPa | 2.5V | 00:00:00 | 02:42:21 | 00:00:00 | |
| DB0DAN | 2026-09-06 01:02:10 | 53.65078 | 11.53289 | 123° | 190km/h | 12741m | -5.8m/s | -59°C | 25.1% | 180.32hPa | 2.6V | 00:00:00 | 00:00:00 | 00:00:00 | |
| DL1XH1-15 | 2026-09-06 01:02:09 | 53.65135 | 11.53148 | 125° | 201km/h | 12753m | -6.3m/s | -59.1°C | 33% | 180.1hPa | 2.5V | 08:01:45 | 02:42:17 | 00:00:00 | |
| DM0DOS-11 | 2026-09-06 01:02:09 | 53.65252 | 11.52878 | 127° | 190km/h | 12778m | -6.2m/s | -59.3°C | 33.3% | 179.3hPa | 2.6V | 08:01:49 | 02:42:13 | 00:00:00 | |
| DL1XH-west | 2026-09-06 01:02:09 | 53.65106 | 11.53218 | 124° | 201km/h | 12747m | -5.8m/s | -59.1°C | 32.3% | 180.2hPa | 2.5V | 08:02:32 | 02:42:18 | 00:00:00 | |
| DF8AY | 2026-09-06 01:02:07 | 53.65164 | 11.53079 | 126° | 199km/h | 12760m | -6m/s | -59.2°C | 32.2% | 179.8hPa | 2.5V | 08:02:32 | 02:42:16 | 00:00:00 | |
| DO2SHX-10 | 2026-09-06 01:02:06 | 53.65193 | 11.53010 | 127° | 193km/h | 12766m | -6.0m/s | -59.2°C | 33.3% | 179.6hPa | 2.5V | 00:00:00 | 02:42:15 | 00:00:00 | |
| DL1XH-15 | 2026-09-06 01:02:04 | 53.65336 | 11.52691 | 125° | 177km/h | 12795m | -6m/s | -59.4°C | 33.1% | 178.8hPa | 2.5V | 08:01:52 | 02:42:10 | 00:00:00 | |
| DO2SHX-10 | 2026-09-06 01:02:03 | 53.65281 | 11.52815 | 128° | 181km/h | 12784m | -5.7m/s | -59.3°C | 33.3% | 179.1hPa | 2.5V | 08:01:00 | 02:42:12 | 00:00:00 | |
| S3001 | 2026-09-06 01:02:01 | 53.65336 | 11.52691 | 125° | 177km/h | 12795m | -6.0m/s | -59.4°C | 25.0% | 178.8hPa | 2.5V | 00:00:00 | 00:00:00 | 00:00:00 | |
| DG6HD-11 | 2026-09-06 01:02:00 | 53.65361 | 11.52630 | 125° | 190km/h | 12801m | -5.8m/s | -59.4°C | 33.0% | 178.6hPa | 2.5V | 00:00:00 | 00:00:00 | 00:00:00 | |
| DM0DOS-11 | 2026-09-06 01:01:59 | 53.65504 | 11.52233 | 120° | 193km/h | 12836m | -6m/s | -59.7°C | 32.7% | 177.6hPa | 2.5V | 08:01:59 | 02:42:03 | 00:00:00 | |
| DL1XH1-15 | 2026-09-06 01:01:59 | 53.65409 | 11.52504 | 121° | 177km/h | 12813m | -5.8m/s | -59.5°C | 32.8% | 178.3hPa | 2.6V | 08:01:55 | 02:42:07 | 00:00:00 | |
| DL1XH-west | 2026-09-06 01:01:59 | 53.65386 | 11.52568 | 123° | 175km/h | 12807m | -5.7m/s | -59.5°C | 31.8% | 178.5hPa | 2.6V | 08:02:32 | 02:42:08 | 00:00:00 | |
| AA1-15 | 2026-09-06 01:01:58 | 53.65409 | 11.52504 | 122° | 177km/h | 12813m | -5.8m/s | -59.5°C | 31.8% | 178.3hPa | 2.6V | 08:02:32 | 02:42:07 | 00:00:00 | |
| DF8AY | 2026-09-06 01:01:57 | 53.65433 | 11.52439 | 121° | 181km/h | 12818m | -5.6m/s | -59.6°C | 31.8% | 178.1hPa | 2.5V | 08:02:32 | 02:42:06 | 00:00:00 | |
| DO2SHX-10 | 2026-09-06 01:01:57 | 53.65432 | 11.52439 | 121° | 184km/h | 12819m | -5.5m/s | -59.5°C | 32.9% | 178.1hPa | 2.5V | 00:00:00 | 02:42:06 | 00:00:00 | |
| DL1XH-15 | 2026-09-06 01:01:56 | 53.65584 | 11.52018 | 124° | 201km/h | 12853m | -5.8m/s | -59.8°C | 32.5% | 177.1hPa | 2.5V | 08:02:02 | 02:42:00 | 00:00:00 | |
| DB0DAN | 2026-09-06 01:01:55 | 53.65479 | 11.52303 | 120° | 181km/h | 12830m | -5.9m/s | -59.6°C | 24.6% | 177.79hPa | 2.5V | 00:00:00 | 00:00:00 | 00:00:00 | |
| D01LWL | 2026-09-06 01:01:55 | 53.65504 | 11.52233 | 120° | 193km/h | 12836m | -6.0m/s | -59.7°C | 24.6% | 177.6hPa | 2.6V | 00:00:00 | 00:00:00 | 00:00:00 | |
| SONDE2-11 | 2026-09-06 01:01:50 | 53.65613 | 11.51949 | 125° | 199km/h | 12859m | -5.9m/s | -59.8°C | 24.4% | 177.0hPa | 2.6V | 00:00:00 | 00:00:00 | 00:00:00 | |
| DL1XH1-15 | 2026-09-06 01:01:49 | 53.65673 | 11.51814 | 128° | 195km/h | 12870m | -5.8m/s | -59.8°C | 32.4% | 176.7hPa | 2.6V | 08:02:05 | 02:41:57 | 00:00:00 | |
| DL1XH-west | 2026-09-06 01:01:49 | 53.65643 | 11.51880 | 127° | 199km/h | 12865m | -5.6m/s | -59.8°C | 31.2% | 176.8hPa | 2.5V | 08:02:32 | 02:41:58 | 00:00:00 | |
| AA1-15 | 2026-09-06 01:01:47 | 53.65704 | 11.51749 | 129° | 192km/h | 12876m | -5.8m/s | -59.9°C | 31% | 176.5hPa | 2.6V | 08:02:32 | 02:41:56 | 00:00:00 | |
| DO2SHX-10 | 2026-09-06 01:01:45 | 53.65763 | 11.51625 | 129° | 183km/h | 12888m | -6.1m/s | -59.9°C | 32.0% | 176.1hPa | 2.5V | 00:00:00 | 02:41:54 | 00:00:00 | |
| DC4HF-4 | 2026-09-06 01:01:44 | 53.65820 | 11.51502 | 126° | 179km/h | 12900m | -5.6m/s | -60.1°C | 23.8% | 175.9hPa | 2.6V | 00:00:00 | 00:00:00 | 00:00:00 | |
| DL1XH-15 | 2026-09-06 01:01:43 | 53.65873 | 11.51378 | 123° | 179km/h | 12911m | -5.4m/s | -60.1°C | 31.7% | 175.5hPa | 2.6V | 08:02:12 | 02:41:50 | 00:00:00 | |
| DO2SHX-10 | 2026-09-06 01:01:42 | 53.65847 | 11.51441 | 126° | 179km/h | 12906m | -5.8m/s | -60.1°C | 31.8% | 175.6hPa | 2.5V | 00:00:00 | 02:41:51 | 00:00:00 | |
| DB0DAN | 2026-09-06 01:01:40 | 53.65897 | 11.51314 | 122° | 173km/h | 12917m | -5.8m/s | -60.2°C | 23.5% | 175.41hPa | 2.5V | 00:00:00 | 00:00:00 | 00:00:00 | |
| DM0DOS-11 | 2026-09-06 01:01:39 | 53.66056 | 11.50898 | 125° | 203km/h | 12951m | -5.7m/s | -60.4°C | 30.8% | 174.4hPa | 2.5V | 08:02:19 | 02:41:43 | 00:00:00 | |
| DL1XH1-15 | 2026-09-06 01:01:39 | 53.65946 | 11.51179 | 121° | 190km/h | 12928m | -5.9m/s | -60.2°C | 31.2% | 175hPa | 2.5V | 08:02:15 | 02:41:47 | 00:00:00 | |
| DL1XH-west | 2026-09-06 01:01:39 | 53.65922 | 11.51247 | 122° | 186km/h | 12922m | -5.4m/s | -60.2°C | 30% | 175.2hPa | 2.5V | 08:02:32 | 02:41:48 | 00:00:00 | |
| AA1-15 | 2026-09-06 01:01:37 | 53.65972 | 11.51109 | 122° | 195km/h | 12934m | -6m/s | -60.3°C | 29.6% | 174.9hPa | 2.5V | 08:02:32 | 02:41:46 | 00:00:00 | |
| DO2SHX-10 | 2026-09-06 01:01:36 | 53.65999 | 11.51039 | 124° | 201km/h | 12940m | -5.9m/s | -60.3°C | 30.9% | 174.6hPa | 2.6V | 08:02:00 | 02:41:45 | 00:00:00 | |
| DJ2DS-15 | 2026-09-06 01:01:34 | 53.66056 | 11.50898 | 126° | 190km/h | 12951m | -5.7m/s | -60.4°C | 30.8% | 174.3hPa | 2.5V | 00:00:00 | 02:41:43 | 00:00:00 | |
| DL1XH1-15 | 2026-09-06 01:01:33 | 53.66244 | 11.50506 | 130° | 188km/h | 12987m | -6.3m/s | -60.5°C | 30.6% | 173.4hPa | 2.5V | 08:02:25 | 02:41:37 | 00:00:00 | |
| DO2SHX-10 | 2026-09-06 01:01:33 | 53.66086 | 11.50829 | 128° | 201km/h | 12957m | -5.5m/s | -60.4°C | 30.7% | 174.1hPa | 2.6V | 00:00:00 | 02:41:42 | 00:00:00 | |
| DO2SHX-10 | 2026-09-06 01:01:30 | 53.66181 | 11.50631 | 130° | 192km/h | 12975m | -5.8m/s | -60.5°C | 30.7% | 173.7hPa | 2.6V | 00:00:00 | 02:41:39 | 00:00:00 | |
| DM0DOS-11 | 2026-09-06 01:01:29 | 53.66360 | 11.50268 | 127° | 175km/h | 13011m | -5.6m/s | -60.6°C | 30.8% | 172.7hPa | 2.6V | 08:02:29 | 02:41:33 | 00:00:00 | |
| DL1XH-west | 2026-09-06 01:01:28 | 53.66244 | 11.50506 | 131° | 188km/h | 12987m | -6.3m/s | -60.5°C | 28.3% | 173.4hPa | 2.5V | 08:02:32 | 02:41:37 | 00:00:00 | |
| AA1-15 | 2026-09-06 01:01:27 | 53.66274 | 11.50446 | 130° | 184km/h | 12993m | -6.2m/s | -60.5°C | 28.2% | 173.2hPa | 2.5V | 08:02:32 | 02:41:36 | 00:00:00 | |
| DF8AY | 2026-09-06 01:01:26 | 53.66304 | 11.50386 | 130° | 181km/h | 12999m | -6m/s | -60.5°C | 28.1% | 173.1hPa | 2.5V | 08:02:32 | 02:41:35 | 00:00:00 | |
| DB0DAN | 2026-09-06 01:01:25 | 53.66332 | 11.50327 | 129° | 170km/h | 13005m | -5.7m/s | -60.6°C | 22.6% | 172.88hPa | 2.6V | 00:00:00 | 00:00:00 | 00:00:00 | |
| GOEST3-10 | 2026-09-06 01:01:25 | 53.66332 | 11.50327 | 129° | 179km/h | 13006m | -5.7m/s | -60.5°C | 30.8% | 172.8hPa | 2.5V | 00:00:00 | 02:41:34 | 00:00:00 | |
| DL4BBY-15 | 2026-09-06 01:01:24 | 53.66360 | 11.50268 | 128° | 183km/h | 13011m | -5.6m/s | -61.3°C | 0% | 0hPa | 2.5V | 00:00:00 | 00:00:00 | 00:00:00 | |
| SP3BTT-10 | 2026-09-06 01:01:22 | 53.66412 | 11.50146 | 125° | 141km/h | 13022m | -5.8m/s | -60.7°C | 30.7% | 172.4hPa | 2.5V | 00:00:00 | 00:00:00 | 00:00:00 | |
| DO2SHX-10 | 2026-09-06 01:01:21 | 53.66437 | 11.50082 | 124° | 186km/h | 13028m | -5.9m/s | -60.7°C | 30.6% | 172.2hPa | 2.5V | 00:00:00 | 02:41:30 | 00:00:00 | |
| DM0DOS-11 | 2026-09-06 01:01:19 | 53.66635 | 11.49614 | 129° | 195km/h | 13069m | -5.7m/s | -60.7°C | 29.4% | 171.1hPa | 2.5V | 08:02:39 | 02:41:23 | 00:00:00 | |
| DL1XH1-15 | 2026-09-06 01:01:19 | 53.66516 | 11.49882 | 124° | 195km/h | 13045m | -5.7m/s | -60.7°C | 30.1% | 171.8hPa | 2.6V | 08:02:35 | 02:41:27 | 00:00:00 | |
| DL1XH-west | 2026-09-06 01:01:17 | 53.66544 | 11.49813 | 126° | 197km/h | 13051m | -5.9m/s | -60.7°C | 27% | 171.6hPa | 2.5V | 08:03:23 | 02:41:26 | 00:00:00 | |
| AA1-15 | 2026-09-06 01:01:16 | 53.66574 | 11.49746 | 127° | 197km/h | 13057m | -5.8m/s | -60.7°C | 26.8% | 171.5hPa | 2.5V | 08:03:23 | 02:41:25 | 00:00:00 | |
| DF8AY | 2026-09-06 01:01:15 | 53.66604 | 11.49679 | 128° | 197km/h | 13063m | -5.6m/s | -60.7°C | 26.7% | 171.3hPa | 2.5V | 08:03:23 | 02:41:24 | 00:00:00 | |
| DO2SHX-10 | 2026-09-06 01:01:15 | 53.66604 | 11.49679 | 129° | 195km/h | 13063m | -5.5m/s | -60.7°C | 29.7% | 171.2hPa | 2.5V | 00:00:00 | 02:41:24 | 00:00:00 | |
| DJ2DS-15 | 2026-09-06 01:01:14 | 53.66635 | 11.49614 | 130° | 181km/h | 13069m | -5.6m/s | -60.7°C | 29.4% | 171.1hPa | 2.5V | 08:02:00 | 02:41:23 | 00:00:00 | |
| DO2SHX-10 | 2026-09-06 01:01:12 | 53.66697 | 11.49489 | 131° | 183km/h | 13080m | -5.9m/s | -60.6°C | 29.0% | 170.8hPa | 2.5V | 00:00:00 | 02:41:21 | 00:00:00 | |
| DB0DAN | 2026-09-06 01:01:10 | 53.66758 | 11.49372 | 131° | 170km/h | 13092m | -5.9m/s | -60.6°C | 20.8% | 170.53hPa | 2.5V | 00:00:00 | 00:00:00 | 00:00:00 | |
| DM0DOS-11 | 2026-09-06 01:01:09 | 53.66917 | 11.49023 | 124° | 175km/h | 13128m | -5.5m/s | -60.1°C | 27.2% | 169.5hPa | 2.5V | 08:02:49 | 02:41:13 | 00:00:00 | |
| DL1XH1-15 | 2026-09-06 01:01:09 | 53.66815 | 11.49258 | 128° | 172km/h | 13104m | -6.1m/s | -60.3°C | 28% | 170.2hPa | 2.6V | 08:02:45 | 02:41:17 | 00:00:00 | |
| DL1XH-west | 2026-09-06 01:01:06 | 53.66867 | 11.49143 | 126° | 170km/h | 13116m | -6m/s | -60.2°C | 25.4% | 169.8hPa | 2.5V | 08:03:23 | 02:41:15 | 00:00:00 | |
| AA1-15 | 2026-09-06 01:01:05 | 53.66892 | 11.49083 | 125° | 172km/h | 13122m | -5.9m/s | -60.2°C | 25.3% | 169.7hPa | 2.5V | 08:03:23 | 02:41:14 | 00:00:00 | |
| DL3AQ-11 | 2026-09-06 01:01:05 | 53.66917 | 11.49023 | 124° | 175km/h | 13128m | -5.5m/s | -60.1°C | 19.7% | 169.5hPa | 2.5V | 00:00:00 | 00:00:00 | 00:00:00 | |
| DO2SHX-10 | 2026-09-06 01:01:03 | 53.66942 | 11.48960 | 125° | 184km/h | 13134m | -5.7m/s | -60.1°C | 27.1% | 169.3hPa | 2.5V | 00:00:00 | 02:41:12 | 00:00:00 | |
| DM0DOS-11 | 2026-09-06 01:00:59 | 53.67210 | 11.48423 | 133° | 177km/h | 13187m | -6.3m/s | -60.2°C | 25% | 167.9hPa | 2.5V | 08:02:59 | 02:41:03 | 00:00:00 | |
| DL1XH1-15 | 2026-09-06 01:00:59 | 53.67087 | 11.48650 | 131° | 184km/h | 13162m | -6m/s | -60.2°C | 25.8% | 168.7hPa | 2.5V | 08:02:55 | 02:41:07 | 00:00:00 | |
| DO2SHX-10 | 2026-09-06 01:00:57 | 53.67118 | 11.48592 | 132° | 181km/h | 13168m | -6.1m/s | -60.2°C | 25.8% | 168.4hPa | 2.6V | 00:00:00 | 02:41:06 | 00:00:00 | |
| DL1XH-15 | 2026-09-06 01:00:56 | 53.67301 | 11.48267 | 134° | 166km/h | 13205m | -5.9m/s | -60.2°C | 24.5% | 167.5hPa | 2.6V | 08:03:02 | 02:41:00 | 00:00:00 | |
| DL1XH-west | 2026-09-06 01:00:56 | 53.67149 | 11.48534 | 133° | 181km/h | 13174m | -6.2m/s | -60.2°C | 23.6% | 168.3hPa | 2.6V | 08:03:23 | 02:41:05 | 00:00:00 | |
| DB0DAN | 2026-09-06 01:00:55 | 53.67180 | 11.48478 | 133° | 170km/h | 13180m | -6.1m/s | -60.2°C | 18.1% | 168.09hPa | 2.6V | 00:00:00 | 00:00:00 | 00:00:00 | |
| DF8AY | 2026-09-06 01:00:55 | 53.67180 | 11.48478 | 133° | 179km/h | 13180m | -6.1m/s | -60.2°C | 23.3% | 168.1hPa | 2.6V | 08:03:23 | 02:41:04 | 00:00:00 | |
| AA1-15 | 2026-09-06 01:00:54 | 53.67211 | 11.48423 | 134° | 177km/h | 13187m | -6.3m/s | -60.2°C | 23.1% | 167.9hPa | 2.5V | 08:03:23 | 02:41:03 | 00:00:00 | |
| D01LWL | 2026-09-06 01:00:53 | 53.67241 | 11.48370 | 134° | 172km/h | 13193m | -6.1m/s | -60.2°C | 17.5% | 167.8hPa | 2.6V | 00:00:00 | 00:00:00 | 00:00:00 | |
| DO2SHX-10 | 2026-09-06 01:00:51 | 53.67301 | 11.48267 | 135° | 164km/h | 13205m | -5.9m/s | -60.2°C | 24.5% | 167.4hPa | 2.6V | 00:00:00 | 02:41:00 | 00:00:00 | |
| GOEST3-10 | 2026-09-06 01:00:50 | 53.67330 | 11.48217 | 134° | 166km/h | 13211m | -5.6m/s | -60.1°C | 24.4% | 167.2hPa | 2.5V | 00:00:00 | 02:40:59 | 00:00:00 | |
| DL1XH1-15 | 2026-09-06 01:00:49 | 53.67384 | 11.48113 | 129° | 164km/h | 13222m | -5.7m/s | -60°C | 23.8% | 166.9hPa | 2.5V | 08:03:05 | 02:40:57 | 00:00:00 | |
| DM0DOS-11 | 2026-09-06 01:00:49 | 53.67526 | 11.47824 | 131° | 183km/h | 13251m | -6.3m/s | -60°C | 22.4% | 166.3hPa | 2.5V | 08:03:10 | 02:40:52 | 00:00:00 | |
| DL1XH-west | 2026-09-06 01:00:45 | 53.67467 | 11.47942 | 129° | 181km/h | 13239m | -5.4m/s | -60.1°C | 21.1% | 166.5hPa | 2.6V | 08:03:23 | 02:40:54 | 00:00:00 | |
| AA1-15 | 2026-09-06 01:00:44 | 53.67496 | 11.47883 | 130° | 183km/h | 13245m | -5.7m/s | -60.1°C | 20.8% | 166.4hPa | 2.6V | 08:03:23 | 02:40:53 | 00:00:00 | |
| EDDB2-11 | 2026-09-06 01:00:43 | 53.67526 | 11.47824 | 131° | 183km/h | 13251m | -6.3m/s | -60.1°C | 15.7% | 166.3hPa | 2.5V | 00:00:00 | 00:00:00 | 00:00:00 | |
| DL1XH-15 | 2026-09-06 01:00:42 | 53.67588 | 11.47709 | 133° | 181km/h | 13263m | -6.4m/s | -59.9°C | 21.7% | 165.9hPa | 2.5V | 08:03:12 | 02:40:50 | 00:00:00 | |
| DO2SHX-10 | 2026-09-06 01:00:42 | 53.67557 | 11.47766 | 133° | 181km/h | 13257m | -6.1m/s | -60.0°C | 22.1% | 166.0hPa | 2.5V | 08:03:00 | 02:40:51 | 00:00:00 | |
| MECKS9 | 2026-09-06 01:00:41 | 53.67557 | 11.47766 | 133° | 183km/h | 13257m | -6.2m/s | -60.0°C | 15.4% | 166.1hPa | 2.5V | 00:00:00 | 00:00:00 | 00:00:00 | |
| DB0DAN | 2026-09-06 01:00:40 | 53.67620 | 11.47655 | 135° | 172km/h | 13270m | -6m/s | -60°C | 15% | 165.76hPa | 2.5V | 00:00:00 | 00:00:00 | 00:00:00 | |
| DO2SHX-10 | 2026-09-06 01:00:39 | 53.67652 | 11.47603 | 138° | 172km/h | 13276m | -6.2m/s | -60.0°C | 21.4% | 165.5hPa | 2.6V | 00:00:00 | 02:40:48 | 00:00:00 | |
| DM0DOS-11 | 2026-09-06 01:00:38 | 53.67836 | 11.47322 | 135° | 159km/h | 13312m | -5.2m/s | -60.1°C | 20.5% | 164.6hPa | 2.6V | 08:03:20 | 02:40:42 | 00:00:00 | |
| DL3AQ-11 | 2026-09-06 01:00:38 | 53.67716 | 11.47505 | 138° | 166km/h | 13288m | -5.9m/s | -59.9°C | -1.0% | 165.3hPa | 2.5V | 00:00:00 | 00:00:00 | 00:00:00 | |
| DL1XH-15 | 2026-09-06 01:00:36 | 53.67893 | 11.47223 | 133° | 166km/h | 13324m | -5.6m/s | -60.1°C | 20% | 164.3hPa | 2.5V | 08:03:22 | 02:40:40 | 00:00:00 | |
| DL1XH-west | 2026-09-06 01:00:34 | 53.67807 | 11.47368 | 137° | 157km/h | 13307m | -5.9m/s | -60.1°C | 18.7% | 164.7hPa | 2.6V | 08:03:23 | 02:40:43 | 00:00:00 | |
| AA1-15 | 2026-09-06 01:00:33 | 53.67836 | 11.47322 | 136° | 159km/h | 13313m | -5.2m/s | -60.1°C | 18.5% | 164.6hPa | 2.6V | 08:03:23 | 02:40:42 | 00:00:00 | |
| DO2SHX-10 | 2026-09-06 01:00:33 | 53.67836 | 11.47322 | 136° | 162km/h | 13313m | -5.2m/s | -60.0°C | 20.5% | 164.6hPa | 2.6V | 00:00:00 | 02:40:42 | 00:00:00 | |
| DO9LL-15 | 2026-09-06 01:00:31 | 53.67893 | 11.47223 | 134° | 124km/h | 13324m | -5.6m/s | 0°C | 0% | 0hPa | 2.5V | 00:00:00 | 02:40:40 | 00:00:00 | |
| DO2SHX-10 | 2026-09-06 01:00:30 | 53.67923 | 11.47172 | 135° | 175km/h | 13330m | -5.6m/s | -60.1°C | 19.7% | 164.1hPa | 2.5V | 00:00:00 | 02:40:39 | 00:00:00 | |
| AM1SDL-15 | 2026-09-06 01:00:29 | 53.67954 | 11.47119 | 137° | 162km/h | 13336m | -5.9m/s | -60.1°C | 19.4% | 163.9hPa | 2.5V | 00:00:00 | 02:40:38 | 00:00:00 | |
| DM0DOS-11 | 2026-09-06 01:00:28 | 53.68156 | 11.46844 | 144° | 161km/h | 13372m | -6.5m/s | -60.1°C | 17.5% | 163.1hPa | 2.5V | 08:03:30 | 02:40:32 | 00:00:00 | |
| DO2SHX-10 | 2026-09-06 01:00:27 | 53.68021 | 11.47019 | 140° | 173km/h | 13347m | -6.0m/s | -60.2°C | 18.6% | 163.7hPa | 2.5V | 00:00:00 | 02:40:36 | 00:00:00 | |
| DB0DAN | 2026-09-06 01:00:25 | 53.68089 | 11.46927 | 143° | 161km/h | 13360m | -5.8m/s | -60.1°C | 12% | 163.33hPa | 2.5V | 00:00:00 | 00:00:00 | 00:00:00 | |
| DL3AQ-11 | 2026-09-06 01:00:25 | 53.68123 | 11.46885 | 143° | 164km/h | 13366m | -6.1m/s | 0°C | -1.0% | 163.2hPa | 2.6V | 00:00:00 | 00:00:00 | 00:00:00 | |
| DL1XH-15 | 2026-09-06 01:00:24 | 53.68219 | 11.46764 | 141° | 151km/h | 13385m | -5.3m/s | -60.1°C | 17.3% | 162.7hPa | 2.6V | 08:03:32 | 02:40:30 | 00:00:00 | |
| DF8AY | 2026-09-06 01:00:24 | 53.68123 | 11.46885 | 144° | 166km/h | 13366m | -6.1m/s | -60.1°C | 16% | 163.2hPa | 2.5V | 08:04:14 | 02:40:33 | 00:00:00 | |
| DL1XH-west | 2026-09-06 01:00:23 | 53.68156 | 11.46844 | 144° | 161km/h | 13372m | -6.5m/s | -60.1°C | 15.7% | 163.1hPa | 2.5V | 08:04:14 | 02:40:32 | 00:00:00 | |
| AA1-15 | 2026-09-06 01:00:22 | 53.68189 | 11.46804 | 143° | 155km/h | 13379m | -6.1m/s | -60.1°C | 15.4% | 162.8hPa | 2.6V | 08:04:14 | 02:40:31 | 00:00:00 | |
| DO2SHX-10 | 2026-09-06 01:00:21 | 53.68219 | 11.46764 | 142° | 151km/h | 13385m | -5.3m/s | -60.1°C | 17.3% | 162.7hPa | 2.5V | 00:00:00 | 02:40:30 | 00:00:00 | |
| DM0DOS-11 | 2026-09-06 01:00:18 | 53.68462 | 11.46409 | 143° | 164km/h | 13431m | -5.6m/s | -60.1°C | 15% | 161.5hPa | 2.5V | 08:03:40 | 02:40:22 | 00:00:00 | |
| GOEST3-10 | 2026-09-06 01:00:18 | 53.68335 | 11.46590 | 137° | 164km/h | 13408m | -6.0m/s | -60.2°C | 16.7% | 162.1hPa | 2.6V | 00:00:00 | 02:40:26 | 00:00:00 | |
| DL1XH-15 | 2026-09-06 01:00:17 | 53.68528 | 11.46330 | 145° | 155km/h | 13443m | -5.3m/s | -60.1°C | 14.3% | 161.2hPa | 2.6V | 08:03:42 | 02:40:20 | 00:00:00 | |
| DF8AY | 2026-09-06 01:00:14 | 53.68429 | 11.46452 | 142° | 166km/h | 13426m | -5.6m/s | -60.1°C | 13% | 161.7hPa | 2.5V | 08:04:14 | 02:40:23 | 00:00:00 | |
| DL1XH-west | 2026-09-06 01:00:13 | 53.68462 | 11.46409 | 143° | 164km/h | 13431m | -5.6m/s | -60.1°C | 12.7% | 161.6hPa | 2.5V | 08:04:14 | 02:40:22 | 00:00:00 | |
| DO2SHX-10 | 2026-09-06 01:00:12 | 53.68495 | 11.46368 | 145° | 157km/h | 13437m | -5.8m/s | -60.1°C | 14.6% | 161.3hPa | 2.6V | 00:00:00 | 02:40:21 | 00:00:00 | |
| AA1-15 | 2026-09-06 01:00:12 | 53.68495 | 11.46368 | 144° | 161km/h | 13437m | -5.9m/s | -60.1°C | 12.4% | 161.4hPa | 2.5V | 08:04:14 | 02:40:21 | 00:00:00 | |
| DB0DAN | 2026-09-06 01:00:10 | 53.68560 | 11.46293 | 147° | 146km/h | 13449m | -6m/s | -60.2°C | 8.7% | 161.1hPa | 2.6V | 00:00:00 | 00:00:00 | 00:00:00 | |
| DL1XH1-15 | 2026-09-06 01:00:09 | 53.68623 | 11.46222 | 145° | 148km/h | 13461m | -6.3m/s | -60.2°C | 13.5% | 160.7hPa | 2.5V | 08:03:45 | 02:40:17 | 00:00:00 | |
| DO2SHX-10 | 2026-09-06 01:00:09 | 53.68592 | 11.46258 | 147° | 148km/h | 13455m | -6.3m/s | -60.1°C | 13.8% | 160.9hPa | 2.5V | 00:00:00 | 02:40:18 | 00:00:00 | |
| GOEST3-10 | 2026-09-06 01:00:07 | 53.68653 | 11.46187 | 146° | 142km/h | 13468m | -6.1m/s | -60.1°C | 13.2% | 160.5hPa | 2.5V | 08:03:00 | 02:40:16 | 00:00:00 | |
| DL1XH-15 | 2026-09-06 01:00:06 | 53.68822 | 11.45958 | 136° | 150km/h | 13504m | -5.8m/s | -60.2°C | 11.7% | 159.6hPa | 2.5V | 08:03:52 | 02:40:10 | 00:00:00 | |
| DF8AY | 2026-09-06 01:00:03 | 53.68768 | 11.46041 | 139° | 142km/h | 13493m | -6m/s | -60.3°C | 9.2% | 159.9hPa | 2.5V | 08:04:14 | 02:40:12 | 00:00:00 | |
| DL1XH-west | 2026-09-06 01:00:02 | 53.68795 | 11.46001 | 138° | 144km/h | 13499m | -6m/s | -60.2°C | 8.9% | 159.8hPa | 2.5V | 08:04:14 | 02:40:11 | 00:00:00 | |
| AA1-15 | 2026-09-06 01:00:01 | 53.68822 | 11.45958 | 137° | 150km/h | 13504m | -5.8m/s | -60.3°C | 8.5% | 159.6hPa | 2.5V | 08:04:14 | 02:40:10 | 00:00:00 | |
| DO2SHX-10 | 2026-09-06 01:00:00 | 53.68850 | 11.45914 | 137° | 153km/h | 13511m | -5.9m/s | -60.2°C | 11.6% | 159.4hPa | 2.5V | 00:00:00 | 02:40:09 | 00:00:00 | |
| DL1XH1-15 | 2026-09-06 00:59:59 | 53.68908 | 11.45826 | 138° | 153km/h | 13522m | -6m/s | -60.2°C | 11.1% | 159.2hPa | 2.5V | 08:03:55 | 02:40:07 | 00:00:00 | |
| DO2SHX-10 | 2026-09-06 00:59:57 | 53.68938 | 11.45784 | 141° | 148km/h | 13529m | -5.8m/s | -60.2°C | 10.8% | 158.9hPa | 2.5V | 00:00:00 | 02:40:06 | 00:00:00 | |
| DL1XH-15 | 2026-09-06 00:59:56 | 53.69102 | 11.45556 | 139° | 131km/h | 13565m | -6m/s | -59.9°C | 8.9% | 158.1hPa | 2.5V | 08:04:02 | 02:40:00 | 00:00:00 | |
| DC4HF-4 | 2026-09-06 00:59:56 | 53.68996 | 11.45705 | 141° | 142km/h | 13540m | -6.1m/s | -60.1°C | 5.4% | 158.7hPa | 2.5V | 00:00:00 | 00:00:00 | 00:00:00 | |
| DB0DAN | 2026-09-06 00:59:55 | 53.68996 | 11.45705 | 141° | 137km/h | 13540m | -6.1m/s | -60.1°C | 5.4% | 158.71hPa | 2.5V | 00:00:00 | 00:00:00 | 00:00:00 | |
| DF8AY | 2026-09-06 00:59:53 | 53.69050 | 11.45630 | 140° | 137km/h | 13553m | -5.9m/s | -60.1°C | 5.8% | 158.4hPa | 2.6V | 08:04:14 | 02:40:02 | 00:00:00 | |
| DL1XH-west | 2026-09-06 00:59:51 | 53.69102 | 11.45556 | 140° | 131km/h | 13565m | -6m/s | -59.9°C | 5.2% | 158.1hPa | 2.5V | 08:04:14 | 02:40:00 | 00:00:00 | |
| D01LWL | 2026-09-06 00:59:51 | 53.69127 | 11.45520 | 138° | 128km/h | 13572m | -6.0m/s | -59.8°C | 4.2% | 157.9hPa | 2.5V | 00:00:00 | 00:00:00 | 00:00:00 | |
| SONDE2-11 | 2026-09-06 00:59:46 | 53.69221 | 11.45374 | 136° | 122km/h | 13597m | -5.8m/s | -59.6°C | 3.7% | 157.3hPa | 2.5V | 00:00:00 | 00:00:00 | 00:00:00 | |
| DO2SHX-10 | 2026-09-06 00:59:45 | 53.69243 | 11.45337 | 136° | 124km/h | 13604m | -6.8m/s | -59.4°C | 7.6% | 157.1hPa | 2.5V | 00:00:00 | 02:39:54 | 00:00:00 | |
| DL1XH-15 | 2026-09-06 00:59:44 | 53.69327 | 11.45178 | 128° | 130km/h | 13629m | -6.6m/s | -59.3°C | 7.1% | 156.5hPa | 2.5V | 08:04:12 | 02:39:50 | 00:00:00 | |
| DF8AY | 2026-09-06 00:59:43 | 53.69286 | 11.45261 | 132° | 122km/h | 13616m | -5.9m/s | -59.4°C | 3.4% | 156.8hPa | 2.6V | 08:04:14 | 02:39:52 | 00:00:00 | |
| DL1XH-west | 2026-09-06 00:59:41 | 53.69327 | 11.45178 | 128° | 130km/h | 13629m | -6.6m/s | -59.3°C | 3.2% | 156.5hPa | 2.5V | 08:04:14 | 02:39:50 | 00:00:00 | |
| AA1-15 | 2026-09-06 00:59:40 | 53.69348 | 11.45134 | 128° | 133km/h | 13636m | -6.2m/s | -59.3°C | 3.1% | 156.3hPa | 2.5V | 08:04:14 | 02:39:49 | 00:00:00 | |
| GOEST3-10 | 2026-09-06 00:59:40 | 53.69347 | 11.45134 | 129° | 142km/h | 13636m | -6.2m/s | -59.2°C | 7.0% | 156.2hPa | 2.5V | 00:00:00 | 00:00:00 | 00:00:00 | |
| DL1XH1-15 | 2026-09-06 00:59:39 | 53.69390 | 11.45042 | 127° | 142km/h | 13648m | -6.4m/s | -59.1°C | 6.8% | 156.1hPa | 2.5V | 08:04:15 | 02:39:47 | 00:00:00 | |
| DO2SHX-10 | 2026-09-06 00:59:39 | 53.69369 | 11.45089 | 128° | 141km/h | 13642m | -6.0m/s | -59.1°C | 6.9% | 156.1hPa | 2.5V | 00:00:00 | 02:39:48 | 00:00:00 | |
| DL1XH-15 | 2026-09-06 00:59:36 | 53.69561 | 11.44719 | 136° | 139km/h | 13692m | -6.1m/s | -58.3°C | 6.2% | 154.9hPa | 2.6V | 08:04:22 | 02:39:40 | 00:00:00 | |
| DF8AY | 2026-09-06 00:59:32 | 53.69535 | 11.44760 | 136° | 142km/h | 13686m | -6.4m/s | -58.3°C | 2.5% | 155.1hPa | 2.6V | 08:05:05 | 02:39:41 | 00:00:00 | |
| DL1XH-west | 2026-09-06 00:59:30 | 53.69586 | 11.44680 | 137° | 131km/h | 13698m | -6m/s | -58.2°C | 2.5% | 154.8hPa | 2.5V | 08:05:05 | 02:39:39 | 00:00:00 | |
| DO2SHX-10 | 2026-09-06 00:59:30 | 53.69586 | 11.44680 | 138° | 128km/h | 13698m | -5.9m/s | -58.2°C | 6.2% | 154.7hPa | 2.5V | 00:00:00 | 02:39:39 | 00:00:00 | |
| DM0DOS-11 | 2026-09-06 00:59:29 | 53.69633 | 11.44606 | 135° | 124km/h | 13711m | -6.3m/s | -58.2°C | 6.2% | 154.5hPa | 2.5V | 08:04:25 | 02:39:37 | 00:00:00 | |
| DO2SHX-10 | 2026-09-06 00:59:27 | 53.69655 | 11.44569 | 134° | 120km/h | 13717m | -6.4m/s | -58.1°C | 6.1% | 154.3hPa | 2.6V | 00:00:00 | 02:39:36 | 00:00:00 | |
| DB0DAN | 2026-09-06 00:59:25 | 53.69695 | 11.44493 | 129° | 113km/h | 13729m | -5.9m/s | -58.1°C | 2.5% | 154hPa | 2.6V | 00:00:00 | 00:00:00 | 00:00:00 | |
| DL1XH-15 | 2026-09-06 00:59:24 | 53.69770 | 11.44318 | 124° | 135km/h | 13754m | -6.2m/s | -57.9°C | 6% | 153.4hPa | 2.6V | 08:04:32 | 02:39:30 | 00:00:00 | |
| DF8AY | 2026-09-06 00:59:21 | 53.69770 | 11.44318 | 125° | 135km/h | 13754m | -6.2m/s | -57.9°C | 2.3% | 153.4hPa | 2.6V | 08:05:05 | 02:39:30 | 00:00:00 | |
| DL1XH-west | 2026-09-06 00:59:20 | 53.69790 | 11.44269 | 126° | 142km/h | 13761m | -6.6m/s | -57.9°C | 2.3% | 153.2hPa | 2.6V | 08:05:05 | 02:39:29 | 00:00:00 | |
| DL1XH1-15 | 2026-09-06 00:59:19 | 53.69834 | 11.44171 | 129° | 148km/h | 13773m | -6.3m/s | -57.9°C | 6% | 152.9hPa | 2.5V | 08:04:35 | 02:39:27 | 00:00:00 | |
| AA1-15 | 2026-09-06 00:59:19 | 53.69811 | 11.44220 | 127° | 146km/h | 13767m | -6.4m/s | -57.9°C | 2.4% | 153hPa | 2.5V | 08:05:05 | 02:39:28 | 00:00:00 | |
| DO2SHX-10 | 2026-09-06 00:59:18 | 53.69834 | 11.44171 | 130° | 148km/h | 13773m | -6.3m/s | -57.8°C | 6.0% | 152.9hPa | 2.5V | 00:00:00 | 02:39:27 | 00:00:00 | |
| AM1SDL-15 | 2026-09-06 00:59:17 | 53.69858 | 11.44123 | 132° | 131km/h | 13780m | -6.3m/s | -57.7°C | 5.9% | 152.7hPa | 2.5V | 00:00:00 | 02:39:26 | 00:00:00 | |
| DO2SHX-10 | 2026-09-06 00:59:15 | 53.69909 | 11.44031 | 135° | 141km/h | 13793m | -6.6m/s | -57.6°C | 5.8% | 152.4hPa | 2.5V | 00:00:00 | 02:39:24 | 00:00:00 | |
| DL1XH-15 | 2026-09-06 00:59:14 | 53.70007 | 11.43870 | 135° | 124km/h | 13817m | -6.3m/s | -57.8°C | 5.8% | 151.8hPa | 2.5V | 08:04:42 | 02:39:20 | 00:00:00 | |
| DM0DOS-11 | 2026-09-06 00:59:12 | 53.70086 | 11.43716 | 126° | 120km/h | 13842m | -6.6m/s | -57.9°C | 5.9% | 151.2hPa | 2.5V | 08:04:46 | 02:39:16 | 00:00:00 | |
| DF8AY | 2026-09-06 00:59:11 | 53.70007 | 11.43870 | 135° | 124km/h | 13817m | -6.3m/s | -57.8°C | 2.2% | 151.8hPa | 2.5V | 08:05:05 | 02:39:20 | 00:00:00 | |
| DB0DAN | 2026-09-06 00:59:10 | 53.70029 | 11.43833 | 133° | 115km/h | 13824m | -5.9m/s | -57.8°C | 2.4% | 151.66hPa | 2.6V | 00:00:00 | 00:00:00 | 00:00:00 | |
| GOEST3-10 | 2026-09-06 00:59:10 | 53.70029 | 11.43832 | 134° | 120km/h | 13824m | -5.8m/s | -57.7°C | 5.9% | 151.6hPa | 2.5V | 00:00:00 | 02:39:19 | 00:00:00 | |
| DL1XH1-15 | 2026-09-06 00:59:09 | 53.70068 | 11.43756 | 128° | 119km/h | 13836m | -6.5m/s | -57.9°C | 5.9% | 151.4hPa | 2.5V | 08:04:45 | 02:39:17 | 00:00:00 | |
| DL1XH-west | 2026-09-06 00:59:09 | 53.70049 | 11.43795 | 131° | 119km/h | 13830m | -6.2m/s | -57.8°C | 2.1% | 151.5hPa | 2.6V | 08:05:05 | 02:39:18 | 00:00:00 | |
| AA1-15 | 2026-09-06 00:59:08 | 53.70068 | 11.43756 | 129° | 119km/h | 13836m | -6.5m/s | -57.9°C | 2.2% | 151.4hPa | 2.5V | 08:05:05 | 02:39:17 | 00:00:00 | |
| DO2SHX-10 | 2026-09-06 00:59:06 | 53.70104 | 11.43674 | 125° | 126km/h | 13849m | -6.6m/s | -57.8°C | 5.9% | 151.0hPa | 2.5V | 00:00:00 | 02:39:15 | 00:00:00 | |
| SMARD9-15 | 2026-09-06 00:59:05 | 53.70139 | 11.43585 | 123° | 128km/h | 13863m | -6.5m/s | -57.9°C | 2.5% | 150.7hPa | 2.5V | 00:00:00 | 00:00:00 | 00:00:00 | |
| DL1XH-15 | 2026-09-06 00:59:04 | 53.70199 | 11.43445 | 128° | 139km/h | 13882m | -6.3m/s | -57.8°C | 6.1% | 150.3hPa | 2.5V | 08:04:52 | 02:39:10 | 00:00:00 | |
| SONCRA | 2026-09-06 00:59:03 | 53.70178 | 11.43492 | 126° | 137km/h | 13875m | -6.4m/s | -57.9°C | 2.5% | 150.4hPa | 2.6V | 00:00:00 | 00:00:00 | 00:00:00 | |
| DM0DOS-11 | 2026-09-06 00:59:02 | 53.70293 | 11.43267 | 134° | 139km/h | 13907m | -6.5m/s | -57.9°C | 6% | 149.7hPa | 2.6V | 08:04:56 | 02:39:06 | 00:00:00 | |
| DF8AY | 2026-09-06 00:59:00 | 53.70222 | 11.43399 | 130° | 141km/h | 13888m | -5.9m/s | -57.8°C | 2.2% | 150.1hPa | 2.5V | 08:05:05 | 02:39:09 | 00:00:00 | |
| DO2SHX-10 | 2026-09-06 00:59:00 | 53.70221 | 11.43399 | 131° | 141km/h | 13888m | -5.9m/s | -57.8°C | 6.0% | 150.1hPa | 2.6V | 00:00:00 | 02:39:09 | 00:00:00 | |
| DL1XH1-15 | 2026-09-06 00:58:59 | 53.70269 | 11.43310 | 133° | 139km/h | 13900m | -6.8m/s | -57.8°C | 6% | 149.8hPa | 2.6V | 08:04:55 | 02:39:07 | 00:00:00 | |
| DL1XH-west | 2026-09-06 00:58:58 | 53.70269 | 11.43310 | 133° | 139km/h | 13900m | -6.8m/s | -57.8°C | 2.1% | 149.8hPa | 2.6V | 08:05:05 | 02:39:07 | 00:00:00 | |
| AA1-15 | 2026-09-06 00:58:57 | 53.70293 | 11.43267 | 134° | 139km/h | 13907m | -6.5m/s | -57.9°C | 2.1% | 149.7hPa | 2.6V | 08:05:05 | 02:39:06 | 00:00:00 | |
| DO2SHX-10 | 2026-09-06 00:58:57 | 53.70293 | 11.43267 | 135° | 137km/h | 13907m | -6.5m/s | -57.8°C | 6.0% | 149.6hPa | 2.5V | 00:00:00 | 02:39:06 | 00:00:00 | |
| DB0DAN | 2026-09-06 00:58:55 | 53.70341 | 11.43185 | 135° | 128km/h | 13920m | -6.2m/s | -57.8°C | 2.4% | 149.36hPa | 2.5V | 00:00:00 | 00:00:00 | 00:00:00 | |
| S3001 | 2026-09-06 00:58:55 | 53.70341 | 11.43185 | 135° | 133km/h | 13920m | -6.2m/s | -57.8°C | 2.4% | 149.4hPa | 2.5V | 00:00:00 | 00:00:00 | 00:00:00 | |
| DL4BBY-15 | 2026-09-06 00:58:54 | 53.70366 | 11.43146 | 137° | 119km/h | 13927m | -6.2m/s | -58.4°C | 0% | 0hPa | 2.5V | 00:00:00 | 00:00:00 | 00:00:00 | |
| DL1XH-15 | 2026-09-06 00:58:52 | 53.70435 | 11.43034 | 136° | 122km/h | 13945m | -6.3m/s | -57.2°C | 5.7% | 148.8hPa | 2.5V | 08:05:02 | 02:39:00 | 00:00:00 | |
| DM0DOS-11 | 2026-09-06 00:58:52 | 53.70519 | 11.42894 | 133° | 111km/h | 13971m | -6.8m/s | -57°C | 5.5% | 148.1hPa | 2.6V | 08:05:06 | 02:38:56 | 00:00:00 | |
| DF8AY | 2026-09-06 00:58:49 | 53.70479 | 11.42963 | 135° | 115km/h | 13958m | -6.7m/s | -57.1°C | 2% | 148.5hPa | 2.5V | 08:05:05 | 02:38:58 | 00:00:00 | |
| DL1XH1-15 | 2026-09-06 00:58:49 | 53.70499 | 11.42929 | 134° | 113km/h | 13964m | -6.6m/s | -57°C | 5.6% | 148.3hPa | 2.5V | 08:05:05 | 02:38:57 | 00:00:00 | |
| DL1XH-west | 2026-09-06 00:58:48 | 53.70499 | 11.42929 | 135° | 113km/h | 13964m | -6.6m/s | -57°C | 1.9% | 148.3hPa | 2.5V | 08:05:05 | 02:38:57 | 00:00:00 | |
| AA1-15 | 2026-09-06 00:58:47 | 53.70519 | 11.42894 | 134° | 111km/h | 13971m | -6.8m/s | -57°C | 1.9% | 148.1hPa | 2.6V | 08:05:56 | 02:38:56 | 00:00:00 | |
| DL1XH-15 | 2026-09-06 00:58:46 | 53.70631 | 11.42666 | 127° | 126km/h | 14011m | -6.3m/s | -57°C | 5.7% | 147.2hPa | 2.6V | 08:05:12 | 02:38:50 | 00:00:00 | |
| DO2SHX-10 | 2026-09-06 00:58:45 | 53.70557 | 11.42823 | 131° | 115km/h | 13985m | -6.8m/s | -57.0°C | 5.5% | 147.8hPa | 2.5V | 00:00:00 | 02:38:54 | 00:00:00 | |
| SONDE2-11 | 2026-09-06 00:58:44 | 53.70593 | 11.42748 | 128° | 117km/h | 13998m | -6.6m/s | -57.0°C | 2.2% | 147.5hPa | 2.5V | 00:00:00 | 00:00:00 | 00:00:00 | |
| DC4HF-4 | 2026-09-06 00:58:43 | 53.70593 | 11.42748 | 128° | 117km/h | 13998m | -6.6m/s | -57.0°C | 2.2% | 147.5hPa | 2.5V | 00:00:00 | 00:00:00 | 00:00:00 | |
| DM0DOS-11 | 2026-09-06 00:58:42 | 53.70717 | 11.42498 | 134° | 133km/h | 14037m | -6.5m/s | -56.8°C | 5.6% | 146.6hPa | 2.5V | 08:05:16 | 02:38:46 | 00:00:00 | |
| DO2SHX-10 | 2026-09-06 00:58:42 | 53.70611 | 11.42708 | 128° | 126km/h | 14005m | -6.2m/s | -57.0°C | 5.7% | 147.3hPa | 2.5V | 00:00:00 | 02:38:51 | 00:00:00 | |
| DB0DAN | 2026-09-06 00:58:40 | 53.70651 | 11.42624 | 129° | 124km/h | 14017m | -6.5m/s | -57°C | 2.3% | 147.05hPa | 2.5V | 00:00:00 | 00:00:00 | 00:00:00 | |
| DL1XH1-15 | 2026-09-06 00:58:39 | 53.70694 | 11.42539 | 132° | 133km/h | 14030m | -6.6m/s | -56.8°C | 5.6% | 146.8hPa | 2.5V | 08:05:15 | 02:38:47 | 00:00:00 | |
| DF8AY | 2026-09-06 00:58:38 | 53.70694 | 11.42539 | 133° | 133km/h | 14030m | -6.6m/s | -56.9°C | 2% | 146.8hPa | 2.5V | 08:05:56 | 02:38:47 | 00:00:00 | |
| DL1XH-west | 2026-09-06 00:58:37 | 53.70717 | 11.42498 | 135° | 133km/h | 14037m | -6.5m/s | -56.8°C | 1.9% | 146.6hPa | 2.5V | 08:05:56 | 02:38:46 | 00:00:00 | |
| AA1-15 | 2026-09-06 00:58:36 | 53.70741 | 11.42459 | 137° | 131km/h | 14043m | -6.5m/s | -56.6°C | 1.8% | 146.5hPa | 2.6V | 08:05:56 | 02:38:45 | 00:00:00 | |
| DO2SHX-10 | 2026-09-06 00:58:36 | 53.70741 | 11.42459 | 137° | 128km/h | 14043m | -6.5m/s | -56.6°C | 5.5% | 146.4hPa | 2.6V | 00:00:00 | 02:38:45 | 00:00:00 | |
| SMARD9-15 | 2026-09-06 00:58:34 | 53.70814 | 11.42353 | 140° | 120km/h | 14063m | -6.7m/s | -56.5°C | 2.1% | 146.0hPa | 2.5V | 00:00:00 | 00:00:00 | 00:00:00 | |
| DO2SHX-10 | 2026-09-06 00:58:33 | 53.70814 | 11.42353 | 141° | 119km/h | 14063m | -6.6m/s | -56.4°C | 5.4% | 145.9hPa | 2.5V | 00:00:00 | 02:38:42 | 00:00:00 | |
| DM0DOS-11 | 2026-09-06 00:58:32 | 53.70940 | 11.42165 | 135° | 104km/h | 14103m | -6.9m/s | -56.3°C | 5.3% | 145.1hPa | 2.5V | 08:05:26 | 02:38:36 | 00:00:00 | |
| DJ2DS-15 | 2026-09-06 00:58:32 | 53.70837 | 11.42320 | 141° | 111km/h | 14070m | -6.7m/s | -56.4°C | 5.4% | 145.8hPa | 2.5V | 00:00:00 | 02:38:41 | 00:00:00 | |
| DL1XH1-15 | 2026-09-06 00:58:31 | 53.70921 | 11.42196 | 136° | 106km/h | 14096m | -6.6m/s | -56.4°C | 5.3% | 145.2hPa | 2.5V | 08:05:25 | 02:38:37 | 00:00:00 | |
| DF8AY | 2026-09-06 00:58:27 | 53.70941 | 11.42165 | 135° | 104km/h | 14103m | -6.9m/s | -56.3°C | 1.7% | 145.1hPa | 2.5V | 08:05:56 | 02:38:36 | 00:00:00 | |
| AA1-15 | 2026-09-06 00:58:26 | 53.70959 | 11.42133 | 134° | 104km/h | 14109m | -6.4m/s | -56.3°C | 1.7% | 144.9hPa | 2.5V | 08:05:56 | 02:38:35 | 00:00:00 | |
| DB0DAN | 2026-09-06 00:58:25 | 53.70977 | 11.42101 | 133° | 99km/h | 14116m | -6.5m/s | -56.3°C | 2% | 144.79hPa | 2.6V | 00:00:00 | 00:00:00 | 00:00:00 | |
| DO2SHX-10 | 2026-09-06 00:58:24 | 53.70995 | 11.42069 | 132° | 102km/h | 14123m | -6.5m/s | -56.2°C | 5.2% | 144.6hPa | 2.5V | 00:00:00 | 02:38:33 | 00:00:00 | |
| DL1XH-15 | 2026-09-06 00:58:22 | 53.71044 | 11.41968 | 127° | 104km/h | 14142m | -6.8m/s | -56.2°C | 5.2% | 144.2hPa | 2.5V | 08:05:32 | 02:38:30 | 00:00:00 | |
| DM0DOS-11 | 2026-09-06 00:58:22 | 53.71111 | 11.41816 | 127° | 119km/h | 14170m | -6.8m/s | -56.1°C | 5.2% | 143.5hPa | 2.5V | 08:05:36 | 02:38:26 | 00:00:00 | |
| DO2SHX-10 | 2026-09-06 00:58:21 | 53.71044 | 11.41968 | 128° | 108km/h | 14143m | -6.7m/s | -56.1°C | 5.2% | 144.1hPa | 2.5V | 00:00:00 | 02:38:30 | 00:00:00 | |
| DL1XH1-15 | 2026-09-06 00:58:19 | 53.71093 | 11.41856 | 126° | 113km/h | 14163m | -7.1m/s | -56.1°C | 5.1% | 143.7hPa | 2.5V | 08:05:35 | 02:38:27 | 00:00:00 | |
| DF8AY | 2026-09-06 00:58:17 | 53.71111 | 11.41816 | 127° | 119km/h | 14170m | -6.8m/s | -56.1°C | 1.6% | 143.5hPa | 2.5V | 08:05:56 | 02:38:26 | 00:00:00 | |
| DL1XH-15 | 2026-09-06 00:58:16 | 53.71240 | 11.41579 | 138° | 124km/h | 14210m | -6.9m/s | -56.1°C | 5.1% | 142.6hPa | 2.5V | 08:05:42 | 02:38:20 | 00:00:00 | |
| DL1XH-west | 2026-09-06 00:58:15 | 53.71150 | 11.41734 | 131° | 128km/h | 14183m | -6.8m/s | -56.1°C | 1.6% | 143.2hPa | 2.5V | 08:05:56 | 02:38:24 | 00:00:00 | |
| DO2SHX-10 | 2026-09-06 00:58:15 | 53.71149 | 11.41734 | 131° | 128km/h | 14183m | -6.8m/s | -56.1°C | 5.1% | 143.2hPa | 2.6V | 00:00:00 | 02:38:24 | 00:00:00 | |
| DL1XH1-15 | 2026-09-06 00:58:13 | 53.71308 | 11.41481 | 139° | 110km/h | 14231m | -7.3m/s | -56.1°C | 5% | 142.2hPa | 2.6V | 08:05:45 | 02:38:17 | 00:00:00 | |
| SONDE2-11 | 2026-09-06 00:58:13 | 53.71217 | 11.41615 | 136° | 126km/h | 14203m | -7.0m/s | -56.1°C | 1.9% | 142.7hPa | 2.5V | 00:00:00 | 00:00:00 | 00:00:00 | |
| DM0DOS-11 | 2026-09-06 00:58:12 | 53.71328 | 11.41451 | 138° | 106km/h | 14238m | -6.6m/s | -56.1°C | 5% | 142hPa | 2.5V | 08:05:46 | 02:38:16 | 00:00:00 | |
| DO2SHX-10 | 2026-09-06 00:58:12 | 53.71217 | 11.41615 | 137° | 124km/h | 14203m | -7.0m/s | -56.1°C | 5.1% | 142.7hPa | 2.5V | 00:00:00 | 02:38:21 | 00:00:00 | |
| DB0DAN | 2026-09-06 00:58:10 | 53.71264 | 11.41545 | 139° | 115km/h | 14217m | -6.9m/s | -56.1°C | 1.9% | 142.49hPa | 2.5V | 00:00:00 | 00:00:00 | 00:00:00 | |
| DF8AY | 2026-09-06 00:58:06 | 53.71347 | 11.41421 | 136° | 100km/h | 14245m | -6.6m/s | -56.2°C | 1.4% | 141.8hPa | 2.5V | 08:05:56 | 02:38:15 | 00:00:00 | |
| DL1XH-west | 2026-09-06 00:58:04 | 53.71382 | 11.41362 | 132° | 97km/h | 14258m | -7.6m/s | -56.3°C | 1.4% | 141.5hPa | 2.5V | 08:05:56 | 02:38:13 | 00:00:00 | |
| SMARD9-15 | 2026-09-06 00:58:03 | 53.71413 | 11.41298 | 127° | 97km/h | 14273m | -7.2m/s | -56.3°C | 1.9% | 141.3hPa | 2.6V | 00:00:00 | 00:00:00 | 00:00:00 | |
| DM0DOS-11 | 2026-09-06 00:58:01 | 53.71495 | 11.41113 | 128° | 119km/h | 14307m | -6.7m/s | -56.4°C | 5.1% | 140.5hPa | 2.6V | 08:05:56 | 02:38:06 | 00:00:00 | |
| DL1XH1-15 | 2026-09-06 00:58:01 | 53.71476 | 11.41153 | 126° | 115km/h | 14300m | -6.5m/s | -56.4°C | 5.1% | 140.6hPa | 2.6V | 08:05:55 | 02:38:07 | 00:00:00 | |
| DF8AY | 2026-09-06 00:57:56 | 53.71514 | 11.41074 | 131° | 120km/h | 14313m | -6.4m/s | -56.4°C | 1.5% | 140.3hPa | 2.5V | 08:06:47 | 02:38:05 | 00:00:00 | |
| DB0DAN | 2026-09-06 00:57:55 | 53.71534 | 11.41035 | 132° | 117km/h | 14320m | -6.6m/s | -56.4°C | 1.9% | 140.21hPa | 2.5V | 00:00:00 | 00:00:00 | 00:00:00 | |
| DL1XH-west | 2026-09-06 00:57:54 | 53.71556 | 11.40997 | 134° | 122km/h | 14326m | -6.6m/s | -56.4°C | 1.4% | 140.1hPa | 2.5V | 08:06:47 | 02:38:03 | 00:00:00 | |
| AA1-15 | 2026-09-06 00:57:53 | 53.71578 | 11.40960 | 135° | 122km/h | 14333m | -6.7m/s | -56.3°C | 1.4% | 139.9hPa | 2.5V | 08:06:47 | 02:38:02 | 00:00:00 | |
| S3001 | 2026-09-06 00:57:53 | 53.71578 | 11.40960 | 135° | 122km/h | 14333m | -6.7m/s | -56.3°C | 1.9% | 139.9hPa | 2.6V | 00:00:00 | 00:00:00 | 00:00:00 | |
| DJ2DS-15 | 2026-09-06 00:57:52 | 53.71600 | 11.40924 | 137° | 104km/h | 14340m | -7.1m/s | -56.2°C | 5.0% | 139.7hPa | 2.6V | 00:00:00 | 02:38:01 | 00:00:00 | |
| DO2SHX-10 | 2026-09-06 00:57:51 | 53.71622 | 11.40888 | 137° | 117km/h | 14347m | -7.0m/s | -56.2°C | 5.0% | 139.5hPa | 2.6V | 00:00:00 | 02:38:00 | 00:00:00 | |
| DM0DOS-11 | 2026-09-06 00:57:50 | 53.71706 | 11.40759 | 138° | 104km/h | 14374m | -6.5m/s | -56.2°C | 5% | 139hPa | 2.6V | 08:06:06 | 02:37:56 | 00:00:00 | |
| DL1XH1-15 | 2026-09-06 00:57:49 | 53.71687 | 11.40789 | 138° | 110km/h | 14368m | -6.5m/s | -56.2°C | 5% | 139.1hPa | 2.5V | 08:06:05 | 02:37:57 | 00:00:00 | |
| DF8AY | 2026-09-06 00:57:45 | 53.71744 | 11.40701 | 138° | 99km/h | 14387m | -7.1m/s | -56.1°C | 1.3% | 138.7hPa | 2.5V | 08:06:47 | 02:37:54 | 00:00:00 | |
| DL1XH-west | 2026-09-06 00:57:44 | 53.71763 | 11.40674 | 138° | 97km/h | 14394m | -7.3m/s | -56.1°C | 1.3% | 138.6hPa | 2.5V | 08:06:47 | 02:37:53 | 00:00:00 | |
| DL1XH1-15 | 2026-09-06 00:57:43 | 53.71859 | 11.40500 | 126° | 97km/h | 14438m | -7.2m/s | -56.1°C | 5.1% | 137.6hPa | 2.5V | 08:06:15 | 02:37:47 | 00:00:00 | |
| AA1-15 | 2026-09-06 00:57:43 | 53.71780 | 11.40646 | 137° | 95km/h | 14401m | -7.3m/s | -56.1°C | 1.3% | 138.4hPa | 2.5V | 08:06:47 | 02:37:52 | 00:00:00 | |
| DL1XH-15 | 2026-09-06 00:57:42 | 53.71814 | 11.40591 | 133° | 91km/h | 14416m | -7.5m/s | -56.1°C | 4.9% | 138.1hPa | 2.6V | 08:06:12 | 02:37:50 | 00:00:00 | |
| DO2SHX-10 | 2026-09-06 00:57:42 | 53.71797 | 11.40618 | 136° | 91km/h | 14409m | -7.4m/s | -56.1°C | 4.9% | 138.2hPa | 2.5V | 00:00:00 | 02:37:51 | 00:00:00 | |
| DB0DAN | 2026-09-06 00:57:40 | 53.71829 | 11.40562 | 131° | 88km/h | 14423m | -7.6m/s | -56.2°C | 1.8% | 137.88hPa | 2.6V | 00:00:00 | 00:00:00 | 00:00:00 | |
| DO2SHX-10 | 2026-09-06 00:57:39 | 53.71844 | 11.40532 | 129° | 97km/h | 14431m | -7.5m/s | -56.1°C | 5.0% | 137.7hPa | 2.5V | 00:00:00 | 02:37:48 | 00:00:00 | |
| DM0DOS-11 | 2026-09-06 00:57:38 | 53.71873 | 11.40466 | 125° | 100km/h | 14445m | -6.6m/s | -56.1°C | 5% | 137.4hPa | 2.5V | 08:06:16 | 02:37:46 | 00:00:00 | |
| DF8AY | 2026-09-06 00:57:35 | 53.71904 | 11.40391 | 125° | 113km/h | 14458m | -6.6m/s | -56.1°C | 1.4% | 137.2hPa | 2.6V | 08:06:47 | 02:37:44 | 00:00:00 | |
| DL1XH-west | 2026-09-06 00:57:33 | 53.71938 | 11.40310 | 126° | 120km/h | 14472m | -7.1m/s | -56.1°C | 1.4% | 136.9hPa | 2.5V | 08:06:47 | 02:37:42 | 00:00:00 | |
| DL1XH-15 | 2026-09-06 00:57:32 | 53.71976 | 11.40229 | 128° | 120km/h | 14486m | -7.3m/s | -56.1°C | 5% | 136.6hPa | 2.5V | 08:06:22 | 02:37:40 | 00:00:00 | |
| DM0DOS-11 | 2026-09-06 00:57:32 | 53.72053 | 11.40080 | 132° | 106km/h | 14513m | -6.8m/s | -56.2°C | 5.1% | 135.9hPa | 2.5V | 08:06:26 | 02:37:36 | 00:00:00 | |
| SMARD9-15 | 2026-09-06 00:57:32 | 53.71976 | 11.40229 | 128° | 120km/h | 14486m | -7.3m/s | -56.1°C | 1.8% | 136.6hPa | 2.6V | 00:00:00 | 00:00:00 | 00:00:00 | |
| DC4HF-4 | 2026-09-06 00:57:31 | 53.71976 | 11.40229 | 128° | 120km/h | 14486m | -7.3m/s | -56.1°C | 1.8% | 136.6hPa | 2.6V | 00:00:00 | 00:00:00 | 00:00:00 | |
| DO2SHX-10 | 2026-09-06 00:57:30 | 53.71995 | 11.40189 | 131° | 117km/h | 14493m | -6.8m/s | -56.1°C | 5.1% | 136.3hPa | 2.6V | 00:00:00 | 02:37:39 | 00:00:00 | |
| EDDB2-12 | 2026-09-06 00:57:29 | 53.72015 | 11.40151 | 131° | 117km/h | 14500m | -6.7m/s | -56.1°C | 1.9% | 136.3hPa | 2.6V | 00:00:00 | 00:00:00 | 00:00:00 | |
| DO2SHX-10 | 2026-09-06 00:57:27 | 53.72053 | 11.40080 | 133° | 102km/h | 14513m | -6.8m/s | -56.1°C | 5.1% | 135.9hPa | 2.6V | 00:00:00 | 02:37:36 | 00:00:00 | |
| DB0DAN | 2026-09-06 00:57:25 | 53.72087 | 11.40014 | 129° | 95km/h | 14526m | -7m/s | -56.1°C | 1.9% | 135.69hPa | 2.6V | 00:00:00 | 00:00:00 | 00:00:00 | |
| DF8AY | 2026-09-06 00:57:24 | 53.72102 | 11.39981 | 126° | 97km/h | 14533m | -6.6m/s | -56.1°C | 1.5% | 135.6hPa | 2.6V | 08:06:47 | 02:37:33 | 00:00:00 | |
| DL1XH-west | 2026-09-06 00:57:23 | 53.72117 | 11.39946 | 123° | 100km/h | 14540m | -7.2m/s | -56.1°C | 1.4% | 135.4hPa | 2.5V | 08:06:47 | 02:37:32 | 00:00:00 | |
| DL1XH-15 | 2026-09-06 00:57:22 | 53.72145 | 11.39870 | 122° | 111km/h | 14554m | -7.3m/s | -56.2°C | 5% | 135.1hPa | 2.5V | 08:06:32 | 02:37:30 | 00:00:00 | |
| DB0UT-7 | 2026-09-06 00:57:22 | 53.72130 | 11.39909 | 122° | 100km/h | 14547m | -7.1m/s | -56.1°C | 5.0% | 135.2hPa | 2.5V | 00:00:00 | 02:37:31 | 00:00:00 | |
| DO2SHX-10 | 2026-09-06 00:57:21 | 53.72145 | 11.39870 | 123° | 117km/h | 14555m | -7.3m/s | -56.2°C | 5.0% | 135.1hPa | 2.6V | 00:00:00 | 02:37:30 | 00:00:00 | |
| DL1XH1-15 | 2026-09-06 00:57:19 | 53.72198 | 11.39746 | 128° | 124km/h | 14576m | -7m/s | -56.1°C | 5% | 134.7hPa | 2.6V | 08:06:35 | 02:37:27 | 00:00:00 | |
| DF8AY | 2026-09-06 00:57:14 | 53.72278 | 11.39601 | 135° | 108km/h | 14605m | -7.6m/s | -56.1°C | 1.5% | 134.1hPa | 2.6V | 08:06:47 | 02:37:23 | 00:00:00 | |
| DL1XH-15 | 2026-09-06 00:57:12 | 53.72330 | 11.39510 | 129° | 91km/h | 14626m | -6.8m/s | -56°C | 5% | 133.6hPa | 2.5V | 08:06:42 | 02:37:20 | 00:00:00 | |
| DL1XH-west | 2026-09-06 00:57:12 | 53.72314 | 11.39540 | 132° | 95km/h | 14619m | -6.6m/s | -56°C | 1.5% | 133.8hPa | 2.5V | 08:06:47 | 02:37:21 | 00:00:00 | |
| DB0DAN | 2026-09-06 00:57:10 | 53.72344 | 11.39479 | 125° | 86km/h | 14633m | -6.9m/s | -56.1°C | 1.9% | 133.45hPa | 2.5V | 00:00:00 | 00:00:00 | 00:00:00 | |
| DF8AY | 2026-09-06 00:57:03 | 53.72440 | 11.39220 | 125° | 119km/h | 14683m | -7m/s | -56.3°C | 1.5% | 132.4hPa | 2.6V | 08:07:38 | 02:37:12 | 00:00:00 | |
| DO2SHX-10 | 2026-09-06 00:57:03 | 53.72440 | 11.39219 | 126° | 117km/h | 14683m | -6.9m/s | -56.2°C | 5.1% | 132.4hPa | 2.5V | 00:00:00 | 02:37:12 | 00:00:00 | |
| DL1XH-15 | 2026-09-06 00:57:02 | 53.72477 | 11.39141 | 131° | 117km/h | 14697m | -7.5m/s | -56.4°C | 5.2% | 132.1hPa | 2.5V | 08:06:52 | 02:37:10 | 00:00:00 | |
| DL1XH-west | 2026-09-06 00:57:01 | 53.72477 | 11.39141 | 131° | 117km/h | 14697m | -7.5m/s | -56.4°C | 1.6% | 132.1hPa | 2.5V | 08:07:38 | 02:37:10 | 00:00:00 | |
| SMARD9-15 | 2026-09-06 00:57:00 | 53.72497 | 11.39105 | 133° | 111km/h | 14705m | -6.9m/s | -56.4°C | 1.9% | 132.0hPa | 2.6V | 00:00:00 | 00:00:00 | 00:00:00 | |
| EDDB2-12 | 2026-09-06 00:56:58 | 53.72535 | 11.39040 | 136° | 100km/h | 14718m | -7.3m/s | -56.5°C | 2.0% | 131.7hPa | 2.6V | 00:00:00 | 00:00:00 | 00:00:00 | |
| DO2SHX-10 | 2026-09-06 00:56:57 | 53.72553 | 11.39010 | 135° | 91km/h | 14726m | -7.0m/s | -56.4°C | 5.2% | 131.5hPa | 2.6V | 00:00:00 | 02:37:06 | 00:00:00 | |
| DB0DAN | 2026-09-06 00:56:55 | 53.72583 | 11.38952 | 127° | 84km/h | 14740m | -7m/s | -56.3°C | 2% | 131.22hPa | 2.5V | 00:00:00 | 00:00:00 | 00:00:00 | |
| DL1XH-15 | 2026-09-06 00:56:52 | 53.72633 | 11.38813 | 120° | 108km/h | 14769m | -7m/s | -56.4°C | 5.1% | 130.6hPa | 2.6V | 08:07:02 | 02:37:00 | 00:00:00 | |
| DF8AY | 2026-09-06 00:56:52 | 53.72620 | 11.38852 | 119° | 102km/h | 14762m | -7.4m/s | -56.3°C | 1.7% | 130.8hPa | 2.6V | 08:07:38 | 02:37:01 | 00:00:00 | |
| DL1XH-west | 2026-09-06 00:56:51 | 53.72634 | 11.38813 | 120° | 108km/h | 14769m | -7m/s | -56.4°C | 1.6% | 130.6hPa | 2.6V | 08:07:38 | 02:37:00 | 00:00:00 | |
| DM0DOS-11 | 2026-09-06 00:56:50 | 53.72700 | 11.38651 | 129° | 119km/h | 14798m | -7.6m/s | -56.5°C | 5.2% | 130.1hPa | 2.5V | 08:07:06 | 02:36:56 | 00:00:00 | |
| D01LWL | 2026-09-06 00:56:45 | 53.72759 | 11.38545 | 137° | 108km/h | 14820m | -7.5m/s | -56.5°C | 1.9% | 129.6hPa | 2.5V | 00:00:00 | 00:00:00 | 00:00:00 | |
| DF8AY | 2026-09-06 00:56:42 | 53.72799 | 11.38489 | 141° | 97km/h | 14835m | -7.6m/s | -56.3°C | 1.5% | 129.3hPa | 2.5V | 08:07:38 | 02:36:51 | 00:00:00 | |
| DL1XH-15 | 2026-09-06 00:56:42 | 53.72817 | 11.38463 | 140° | 91km/h | 14843m | -7.5m/s | -56.4°C | 5.1% | 129.2hPa | 2.6V | 08:07:12 | 02:36:50 | 00:00:00 | |
| DL1XH-west | 2026-09-06 00:56:41 | 53.72817 | 11.38463 | 140° | 91km/h | 14843m | -7.5m/s | -56.4°C | 1.5% | 129.2hPa | 2.6V | 08:07:38 | 02:36:50 | 00:00:00 | |
| DB0DAN | 2026-09-06 00:56:40 | 53.72834 | 11.38439 | 138° | 82km/h | 14850m | -7.5m/s | -56.4°C | 1.9% | 129.05hPa | 2.6V | 00:00:00 | 00:00:00 | 00:00:00 | |
| DL1XH1-15 | 2026-09-06 00:56:39 | 53.72865 | 11.38386 | 131° | 88km/h | 14865m | -7.4m/s | -56.4°C | 5.1% | 128.7hPa | 2.5V | 08:07:15 | 02:36:47 | 00:00:00 | |
| DO2SHX-10 | 2026-09-06 00:56:39 | 53.72849 | 11.38413 | 135° | 89km/h | 14858m | -7.5m/s | -56.4°C | 5.1% | 128.8hPa | 2.5V | 08:07:00 | 02:36:48 | 00:00:00 | |
| DL1XH-15 | 2026-09-06 00:56:37 | 53.72979 | 11.38144 | 130° | 113km/h | 14916m | -7.8m/s | -56.7°C | 5.1% | 127.7hPa | 2.5V | 08:07:22 | 02:36:40 | 00:00:00 | |
| DF8AY | 2026-09-06 00:56:32 | 53.72960 | 11.38181 | 129° | 111km/h | 14908m | -7.9m/s | -56.7°C | 1.5% | 127.9hPa | 2.5V | 08:07:38 | 02:36:41 | 00:00:00 | |
| DJ2DS-15 | 2026-09-06 00:56:32 | 53.72960 | 11.38180 | 129° | 104km/h | 14908m | -7.8m/s | -56.6°C | 5.1% | 127.8hPa | 2.6V | 00:00:00 | 02:36:41 | 00:00:00 | |
| DO2SHX-10 | 2026-09-06 00:56:30 | 53.72997 | 11.38108 | 133° | 111km/h | 14924m | -7.7m/s | -56.7°C | 5.2% | 127.5hPa | 2.6V | 00:00:00 | 02:36:39 | 00:00:00 | |
| AA1-15 | 2026-09-06 00:56:30 | 53.72997 | 11.38108 | 133° | 113km/h | 14924m | -7.7m/s | -56.7°C | 1.6% | 127.5hPa | 2.6V | 08:07:38 | 02:36:39 | 00:00:00 | |
| DL1XH1-15 | 2026-09-06 00:56:29 | 53.73037 | 11.38040 | 137° | 110km/h | 14939m | -7.4m/s | -56.7°C | 5.2% | 127.2hPa | 2.5V | 08:07:25 | 02:36:37 | 00:00:00 | |
| DO2SHX-10 | 2026-09-06 00:56:27 | 53.73058 | 11.38010 | 140° | 97km/h | 14946m | -7.1m/s | -56.7°C | 5.2% | 127.0hPa | 2.5V | 00:00:00 | 02:36:36 | 00:00:00 | |
| DL1XH-15 | 2026-09-06 00:56:26 | 53.73151 | 11.37852 | 124° | 88km/h | 14990m | -7.2m/s | -56.6°C | 5.2% | 126.2hPa | 2.5V | 08:07:32 | 02:36:30 | 00:00:00 | |
| DB0DAN | 2026-09-06 00:56:25 | 53.73095 | 11.37957 | 140° | 86km/h | 14960m | -7.4m/s | -56.7°C | 1.9% | 126.83hPa | 2.5V | 00:00:00 | 00:00:00 | 00:00:00 | |
| DF8AY | 2026-09-06 00:56:21 | 53.73152 | 11.37852 | 125° | 88km/h | 14990m | -7.2m/s | -56.6°C | 1.5% | 126.2hPa | 2.5V | 08:07:38 | 02:36:30 | 00:00:00 | |
| DM0DOS-11 | 2026-09-06 00:56:20 | 53.73210 | 11.37712 | 128° | 110km/h | 15020m | -7.6m/s | -56.7°C | 5.1% | 125.6hPa | 2.5V | 08:07:36 | 02:36:26 | 00:00:00 | |
| AA1-15 | 2026-09-06 00:56:20 | 53.73164 | 11.37820 | 124° | 95km/h | 14998m | -7.4m/s | -56.6°C | 1.5% | 126.1hPa | 2.5V | 08:07:38 | 02:36:29 | 00:00:00 | |
| DO2SHX-10 | 2026-09-06 00:56:20 | 53.73164 | 11.37819 | 124° | 100km/h | 14998m | -7.3m/s | -56.6°C | 5.1% | 126.0hPa | 2.5V | 00:00:00 | 02:36:29 | 00:00:00 | |
| DL1XH1-15 | 2026-09-06 00:56:19 | 53.73193 | 11.37749 | 125° | 108km/h | 15012m | -7.3m/s | -56.6°C | 5.1% | 125.8hPa | 2.6V | 08:07:35 | 02:36:27 | 00:00:00 | |
| DO2SHX-10 | 2026-09-06 00:56:17 | 53.73210 | 11.37712 | 129° | 111km/h | 15020m | -7.6m/s | -56.6°C | 5.1% | 125.5hPa | 2.5V | 00:00:00 | 02:36:26 | 00:00:00 | |
| DL1XH-15 | 2026-09-06 00:56:16 | 53.73320 | 11.37512 | 137° | 97km/h | 15066m | -7.2m/s | -57°C | 5.3% | 124.8hPa | 2.5V | 08:07:42 | 02:36:20 | 00:00:00 | |
| DF8AY | 2026-09-06 00:56:11 | 53.73320 | 11.37512 | 137° | 97km/h | 15066m | -7.2m/s | -57°C | 1.5% | 124.8hPa | 2.5V | 08:08:29 | 02:36:20 | 00:00:00 | |
| DB0DAN | 2026-09-06 00:56:10 | 53.73337 | 11.37484 | 137° | 88km/h | 15073m | -7.4m/s | -57°C | 1.9% | 124.63hPa | 2.5V | 00:00:00 | 00:00:00 | 00:00:00 | |
| DL1XH1-15 | 2026-09-06 00:56:09 | 53.73369 | 11.37433 | 135° | 84km/h | 15089m | -8.1m/s | -56.8°C | 5.2% | 124.3hPa | 2.6V | 08:07:45 | 02:36:17 | 00:00:00 | |
| AA1-15 | 2026-09-06 00:56:09 | 53.73354 | 11.37458 | 137° | 88km/h | 15081m | -7.9m/s | -56.9°C | 1.6% | 124.4hPa | 2.5V | 08:08:29 | 02:36:18 | 00:00:00 | |
| DM0DOS-11 | 2026-09-06 00:56:08 | 53.73384 | 11.37407 | 132° | 82km/h | 15096m | -8m/s | -56.7°C | 5.2% | 124.1hPa | 2.6V | 08:07:46 | 02:36:16 | 00:00:00 | |
| DO2SHX-10 | 2026-09-06 00:56:08 | 53.73369 | 11.37433 | 136° | 82km/h | 15089m | -8.1m/s | -56.8°C | 5.2% | 124.3hPa | 2.5V | 00:00:00 | 02:36:17 | 00:00:00 | |
| DL1XH-15 | 2026-09-06 00:56:06 | 53.73455 | 11.37220 | 120° | 104km/h | 15142m | -7.5m/s | -56.9°C | 5.4% | 123.2hPa | 2.5V | 08:07:52 | 02:36:10 | 00:00:00 | |
| DK7RCA | 2026-09-06 00:56:06 | 53.73397 | 11.37381 | 130° | 80km/h | 15104m | -7.6m/s | -56.7°C | 1.9% | 124.0hPa | 2.6V | 08:08:00 | 00:00:00 | 00:00:00 | |
| DO2SHX-10 | 2026-09-06 00:56:05 | 53.73410 | 11.37354 | 125° | 84km/h | 15112m | -7.7m/s | -56.7°C | 5.2% | 123.8hPa | 2.6V | 00:00:00 | 02:36:14 | 00:00:00 | |
| EDDB2-11 | 2026-09-06 00:56:04 | 53.73432 | 11.37292 | 118° | 89km/h | 15127m | -7.7m/s | -56.8°C | 1.9% | 123.5hPa | 2.6V | 00:00:00 | 00:00:00 | 00:00:00 | |
| DM0DOS-11 | 2026-09-06 00:56:02 | 53.73520 | 11.37073 | 133° | 106km/h | 15172m | -7.7m/s | -56.6°C | 5.2% | 122.7hPa | 2.6V | 08:07:56 | 02:36:06 | 00:00:00 | |
| DF8AY | 2026-09-06 00:56:00 | 53.73469 | 11.37181 | 123° | 110km/h | 15150m | -7.3m/s | -56.9°C | 1.6% | 123.1hPa | 2.5V | 08:08:29 | 02:36:09 | 00:00:00 | |
| DL1XH1-15 | 2026-09-06 00:55:59 | 53.73502 | 11.37107 | 130° | 110km/h | 15164m | -7.5m/s | -56.7°C | 5.3% | 122.8hPa | 2.5V | 08:07:55 | 02:36:07 | 00:00:00 | |
| DL1XH-west | 2026-09-06 00:55:59 | 53.73485 | 11.37143 | 127° | 110km/h | 15157m | -7.3m/s | -56.8°C | 1.5% | 123hPa | 2.5V | 08:08:29 | 02:36:08 | 00:00:00 | |
| AA1-15 | 2026-09-06 00:55:58 | 53.73502 | 11.37107 | 131° | 110km/h | 15164m | -7.5m/s | -56.7°C | 1.5% | 122.8hPa | 2.5V | 08:08:29 | 02:36:07 | 00:00:00 | |
| SONCRA | 2026-09-06 00:55:56 | 53.73539 | 11.37041 | 135° | 100km/h | 15180m | -7.8m/s | -56.6°C | 1.8% | 122.5hPa | 2.5V | 00:00:00 | 00:00:00 | 00:00:00 | |
| DL1XH-15 | 2026-09-06 00:55:56 | 53.73618 | 11.36912 | 131° | 75km/h | 15218m | -7.9m/s | -56.1°C | 5.1% | 121.7hPa | 2.6V | 08:08:02 | 02:36:00 | 00:00:00 | |
| DB0DAN | 2026-09-06 00:55:55 | 53.73557 | 11.37012 | 137° | 91km/h | 15188m | -7.8m/s | -56.5°C | 1.9% | 122.37hPa | 2.5V | 00:00:00 | 00:00:00 | 00:00:00 | |
| DO2SHX-10 | 2026-09-06 00:55:54 | 53.73590 | 11.36960 | 138° | 80km/h | 15203m | -7.3m/s | -56.2°C | 5.1% | 122.0hPa | 2.5V | 00:00:00 | 02:36:02 | 00:00:00 | |
| DJ2DS-15 | 2026-09-06 00:55:52 | 53.73605 | 11.36936 | 136° | 86km/h | 15210m | -7.8m/s | -56.1°C | 5.1% | 121.8hPa | 2.5V | 00:00:00 | 02:36:01 | 00:00:00 | |
| DO2SHX-10 | 2026-09-06 00:55:50 | 53.73630 | 11.36887 | 128° | 78km/h | 15226m | -7.5m/s | -56.0°C | 5.0% | 121.5hPa | 2.5V | 00:00:00 | 02:35:59 | 00:00:00 | |
| DL1XH1-15 | 2026-09-06 00:55:49 | 53.73652 | 11.36830 | 118° | 84km/h | 15241m | -7.3m/s | -56.1°C | 5% | 121.3hPa | 2.5V | 08:08:05 | 02:35:57 | 00:00:00 | |
| DM0DOS-11 | 2026-09-06 00:55:49 | 53.73662 | 11.36798 | 118° | 91km/h | 15248m | -7.3m/s | -56.2°C | 5% | 121.2hPa | 2.5V | 08:08:06 | 02:35:56 | 00:00:00 | |
| DL1XH-west | 2026-09-06 00:55:49 | 53.73641 | 11.36860 | 122° | 78km/h | 15233m | -7.4m/s | -56.1°C | 1.4% | 121.4hPa | 2.5V | 08:08:29 | 02:35:58 | 00:00:00 | |
| AA1-15 | 2026-09-06 00:55:47 | 53.73662 | 11.36798 | 118° | 91km/h | 15248m | -7.3m/s | -56.2°C | 1.3% | 121.2hPa | 2.5V | 08:08:29 | 02:35:56 | 00:00:00 | |
| DO2SHX-10 | 2026-09-06 00:55:47 | 53.73662 | 11.36798 | 119° | 97km/h | 15248m | -7.3m/s | -56.1°C | 5.0% | 121.1hPa | 2.6V | 00:00:00 | 02:35:56 | 00:00:00 | |
| DL1XH-15 | 2026-09-06 00:55:46 | 53.73755 | 11.36597 | 137° | 93km/h | 15294m | -7.8m/s | -55.8°C | 4.8% | 120.3hPa | 2.6V | 08:08:12 | 02:35:50 | 00:00:00 | |
| DL1ZP-14 | 2026-09-06 00:55:45 | 53.73703 | 11.36691 | 127° | 104km/h | 15270m | -7.5m/s | -56.2°C | 1.7% | 120.8hPa | 2.5V | 00:00:00 | 00:00:00 | 00:00:00 | |
| DL4BBY-15 | 2026-09-06 00:55:44 | 53.73703 | 11.36690 | 128° | 93km/h | 15271m | -7.4m/s | -56.8°C | 0% | 0hPa | 2.6V | 00:00:00 | 00:00:00 | 00:00:00 | |
| DC4HF-4 | 2026-09-06 00:55:43 | 53.73720 | 11.36657 | 131° | 102km/h | 15278m | -8.1m/s | -56.2°C | 1.7% | 120.6hPa | 2.6V | 00:00:00 | 00:00:00 | 00:00:00 | |
| D01LWL | 2026-09-06 00:55:42 | 53.73737 | 11.36625 | 135° | 99km/h | 15286m | -7.8m/s | -56.0°C | 1.7% | 120.5hPa | 2.6V | 00:00:00 | 00:00:00 | 00:00:00 | |
| DB0DAN | 2026-09-06 00:55:40 | 53.73772 | 11.36572 | 139° | 82km/h | 15301m | -7.4m/s | -55.7°C | 1.6% | 120.15hPa | 2.6V | 00:00:00 | 00:00:00 | 00:00:00 | |
| DL1XH1-15 | 2026-09-06 00:55:39 | 53.73801 | 11.36526 | 134° | 73km/h | 15316m | -7.6m/s | -55.7°C | 4.7% | 119.9hPa | 2.5V | 08:08:15 | 02:35:47 | 00:00:00 | |
| DM0DOS-11 | 2026-09-06 00:55:39 | 53.73813 | 11.36504 | 129° | 69km/h | 15324m | -7.9m/s | -55.7°C | 4.7% | 119.7hPa | 2.5V | 08:08:16 | 02:35:46 | 00:00:00 | |
| DL1XH-west | 2026-09-06 00:55:39 | 53.73787 | 11.36548 | 138° | 78km/h | 15309m | -7.3m/s | -55.7°C | 1.1% | 120hPa | 2.5V | 08:08:29 | 02:35:48 | 00:00:00 | |
| AA1-15 | 2026-09-06 00:55:37 | 53.73813 | 11.36504 | 130° | 69km/h | 15324m | -7.9m/s | -55.8°C | 1.2% | 119.7hPa | 2.5V | 08:08:29 | 02:35:46 | 00:00:00 | |
| DO2SHX-10 | 2026-09-06 00:55:35 | 53.73834 | 11.36453 | 121° | 93km/h | 15339m | -7.8m/s | -55.8°C | 4.7% | 119.4hPa | 2.6V | 00:00:00 | 02:35:44 | 00:00:00 | |
| DL3AQ-11 | 2026-09-06 00:55:34 | 53.73854 | 11.36390 | 118° | 91km/h | 15354m | -7.4m/s | -55.9°C | 1.7% | 119.2hPa | 2.5V | 00:00:00 | 00:00:00 | 00:00:00 | |
| DL1XH-15 | 2026-09-06 00:55:33 | 53.73880 | 11.36318 | 123° | 106km/h | 15369m | -7.6m/s | -56°C | 4.8% | 118.9hPa | 2.5V | 08:08:22 | 02:35:40 | 00:00:00 | |
| DM0DOS-11 | 2026-09-06 00:55:29 | 53.73947 | 11.36174 | 133° | 106km/h | 15402m | -8m/s | -56.2°C | 4.9% | 118.2hPa | 2.6V | 08:08:26 | 02:35:36 | 00:00:00 | |
| DL1XH-west | 2026-09-06 00:55:29 | 53.73912 | 11.36243 | 129° | 110km/h | 15385m | -8.6m/s | -56.1°C | 1.2% | 118.6hPa | 2.6V | 08:08:29 | 02:35:38 | 00:00:00 | |
| DF8AY | 2026-09-06 00:55:28 | 53.73929 | 11.36208 | 131° | 108km/h | 15394m | -8.5m/s | -56.2°C | 1.2% | 118.4hPa | 2.6V | 08:08:29 | 02:35:37 | 00:00:00 | |
| DL1XH1-15 | 2026-09-06 00:55:28 | 53.73929 | 11.36208 | 131° | 108km/h | 15394m | -8.4m/s | -56.1°C | 4.9% | 118.4hPa | 2.6V | 08:08:25 | 02:35:37 | 00:00:00 | |
| AA1-15 | 2026-09-06 00:55:27 | 53.73947 | 11.36174 | 133° | 106km/h | 15402m | -8m/s | -56.2°C | 1.2% | 118.2hPa | 2.6V | 08:08:29 | 02:35:36 | 00:00:00 | |
| DB0DAN | 2026-09-06 00:55:25 | 53.73983 | 11.36115 | 137° | 86km/h | 15417m | -7.4m/s | -56.3°C | 1.7% | 117.99hPa | 2.5V | 00:00:00 | 00:00:00 | 00:00:00 | |
| DL1XH1-15 | 2026-09-06 00:55:23 | 53.74063 | 11.35925 | 117° | 89km/h | 15472m | -7.6m/s | -56.4°C | 5% | 117hPa | 2.5V | 08:08:35 | 02:35:27 | 00:00:00 | |
| DL1XH-15 | 2026-09-06 00:55:22 | 53.74034 | 11.36016 | 121° | 73km/h | 15447m | -8.3m/s | -56.4°C | 5% | 117.4hPa | 2.6V | 08:08:32 | 02:35:30 | 00:00:00 | |
| DO2SHX-10 | 2026-09-06 00:55:22 | 53.74024 | 11.36041 | 127° | 75km/h | 15440m | -7.5m/s | -56.3°C | 4.9% | 117.5hPa | 2.6V | 00:00:00 | 02:35:31 | 00:00:00 | |
| DK7RCA | 2026-09-06 00:55:20 | 53.74034 | 11.36016 | 123° | 73km/h | 15448m | -8.3m/s | -56.4°C | 1.7% | 117.4hPa | 2.6V | 00:00:00 | 00:00:00 | 00:00:00 | |
| DO2SHX-10 | 2026-09-06 00:55:19 | 53.74053 | 11.35958 | 118° | 89km/h | 15464m | -8.1m/s | -56.4°C | 5.0% | 117.1hPa | 2.6V | 00:00:00 | 02:35:28 | 00:00:00 | |
| DM0DOS-11 | 2026-09-06 00:55:18 | 53.74075 | 11.35891 | 119° | 95km/h | 15479m | -7.3m/s | -56.4°C | 5% | 116.8hPa | 2.6V | 08:08:36 | 02:35:26 | 00:00:00 | |
| DL1XH-west | 2026-09-06 00:55:18 | 53.74064 | 11.35925 | 118° | 89km/h | 15472m | -7.6m/s | -56.4°C | 1.2% | 117hPa | 2.5V | 08:09:20 | 02:35:27 | 00:00:00 | |
| AA1-15 | 2026-09-06 00:55:16 | 53.74088 | 11.35855 | 123° | 100km/h | 15487m | -7.3m/s | -56.4°C | 1.2% | 116.7hPa | 2.6V | 08:09:20 | 02:35:25 | 00:00:00 | |
| DO2SHX-10 | 2026-09-06 00:55:16 | 53.74088 | 11.35855 | 124° | 100km/h | 15487m | -7.2m/s | -56.4°C | 5.0% | 116.7hPa | 2.5V | 00:00:00 | 02:35:25 | 00:00:00 | |
| DL4BBY-15 | 2026-09-06 00:55:14 | 53.74119 | 11.35786 | 133° | 77km/h | 15502m | -7.5m/s | -57.0°C | 0% | 0hPa | 2.5V | 00:00:00 | 00:00:00 | 00:00:00 | |
| DO2SHX-10 | 2026-09-06 00:55:13 | 53.74136 | 11.35756 | 136° | 88km/h | 15509m | -7.8m/s | -56.2°C | 4.9% | 116.3hPa | 2.5V | 08:08:00 | 02:35:22 | 00:00:00 | |
| DM0DOS-11 | 2026-09-06 00:55:12 | 53.74210 | 11.35611 | 115° | 69km/h | 15556m | -8.3m/s | -55.7°C | 4.7% | 115.5hPa | 2.5V | 08:08:46 | 02:35:16 | 00:00:00 | |
| DJ2DS-15 | 2026-09-06 00:55:12 | 53.74153 | 11.35730 | 138° | 84km/h | 15517m | -7.9m/s | -56.1°C | 4.8% | 116.2hPa | 2.5V | 08:08:00 | 02:35:21 | 00:00:00 | |
| DB0DAN | 2026-09-06 00:55:10 | 53.74181 | 11.35683 | 133° | 69km/h | 15533m | -7.7m/s | -55.8°C | 1.5% | 115.9hPa | 2.6V | 00:00:00 | 00:00:00 | 00:00:00 | |
| DO2SHX-10 | 2026-09-06 00:55:10 | 53.74181 | 11.35682 | 133° | 69km/h | 15533m | -7.6m/s | -55.8°C | 4.7% | 115.9hPa | 2.5V | 00:00:00 | 02:35:19 | 00:00:00 | |
| DL1XH1-15 | 2026-09-06 00:55:09 | 53.74202 | 11.35637 | 121° | 66km/h | 15548m | -7.9m/s | -55.7°C | 4.7% | 115.6hPa | 2.5V | 08:08:45 | 02:35:17 | 00:00:00 | |
| DL1XH-west | 2026-09-06 00:55:08 | 53.74202 | 11.35637 | 121° | 66km/h | 15548m | -7.9m/s | -55.7°C | 1% | 115.6hPa | 2.5V | 08:09:20 | 02:35:17 | 00:00:00 | |
| DF8AY | 2026-09-06 00:55:07 | 53.74210 | 11.35611 | 116° | 69km/h | 15556m | -8.4m/s | -55.7°C | 1% | 115.5hPa | 2.5V | 08:09:20 | 02:35:16 | 00:00:00 | |
| AA1-15 | 2026-09-06 00:55:06 | 53.74218 | 11.35584 | 112° | 75km/h | 15565m | -8.3m/s | -55.7°C | 1% | 115.3hPa | 2.6V | 08:09:20 | 02:35:15 | 00:00:00 | |
| DL3AQ-11 | 2026-09-06 00:55:05 | 53.74233 | 11.35519 | 111° | 88km/h | 15580m | -7.2m/s | -55.8°C | 1.5% | 115.0hPa | 2.5V | 00:00:00 | 00:00:00 | 00:00:00 | |
| DO2SHX-10 | 2026-09-06 00:55:04 | 53.74233 | 11.35519 | 112° | 95km/h | 15580m | -7.2m/s | -55.7°C | 4.7% | 115.0hPa | 2.5V | 00:00:00 | 02:35:13 | 00:00:00 | |
| DL1XH-15 | 2026-09-06 00:55:02 | 53.74265 | 11.35407 | 120° | 104km/h | 15602m | -7.8m/s | -55.9°C | 4.7% | 114.6hPa | 2.5V | 08:08:52 | 02:35:10 | 00:00:00 | |
| DM0DOS-11 | 2026-09-06 00:55:02 | 53.74323 | 11.35269 | 129° | 91km/h | 15635m | -7.6m/s | -55.8°C | 4.7% | 114hPa | 2.5V | 08:08:56 | 02:35:06 | 00:00:00 | |
| EDDB2-11 | 2026-09-06 00:55:02 | 53.74265 | 11.35407 | 120° | 102km/h | 15602m | -7.8m/s | -55.9°C | 1.5% | 114.6hPa | 2.5V | 00:00:00 | 00:00:00 | 00:00:00 | |
| DO2SHX-10 | 2026-09-06 00:55:01 | 53.74265 | 11.35407 | 121° | 102km/h | 15603m | -7.8m/s | -55.8°C | 4.7% | 114.6hPa | 2.5V | 00:00:00 | 02:35:10 | 00:00:00 | |
| DL1XH1-15 | 2026-09-06 00:54:59 | 53.74308 | 11.35301 | 127° | 97km/h | 15627m | -8m/s | -55.9°C | 4.7% | 114.2hPa | 2.5V | 08:08:55 | 02:35:07 | 00:00:00 | |
| DF8AY | 2026-09-06 00:54:57 | 53.74323 | 11.35269 | 130° | 91km/h | 15635m | -7.6m/s | -55.9°C | 0.9% | 114hPa | 2.5V | 08:09:20 | 02:35:06 | 00:00:00 | |
| DJ2DS-15 | 2026-09-06 00:54:57 | 53.74337 | 11.35241 | 130° | 82km/h | 15643m | -7.7m/s | -55.7°C | 1.5% | 113.9hPa | 2.6V | 00:00:00 | 00:00:00 | 00:00:00 | |
| SMARD9-15 | 2026-09-06 00:54:56 | 53.74337 | 11.35241 | 130° | 82km/h | 15643m | -7.7m/s | -55.7°C | 1.5% | 113.9hPa | 2.6V | 00:00:00 | 00:00:00 | 00:00:00 | |
| DB0DAN | 2026-09-06 00:54:55 | 53.74350 | 11.35214 | 128° | 73km/h | 15651m | -7.9m/s | -55.6°C | 1.5% | 113.74hPa | 2.6V | 00:00:00 | 00:00:00 | 00:00:00 | |
| AA1-15 | 2026-09-06 00:54:55 | 53.74350 | 11.35214 | 128° | 77km/h | 15651m | -7.9m/s | -55.6°C | 0.9% | 113.7hPa | 2.6V | 08:09:20 | 02:35:04 | 00:00:00 | |
| DL3AQ-11 | 2026-09-06 00:54:54 | 53.74370 | 11.35162 | 116° | 69km/h | 15666m | -7.4m/s | -55.5°C | 1.4% | 113.5hPa | 2.5V | 00:00:00 | 00:00:00 | 00:00:00 | |
| DL1XH-15 | 2026-09-06 00:54:52 | 53.74384 | 11.35104 | 107° | 78km/h | 15680m | -7.5m/s | -55.4°C | 4.5% | 113.2hPa | 2.5V | 08:09:02 | 02:35:00 | 00:00:00 | |
| DM0DOS-11 | 2026-09-06 00:54:52 | 53.74411 | 11.34963 | 111° | 95km/h | 15713m | -8m/s | -55.5°C | 4.5% | 112.6hPa | 2.5V | 08:09:06 | 02:34:56 | 00:00:00 | |
| DO2SHX-10 | 2026-09-06 00:54:52 | 53.74377 | 11.35134 | 111° | 78km/h | 15673m | -7.2m/s | -55.4°C | 4.5% | 113.3hPa | 2.5V | 00:00:00 | 02:35:01 | 00:00:00 | |
| GOEST3-10 | 2026-09-06 00:54:50 | 53.74389 | 11.35071 | 107° | 91km/h | 15688m | -8.3m/s | -55.3°C | 4.5% | 113.1hPa | 2.5V | 00:00:00 | 00:00:00 | 00:00:00 | |
| DL1XH1-15 | 2026-09-06 00:54:49 | 53.74403 | 11.35000 | 108° | 91km/h | 15705m | -8m/s | -55.4°C | 4.5% | 112.8hPa | 2.5V | 08:09:05 | 02:34:57 | 00:00:00 | |
| DL1XH-west | 2026-09-06 00:54:46 | 53.74421 | 11.34925 | 116° | 99km/h | 15721m | -7.5m/s | -55.6°C | 0.8% | 112.5hPa | 2.5V | 08:09:20 | 02:34:55 | 00:00:00 | |
| AA1-15 | 2026-09-06 00:54:44 | 53.74446 | 11.34853 | 125° | 99km/h | 15736m | -7.3m/s | -55.7°C | 0.8% | 112.2hPa | 2.6V | 08:09:20 | 02:34:53 | 00:00:00 | |
| DO2SHX-10 | 2026-09-06 00:54:43 | 53.74461 | 11.34820 | 130° | 89km/h | 15744m | -7.6m/s | -55.7°C | 4.6% | 112.1hPa | 2.5V | 00:00:00 | 02:34:52 | 00:00:00 | |
| DL1XH-15 | 2026-09-06 00:54:41 | 53.74492 | 11.34763 | 134° | 84km/h | 15760m | -8.6m/s | -55.6°C | 4.7% | 111.9hPa | 2.5V | 08:09:12 | 02:34:50 | 00:00:00 | |
| DM0DOS-11 | 2026-09-06 00:54:40 | 53.74539 | 11.34670 | 122° | 62km/h | 15792m | -8.1m/s | -55.3°C | 4.6% | 111.3hPa | 2.5V | 08:09:16 | 02:34:46 | 00:00:00 | |
| DB0DAN | 2026-09-06 00:54:40 | 53.74506 | 11.34738 | 134° | 75km/h | 15768m | -8.3m/s | -55.6°C | 1.4% | 111.71hPa | 2.5V | 00:00:00 | 00:00:00 | 00:00:00 | |
| DO2SHX-10 | 2026-09-06 00:54:40 | 53.74506 | 11.34738 | 135° | 71km/h | 15768m | -8.3m/s | -55.5°C | 4.7% | 111.7hPa | 2.6V | 00:00:00 | 02:34:49 | 00:00:00 | |
| DL1XH1-15 | 2026-09-06 00:54:39 | 53.74530 | 11.34692 | 128° | 66km/h | 15784m | -7.7m/s | -55.5°C | 4.6% | 111.4hPa | 2.6V | 08:09:15 | 02:34:47 | 00:00:00 | |
| DL1XH-west | 2026-09-06 00:54:36 | 53.74547 | 11.34647 | 116° | 62km/h | 15800m | -8.3m/s | -55.2°C | 0.8% | 111.1hPa | 2.5V | 08:09:20 | 02:34:45 | 00:00:00 | |
| AA1-15 | 2026-09-06 00:54:34 | 53.74559 | 11.34594 | 109° | 71km/h | 15816m | -8m/s | -55.2°C | 0.7% | 110.8hPa | 2.6V | 08:09:20 | 02:34:43 | 00:00:00 | |
| DO2SHX-10 | 2026-09-06 00:54:34 | 53.74559 | 11.34594 | 110° | 80km/h | 15817m | -7.9m/s | -55.1°C | 4.5% | 110.8hPa | 2.6V | 00:00:00 | 02:34:43 | 00:00:00 | |
| DJ2DS-15 | 2026-09-06 00:54:32 | 53.74573 | 11.34531 | 111° | 84km/h | 15832m | -7.3m/s | -55.0°C | 4.5% | 110.5hPa | 2.6V | 00:00:00 | 02:34:41 | 00:00:00 | |
| EDDB2-11 | 2026-09-06 00:54:31 | 53.74592 | 11.34458 | 118° | 99km/h | 15847m | -7.9m/s | -54.8°C | 1.4% | 110.3hPa | 2.6V | 00:00:00 | 00:00:00 | 00:00:00 | |
| DM0DOS-11 | 2026-09-06 00:54:30 | 53.74635 | 11.34351 | 129° | 100km/h | 15871m | -8.1m/s | -54.7°C | 4.3% | 109.9hPa | 2.6V | 08:09:26 | 02:34:36 | 00:00:00 | |
| DG6HD-11 | 2026-09-06 00:54:29 | 53.74605 | 11.34421 | 123° | 77km/h | 15855m | -8.3m/s | -54.8°C | 4.4% | 110.2hPa | 2.6V | 00:00:00 | 00:00:00 | 00:00:00 | |
| DO2SHX-10 | 2026-09-06 00:54:28 | 53.74619 | 11.34385 | 126° | 99km/h | 15863m | -8.0m/s | -54.7°C | 4.4% | 110.0hPa | 2.6V | 00:00:00 | 02:34:37 | 00:00:00 | |
| DL1XH-15 | 2026-09-06 00:54:26 | 53.74716 | 11.34193 | 119° | 66km/h | 15915m | -6.6m/s | -54.4°C | 4.2% | 109.1hPa | 2.6V | 08:09:32 | 02:34:30 | 00:00:00 | |
| DL1XH-west | 2026-09-06 00:54:26 | 53.74651 | 11.34320 | 132° | 95km/h | 15879m | -7.9m/s | -54.6°C | 0.6% | 109.8hPa | 2.5V | 08:10:11 | 02:34:35 | 00:00:00 | |
| DB0DAN | 2026-09-06 00:54:25 | 53.74667 | 11.34291 | 134° | 86km/h | 15887m | -8.1m/s | -54.6°C | 1.3% | 109.59hPa | 2.5V | 00:00:00 | 00:00:00 | 00:00:00 | |
| DF8AY | 2026-09-06 00:54:23 | 53.74695 | 11.34241 | 132° | 75km/h | 15902m | -7.2m/s | -54.5°C | 0.6% | 109.4hPa | 2.5V | 08:11:02 | 02:34:32 | 00:00:00 | |
| SONCRA | 2026-09-06 00:54:23 | 53.74707 | 11.34217 | 126° | 68km/h | 15909m | -6.8m/s | -54.5°C | 1.3% | 109.2hPa | 2.5V | 00:00:00 | 00:00:00 | 00:00:00 | |
| DO2SHX-10 | 2026-09-06 00:54:22 | 53.74707 | 11.34217 | 127° | 68km/h | 15909m | -6.8m/s | -54.4°C | 4.2% | 109.1hPa | 2.5V | 00:00:00 | 02:34:31 | 00:00:00 | |
| DJ2DS-15 | 2026-09-06 00:54:20 | 53.74723 | 11.34168 | 112° | 66km/h | 15923m | -7.4m/s | -54.4°C | 1.3% | 109.0hPa | 2.5V | 00:00:00 | 00:00:00 | 00:00:00 | |
| DM0DOS-11 | 2026-09-06 00:54:19 | 53.74742 | 11.34082 | 110° | 75km/h | 15948m | -8.7m/s | -54.4°C | 4.3% | 108.6hPa | 2.5V | 08:09:36 | 02:34:26 | 00:00:00 | |
| DL1XH1-15 | 2026-09-06 00:54:19 | 53.74736 | 11.34112 | 109° | 73km/h | 15939m | -9.2m/s | -54.5°C | 4.3% | 108.7hPa | 2.5V | 08:09:35 | 02:34:27 | 00:00:00 | |
| DF8AY | 2026-09-06 00:54:18 | 53.74794 | 11.33933 | 132° | 84km/h | 15987m | -7.8m/s | -54.1°C | 0.5% | 107.9hPa | 2.6V | 08:11:02 | 02:34:21 | 00:00:00 | |
| S3001 | 2026-09-06 00:54:16 | 53.74758 | 11.34022 | 117° | 80km/h | 15965m | -7.5m/s | -54.4°C | 1.2% | 108.3hPa | 2.5V | 00:00:00 | 00:00:00 | 00:00:00 | |
| DL1XH-15 | 2026-09-06 00:54:15 | 53.74809 | 11.33907 | 134° | 80km/h | 15995m | -8.5m/s | -54.1°C | 4.1% | 107.8hPa | 2.5V | 08:09:42 | 02:34:20 | 00:00:00 | |
| DL1XH-west | 2026-09-06 00:54:15 | 53.74758 | 11.34022 | 117° | 82km/h | 15965m | -7.5m/s | -54.4°C | 0.5% | 108.3hPa | 2.5V | 08:10:11 | 02:34:24 | 00:00:00 | |
| AA1-15 | 2026-09-06 00:54:13 | 53.74780 | 11.33961 | 128° | 88km/h | 15979m | -7.2m/s | -54.2°C | 0.5% | 108hPa | 2.6V | 08:10:11 | 02:34:22 | 00:00:00 | |
| DO2SHX-10 | 2026-09-06 00:54:13 | 53.74780 | 11.33960 | 128° | 84km/h | 15979m | -7.1m/s | -54.2°C | 4.2% | 108.0hPa | 2.6V | 00:00:00 | 02:34:22 | 00:00:00 | |
| DJ2DS-15 | 2026-09-06 00:54:12 | 53.74794 | 11.33932 | 133° | 77km/h | 15987m | -7.7m/s | -54.1°C | 4.2% | 107.9hPa | 2.6V | 00:00:00 | 02:34:21 | 00:00:00 | |
| DB0DAN | 2026-09-06 00:54:10 | 53.74823 | 11.33884 | 136° | 73km/h | 16004m | -8.9m/s | -54.1°C | 1.2% | 107.65hPa | 2.5V | 00:00:00 | 00:00:00 | 00:00:00 | |
| SP3WXH-11 | 2026-09-06 00:54:10 | 53.74836 | 11.33861 | 133° | 69km/h | 16012m | -8.6m/s | -54.2°C | 1.2% | 107.5hPa | 2.5V | 00:00:00 | 00:00:00 | 00:00:00 | |
| DM0DOS-11 | 2026-09-06 00:54:09 | 53.74857 | 11.33818 | 124° | 60km/h | 16028m | -7.6m/s | -54.2°C | 4.2% | 107.2hPa | 2.5V | 08:09:46 | 02:34:16 | 00:00:00 | |
| DL1XH-west | 2026-09-06 00:54:04 | 53.74875 | 11.33748 | 104° | 64km/h | 16051m | -8.3m/s | -54.1°C | 0.6% | 106.8hPa | 2.6V | 08:10:11 | 02:34:13 | 00:00:00 | |
| AA1-15 | 2026-09-06 00:54:03 | 53.74879 | 11.33721 | 103° | 68km/h | 16059m | -8.4m/s | -53.9°C | 0.5% | 106.7hPa | 2.5V | 08:10:11 | 02:34:12 | 00:00:00 | |
| DL1XH-15 | 2026-09-06 00:54:02 | 53.74887 | 11.33660 | 103° | 78km/h | 16076m | -8.7m/s | -53.8°C | 4.2% | 106.4hPa | 2.5V | 08:09:52 | 02:34:10 | 00:00:00 | |
| DF8AY | 2026-09-06 00:54:00 | 53.74892 | 11.33627 | 106° | 82km/h | 16085m | -8.9m/s | -53.8°C | 0.5% | 106.3hPa | 2.5V | 08:11:02 | 02:34:09 | 00:00:00 | |
| EDDB2-11 | 2026-09-06 00:54:00 | 53.74898 | 11.33592 | 108° | 84km/h | 16093m | -7.9m/s | -53.8°C | 1.2% | 106.2hPa | 2.6V | 00:00:00 | 00:00:00 | 00:00:00 | |
| DM0DOS-11 | 2026-09-06 00:53:59 | 53.74915 | 11.33523 | 116° | 91km/h | 16109m | -7.5m/s | -53.9°C | 4.2% | 105.8hPa | 2.6V | 08:09:56 | 02:34:06 | 00:00:00 | |
| DL3AQ-11 | 2026-09-06 00:53:58 | 53.74915 | 11.33523 | 116° | 89km/h | 16109m | -7.5m/s | -53.9°C | 1.2% | 105.9hPa | 2.5V | 00:00:00 | 00:00:00 | 00:00:00 | |
| DB0DAN | 2026-09-06 00:53:55 | 53.74939 | 11.33458 | 126° | 84km/h | 16124m | -7.7m/s | -53.9°C | 1.2% | 105.65hPa | 2.5V | 00:00:00 | 00:00:00 | 00:00:00 | |
| DL1XH-west | 2026-09-06 00:53:54 | 53.74952 | 11.33429 | 129° | 84km/h | 16132m | -8m/s | -53.8°C | 0.5% | 105.5hPa | 2.5V | 08:10:11 | 02:34:03 | 00:00:00 | |
| DK7RCA | 2026-09-06 00:53:53 | 53.74952 | 11.33429 | 130° | 84km/h | 16132m | -8.0m/s | -53.8°C | 1.2% | 105.5hPa | 2.5V | 00:00:00 | 00:00:00 | 00:00:00 | |
| DL1XH-15 | 2026-09-06 00:53:52 | 53.74991 | 11.33355 | 133° | 69km/h | 16157m | -8.2m/s | -53.5°C | 4.1% | 105.1hPa | 2.5V | 08:10:02 | 02:34:00 | 00:00:00 | |
| DM0DOS-11 | 2026-09-06 00:53:52 | 53.75027 | 11.33278 | 116° | 51km/h | 16189m | -7.8m/s | -53°C | 4% | 104.5hPa | 2.5V | 08:10:06 | 02:33:56 | 00:00:00 | |
| AA1-15 | 2026-09-06 00:53:52 | 53.74979 | 11.33378 | 133° | 75km/h | 16149m | -8.2m/s | -53.6°C | 0.4% | 105.2hPa | 2.5V | 08:10:11 | 02:34:01 | 00:00:00 | |
| DF8AY | 2026-09-06 00:53:50 | 53.75003 | 11.33335 | 133° | 62km/h | 16165m | -8m/s | -53.4°C | 0.5% | 104.9hPa | 2.6V | 08:11:02 | 02:33:59 | 00:00:00 | |
| DO2SHX-10 | 2026-09-06 00:53:50 | 53.75003 | 11.33334 | 133° | 57km/h | 16166m | -8.0m/s | -53.4°C | 4.1% | 104.9hPa | 2.6V | 08:10:00 | 02:33:59 | 00:00:00 | |
| DL1XH1-15 | 2026-09-06 00:53:49 | 53.75021 | 11.33297 | 123° | 53km/h | 16181m | -8.1m/s | -53°C | 4% | 104.6hPa | 2.6V | 08:10:05 | 02:33:57 | 00:00:00 | |
| DL1XH-west | 2026-09-06 00:53:44 | 53.75039 | 11.33212 | 101° | 62km/h | 16213m | -7.7m/s | -52.8°C | 0.4% | 104.2hPa | 2.5V | 08:10:11 | 02:33:53 | 00:00:00 | |
| DL1XH-15 | 2026-09-06 00:53:42 | 53.75051 | 11.33123 | 107° | 78km/h | 16237m | -8.3m/s | -52.6°C | 3.9% | 103.8hPa | 2.5V | 08:10:12 | 02:33:50 | 00:00:00 | |
| DM0DOS-11 | 2026-09-06 00:53:42 | 53.75088 | 11.33003 | 126° | 73km/h | 16269m | -7.7m/s | -52.7°C | 3.9% | 103.3hPa | 2.6V | 08:10:16 | 02:33:46 | 00:00:00 | |
| AA1-15 | 2026-09-06 00:53:42 | 53.75046 | 11.33155 | 103° | 75km/h | 16229m | -8.1m/s | -52.7°C | 0.4% | 103.9hPa | 2.6V | 08:10:11 | 02:33:51 | 00:00:00 | |
| DB0DAN | 2026-09-06 00:53:40 | 53.75058 | 11.33091 | 112° | 77km/h | 16246m | -7.7m/s | -52.6°C | 1.1% | 103.64hPa | 2.5V | 00:00:00 | 00:00:00 | 00:00:00 | |
| DF8AY | 2026-09-06 00:53:39 | 53.75066 | 11.33059 | 117° | 82km/h | 16253m | -7.7m/s | -52.7°C | 0.4% | 103.5hPa | 2.5V | 08:11:02 | 02:33:48 | 00:00:00 | |
| DL1XH-west | 2026-09-06 00:53:33 | 53.75123 | 11.32921 | 115° | 49km/h | 16301m | -8m/s | -52.5°C | 0.3% | 102.8hPa | 2.5V | 08:11:02 | 02:33:42 | 00:00:00 | |
| DM0DOS-11 | 2026-09-06 00:53:32 | 53.75148 | 11.32723 | 108° | 88km/h | 16356m | -8.3m/s | -51.8°C | 3.7% | 101.9hPa | 2.6V | 08:10:27 | 02:33:35 | 00:00:00 | |
| DL1XH-15 | 2026-09-06 00:53:32 | 53.75130 | 11.32878 | 100° | 57km/h | 16317m | -8.2m/s | -52.4°C | 3.8% | 102.5hPa | 2.6V | 08:10:22 | 02:33:40 | 00:00:00 | |
| AA1-15 | 2026-09-06 00:53:30 | 53.75132 | 11.32852 | 98° | 64km/h | 16325m | -7.9m/s | -52.4°C | 0.3% | 102.4hPa | 2.5V | 08:11:02 | 02:33:39 | 00:00:00 | |
| DF8AY | 2026-09-06 00:53:29 | 53.75135 | 11.32824 | 98° | 71km/h | 16333m | -7.6m/s | -52.3°C | 0.3% | 102.3hPa | 2.5V | 08:11:02 | 02:33:38 | 00:00:00 | |
| EDDB2-11 | 2026-09-06 00:53:29 | 53.75138 | 11.32792 | 100° | 78km/h | 16341m | -7.5m/s | -52.1°C | 1.1% | 102.2hPa | 2.5V | 00:00:00 | 00:00:00 | 00:00:00 | |
| DO2SHX-10 | 2026-09-06 00:53:28 | 53.75138 | 11.32792 | 101° | 84km/h | 16341m | -7.4m/s | -52.0°C | 3.8% | 102.1hPa | 2.5V | 00:00:00 | 02:33:37 | 00:00:00 | |
| DB0DAN | 2026-09-06 00:53:25 | 53.75156 | 11.32687 | 112° | 84km/h | 16365m | -8.2m/s | -51.8°C | 1% | 101.77hPa | 2.5V | 00:00:00 | 00:00:00 | 00:00:00 | |
| DO2SHX-10 | 2026-09-06 00:53:25 | 53.75156 | 11.32687 | 112° | 88km/h | 16365m | -8.2m/s | -51.8°C | 3.7% | 101.7hPa | 2.6V | 00:00:00 | 02:33:34 | 00:00:00 | |
| SMARD9-15 | 2026-09-06 00:53:23 | 53.75174 | 11.32620 | 117° | 86km/h | 16381m | -7.6m/s | -51.8°C | 1.0% | 101.5hPa | 2.6V | 00:00:00 | 00:00:00 | 00:00:00 | |
| DL1XH-15 | 2026-09-06 00:53:22 | 53.75196 | 11.32558 | 121° | 80km/h | 16397m | -8.1m/s | -51.9°C | 3.6% | 101.3hPa | 2.6V | 08:10:32 | 02:33:30 | 00:00:00 | |
| DL1XH-west | 2026-09-06 00:53:22 | 53.75185 | 11.32588 | 121° | 84km/h | 16389m | -7.8m/s | -51.8°C | 0.2% | 101.4hPa | 2.6V | 08:11:02 | 02:33:31 | 00:00:00 | |
| AA1-15 | 2026-09-06 00:53:19 | 53.75216 | 11.32500 | 119° | 77km/h | 16413m | -7.7m/s | -51.9°C | 0.2% | 101hPa | 2.5V | 08:11:02 | 02:33:28 | 00:00:00 | |
| DL1XH1-15 | 2026-09-06 00:53:19 | 53.75225 | 11.32472 | 116° | 75km/h | 16420m | -7.8m/s | -51.9°C | 3.7% | 100.9hPa | 2.5V | 08:10:35 | 02:33:27 | 00:00:00 | |
| DF8AY | 2026-09-06 00:53:18 | 53.75225 | 11.32472 | 117° | 75km/h | 16420m | -7.8m/s | -51.9°C | 0.2% | 100.9hPa | 2.5V | 08:11:02 | 02:33:27 | 00:00:00 | |
| DO2SHX-10 | 2026-09-06 00:53:18 | 53.75225 | 11.32472 | 117° | 73km/h | 16420m | -7.7m/s | -51.9°C | 3.7% | 100.9hPa | 2.6V | 00:00:00 | 02:33:27 | 00:00:00 | |
| DL3AQ-11 | 2026-09-06 00:53:17 | 53.75233 | 11.32444 | 114° | 73km/h | 16428m | -7.7m/s | -51.9°C | 1.0% | 100.8hPa | 2.6V | 00:00:00 | 00:00:00 | 00:00:00 | |
| DO2SHX-10 | 2026-09-06 00:53:15 | 53.75247 | 11.32386 | 112° | 77km/h | 16445m | -8.5m/s | -51.9°C | 3.7% | 100.5hPa | 2.6V | 00:00:00 | 02:33:24 | 00:00:00 | |
| S3001 | 2026-09-06 00:53:14 | 53.75263 | 11.32325 | 114° | 77km/h | 16461m | -8.1m/s | -51.8°C | 1.0% | 100.3hPa | 2.6V | 00:00:00 | 00:00:00 | 00:00:00 | |
| DL1XH-15 | 2026-09-06 00:53:12 | 53.75279 | 11.32268 | 115° | 73km/h | 16477m | -8.1m/s | -51.7°C | 3.6% | 100hPa | 2.6V | 08:10:42 | 02:33:20 | 00:00:00 | |
| DL1XH-west | 2026-09-06 00:53:12 | 53.75271 | 11.32296 | 116° | 75km/h | 16469m | -8.2m/s | -51.7°C | 0.2% | 100.2hPa | 2.5V | 08:11:02 | 02:33:21 | 00:00:00 | |
| DJ2DS-15 | 2026-09-06 00:53:12 | 53.75271 | 11.32296 | 117° | 71km/h | 16469m | -8.2m/s | -51.6°C | 3.6% | 100.1hPa | 2.5V | 00:00:00 | 02:33:21 | 00:00:00 | |
| DM0DOS-11 | 2026-09-06 00:53:11 | 53.75314 | 11.32156 | 121° | 75km/h | 16510m | -8m/s | -51.7°C | 3.6% | 99.5hPa | 2.5V | 08:10:46 | 02:33:16 | 00:00:00 | |
| DB0DAN | 2026-09-06 00:53:10 | 53.75287 | 11.32240 | 116° | 69km/h | 16485m | -8.3m/s | -51.6°C | 1% | 99.91hPa | 2.6V | 00:00:00 | 00:00:00 | 00:00:00 | |
| GOEST3-10 | 2026-09-06 00:53:10 | 53.75287 | 11.32240 | 116° | 73km/h | 16486m | -8.2m/s | -51.6°C | 3.6% | 99.9hPa | 2.5V | 00:00:00 | 02:33:19 | 00:00:00 | |
| DL1XH1-15 | 2026-09-06 00:53:09 | 53.75304 | 11.32184 | 118° | 75km/h | 16502m | -8.1m/s | -51.7°C | 3.6% | 99.7hPa | 2.5V | 08:10:45 | 02:33:17 | 00:00:00 | |
| DF8AY | 2026-09-06 00:53:08 | 53.75304 | 11.32184 | 119° | 75km/h | 16502m | -8.1m/s | -51.7°C | 0.2% | 99.7hPa | 2.5V | 08:11:02 | 02:33:17 | 00:00:00 | |
| SP3WXH-11 | 2026-09-06 00:53:08 | 53.75314 | 11.32156 | 121° | 73km/h | 16510m | -8.0m/s | -51.7°C | 1.0% | 99.5hPa | 2.5V | 00:00:00 | 00:00:00 | 00:00:00 | |
| D01LWL | 2026-09-06 00:53:07 | 53.75314 | 11.32156 | 121° | 73km/h | 16510m | -8.0m/s | -51.7°C | 1.0% | 99.5hPa | 2.5V | 00:00:00 | 00:00:00 | 00:00:00 | |
| DL3AQ-11 | 2026-09-06 00:53:05 | 53.75342 | 11.32080 | 121° | 68km/h | 16535m | -8.3m/s | -51.7°C | 1.0% | 99.2hPa | 2.5V | 00:00:00 | 00:00:00 | 00:00:00 | |
| GOEST3-10 | 2026-09-06 00:53:04 | 53.75342 | 11.32080 | 122° | 71km/h | 16535m | -8.2m/s | -51.7°C | 3.6% | 99.1hPa | 2.5V | 00:00:00 | 00:00:00 | 00:00:00 | |
| HTAHTA | 2026-09-06 00:53:03 | 53.75351 | 11.32055 | 119° | 69km/h | 16543m | -7.9m/s | -51.7°C | 1.0% | 99.0hPa | 2.5V | 00:00:00 | 00:00:00 | 00:00:00 | |
| DL1XH-15 | 2026-09-06 00:53:02 | 53.75369 | 11.32001 | 121° | 75km/h | 16559m | -7.8m/s | -51.8°C | 3.6% | 98.8hPa | 2.5V | 08:10:52 | 02:33:10 | 00:00:00 | |
| DO2SHX-10 | 2026-09-06 00:53:02 | 53.75360 | 11.32029 | 120° | 75km/h | 16551m | -8.5m/s | -51.7°C | 3.6% | 98.8hPa | 2.5V | 00:00:00 | 02:33:11 | 00:00:00 | |
| DM0DOS-11 | 2026-09-06 00:53:01 | 53.75409 | 11.31895 | 121° | 73km/h | 16592m | -8.3m/s | -51.7°C | 3.6% | 98.3hPa | 2.5V | 08:10:56 | 02:33:06 | 00:00:00 | |
| DL1XH-west | 2026-09-06 00:53:01 | 53.75369 | 11.32001 | 121° | 75km/h | 16559m | -7.8m/s | -51.8°C | 0.2% | 98.8hPa | 2.5V | 08:11:02 | 02:33:10 | 00:00:00 | |
| DF5WG-10 | 2026-09-06 00:53:01 | 53.75369 | 11.32001 | 122° | 73km/h | 16559m | -7.8m/s | -51.7°C | 3.6% | 98.7hPa | 2.5V | 00:00:00 | 02:33:10 | 00:00:00 | |
| AP2371 | 2026-09-06 00:53:00 | 53.75369 | 11.32001 | 122° | 75km/h | 16559m | -7.8m/s | -51.8°C | 1.0% | 98.8hPa | 2.5V | 00:00:00 | 00:00:00 | 00:00:00 | |
| DL1XH1-15 | 2026-09-06 00:52:59 | 53.75399 | 11.31921 | 122° | 71km/h | 16584m | -8.2m/s | -51.8°C | 3.6% | 98.4hPa | 2.5V | 08:10:55 | 02:33:07 | 00:00:00 | |
| AA1-15 | 2026-09-06 00:52:58 | 53.75400 | 11.31921 | 123° | 71km/h | 16584m | -8.2m/s | -51.8°C | 0.2% | 98.4hPa | 2.5V | 08:11:02 | 02:33:07 | 00:00:00 | |
| DF8AY | 2026-09-06 00:52:57 | 53.75409 | 11.31895 | 122° | 73km/h | 16592m | -8.3m/s | -51.7°C | 0.2% | 98.3hPa | 2.5V | 08:11:02 | 02:33:06 | 00:00:00 | |
| DL1XH-15 | 2026-09-06 00:52:56 | 53.75468 | 11.31749 | 121° | 60km/h | 16641m | -8.2m/s | -51.7°C | 3.6% | 97.5hPa | 2.5V | 08:11:02 | 02:33:00 | 00:00:00 | |
| DB0DAN | 2026-09-06 00:52:55 | 53.75429 | 11.31843 | 124° | 69km/h | 16609m | -8.5m/s | -51.7°C | 1% | 98.03hPa | 2.6V | 00:00:00 | 00:00:00 | 00:00:00 | |
| DL1XH-west | 2026-09-06 00:52:50 | 53.75476 | 11.31726 | 117° | 62km/h | 16649m | -7.9m/s | -51.8°C | 0.2% | 97.4hPa | 2.6V | 08:11:53 | 02:32:59 | 00:00:00 | |
| EDDB2-12 | 2026-09-06 00:52:50 | 53.75483 | 11.31701 | 114° | 66km/h | 16657m | -8.1m/s | -51.9°C | 1.0% | 97.3hPa | 2.5V | 00:00:00 | 00:00:00 | 00:00:00 | |
| DL1XH1-15 | 2026-09-06 00:52:49 | 53.75491 | 11.31674 | 115° | 75km/h | 16665m | -8.7m/s | -51.9°C | 3.7% | 97.1hPa | 2.5V | 08:11:05 | 02:32:57 | 00:00:00 | |
| DM0DOS-11 | 2026-09-06 00:52:49 | 53.75499 | 11.31644 | 118° | 80km/h | 16673m | -7.9m/s | -52°C | 3.6% | 97hPa | 2.5V | 08:11:06 | 02:32:56 | 00:00:00 | |
| AA1-15 | 2026-09-06 00:52:48 | 53.75491 | 11.31674 | 115° | 75km/h | 16666m | -8.7m/s | -52°C | 0.3% | 97.1hPa | 2.5V | 08:11:53 | 02:32:57 | 00:00:00 | |
| DF8AY | 2026-09-06 00:52:47 | 53.75500 | 11.31644 | 119° | 80km/h | 16673m | -7.9m/s | -52°C | 0.2% | 97hPa | 2.5V | 08:12:44 | 02:32:56 | 00:00:00 | |
| GOEST3-10 | 2026-09-06 00:52:46 | 53.75510 | 11.31614 | 124° | 82km/h | 16682m | -7.6m/s | -52.0°C | 3.7% | 96.8hPa | 2.5V | 00:00:00 | 02:32:55 | 00:00:00 | |
| DO2SHX-10 | 2026-09-06 00:52:45 | 53.75523 | 11.31586 | 130° | 80km/h | 16689m | -8.0m/s | -52.0°C | 3.7% | 96.7hPa | 2.5V | 00:00:00 | 02:32:54 | 00:00:00 | |
| DM0DOS-11 | 2026-09-06 00:52:42 | 53.75606 | 11.31419 | 112° | 53km/h | 16754m | -9.1m/s | -52.4°C | 3.8% | 95.8hPa | 2.5V | 08:11:16 | 02:32:46 | 00:00:00 | |
| DG6HD-15 | 2026-09-06 00:52:42 | 53.75563 | 11.31515 | 138° | 69km/h | 16715m | -8.4m/s | -52.2°C | 1.0% | 96.4hPa | 2.5V | 08:11:00 | 00:00:00 | 00:00:00 | |
| DB0DAN | 2026-09-06 00:52:40 | 53.75585 | 11.31477 | 130° | 55km/h | 16730m | -7.9m/s | -52.3°C | 1% | 96.2hPa | 2.5V | 00:00:00 | 00:00:00 | 00:00:00 | |
| GOEST3-10 | 2026-09-06 00:52:40 | 53.75585 | 11.31477 | 130° | 55km/h | 16731m | -7.8m/s | -52.3°C | 3.7% | 96.1hPa | 2.5V | 00:00:00 | 00:00:00 | 00:00:00 | |
| DL1XH1-15 | 2026-09-06 00:52:39 | 53.75600 | 11.31439 | 117° | 53km/h | 16746m | -8m/s | -52.4°C | 3.7% | 95.9hPa | 2.6V | 08:11:15 | 02:32:47 | 00:00:00 | |
| DL1XH-west | 2026-09-06 00:52:39 | 53.75594 | 11.31458 | 124° | 53km/h | 16738m | -7.3m/s | -52.4°C | 0.2% | 96hPa | 2.6V | 08:11:53 | 02:32:48 | 00:00:00 | |
| AA1-15 | 2026-09-06 00:52:36 | 53.75611 | 11.31398 | 112° | 53km/h | 16763m | -9.1m/s | -52.4°C | 0.3% | 95.7hPa | 2.5V | 08:11:53 | 02:32:45 | 00:00:00 | |
| DO2SHX-10 | 2026-09-06 00:52:36 | 53.75611 | 11.31398 | 113° | 55km/h | 16763m | -9.0m/s | -52.4°C | 3.8% | 95.6hPa | 2.6V | 00:00:00 | 02:32:45 | 00:00:00 | |
| GOEST3-10 | 2026-09-06 00:52:35 | 53.75617 | 11.31376 | 112° | 64km/h | 16772m | -8.7m/s | -52.3°C | 3.7% | 95.5hPa | 2.6V | 00:00:00 | 02:32:44 | 00:00:00 | |
| DO2SHX-10 | 2026-09-06 00:52:33 | 53.75628 | 11.31329 | 114° | 68km/h | 16790m | -8.1m/s | -52.4°C | 3.8% | 95.2hPa | 2.6V | 00:00:00 | 02:32:42 | 00:00:00 | |
| DL1XH-15 | 2026-09-06 00:52:32 | 53.75644 | 11.31279 | 122° | 69km/h | 16805m | -8.5m/s | -52.5°C | 3.8% | 95hPa | 2.5V | 08:11:22 | 02:32:40 | 00:00:00 | |
| HTAHTA | 2026-09-06 00:52:32 | 53.75644 | 11.31279 | 122° | 69km/h | 16806m | -8.5m/s | -52.5°C | 1.1% | 95.0hPa | 2.6V | 00:00:00 | 00:00:00 | 00:00:00 | |
| DF5WG-10 | 2026-09-06 00:52:31 | 53.75644 | 11.31279 | 123° | 58km/h | 16806m | -8.4m/s | -52.5°C | 3.8% | 95.0hPa | 2.6V | 00:00:00 | 02:32:40 | 00:00:00 | |
| GOEST3-10 | 2026-09-06 00:52:30 | 53.75654 | 11.31253 | 126° | 71km/h | 16814m | -8.0m/s | -52.5°C | 3.8% | 94.9hPa | 2.6V | 00:00:00 | 00:00:00 | 00:00:00 | |
| DM0DOS-11 | 2026-09-06 00:52:29 | 53.75688 | 11.31184 | 133° | 69km/h | 16840m | -8.6m/s | -52.7°C | 3.8% | 94.5hPa | 2.6V | 08:11:26 | 02:32:36 | 00:00:00 | |
| DL1XH1-15 | 2026-09-06 00:52:29 | 53.75676 | 11.31206 | 131° | 71km/h | 16831m | -8.3m/s | -52.7°C | 3.8% | 94.7hPa | 2.6V | 08:11:25 | 02:32:37 | 00:00:00 | |
| DL1XH-west | 2026-09-06 00:52:29 | 53.75665 | 11.31229 | 129° | 71km/h | 16823m | -9m/s | -52.6°C | 0.3% | 94.8hPa | 2.5V | 08:11:53 | 02:32:38 | 00:00:00 | |
| AM1SDL-15 | 2026-09-06 00:52:28 | 53.75676 | 11.31206 | 132° | 58km/h | 16831m | -8.3m/s | -52.6°C | 3.8% | 94.6hPa | 2.5V | 00:00:00 | 02:32:37 | 00:00:00 | |
| DG6HD-11 | 2026-09-06 00:52:27 | 53.75688 | 11.31184 | 134° | 51km/h | 16840m | -8.6m/s | -52.7°C | 3.8% | 94.5hPa | 2.5V | 00:00:00 | 00:00:00 | 00:00:00 | |
| DL1XH-15 | 2026-09-06 00:52:26 | 53.75759 | 11.31081 | 138° | 49km/h | 16892m | -8.7m/s | -52.8°C | 3.8% | 93.8hPa | 2.5V | 08:11:32 | 02:32:30 | 00:00:00 | |
| AA1-15 | 2026-09-06 00:52:25 | 53.75713 | 11.31144 | 139° | 66km/h | 16857m | -8.7m/s | -52.8°C | 0.3% | 94.3hPa | 2.5V | 08:11:53 | 02:32:34 | 00:00:00 | |
| DB0DAN | 2026-09-06 00:52:25 | 53.75713 | 11.31144 | 139° | 62km/h | 16857m | -8.7m/s | -52.8°C | 1.1% | 94.29hPa | 2.5V | 00:00:00 | 00:00:00 | 00:00:00 | |
| DK7RCA | 2026-09-06 00:52:25 | 53.75713 | 11.31144 | 140° | 66km/h | 16857m | -8.7m/s | -52.8°C | 1.1% | 94.3hPa | 2.6V | 08:11:00 | 00:00:00 | 00:00:00 | |
| DO2SHX-10 | 2026-09-06 00:52:24 | 53.75725 | 11.31126 | 141° | 58km/h | 16865m | -8.6m/s | -52.8°C | 3.8% | 94.2hPa | 2.6V | 00:00:00 | 02:32:33 | 00:00:00 | |
| DL1XH1-15 | 2026-09-06 00:52:23 | 53.75780 | 11.31032 | 114° | 49km/h | 16917m | -7.9m/s | -52.7°C | 3.8% | 93.4hPa | 2.6V | 08:11:35 | 02:32:27 | 00:00:00 | |
| DG6HD-15 | 2026-09-06 00:52:21 | 53.75759 | 11.31081 | 139° | 51km/h | 16892m | -8.7m/s | -52.8°C | 1.1% | 93.8hPa | 2.6V | 08:11:00 | 00:00:00 | 00:00:00 | |
| GOEST3-10 | 2026-09-06 00:52:20 | 53.75767 | 11.31066 | 132° | 53km/h | 16901m | -8.7m/s | -52.7°C | 3.8% | 93.6hPa | 2.6V | 00:00:00 | 00:00:00 | 00:00:00 | |
| DM0DOS-11 | 2026-09-06 00:52:18 | 53.75785 | 11.31011 | 109° | 57km/h | 16925m | -8.3m/s | -52.7°C | 3.8% | 93.3hPa | 2.6V | 08:11:36 | 02:32:26 | 00:00:00 | |
| DL1XH-west | 2026-09-06 00:52:18 | 53.75780 | 11.31032 | 115° | 49km/h | 16917m | -7.9m/s | -52.7°C | 0.3% | 93.4hPa | 2.6V | 08:11:53 | 02:32:27 | 00:00:00 | |
| DO2SHX-10 | 2026-09-06 00:52:18 | 53.75780 | 11.31032 | 115° | 57km/h | 16917m | -7.9m/s | -52.6°C | 3.8% | 93.4hPa | 2.6V | 00:00:00 | 02:32:27 | 00:00:00 | |
| DL1XH-15 | 2026-09-06 00:52:16 | 53.75834 | 11.30843 | 125° | 78km/h | 16976m | -9m/s | -53°C | 3.9% | 92.6hPa | 2.6V | 08:11:42 | 02:32:20 | 00:00:00 | |
| AA1-15 | 2026-09-06 00:52:14 | 53.75804 | 11.30931 | 115° | 77km/h | 16950m | -8.3m/s | -52.8°C | 0.3% | 93hPa | 2.5V | 08:11:53 | 02:32:23 | 00:00:00 | |
| DL3AQ-11 | 2026-09-06 00:52:14 | 53.75813 | 11.30901 | 118° | 80km/h | 16959m | -8.5m/s | -52.9°C | 1.1% | 92.9hPa | 2.5V | 00:00:00 | 00:00:00 | 00:00:00 | |
| DB0DAN | 2026-09-06 00:52:10 | 53.75846 | 11.30817 | 128° | 71km/h | 16985m | -8.4m/s | -53°C | 1.1% | 92.46hPa | 2.5V | 00:00:00 | 00:00:00 | 00:00:00 | |
| DL1XH1-15 | 2026-09-06 00:52:09 | 53.75868 | 11.30772 | 132° | 62km/h | 17002m | -8.1m/s | -53°C | 3.9% | 92.2hPa | 2.5V | 08:11:45 | 02:32:17 | 00:00:00 | |
| DM0DOS-11 | 2026-09-06 00:52:08 | 53.75879 | 11.30753 | 134° | 55km/h | 17010m | -7.8m/s | -52.9°C | 3.8% | 92.1hPa | 2.6V | 08:11:46 | 02:32:16 | 00:00:00 | |
| DL1XH-west | 2026-09-06 00:52:07 | 53.75879 | 11.30753 | 134° | 57km/h | 17010m | -7.8m/s | -52.9°C | 0.3% | 92.1hPa | 2.6V | 08:11:53 | 02:32:16 | 00:00:00 | |
| DF8AY | 2026-09-06 00:52:04 | 53.75903 | 11.30709 | 129° | 40km/h | 17035m | -8.9m/s | -52.9°C | 0.3% | 91.8hPa | 2.5V | 08:12:44 | 02:32:13 | 00:00:00 | |
| AA1-15 | 2026-09-06 00:52:03 | 53.75909 | 11.30696 | 126° | 38km/h | 17044m | -9.4m/s | -52.9°C | 0.3% | 91.7hPa | 2.5V | 08:11:53 | 02:32:12 | 00:00:00 | |
| DL1XH1-15 | 2026-09-06 00:52:03 | 53.75932 | 11.30611 | 107° | 58km/h | 17087m | -8m/s | -53.2°C | 3.9% | 91hPa | 2.5V | 08:11:55 | 02:32:07 | 00:00:00 | |
| DL1XH-west | 2026-09-06 00:51:56 | 53.75943 | 11.30559 | 115° | 69km/h | 17103m | -8.7m/s | -53.3°C | 0.4% | 90.8hPa | 2.6V | 08:12:44 | 02:32:05 | 00:00:00 | |
| DB0DAN | 2026-09-06 00:51:55 | 53.75951 | 11.30532 | 119° | 68km/h | 17112m | -8.7m/s | -53.3°C | 1.1% | 90.64hPa | 2.6V | 00:00:00 | 00:00:00 | 00:00:00 | |
| AA1-15 | 2026-09-06 00:51:53 | 53.75971 | 11.30481 | 128° | 71km/h | 17130m | -9.1m/s | -53.4°C | 0.4% | 90.4hPa | 2.5V | 08:12:44 | 02:32:02 | 00:00:00 | |
| DM0DOS-11 | 2026-09-06 00:51:53 | 53.76041 | 11.30384 | 148° | 42km/h | 17183m | -8.5m/s | -53.6°C | 4% | 89.6hPa | 2.5V | 08:12:06 | 02:31:56 | 00:00:00 | |
| SMARD9-15 | 2026-09-06 00:51:50 | 53.76020 | 11.30406 | 147° | 55km/h | 17165m | -8.6m/s | -53.5°C | 1.1% | 89.9hPa | 2.5V | 00:00:00 | 00:00:00 | 00:00:00 | |
| EDDB2-12 | 2026-09-06 00:51:48 | 53.76041 | 11.30384 | 148° | 42km/h | 17183m | -8.5m/s | -53.6°C | 1.1% | 89.6hPa | 2.5V | 00:00:00 | 00:00:00 | 00:00:00 | |
| DO2SHX-10 | 2026-09-06 00:51:47 | 53.76041 | 11.30384 | 149° | 38km/h | 17183m | -8.5m/s | -53.6°C | 4.0% | 89.6hPa | 2.5V | 00:00:00 | 02:31:56 | 00:00:00 | |
| DL1XH-15 | 2026-09-06 00:51:46 | 53.76074 | 11.30302 | 114° | 51km/h | 17232m | -8.1m/s | -54°C | 4.1% | 88.9hPa | 2.5V | 08:12:12 | 02:31:50 | 00:00:00 | |
| DL1XH-west | 2026-09-06 00:51:45 | 53.76056 | 11.30364 | 133° | 33km/h | 17199m | -8.1m/s | -53.7°C | 0.5% | 89.4hPa | 2.6V | 08:12:44 | 02:31:54 | 00:00:00 | |
| DL3AQ-11 | 2026-09-06 00:51:45 | 53.76061 | 11.30352 | 119° | 33km/h | 17207m | -8.0m/s | -53.8°C | 1.1% | 89.3hPa | 2.5V | 00:00:00 | 00:00:00 | 00:00:00 | |
| AA1-15 | 2026-09-06 00:51:43 | 53.76065 | 11.30338 | 113° | 38km/h | 17215m | -8m/s | -53.9°C | 0.4% | 89.2hPa | 2.5V | 08:12:44 | 02:31:52 | 00:00:00 | |
| DM0DOS-11 | 2026-09-06 00:51:42 | 53.76110 | 11.30225 | 137° | 60km/h | 17265m | -8.4m/s | -54.2°C | 4.2% | 88.5hPa | 2.5V | 08:12:16 | 02:31:46 | 00:00:00 | |
| DF8AY | 2026-09-06 00:51:41 | 53.76074 | 11.30302 | 115° | 51km/h | 17232m | -8.1m/s | -54°C | 0.5% | 88.9hPa | 2.5V | 08:12:44 | 02:31:50 | 00:00:00 | |
| DB0DAN | 2026-09-06 00:51:40 | 53.76081 | 11.30282 | 121° | 55km/h | 17240m | -8.3m/s | -54.1°C | 1.2% | 88.83hPa | 2.6V | 00:00:00 | 00:00:00 | 00:00:00 | |
| SP3BTT-10 | 2026-09-06 00:51:40 | 53.76080 | 11.30282 | 121° | 49km/h | 17240m | -8.3m/s | -54.0°C | 4.1% | 88.8hPa | 2.5V | 00:00:00 | 00:00:00 | 00:00:00 | |
| DG6HD-15 | 2026-09-06 00:51:39 | 53.76089 | 11.30262 | 129° | 60km/h | 17248m | -8.5m/s | -54.2°C | 1.2% | 88.7hPa | 2.5V | 00:00:00 | 00:00:00 | 00:00:00 | |
| DO2SHX-10 | 2026-09-06 00:51:38 | 53.76099 | 11.30242 | 134° | 58km/h | 17257m | -8.3m/s | -54.1°C | 4.2% | 88.5hPa | 2.5V | 00:00:00 | 02:31:47 | 00:00:00 | |
| DL1XH-15 | 2026-09-06 00:51:36 | 53.76174 | 11.30154 | 151° | 38km/h | 17317m | -8.8m/s | -53.7°C | 4% | 87.8hPa | 2.5V | 08:12:22 | 02:31:40 | 00:00:00 | |
| DL1XH-west | 2026-09-06 00:51:35 | 53.76133 | 11.30194 | 146° | 57km/h | 17282m | -8.6m/s | -54.2°C | 0.5% | 88.3hPa | 2.5V | 08:12:44 | 02:31:44 | 00:00:00 | |
| AA1-15 | 2026-09-06 00:51:32 | 53.76165 | 11.30162 | 152° | 44km/h | 17308m | -8.8m/s | -53.7°C | 0.5% | 87.9hPa | 2.6V | 08:12:44 | 02:31:41 | 00:00:00 | |
| DL1XH1-15 | 2026-09-06 00:51:32 | 53.76192 | 11.30127 | 121° | 31km/h | 17344m | -8.5m/s | -53.8°C | 4% | 87.4hPa | 2.5V | 08:12:25 | 02:31:37 | 00:00:00 | |
| DF8AY | 2026-09-06 00:51:30 | 53.76182 | 11.30146 | 146° | 33km/h | 17326m | -9m/s | -53.7°C | 0.4% | 87.6hPa | 2.5V | 08:12:44 | 02:31:39 | 00:00:00 | |
| DO2SHX-10 | 2026-09-06 00:51:29 | 53.76188 | 11.30137 | 135° | 31km/h | 17335m | -9.0m/s | -53.7°C | 4.0% | 87.5hPa | 2.5V | 00:00:00 | 02:31:38 | 00:00:00 | |
| GOEST3-10 | 2026-09-06 00:51:28 | 53.76192 | 11.30127 | 122° | 42km/h | 17344m | -8.5m/s | -53.7°C | 4.0% | 87.3hPa | 2.5V | 00:00:00 | 02:31:37 | 00:00:00 | |
| DB0DAN | 2026-09-06 00:51:25 | 53.76200 | 11.30081 | 100° | 47km/h | 17369m | -8.3m/s | -53.8°C | 1.1% | 87.02hPa | 2.5V | 00:00:00 | 00:00:00 | 00:00:00 | |
| DL1XH-west | 2026-09-06 00:51:24 | 53.76203 | 11.30058 | 104° | 58km/h | 17377m | -8.5m/s | -53.8°C | 0.4% | 86.9hPa | 2.5V | 08:12:44 | 02:31:33 | 00:00:00 | |
| DL1XH-15 | 2026-09-06 00:51:23 | 53.76222 | 11.29982 | 121° | 66km/h | 17403m | -9.2m/s | -53.9°C | 4% | 86.6hPa | 2.6V | 08:12:32 | 02:31:30 | 00:00:00 | |
| DO2SHX-10 | 2026-09-06 00:51:23 | 53.76207 | 11.30033 | 110° | 66km/h | 17386m | -8.7m/s | -53.8°C | 4.0% | 86.8hPa | 2.5V | 08:12:00 | 02:31:32 | 00:00:00 | |
| DM0DOS-11 | 2026-09-06 00:51:22 | 53.76257 | 11.29912 | 132° | 38km/h | 17438m | -8.6m/s | -54.1°C | 4% | 86.1hPa | 2.5V | 08:12:36 | 02:31:26 | 00:00:00 | |
| AA1-15 | 2026-09-06 00:51:22 | 53.76214 | 11.30007 | 116° | 68km/h | 17394m | -8.7m/s | -53.9°C | 0.5% | 86.7hPa | 2.5V | 08:12:44 | 02:31:31 | 00:00:00 | |
| DO2SHX-10 | 2026-09-06 00:51:20 | 53.76231 | 11.29960 | 128° | 55km/h | 17412m | -8.6m/s | -53.9°C | 4.0% | 86.4hPa | 2.5V | 00:00:00 | 02:31:29 | 00:00:00 | |
| DL1XH1-15 | 2026-09-06 00:51:19 | 53.76249 | 11.29925 | 134° | 47km/h | 17429m | -8.6m/s | -54°C | 4% | 86.3hPa | 2.5V | 08:12:35 | 02:31:27 | 00:00:00 | |
| DF8AY | 2026-09-06 00:51:18 | 53.76267 | 11.29874 | 92° | 35km/h | 17463m | -8.8m/s | -54.3°C | 0.5% | 85.8hPa | 2.5V | 08:12:44 | 02:31:23 | 00:00:00 | |
| DL3AQ-11 | 2026-09-06 00:51:18 | 53.76257 | 11.29912 | 132° | 38km/h | 17438m | -8.6m/s | -54.1°C | 1.1% | 86.1hPa | 2.6V | 00:00:00 | 00:00:00 | 00:00:00 | |
| DO2SHX-10 | 2026-09-06 00:51:17 | 53.76256 | 11.29912 | 133° | 35km/h | 17438m | -8.5m/s | -54.1°C | 4.0% | 86.1hPa | 2.6V | 00:00:00 | 02:31:26 | 00:00:00 | |
| DL1XH-15 | 2026-09-06 00:51:16 | 53.76266 | 11.29811 | 90° | 62km/h | 17489m | -8.8m/s | -54.5°C | 4.2% | 85.4hPa | 2.6V | 08:12:42 | 02:31:20 | 00:00:00 | |
| DL1XH-west | 2026-09-06 00:51:13 | 53.76267 | 11.29857 | 87° | 46km/h | 17471m | -8.9m/s | -54.4°C | 0.5% | 85.7hPa | 2.6V | 08:12:44 | 02:31:22 | 00:00:00 | |
| GOEST3-10 | 2026-09-06 00:51:13 | 53.76267 | 11.29857 | 87° | 60km/h | 17472m | -8.8m/s | -54.4°C | 4.2% | 85.6hPa | 2.5V | 00:00:00 | 00:00:00 | 00:00:00 | |
| DM0DOS-11 | 2026-09-06 00:51:12 | 53.76281 | 11.29697 | 113° | 71km/h | 17524m | -9.2m/s | -54.8°C | 4.3% | 85hPa | 2.5V | 08:12:46 | 02:31:16 | 00:00:00 | |
| AA1-15 | 2026-09-06 00:51:12 | 53.76266 | 11.29811 | 91° | 62km/h | 17489m | -8.8m/s | -54.5°C | 0.5% | 85.4hPa | 2.6V | 08:12:44 | 02:31:20 | 00:00:00 | |
| DB0DAN | 2026-09-06 00:51:10 | 53.76267 | 11.29784 | 97° | 64km/h | 17498m | -8.8m/s | -54.6°C | 1.2% | 85.32hPa | 2.5V | 00:00:00 | 00:00:00 | 00:00:00 | |
| SP3BTT-10 | 2026-09-06 00:51:10 | 53.76267 | 11.29784 | 97° | 51km/h | 17498m | -8.8m/s | -54.5°C | 4.2% | 85.3hPa | 2.6V | 00:00:00 | 00:00:00 | 00:00:00 | |
| S3001 | 2026-09-06 00:51:09 | 53.76270 | 11.29755 | 102° | 69km/h | 17506m | -8.7m/s | -54.7°C | 1.2% | 85.2hPa | 2.6V | 00:00:00 | 00:00:00 | 00:00:00 | |
| DO2SHX-10 | 2026-09-06 00:51:08 | 53.76275 | 11.29725 | 108° | 69km/h | 17515m | -9.0m/s | -54.7°C | 4.3% | 85.0hPa | 2.6V | 00:00:00 | 02:31:17 | 00:00:00 | |
| DL1XH-15 | 2026-09-06 00:51:06 | 53.76329 | 11.29572 | 126° | 44km/h | 17578m | -9.5m/s | -54.9°C | 4.4% | 84.2hPa | 2.6V | 08:12:52 | 02:31:10 | 00:00:00 | |
| DF8AY | 2026-09-06 00:51:05 | 53.76306 | 11.29625 | 126° | 58km/h | 17550m | -8.8m/s | -54.9°C | 0.7% | 84.6hPa | 2.5V | 08:13:35 | 02:31:13 | 00:00:00 | |
| DL1XH-west | 2026-09-06 00:51:03 | 53.76314 | 11.29605 | 128° | 55km/h | 17559m | -9.2m/s | -54.8°C | 0.6% | 84.5hPa | 2.5V | 08:13:35 | 02:31:12 | 00:00:00 | |
| AA1-15 | 2026-09-06 00:51:00 | 53.76335 | 11.29557 | 120° | 38km/h | 17587m | -9.7m/s | -54.8°C | 0.6% | 84.2hPa | 2.6V | 08:13:35 | 02:31:09 | 00:00:00 | |
| DL1XH1-15 | 2026-09-06 00:50:59 | 53.76342 | 11.29527 | 98° | 38km/h | 17605m | -8.8m/s | -54.7°C | 4.4% | 83.8hPa | 2.5V | 08:12:55 | 02:31:07 | 00:00:00 | |
| HTAHTA | 2026-09-06 00:50:59 | 53.76349 | 11.29408 | 102° | 71km/h | 17649m | -8.8m/s | -54.4°C | 1.2% | 83.3hPa | 2.5V | 00:00:00 | 00:00:00 | 00:00:00 | |
| GOEST3-10 | 2026-09-06 00:50:58 | 53.76342 | 11.29527 | 99° | 53km/h | 17606m | -8.7m/s | -54.7°C | 4.4% | 83.8hPa | 2.5V | 00:00:00 | 02:31:07 | 00:00:00 | |
| DG6HD-15 | 2026-09-06 00:50:57 | 53.76342 | 11.29527 | 100° | 38km/h | 17606m | -8.8m/s | -54.7°C | 1.2% | 83.9hPa | 2.5V | 08:13:00 | 00:00:00 | 00:00:00 | |
| DL1XH-15 | 2026-09-06 00:50:56 | 53.76360 | 11.29348 | 111° | 73km/h | 17667m | -9.6m/s | -54.3°C | 4.2% | 83.1hPa | 2.5V | 08:13:02 | 02:31:00 | 00:00:00 | |
| DB0DAN | 2026-09-06 00:50:55 | 53.76344 | 11.29464 | 94° | 58km/h | 17632m | -8.8m/s | -54.3°C | 1.2% | 83.56hPa | 2.6V | 00:00:00 | 00:00:00 | 00:00:00 | |
| DF8AY | 2026-09-06 00:50:54 | 53.76346 | 11.29437 | 98° | 68km/h | 17641m | -8.4m/s | -54.3°C | 0.5% | 83.4hPa | 2.5V | 08:13:35 | 02:31:03 | 00:00:00 | |
| DL1XH-west | 2026-09-06 00:50:52 | 53.76353 | 11.29378 | 107° | 73km/h | 17658m | -9m/s | -54.4°C | 0.5% | 83.2hPa | 2.5V | 08:13:35 | 02:31:01 | 00:00:00 | |
| AA1-15 | 2026-09-06 00:50:50 | 53.76375 | 11.29294 | 120° | 68km/h | 17686m | -9.3m/s | -54.3°C | 0.6% | 82.8hPa | 2.6V | 08:13:35 | 02:30:58 | 00:00:00 | |
| SMARD9-15 | 2026-09-06 00:50:48 | 53.76392 | 11.29250 | 125° | 55km/h | 17703m | -9.2m/s | -54.2°C | 1.1% | 82.6hPa | 2.5V | 00:00:00 | 00:00:00 | 00:00:00 | |
| EDDB2-12 | 2026-09-06 00:50:46 | 53.76406 | 11.29214 | 117° | 46km/h | 17722m | -9.3m/s | -54.1°C | 1.2% | 82.4hPa | 2.5V | 00:00:00 | 00:00:00 | 00:00:00 | |
| DF8AY | 2026-09-06 00:50:43 | 53.76413 | 11.29178 | 102° | 47km/h | 17740m | -8.6m/s | -53.8°C | 0.6% | 82.2hPa | 2.5V | 08:13:35 | 02:30:52 | 00:00:00 | |
| GOEST3-10 | 2026-09-06 00:50:43 | 53.76413 | 11.29177 | 102° | 60km/h | 17740m | -8.5m/s | -53.8°C | 4.2% | 82.1hPa | 2.5V | 00:00:00 | 00:00:00 | 00:00:00 | |
| DL1XH-15 | 2026-09-06 00:50:42 | 53.76418 | 11.29132 | 99° | 60km/h | 17757m | -8.8m/s | -53.7°C | 4.1% | 82hPa | 2.5V | 08:13:12 | 02:30:50 | 00:00:00 | |
| DL1XH-west | 2026-09-06 00:50:41 | 53.76418 | 11.29132 | 99° | 60km/h | 17757m | -8.8m/s | -53.7°C | 0.5% | 82hPa | 2.5V | 08:13:35 | 02:30:50 | 00:00:00 | |
| DB0DAN | 2026-09-06 00:50:40 | 53.76421 | 11.29106 | 103° | 62km/h | 17766m | -9.4m/s | -53.6°C | 1.1% | 81.85hPa | 2.5V | 00:00:00 | 00:00:00 | 00:00:00 | |
| AA1-15 | 2026-09-06 00:50:39 | 53.76425 | 11.29078 | 107° | 68km/h | 17776m | -9.3m/s | -53.4°C | 0.5% | 81.7hPa | 2.6V | 08:13:35 | 02:30:48 | 00:00:00 | |
| DL1XH1-15 | 2026-09-06 00:50:39 | 53.76431 | 11.29051 | 113° | 69km/h | 17785m | -9.7m/s | -53.4°C | 4.1% | 81.6hPa | 2.6V | 08:13:15 | 02:30:47 | 00:00:00 | |
| DF8AY | 2026-09-06 00:50:32 | 53.76483 | 11.28925 | 130° | 51km/h | 17840m | -8.8m/s | -53.3°C | 0.5% | 80.9hPa | 2.5V | 08:13:35 | 02:30:41 | 00:00:00 | |
| DL1XH-15 | 2026-09-06 00:50:32 | 53.76491 | 11.28908 | 128° | 49km/h | 17848m | -9.4m/s | -53.3°C | 4.1% | 80.8hPa | 2.6V | 08:13:22 | 02:30:40 | 00:00:00 | |
| DL1XH-west | 2026-09-06 00:50:31 | 53.76491 | 11.28908 | 128° | 51km/h | 17849m | -9.4m/s | -53.3°C | 0.5% | 80.8hPa | 2.6V | 08:13:35 | 02:30:40 | 00:00:00 | |
| DL1XH1-15 | 2026-09-06 00:50:29 | 53.76516 | 11.28854 | 128° | 58km/h | 17877m | -9.2m/s | -53.4°C | 4.2% | 80.5hPa | 2.5V | 08:13:25 | 02:30:37 | 00:00:00 | |
| DO2SHX-10 | 2026-09-06 00:50:29 | 53.76507 | 11.28873 | 127° | 57km/h | 17868m | -9.0m/s | -53.3°C | 4.2% | 80.5hPa | 2.6V | 08:13:00 | 02:30:38 | 00:00:00 | |
| AA1-15 | 2026-09-06 00:50:29 | 53.76507 | 11.28873 | 127° | 55km/h | 17867m | -9.1m/s | -53.4°C | 0.6% | 80.6hPa | 2.6V | 08:13:35 | 02:30:38 | 00:00:00 | |
| HTAHTA | 2026-09-06 00:50:28 | 53.76525 | 11.28835 | 130° | 60km/h | 17886m | -8.7m/s | -53.3°C | 1.2% | 80.4hPa | 2.5V | 00:00:00 | 00:00:00 | 00:00:00 | |
| AP2371 | 2026-09-06 00:50:26 | 53.76525 | 11.28835 | 132° | 60km/h | 17886m | -8.7m/s | -53.3°C | 1.2% | 80.4hPa | 2.5V | 00:00:00 | 00:00:00 | 00:00:00 | |
| DB0DAN | 2026-09-06 00:50:25 | 53.76546 | 11.28798 | 137° | 55km/h | 17904m | -9.6m/s | -53°C | 1.1% | 80.14hPa | 2.5V | 00:00:00 | 00:00:00 | 00:00:00 | |
| DL3AQ-11 | 2026-09-06 00:50:25 | 53.76556 | 11.28782 | 137° | 51km/h | 17914m | -9.6m/s | -52.9°C | 1.1% | 80.0hPa | 2.5V | 00:00:00 | 00:00:00 | 00:00:00 | |
| GOEST3-10 | 2026-09-06 00:50:23 | 53.76565 | 11.28768 | 136° | 46km/h | 17923m | -8.9m/s | -52.7°C | 4.1% | 79.9hPa | 2.5V | 00:00:00 | 00:00:00 | 00:00:00 | |
| DL1XH-15 | 2026-09-06 00:50:22 | 53.76580 | 11.28739 | 125° | 44km/h | 17941m | -9.1m/s | -52.5°C | 3.9% | 79.7hPa | 2.5V | 08:13:32 | 02:30:30 | 00:00:00 | |
| DF8AY | 2026-09-06 00:50:21 | 53.76580 | 11.28739 | 125° | 44km/h | 17941m | -9.1m/s | -52.5°C | 0.4% | 79.7hPa | 2.5V | 08:13:35 | 02:30:30 | 00:00:00 | |
| DL1XH-west | 2026-09-06 00:50:20 | 53.76586 | 11.28724 | 123° | 44km/h | 17950m | -9.2m/s | -52.3°C | 0.4% | 79.5hPa | 2.5V | 08:13:35 | 02:30:29 | 00:00:00 | |
| DL1XH1-15 | 2026-09-06 00:50:19 | 53.76598 | 11.28691 | 121° | 46km/h | 17969m | -9.4m/s | -51.7°C | 3.7% | 79.3hPa | 2.6V | 08:13:35 | 02:30:27 | 00:00:00 | |
| AA1-15 | 2026-09-06 00:50:18 | 53.76604 | 11.28675 | 123° | 44km/h | 17979m | -9.6m/s | -51.4°C | 0.2% | 79.2hPa | 2.6V | 08:14:26 | 02:30:26 | 00:00:00 | |
| DF8AY | 2026-09-06 00:50:11 | 53.76637 | 11.28581 | 123° | 44km/h | 18035m | -9.7m/s | -51.4°C | 0.2% | 78.5hPa | 2.6V | 08:14:26 | 02:30:20 | 00:00:00 | |
| DM0DOS-11 | 2026-09-06 00:50:11 | 53.76654 | 11.28518 | 101° | 44km/h | 18073m | -8.9m/s | -51.4°C | 3.5% | 78hPa | 2.5V | 08:13:46 | 02:30:16 | 00:00:00 | |
| DB0DAN | 2026-09-06 00:50:10 | 53.76643 | 11.28566 | 122° | 40km/h | 18045m | -9.8m/s | -51.4°C | 1% | 78.4hPa | 2.6V | 00:00:00 | 00:00:00 | 00:00:00 | |
| DL1XH-west | 2026-09-06 00:50:10 | 53.76643 | 11.28566 | 122° | 42km/h | 18045m | -9.8m/s | -51.4°C | 0.2% | 78.4hPa | 2.6V | 08:14:26 | 02:30:19 | 00:00:00 | |
| DO2SHX-10 | 2026-09-06 00:50:10 | 53.76643 | 11.28566 | 122° | 40km/h | 18045m | -9.7m/s | -51.4°C | 3.6% | 78.3hPa | 2.6V | 00:00:00 | 02:30:19 | 00:00:00 | |
| DL1XH1-15 | 2026-09-06 00:50:09 | 53.76652 | 11.28535 | 107° | 40km/h | 18064m | -9.6m/s | -51.4°C | 3.5% | 78.2hPa | 2.5V | 08:13:45 | 02:30:17 | 00:00:00 | |
| AA1-15 | 2026-09-06 00:50:06 | 53.76656 | 11.28499 | 98° | 47km/h | 18082m | -8.9m/s | -51.4°C | 0.2% | 78hPa | 2.5V | 08:14:26 | 02:30:15 | 00:00:00 | |
| DO2SHX-10 | 2026-09-06 00:50:04 | 53.76661 | 11.28456 | 104° | 53km/h | 18101m | -9.5m/s | -51.4°C | 3.6% | 77.7hPa | 2.6V | 00:00:00 | 02:30:13 | 00:00:00 | |
| GOEST3-10 | 2026-09-06 00:50:03 | 53.76664 | 11.28434 | 108° | 46km/h | 18111m | -9.5m/s | -51.5°C | 3.6% | 77.6hPa | 2.6V | 00:00:00 | 00:00:00 | 00:00:00 | |
| DL1XH-15 | 2026-09-06 00:50:02 | 53.76674 | 11.28395 | 117° | 46km/h | 18129m | -9m/s | -51.6°C | 3.6% | 77.4hPa | 2.5V | 08:13:52 | 02:30:10 | 00:00:00 | |
| DF8AY | 2026-09-06 00:50:01 | 53.76674 | 11.28395 | 118° | 47km/h | 18129m | -9m/s | -51.6°C | 0.2% | 77.4hPa | 2.5V | 08:14:26 | 02:30:10 | 00:00:00 | |
| DM0DOS-11 | 2026-09-06 00:50:01 | 53.76697 | 11.28339 | 129° | 37km/h | 18166m | -9.5m/s | -51.6°C | 3.6% | 77hPa | 2.6V | 08:13:56 | 02:30:06 | 00:00:00 | |
| DL1XH-west | 2026-09-06 00:49:59 | 53.76685 | 11.28364 | 125° | 38km/h | 18147m | -9.2m/s | -51.7°C | 0.2% | 77.2hPa | 2.5V | 08:14:26 | 02:30:08 | 00:00:00 | |
| DL1XH1-15 | 2026-09-06 00:49:59 | 53.76691 | 11.28351 | 126° | 37km/h | 18156m | -9.6m/s | -51.7°C | 3.7% | 77hPa | 2.6V | 08:13:55 | 02:30:07 | 00:00:00 | |
| DL3AQ-11 | 2026-09-06 00:49:58 | 53.76697 | 11.28339 | 129° | 37km/h | 18166m | -9.5m/s | -51.6°C | 1.0% | 77.0hPa | 2.6V | 00:00:00 | 00:00:00 | 00:00:00 | |
| DL1XH-15 | 2026-09-06 00:49:56 | 53.76741 | 11.28267 | 142° | 40km/h | 18221m | -9.2m/s | -51.6°C | 3.6% | 76.3hPa | 2.6V | 08:14:02 | 02:30:00 | 00:00:00 | |
| SONDE2-11 | 2026-09-06 00:49:56 | 53.76710 | 11.28314 | 134° | 40km/h | 18184m | -8.8m/s | -51.4°C | 0.9% | 76.7hPa | 2.5V | 00:00:00 | 00:00:00 | 00:00:00 | |
| DB0DAN | 2026-09-06 00:49:55 | 53.76710 | 11.28314 | 134° | 38km/h | 18184m | -8.8m/s | -51.4°C | 0.9% | 76.71hPa | 2.5V | 00:00:00 | 00:00:00 | 00:00:00 | |
| AA1-15 | 2026-09-06 00:49:55 | 53.76710 | 11.28314 | 134° | 40km/h | 18184m | -8.8m/s | -51.4°C | 0.2% | 76.7hPa | 2.5V | 08:14:26 | 02:30:04 | 00:00:00 | |
| DO2SHX-10 | 2026-09-06 00:49:55 | 53.76710 | 11.28314 | 135° | 42km/h | 18185m | -8.8m/s | -51.4°C | 3.5% | 76.7hPa | 2.6V | 00:00:00 | 02:30:04 | 00:00:00 | |
| GOEST3-10 | 2026-09-06 00:49:53 | 53.76725 | 11.28289 | 139° | 38km/h | 18203m | -9.1m/s | -51.5°C | 3.6% | 76.5hPa | 2.6V | 00:00:00 | 00:00:00 | 00:00:00 | |
| DO2SHX-10 | 2026-09-06 00:49:52 | 53.76733 | 11.28277 | 140° | 40km/h | 18212m | -9.2m/s | -51.5°C | 3.6% | 76.3hPa | 2.6V | 00:00:00 | 02:30:01 | 00:00:00 | |
| DM0DOS-11 | 2026-09-06 00:49:51 | 53.76775 | 11.28224 | 140° | 27km/h | 18268m | -9.2m/s | -51.8°C | 3.6% | 75.7hPa | 2.5V | 08:14:07 | 02:29:55 | 00:00:00 | |
| DF8AY | 2026-09-06 00:49:50 | 53.76749 | 11.28257 | 143° | 38km/h | 18230m | -9.2m/s | -51.7°C | 0.3% | 76.2hPa | 2.6V | 08:14:26 | 02:29:59 | 00:00:00 | |
| DL1XH1-15 | 2026-09-06 00:49:49 | 53.76763 | 11.28239 | 144° | 33km/h | 18249m | -9.3m/s | -51.8°C | 3.7% | 75.9hPa | 2.5V | 08:14:05 | 02:29:57 | 00:00:00 | |
| DL1XH-west | 2026-09-06 00:49:48 | 53.76763 | 11.28239 | 145° | 33km/h | 18249m | -9.3m/s | -51.8°C | 0.3% | 75.9hPa | 2.5V | 08:14:26 | 02:29:57 | 00:00:00 | |
| AA1-15 | 2026-09-06 00:49:44 | 53.76784 | 11.28210 | 129° | 22km/h | 18286m | -9.2m/s | -51.9°C | 0.3% | 75.5hPa | 2.6V | 08:14:26 | 02:29:53 | 00:00:00 | |
| DO2SHX-10 | 2026-09-06 00:49:43 | 53.76787 | 11.28202 | 123° | 22km/h | 18296m | -9.0m/s | -51.9°C | 3.6% | 75.4hPa | 2.5V | 00:00:00 | 02:29:52 | 00:00:00 | |
| DL1XH-15 | 2026-09-06 00:49:42 | 53.76792 | 11.28185 | 104° | 22km/h | 18314m | -9.3m/s | -52°C | 3.6% | 75.2hPa | 2.5V | 08:14:12 | 02:29:50 | 00:00:00 | |
| DM0DOS-11 | 2026-09-06 00:49:41 | 53.76794 | 11.28126 | 88° | 37km/h | 18361m | -9.5m/s | -52.2°C | 3.7% | 74.6hPa | 2.5V | 08:14:17 | 02:29:45 | 00:00:00 | |
| DB0DAN | 2026-09-06 00:49:40 | 53.76793 | 11.28176 | 100° | 22km/h | 18323m | -9.2m/s | -52°C | 0.9% | 75.12hPa | 2.5V | 00:00:00 | 00:00:00 | 00:00:00 | |
| DO2SHX-10 | 2026-09-06 00:49:40 | 53.76793 | 11.28176 | 101° | 26km/h | 18323m | -9.2m/s | -52.0°C | 3.6% | 75.1hPa | 2.6V | 00:00:00 | 02:29:49 | 00:00:00 | |
| DL1XH1-15 | 2026-09-06 00:49:39 | 53.76794 | 11.28154 | 90° | 27km/h | 18342m | -9.4m/s | -52.1°C | 3.7% | 74.9hPa | 2.6V | 08:14:15 | 02:29:47 | 00:00:00 | |
| DL1XH-west | 2026-09-06 00:49:38 | 53.76794 | 11.28154 | 90° | 27km/h | 18342m | -9.4m/s | -52.1°C | 0.2% | 74.9hPa | 2.6V | 08:14:26 | 02:29:47 | 00:00:00 | |
| AA1-15 | 2026-09-06 00:49:34 | 53.76794 | 11.28091 | 94° | 47km/h | 18380m | -9.5m/s | -52.1°C | 0.3% | 74.4hPa | 2.5V | 08:14:26 | 02:29:43 | 00:00:00 | |
| DL3AQ-11 | 2026-09-06 00:49:34 | 53.76796 | 11.28070 | 98° | 49km/h | 18390m | -9.8m/s | -52.0°C | 1.0% | 74.3hPa | 2.5V | 00:00:00 | 00:00:00 | 00:00:00 | |
| DB0UT-7 | 2026-09-06 00:49:33 | 53.76795 | 11.28070 | 99° | 40km/h | 18390m | -9.7m/s | -52.0°C | 3.7% | 74.2hPa | 2.5V | 00:00:00 | 00:00:00 | 00:00:00 | |
| DL1XH-15 | 2026-09-06 00:49:32 | 53.76802 | 11.28026 | 110° | 57km/h | 18409m | -9.4m/s | -52°C | 3.7% | 74.1hPa | 2.6V | 08:14:22 | 02:29:40 | 00:00:00 | |
| DL1ZP-14 | 2026-09-06 00:49:32 | 53.76802 | 11.28026 | 110° | 55km/h | 18409m | -9.4m/s | -52.0°C | 1.0% | 74.1hPa | 2.6V | 00:00:00 | 00:00:00 | 00:00:00 | |
| DM0DOS-11 | 2026-09-06 00:49:31 | 53.76842 | 11.27937 | 141° | 44km/h | 18456m | -9.4m/s | -52.3°C | 3.8% | 73.5hPa | 2.6V | 08:14:27 | 02:29:35 | 00:00:00 | |
| DL1XH-west | 2026-09-06 00:49:27 | 53.76833 | 11.27950 | 137° | 49km/h | 18447m | -9.9m/s | -52.2°C | 0.3% | 73.6hPa | 2.5V | 08:14:26 | 02:29:36 | 00:00:00 | |
| DL1XH-15 | 2026-09-06 00:49:26 | 53.76872 | 11.27898 | 124° | 20km/h | 18503m | -9.3m/s | -52.6°C | 3.9% | 73hPa | 2.5V | 08:14:32 | 02:29:30 | 00:00:00 | |
| AA1-15 | 2026-09-06 00:49:23 | 53.76864 | 11.27911 | 146° | 27km/h | 18485m | -9.4m/s | -52.5°C | 0.3% | 73.2hPa | 2.5V | 08:15:17 | 02:29:32 | 00:00:00 | |
| GOEST3-10 | 2026-09-06 00:49:23 | 53.76864 | 11.27911 | 146° | 22km/h | 18485m | -9.4m/s | -52.4°C | 3.8% | 73.2hPa | 2.5V | 00:00:00 | 00:00:00 | 00:00:00 | |
| DM0DOS-11 | 2026-09-06 00:49:21 | 53.76876 | 11.27836 | 95° | 46km/h | 18551m | -9.7m/s | -52.8°C | 4% | 72.5hPa | 2.5V | 08:14:37 | 02:29:25 | 00:00:00 | |
| DL1XH-west | 2026-09-06 00:49:17 | 53.76876 | 11.27854 | 92° | 38km/h | 18542m | -9.5m/s | -52.8°C | 0.4% | 72.6hPa | 2.5V | 08:15:17 | 02:29:26 | 00:00:00 | |
| DO2SHX-10 | 2026-09-06 00:49:16 | 53.76877 | 11.27836 | 96° | 47km/h | 18551m | -9.7m/s | -52.8°C | 4.0% | 72.4hPa | 2.5V | 00:00:00 | 02:29:25 | 00:00:00 | |
| SMARD9-15 | 2026-09-06 00:49:15 | 53.76881 | 11.27794 | 106° | 55km/h | 18570m | -9.3m/s | -52.8°C | 1.0% | 72.2hPa | 2.5V | 00:00:00 | 00:00:00 | 00:00:00 | |
| DL1XH1-15 | 2026-09-06 00:49:13 | 53.76928 | 11.27679 | 143° | 44km/h | 18628m | -9.4m/s | -52.4°C | 3.8% | 71.6hPa | 2.5V | 08:14:45 | 02:29:17 | 00:00:00 | |
| AA1-15 | 2026-09-06 00:49:13 | 53.76893 | 11.27748 | 119° | 60km/h | 18589m | -9.7m/s | -52.7°C | 0.4% | 72hPa | 2.6V | 08:15:17 | 02:29:21 | 00:00:00 | |
| DO2SHX-10 | 2026-09-06 00:49:13 | 53.76886 | 11.27771 | 113° | 60km/h | 18579m | -9.5m/s | -52.8°C | 4.0% | 72.1hPa | 2.6V | 00:00:00 | 02:29:22 | 00:00:00 | |
| SONCRA | 2026-09-06 00:49:12 | 53.76910 | 11.27708 | 131° | 55km/h | 18609m | -9.8m/s | -52.4°C | 1.0% | 71.8hPa | 2.6V | 00:00:00 | 00:00:00 | 00:00:00 | |
| DM0DOS-11 | 2026-09-06 00:49:11 | 53.76943 | 11.27663 | 148° | 27km/h | 18646m | -9.5m/s | -52.3°C | 3.8% | 71.4hPa | 2.6V | 08:14:47 | 02:29:15 | 00:00:00 | |
| DB0DAN | 2026-09-06 00:49:10 | 53.76910 | 11.27708 | 132° | 53km/h | 18609m | -9.8m/s | -52.4°C | 1% | 71.8hPa | 2.5V | 00:00:00 | 00:00:00 | 00:00:00 | |
| DL1XH-west | 2026-09-06 00:49:07 | 53.76937 | 11.27670 | 148° | 35km/h | 18637m | -9.3m/s | -52.3°C | 0.3% | 71.5hPa | 2.5V | 08:15:17 | 02:29:16 | 00:00:00 | |
| DF8AY | 2026-09-06 00:49:06 | 53.76943 | 11.27663 | 149° | 27km/h | 18646m | -9.5m/s | -52.3°C | 0.3% | 71.4hPa | 2.6V | 08:15:17 | 02:29:15 | 00:00:00 | |
| DC4HF-4 | 2026-09-06 00:49:06 | 53.76943 | 11.27663 | 148° | 26km/h | 18646m | -9.5m/s | -52.3°C | 1.0% | 71.4hPa | 2.6V | 00:00:00 | 00:00:00 | 00:00:00 | |
| DL3AQ-11 | 2026-09-06 00:49:05 | 53.76951 | 11.27652 | 121° | 15km/h | 18666m | -9.9m/s | -52.1°C | 1.0% | 71.2hPa | 2.6V | 00:00:00 | 00:00:00 | 00:00:00 | |
| DL1XH-15 | 2026-09-06 00:49:04 | 53.76951 | 11.27627 | 76° | 27km/h | 18695m | -9.5m/s | -51.7°C | 3.6% | 70.9hPa | 2.6V | 08:14:52 | 02:29:10 | 00:00:00 | |
| AA1-15 | 2026-09-06 00:49:02 | 53.76952 | 11.27637 | 82° | 20km/h | 18686m | -9.6m/s | -51.8°C | 0.2% | 71hPa | 2.5V | 08:15:17 | 02:29:11 | 00:00:00 | |
| DL1ZP-14 | 2026-09-06 00:49:01 | 53.76949 | 11.27614 | 76° | 35km/h | 18705m | -9.4m/s | -51.7°C | 0.9% | 70.8hPa | 2.6V | 00:00:00 | 00:00:00 | 00:00:00 | |
| DO2SHX-10 | 2026-09-06 00:49:00 | 53.76949 | 11.27614 | 77° | 42km/h | 18705m | -9.4m/s | -51.6°C | 3.6% | 70.7hPa | 2.5V | 00:00:00 | 02:29:09 | 00:00:00 | |
| DL1XH1-15 | 2026-09-06 00:48:59 | 53.76946 | 11.27579 | 86° | 46km/h | 18724m | -9.5m/s | -51.7°C | 3.6% | 70.5hPa | 2.5V | 08:14:55 | 02:29:07 | 00:00:00 | |
| DL1XH-west | 2026-09-06 00:48:56 | 53.76948 | 11.27538 | 101° | 51km/h | 18743m | -9.9m/s | -51.9°C | 0.2% | 70.3hPa | 2.6V | 08:15:17 | 02:29:05 | 00:00:00 | |
| DF8AY | 2026-09-06 00:48:55 | 53.76951 | 11.27516 | 108° | 51km/h | 18753m | -9.5m/s | -51.9°C | 0.2% | 70.2hPa | 2.6V | 08:15:17 | 02:29:04 | 00:00:00 | |
| DB0DAN | 2026-09-06 00:48:55 | 53.76951 | 11.27516 | 108° | 49km/h | 18753m | -9.5m/s | -51.9°C | 1% | 70.22hPa | 2.6V | 00:00:00 | 00:00:00 | 00:00:00 | |
| DL3AQ-11 | 2026-09-06 00:48:54 | 53.76961 | 11.27479 | 124° | 44km/h | 18772m | -9.9m/s | -52.0°C | 0.9% | 70.0hPa | 2.5V | 00:00:00 | 00:00:00 | 00:00:00 | |
| DL1XH1-15 | 2026-09-06 00:48:53 | 53.76987 | 11.27433 | 130° | 13km/h | 18820m | -9.6m/s | -52.4°C | 3.7% | 69.5hPa | 2.5V | 08:15:05 | 02:28:57 | 00:00:00 | |
| AA1-15 | 2026-09-06 00:48:51 | 53.76974 | 11.27453 | 136° | 33km/h | 18792m | -9.7m/s | -52.2°C | 0.2% | 69.8hPa | 2.6V | 08:15:17 | 02:29:00 | 00:00:00 | |
| DM0DOS-11 | 2026-09-06 00:48:51 | 53.76987 | 11.27426 | 60° | 11km/h | 18840m | -10.3m/s | -52.5°C | 3.7% | 69.3hPa | 2.5V | 08:15:07 | 02:28:55 | 00:00:00 | |
| DJ2DS-15 | 2026-09-06 00:48:51 | 53.76974 | 11.27453 | 137° | 35km/h | 18792m | -9.6m/s | -52.1°C | 3.6% | 69.8hPa | 2.5V | 00:00:00 | 02:29:00 | 00:00:00 | |
| DO2SHX-10 | 2026-09-06 00:48:48 | 53.76987 | 11.27433 | 131° | 11km/h | 18820m | -9.6m/s | -52.3°C | 3.7% | 69.5hPa | 2.5V | 00:00:00 | 02:28:57 | 00:00:00 | |
| DL1XH-15 | 2026-09-06 00:48:46 | 53.76968 | 11.27376 | 67° | 44km/h | 18888m | -9.4m/s | -52.8°C | 3.9% | 68.8hPa | 2.5V | 08:15:12 | 02:28:50 | 00:00:00 | |
| DL1XH-west | 2026-09-06 00:48:46 | 53.76987 | 11.27426 | 61° | 11km/h | 18840m | -10.3m/s | -52.5°C | 0.2% | 69.3hPa | 2.5V | 08:15:17 | 02:28:55 | 00:00:00 | |
| DF8AY | 2026-09-06 00:48:44 | 53.76982 | 11.27414 | 50° | 26km/h | 18860m | -9.8m/s | -52.7°C | 0.3% | 69.1hPa | 2.6V | 08:15:17 | 02:28:53 | 00:00:00 | |
| SMARD9-15 | 2026-09-06 00:48:44 | 53.76977 | 11.27404 | 54° | 31km/h | 18869m | -9.6m/s | -52.7°C | 1.0% | 69.0hPa | 2.5V | 00:00:00 | 00:00:00 | 00:00:00 | |
| GOEST3-10 | 2026-09-06 00:48:43 | 53.76977 | 11.27404 | 55° | 42km/h | 18870m | -9.5m/s | -52.7°C | 3.9% | 68.9hPa | 2.5V | 00:00:00 | 00:00:00 | 00:00:00 | |
| DO2SHX-10 | 2026-09-06 00:48:42 | 53.76973 | 11.27392 | 61° | 46km/h | 18879m | -9.2m/s | -52.7°C | 3.9% | 68.8hPa | 2.5V | 00:00:00 | 02:28:51 | 00:00:00 | |
| DM0DOS-11 | 2026-09-06 00:48:41 | 53.76959 | 11.27274 | 94° | 49km/h | 18937m | -10m/s | -52.9°C | 4% | 68.3hPa | 2.5V | 08:15:17 | 02:28:45 | 00:00:00 | |
| DB0DAN | 2026-09-06 00:48:40 | 53.76964 | 11.27358 | 72° | 46km/h | 18897m | -9.3m/s | -52.8°C | 1% | 68.68hPa | 2.6V | 00:00:00 | 00:00:00 | 00:00:00 | |
| AA1-15 | 2026-09-06 00:48:40 | 53.76964 | 11.27358 | 72° | 47km/h | 18897m | -9.3m/s | -52.8°C | 0.4% | 68.7hPa | 2.6V | 08:15:17 | 02:28:49 | 00:00:00 | |
| DL1XH1-15 | 2026-09-06 00:48:39 | 53.76959 | 11.27316 | 84° | 51km/h | 18917m | -10.1m/s | -52.8°C | 3.9% | 68.5hPa | 2.5V | 08:15:15 | 02:28:47 | 00:00:00 | |
| DL3AQ-11 | 2026-09-06 00:48:38 | 53.76958 | 11.27295 | 88° | 49km/h | 18927m | -9.8m/s | -52.8°C | 1.0% | 68.4hPa | 2.5V | 00:00:00 | 00:00:00 | 00:00:00 | |
| DO2SHX-10 | 2026-09-06 00:48:37 | 53.76958 | 11.27295 | 89° | 49km/h | 18927m | -9.7m/s | -52.8°C | 4.0% | 68.3hPa | 2.5V | 08:15:00 | 02:28:46 | 00:00:00 | |
| DL1XH-15 | 2026-09-06 00:48:36 | 53.76971 | 11.27197 | 109° | 22km/h | 18984m | -10m/s | -53°C | 4% | 67.7hPa | 2.5V | 08:15:22 | 02:28:40 | 00:00:00 | |
| DL1XH-west | 2026-09-06 00:48:35 | 53.76960 | 11.27254 | 100° | 46km/h | 18946m | -9.4m/s | -53°C | 0.4% | 68.1hPa | 2.5V | 08:16:08 | 02:28:44 | 00:00:00 | |
| DF8AY | 2026-09-06 00:48:34 | 53.76966 | 11.27220 | 112° | 35km/h | 18965m | -9.6m/s | -53.1°C | 0.4% | 68hPa | 2.6V | 08:16:08 | 02:28:42 | 00:00:00 | |
| DK7RCA | 2026-09-06 00:48:34 | 53.76962 | 11.27236 | 108° | 42km/h | 18956m | -9.5m/s | -53.0°C | 1.1% | 68.1hPa | 2.6V | 00:00:00 | 00:00:00 | 00:00:00 | |
| DG6HD-15 | 2026-09-06 00:48:33 | 53.76966 | 11.27220 | 113° | 35km/h | 18966m | -9.6m/s | -53.1°C | 1.0% | 68.0hPa | 2.6V | 08:16:00 | 00:00:00 | 00:00:00 | |
| DM0DOS-11 | 2026-09-06 00:48:31 | 53.76962 | 11.27151 | 56° | 38km/h | 19033m | -9.7m/s | -52.4°C | 3.9% | 67.3hPa | 2.6V | 08:15:27 | 02:28:35 | 00:00:00 | |
| AA1-15 | 2026-09-06 00:48:29 | 53.76972 | 11.27181 | 76° | 18km/h | 19004m | -9.8m/s | -53°C | 0.4% | 67.5hPa | 2.5V | 08:16:08 | 02:28:38 | 00:00:00 | |
| D01LWL | 2026-09-06 00:48:28 | 53.76967 | 11.27163 | 56° | 29km/h | 19023m | -9.4m/s | -52.6°C | 1.0% | 67.4hPa | 2.6V | 00:00:00 | 00:00:00 | 00:00:00 | |
| DL1XH-15 | 2026-09-06 00:48:26 | 53.76937 | 11.27052 | 79° | 60km/h | 19083m | -10.2m/s | -51.8°C | 3.7% | 66.7hPa | 2.6V | 08:15:32 | 02:28:30 | 00:00:00 | |
| DB0DAN | 2026-09-06 00:48:25 | 53.76957 | 11.27137 | 59° | 42km/h | 19043m | -9.8m/s | -52.4°C | 1% | 67.2hPa | 2.5V | 00:00:00 | 00:00:00 | 00:00:00 | |
| DL1XH-west | 2026-09-06 00:48:24 | 53.76951 | 11.27119 | 63° | 49km/h | 19053m | -10m/s | -52.3°C | 0.4% | 67.1hPa | 2.5V | 08:16:08 | 02:28:33 | 00:00:00 | |
| DF8AY | 2026-09-06 00:48:23 | 53.76946 | 11.27099 | 68° | 55km/h | 19063m | -10.1m/s | -52.3°C | 0.4% | 67hPa | 2.5V | 08:16:08 | 02:28:32 | 00:00:00 | |
| SONDE2-11 | 2026-09-06 00:48:23 | 53.76941 | 11.27077 | 73° | 57km/h | 19073m | -10.2m/s | -52.1°C | 1.0% | 66.8hPa | 2.6V | 00:00:00 | 00:00:00 | 00:00:00 | |
| DM0DOS-11 | 2026-09-06 00:48:21 | 53.76942 | 11.26923 | 108° | 57km/h | 19133m | -9.9m/s | -51.5°C | 3.6% | 66.2hPa | 2.6V | 08:15:37 | 02:28:25 | 00:00:00 | |
| AA1-15 | 2026-09-06 00:48:18 | 53.76936 | 11.26973 | 97° | 62km/h | 19113m | -9.8m/s | -51.4°C | 0.2% | 66.4hPa | 2.5V | 08:16:08 | 02:28:27 | 00:00:00 | |
| GOEST3-10 | 2026-09-06 00:48:18 | 53.76936 | 11.26973 | 97° | 57km/h | 19114m | -9.7m/s | -51.3°C | 3.5% | 66.4hPa | 2.5V | 08:15:00 | 02:28:27 | 00:00:00 | |
| DO2SHX-10 | 2026-09-06 00:48:17 | 53.76938 | 11.26947 | 103° | 57km/h | 19123m | -9.8m/s | -51.4°C | 3.6% | 66.3hPa | 2.5V | 00:00:00 | 02:28:26 | 00:00:00 | |
| DL1XH-15 | 2026-09-06 00:48:16 | 53.76966 | 11.26837 | 112° | 31km/h | 19184m | -10.1m/s | -51.9°C | 3.7% | 65.7hPa | 2.5V | 08:15:42 | 02:28:20 | 00:00:00 | |
| DL1XH-west | 2026-09-06 00:48:14 | 53.76952 | 11.26882 | 116° | 47km/h | 19153m | -10m/s | -51.7°C | 0.2% | 66hPa | 2.6V | 08:16:08 | 02:28:23 | 00:00:00 | |
| DF8AY | 2026-09-06 00:48:12 | 53.76962 | 11.26850 | 117° | 37km/h | 19173m | -10.6m/s | -51.8°C | 0.3% | 65.8hPa | 2.5V | 08:16:08 | 02:28:21 | 00:00:00 | |
| DM0DOS-11 | 2026-09-06 00:48:11 | 53.76963 | 11.26768 | 74° | 44km/h | 19233m | -9.9m/s | -52.1°C | 3.7% | 65.2hPa | 2.5V | 08:15:47 | 02:28:15 | 00:00:00 | |
| DB0DAN | 2026-09-06 00:48:10 | 53.76968 | 11.26824 | 104° | 27km/h | 19194m | -9.8m/s | -51.9°C | 1% | 65.6hPa | 2.5V | 00:00:00 | 00:00:00 | 00:00:00 | |
| SONCRA | 2026-09-06 00:48:10 | 53.76968 | 11.26824 | 104° | 27km/h | 19194m | -9.8m/s | -51.9°C | 1.0% | 65.6hPa | 2.6V | 00:00:00 | 00:00:00 | 00:00:00 | |
| DL1XH1-15 | 2026-09-06 00:48:09 | 53.76968 | 11.26800 | 78° | 31km/h | 19213m | -9.9m/s | -52°C | 3.7% | 65.4hPa | 2.6V | 08:15:45 | 02:28:17 | 00:00:00 | |
| AA1-15 | 2026-09-06 00:48:08 | 53.76968 | 11.26800 | 79° | 31km/h | 19214m | -9.9m/s | -52°C | 0.2% | 65.4hPa | 2.6V | 08:16:08 | 02:28:17 | 00:00:00 | |
| DL1XH-15 | 2026-09-06 00:48:06 | 53.76959 | 11.26652 | 100° | 64km/h | 19283m | -10.1m/s | -52.1°C | 3.7% | 64.7hPa | 2.5V | 08:15:52 | 02:28:10 | 00:00:00 | |
| DL1XH-west | 2026-09-06 00:48:04 | 53.76958 | 11.26727 | 82° | 55km/h | 19254m | -10.1m/s | -52.1°C | 0.3% | 65hPa | 2.6V | 08:16:08 | 02:28:13 | 00:00:00 | |
| DF8AY | 2026-09-06 00:48:03 | 53.76957 | 11.26678 | 94° | 62km/h | 19273m | -9.8m/s | -52.1°C | 0.3% | 64.8hPa | 2.5V | 08:16:08 | 02:28:11 | 00:00:00 | |
| DO2SHX-10 | 2026-09-06 00:48:03 | 53.76957 | 11.26703 | 88° | 60km/h | 19264m | -9.9m/s | -52.1°C | 3.7% | 64.9hPa | 2.5V | 00:00:00 | 02:28:12 | 00:00:00 | |
| AM1SDL-15 | 2026-09-06 00:48:02 | 53.76957 | 11.26678 | 94° | 58km/h | 19274m | -9.8m/s | -52.1°C | 3.8% | 64.8hPa | 2.5V | 00:00:00 | 02:28:11 | 00:00:00 | |
| DM0DOS-11 | 2026-09-06 00:48:00 | 53.77000 | 11.26521 | 134° | 49km/h | 19344m | -9.9m/s | -52.2°C | 3.8% | 64.1hPa | 2.5V | 08:15:58 | 02:28:04 | 00:00:00 | |
| AA1-15 | 2026-09-06 00:47:57 | 53.76983 | 11.26556 | 124° | 57km/h | 19324m | -10.1m/s | -52.1°C | 0.3% | 64.3hPa | 2.6V | 08:16:08 | 02:28:06 | 00:00:00 | |
| DF8AY | 2026-09-06 00:47:56 | 53.77029 | 11.26476 | 139° | 29km/h | 19385m | -10m/s | -52°C | 0.3% | 63.7hPa | 2.6V | 08:16:08 | 02:28:00 | 00:00:00 | |
| DL1XH-west | 2026-09-06 00:47:54 | 53.77008 | 11.26507 | 137° | 44km/h | 19354m | -10m/s | -52.2°C | 0.3% | 64hPa | 2.5V | 08:16:08 | 02:28:03 | 00:00:00 | |
| DL1XH-15 | 2026-09-06 00:47:53 | 53.77029 | 11.26476 | 138° | 29km/h | 19384m | -10m/s | -52°C | 3.7% | 63.7hPa | 2.6V | 08:16:02 | 02:28:00 | 00:00:00 | |
| SONDE2-11 | 2026-09-06 00:47:52 | 53.77029 | 11.26476 | 138° | 27km/h | 19385m | -10.0m/s | -52.0°C | 0.9% | 63.7hPa | 2.6V | 00:00:00 | 00:00:00 | 00:00:00 | |
| DJ2DS-15 | 2026-09-06 00:47:51 | 53.77029 | 11.26476 | 139° | 42km/h | 19385m | -10.0m/s | -52.0°C | 3.7% | 63.6hPa | 2.6V | 00:00:00 | 02:28:00 | 00:00:00 | |
| DO2SHX-10 | 2026-09-06 00:47:49 | 53.77038 | 11.26460 | 119° | 26km/h | 19405m | -9.8m/s | -51.9°C | 3.8% | 63.4hPa | 2.6V | 00:00:00 | 02:27:58 | 00:00:00 | |
| DM0DOS-11 | 2026-09-06 00:47:48 | 53.77039 | 11.26411 | 85° | 40km/h | 19444m | -10.1m/s | -51.8°C | 3.8% | 63.1hPa | 2.6V | 08:16:08 | 02:27:54 | 00:00:00 | |
| AA1-15 | 2026-09-06 00:47:47 | 53.77040 | 11.26440 | 91° | 27km/h | 19425m | -10m/s | -51.9°C | 0.3% | 63.3hPa | 2.5V | 08:16:08 | 02:27:56 | 00:00:00 | |
| EDDB2-11 | 2026-09-06 00:47:47 | 53.77040 | 11.26427 | 86° | 33km/h | 19435m | -9.8m/s | -51.8°C | 1.0% | 63.2hPa | 2.5V | 00:00:00 | 00:00:00 | 00:00:00 | |
| DL3AQ-11 | 2026-09-06 00:47:45 | 53.77039 | 11.26393 | 87° | 44km/h | 19455m | -10.2m/s | -51.8°C | 1.0% | 63.0hPa | 2.5V | 00:00:00 | 00:00:00 | 00:00:00 | |
| DL1XH-west | 2026-09-06 00:47:43 | 53.77039 | 11.26351 | 95° | 53km/h | 19476m | -10.7m/s | -51.8°C | 0.3% | 62.8hPa | 2.5V | 08:16:59 | 02:27:51 | 00:00:00 | |
| DL1XH1-15 | 2026-09-06 00:47:43 | 53.77055 | 11.26262 | 119° | 55km/h | 19516m | -9.9m/s | -51.9°C | 3.9% | 62.4hPa | 2.6V | 08:16:15 | 02:27:47 | 00:00:00 | |
| DF8AY | 2026-09-06 00:47:41 | 53.77044 | 11.26305 | 107° | 57km/h | 19496m | -10.2m/s | -51.8°C | 0.3% | 62.6hPa | 2.6V | 08:17:50 | 02:27:49 | 00:00:00 | |
| AA1-15 | 2026-09-06 00:47:37 | 53.77070 | 11.26225 | 130° | 51km/h | 19536m | -10.4m/s | -52°C | 0.4% | 62.2hPa | 2.5V | 08:16:59 | 02:27:45 | 00:00:00 | |
| DL1XH-west | 2026-09-06 00:47:32 | 53.77102 | 11.26176 | 144° | 33km/h | 19579m | -10.5m/s | -51.5°C | 0.3% | 61.8hPa | 2.6V | 08:16:59 | 02:27:41 | 00:00:00 | |
| DF8AY | 2026-09-06 00:47:30 | 53.77113 | 11.26163 | 145° | 20km/h | 19600m | -9.7m/s | -50.9°C | 0.2% | 61.6hPa | 2.5V | 08:17:50 | 02:27:39 | 00:00:00 | |
| DL1XH1-15 | 2026-09-06 00:47:29 | 53.77118 | 11.26153 | 102° | 13km/h | 19619m | -9.6m/s | -50.8°C | 3.5% | 61.5hPa | 2.6V | 08:16:25 | 02:27:37 | 00:00:00 | |
| GOEST3-10 | 2026-09-06 00:47:28 | 53.77118 | 11.26153 | 103° | 20km/h | 19619m | -9.6m/s | -50.8°C | 3.5% | 61.4hPa | 2.6V | 00:00:00 | 02:27:37 | 00:00:00 | |
| DL1ZP-14 | 2026-09-06 00:47:27 | 53.77118 | 11.26147 | 77° | 13km/h | 19629m | -10.0m/s | -50.9°C | 0.9% | 61.4hPa | 2.6V | 00:00:00 | 00:00:00 | 00:00:00 | |
| DM0DOS-11 | 2026-09-06 00:47:26 | 53.77114 | 11.26132 | 64° | 26km/h | 19649m | -10.8m/s | -51°C | 3.5% | 61.1hPa | 2.5V | 08:16:28 | 02:27:34 | 00:00:00 | |
| DL1XH-15 | 2026-09-06 00:47:26 | 53.77104 | 11.26074 | 84° | 46km/h | 19692m | -10.1m/s | -51.1°C | 3.6% | 60.7hPa | 2.6V | 08:16:32 | 02:27:30 | 00:00:00 | |
| DB0DAN | 2026-09-06 00:47:25 | 53.77114 | 11.26132 | 65° | 24km/h | 19650m | -10.8m/s | -51°C | 0.9% | 61.13hPa | 2.5V | 00:00:00 | 00:00:00 | 00:00:00 | |
| AA1-15 | 2026-09-06 00:47:25 | 53.77114 | 11.26132 | 65° | 26km/h | 19650m | -10.8m/s | -51°C | 0.1% | 61.1hPa | 2.5V | 08:16:59 | 02:27:34 | 00:00:00 | |
| DL1XH-west | 2026-09-06 00:47:21 | 53.77104 | 11.26074 | 84° | 46km/h | 19692m | -10.1m/s | -51.2°C | 0.2% | 60.7hPa | 2.6V | 08:16:59 | 02:27:30 | 00:00:00 | |
| SONDE2-11 | 2026-09-06 00:47:21 | 53.77104 | 11.26054 | 91° | 49km/h | 19702m | -10.2m/s | -51.2°C | 0.9% | 60.6hPa | 2.5V | 00:00:00 | 00:00:00 | 00:00:00 | |
| DL1XH1-15 | 2026-09-06 00:47:19 | 53.77107 | 11.26010 | 104° | 53km/h | 19723m | -10.7m/s | -51°C | 3.6% | 60.5hPa | 2.5V | 08:16:35 | 02:27:27 | 00:00:00 | |
| DF8AY | 2026-09-06 00:47:19 | 53.77105 | 11.26032 | 98° | 53km/h | 19712m | -10m/s | -51.1°C | 0.2% | 60.6hPa | 2.5V | 08:17:50 | 02:27:28 | 00:00:00 | |
| DO2SHX-10 | 2026-09-06 00:47:18 | 53.77107 | 11.26010 | 105° | 53km/h | 19723m | -10.7m/s | -50.9°C | 3.6% | 60.4hPa | 2.5V | 00:00:00 | 02:27:27 | 00:00:00 | |
| DM0DOS-11 | 2026-09-06 00:47:16 | 53.77122 | 11.25947 | 120° | 51km/h | 19755m | -11.1m/s | -50.9°C | 3.5% | 60.2hPa | 2.6V | 08:16:38 | 02:27:24 | 00:00:00 | |
| DL1XH-15 | 2026-09-06 00:47:16 | 53.77150 | 11.25895 | 144° | 29km/h | 19798m | -10.4m/s | -51°C | 3.5% | 59.7hPa | 2.5V | 08:16:42 | 02:27:20 | 00:00:00 | |
| AA1-15 | 2026-09-06 00:47:15 | 53.77123 | 11.25947 | 121° | 51km/h | 19755m | -11.1m/s | -50.9°C | 0.1% | 60.2hPa | 2.6V | 08:16:59 | 02:27:24 | 00:00:00 | |
| DL1XH-west | 2026-09-06 00:47:11 | 53.77150 | 11.25895 | 145° | 29km/h | 19799m | -10.4m/s | -51°C | 0.2% | 59.7hPa | 2.5V | 08:16:59 | 02:27:20 | 00:00:00 | |
| DB0DAN | 2026-09-06 00:47:10 | 53.77155 | 11.25890 | 149° | 20km/h | 19809m | -10.2m/s | -51°C | 0.9% | 59.69hPa | 2.6V | 00:00:00 | 00:00:00 | 00:00:00 | |
| DF5WG-10 | 2026-09-06 00:47:10 | 53.77155 | 11.25890 | 150° | 26km/h | 19809m | -10.1m/s | -51.0°C | 3.5% | 59.6hPa | 2.6V | 00:00:00 | 02:27:19 | 00:00:00 | |
| DL1XH1-15 | 2026-09-06 00:47:09 | 53.77161 | 11.25883 | 123° | 7km/h | 19830m | -10.3m/s | -51.1°C | 3.5% | 59.5hPa | 2.5V | 08:16:45 | 02:27:17 | 00:00:00 | |
| DF8AY | 2026-09-06 00:47:09 | 53.77161 | 11.25883 | 123° | 7km/h | 19830m | -10.3m/s | -51.1°C | 0.2% | 59.5hPa | 2.5V | 08:17:50 | 02:27:17 | 00:00:00 | |
| GOEST3-10 | 2026-09-06 00:47:08 | 53.77161 | 11.25883 | 124° | 15km/h | 19830m | -10.3m/s | -51.1°C | 3.5% | 59.4hPa | 2.5V | 00:00:00 | 02:27:17 | 00:00:00 | |
| DL1XH-15 | 2026-09-06 00:47:06 | 53.77148 | 11.25822 | 82° | 38km/h | 19903m | -10.6m/s | -51.6°C | 3.7% | 58.8hPa | 2.5V | 08:16:52 | 02:27:10 | 00:00:00 | |
| AA1-15 | 2026-09-06 00:47:04 | 53.77155 | 11.25861 | 62° | 26km/h | 19872m | -10.4m/s | -51.4°C | 0.2% | 59.1hPa | 2.6V | 08:16:59 | 02:27:13 | 00:00:00 | |
| DL1XH-west | 2026-09-06 00:47:01 | 53.77147 | 11.25805 | 89° | 40km/h | 19913m | -9.9m/s | -51.6°C | 0.3% | 58.7hPa | 2.5V | 08:16:59 | 02:27:09 | 00:00:00 | |
| DO2SHX-10 | 2026-09-06 00:47:01 | 53.77148 | 11.25822 | 83° | 40km/h | 19903m | -10.6m/s | -51.5°C | 3.7% | 58.8hPa | 2.5V | 00:00:00 | 02:27:10 | 00:00:00 | |
| DM0DOS-11 | 2026-09-06 00:46:59 | 53.77163 | 11.25725 | 130° | 38km/h | 19966m | -10.6m/s | -51.5°C | 3.6% | 58.2hPa | 2.5V | 08:16:58 | 02:27:04 | 00:00:00 | |
| DF8AY | 2026-09-06 00:46:57 | 53.77153 | 11.25754 | 112° | 40km/h | 19946m | -10.8m/s | -51.6°C | 0.3% | 58.4hPa | 2.6V | 08:17:50 | 02:27:06 | 00:00:00 | |
| DL1XH-15 | 2026-09-06 00:46:56 | 53.77188 | 11.25695 | 165° | 22km/h | 20010m | -11.1m/s | -51.6°C | 3.7% | 57.9hPa | 2.6V | 08:17:02 | 02:27:00 | 00:00:00 | |
| DB0DAN | 2026-09-06 00:46:55 | 53.77163 | 11.25725 | 130° | 37km/h | 19967m | -10.6m/s | -51.5°C | 0.9% | 58.25hPa | 2.5V | 00:00:00 | 00:00:00 | 00:00:00 | |
| AA1-15 | 2026-09-06 00:46:53 | 53.77176 | 11.25705 | 148° | 33km/h | 19988m | -10.9m/s | -51.5°C | 0.3% | 58hPa | 2.5V | 08:17:50 | 02:27:02 | 00:00:00 | |
| DL1XH-west | 2026-09-06 00:46:49 | 53.77197 | 11.25695 | 198° | 11km/h | 20031m | -10.5m/s | -51.7°C | 0.3% | 57.7hPa | 2.5V | 08:17:50 | 02:26:58 | 00:00:00 | |
| DF8AY | 2026-09-06 00:46:47 | 53.77198 | 11.25699 | 323° | 7km/h | 20052m | -10.6m/s | -51.4°C | 0.2% | 57.5hPa | 2.6V | 08:17:50 | 02:26:56 | 00:00:00 | |
| DF5WG-10 | 2026-09-06 00:46:47 | 53.77198 | 11.25699 | 324° | 26km/h | 20053m | -10.5m/s | -51.3°C | 3.5% | 57.4hPa | 2.5V | 00:00:00 | 02:26:56 | 00:00:00 | |
| DM0DOS-11 | 2026-09-06 00:46:46 | 53.77191 | 11.25700 | 5° | 18km/h | 20074m | -11m/s | -51.4°C | 3.6% | 57.2hPa | 2.5V | 08:17:08 | 02:26:54 | 00:00:00 | |
| EDDB2-11 | 2026-09-06 00:46:45 | 53.77186 | 11.25699 | 17° | 22km/h | 20085m | -11.1m/s | -51.4°C | 0.9% | 57.2hPa | 2.5V | 00:00:00 | 00:00:00 | 00:00:00 | |
| DL1XH1-15 | 2026-09-06 00:46:43 | 53.77168 | 11.25617 | 110° | 35km/h | 20161m | -10.9m/s | -51.5°C | 3.6% | 56.5hPa | 2.5V | 08:17:16 | 02:26:46 | 00:00:00 | |
| AA1-15 | 2026-09-06 00:46:42 | 53.77175 | 11.25687 | 45° | 31km/h | 20107m | -10.9m/s | -51.4°C | 0.2% | 57hPa | 2.5V | 08:17:50 | 02:26:51 | 00:00:00 | |
| DO2SHX-10 | 2026-09-06 00:46:42 | 53.77175 | 11.25687 | 45° | 33km/h | 20107m | -10.8m/s | -51.3°C | 3.6% | 56.9hPa | 2.6V | 00:00:00 | 02:26:51 | 00:00:00 | |
| DB0DAN | 2026-09-06 00:46:40 | 53.77167 | 11.25663 | 71° | 35km/h | 20129m | -10.4m/s | -51.5°C | 0.9% | 56.78hPa | 2.6V | 00:00:00 | 00:00:00 | 00:00:00 | |
| DL1XH-west | 2026-09-06 00:46:38 | 53.77165 | 11.25632 | 98° | 37km/h | 20150m | -10.6m/s | -51.6°C | 0.2% | 56.6hPa | 2.5V | 08:17:50 | 02:26:47 | 00:00:00 | |
| DM0DOS-11 | 2026-09-06 00:46:38 | 53.77176 | 11.25594 | 133° | 31km/h | 20183m | -10.6m/s | -51.6°C | 3.6% | 56.3hPa | 2.5V | 08:17:18 | 02:26:44 | 00:00:00 | |
| DF8AY | 2026-09-06 00:46:36 | 53.77171 | 11.25604 | 123° | 33km/h | 20172m | -11.1m/s | -51.6°C | 0.2% | 56.4hPa | 2.5V | 08:17:50 | 02:26:45 | 00:00:00 | |
| AA1-15 | 2026-09-06 00:46:32 | 53.77190 | 11.25579 | 170° | 13km/h | 20215m | -10.8m/s | -51.7°C | 0.3% | 56.1hPa | 2.5V | 08:17:50 | 02:26:41 | 00:00:00 | |
| DG6HD-15 | 2026-09-06 00:46:31 | 53.77193 | 11.25579 | 194° | 7km/h | 20226m | -10.6m/s | -51.8°C | 0.9% | 55.9hPa | 2.5V | 08:17:00 | 00:00:00 | 00:00:00 | |
| S3001 | 2026-09-06 00:46:30 | 53.77194 | 11.25580 | 282° | 2km/h | 20237m | -10.1m/s | -51.9°C | 1.0% | 55.9hPa | 2.5V | 00:00:00 | 00:00:00 | 00:00:00 | |
| DL1XH1-15 | 2026-09-06 00:46:29 | 53.77185 | 11.25576 | 30° | 22km/h | 20269m | -11.1m/s | -52°C | 3.7% | 55.6hPa | 2.5V | 08:17:26 | 02:26:36 | 00:00:00 | |
| DL1XH-west | 2026-09-06 00:46:28 | 53.77189 | 11.25580 | 16° | 15km/h | 20258m | -10.8m/s | -52°C | 0.3% | 55.7hPa | 2.6V | 08:17:50 | 02:26:37 | 00:00:00 | |
| DM0DOS-11 | 2026-09-06 00:46:26 | 53.77176 | 11.25561 | 54° | 31km/h | 20291m | -11.3m/s | -51.9°C | 3.6% | 55.4hPa | 2.5V | 08:17:28 | 02:26:34 | 00:00:00 | |
| DB0DAN | 2026-09-06 00:46:25 | 53.77176 | 11.25561 | 55° | 29km/h | 20291m | -11.3m/s | -51.9°C | 0.9% | 55.41hPa | 2.5V | 00:00:00 | 00:00:00 | 00:00:00 | |
| DF8AY | 2026-09-06 00:46:25 | 53.77176 | 11.25561 | 55° | 31km/h | 20291m | -11.3m/s | -51.9°C | 0.3% | 55.4hPa | 2.5V | 08:17:50 | 02:26:34 | 00:00:00 | |
| DL3AQ-11 | 2026-09-06 00:46:25 | 53.77172 | 11.25549 | 65° | 33km/h | 20302m | -10.9m/s | -52.0°C | 0.9% | 55.3hPa | 2.5V | 00:00:00 | 00:00:00 | 00:00:00 | |
| DF5WG-10 | 2026-09-06 00:46:24 | 53.77171 | 11.25549 | 66° | 42km/h | 20302m | -10.8m/s | -51.9°C | 3.6% | 55.2hPa | 2.5V | 00:00:00 | 02:26:33 | 00:00:00 | |
| DO2SHX-10 | 2026-09-06 00:46:23 | 53.77169 | 11.25535 | 77° | 40km/h | 20313m | -10.6m/s | -52.0°C | 3.7% | 55.2hPa | 2.5V | 00:00:00 | 02:26:32 | 00:00:00 | |
| DL1XH-15 | 2026-09-06 00:46:22 | 53.77168 | 11.25501 | 97° | 44km/h | 20334m | -10.7m/s | -52.2°C | 3.7% | 55hPa | 2.5V | 08:17:32 | 02:26:30 | 00:00:00 | |
| AA1-15 | 2026-09-06 00:46:21 | 53.77168 | 11.25501 | 98° | 44km/h | 20334m | -10.7m/s | -52.2°C | 0.3% | 55hPa | 2.5V | 08:17:50 | 02:26:30 | 00:00:00 | |
| DO2SHX-10 | 2026-09-06 00:46:20 | 53.77170 | 11.25482 | 107° | 46km/h | 20345m | -10.6m/s | -52.1°C | 3.7% | 54.9hPa | 2.5V | 00:00:00 | 02:26:29 | 00:00:00 | |
| DL1XH1-15 | 2026-09-06 00:46:19 | 53.77186 | 11.25430 | 126° | 46km/h | 20378m | -10.8m/s | -52.1°C | 3.7% | 54.6hPa | 2.5V | 08:17:36 | 02:26:26 | 00:00:00 | |
| DK7RCA | 2026-09-06 00:46:19 | 53.77174 | 11.25464 | 115° | 46km/h | 20356m | -10.9m/s | -52.1°C | 0.9% | 54.8hPa | 2.5V | 00:00:00 | 00:00:00 | 00:00:00 | |
| DM0DOS-11 | 2026-09-06 00:46:18 | 53.77201 | 11.25404 | 141° | 40km/h | 20401m | -11.1m/s | -52.2°C | 3.7% | 54.4hPa | 2.5V | 08:17:38 | 02:26:24 | 00:00:00 | |
| DL1XH-west | 2026-09-06 00:46:18 | 53.77180 | 11.25447 | 120° | 46km/h | 20367m | -11m/s | -52.1°C | 0.3% | 54.7hPa | 2.6V | 08:17:50 | 02:26:27 | 00:00:00 | |
| GOEST3-10 | 2026-09-06 00:46:18 | 53.77180 | 11.25447 | 120° | 42km/h | 20367m | -11.0m/s | -52.0°C | 3.7% | 54.7hPa | 2.6V | 00:00:00 | 02:26:27 | 00:00:00 | |
| DO2SHX-10 | 2026-09-06 00:46:17 | 53.77186 | 11.25430 | 127° | 42km/h | 20378m | -10.8m/s | -52.1°C | 3.7% | 54.6hPa | 2.5V | 08:17:00 | 02:26:26 | 00:00:00 | |
| DL1XH-15 | 2026-09-06 00:46:16 | 53.77227 | 11.25385 | 172° | 18km/h | 20447m | -11.9m/s | -52.4°C | 3.8% | 54.1hPa | 2.6V | 08:17:42 | 02:26:20 | 00:00:00 | |
| DF8AY | 2026-09-06 00:46:15 | 53.77201 | 11.25404 | 142° | 40km/h | 20401m | -11.1m/s | -52.2°C | 0.3% | 54.4hPa | 2.5V | 08:17:50 | 02:26:24 | 00:00:00 | |
| DL3AQ-11 | 2026-09-06 00:46:14 | 53.77216 | 11.25389 | 159° | 27km/h | 20423m | -11.7m/s | -52.3°C | 1.0% | 54.3hPa | 2.5V | 00:00:00 | 00:00:00 | 00:00:00 | |
| DL1CLM-18 | 2026-09-06 00:46:13 | 53.77216 | 11.25389 | 161° | 29km/h | 20423m | -11.7m/s | -52.3°C | 1.0% | 54.3hPa | 2.5V | 08:17:00 | 00:00:00 | 00:00:00 | |
| DL1XH1-15 | 2026-09-06 00:46:12 | 53.77235 | 11.25378 | 78° | 9km/h | 20494m | -10.9m/s | -52.5°C | 3.8% | 53.6hPa | 2.5V | 08:17:46 | 02:26:16 | 00:00:00 | |
| AA1-15 | 2026-09-06 00:46:10 | 53.77231 | 11.25384 | 172° | 13km/h | 20459m | -12m/s | -52.5°C | 0.3% | 54hPa | 2.5V | 08:17:50 | 02:26:19 | 00:00:00 | |
| DB0DAN | 2026-09-06 00:46:10 | 53.77231 | 11.25384 | 172° | 11km/h | 20459m | -12m/s | -52.5°C | 1% | 53.99hPa | 2.5V | 00:00:00 | 00:00:00 | 00:00:00 | |
| DL1XH-west | 2026-09-06 00:46:08 | 53.77234 | 11.25378 | 79° | 9km/h | 20494m | -10.9m/s | -52.5°C | 0.4% | 53.6hPa | 2.5V | 08:17:50 | 02:26:16 | 00:00:00 | |
| DM0DOS-11 | 2026-09-06 00:46:08 | 53.77232 | 11.25354 | 87° | 29km/h | 20526m | -10.6m/s | -52.7°C | 3.8% | 53.4hPa | 2.5V | 08:17:49 | 02:26:13 | 00:00:00 | |
| EDDB2-12 | 2026-09-06 00:46:07 | 53.77234 | 11.25373 | 75° | 15km/h | 20505m | -10.3m/s | -52.6°C | 1.0% | 53.6hPa | 2.6V | 00:00:00 | 00:00:00 | 00:00:00 | |
| DO2SHX-10 | 2026-09-06 00:46:05 | 53.77233 | 11.25365 | 81° | 29km/h | 20516m | -10.7m/s | -52.6°C | 3.8% | 53.5hPa | 2.6V | 00:00:00 | 02:26:14 | 00:00:00 | |
| DL1XH-15 | 2026-09-06 00:46:04 | 53.77238 | 11.25309 | 114° | 42km/h | 20560m | -11.7m/s | -52.9°C | 3.9% | 53.1hPa | 2.6V | 08:17:52 | 02:26:10 | 00:00:00 | |
| DF8AY | 2026-09-06 00:46:04 | 53.77232 | 11.25354 | 88° | 29km/h | 20526m | -10.6m/s | -52.7°C | 0.3% | 53.4hPa | 2.5V | 08:17:50 | 02:26:13 | 00:00:00 | |
| AA1-15 | 2026-09-06 00:46:00 | 53.77243 | 11.25293 | 123° | 44km/h | 20571m | -10.9m/s | -52.9°C | 0.4% | 53hPa | 2.6V | 08:18:41 | 02:26:09 | 00:00:00 | |
| DM0DOS-11 | 2026-09-06 00:46:00 | 53.77301 | 11.25235 | 175° | 27km/h | 20651m | -10.8m/s | -53°C | 4% | 52.4hPa | 2.5V | 08:18:00 | 02:26:02 | 00:00:00 | |
| DL1XH1-15 | 2026-09-06 00:45:59 | 53.77267 | 11.25254 | 147° | 44km/h | 20605m | -11.5m/s | -53°C | 3.9% | 52.8hPa | 2.5V | 08:17:56 | 02:26:06 | 00:00:00 | |
| S3001 | 2026-09-06 00:45:59 | 53.77250 | 11.25278 | 131° | 44km/h | 20583m | -11.1m/s | -52.9°C | 1.0% | 53.0hPa | 2.6V | 00:00:00 | 00:00:00 | 00:00:00 | |
| DL3AQ-11 | 2026-09-06 00:45:58 | 53.77267 | 11.25254 | 147° | 42km/h | 20605m | -11.5m/s | -53.0°C | 1.0% | 52.8hPa | 2.6V | 00:00:00 | 00:00:00 | 00:00:00 | |
| DB0ND-19 | 2026-09-06 00:45:57 | 53.77267 | 11.25254 | 147° | 42km/h | 20605m | -11.5m/s | 0°C | -1.0% | -1.0hPa | 2.6V | 00:00:00 | 00:00:00 | 00:00:00 | |
| DJ2DS-15 | 2026-09-06 00:45:56 | 53.77285 | 11.25240 | 162° | 35km/h | 20629m | -11.5m/s | -53.0°C | 1.0% | 52.6hPa | 2.6V | 00:00:00 | 00:00:00 | 00:00:00 | |
| DB0DAN | 2026-09-06 00:45:55 | 53.77285 | 11.25240 | 163° | 35km/h | 20628m | -11.5m/s | -53°C | 1% | 52.58hPa | 2.6V | 00:00:00 | 00:00:00 | 00:00:00 | |
| DF8AY | 2026-09-06 00:45:54 | 53.77293 | 11.25237 | 170° | 31km/h | 20640m | -11.5m/s | -53°C | 0.5% | 52.5hPa | 2.5V | 08:18:41 | 02:26:03 | 00:00:00 | |
| AA1-15 | 2026-09-06 00:45:50 | 53.77315 | 11.25232 | 113° | 7km/h | 20696m | -11.5m/s | -53°C | 0.5% | 52hPa | 2.5V | 08:18:41 | 02:25:58 | 00:00:00 | |
| DG6HD-15 | 2026-09-06 00:45:49 | 53.77315 | 11.25232 | 114° | 7km/h | 20696m | -11.5m/s | -53.0°C | 1.0% | 52.0hPa | 2.5V | 08:18:00 | 00:00:00 | 00:00:00 | |
| DM0DOS-11 | 2026-09-06 00:45:48 | 53.77304 | 11.25186 | 72° | 33km/h | 20764m | -11.3m/s | -53°C | 4% | 51.5hPa | 2.5V | 08:18:10 | 02:25:52 | 00:00:00 | |
| DL1XH-west | 2026-09-06 00:45:46 | 53.77312 | 11.25217 | 64° | 20km/h | 20730m | -11m/s | -53.1°C | 0.5% | 51.8hPa | 2.6V | 08:18:41 | 02:25:55 | 00:00:00 | |
| DL3AQ-11 | 2026-09-06 00:45:45 | 53.77307 | 11.25198 | 68° | 27km/h | 20752m | -11.6m/s | -53.1°C | 1.0% | 51.6hPa | 2.5V | 00:00:00 | 00:00:00 | 00:00:00 | |
| DF8AY | 2026-09-06 00:45:42 | 53.77302 | 11.25171 | 79° | 37km/h | 20775m | -11.4m/s | -53°C | 0.5% | 51.4hPa | 2.5V | 08:18:41 | 02:25:51 | 00:00:00 | |
| DB0DAN | 2026-09-06 00:45:40 | 53.77300 | 11.25137 | 87° | 42km/h | 20797m | -11m/s | -52.7°C | 1% | 51.21hPa | 2.6V | 00:00:00 | 00:00:00 | 00:00:00 | |
| AA1-15 | 2026-09-06 00:45:40 | 53.77300 | 11.25137 | 87° | 44km/h | 20797m | -11m/s | -52.7°C | 0.4% | 51.2hPa | 2.6V | 08:18:41 | 02:25:49 | 00:00:00 | |
| DO2SHX-10 | 2026-09-06 00:45:39 | 53.77300 | 11.25119 | 91° | 46km/h | 20808m | -11.2m/s | -52.7°C | 3.8% | 51.1hPa | 2.6V | 00:00:00 | 02:25:48 | 00:00:00 | |
| SMARD9-15 | 2026-09-06 00:45:38 | 53.77300 | 11.25080 | 92° | 46km/h | 20830m | -11.1m/s | -52.8°C | 1.0% | 51.0hPa | 2.6V | 00:00:00 | 00:00:00 | 00:00:00 | |
| DM0DOS-11 | 2026-09-06 00:45:37 | 53.77306 | 11.25000 | 99° | 47km/h | 20875m | -11m/s | -52.8°C | 3.9% | 50.6hPa | 2.6V | 08:18:20 | 02:25:42 | 00:00:00 | |
| DL1XH-15 | 2026-09-06 00:45:36 | 53.77310 | 11.24960 | 102° | 47km/h | 20898m | -11.5m/s | -52.8°C | 3.9% | 50.4hPa | 2.5V | 08:18:22 | 02:25:40 | 00:00:00 | |
| DL1XH-west | 2026-09-06 00:45:35 | 53.77302 | 11.25040 | 96° | 47km/h | 20853m | -11.3m/s | -52.8°C | 0.4% | 50.8hPa | 2.5V | 08:18:41 | 02:25:44 | 00:00:00 | |
| DF8AY | 2026-09-06 00:45:31 | 53.77310 | 11.24960 | 102° | 47km/h | 20898m | -11.5m/s | -52.8°C | 0.5% | 50.4hPa | 2.5V | 08:18:41 | 02:25:40 | 00:00:00 | |
| AA1-15 | 2026-09-06 00:45:29 | 53.77316 | 11.24922 | 106° | 46km/h | 20921m | -12.1m/s | -52.7°C | 0.4% | 50.2hPa | 2.5V | 08:18:41 | 02:25:38 | 00:00:00 | |
| DB0UT-7 | 2026-09-06 00:45:29 | 53.77316 | 11.24922 | 107° | 47km/h | 20921m | -12.0m/s | -52.6°C | 3.8% | 50.2hPa | 2.6V | 00:00:00 | 02:25:38 | 00:00:00 | |
| DL1XH1-15 | 2026-09-06 00:45:28 | 53.77323 | 11.24885 | 110° | 44km/h | 20944m | -11.9m/s | -52.6°C | 3.8% | 50hPa | 2.6V | 08:18:26 | 02:25:36 | 00:00:00 | |
| GOEST3-10 | 2026-09-06 00:45:28 | 53.77319 | 11.24903 | 108° | 44km/h | 20933m | -11.5m/s | -52.5°C | 3.8% | 50.1hPa | 2.5V | 00:00:00 | 02:25:37 | 00:00:00 | |
| DG6HD-15 | 2026-09-06 00:45:27 | 53.77319 | 11.24903 | 108° | 46km/h | 20933m | -11.5m/s | -52.6°C | 1.0% | 50.1hPa | 2.5V | 08:18:00 | 00:00:00 | 00:00:00 | |
| DB0DAN | 2026-09-06 00:45:25 | 53.77331 | 11.24851 | 114° | 40km/h | 20968m | -12m/s | -52.7°C | 1% | 49.87hPa | 2.5V | 00:00:00 | 00:00:00 | 00:00:00 | |
| DL1XH-west | 2026-09-06 00:45:25 | 53.77331 | 11.24851 | 114° | 42km/h | 20968m | -12m/s | -52.7°C | 0.4% | 49.9hPa | 2.5V | 08:18:41 | 02:25:34 | 00:00:00 | |
| GOEST3-10 | 2026-09-06 00:45:23 | 53.77340 | 11.24819 | 114° | 38km/h | 20992m | -11.8m/s | -52.8°C | 3.9% | 49.6hPa | 2.5V | 00:00:00 | 00:00:00 | 00:00:00 | |
| DM0DOS-11 | 2026-09-06 00:45:22 | 53.77346 | 11.24789 | 105° | 37km/h | 21016m | -12.4m/s | -53°C | 3.9% | 49.5hPa | 2.5V | 08:18:32 | 02:25:30 | 00:00:00 | |
| DF8AY | 2026-09-06 00:45:21 | 53.77346 | 11.24789 | 105° | 37km/h | 21016m | -12.4m/s | -53°C | 0.4% | 49.5hPa | 2.5V | 08:18:41 | 02:25:30 | 00:00:00 | |
| AA1-15 | 2026-09-06 00:45:19 | 53.77347 | 11.24740 | 81° | 44km/h | 21052m | -11.2m/s | -53.2°C | 0.5% | 49.2hPa | 2.6V | 08:18:41 | 02:25:27 | 00:00:00 | |
| DL1XH1-15 | 2026-09-06 00:45:18 | 53.77345 | 11.24721 | 77° | 49km/h | 21063m | -11m/s | -53.2°C | 4% | 49.1hPa | 2.6V | 08:18:36 | 02:25:26 | 00:00:00 | |
| DL1XH-west | 2026-09-06 00:45:14 | 53.77337 | 11.24650 | 83° | 62km/h | 21099m | -12.3m/s | -53.2°C | 0.5% | 48.9hPa | 2.5V | 08:18:41 | 02:25:23 | 00:00:00 | |
| DO2SHX-10 | 2026-09-06 00:45:14 | 53.77336 | 11.24649 | 83° | 64km/h | 21099m | -12.3m/s | -53.2°C | 4.1% | 48.8hPa | 2.5V | 00:00:00 | 02:25:23 | 00:00:00 | |
| GOEST3-10 | 2026-09-06 00:45:13 | 53.77335 | 11.24623 | 87° | 64km/h | 21111m | -11.4m/s | -53.1°C | 4.0% | 48.7hPa | 2.5V | 00:00:00 | 00:00:00 | 00:00:00 | |
| DM0DOS-11 | 2026-09-06 00:45:12 | 53.77335 | 11.24569 | 94° | 64km/h | 21134m | -11.2m/s | -52.7°C | 3.9% | 48.6hPa | 2.5V | 08:18:42 | 02:25:20 | 00:00:00 | |
| DF5WG-10 | 2026-09-06 00:45:12 | 53.77334 | 11.24596 | 91° | 62km/h | 21123m | -12.1m/s | -52.8°C | 3.9% | 48.6hPa | 2.5V | 00:00:00 | 02:25:21 | 00:00:00 | |
| DB0DAN | 2026-09-06 00:45:10 | 53.77337 | 11.24541 | 99° | 62km/h | 21146m | -11.5m/s | -52.8°C | 1% | 48.53hPa | 2.5V | 00:00:00 | 00:00:00 | 00:00:00 | |
| DF8AY | 2026-09-06 00:45:10 | 53.77337 | 11.24541 | 99° | 66km/h | 21146m | -11.5m/s | -52.8°C | 0.4% | 48.5hPa | 2.5V | 08:19:32 | 02:25:19 | 00:00:00 | |
| DJ2DS-15 | 2026-09-06 00:45:10 | 53.77337 | 11.24541 | 100° | 40km/h | 21146m | -11.5m/s | -52.8°C | 3.8% | 48.5hPa | 2.5V | 00:00:00 | 02:25:19 | 00:00:00 | |
| DL1XH1-15 | 2026-09-06 00:45:08 | 53.77349 | 11.24461 | 108° | 64km/h | 21182m | -12.5m/s | -53°C | 4% | 48.3hPa | 2.6V | 08:18:46 | 02:25:16 | 00:00:00 | |
| AA1-15 | 2026-09-06 00:45:08 | 53.77349 | 11.24461 | 109° | 64km/h | 21182m | -12.5m/s | -53°C | 0.5% | 48.3hPa | 2.6V | 08:19:32 | 02:25:16 | 00:00:00 | |
| DG6HD-11 | 2026-09-06 00:45:08 | 53.77344 | 11.24487 | 107° | 46km/h | 21170m | -12.4m/s | -52.9°C | 3.9% | 48.3hPa | 2.6V | 00:00:00 | 00:00:00 | 00:00:00 | |
| DL1XH-15 | 2026-09-06 00:45:07 | 53.77387 | 11.24342 | 127° | 38km/h | 21255m | -12.1m/s | -53°C | 4% | 47.7hPa | 2.5V | 08:18:52 | 02:25:10 | 00:00:00 | |
| DL1XH-west | 2026-09-06 00:45:04 | 53.77368 | 11.24392 | 119° | 55km/h | 21219m | -12.4m/s | -52.9°C | 0.5% | 48hPa | 2.5V | 08:19:32 | 02:25:13 | 00:00:00 | |
| DF8AY | 2026-09-06 00:45:00 | 53.77398 | 11.24320 | 130° | 27km/h | 21279m | -12.1m/s | -53.2°C | 0.5% | 47.5hPa | 2.5V | 08:19:32 | 02:25:08 | 00:00:00 | |
| DL1CLM-18 | 2026-09-06 00:44:59 | 53.77398 | 11.24320 | 131° | 27km/h | 21279m | -12.1m/s | -53.2°C | 1.0% | 47.5hPa | 2.6V | 00:00:00 | 00:00:00 | 00:00:00 | |
| DL1XH1-15 | 2026-09-06 00:44:58 | 53.77405 | 11.24304 | 121° | 18km/h | 21302m | -12.2m/s | -53.3°C | 4.1% | 47.3hPa | 2.6V | 08:18:56 | 02:25:06 | 00:00:00 | |
| AA1-15 | 2026-09-06 00:44:57 | 53.77405 | 11.24304 | 122° | 18km/h | 21302m | -12.2m/s | -53.3°C | 0.6% | 47.3hPa | 2.6V | 08:19:32 | 02:25:06 | 00:00:00 | |
| DO2SHX-10 | 2026-09-06 00:44:57 | 53.77405 | 11.24304 | 122° | 15km/h | 21303m | -12.1m/s | -53.3°C | 4.1% | 47.3hPa | 2.6V | 00:00:00 | 02:25:06 | 00:00:00 | |
| DL1XH-15 | 2026-09-06 00:44:56 | 53.77396 | 11.24262 | 55° | 31km/h | 21376m | -11.9m/s | -53.3°C | 4.1% | 46.8hPa | 2.5V | 08:19:02 | 02:25:00 | 00:00:00 | |
| DB0DAN | 2026-09-06 00:44:55 | 53.77407 | 11.24293 | 85° | 13km/h | 21327m | -12.3m/s | -53.4°C | 1.1% | 47.14hPa | 2.5V | 00:00:00 | 00:00:00 | 00:00:00 | |
| DL1XH-west | 2026-09-06 00:44:53 | 53.77404 | 11.24280 | 56° | 20km/h | 21352m | -12.5m/s | -53.3°C | 0.5% | 47hPa | 2.6V | 08:19:32 | 02:25:02 | 00:00:00 | |
| DF8AY | 2026-09-06 00:44:49 | 53.77387 | 11.24234 | 67° | 44km/h | 21400m | -12.2m/s | -53.2°C | 0.5% | 46.6hPa | 2.5V | 08:19:32 | 02:24:58 | 00:00:00 | |
| DL4BBY-15 | 2026-09-06 00:44:49 | 53.77387 | 11.24234 | 68° | 46km/h | 21401m | -12.2m/s | -53.8°C | 0% | 0hPa | 2.6V | 00:00:00 | 00:00:00 | 00:00:00 | |
| DL1XH1-15 | 2026-09-06 00:44:48 | 53.77381 | 11.24195 | 82° | 51km/h | 21425m | -12.4m/s | -52.9°C | 4% | 46.4hPa | 2.6V | 08:19:06 | 02:24:56 | 00:00:00 | |
| AA1-15 | 2026-09-06 00:44:47 | 53.77381 | 11.24195 | 83° | 51km/h | 21425m | -12.4m/s | -52.9°C | 0.5% | 46.4hPa | 2.6V | 08:19:32 | 02:24:56 | 00:00:00 | |
| DM0DOS-11 | 2026-09-06 00:44:46 | 53.77385 | 11.24129 | 110° | 53km/h | 21461m | -12.3m/s | -52.4°C | 3.8% | 46.1hPa | 2.5V | 08:19:09 | 02:24:53 | 00:00:00 | |
| HTAHTA | 2026-09-06 00:44:46 | 53.77382 | 11.24150 | 100° | 53km/h | 21449m | -11.9m/s | -52.5°C | 0.9% | 46.2hPa | 2.6V | 00:00:00 | 00:00:00 | 00:00:00 | |
| SONDE2-11 | 2026-09-06 00:44:45 | 53.77382 | 11.24150 | 100° | 53km/h | 21449m | -11.9m/s | -52.5°C | 0.9% | 46.2hPa | 2.6V | 00:00:00 | 00:00:00 | 00:00:00 | |
| DL1XH-west | 2026-09-06 00:44:43 | 53.77391 | 11.24109 | 121° | 51km/h | 21473m | -12.3m/s | -52.3°C | 0.3% | 46.1hPa | 2.6V | 08:19:32 | 02:24:52 | 00:00:00 | |
| DO2SHX-10 | 2026-09-06 00:44:42 | 53.77398 | 11.24091 | 130° | 37km/h | 21486m | -12.2m/s | -52.2°C | 3.7% | 46.0hPa | 2.5V | 00:00:00 | 02:24:51 | 00:00:00 | |
| DB0DAN | 2026-09-06 00:44:40 | 53.77413 | 11.24067 | 144° | 33km/h | 21510m | -12.4m/s | -52.2°C | 0.9% | 45.82hPa | 2.5V | 00:00:00 | 00:00:00 | 00:00:00 | |
| DF5WG-10 | 2026-09-06 00:44:40 | 53.77413 | 11.24067 | 145° | 35km/h | 21510m | -12.4m/s | -52.2°C | 3.7% | 45.8hPa | 2.6V | 00:00:00 | 02:24:49 | 00:00:00 | |
| DL4XJ-10 | 2026-09-06 00:44:39 | 53.77419 | 11.24060 | 149° | 24km/h | 21522m | -12.1m/s | -52.9°C | 0% | 0hPa | 2.6V | 00:00:00 | 00:00:00 | 00:00:00 | |
| DL1XH1-15 | 2026-09-06 00:44:38 | 53.77427 | 11.24051 | 131° | 11km/h | 21546m | -11.9m/s | -52.5°C | 3.8% | 45.6hPa | 2.6V | 08:19:16 | 02:24:46 | 00:00:00 | |
| DF8AY | 2026-09-06 00:44:38 | 53.77424 | 11.24054 | 148° | 18km/h | 21534m | -12.2m/s | -52.4°C | 0.4% | 45.6hPa | 2.6V | 08:19:32 | 02:24:47 | 00:00:00 | |
| DG6HD-11 | 2026-09-06 00:44:38 | 53.77424 | 11.24054 | 148° | 37km/h | 21535m | -12.1m/s | -52.3°C | 3.8% | 45.6hPa | 2.5V | 00:00:00 | 02:24:47 | 00:00:00 | |
| DL1XH-15 | 2026-09-06 00:44:36 | 53.77410 | 11.23992 | 69° | 49km/h | 21620m | -11.7m/s | -52.7°C | 3.9% | 45.1hPa | 2.5V | 08:19:22 | 02:24:40 | 00:00:00 | |
| AA1-15 | 2026-09-06 00:44:36 | 53.77428 | 11.24047 | 81° | 9km/h | 21559m | -12.1m/s | -52.5°C | 0.4% | 45.5hPa | 2.5V | 08:19:32 | 02:24:45 | 00:00:00 | |
| DL1XH-west | 2026-09-06 00:44:33 | 53.77419 | 11.24024 | 58° | 33km/h | 21596m | -12.5m/s | -52.6°C | 0.4% | 45.2hPa | 2.6V | 08:19:32 | 02:24:42 | 00:00:00 | |
| DO2SHX-10 | 2026-09-06 00:44:33 | 53.77419 | 11.24024 | 59° | 42km/h | 21596m | -12.4m/s | -52.6°C | 3.8% | 45.2hPa | 2.6V | 00:00:00 | 02:24:42 | 00:00:00 | |
| DL1XH1-15 | 2026-09-06 00:44:32 | 53.77403 | 11.23888 | 95° | 69km/h | 21668m | -12.7m/s | -52.8°C | 3.9% | 44.6hPa | 2.6V | 08:19:26 | 02:24:36 | 00:00:00 | |
| DF8AY | 2026-09-06 00:44:27 | 53.77403 | 11.23888 | 96° | 69km/h | 21668m | -12.7m/s | -52.8°C | 0.4% | 44.7hPa | 2.6V | 08:19:32 | 02:24:36 | 00:00:00 | |
| AA1-15 | 2026-09-06 00:44:25 | 53.77411 | 11.23829 | 108° | 69km/h | 21693m | -12.3m/s | -53°C | 0.5% | 44.5hPa | 2.5V | 08:19:32 | 02:24:34 | 00:00:00 | |
| DL3AQ-11 | 2026-09-06 00:44:25 | 53.77417 | 11.23803 | 115° | 66km/h | 21705m | -11.7m/s | -53.0°C | 1.0% | 44.4hPa | 2.5V | 00:00:00 | 00:00:00 | 00:00:00 | |
| DO2SHX-10 | 2026-09-06 00:44:24 | 53.77417 | 11.23803 | 116° | 60km/h | 21705m | -11.6m/s | -52.9°C | 4.0% | 44.4hPa | 2.5V | 00:00:00 | 02:24:33 | 00:00:00 | |
| DL1XH-15 | 2026-09-06 00:44:23 | 53.77441 | 11.23744 | 133° | 46km/h | 21740m | -11.8m/s | -53.1°C | 4% | 44.2hPa | 2.5V | 08:19:32 | 02:24:30 | 00:00:00 | |
| DL1XH-west | 2026-09-06 00:44:23 | 53.77425 | 11.23779 | 123° | 60km/h | 21717m | -11.6m/s | -53°C | 0.5% | 44.4hPa | 2.6V | 08:19:32 | 02:24:32 | 00:00:00 | |
| DF8AY | 2026-09-06 00:44:17 | 53.77462 | 11.23699 | 111° | 26km/h | 21788m | -12.2m/s | -53.1°C | 0.5% | 43.9hPa | 2.6V | 08:20:23 | 02:24:26 | 00:00:00 | |
| DM0DOS-11 | 2026-09-06 00:44:16 | 53.77464 | 11.23644 | 89° | 44km/h | 21837m | -12.2m/s | -53.2°C | 4% | 43.6hPa | 2.6V | 08:19:40 | 02:24:22 | 00:00:00 | |
| AA1-15 | 2026-09-06 00:44:14 | 53.77463 | 11.23644 | 90° | 44km/h | 21837m | -12.2m/s | -53.2°C | 0.5% | 43.6hPa | 2.6V | 08:20:23 | 02:24:22 | 00:00:00 | |
| DL3AQ-11 | 2026-09-06 00:44:14 | 53.77463 | 11.23644 | 89° | 44km/h | 21837m | -12.2m/s | -53.2°C | 1.0% | 43.6hPa | 2.5V | 00:00:00 | 00:00:00 | 00:00:00 | |
| DL1XH-15 | 2026-09-06 00:44:13 | 53.77465 | 11.23601 | 98° | 57km/h | 21860m | -12.2m/s | -53.3°C | 4.1% | 43.4hPa | 2.5V | 08:19:42 | 02:24:20 | 00:00:00 | |
| DL1XH-west | 2026-09-06 00:44:12 | 53.77464 | 11.23624 | 93° | 51km/h | 21848m | -11.5m/s | -53.3°C | 0.5% | 43.5hPa | 2.6V | 08:20:23 | 02:24:21 | 00:00:00 | |
| DB0DAN | 2026-09-06 00:44:10 | 53.77468 | 11.23577 | 105° | 57km/h | 21872m | -12.7m/s | -53.3°C | 1% | 43.29hPa | 2.5V | 00:00:00 | 00:00:00 | 00:00:00 | |
| DF8AY | 2026-09-06 00:44:07 | 53.77487 | 11.23509 | 127° | 58km/h | 21911m | -12.6m/s | -53.3°C | 0.5% | 43hPa | 2.6V | 08:20:23 | 02:24:16 | 00:00:00 | |
| DM0DOS-11 | 2026-09-06 00:44:06 | 53.77526 | 11.23457 | 159° | 38km/h | 21960m | -13.1m/s | -53.1°C | 4.1% | 42.7hPa | 2.6V | 08:19:50 | 02:24:12 | 00:00:00 | |
| AA1-15 | 2026-09-06 00:44:03 | 53.77526 | 11.23457 | 159° | 38km/h | 21960m | -13.1m/s | -53.1°C | 0.5% | 42.7hPa | 2.6V | 08:20:23 | 02:24:12 | 00:00:00 | |
| DL1XH-west | 2026-09-06 00:44:01 | 53.77541 | 11.23451 | 173° | 24km/h | 21985m | -12.5m/s | -53°C | 0.5% | 42.5hPa | 2.5V | 08:20:23 | 02:24:10 | 00:00:00 | |
| DG6HD-11 | 2026-09-06 00:43:59 | 53.77549 | 11.23450 | 176° | 27km/h | 22010m | -12.2m/s | -52.9°C | 4.0% | 42.3hPa | 2.6V | 00:00:00 | 00:00:00 | 00:00:00 | |
| DL1XH1-15 | 2026-09-06 00:43:58 | 53.77551 | 11.23447 | 68° | 7km/h | 22034m | -11.9m/s | -52.8°C | 4% | 42.2hPa | 2.6V | 08:19:56 | 02:24:06 | 00:00:00 | |
| DF8AY | 2026-09-06 00:43:56 | 53.77550 | 11.23442 | 66° | 15km/h | 22046m | -11.9m/s | -52.7°C | 0.5% | 42.2hPa | 2.5V | 08:20:23 | 02:24:05 | 00:00:00 | |
| DB0DAN | 2026-09-06 00:43:55 | 53.77548 | 11.23435 | 73° | 20km/h | 22057m | -12.2m/s | -52.7°C | 1% | 42.08hPa | 2.5V | 00:00:00 | 00:00:00 | 00:00:00 | |
| DM0DOS-11 | 2026-09-06 00:43:55 | 53.77546 | 11.23412 | 88° | 33km/h | 22082m | -12.1m/s | -52.7°C | 4% | 41.9hPa | 2.6V | 08:20:00 | 02:24:02 | 00:00:00 | |
| AA1-15 | 2026-09-06 00:43:53 | 53.77546 | 11.23412 | 89° | 33km/h | 22082m | -12.1m/s | -52.7°C | 0.5% | 41.9hPa | 2.6V | 08:20:23 | 02:24:02 | 00:00:00 | |
| DL1XH-west | 2026-09-06 00:43:51 | 53.77549 | 11.23380 | 107° | 44km/h | 22107m | -12.1m/s | -52.6°C | 0.5% | 41.8hPa | 2.5V | 08:20:23 | 02:24:00 | 00:00:00 | |
| DO2SHX-10 | 2026-09-06 00:43:50 | 53.77553 | 11.23362 | 115° | 49km/h | 22119m | -11.8m/s | -52.4°C | 4.0% | 41.7hPa | 2.5V | 00:00:00 | 02:23:59 | 00:00:00 | |
| DL4BBY-15 | 2026-09-06 00:43:49 | 53.77559 | 11.23344 | 124° | 29km/h | 22132m | -12.3m/s | -53.1°C | 0% | 0hPa | 2.6V | 00:00:00 | 00:00:00 | 00:00:00 | |
| DL1XH1-15 | 2026-09-06 00:43:48 | 53.77576 | 11.23313 | 138° | 49km/h | 22155m | -12.3m/s | -52.5°C | 4% | 41.5hPa | 2.6V | 08:20:06 | 02:23:56 | 00:00:00 | |
| DF5WG-10 | 2026-09-06 00:43:48 | 53.77567 | 11.23328 | 132° | 38km/h | 22143m | -11.9m/s | -52.4°C | 4.0% | 41.5hPa | 2.6V | 00:00:00 | 02:23:57 | 00:00:00 | |
| DO2SHX-10 | 2026-09-06 00:43:47 | 53.77576 | 11.23312 | 139° | 47km/h | 22155m | -12.2m/s | -52.5°C | 4.0% | 41.4hPa | 2.6V | 00:00:00 | 02:23:56 | 00:00:00 | |
| DM0DOS-11 | 2026-09-06 00:43:45 | 53.77616 | 11.23274 | 164° | 38km/h | 22204m | -12m/s | -52.5°C | 4% | 41.2hPa | 2.6V | 08:20:10 | 02:23:52 | 00:00:00 | |
| DF8AY | 2026-09-06 00:43:45 | 53.77596 | 11.23288 | 150° | 47km/h | 22179m | -11.8m/s | -52.5°C | 0.5% | 41.3hPa | 2.5V | 08:20:23 | 02:23:54 | 00:00:00 | |
| DL3AQ-11 | 2026-09-06 00:43:45 | 53.77606 | 11.23280 | 157° | 42km/h | 22192m | -12.6m/s | -52.5°C | 1.0% | 41.2hPa | 2.6V | 00:00:00 | 00:00:00 | 00:00:00 | |
| AA1-15 | 2026-09-06 00:43:43 | 53.77616 | 11.23274 | 165° | 38km/h | 22204m | -12m/s | -52.5°C | 0.5% | 41.2hPa | 2.6V | 08:20:23 | 02:23:52 | 00:00:00 | |
| DO2SHX-10 | 2026-09-06 00:43:43 | 53.77616 | 11.23274 | 165° | 33km/h | 22204m | -11.9m/s | -52.5°C | 4.0% | 41.1hPa | 2.5V | 00:00:00 | 02:23:52 | 00:00:00 | |
| DL1XH-15 | 2026-09-06 00:43:42 | 53.77633 | 11.23271 | 181° | 29km/h | 22228m | -12.9m/s | -52.4°C | 4% | 41hPa | 2.5V | 08:20:12 | 02:23:50 | 00:00:00 | |
| DB0DAN | 2026-09-06 00:43:40 | 53.77639 | 11.23271 | 187° | 22km/h | 22241m | -12.5m/s | -52.3°C | 1% | 40.89hPa | 2.5V | 00:00:00 | 00:00:00 | 00:00:00 | |
| DL1XH-west | 2026-09-06 00:43:40 | 53.77639 | 11.23271 | 188° | 22km/h | 22241m | -12.5m/s | -52.3°C | 0.5% | 40.9hPa | 2.5V | 08:20:23 | 02:23:49 | 00:00:00 | |
| DL1XH1-15 | 2026-09-06 00:43:38 | 53.77650 | 11.23274 | 179° | 5km/h | 22278m | -12.2m/s | -52.4°C | 4.1% | 40.7hPa | 2.6V | 08:20:16 | 02:23:46 | 00:00:00 | |
| DF5WG-10 | 2026-09-06 00:43:38 | 53.77647 | 11.23274 | 193° | 18km/h | 22266m | -11.6m/s | -52.3°C | 4.0% | 40.7hPa | 2.5V | 00:00:00 | 02:23:47 | 00:00:00 | |
| DO2SHX-10 | 2026-09-06 00:43:37 | 53.77649 | 11.23274 | 180° | 7km/h | 22278m | -12.2m/s | -52.4°C | 4.1% | 40.6hPa | 2.5V | 00:00:00 | 02:23:46 | 00:00:00 | |
| DL1XH-15 | 2026-09-06 00:43:36 | 53.77658 | 11.23241 | 114° | 27km/h | 22349m | -12.2m/s | -51.4°C | 3.7% | 40.2hPa | 2.5V | 08:20:22 | 02:23:40 | 00:00:00 | |
| SP3BTT-10 | 2026-09-06 00:43:36 | 53.77651 | 11.23273 | 125° | 11km/h | 22290m | -11.9m/s | -52.3°C | 4.1% | 40.5hPa | 2.5V | 00:00:00 | 00:00:00 | 00:00:00 | |
| DM0DOS-11 | 2026-09-06 00:43:35 | 53.77654 | 11.23260 | 109° | 20km/h | 22326m | -12.1m/s | -51.6°C | 3.8% | 40.4hPa | 2.6V | 08:20:20 | 02:23:42 | 00:00:00 | |
| DF8AY | 2026-09-06 00:43:35 | 53.77651 | 11.23271 | 109° | 9km/h | 22302m | -12m/s | -52.2°C | 0.5% | 40.5hPa | 2.5V | 08:20:23 | 02:23:44 | 00:00:00 | |
| AA1-15 | 2026-09-06 00:43:33 | 53.77654 | 11.23260 | 110° | 20km/h | 22326m | -12.1m/s | -51.6°C | 0.4% | 40.4hPa | 2.6V | 08:20:23 | 02:23:42 | 00:00:00 | |
| DL1XH-west | 2026-09-06 00:43:30 | 53.77661 | 11.23230 | 118° | 29km/h | 22362m | -12.4m/s | -51.3°C | 0.3% | 40.2hPa | 2.5V | 08:20:23 | 02:23:39 | 00:00:00 | |
| DF5WG-10 | 2026-09-06 00:43:28 | 53.77669 | 11.23208 | 126° | 29km/h | 22387m | -12.1m/s | -51.1°C | 3.6% | 39.9hPa | 2.6V | 00:00:00 | 02:23:37 | 00:00:00 | |
| DL1XH-15 | 2026-09-06 00:43:26 | 53.77710 | 11.23162 | 161° | 33km/h | 22473m | -12.7m/s | -50.9°C | 3.6% | 39.5hPa | 2.5V | 08:20:32 | 02:23:30 | 00:00:00 | |
| DB0DAN | 2026-09-06 00:43:25 | 53.77684 | 11.23183 | 144° | 26km/h | 22423m | -12.5m/s | -51.1°C | 0.9% | 39.78hPa | 2.5V | 00:00:00 | 00:00:00 | 00:00:00 | |
| DM0DOS-11 | 2026-09-06 00:43:25 | 53.77696 | 11.23171 | 155° | 29km/h | 22448m | -12.6m/s | -51°C | 3.6% | 39.6hPa | 2.6V | 08:20:30 | 02:23:32 | 00:00:00 | |
| DF8AY | 2026-09-06 00:43:24 | 53.77689 | 11.23177 | 151° | 27km/h | 22435m | -12.8m/s | -51.1°C | 0.2% | 39.7hPa | 2.5V | 08:21:14 | 02:23:33 | 00:00:00 | |
| AA1-15 | 2026-09-06 00:43:22 | 53.77703 | 11.23166 | 158° | 31km/h | 22460m | -12.9m/s | -51°C | 0.3% | 39.5hPa | 2.6V | 08:21:14 | 02:23:31 | 00:00:00 | |
| DO2SHX-10 | 2026-09-06 00:43:22 | 53.77703 | 11.23166 | 159° | 33km/h | 22461m | -12.9m/s | -51.0°C | 3.6% | 39.5hPa | 2.6V | 00:00:00 | 02:23:31 | 00:00:00 | |
| DL1ZP-14 | 2026-09-06 00:43:19 | 53.77735 | 11.23151 | 169° | 35km/h | 22512m | -13.1m/s | -50.7°C | 0.8% | 39.2hPa | 2.6V | 00:00:00 | 00:00:00 | 00:00:00 | |
| DL1XH-west | 2026-09-06 00:43:19 | 53.77726 | 11.23154 | 168° | 35km/h | 22499m | -13.5m/s | -50.7°C | 0.2% | 39.3hPa | 2.5V | 08:21:14 | 02:23:28 | 00:00:00 | |
| DL3AQ-11 | 2026-09-06 00:43:18 | 53.77743 | 11.23149 | 172° | 33km/h | 22525m | -12.7m/s | -50.8°C | 0.9% | 39.2hPa | 2.5V | 00:00:00 | 00:00:00 | 00:00:00 | |
| DB0UT-7 | 2026-09-06 00:43:17 | 53.77743 | 11.23149 | 173° | 29km/h | 22525m | -12.7m/s | -50.7°C | 3.5% | 39.1hPa | 2.5V | 00:00:00 | 00:00:00 | 00:00:00 | |
| DL1XH-15 | 2026-09-06 00:43:16 | 53.77780 | 11.23158 | 213° | 16km/h | 22599m | -12.4m/s | -51.2°C | 3.6% | 38.7hPa | 2.5V | 08:20:42 | 02:23:20 | 00:00:00 | |
| DO2SHX-10 | 2026-09-06 00:43:16 | 53.77751 | 11.23147 | 177° | 27km/h | 22538m | -12.7m/s | -50.8°C | 3.5% | 39.0hPa | 2.6V | 00:00:00 | 02:23:25 | 00:00:00 | |
| DM0DOS-11 | 2026-09-06 00:43:15 | 53.77771 | 11.23151 | 199° | 22km/h | 22574m | -12.1m/s | -51.1°C | 3.6% | 38.9hPa | 2.6V | 08:20:40 | 02:23:22 | 00:00:00 | |
| DF8AY | 2026-09-06 00:43:13 | 53.77771 | 11.23151 | 199° | 22km/h | 22574m | -12.1m/s | -51.1°C | 0.3% | 38.9hPa | 2.6V | 08:21:14 | 02:23:22 | 00:00:00 | |
| AA1-15 | 2026-09-06 00:43:11 | 53.77780 | 11.23158 | 213° | 16km/h | 22599m | -12.4m/s | -51.2°C | 0.3% | 38.7hPa | 2.5V | 08:21:14 | 02:23:20 | 00:00:00 | |
| DB0DAN | 2026-09-06 00:43:10 | 53.77783 | 11.23162 | 216° | 15km/h | 22612m | -13.1m/s | -51.3°C | 0.9% | 38.62hPa | 2.5V | 00:00:00 | 00:00:00 | 00:00:00 | |
| DL1XH-west | 2026-09-06 00:43:09 | 53.77786 | 11.23165 | 215° | 15km/h | 22624m | -12.6m/s | -51.3°C | 0.3% | 38.6hPa | 2.5V | 08:21:14 | 02:23:18 | 00:00:00 | |
| DF8AY | 2026-09-06 00:43:07 | 53.77803 | 11.23183 | 199° | 5km/h | 22714m | -12.8m/s | -51.6°C | 0.4% | 38hPa | 2.6V | 08:21:14 | 02:23:11 | 00:00:00 | |
| DO2SHX-10 | 2026-09-06 00:43:07 | 53.77792 | 11.23172 | 213° | 11km/h | 22650m | -12.6m/s | -51.4°C | 3.7% | 38.3hPa | 2.5V | 00:00:00 | 02:23:16 | 00:00:00 | |
| DL1XH-15 | 2026-09-06 00:43:06 | 53.77804 | 11.23183 | 178° | 4km/h | 22727m | -13.5m/s | -51.6°C | 3.7% | 37.9hPa | 2.5V | 08:20:52 | 02:23:10 | 00:00:00 | |
| AA1-15 | 2026-09-06 00:43:01 | 53.77804 | 11.23183 | 178° | 4km/h | 22727m | -13.5m/s | -51.6°C | 0.3% | 38hPa | 2.5V | 08:21:14 | 02:23:10 | 00:00:00 | |
| DL1XH-west | 2026-09-06 00:42:58 | 53.77806 | 11.23177 | 103° | 9km/h | 22767m | -12.9m/s | -51.3°C | 0.2% | 37.7hPa | 2.6V | 08:21:14 | 02:23:07 | 00:00:00 | |
| DO2SHX-10 | 2026-09-06 00:42:58 | 53.77806 | 11.23177 | 104° | 13km/h | 22767m | -12.9m/s | -51.2°C | 3.6% | 37.7hPa | 2.5V | 00:00:00 | 02:23:07 | 00:00:00 | |
| DL1XH-15 | 2026-09-06 00:42:56 | 53.77816 | 11.23131 | 127° | 20km/h | 22859m | -13.8m/s | -51.3°C | 3.6% | 37.2hPa | 2.5V | 08:21:02 | 02:23:00 | 00:00:00 | |
| DB0DAN | 2026-09-06 00:42:55 | 53.77809 | 11.23160 | 106° | 16km/h | 22806m | -13.1m/s | -51.2°C | 0.9% | 37.5hPa | 2.5V | 00:00:00 | 00:00:00 | 00:00:00 | |
| DF8AY | 2026-09-06 00:42:51 | 53.77817 | 11.23131 | 127° | 20km/h | 22859m | -13.8m/s | -51.3°C | 0.3% | 37.2hPa | 2.5V | 08:21:14 | 02:23:00 | 00:00:00 | |
| AA1-15 | 2026-09-06 00:42:50 | 53.77820 | 11.23125 | 133° | 20km/h | 22872m | -12.9m/s | -51.3°C | 0.3% | 37.1hPa | 2.5V | 08:21:14 | 02:22:59 | 00:00:00 | |
| DJ2DS-15 | 2026-09-06 00:42:50 | 53.77820 | 11.23125 | 133° | 29km/h | 22873m | -12.8m/s | -51.3°C | 3.6% | 37.1hPa | 2.6V | 00:00:00 | 02:22:59 | 00:00:00 | |
| DO2SHX-10 | 2026-09-06 00:42:49 | 53.77823 | 11.23119 | 138° | 22km/h | 22885m | -12.4m/s | -51.3°C | 3.6% | 37.0hPa | 2.6V | 00:00:00 | 02:22:58 | 00:00:00 | |
| DL1XH1-15 | 2026-09-06 00:42:48 | 53.77832 | 11.23107 | 146° | 26km/h | 22911m | -12.9m/s | -51.4°C | 3.6% | 36.9hPa | 2.6V | 08:21:06 | 02:22:56 | 00:00:00 | |
| DL1XH-west | 2026-09-06 00:42:47 | 53.77833 | 11.23107 | 146° | 26km/h | 22911m | -12.9m/s | -51.4°C | 0.3% | 36.9hPa | 2.6V | 08:21:14 | 02:22:56 | 00:00:00 | |
| DL1XH-15 | 2026-09-06 00:42:46 | 53.77868 | 11.23057 | 130° | 37km/h | 22988m | -12.8m/s | -51.8°C | 3.8% | 36.4hPa | 2.5V | 08:21:12 | 02:22:50 | 00:00:00 | |
| DO2SHX-10 | 2026-09-06 00:42:46 | 53.77838 | 11.23101 | 147° | 29km/h | 22923m | -12.4m/s | -51.4°C | 3.6% | 36.8hPa | 2.6V | 00:00:00 | 02:22:55 | 00:00:00 | |
| DK7RCA | 2026-09-06 00:42:44 | 53.77844 | 11.23094 | 146° | 29km/h | 22936m | -13.0m/s | -51.5°C | 0.9% | 36.8hPa | 2.6V | 08:21:00 | 00:00:00 | 00:00:00 | |
| DO2SHX-10 | 2026-09-06 00:42:43 | 53.77856 | 11.23078 | 139° | 37km/h | 22962m | -13.4m/s | -51.6°C | 3.7% | 36.6hPa | 2.6V | 08:21:00 | 02:22:52 | 00:00:00 | |
| DL1XH1-15 | 2026-09-06 00:42:42 | 53.77891 | 11.23008 | 124° | 37km/h | 23040m | -13.1m/s | -51.5°C | 3.6% | 36.1hPa | 2.6V | 08:21:16 | 02:22:46 | 00:00:00 | |
| DF8AY | 2026-09-06 00:42:41 | 53.77868 | 11.23057 | 131° | 37km/h | 22988m | -12.8m/s | -51.8°C | 0.4% | 36.5hPa | 2.5V | 08:21:14 | 02:22:50 | 00:00:00 | |
| DB0DAN | 2026-09-06 00:42:40 | 53.77874 | 11.23046 | 129° | 35km/h | 23001m | -12.8m/s | -51.7°C | 0.9% | 36.39hPa | 2.5V | 00:00:00 | 00:00:00 | 00:00:00 | |
| AA1-15 | 2026-09-06 00:42:40 | 53.77874 | 11.23046 | 129° | 37km/h | 23001m | -12.8m/s | -51.7°C | 0.3% | 36.4hPa | 2.5V | 08:21:14 | 02:22:49 | 00:00:00 | |
| DL1XH-west | 2026-09-06 00:42:37 | 53.77891 | 11.23008 | 125° | 37km/h | 23040m | -13.1m/s | -51.5°C | 0.3% | 36.1hPa | 2.6V | 08:22:05 | 02:22:46 | 00:00:00 | |
| DL1XH-15 | 2026-09-06 00:42:36 | 53.77917 | 11.22949 | 130° | 24km/h | 23119m | -13.2m/s | -51.8°C | 3.7% | 35.7hPa | 2.5V | 08:21:22 | 02:22:40 | 00:00:00 | |
| DM0DOS-11 | 2026-09-06 00:42:35 | 53.77910 | 11.22964 | 129° | 26km/h | 23092m | -13.2m/s | -51.7°C | 3.7% | 35.9hPa | 2.6V | 08:21:20 | 02:22:42 | 00:00:00 | |
| DF8AY | 2026-09-06 00:42:31 | 53.77921 | 11.22942 | 133° | 22km/h | 23132m | -13.5m/s | -51.8°C | 0.3% | 35.7hPa | 2.5V | 08:22:05 | 02:22:39 | 00:00:00 | |
| AA1-15 | 2026-09-06 00:42:29 | 53.77925 | 11.22936 | 132° | 18km/h | 23146m | -12.7m/s | -51.8°C | 0.4% | 35.6hPa | 2.5V | 08:22:05 | 02:22:38 | 00:00:00 | |
| DO2SHX-10 | 2026-09-06 00:42:29 | 53.77925 | 11.22936 | 133° | 15km/h | 23146m | -12.6m/s | -51.8°C | 3.7% | 35.5hPa | 2.6V | 00:00:00 | 02:22:38 | 00:00:00 | |
| DL1XH1-15 | 2026-09-06 00:42:28 | 53.77930 | 11.22926 | 130° | 11km/h | 23172m | -12.8m/s | -51.8°C | 3.7% | 35.4hPa | 2.6V | 08:21:26 | 02:22:36 | 00:00:00 | |
| DL1XH-west | 2026-09-06 00:42:27 | 53.77930 | 11.22926 | 131° | 11km/h | 23172m | -12.9m/s | -51.8°C | 0.3% | 35.4hPa | 2.6V | 08:22:05 | 02:22:36 | 00:00:00 | |
| DL1XH-15 | 2026-09-06 00:42:26 | 53.77932 | 11.22915 | 44° | 2km/h | 23250m | -13.6m/s | -51.9°C | 3.7% | 35hPa | 2.5V | 08:21:32 | 02:22:30 | 00:00:00 | |
| DB0DAN | 2026-09-06 00:42:25 | 53.77932 | 11.22921 | 110° | 5km/h | 23197m | -12.9m/s | -51.9°C | 0.9% | 35.28hPa | 2.5V | 00:00:00 | 00:00:00 | 00:00:00 | |
| DM0DOS-11 | 2026-09-06 00:42:25 | 53.77933 | 11.22917 | 70° | 4km/h | 23224m | -12.7m/s | -51.8°C | 3.7% | 35.1hPa | 2.6V | 08:21:30 | 02:22:32 | 00:00:00 | |
| DF8AY | 2026-09-06 00:42:19 | 53.77932 | 11.22915 | 220° | 2km/h | 23276m | -13.6m/s | -52.1°C | 0.3% | 34.9hPa | 2.5V | 08:22:05 | 02:22:28 | 00:00:00 | |
| DL4BBY-15 | 2026-09-06 00:42:19 | 53.77932 | 11.22915 | 220° | 11km/h | 23276m | -13.5m/s | -52.7°C | 0% | 0hPa | 2.6V | 00:00:00 | 00:00:00 | 00:00:00 | |
| DL1XH1-15 | 2026-09-06 00:42:18 | 53.77934 | 11.22917 | 207° | 5km/h | 23303m | -13.4m/s | -52.2°C | 3.8% | 34.7hPa | 2.6V | 08:21:36 | 02:22:26 | 00:00:00 | |
| AA1-15 | 2026-09-06 00:42:18 | 53.77932 | 11.22916 | 213° | 4km/h | 23290m | -13.7m/s | -52.2°C | 0.4% | 34.8hPa | 2.6V | 08:22:05 | 02:22:27 | 00:00:00 | |
| DL1XH-west | 2026-09-06 00:42:16 | 53.77935 | 11.22918 | 207° | 7km/h | 23317m | -12.9m/s | -52.3°C | 0.4% | 34.6hPa | 2.5V | 08:22:05 | 02:22:25 | 00:00:00 | |
| SP3WXH-11 | 2026-09-06 00:42:16 | 53.77937 | 11.22920 | 206° | 9km/h | 23330m | -13.1m/s | -52.3°C | 0.9% | 34.6hPa | 2.5V | 00:00:00 | 00:00:00 | 00:00:00 | |
| D01LWL | 2026-09-06 00:42:15 | 53.77939 | 11.22921 | 203° | 11km/h | 23343m | -12.6m/s | -52.3°C | 0.9% | 34.5hPa | 2.5V | 00:00:00 | 00:00:00 | 00:00:00 | |
| DL3AQ-11 | 2026-09-06 00:42:14 | 53.77942 | 11.22924 | 204° | 11km/h | 23356m | -13.9m/s | -52.2°C | 0.9% | 34.4hPa | 2.5V | 00:00:00 | 00:00:00 | 00:00:00 | |
| GOEST3-10 | 2026-09-06 00:42:13 | 53.77942 | 11.22923 | 205° | 7km/h | 23356m | -13.9m/s | -52.2°C | 3.8% | 34.4hPa | 2.5V | 00:00:00 | 00:00:00 | 00:00:00 | |
| DB0DAN | 2026-09-06 00:42:10 | 53.77948 | 11.22929 | 226° | 4km/h | 23397m | -13.3m/s | -52.4°C | 1% | 34.23hPa | 2.5V | 00:00:00 | 00:00:00 | 00:00:00 | |
| DF8AY | 2026-09-06 00:42:09 | 53.77948 | 11.22930 | 324° | 2km/h | 23410m | -13.4m/s | -52.5°C | 0.4% | 34.1hPa | 2.5V | 08:22:05 | 02:22:18 | 00:00:00 | |
| DL1XH1-15 | 2026-09-06 00:42:08 | 53.77945 | 11.22928 | 33° | 11km/h | 23436m | -13.1m/s | -52.6°C | 3.9% | 34hPa | 2.6V | 08:21:46 | 02:22:16 | 00:00:00 | |
| AA1-15 | 2026-09-06 00:42:08 | 53.77947 | 11.22930 | 23° | 5km/h | 23423m | -13m/s | -52.6°C | 0.4% | 34.1hPa | 2.6V | 08:22:05 | 02:22:17 | 00:00:00 | |
| DL1XH-west | 2026-09-06 00:42:06 | 53.77943 | 11.22925 | 39° | 15km/h | 23449m | -13.5m/s | -52.7°C | 0.5% | 33.9hPa | 2.5V | 08:22:05 | 02:22:15 | 00:00:00 | |
| DO2SHX-10 | 2026-09-06 00:42:05 | 53.77940 | 11.22921 | 42° | 16km/h | 23464m | -13.7m/s | -52.7°C | 4.0% | 33.8hPa | 2.5V | 00:00:00 | 02:22:14 | 00:00:00 | |
| DG6HD-15 | 2026-09-06 00:42:03 | 53.77934 | 11.22910 | 51° | 18km/h | 23491m | -14.1m/s | -52.6°C | 1.0% | 33.7hPa | 2.6V | 08:22:00 | 00:00:00 | 00:00:00 | |
| DL1XH1-15 | 2026-09-06 00:42:02 | 53.77921 | 11.22872 | 61° | 11km/h | 23572m | -13.2m/s | -52.8°C | 4% | 33.3hPa | 2.6V | 08:21:56 | 02:22:06 | 00:00:00 | |
| DK7RCA | 2026-09-06 00:42:02 | 53.77930 | 11.22903 | 55° | 18km/h | 23505m | -13.7m/s | -52.6°C | 1.0% | 33.6hPa | 2.5V | 08:22:00 | 00:00:00 | 00:00:00 | |
| DM0DOS-11 | 2026-09-06 00:42:01 | 53.77919 | 11.22868 | 56° | 9km/h | 23585m | -13m/s | -52.8°C | 4% | 33.2hPa | 2.5V | 08:21:57 | 02:22:05 | 00:00:00 | |
| DF8AY | 2026-09-06 00:41:58 | 53.77922 | 11.22877 | 64° | 15km/h | 23558m | -13.5m/s | -52.8°C | 0.5% | 33.4hPa | 2.6V | 08:22:05 | 02:22:07 | 00:00:00 | |
| AA1-15 | 2026-09-06 00:41:57 | 53.77921 | 11.22872 | 61° | 11km/h | 23572m | -13.2m/s | -52.8°C | 0.5% | 33.3hPa | 2.6V | 08:22:05 | 02:22:06 | 00:00:00 | |
| DO2SHX-10 | 2026-09-06 00:41:57 | 53.77921 | 11.22872 | 62° | 9km/h | 23572m | -13.2m/s | -52.8°C | 4.0% | 33.3hPa | 2.5V | 00:00:00 | 02:22:06 | 00:00:00 | |
| DB0DAN | 2026-09-06 00:41:55 | 53.77918 | 11.22865 | 53° | 7km/h | 23598m | -13.9m/s | -52.8°C | 1% | 33.16hPa | 2.5V | 00:00:00 | 00:00:00 | 00:00:00 | |
| DL1XH-west | 2026-09-06 00:41:55 | 53.77918 | 11.22865 | 53° | 9km/h | 23598m | -13.9m/s | -52.8°C | 0.5% | 33.2hPa | 2.5V | 08:22:05 | 02:22:04 | 00:00:00 | |
| DC4HF-4 | 2026-09-06 00:41:54 | 53.77915 | 11.22860 | 44° | 11km/h | 23626m | -13.7m/s | -52.6°C | 1.0% | 33.0hPa | 2.6V | 00:00:00 | 00:00:00 | 00:00:00 | |
| GOEST3-10 | 2026-09-06 00:41:53 | 53.77915 | 11.22860 | 45° | 16km/h | 23626m | -13.7m/s | -52.6°C | 4.0% | 33.0hPa | 2.6V | 00:00:00 | 00:00:00 | 00:00:00 | |
| DM0DOS-11 | 2026-09-06 00:41:51 | 53.77893 | 11.22806 | 68° | 31km/h | 23722m | -14m/s | -52.2°C | 3.9% | 32.5hPa | 2.6V | 08:22:07 | 02:21:55 | 00:00:00 | |
| DO2SHX-10 | 2026-09-06 00:41:51 | 53.77910 | 11.22851 | 49° | 18km/h | 23653m | -14.0m/s | -52.5°C | 4.0% | 32.8hPa | 2.5V | 00:00:00 | 02:22:00 | 00:00:00 | |
| DL4BBY-15 | 2026-09-06 00:41:50 | 53.77904 | 11.22838 | 55° | 31km/h | 23681m | -13.8m/s | -53.0°C | 0% | 0hPa | 2.6V | 00:00:00 | 00:00:00 | 00:00:00 | |
| DL1XH1-15 | 2026-09-06 00:41:48 | 53.77897 | 11.22818 | 62° | 31km/h | 23708m | -13.8m/s | -52.3°C | 3.9% | 32.6hPa | 2.6V | 08:22:06 | 02:21:56 | 00:00:00 | |
| AA1-15 | 2026-09-06 00:41:47 | 53.77897 | 11.22818 | 63° | 31km/h | 23708m | -13.8m/s | -52.3°C | 0.5% | 32.6hPa | 2.6V | 08:22:56 | 02:21:56 | 00:00:00 | |
| DL1XH-15 | 2026-09-06 00:41:46 | 53.77893 | 11.22740 | 110° | 33km/h | 23793m | -13.2m/s | -52°C | 3.8% | 32.2hPa | 2.6V | 08:22:12 | 02:21:50 | 00:00:00 | |
| DF8AY | 2026-09-06 00:41:46 | 53.77894 | 11.22806 | 68° | 31km/h | 23722m | -14m/s | -52.2°C | 0.4% | 32.5hPa | 2.6V | 08:22:56 | 02:21:55 | 00:00:00 | |
| DL1XH-west | 2026-09-06 00:41:45 | 53.77891 | 11.22793 | 77° | 33km/h | 23737m | -14.8m/s | -52.2°C | 0.4% | 32.4hPa | 2.6V | 08:22:56 | 02:21:54 | 00:00:00 | |
| DL3AQ-11 | 2026-09-06 00:41:45 | 53.77890 | 11.22780 | 83° | 31km/h | 23751m | -14.8m/s | -52.1°C | 0.9% | 32.4hPa | 2.5V | 00:00:00 | 00:00:00 | 00:00:00 | |
| D01LWL | 2026-09-06 00:41:44 | 53.77889 | 11.22766 | 92° | 31km/h | 23766m | -14.4m/s | -52.1°C | 0.9% | 32.3hPa | 2.5V | 00:00:00 | 00:00:00 | 00:00:00 | |
| GOEST3-10 | 2026-09-06 00:41:43 | 53.77889 | 11.22766 | 93° | 35km/h | 23766m | -14.4m/s | -52.0°C | 3.8% | 32.2hPa | 2.5V | 00:00:00 | 00:00:00 | 00:00:00 | |
| DL1XH1-15 | 2026-09-06 00:41:42 | 53.77914 | 11.22685 | 126° | 44km/h | 23848m | -14.7m/s | -52.3°C | 3.9% | 31.9hPa | 2.5V | 08:22:16 | 02:21:46 | 00:00:00 | |
| DM0DOS-11 | 2026-09-06 00:41:41 | 53.77921 | 11.22669 | 124° | 46km/h | 23862m | -14.4m/s | -52.4°C | 3.9% | 31.8hPa | 2.6V | 08:22:17 | 02:21:45 | 00:00:00 | |
| DB0DAN | 2026-09-06 00:41:40 | 53.77896 | 11.22726 | 120° | 35km/h | 23806m | -13.1m/s | -52.1°C | 0.9% | 32.08hPa | 2.6V | 00:00:00 | 00:00:00 | 00:00:00 | |
| SONDE2-11 | 2026-09-06 00:41:39 | 53.77901 | 11.22713 | 125° | 38km/h | 23820m | -13.7m/s | -52.1°C | 0.9% | 32.0hPa | 2.5V | 00:00:00 | 00:00:00 | 00:00:00 | |
| DO2SHX-10 | 2026-09-06 00:41:38 | 53.77907 | 11.22699 | 129° | 44km/h | 23834m | -14.6m/s | -52.2°C | 3.8% | 31.9hPa | 2.5V | 08:22:00 | 02:21:47 | 00:00:00 | |
| DL1XH-15 | 2026-09-06 00:41:37 | 53.77942 | 11.22585 | 101° | 37km/h | 23936m | -14.5m/s | -52.2°C | 3.9% | 31.4hPa | 2.6V | 08:22:22 | 02:21:40 | 00:00:00 | |
| AA1-15 | 2026-09-06 00:41:36 | 53.77920 | 11.22669 | 124° | 46km/h | 23862m | -14.5m/s | -52.4°C | 0.5% | 31.8hPa | 2.6V | 08:22:56 | 02:21:45 | 00:00:00 | |
| DL1XH-west | 2026-09-06 00:41:35 | 53.77927 | 11.22653 | 120° | 46km/h | 23877m | -14.2m/s | -52.5°C | 0.5% | 31.8hPa | 2.6V | 08:22:56 | 02:21:44 | 00:00:00 | |
| AP2371 | 2026-09-06 00:41:35 | 53.77927 | 11.22653 | 121° | 46km/h | 23877m | -14.2m/s | -52.5°C | 1.0% | 31.8hPa | 2.5V | 00:00:00 | 00:00:00 | 00:00:00 | |
| DL3AQ-11 | 2026-09-06 00:41:34 | 53.77936 | 11.22618 | 111° | 42km/h | 23906m | -15.4m/s | -52.4°C | 1.0% | 31.6hPa | 2.5V | 00:00:00 | 00:00:00 | 00:00:00 | |
| GOEST3-10 | 2026-09-06 00:41:33 | 53.77936 | 11.22618 | 112° | 37km/h | 23907m | -15.3m/s | -52.4°C | 4.0% | 31.6hPa | 2.5V | 08:22:00 | 00:00:00 | 00:00:00 | |
| DO2SHX-10 | 2026-09-06 00:41:32 | 53.77940 | 11.22601 | 107° | 37km/h | 23922m | -14.8m/s | -52.2°C | 3.9% | 31.5hPa | 2.6V | 00:00:00 | 02:21:41 | 00:00:00 | |
| DM0DOS-11 | 2026-09-06 00:41:31 | 53.77942 | 11.22529 | 92° | 7km/h | 24023m | -15.1m/s | -51.9°C | 3.8% | 31.1hPa | 2.6V | 08:22:28 | 02:21:34 | 00:00:00 | |
| DJ2DS-15 | 2026-09-06 00:41:30 | 53.77943 | 11.22570 | 96° | 31km/h | 23951m | -14.4m/s | -52.1°C | 3.9% | 31.3hPa | 2.5V | 00:00:00 | 02:21:39 | 00:00:00 | |
| DO2SHX-10 | 2026-09-06 00:41:29 | 53.77944 | 11.22558 | 90° | 22km/h | 23965m | -14.7m/s | -52.1°C | 3.9% | 31.3hPa | 2.5V | 00:00:00 | 02:21:38 | 00:00:00 | |
| DL1XH1-15 | 2026-09-06 00:41:28 | 53.77943 | 11.22539 | 76° | 16km/h | 23994m | -14.3m/s | -52°C | 3.8% | 31.1hPa | 2.5V | 08:22:26 | 02:21:36 | 00:00:00 | |
| DF5WG-10 | 2026-09-06 00:41:28 | 53.77943 | 11.22547 | 84° | 22km/h | 23980m | -14.2m/s | -52.0°C | 3.9% | 31.2hPa | 2.5V | 08:22:00 | 02:21:37 | 00:00:00 | |
| EDDB2-12 | 2026-09-06 00:41:27 | 53.77942 | 11.22533 | 73° | 11km/h | 24008m | -14.6m/s | -51.9°C | 0.9% | 31.1hPa | 2.5V | 00:00:00 | 00:00:00 | 00:00:00 | |
| DL1XH-15 | 2026-09-06 00:41:26 | 53.77954 | 11.22518 | 166° | 29km/h | 24082m | -13.5m/s | -52°C | 3.8% | 30.7hPa | 2.5V | 08:22:32 | 02:21:30 | 00:00:00 | |
| AA1-15 | 2026-09-06 00:41:26 | 53.77942 | 11.22533 | 74° | 13km/h | 24008m | -14.6m/s | -51.9°C | 0.4% | 31.1hPa | 2.5V | 08:22:56 | 02:21:35 | 00:00:00 | |
| DB0DAN | 2026-09-06 00:41:25 | 53.77941 | 11.22529 | 92° | 7km/h | 24023m | -15.1m/s | -51.9°C | 0.9% | 31.05hPa | 2.6V | 00:00:00 | 00:00:00 | 00:00:00 | |
| DF8AY | 2026-09-06 00:41:24 | 53.77972 | 11.22511 | 168° | 44km/h | 24108m | -13.7m/s | -52°C | 0.4% | 30.6hPa | 2.6V | 08:22:56 | 02:21:28 | 00:00:00 | |
| DL1XH-west | 2026-09-06 00:41:24 | 53.77942 | 11.22526 | 132° | 9km/h | 24038m | -15.5m/s | -51.9°C | 0.4% | 30.9hPa | 2.6V | 08:22:56 | 02:21:33 | 00:00:00 | |
| DO2SHX-10 | 2026-09-06 00:41:23 | 53.77944 | 11.22523 | 153° | 20km/h | 24054m | -14.8m/s | -51.9°C | 3.8% | 30.9hPa | 2.5V | 00:00:00 | 02:21:32 | 00:00:00 | |
| DL1XH1-15 | 2026-09-06 00:41:22 | 53.77996 | 11.22503 | 171° | 49km/h | 24137m | -14.7m/s | -52°C | 3.8% | 30.5hPa | 2.5V | 08:22:36 | 02:21:26 | 00:00:00 | |
| DG6HD-15 | 2026-09-06 00:41:21 | 53.77954 | 11.22518 | 167° | 29km/h | 24082m | -13.5m/s | -52.0°C | 0.9% | 30.7hPa | 2.5V | 08:22:00 | 00:00:00 | 00:00:00 | |
| DM0DOS-11 | 2026-09-06 00:41:20 | 53.78020 | 11.22500 | 179° | 44km/h | 24167m | -15.4m/s | -51.9°C | 3.8% | 30.4hPa | 2.5V | 08:22:38 | 02:21:24 | 00:00:00 | |
| AA1-15 | 2026-09-06 00:41:16 | 53.78008 | 11.22501 | 176° | 47km/h | 24152m | -15.4m/s | -52°C | 0.4% | 30.4hPa | 2.5V | 08:22:56 | 02:21:25 | 00:00:00 | |
| DL1XH-west | 2026-09-06 00:41:14 | 53.78030 | 11.22501 | 186° | 40km/h | 24183m | -15.4m/s | -51.8°C | 0.4% | 30.2hPa | 2.6V | 08:22:56 | 02:21:23 | 00:00:00 | |
| DF8AY | 2026-09-06 00:41:13 | 53.78040 | 11.22503 | 191° | 35km/h | 24197m | -14.4m/s | -51.8°C | 0.4% | 30.2hPa | 2.6V | 08:22:56 | 02:21:22 | 00:00:00 | |
| D01LWL | 2026-09-06 00:41:13 | 53.78047 | 11.22506 | 199° | 26km/h | 24211m | -14.0m/s | -51.7°C | 0.9% | 30.1hPa | 2.5V | 00:00:00 | 00:00:00 | 00:00:00 | |
| DB0DAN | 2026-09-06 00:41:10 | 53.78055 | 11.22514 | 220° | 13km/h | 24241m | -14.9m/s | -51.8°C | 0.9% | 30hPa | 2.5V | 00:00:00 | 00:00:00 | 00:00:00 | |
| DM0DOS-11 | 2026-09-06 00:41:10 | 53.78054 | 11.22512 | 85° | 13km/h | 24332m | -15.8m/s | -51.9°C | 3.8% | 29.6hPa | 2.5V | 08:22:49 | 02:21:13 | 00:00:00 | |
| AA1-15 | 2026-09-06 00:41:06 | 53.78056 | 11.22520 | 37° | 5km/h | 24300m | -16m/s | -51.8°C | 0.4% | 29.7hPa | 2.5V | 08:22:56 | 02:21:15 | 00:00:00 | |
| DL1XH-west | 2026-09-06 00:41:04 | 53.78054 | 11.22512 | 86° | 13km/h | 24332m | -15.8m/s | -51.9°C | 0.4% | 29.6hPa | 2.5V | 08:22:56 | 02:21:13 | 00:00:00 | |
| DF8AY | 2026-09-06 00:41:02 | 53.78056 | 11.22496 | 111° | 24km/h | 24362m | -14.7m/s | -51.8°C | 0.4% | 29.5hPa | 2.6V | 08:22:56 | 02:21:11 | 00:00:00 | |
| DL1XH1-15 | 2026-09-06 00:41:02 | 53.78085 | 11.22444 | 148° | 44km/h | 24434m | -14.9m/s | -51.8°C | 3.8% | 29.1hPa | 2.6V | 08:22:56 | 02:21:06 | 00:00:00 | |
| DK7RCA | 2026-09-06 00:41:00 | 53.78058 | 11.22486 | 120° | 29km/h | 24376m | -14.1m/s | -51.8°C | 0.9% | 29.4hPa | 2.5V | 00:00:00 | 00:00:00 | 00:00:00 | |
| DG6HD-15 | 2026-09-06 00:40:59 | 53.78063 | 11.22475 | 129° | 33km/h | 24391m | -14.8m/s | -51.8°C | 0.9% | 29.3hPa | 2.5V | 08:22:00 | 00:00:00 | 00:00:00 | |
| DF5WG-10 | 2026-09-06 00:40:58 | 53.78077 | 11.22453 | 144° | 40km/h | 24420m | -15.0m/s | -51.7°C | 3.7% | 29.1hPa | 2.5V | 00:00:00 | 02:21:07 | 00:00:00 | |
| DM0DOS-11 | 2026-09-06 00:40:57 | 53.78106 | 11.22428 | 161° | 44km/h | 24464m | -15m/s | -51.9°C | 3.8% | 29hPa | 2.5V | 08:22:58 | 02:21:04 | 00:00:00 | |
| EDDB2-12 | 2026-09-06 00:40:56 | 53.78106 | 11.22428 | 161° | 44km/h | 24464m | -15.0m/s | -51.9°C | 0.9% | 29.0hPa | 2.5V | 00:00:00 | 00:00:00 | 00:00:00 | |
| DB0DAN | 2026-09-06 00:40:55 | 53.78106 | 11.22428 | 161° | 42km/h | 24464m | -15m/s | -51.9°C | 0.9% | 28.98hPa | 2.5V | 00:00:00 | 00:00:00 | 00:00:00 | |
| AA1-15 | 2026-09-06 00:40:55 | 53.78106 | 11.22428 | 161° | 44km/h | 24464m | -15m/s | -51.9°C | 0.5% | 29hPa | 2.5V | 08:23:47 | 02:21:04 | 00:00:00 | |
| DL1XH-west | 2026-09-06 00:40:53 | 53.78127 | 11.22421 | 179° | 42km/h | 24494m | -15.1m/s | -51.9°C | 0.4% | 28.9hPa | 2.5V | 08:23:47 | 02:21:02 | 00:00:00 | |
| DF8AY | 2026-09-06 00:40:51 | 53.78147 | 11.22426 | 200° | 37km/h | 24523m | -14.6m/s | -51.8°C | 0.4% | 28.7hPa | 2.6V | 08:24:38 | 02:21:00 | 00:00:00 | |
| DL1XH1-15 | 2026-09-06 00:40:51 | 53.78168 | 11.22459 | 252° | 20km/h | 24583m | -15.2m/s | -51.7°C | 3.8% | 28.4hPa | 2.5V | 08:23:06 | 02:20:56 | 00:00:00 | |
| DJ2DS-15 | 2026-09-06 00:40:50 | 53.78155 | 11.22433 | 213° | 27km/h | 24538m | -14.1m/s | -51.7°C | 3.7% | 28.6hPa | 2.6V | 00:00:00 | 02:20:59 | 00:00:00 | |
| DO2SHX-10 | 2026-09-06 00:40:49 | 53.78161 | 11.22441 | 228° | 29km/h | 24552m | -15.2m/s | -51.7°C | 3.8% | 28.5hPa | 2.6V | 00:00:00 | 02:20:58 | 00:00:00 | |
| DF5WG-10 | 2026-09-06 00:40:48 | 53.78165 | 11.22450 | 240° | 20km/h | 24568m | -15.8m/s | -51.7°C | 3.8% | 28.5hPa | 2.6V | 00:00:00 | 02:20:57 | 00:00:00 | |
| AP2371 | 2026-09-06 00:40:47 | 53.78168 | 11.22458 | 253° | 20km/h | 24583m | -15.2m/s | -51.7°C | 0.9% | 28.4hPa | 2.6V | 00:00:00 | 00:00:00 | 00:00:00 | |
| DM0DOS-11 | 2026-09-06 00:40:46 | 53.78168 | 11.22469 | 303° | 5km/h | 24614m | -15.8m/s | -51.7°C | 3.8% | 28.3hPa | 2.6V | 08:23:08 | 02:20:54 | 00:00:00 | |
| AA1-15 | 2026-09-06 00:40:45 | 53.78168 | 11.22469 | 304° | 5km/h | 24614m | -15.8m/s | -51.7°C | 0.4% | 28.3hPa | 2.6V | 08:23:47 | 02:20:54 | 00:00:00 | |
| DL1XH-west | 2026-09-06 00:40:43 | 53.78167 | 11.22465 | 94° | 13km/h | 24644m | -15.2m/s | -51.7°C | 0.4% | 28.2hPa | 2.5V | 08:23:47 | 02:20:52 | 00:00:00 | |
| SP3WXH-11 | 2026-09-06 00:40:43 | 53.78168 | 11.22458 | 109° | 20km/h | 24658m | -14.5m/s | -51.7°C | 0.9% | 28.1hPa | 2.5V | 00:00:00 | 00:00:00 | 00:00:00 | |
| DC4HF-4 | 2026-09-06 00:40:42 | 53.78171 | 11.22448 | 119° | 29km/h | 24673m | -14.9m/s | -51.7°C | 0.9% | 28.1hPa | 2.5V | 00:00:00 | 00:00:00 | 00:00:00 | |
| DL1XH1-15 | 2026-09-06 00:40:41 | 53.78198 | 11.22411 | 162° | 37km/h | 24735m | -16m/s | -51.7°C | 3.8% | 27.7hPa | 2.5V | 08:23:16 | 02:20:46 | 00:00:00 | |
| DB0DAN | 2026-09-06 00:40:40 | 53.78176 | 11.22437 | 129° | 33km/h | 24688m | -14.7m/s | -51.8°C | 0.9% | 27.96hPa | 2.6V | 00:00:00 | 00:00:00 | 00:00:00 | |
| DF8AY | 2026-09-06 00:40:40 | 53.78176 | 11.22437 | 129° | 35km/h | 24688m | -14.7m/s | -51.8°C | 0.4% | 28hPa | 2.6V | 08:24:38 | 02:20:49 | 00:00:00 | |
| DM0DOS-11 | 2026-09-06 00:40:40 | 53.78215 | 11.22410 | 196° | 35km/h | 24766m | -15.2m/s | -51.8°C | 3.9% | 27.6hPa | 2.6V | 08:23:18 | 02:20:44 | 00:00:00 | |
| AA1-15 | 2026-09-06 00:40:35 | 53.78215 | 11.22410 | 197° | 35km/h | 24766m | -15.2m/s | -51.8°C | 0.5% | 27.6hPa | 2.6V | 08:23:47 | 02:20:44 | 00:00:00 | |
| DL1XH-west | 2026-09-06 00:40:33 | 53.78229 | 11.22425 | 232° | 31km/h | 24794m | -13.9m/s | -51.9°C | 0.5% | 27.5hPa | 2.5V | 08:23:47 | 02:20:42 | 00:00:00 | |
| DL1XH-15 | 2026-09-06 00:40:31 | 53.78234 | 11.22448 | 267° | 27km/h | 24824m | -15.9m/s | -51.9°C | 4% | 27.4hPa | 2.5V | 08:23:22 | 02:20:40 | 00:00:00 | |
| DL1XH1-15 | 2026-09-06 00:40:31 | 53.78226 | 11.22474 | 3° | 15km/h | 24887m | -15.4m/s | -51.8°C | 4% | 27.1hPa | 2.6V | 08:23:26 | 02:20:36 | 00:00:00 | |
| DF8AY | 2026-09-06 00:40:30 | 53.78234 | 11.22459 | 284° | 24km/h | 24841m | -16.6m/s | -51.9°C | 0.5% | 27.3hPa | 2.5V | 08:24:38 | 02:20:39 | 00:00:00 | |
| DJ2DS-15 | 2026-09-06 00:40:30 | 53.78234 | 11.22459 | 284° | 26km/h | 24841m | -16.5m/s | -51.8°C | 4.0% | 27.3hPa | 2.6V | 00:00:00 | 02:20:39 | 00:00:00 | |
| DO2SHX-10 | 2026-09-06 00:40:29 | 53.78232 | 11.22467 | 302° | 18km/h | 24857m | -15.4m/s | -51.8°C | 4.0% | 27.2hPa | 2.6V | 00:00:00 | 02:20:38 | 00:00:00 | |
| DF5WG-10 | 2026-09-06 00:40:28 | 53.78229 | 11.22472 | 323° | 26km/h | 24872m | -14.9m/s | -51.8°C | 4.0% | 27.1hPa | 2.6V | 00:00:00 | 02:20:37 | 00:00:00 | |
| SMARD9-15 | 2026-09-06 00:40:27 | 53.78226 | 11.22474 | 3° | 13km/h | 24887m | -15.4m/s | -51.8°C | 1.0% | 27.1hPa | 2.5V | 00:00:00 | 00:00:00 | 00:00:00 | |
| DL1XH-15 | 2026-09-06 00:40:26 | 53.78225 | 11.22426 | 125° | 33km/h | 24979m | -14.9m/s | -50.9°C | 3.7% | 26.7hPa | 2.5V | 08:23:32 | 02:20:30 | 00:00:00 | |
| AA1-15 | 2026-09-06 00:40:25 | 53.78220 | 11.22466 | 66° | 18km/h | 24918m | -15.5m/s | -51.5°C | 0.5% | 27hPa | 2.5V | 08:23:47 | 02:20:34 | 00:00:00 | |
| DL1XH-west | 2026-09-06 00:40:23 | 53.78219 | 11.22448 | 101° | 26km/h | 24949m | -15.8m/s | -51.1°C | 0.4% | 26.9hPa | 2.6V | 08:23:47 | 02:20:32 | 00:00:00 | |
| DF8AY | 2026-09-06 00:40:20 | 53.78231 | 11.22415 | 137° | 37km/h | 24994m | -15.9m/s | -50.9°C | 0.4% | 26.7hPa | 2.5V | 08:24:38 | 02:20:29 | 00:00:00 | |
| DL4BBY-15 | 2026-09-06 00:40:19 | 53.78238 | 11.22404 | 144° | 26km/h | 25009m | -16.3m/s | -51.5°C | 0% | 0hPa | 2.6V | 00:00:00 | 00:00:00 | 00:00:00 | |
| DG6HD-15 | 2026-09-06 00:40:18 | 53.78247 | 11.22395 | 153° | 40km/h | 25026m | -16.5m/s | -50.9°C | 0.9% | 26.5hPa | 2.6V | 08:23:00 | 00:00:00 | 00:00:00 | |
| DL1XH-15 | 2026-09-06 00:40:16 | 53.78289 | 11.22400 | 298° | 7km/h | 25135m | -15.7m/s | -50.5°C | 3.6% | 26.1hPa | 2.6V | 08:23:42 | 02:20:20 | 00:00:00 | |
| AA1-15 | 2026-09-06 00:40:15 | 53.78281 | 11.22386 | 199° | 26km/h | 25089m | -15m/s | -50.6°C | 0.3% | 26.3hPa | 2.5V | 08:23:47 | 02:20:23 | 00:00:00 | |
| DL1XH-west | 2026-09-06 00:40:12 | 53.78289 | 11.22396 | 247° | 13km/h | 25119m | -15.8m/s | -50.6°C | 0.3% | 26.2hPa | 2.5V | 08:23:47 | 02:20:21 | 00:00:00 | |
| DB0DAN | 2026-09-06 00:40:10 | 53.78287 | 11.22401 | 9° | 9km/h | 25151m | -16.1m/s | -50.5°C | 0.8% | 26.02hPa | 2.6V | 00:00:00 | 00:00:00 | 00:00:00 | |
| DF8AY | 2026-09-06 00:40:09 | 53.78285 | 11.22399 | 37° | 16km/h | 25166m | -14.3m/s | -50.5°C | 0.3% | 26hPa | 2.5V | 08:24:38 | 02:20:18 | 00:00:00 | |
| DO2SHX-10 | 2026-09-06 00:40:09 | 53.78284 | 11.22399 | 37° | 16km/h | 25166m | -14.3m/s | -50.4°C | 3.6% | 25.9hPa | 2.5V | 00:00:00 | 02:20:18 | 00:00:00 | |
| DF5WG-10 | 2026-09-06 00:40:08 | 53.78281 | 11.22392 | 60° | 29km/h | 25181m | -14.8m/s | -50.3°C | 3.5% | 25.9hPa | 2.5V | 00:00:00 | 02:20:17 | 00:00:00 | |
| DL1XH-15 | 2026-09-06 00:40:07 | 53.78300 | 11.22315 | 162° | 22km/h | 25287m | -16m/s | -50.3°C | 3.5% | 25.5hPa | 2.5V | 08:23:52 | 02:20:10 | 00:00:00 | |
| AA1-15 | 2026-09-06 00:40:04 | 53.78283 | 11.22340 | 122° | 35km/h | 25240m | -15.4m/s | -50.3°C | 0.3% | 25.7hPa | 2.5V | 08:24:38 | 02:20:13 | 00:00:00 | |
| DL1XH-west | 2026-09-06 00:40:01 | 53.78300 | 11.22315 | 162° | 22km/h | 25287m | -16m/s | -50.3°C | 0.2% | 25.5hPa | 2.5V | 08:24:38 | 02:20:10 | 00:00:00 | |
| DF8AY | 2026-09-06 00:39:59 | 53.78308 | 11.22315 | 212° | 15km/h | 25318m | -15.9m/s | -50.3°C | 0.3% | 25.4hPa | 2.6V | 08:24:38 | 02:20:08 | 00:00:00 | |
| DO2SHX-10 | 2026-09-06 00:39:59 | 53.78308 | 11.22315 | 212° | 15km/h | 25319m | -15.9m/s | -50.2°C | 3.5% | 25.3hPa | 2.5V | 00:00:00 | 02:20:08 | 00:00:00 | |
| DL1XH1-15 | 2026-09-06 00:39:57 | 53.78312 | 11.22325 | 267° | 16km/h | 25350m | -15.6m/s | -50.2°C | 3.5% | 25.3hPa | 2.5V | 08:23:56 | 02:20:06 | 00:00:00 | |
| SMARD9-15 | 2026-09-06 00:39:56 | 53.78311 | 11.22333 | 289° | 20km/h | 25366m | -15.6m/s | -50.1°C | 0.8% | 25.2hPa | 2.5V | 00:00:00 | 00:00:00 | 00:00:00 | |
| DB0DAN | 2026-09-06 00:39:55 | 53.78308 | 11.22341 | 301° | 22km/h | 25381m | -15m/s | -50.1°C | 0.8% | 25.12hPa | 2.5V | 00:00:00 | 00:00:00 | 00:00:00 | |
| DJ2DS-15 | 2026-09-06 00:39:55 | 53.78308 | 11.22341 | 300° | 22km/h | 25381m | -15.0m/s | -50.1°C | 0.8% | 25.1hPa | 2.6V | 00:00:00 | 00:00:00 | 00:00:00 | |
| DM0DOS-11 | 2026-09-06 00:39:54 | 53.78299 | 11.22357 | 320° | 29km/h | 25412m | -15.4m/s | -50.2°C | 3.5% | 25hPa | 2.6V | 08:24:00 | 02:20:02 | 00:00:00 | |
| AA1-15 | 2026-09-06 00:39:53 | 53.78299 | 11.22357 | 320° | 29km/h | 25412m | -15.4m/s | -50.2°C | 0.2% | 25hPa | 2.6V | 08:24:38 | 02:20:02 | 00:00:00 | |
| DL1XH1-15 | 2026-09-06 00:39:52 | 53.78258 | 11.22361 | 39° | 29km/h | 25509m | -15.9m/s | -50.2°C | 3.5% | 24.6hPa | 2.6V | 08:24:06 | 02:19:56 | 00:00:00 | |
| DL1XH-15 | 2026-09-06 00:39:51 | 53.78286 | 11.22369 | 345° | 31km/h | 25444m | -16.4m/s | -50.2°C | 3.5% | 24.9hPa | 2.5V | 08:24:02 | 02:20:00 | 00:00:00 | |
| DL1XH-west | 2026-09-06 00:39:51 | 53.78286 | 11.22369 | 345° | 31km/h | 25444m | -16.4m/s | -50.2°C | 0.3% | 24.9hPa | 2.5V | 08:24:38 | 02:20:00 | 00:00:00 | |
| DF8AY | 2026-09-06 00:39:49 | 53.78271 | 11.22371 | 8° | 29km/h | 25477m | -16.3m/s | -50.2°C | 0.2% | 24.8hPa | 2.5V | 08:24:38 | 02:19:58 | 00:00:00 | |
| DL4BBY-15 | 2026-09-06 00:39:49 | 53.78271 | 11.22371 | 8° | 20km/h | 25477m | -16.2m/s | -50.8°C | 0% | 0hPa | 2.6V | 00:00:00 | 00:00:00 | 00:00:00 | |
| DO2SHX-10 | 2026-09-06 00:39:48 | 53.78264 | 11.22368 | 24° | 29km/h | 25493m | -16.3m/s | -50.2°C | 3.4% | 24.7hPa | 2.6V | 08:24:00 | 02:19:57 | 00:00:00 | |
| GOEST3-10 | 2026-09-06 00:39:47 | 53.78258 | 11.22361 | 40° | 27km/h | 25509m | -15.9m/s | -50.2°C | 3.5% | 24.6hPa | 2.6V | 00:00:00 | 02:19:56 | 00:00:00 | |
| DL1XH-15 | 2026-09-06 00:39:46 | 53.78247 | 11.22303 | 110° | 22km/h | 25605m | -15.1m/s | -50.2°C | 3.4% | 24.3hPa | 2.6V | 08:24:12 | 02:19:50 | 00:00:00 | |
| DL3AQ-11 | 2026-09-06 00:39:45 | 53.78247 | 11.22332 | 74° | 24km/h | 25557m | -15.9m/s | -50.2°C | 0.8% | 24.5hPa | 2.5V | 00:00:00 | 00:00:00 | 00:00:00 | |
| DM0DOS-11 | 2026-09-06 00:39:44 | 53.78246 | 11.22322 | 88° | 24km/h | 25573m | -17.1m/s | -50.2°C | 3.4% | 24.4hPa | 2.5V | 08:24:10 | 02:19:52 | 00:00:00 | |
| AA1-15 | 2026-09-06 00:39:43 | 53.78246 | 11.22322 | 89° | 24km/h | 25573m | -17.1m/s | -50.2°C | 0.2% | 24.4hPa | 2.5V | 08:24:38 | 02:19:52 | 00:00:00 | |
| DL1XH1-15 | 2026-09-06 00:39:42 | 53.78260 | 11.22280 | 153° | 15km/h | 25669m | -16.5m/s | -50.4°C | 3.4% | 24hPa | 2.5V | 08:24:16 | 02:19:46 | 00:00:00 | |
| DB0DAN | 2026-09-06 00:39:40 | 53.78250 | 11.22295 | 126° | 20km/h | 25621m | -15.8m/s | -50.3°C | 0.8% | 24.21hPa | 2.5V | 00:00:00 | 00:00:00 | 00:00:00 | |
| DL1XH-west | 2026-09-06 00:39:40 | 53.78250 | 11.22295 | 126° | 20km/h | 25621m | -15.8m/s | -50.3°C | 0.2% | 24.2hPa | 2.5V | 08:24:38 | 02:19:49 | 00:00:00 | |
| DF8AY | 2026-09-06 00:39:38 | 53.78256 | 11.22284 | 144° | 16km/h | 25653m | -16.6m/s | -50.4°C | 0.2% | 24.1hPa | 2.5V | 08:24:38 | 02:19:47 | 00:00:00 | |
| DG6HD-15 | 2026-09-06 00:39:38 | 53.78256 | 11.22284 | 145° | 16km/h | 25653m | -16.6m/s | -50.4°C | 0.8% | 24.1hPa | 2.5V | 08:24:00 | 00:00:00 | 00:00:00 | |
| GOEST3-10 | 2026-09-06 00:39:37 | 53.78260 | 11.22280 | 154° | 9km/h | 25669m | -16.4m/s | -50.3°C | 3.4% | 24.0hPa | 2.5V | 00:00:00 | 02:19:46 | 00:00:00 | |
| DL1XH-15 | 2026-09-06 00:39:36 | 53.78258 | 11.22263 | 31° | 22km/h | 25765m | -16.3m/s | -50.7°C | 3.5% | 23.7hPa | 2.5V | 08:24:22 | 02:19:40 | 00:00:00 | |
| HTAHTA | 2026-09-06 00:39:35 | 53.78264 | 11.22275 | 138° | 7km/h | 25701m | -16.0m/s | -50.5°C | 0.8% | 24.0hPa | 2.5V | 00:00:00 | 00:00:00 | 00:00:00 | |
| DM0DOS-11 | 2026-09-06 00:39:34 | 53.78264 | 11.22271 | 44° | 9km/h | 25733m | -16.4m/s | -50.6°C | 3.5% | 23.8hPa | 2.5V | 08:24:20 | 02:19:42 | 00:00:00 | |
| AA1-15 | 2026-09-06 00:39:32 | 53.78262 | 11.22268 | 31° | 16km/h | 25750m | -16.3m/s | -50.7°C | 0.3% | 23.8hPa | 2.5V | 08:24:38 | 02:19:41 | 00:00:00 | |
| DL1XH-west | 2026-09-06 00:39:29 | 53.78247 | 11.22251 | 35° | 27km/h | 25797m | -16.4m/s | -50.8°C | 0.3% | 23.6hPa | 2.6V | 08:24:38 | 02:19:38 | 00:00:00 | |
| DF8AY | 2026-09-06 00:39:28 | 53.78241 | 11.22244 | 37° | 27km/h | 25813m | -16.2m/s | -50.9°C | 0.3% | 23.5hPa | 2.5V | 08:24:38 | 02:19:37 | 00:00:00 | |
| DL1XH1-15 | 2026-09-06 00:39:27 | 53.78236 | 11.22238 | 34° | 27km/h | 25829m | -16.4m/s | -50.9°C | 3.7% | 23.5hPa | 2.5V | 08:24:26 | 02:19:36 | 00:00:00 | |
| GOEST3-10 | 2026-09-06 00:39:27 | 53.78235 | 11.22238 | 35° | 22km/h | 25829m | -16.4m/s | -50.9°C | 3.7% | 23.4hPa | 2.5V | 00:00:00 | 02:19:36 | 00:00:00 | |
| DL1XH-15 | 2026-09-06 00:39:26 | 53.78208 | 11.22219 | 30° | 9km/h | 25930m | -16.6m/s | -50.9°C | 3.6% | 23.1hPa | 2.5V | 08:24:32 | 02:19:30 | 00:00:00 | |
| SMARD9-15 | 2026-09-06 00:39:25 | 53.78224 | 11.22228 | 22° | 22km/h | 25863m | -16.9m/s | -50.9°C | 0.9% | 23.3hPa | 2.6V | 00:00:00 | 00:00:00 | 00:00:00 | |
| DM0DOS-11 | 2026-09-06 00:39:24 | 53.78214 | 11.22222 | 16° | 16km/h | 25897m | -17.2m/s | -50.9°C | 3.7% | 23.2hPa | 2.6V | 08:24:30 | 02:19:32 | 00:00:00 | |
| AA1-15 | 2026-09-06 00:39:22 | 53.78211 | 11.22220 | 17° | 13km/h | 25914m | -16.5m/s | -50.9°C | 0.4% | 23.1hPa | 2.6V | 08:24:38 | 02:19:31 | 00:00:00 | |
| DL1XH-west | 2026-09-06 00:39:19 | 53.78206 | 11.22214 | 86° | 7km/h | 25963m | -16.4m/s | -50.9°C | 0.4% | 23hPa | 2.5V | 08:24:38 | 02:19:28 | 00:00:00 | |
| DF8AY | 2026-09-06 00:39:18 | 53.78206 | 11.22210 | 109° | 11km/h | 25980m | -16.6m/s | -51°C | 0.4% | 22.9hPa | 2.5V | 08:24:38 | 02:19:27 | 00:00:00 | |
| AA1-15 | 2026-09-06 00:39:12 | 53.78210 | 11.22190 | 351° | 4km/h | 26079m | -16.5m/s | -51.1°C | 0.4% | 22.6hPa | 2.5V | 08:25:29 | 02:19:21 | 00:00:00 | |
| DL1XH-15 | 2026-09-06 00:39:11 | 53.78209 | 11.22192 | 321° | 9km/h | 26095m | -17.6m/s | -51.1°C | 3.8% | 22.5hPa | 2.6V | 08:24:42 | 02:19:20 | 00:00:00 | |
| DB0DAN | 2026-09-06 00:39:10 | 53.78207 | 11.22195 | 306° | 13km/h | 26112m | -16.7m/s | -51°C | 0.9% | 22.44hPa | 2.6V | 00:00:00 | 00:00:00 | 00:00:00 | |
| DL1XH-west | 2026-09-06 00:39:08 | 53.78203 | 11.22207 | 296° | 16km/h | 26146m | -17.7m/s | -51°C | 0.4% | 22.3hPa | 2.5V | 08:25:29 | 02:19:17 | 00:00:00 | |
| GOEST3-10 | 2026-09-06 00:39:07 | 53.78201 | 11.22212 | 295° | 13km/h | 26165m | -18.9m/s | -51.0°C | 3.8% | 22.2hPa | 2.6V | 00:00:00 | 02:19:16 | 00:00:00 | |
| DL1XH1-15 | 2026-09-06 00:39:07 | 53.78202 | 11.22212 | 294° | 13km/h | 26164m | -18.9m/s | -51°C | 3.8% | 22.3hPa | 2.5V | 08:24:46 | 02:19:16 | 00:00:00 | |
| DO2SHX-10 | 2026-09-06 00:39:06 | 53.78201 | 11.22215 | 277° | 7km/h | 26183m | -18.5m/s | -51.0°C | 3.8% | 22.1hPa | 2.6V | 00:00:00 | 02:19:15 | 00:00:00 | |
| DL1XH-15 | 2026-09-06 00:39:06 | 53.78209 | 11.22177 | 97° | 44km/h | 26269m | -16.6m/s | -50.8°C | 3.7% | 21.9hPa | 2.5V | 08:24:52 | 02:19:10 | 00:00:00 | |
| DL3AQ-11 | 2026-09-06 00:39:05 | 53.78203 | 11.22214 | 125° | 11km/h | 26219m | -16.8m/s | -51.0°C | 0.9% | 22.1hPa | 2.6V | 00:00:00 | 00:00:00 | 00:00:00 | |
| SONDE2-11 | 2026-09-06 00:39:04 | 53.78205 | 11.22207 | 115° | 26km/h | 26236m | -16.2m/s | -50.9°C | 0.9% | 22.0hPa | 2.6V | 00:00:00 | 00:00:00 | 00:00:00 | |
| DO2SHX-10 | 2026-09-06 00:39:03 | 53.78205 | 11.22207 | 116° | 35km/h | 26236m | -16.2m/s | -50.8°C | 3.7% | 22.0hPa | 2.6V | 00:00:00 | 02:19:12 | 00:00:00 | |
| DL1XH1-15 | 2026-09-06 00:39:02 | 53.78208 | 11.22100 | 76° | 40km/h | 26339m | -18.2m/s | -50.8°C | 3.8% | 21.6hPa | 2.6V | 08:24:56 | 02:19:06 | 00:00:00 | |
| AA1-15 | 2026-09-06 00:39:01 | 53.78209 | 11.22177 | 98° | 44km/h | 26269m | -16.6m/s | -50.8°C | 0.4% | 21.9hPa | 2.5V | 08:25:29 | 02:19:10 | 00:00:00 | |
| DL1XH-west | 2026-09-06 00:38:58 | 53.78210 | 11.22118 | 83° | 46km/h | 26321m | -17.7m/s | -50.8°C | 0.4% | 21.7hPa | 2.6V | 08:25:29 | 02:19:07 | 00:00:00 | |
| DF8AY | 2026-09-06 00:38:57 | 53.78208 | 11.22100 | 76° | 40km/h | 26339m | -18.2m/s | -50.8°C | 0.4% | 21.6hPa | 2.6V | 08:25:29 | 02:19:06 | 00:00:00 | |
| DF5WG-10 | 2026-09-06 00:38:57 | 53.78208 | 11.22100 | 77° | 26km/h | 26339m | -18.2m/s | -50.7°C | 3.8% | 21.6hPa | 2.6V | 00:00:00 | 02:19:06 | 00:00:00 | |
| DB0DAN | 2026-09-06 00:38:55 | 53.78201 | 11.22071 | 58° | 29km/h | 26373m | -16.2m/s | -50.7°C | 0.9% | 21.57hPa | 2.5V | 00:00:00 | 00:00:00 | 00:00:00 | |
| AA1-15 | 2026-09-06 00:38:50 | 53.78177 | 11.22044 | 24° | 20km/h | 26458m | -19m/s | -49.9°C | 0.2% | 21.3hPa | 2.5V | 08:25:29 | 02:18:59 | 00:00:00 | |
| DJ2DS-15 | 2026-09-06 00:38:50 | 53.78177 | 11.22044 | 25° | 24km/h | 26458m | -19.0m/s | -49.9°C | 3.5% | 21.2hPa | 2.5V | 00:00:00 | 02:18:59 | 00:00:00 | |
| DL1XH1-15 | 2026-09-06 00:38:49 | 53.78168 | 11.22024 | 78° | 22km/h | 26513m | -18.5m/s | -49.7°C | 3.4% | 21.1hPa | 2.5V | 08:25:06 | 02:18:56 | 00:00:00 | |
| DL1XH-west | 2026-09-06 00:38:47 | 53.78168 | 11.22024 | 79° | 22km/h | 26513m | -18.5m/s | -49.7°C | 0.2% | 21.1hPa | 2.5V | 08:25:29 | 02:18:56 | 00:00:00 | |
| DF8AY | 2026-09-06 00:38:46 | 53.78168 | 11.22015 | 103° | 22km/h | 26531m | -18.7m/s | -49.8°C | 0.2% | 21.1hPa | 2.6V | 08:25:29 | 02:18:55 | 00:00:00 | |
| DO2SHX-10 | 2026-09-06 00:38:44 | 53.78174 | 11.21997 | 136° | 31km/h | 26567m | -17.1m/s | -50.0°C | 3.5% | 20.9hPa | 2.5V | 00:00:00 | 02:18:53 | 00:00:00 | |
| DJ2DS-15 | 2026-09-06 00:38:43 | 53.78186 | 11.21984 | 150° | 31km/h | 26602m | -17.6m/s | -50.0°C | 0% | 20.8hPa | 2.5V | 00:00:00 | 00:00:00 | 00:00:00 | |
| GOEST3-10 | 2026-09-06 00:38:42 | 53.78186 | 11.21984 | 151° | 35km/h | 26602m | -17.5m/s | -49.9°C | 3.5% | 20.8hPa | 2.5V | 00:00:00 | 00:00:00 | 00:00:00 | |
| DB0DAN | 2026-09-06 00:38:40 | 53.78202 | 11.21972 | 164° | 37km/h | 26636m | -17.8m/s | -49.9°C | 0.8% | 20.69hPa | 2.5V | 00:00:00 | 00:00:00 | 00:00:00 | |
| AA1-15 | 2026-09-06 00:38:39 | 53.78211 | 11.21968 | 170° | 38km/h | 26654m | -18.6m/s | -49.9°C | 0.2% | 20.6hPa | 2.6V | 08:25:29 | 02:18:48 | 00:00:00 | |
| DM0DOS-11 | 2026-09-06 00:38:38 | 53.78230 | 11.21965 | 177° | 33km/h | 26691m | -19.2m/s | -49.9°C | 3.5% | 20.5hPa | 2.6V | 08:25:16 | 02:18:46 | 00:00:00 | |
| DL1XH-west | 2026-09-06 00:38:36 | 53.78237 | 11.21965 | 183° | 27km/h | 26710m | -19m/s | -50°C | 0.3% | 20.5hPa | 2.5V | 08:25:29 | 02:18:45 | 00:00:00 | |
| DF8AY | 2026-09-06 00:38:35 | 53.78243 | 11.21967 | 191° | 20km/h | 26729m | -18.5m/s | -50.1°C | 0.3% | 20.4hPa | 2.5V | 08:25:29 | 02:18:44 | 00:00:00 | |
| AA1-15 | 2026-09-06 00:38:29 | 53.78234 | 11.21974 | 358° | 13km/h | 26835m | -20.9m/s | -49.9°C | 0.3% | 20.1hPa | 2.5V | 08:25:29 | 02:18:38 | 00:00:00 | |
| DJ2DS-15 | 2026-09-06 00:38:29 | 53.78234 | 11.21974 | 359° | 24km/h | 26836m | -20.8m/s | -49.9°C | 3.5% | 20.0hPa | 2.6V | 00:00:00 | 02:18:38 | 00:00:00 | |
| DL1XH1-15 | 2026-09-06 00:38:28 | 53.78231 | 11.21971 | 109° | 7km/h | 26875m | -20.1m/s | -50°C | 3.6% | 19.9hPa | 2.6V | 08:25:26 | 02:18:36 | 00:00:00 | |
| DM0DOS-11 | 2026-09-06 00:38:28 | 53.78232 | 11.21967 | 134° | 15km/h | 26894m | -17.9m/s | -50°C | 3.6% | 19.9hPa | 2.6V | 08:25:27 | 02:18:35 | 00:00:00 | |
| DB0DAN | 2026-09-06 00:38:25 | 53.78236 | 11.21961 | 142° | 24km/h | 26911m | -16.4m/s | -50°C | 0.9% | 19.85hPa | 2.6V | 00:00:00 | 00:00:00 | 00:00:00 | |
| DL1XH-west | 2026-09-06 00:38:25 | 53.78236 | 11.21961 | 142° | 24km/h | 26911m | -16.4m/s | -50°C | 0.3% | 19.9hPa | 2.6V | 08:25:29 | 02:18:34 | 00:00:00 | |
| SMARD9-15 | 2026-09-06 00:38:23 | 53.78250 | 11.21942 | 141° | 40km/h | 26945m | -17.8m/s | -50.0°C | 0.8% | 19.7hPa | 2.5V | 00:00:00 | 00:00:00 | 00:00:00 | |
| EDDB2-12 | 2026-09-06 00:38:20 | 53.78272 | 11.21899 | 119° | 44km/h | 27001m | -18.9m/s | -49.8°C | 0.8% | 19.5hPa | 2.5V | 00:00:00 | 00:00:00 | 00:00:00 | |
| DL4XJ-10 | 2026-09-06 00:38:19 | 53.78277 | 11.21882 | 108° | 46km/h | 27020m | -20.5m/s | -50.3°C | 0% | 0hPa | 2.5V | 00:00:00 | 00:00:00 | 00:00:00 | |
| DL1XH1-15 | 2026-09-06 00:38:18 | 53.78281 | 11.21851 | 93° | 33km/h | 27060m | -19.4m/s | -49.6°C | 3.5% | 19.4hPa | 2.5V | 08:25:36 | 02:18:26 | 00:00:00 | |
| AA1-15 | 2026-09-06 00:38:18 | 53.78280 | 11.21866 | 100° | 38km/h | 27040m | -19.2m/s | -49.6°C | 0.2% | 19.4hPa | 2.5V | 08:26:20 | 02:18:27 | 00:00:00 | |
| DL1XH-west | 2026-09-06 00:38:15 | 53.78281 | 11.21830 | 91° | 16km/h | 27097m | -18.1m/s | -49.7°C | 0.3% | 19.3hPa | 2.6V | 08:26:20 | 02:18:24 | 00:00:00 | |
| DF8AY | 2026-09-06 00:38:14 | 53.78281 | 11.21825 | 108° | 7km/h | 27115m | -17.9m/s | -49.7°C | 0.3% | 19.2hPa | 2.6V | 08:26:20 | 02:18:23 | 00:00:00 | |
| DL3AQ-11 | 2026-09-06 00:38:14 | 53.78282 | 11.21823 | 175° | 5km/h | 27133m | -18.0m/s | -49.6°C | 0.8% | 19.2hPa | 2.5V | 00:00:00 | 00:00:00 | 00:00:00 | |
| DO2SHX-10 | 2026-09-06 00:38:13 | 53.78282 | 11.21823 | 176° | 7km/h | 27133m | -17.9m/s | -49.5°C | 3.5% | 19.2hPa | 2.5V | 00:00:00 | 02:18:22 | 00:00:00 | |
| DB0DAN | 2026-09-06 00:38:10 | 53.78289 | 11.21834 | 229° | 20km/h | 27186m | -19.1m/s | -49.4°C | 0.8% | 19hPa | 2.5V | 00:00:00 | 00:00:00 | 00:00:00 | |
| DJ2DS-15 | 2026-09-06 00:38:09 | 53.78293 | 11.21841 | 226° | 26km/h | 27206m | -19.0m/s | -49.3°C | 3.4% | 18.9hPa | 2.5V | 00:00:00 | 02:18:18 | 00:00:00 | |
| DL1XH1-15 | 2026-09-06 00:38:08 | 53.78307 | 11.21860 | 210° | 42km/h | 27243m | -18.7m/s | -49.4°C | 3.4% | 18.8hPa | 2.6V | 08:25:46 | 02:18:16 | 00:00:00 | |
| AA1-15 | 2026-09-06 00:38:08 | 53.78300 | 11.21850 | 218° | 35km/h | 27224m | -18.7m/s | -49.4°C | 0.2% | 18.9hPa | 2.6V | 08:26:20 | 02:18:17 | 00:00:00 | |
| DL1XH-west | 2026-09-06 00:38:05 | 53.78328 | 11.21874 | 194° | 49km/h | 27281m | -19.3m/s | -49.4°C | 0.2% | 18.7hPa | 2.5V | 08:26:20 | 02:18:14 | 00:00:00 | |
| DF8AY | 2026-09-06 00:38:02 | 53.78360 | 11.21874 | 164° | 37km/h | 27341m | -19.2m/s | -49.4°C | 0.2% | 18.6hPa | 2.5V | 08:26:20 | 02:18:11 | 00:00:00 | |
| SONDE2-11 | 2026-09-06 00:38:02 | 53.78368 | 11.21869 | 146° | 29km/h | 27359m | -18.2m/s | -49.4°C | 0.8% | 18.5hPa | 2.6V | 00:00:00 | 00:00:00 | 00:00:00 | |
| DM0DOS-11 | 2026-09-06 00:37:58 | 53.78378 | 11.21839 | 216° | 13km/h | 27507m | -19.3m/s | -49.5°C | 3.5% | 18.1hPa | 2.6V | 08:26:00 | 02:18:02 | 00:00:00 | |
| DL3AQ-11 | 2026-09-06 00:37:58 | 53.78375 | 11.21840 | 80° | 11km/h | 27430m | -19.4m/s | -49.5°C | 0.8% | 18.3hPa | 2.5V | 00:00:00 | 00:00:00 | 00:00:00 | |
| EDDB2-11 | 2026-09-06 00:37:57 | 53.78375 | 11.21840 | 80° | 11km/h | 27430m | -19.4m/s | -49.5°C | 0.8% | 18.3hPa | 2.5V | 00:00:00 | 00:00:00 | 00:00:00 | |
| AA1-15 | 2026-09-06 00:37:57 | 53.78375 | 11.21840 | 80° | 11km/h | 27430m | -19.4m/s | -49.5°C | 0.2% | 18.3hPa | 2.5V | 08:26:20 | 02:18:06 | 00:00:00 | |
| DB0DAN | 2026-09-06 00:37:55 | 53.78375 | 11.21835 | 189° | 2km/h | 27468m | -20.6m/s | -49.6°C | 0.8% | 18.18hPa | 2.5V | 00:00:00 | 00:00:00 | 00:00:00 | |
| DL1XH-west | 2026-09-06 00:37:55 | 53.78375 | 11.21835 | 189° | 2km/h | 27468m | -20.6m/s | -49.6°C | 0.3% | 18.2hPa | 2.5V | 08:26:20 | 02:18:04 | 00:00:00 | |
| DF8AY | 2026-09-06 00:37:52 | 53.78381 | 11.21842 | 207° | 15km/h | 27525m | -19.9m/s | -49.6°C | 0.2% | 18.1hPa | 2.6V | 08:26:20 | 02:18:01 | 00:00:00 | |
| DL4BBY-15 | 2026-09-06 00:37:49 | 53.78395 | 11.21849 | 174° | 38km/h | 27586m | -21.7m/s | -50.1°C | 0% | 0hPa | 2.5V | 00:00:00 | 00:00:00 | 00:00:00 | |
| DM0DOS-11 | 2026-09-06 00:37:48 | 53.78429 | 11.21771 | 91° | 58km/h | 27707m | -21.2m/s | -49.7°C | 3.5% | 17.5hPa | 2.5V | 08:26:10 | 02:17:52 | 00:00:00 | |
| AA1-15 | 2026-09-06 00:37:47 | 53.78410 | 11.21841 | 146° | 37km/h | 27627m | -20.3m/s | -49.7°C | 0.3% | 17.7hPa | 2.6V | 08:26:20 | 02:17:56 | 00:00:00 | |
| DL1XH-west | 2026-09-06 00:37:45 | 53.78423 | 11.21814 | 118° | 47km/h | 27667m | -20.4m/s | -49.7°C | 0.3% | 17.6hPa | 2.6V | 08:26:20 | 02:17:54 | 00:00:00 | |
| DF8AY | 2026-09-06 00:37:41 | 53.78423 | 11.21724 | 68° | 55km/h | 27750m | -22m/s | -49.5°C | 0.3% | 17.4hPa | 2.5V | 08:26:20 | 02:17:50 | 00:00:00 | |
| DB0DAN | 2026-09-06 00:37:40 | 53.78416 | 11.21704 | 55° | 51km/h | 27771m | -21.5m/s | -49.4°C | 0.8% | 17.34hPa | 2.6V | 00:00:00 | 00:00:00 | 00:00:00 | |
| DO2LYB-13 | 2026-09-06 00:37:39 | 53.78416 | 11.21704 | 56° | 53km/h | 27771m | -21.5m/s | -49.4°C | 0.9% | 17.3hPa | 2.6V | 00:00:00 | 00:00:00 | 00:00:00 | |
| DM0DOS-11 | 2026-09-06 00:37:38 | 53.78392 | 11.21687 | 195° | 29km/h | 27908m | -19.6m/s | -49.4°C | 3.5% | 17hPa | 2.6V | 08:26:20 | 02:17:42 | 00:00:00 | |
| DL1XH1-15 | 2026-09-06 00:37:38 | 53.78392 | 11.21675 | 8° | 27km/h | 27829m | -20.5m/s | -49.4°C | 3.5% | 17.1hPa | 2.5V | 08:26:16 | 02:17:46 | 00:00:00 | |
| AA1-15 | 2026-09-06 00:37:36 | 53.78387 | 11.21675 | 330° | 16km/h | 27849m | -20m/s | -49.5°C | 0.3% | 17.1hPa | 2.5V | 08:26:20 | 02:17:45 | 00:00:00 | |
| DL1XH-west | 2026-09-06 00:37:35 | 53.78385 | 11.21679 | 261° | 11km/h | 27868m | -19.9m/s | -49.5°C | 0.3% | 17.1hPa | 2.5V | 08:26:20 | 02:17:44 | 00:00:00 | |
| DF8AY | 2026-09-06 00:37:31 | 53.78409 | 11.21685 | 164° | 42km/h | 27946m | -20.1m/s | -49.3°C | 0.3% | 16.9hPa | 2.6V | 08:27:11 | 02:17:40 | 00:00:00 | |
| AP2371 | 2026-09-06 00:37:30 | 53.78409 | 11.21685 | 165° | 42km/h | 27947m | -20.1m/s | -49.3°C | 0.8% | 16.9hPa | 2.5V | 00:00:00 | 00:00:00 | 00:00:00 | |
| DJ2DS-15 | 2026-09-06 00:37:29 | 53.78428 | 11.21663 | 132° | 40km/h | 27986m | -20.4m/s | -49.3°C | 3.5% | 16.7hPa | 2.5V | 00:00:00 | 02:17:38 | 00:00:00 | |
| DM0DOS-11 | 2026-09-06 00:37:28 | 53.78428 | 11.21557 | 36° | 35km/h | 28103m | -19.9m/s | -49.3°C | 3.5% | 16.5hPa | 2.5V | 08:26:30 | 02:17:32 | 00:00:00 | |
| DL1XH1-15 | 2026-09-06 00:37:28 | 53.78440 | 11.21625 | 103° | 51km/h | 28027m | -20m/s | -49.3°C | 3.5% | 16.7hPa | 2.6V | 08:26:26 | 02:17:36 | 00:00:00 | |
| HARRO8 | 2026-09-06 00:37:27 | 53.78440 | 11.21625 | 103° | 51km/h | 28028m | -20.0m/s | -49.3°C | 0.8% | 16.7hPa | 2.6V | 00:00:00 | 00:00:00 | 00:00:00 | |
| DO2SHX-10 | 2026-09-06 00:37:26 | 53.78442 | 11.21604 | 90° | 44km/h | 28047m | -20.2m/s | -49.2°C | 3.5% | 16.6hPa | 2.6V | 00:00:00 | 02:17:35 | 00:00:00 | |
| DL1XH-15 | 2026-09-06 00:37:25 | 53.78413 | 11.21549 | 355° | 27km/h | 28143m | -20.6m/s | -49.3°C | 3.5% | 16.4hPa | 2.6V | 08:26:32 | 02:17:30 | 00:00:00 | |
| DB0DAN | 2026-09-06 00:37:25 | 53.78440 | 11.21585 | 73° | 44km/h | 28066m | -20.3m/s | -49.2°C | 0.8% | 16.56hPa | 2.5V | 00:00:00 | 00:00:00 | 00:00:00 | |
| AA1-15 | 2026-09-06 00:37:25 | 53.78440 | 11.21585 | 73° | 46km/h | 28066m | -20.3m/s | -49.2°C | 0.2% | 16.6hPa | 2.5V | 08:27:11 | 02:17:34 | 00:00:00 | |
| DL1XH-west | 2026-09-06 00:37:24 | 53.78435 | 11.21569 | 54° | 40km/h | 28085m | -18.6m/s | -49.3°C | 0.3% | 16.5hPa | 2.5V | 08:27:11 | 02:17:33 | 00:00:00 | |
| DF8AY | 2026-09-06 00:37:20 | 53.78408 | 11.21565 | 173° | 24km/h | 28247m | -21.3m/s | -48.9°C | 0.3% | 16.1hPa | 2.5V | 08:27:11 | 02:17:25 | 00:00:00 | |
| DL1CLM-18 | 2026-09-06 00:37:20 | 53.78407 | 11.21551 | 342° | 22km/h | 28164m | -21.5m/s | -49.2°C | 0.8% | 16.3hPa | 2.6V | 00:00:00 | 00:00:00 | 00:00:00 | |
| DL4BBY-15 | 2026-09-06 00:37:19 | 53.78402 | 11.21556 | 312° | 37km/h | 28185m | -20.4m/s | -49.7°C | 0% | 0hPa | 2.6V | 00:00:00 | 00:00:00 | 00:00:00 | |
| DM0DOS-11 | 2026-09-06 00:37:18 | 53.78428 | 11.21531 | 118° | 51km/h | 28307m | -19.4m/s | -48.5°C | 3.4% | 16hPa | 2.6V | 08:26:40 | 02:17:22 | 00:00:00 | |
| DL1XH1-15 | 2026-09-06 00:37:18 | 53.78403 | 11.21565 | 201° | 15km/h | 28225m | -21.6m/s | -49°C | 3.5% | 16.2hPa | 2.5V | 08:26:36 | 02:17:26 | 00:00:00 | |
| AA1-15 | 2026-09-06 00:37:15 | 53.78414 | 11.21559 | 141° | 35km/h | 28267m | -19.9m/s | -48.7°C | 0.2% | 16.1hPa | 2.5V | 08:27:11 | 02:17:24 | 00:00:00 | |
| DL1XH-west | 2026-09-06 00:37:14 | 53.78421 | 11.21547 | 132° | 42km/h | 28288m | -20.2m/s | -48.6°C | 0.2% | 16.1hPa | 2.6V | 08:27:11 | 02:17:23 | 00:00:00 | |
| DL1XH-15 | 2026-09-06 00:37:13 | 53.78439 | 11.21483 | 99° | 68km/h | 28347m | -19.6m/s | -48.6°C | 3.4% | 15.9hPa | 2.5V | 08:26:42 | 02:17:20 | 00:00:00 | |
| DB0DAN | 2026-09-06 00:37:10 | 53.78440 | 11.21455 | 93° | 66km/h | 28367m | -19m/s | -48.7°C | 0.8% | 15.85hPa | 2.5V | 00:00:00 | 00:00:00 | 00:00:00 | |
| DL4XJ-10 | 2026-09-06 00:37:09 | 53.78440 | 11.21426 | 87° | 51km/h | 28387m | -20.2m/s | -49.3°C | 0% | 0hPa | 2.6V | 00:00:00 | 00:00:00 | 00:00:00 | |
| DL1XH1-15 | 2026-09-06 00:37:08 | 53.78435 | 11.21369 | 71° | 64km/h | 28426m | -20.5m/s | -48.8°C | 3.5% | 15.7hPa | 2.6V | 08:26:46 | 02:17:16 | 00:00:00 | |
| DM0DOS-11 | 2026-09-06 00:37:08 | 53.78417 | 11.21292 | 75° | 33km/h | 28507m | -19.6m/s | -48.9°C | 3.6% | 15.5hPa | 2.5V | 08:26:50 | 02:17:12 | 00:00:00 | |
| DF8AY | 2026-09-06 00:37:06 | 53.78430 | 11.21345 | 70° | 57km/h | 28446m | -20.8m/s | -48.8°C | 0.3% | 15.7hPa | 2.6V | 08:27:11 | 02:17:15 | 00:00:00 | |
| DL1XH-15 | 2026-09-06 00:37:06 | 53.78416 | 11.21268 | 105° | 24km/h | 28545m | -18.8m/s | -48.7°C | 3.6% | 15.4hPa | 2.5V | 08:26:52 | 02:17:10 | 00:00:00 | |
| AA1-15 | 2026-09-06 00:37:04 | 53.78420 | 11.21306 | 66° | 42km/h | 28487m | -20.3m/s | -48.9°C | 0.3% | 15.6hPa | 2.5V | 08:27:11 | 02:17:13 | 00:00:00 | |
| DL1XH-west | 2026-09-06 00:37:03 | 53.78417 | 11.21292 | 76° | 33km/h | 28507m | -19.6m/s | -48.9°C | 0.3% | 15.5hPa | 2.5V | 08:27:11 | 02:17:12 | 00:00:00 | |
| DO2SHX-10 | 2026-09-06 00:37:03 | 53.78417 | 11.21292 | 76° | 29km/h | 28507m | -19.5m/s | -48.8°C | 3.6% | 15.5hPa | 2.5V | 00:00:00 | 02:17:12 | 00:00:00 | |
| DK7RCA | 2026-09-06 00:37:02 | 53.78417 | 11.21292 | 77° | 33km/h | 28507m | -19.6m/s | -48.9°C | 0.9% | 15.5hPa | 2.5V | 08:27:00 | 00:00:00 | 00:00:00 | |
| SONDE2-11 | 2026-09-06 00:37:00 | 53.78421 | 11.21248 | 131° | 24km/h | 28582m | -19.3m/s | -48.3°C | 0.8% | 15.3hPa | 2.5V | 00:00:00 | 00:00:00 | 00:00:00 | |
| DL1XH1-15 | 2026-09-06 00:36:58 | 53.78429 | 11.21233 | 137° | 22km/h | 28622m | -21.1m/s | -48.1°C | 3.5% | 15.2hPa | 2.5V | 08:26:56 | 02:17:06 | 00:00:00 | |
| DM0DOS-11 | 2026-09-06 00:36:58 | 53.78433 | 11.21206 | 89° | 20km/h | 28706m | -22.2m/s | -47.8°C | 3.4% | 15hPa | 2.6V | 08:27:00 | 02:17:02 | 00:00:00 | |
| DO2SHX-10 | 2026-09-06 00:36:57 | 53.78428 | 11.21233 | 138° | 18km/h | 28623m | -21.0m/s | -48.1°C | 3.5% | 15.2hPa | 2.5V | 00:00:00 | 02:17:06 | 00:00:00 | |
| DL1XH-15 | 2026-09-06 00:36:56 | 53.78433 | 11.21185 | 91° | 26km/h | 28749m | -20.5m/s | -47.3°C | 3.3% | 14.9hPa | 2.6V | 08:27:02 | 02:17:00 | 00:00:00 | |
| DB0DAN | 2026-09-06 00:36:55 | 53.78433 | 11.21221 | 110° | 15km/h | 28664m | -21.1m/s | -48°C | 0.8% | 15.1hPa | 2.5V | 00:00:00 | 00:00:00 | 00:00:00 | |
| DF8AY | 2026-09-06 00:36:54 | 53.78433 | 11.21214 | 86° | 16km/h | 28685m | -21.4m/s | -47.9°C | 0.3% | 15.1hPa | 2.5V | 08:27:11 | 02:17:03 | 00:00:00 | |
| DL1XH-west | 2026-09-06 00:36:53 | 53.78433 | 11.21206 | 90° | 20km/h | 28706m | -22.2m/s | -47.8°C | 0.2% | 15hPa | 2.6V | 08:27:11 | 02:17:02 | 00:00:00 | |
| SMARD9-15 | 2026-09-06 00:36:50 | 53.78434 | 11.21172 | 97° | 33km/h | 28769m | -21.0m/s | -46.9°C | 0.7% | 14.9hPa | 2.5V | 00:00:00 | 00:00:00 | 00:00:00 | |
| DJ2DS-15 | 2026-09-06 00:36:49 | 53.78435 | 11.21159 | 99° | 29km/h | 28791m | -21.0m/s | -46.4°C | 3.0% | 14.8hPa | 2.5V | 00:00:00 | 02:16:58 | 00:00:00 | |
| DM0DOS-11 | 2026-09-06 00:36:48 | 53.78437 | 11.21070 | 72° | 26km/h | 28916m | -22.6m/s | -46.3°C | 3% | 14.6hPa | 2.5V | 08:27:10 | 02:16:52 | 00:00:00 | |
| SONCRA | 2026-09-06 00:36:47 | 53.78439 | 11.21096 | 88° | 33km/h | 28873m | -22.1m/s | -46.2°C | 0.7% | 14.6hPa | 2.5V | 00:00:00 | 00:00:00 | 00:00:00 | |
| DL1XH-15 | 2026-09-06 00:36:46 | 53.78434 | 11.21053 | 55° | 18km/h | 28962m | -22.8m/s | -46.2°C | 2.9% | 14.4hPa | 2.5V | 08:27:12 | 02:16:50 | 00:00:00 | |
| DL1XH-west | 2026-09-06 00:36:43 | 53.78437 | 11.21070 | 73° | 26km/h | 28916m | -22.6m/s | -46.3°C | 0% | 14.6hPa | 2.5V | 08:27:11 | 02:16:52 | 00:00:00 | |
| AA1-15 | 2026-09-06 00:36:42 | 53.78436 | 11.21060 | 72° | 22km/h | 28939m | -22.8m/s | -46.3°C | 0% | 14.5hPa | 2.5V | 08:27:11 | 02:16:51 | 00:00:00 | |
| DK7RCA | 2026-09-06 00:36:42 | 53.78436 | 11.21060 | 73° | 22km/h | 28940m | -22.8m/s | -46.3°C | 0.7% | 14.5hPa | 2.6V | 08:27:00 | 00:00:00 | 00:00:00 | |
| DB0DAN | 2026-09-06 00:36:40 | 53.78432 | 11.21048 | 62° | 9km/h | 28985m | -22.8m/s | -46.1°C | 0.6% | 14.4hPa | 2.6V | 00:00:00 | 00:00:00 | 00:00:00 | |
| S3001 | 2026-09-06 00:36:40 | 53.78431 | 11.21045 | 62° | 4km/h | 29008m | -23.2m/s | -46.1°C | 0.7% | 14.3hPa | 2.5V | 00:00:00 | 00:00:00 | 00:00:00 | |
| AM1SDL-15 | 2026-09-06 00:36:39 | 53.78431 | 11.21045 | 63° | 29km/h | 29008m | -23.1m/s | -46.0°C | 2.9% | 14.3hPa | 2.5V | 00:00:00 | 02:16:48 | 00:00:00 | |
| DM0DOS-11 | 2026-09-06 00:36:38 | 53.78466 | 11.21043 | 173° | 47km/h | 29137m | -22m/s | -46.5°C | 2.9% | 14.1hPa | 2.5V | 08:27:20 | 02:16:42 | 00:00:00 | |
| DL1XH1-15 | 2026-09-06 00:36:38 | 53.78434 | 11.21044 | 177° | 15km/h | 29052m | -21.6m/s | -46.2°C | 2.9% | 14.2hPa | 2.5V | 08:27:16 | 02:16:46 | 00:00:00 | |
| DL1XH-west | 2026-09-06 00:36:33 | 53.78466 | 11.21043 | 173° | 47km/h | 29137m | -22m/s | -46.5°C | 0% | 14.1hPa | 2.5V | 08:28:02 | 02:16:42 | 00:00:00 | |
| SP3BTT-10 | 2026-09-06 00:36:33 | 53.78466 | 11.21043 | 174° | 20km/h | 29138m | -21.9m/s | -46.4°C | 2.9% | 14.0hPa | 2.5V | 00:00:00 | 00:00:00 | 00:00:00 | |
| DL1XH-15 | 2026-09-06 00:36:31 | 53.78488 | 11.21036 | 169° | 46km/h | 29182m | -23.7m/s | -46.4°C | 2.9% | 13.9hPa | 2.5V | 08:27:22 | 02:16:40 | 00:00:00 | |
| AA1-15 | 2026-09-06 00:36:31 | 53.78488 | 11.21036 | 170° | 46km/h | 29182m | -23.7m/s | -46.4°C | 0% | 13.9hPa | 2.5V | 08:28:02 | 02:16:40 | 00:00:00 | |
| GOEST3-10 | 2026-09-06 00:36:31 | 53.78488 | 11.21036 | 170° | 38km/h | 29182m | -23.6m/s | -46.4°C | 2.9% | 13.9hPa | 2.5V | 00:00:00 | 02:16:40 | 00:00:00 | |
| DJ2DS-15 | 2026-09-06 00:36:29 | 53.78507 | 11.21026 | 158° | 37km/h | 29229m | -23.2m/s | -46.4°C | 2.9% | 13.8hPa | 2.5V | 00:00:00 | 02:16:38 | 00:00:00 | |
| DL1XH1-15 | 2026-09-06 00:36:28 | 53.78522 | 11.21011 | 139° | 35km/h | 29275m | -21.9m/s | -46.7°C | 3% | 13.8hPa | 2.5V | 08:27:26 | 02:16:36 | 00:00:00 | |
| DM0DOS-11 | 2026-09-06 00:36:28 | 53.78546 | 11.20979 | 159° | 29km/h | 29366m | -23.8m/s | -46.5°C | 2.9% | 13.6hPa | 2.5V | 08:27:30 | 02:16:32 | 00:00:00 | |
| DL1XH-15 | 2026-09-06 00:36:26 | 53.78560 | 11.20975 | 184° | 29km/h | 29411m | -23.3m/s | -46.6°C | 2.9% | 13.5hPa | 2.5V | 08:27:32 | 02:16:30 | 00:00:00 | |
| DB0DAN | 2026-09-06 00:36:25 | 53.78534 | 11.20992 | 137° | 27km/h | 29319m | -23.9m/s | -46.6°C | 0.7% | 13.7hPa | 2.6V | 00:00:00 | 00:00:00 | 00:00:00 | |
| DL1XH-west | 2026-09-06 00:36:22 | 53.78553 | 11.20976 | 170° | 31km/h | 29389m | -22.4m/s | -46.5°C | 0% | 13.5hPa | 2.5V | 08:28:02 | 02:16:31 | 00:00:00 | |
| AA1-15 | 2026-09-06 00:36:20 | 53.78567 | 11.20978 | 203° | 31km/h | 29434m | -23.4m/s | -46.7°C | 0% | 13.5hPa | 2.6V | 08:28:02 | 02:16:29 | 00:00:00 | |
| DJ2DS-15 | 2026-09-06 00:36:19 | 53.78582 | 11.20992 | 210° | 37km/h | 29478m | -22.1m/s | -46.8°C | 0.7% | 13.3hPa | 2.6V | 00:00:00 | 00:00:00 | 00:00:00 | |
| DM0DOS-11 | 2026-09-06 00:36:18 | 53.78627 | 11.21029 | 189° | 46km/h | 29596m | -23.7m/s | -47.4°C | 3.2% | 13.1hPa | 2.6V | 08:27:40 | 02:16:22 | 00:00:00 | |
| DL1XH-15 | 2026-09-06 00:36:16 | 53.78650 | 11.21027 | 163° | 44km/h | 29643m | -23.4m/s | -47.6°C | 3.3% | 13.1hPa | 2.6V | 08:27:42 | 02:16:20 | 00:00:00 | |
| DL1XH-west | 2026-09-06 00:36:12 | 53.78638 | 11.21030 | 176° | 46km/h | 29620m | -23.5m/s | -47.5°C | 0.2% | 13.1hPa | 2.6V | 08:28:02 | 02:16:21 | 00:00:00 | |
| AA1-15 | 2026-09-06 00:36:10 | 53.78660 | 11.21021 | 154° | 42km/h | 29666m | -23.4m/s | -47.6°C | 0.2% | 13hPa | 2.5V | 08:28:02 | 02:16:19 | 00:00:00 | |
| DB0DAN | 2026-09-06 00:36:10 | 53.78660 | 11.21021 | 153° | 40km/h | 29666m | -23.4m/s | -47.6°C | 0.8% | 13hPa | 2.5V | 00:00:00 | 00:00:00 | 00:00:00 | |
| DJ2DS-15 | 2026-09-06 00:36:09 | 53.78668 | 11.21012 | 146° | 31km/h | 29689m | -22.4m/s | -47.6°C | 3.3% | 12.9hPa | 2.5V | 00:00:00 | 02:16:18 | 00:00:00 | |
| DM0DOS-11 | 2026-09-06 00:36:08 | 53.78689 | 11.20955 | 100° | 15km/h | 29826m | -22.6m/s | -47.2°C | 3.3% | 12.6hPa | 2.5V | 08:27:50 | 02:16:12 | 00:00:00 | |
| DL1XH-15 | 2026-09-06 00:36:06 | 53.78691 | 11.20948 | 172° | 9km/h | 29871m | -23.1m/s | -47°C | 3.2% | 12.6hPa | 2.5V | 08:27:52 | 02:16:10 | 00:00:00 | |
| DL1XH-west | 2026-09-06 00:36:01 | 53.78691 | 11.20948 | 172° | 9km/h | 29871m | -23.1m/s | -47°C | 0.1% | 12.6hPa | 2.5V | 08:28:02 | 02:16:10 | 00:00:00 | |
| AA1-15 | 2026-09-06 00:35:59 | 53.78699 | 11.20951 | 192° | 26km/h | 29919m | -24.6m/s | -46.9°C | 0.1% | 12.5hPa | 2.6V | 08:28:02 | 02:16:08 | 00:00:00 | |
| DL1XH1-15 | 2026-09-06 00:35:58 | 53.78715 | 11.20953 | 177° | 38km/h | 29967m | -23.9m/s | -46.7°C | 3.2% | 12.4hPa | 2.6V | 08:27:56 | 02:16:06 | 00:00:00 | |
| DM0DOS-11 | 2026-09-06 00:35:58 | 53.78756 | 11.20930 | 145° | 49km/h | 30066m | -26.6m/s | -46.4°C | 3.1% | 12.2hPa | 2.5V | 08:28:00 | 02:16:02 | 00:00:00 | |
| SONDE2-11 | 2026-09-06 00:35:58 | 53.78715 | 11.20953 | 177° | 37km/h | 29968m | -23.9m/s | -46.7°C | 0.7% | 12.4hPa | 2.6V | 00:00:00 | 00:00:00 | 00:00:00 | |
| AM1SDL-15 | 2026-09-06 00:35:57 | 53.78715 | 11.20953 | 178° | 35km/h | 29968m | -23.8m/s | -46.7°C | 3.2% | 12.3hPa | 2.6V | 00:00:00 | 02:16:06 | 00:00:00 | |
| DL1XH-15 | 2026-09-06 00:35:56 | 53.78772 | 11.20905 | 121° | 38km/h | 30118m | -25.4m/s | -46.3°C | 3.1% | 12.1hPa | 2.6V | 08:28:02 | 02:16:00 | 00:00:00 | |
| DB0DAN | 2026-09-06 00:35:55 | 53.78735 | 11.20947 | 162° | 44km/h | 30015m | -25.5m/s | -46.6°C | 0.7% | 12.3hPa | 2.5V | 00:00:00 | 00:00:00 | 00:00:00 | |
| DL1XH-west | 2026-09-06 00:35:51 | 53.78772 | 11.20905 | 121° | 38km/h | 30118m | -25.5m/s | -46.3°C | 0% | 12.1hPa | 2.6V | 08:28:02 | 02:16:00 | 00:00:00 | |
| AA1-15 | 2026-09-06 00:35:49 | 53.78777 | 11.20877 | 95° | 29km/h | 30167m | -23.3m/s | -46.2°C | 0% | 12hPa | 2.5V | 08:28:53 | 02:15:58 | 00:00:00 | |
| DL4BBY-15 | 2026-09-06 00:35:49 | 53.78777 | 11.20877 | 95° | 18km/h | 30168m | -23.3m/s | -46.8°C | 0% | 0hPa | 2.5V | 00:00:00 | 00:00:00 | 00:00:00 | |
| DL1XH1-15 | 2026-09-06 00:35:48 | 53.78774 | 11.20860 | 32° | 16km/h | 30212m | -23.4m/s | -45.9°C | 3% | 11.9hPa | 2.5V | 08:28:06 | 02:15:56 | 00:00:00 | |
| SMARD9-15 | 2026-09-06 00:35:48 | 53.78774 | 11.20859 | 32° | 15km/h | 30212m | -23.4m/s | -45.9°C | 0.7% | 11.9hPa | 2.5V | 00:00:00 | 00:00:00 | 00:00:00 | |
| DL1XH-15 | 2026-09-06 00:35:46 | 53.78771 | 11.20888 | 224° | 26km/h | 30354m | -24.4m/s | -45.7°C | 3% | 11.6hPa | 2.5V | 08:28:12 | 02:15:50 | 00:00:00 | |
| SONCRA | 2026-09-06 00:35:45 | 53.78765 | 11.20866 | 291° | 15km/h | 30283m | -24.2m/s | -45.9°C | 0.7% | 11.8hPa | 2.5V | 00:00:00 | 00:00:00 | 00:00:00 | |
| DL3AQ-11 | 2026-09-06 00:35:44 | 53.78765 | 11.20866 | 291° | 15km/h | 30283m | -24.2m/s | -45.9°C | 0.7% | 11.8hPa | 2.5V | 00:00:00 | 00:00:00 | 00:00:00 | |
| DJ2DS-15 | 2026-09-06 00:35:42 | 53.78767 | 11.20880 | 239° | 24km/h | 30331m | -24.0m/s | -45.8°C | 0.7% | 11.7hPa | 2.5V | 00:00:00 | 00:00:00 | 00:00:00 | |
| DB0DAN | 2026-09-06 00:35:40 | 53.78776 | 11.20894 | 204° | 22km/h | 30379m | -25.1m/s | -45.6°C | 0.7% | 11.62hPa | 2.5V | 00:00:00 | 00:00:00 | 00:00:00 | |
| DL1XH-west | 2026-09-06 00:35:40 | 53.78776 | 11.20894 | 204° | 24km/h | 30379m | -25.1m/s | -45.6°C | 0% | 11.6hPa | 2.5V | 08:28:53 | 02:15:49 | 00:00:00 | |
| DK7RCA | 2026-09-06 00:35:39 | 53.78776 | 11.20894 | 205° | 24km/h | 30379m | -25.1m/s | -45.6°C | 0.7% | 11.6hPa | 2.6V | 00:00:00 | 00:00:00 | 00:00:00 | |
| DL1XH1-15 | 2026-09-06 00:35:38 | 53.78793 | 11.20885 | 130° | 27km/h | 30453m | -25m/s | -45.3°C | 2.9% | 11.5hPa | 2.6V | 08:28:16 | 02:15:46 | 00:00:00 | |
| AA1-15 | 2026-09-06 00:35:38 | 53.78788 | 11.20892 | 147° | 26km/h | 30428m | -24.6m/s | -45.4°C | 0% | 11.5hPa | 2.6V | 08:28:53 | 02:15:47 | 00:00:00 | |
| DM0DOS-11 | 2026-09-06 00:35:38 | 53.78801 | 11.20843 | 91° | 27km/h | 30555m | -25.2m/s | -45.5°C | 3.1% | 11.3hPa | 2.5V | 08:28:20 | 02:15:42 | 00:00:00 | |
| S3001 | 2026-09-06 00:35:38 | 53.78793 | 11.20885 | 130° | 26km/h | 30453m | -25.0m/s | -45.3°C | 0.7% | 11.5hPa | 2.6V | 00:00:00 | 00:00:00 | 00:00:00 | |
| DL1XH-15 | 2026-09-06 00:35:37 | 53.78799 | 11.20821 | 73° | 26km/h | 30605m | -25.8m/s | -45.5°C | 3.1% | 11.2hPa | 2.6V | 08:28:22 | 02:15:40 | 00:00:00 | |
| DL1XH-west | 2026-09-06 00:35:29 | 53.78795 | 11.20807 | 54° | 13km/h | 30654m | -25.1m/s | -45.3°C | 0.1% | 11.2hPa | 2.6V | 08:28:53 | 02:15:38 | 00:00:00 | |
| DL1XH1-15 | 2026-09-06 00:35:28 | 53.78792 | 11.20806 | 310° | 4km/h | 30703m | -23.6m/s | -45.3°C | 3.2% | 11.1hPa | 2.5V | 08:28:26 | 02:15:36 | 00:00:00 | |
| AA1-15 | 2026-09-06 00:35:27 | 53.78792 | 11.20806 | 310° | 4km/h | 30703m | -23.6m/s | -45.3°C | 0.1% | 11.1hPa | 2.5V | 08:28:53 | 02:15:36 | 00:00:00 | |
| DL1XH-15 | 2026-09-06 00:35:26 | 53.78796 | 11.20838 | 256° | 9km/h | 30850m | -26.2m/s | -44.4°C | 3% | 10.8hPa | 2.5V | 08:28:32 | 02:15:30 | 00:00:00 | |
| DB0DAN | 2026-09-06 00:35:25 | 53.78792 | 11.20814 | 255° | 16km/h | 30748m | -23.2m/s | -45.1°C | 0.7% | 10.97hPa | 2.5V | 00:00:00 | 00:00:00 | 00:00:00 | |
| HARRO8 | 2026-09-06 00:35:23 | 53.78794 | 11.20828 | 251° | 15km/h | 30798m | -26.0m/s | -44.7°C | 0.7% | 10.9hPa | 2.6V | 00:00:00 | 00:00:00 | 00:00:00 | |
| DL1XH1-15 | 2026-09-06 00:35:22 | 53.78799 | 11.20825 | 105° | 22km/h | 30947m | -24.2m/s | -43.8°C | 2.9% | 10.7hPa | 2.6V | 08:28:36 | 02:15:26 | 00:00:00 | |
| DL1XH-west | 2026-09-06 00:35:19 | 53.78797 | 11.20838 | 107° | 5km/h | 30900m | -24.9m/s | -44.2°C | 0% | 10.7hPa | 2.5V | 08:28:53 | 02:15:28 | 00:00:00 | |
| DF8AY | 2026-09-06 00:35:18 | 53.78798 | 11.20833 | 102° | 16km/h | 30923m | -23.8m/s | -44.1°C | 0% | 10.7hPa | 2.5V | 08:28:53 | 02:15:27 | 00:00:00 | |
| DM0DOS-11 | 2026-09-06 00:35:18 | 53.78803 | 11.20787 | 88° | 18km/h | 31053m | -28.9m/s | -42.7°C | 2.7% | 10.5hPa | 2.5V | 08:28:40 | 02:15:22 | 00:00:00 | |
| AA1-15 | 2026-09-06 00:35:16 | 53.78801 | 11.20816 | 101° | 24km/h | 30972m | -26.5m/s | -43.5°C | 0% | 10.6hPa | 2.6V | 08:28:53 | 02:15:25 | 00:00:00 | |
| SONCRA | 2026-09-06 00:35:14 | 53.78803 | 11.20787 | 88° | 18km/h | 31053m | -28.9m/s | -42.7°C | 0.6% | 10.5hPa | 2.6V | 00:00:00 | 00:00:00 | 00:00:00 | |
| SMARD9-10 | 2026-09-06 00:35:12 | 53.78803 | 11.20787 | 90° | 18km/h | 31054m | -28.9m/s | -42.7°C | 0.6% | 10.5hPa | 2.6V | 00:00:00 | 00:00:00 | 00:00:00 | |
| DG6HD-15 | 2026-09-06 00:35:11 | 53.78803 | 11.20780 | 90° | 13km/h | 31081m | -27.3m/s | -42.5°C | 0.6% | 10.5hPa | 2.6V | 00:00:00 | 00:00:00 | 00:00:00 | |
| DB0DAN | 2026-09-06 00:35:10 | 53.78802 | 11.20774 | 338° | 2km/h | 31137m | -26.8m/s | -42.2°C | 0.5% | 10.35hPa | 2.6V | 00:00:00 | 00:00:00 | 00:00:00 | |
| DL1XH-west | 2026-09-06 00:35:09 | 53.78802 | 11.20775 | 267° | 7km/h | 31165m | -29.2m/s | -41.9°C | 0% | 10.3hPa | 2.6V | 08:28:53 | 02:15:18 | 00:00:00 | |
| DJ2DS-15 | 2026-09-06 00:35:09 | 53.78802 | 11.20775 | 268° | 31km/h | 31165m | -29.1m/s | -41.8°C | 2.4% | 10.2hPa | 2.6V | 00:00:00 | 02:15:18 | 00:00:00 | |
| DM0DOS-11 | 2026-09-06 00:35:08 | 53.78799 | 11.20786 | 55° | 13km/h | 31335m | -26.8m/s | -41.9°C | 2.5% | 10hPa | 2.6V | 08:28:50 | 02:15:12 | 00:00:00 | |
| DL1XH1-15 | 2026-09-06 00:35:08 | 53.78801 | 11.20782 | 275° | 13km/h | 31222m | -30.3m/s | -41.6°C | 2.4% | 10.2hPa | 2.5V | 08:28:46 | 02:15:16 | 00:00:00 | |
| DF8AY | 2026-09-06 00:35:07 | 53.78802 | 11.20782 | 276° | 13km/h | 31222m | -30.3m/s | -41.6°C | 0% | 10.2hPa | 2.5V | 08:28:53 | 02:15:16 | 00:00:00 | |
| AA1-15 | 2026-09-06 00:35:06 | 53.78801 | 11.20787 | 280° | 11km/h | 31252m | -28.8m/s | -41.8°C | 0% | 10.2hPa | 2.5V | 08:28:53 | 02:15:15 | 00:00:00 | |
| DL3AQ-11 | 2026-09-06 00:35:05 | 53.78800 | 11.20789 | 39° | 5km/h | 31309m | -26.5m/s | -41.9°C | 0.6% | 10.1hPa | 2.5V | 00:00:00 | 00:00:00 | 00:00:00 | |
| DL1XH1-15 | 2026-09-06 00:35:02 | 53.78764 | 11.20728 | 29° | 44km/h | 31495m | -26.5m/s | -41.5°C | 2.3% | 9.8hPa | 2.5V | 08:28:56 | 02:15:06 | 00:00:00 | |
| DL1XH-west | 2026-09-06 00:34:59 | 53.78782 | 11.20749 | 40° | 37km/h | 31443m | -26.7m/s | -41.7°C | 0% | 9.9hPa | 2.5V | 08:29:44 | 02:15:08 | 00:00:00 | |
| DF8AY | 2026-09-06 00:34:56 | 53.78690 | 11.20642 | 41° | 42km/h | 31689m | -26.9m/s | -42°C | 0% | 9.5hPa | 2.5V | 08:29:44 | 02:14:59 | 00:00:00 | |
| AA1-15 | 2026-09-06 00:34:55 | 53.78743 | 11.20707 | 31° | 53km/h | 31549m | -27.5m/s | -41.6°C | 0% | 9.8hPa | 2.6V | 08:29:44 | 02:15:04 | 00:00:00 | |
| DB0DAN | 2026-09-06 00:34:55 | 53.78743 | 11.20707 | 31° | 51km/h | 31549m | -27.5m/s | -41.6°C | 0.5% | 9.75hPa | 2.6V | 00:00:00 | 00:00:00 | 00:00:00 | |
| DL3AQ-11 | 2026-09-06 00:34:54 | 53.78720 | 11.20683 | 34° | 53km/h | 31606m | -28.8m/s | -41.7°C | 0.5% | 9.7hPa | 2.6V | 00:00:00 | 00:00:00 | 00:00:00 | |
| HARRO8 | 2026-09-06 00:34:52 | 53.78709 | 11.20670 | 39° | 51km/h | 31635m | -30.1m/s | -41.8°C | 0.6% | 9.6hPa | 2.6V | 00:00:00 | 00:00:00 | 00:00:00 | |
| DG6HD-15 | 2026-09-06 00:34:51 | 53.78699 | 11.20655 | 42° | 51km/h | 31664m | -27.3m/s | -41.9°C | 0.6% | 9.5hPa | 2.6V | 08:29:00 | 00:00:00 | 00:00:00 | |
| DL4BBY-15 | 2026-09-06 00:34:50 | 53.78683 | 11.20632 | 41° | 37km/h | 31716m | -27.6m/s | -42.6°C | 0% | 0hPa | 2.6V | 00:00:00 | 00:00:00 | 00:00:00 | |
| DL1XH1-15 | 2026-09-06 00:34:48 | 53.78674 | 11.20614 | 53° | 24km/h | 31770m | -28.1m/s | -42.2°C | 2.5% | 9.4hPa | 2.6V | 08:29:06 | 02:14:56 | 00:00:00 | |
| DL1XH-west | 2026-09-06 00:34:48 | 53.78678 | 11.20623 | 51° | 27km/h | 31743m | -27.2m/s | -42.1°C | 0% | 9.4hPa | 2.6V | 08:29:44 | 02:14:57 | 00:00:00 | |
| AA1-15 | 2026-09-06 00:34:45 | 53.78667 | 11.20596 | 65° | 27km/h | 31824m | -26.7m/s | -42.4°C | 0% | 9.3hPa | 2.5V | 08:29:44 | 02:14:54 | 00:00:00 | |
| DF8AY | 2026-09-06 00:34:43 | 53.78661 | 11.20572 | 68° | 37km/h | 31874m | -25.4m/s | -42.3°C | 0% | 9.2hPa | 2.6V | 08:29:44 | 02:14:52 | 00:00:00 | |
| SONCRA | 2026-09-06 00:34:43 | 53.78658 | 11.20557 | 63° | 38km/h | 31900m | -25.9m/s | -42.2°C | 0.6% | 9.2hPa | 2.5V | 00:00:00 | 00:00:00 | 00:00:00 | |
| DB0DAN | 2026-09-06 00:34:40 | 53.78648 | 11.20523 | 63° | 47km/h | 31950m | -24.5m/s | -42°C | 0.6% | 9.15hPa | 2.5V | 00:00:00 | 00:00:00 | 00:00:00 | |
| DL4XJ-10 | 2026-09-06 00:34:39 | 53.78642 | 11.20504 | 61° | 38km/h | 31975m | -26.1m/s | -42.4°C | 0% | 0hPa | 2.6V | 00:00:00 | 00:00:00 | 00:00:00 | |
| DL1XH1-15 | 2026-09-06 00:34:38 | 53.78629 | 11.20465 | 59° | 51km/h | 32026m | -25.5m/s | -41.5°C | 2.5% | 9hPa | 2.6V | 08:29:16 | 02:14:46 | 00:00:00 | |
| DL1XH-west | 2026-09-06 00:34:37 | 53.78628 | 11.20465 | 60° | 51km/h | 32026m | -25.5m/s | -41.5°C | 0% | 9hPa | 2.6V | 08:29:44 | 02:14:46 | 00:00:00 | |
| DL1XH-15 | 2026-09-06 00:34:36 | 53.78599 | 11.20380 | 81° | 24km/h | 32176m | -25.4m/s | -41.7°C | 2.5% | 8.8hPa | 2.5V | 08:29:22 | 02:14:40 | 00:00:00 | |
| AA1-15 | 2026-09-06 00:34:35 | 53.78615 | 11.20428 | 58° | 46km/h | 32075m | -25.2m/s | -41.5°C | 0% | 9hPa | 2.6V | 08:29:44 | 02:14:44 | 00:00:00 | |
| DF8AY | 2026-09-06 00:34:33 | 53.78605 | 11.20401 | 57° | 29km/h | 32125m | -25.3m/s | -41.6°C | 0% | 8.9hPa | 2.5V | 08:29:44 | 02:14:42 | 00:00:00 | |
| DG6HD-15 | 2026-09-06 00:34:31 | 53.78599 | 11.20380 | 83° | 24km/h | 32177m | -25.4m/s | -41.7°C | 0.6% | 8.8hPa | 2.5V | 08:29:00 | 00:00:00 | 00:00:00 | |
| SP3WXH-11 | 2026-09-06 00:34:30 | 53.78598 | 11.20370 | 88° | 24km/h | 32201m | -23.7m/s | -41.8°C | 0.5% | 8.8hPa | 2.5V | 00:00:00 | 00:00:00 | 00:00:00 | |
| DJ2DS-15 | 2026-09-06 00:34:29 | 53.78598 | 11.20358 | 94° | 38km/h | 32225m | -25.6m/s | -41.7°C | 2.5% | 8.7hPa | 2.5V | 00:00:00 | 02:14:38 | 00:00:00 | |
| DL1XH1-15 | 2026-09-06 00:34:28 | 53.78600 | 11.20332 | 95° | 37km/h | 32275m | -25.6m/s | -41.8°C | 2.5% | 8.7hPa | 2.5V | 08:29:26 | 02:14:36 | 00:00:00 | |
| DM0DOS-11 | 2026-09-06 00:34:28 | 53.78600 | 11.20261 | 88° | 42km/h | 32386m | -31.5m/s | -41.7°C | 2.5% | 8.6hPa | 2.6V | 08:29:30 | 02:14:32 | 00:00:00 | |
| DL1XH-west | 2026-09-06 00:34:27 | 53.78600 | 11.20332 | 96° | 37km/h | 32275m | -25.6m/s | -41.8°C | 0% | 8.7hPa | 2.5V | 08:29:44 | 02:14:36 | 00:00:00 | |
| DL1XH-15 | 2026-09-06 00:34:26 | 53.78599 | 11.20228 | 88° | 40km/h | 32448m | -32.3m/s | -41.4°C | 2.5% | 8.5hPa | 2.6V | 08:29:32 | 02:14:30 | 00:00:00 | |
| AA1-15 | 2026-09-06 00:34:25 | 53.78601 | 11.20296 | 93° | 42km/h | 32327m | -28m/s | -41.7°C | 0% | 8.6hPa | 2.5V | 08:29:44 | 02:14:34 | 00:00:00 | |
| DB0DAN | 2026-09-06 00:34:25 | 53.78601 | 11.20296 | 93° | 40km/h | 32327m | -28m/s | -41.7°C | 0.5% | 8.64hPa | 2.5V | 00:00:00 | 00:00:00 | 00:00:00 | |
| DF8AY | 2026-09-06 00:34:22 | 53.78599 | 11.20244 | 86° | 37km/h | 32417m | -31.6m/s | -41.6°C | 0% | 8.5hPa | 2.6V | 08:29:44 | 02:14:31 | 00:00:00 | |
| AP2371 | 2026-09-06 00:34:22 | 53.78599 | 11.20244 | 86° | 37km/h | 32417m | -31.6m/s | -41.6°C | 0.5% | 8.5hPa | 2.5V | 00:00:00 | 00:00:00 | 00:00:00 | |
| HARRO8 | 2026-09-06 00:34:21 | 53.78599 | 11.20228 | 88° | 40km/h | 32449m | -32.3m/s | -41.4°C | 0.6% | 8.5hPa | 2.5V | 00:00:00 | 00:00:00 | 00:00:00 | |
| EDDB2-11 | 2026-09-06 00:34:20 | 53.78598 | 11.20194 | 91° | 38km/h | 32508m | -29.5m/s | -41.1°C | 0.5% | 8.4hPa | 2.5V | 00:00:00 | 00:00:00 | 00:00:00 | |
| DL4XJ-10 | 2026-09-06 00:34:19 | 53.78598 | 11.20194 | 92° | 42km/h | 32509m | -29.4m/s | -41.7°C | 0% | 0hPa | 2.5V | 00:00:00 | 00:00:00 | 00:00:00 | |
| DM0DOS-11 | 2026-09-06 00:34:18 | 53.78585 | 11.20102 | 53° | 42km/h | 32690m | -30.9m/s | -41°C | 2.4% | 8.2hPa | 2.5V | 08:29:40 | 02:14:22 | 00:00:00 | |
| DL1XH1-15 | 2026-09-06 00:34:18 | 53.78597 | 11.20163 | 87° | 37km/h | 32567m | -31m/s | -41.2°C | 2.4% | 8.3hPa | 2.6V | 08:29:36 | 02:14:26 | 00:00:00 | |
| DL1XH-west | 2026-09-06 00:34:17 | 53.78597 | 11.20163 | 88° | 37km/h | 32567m | -31m/s | -41.2°C | 0% | 8.3hPa | 2.6V | 08:29:44 | 02:14:26 | 00:00:00 | |
| DL1XH-15 | 2026-09-06 00:34:16 | 53.78571 | 11.20073 | 49° | 51km/h | 32749m | -29.6m/s | -41.3°C | 2.5% | 8.1hPa | 2.6V | 08:29:42 | 02:14:20 | 00:00:00 | |
| AA1-15 | 2026-09-06 00:34:14 | 53.78590 | 11.20117 | 67° | 40km/h | 32659m | -30.7m/s | -41°C | 0% | 8.2hPa | 2.5V | 08:29:44 | 02:14:23 | 00:00:00 | |
| DL3AQ-11 | 2026-09-06 00:34:14 | 53.78585 | 11.20102 | 53° | 40km/h | 32690m | -30.9m/s | -41.1°C | 0.5% | 8.2hPa | 2.5V | 00:00:00 | 00:00:00 | 00:00:00 | |
| DL1XH1-15 | 2026-09-06 00:34:12 | 53.78541 | 11.20016 | 58° | 38km/h | 32868m | -29.8m/s | -41.5°C | 2.6% | 8hPa | 2.5V | 08:30:00 | 02:14:16 | 00:00:00 | |
| DB0DAN | 2026-09-06 00:34:10 | 53.78563 | 11.20057 | 50° | 47km/h | 32778m | -29.2m/s | -41.4°C | 0.5% | 8.06hPa | 2.6V | 00:00:00 | 00:00:00 | 00:00:00 | |
| DF8AY | 2026-09-06 00:34:10 | 53.78563 | 11.20057 | 50° | 51km/h | 32778m | -29.2m/s | -41.4°C | 0% | 8.1hPa | 2.6V | 08:29:44 | 02:14:19 | 00:00:00 | |
| DL1XH-west | 2026-09-06 00:34:06 | 53.78537 | 11.20001 | 76° | 35km/h | 32897m | -28.6m/s | -41.4°C | 0% | 7.9hPa | 2.5V | 18:12:15 | 02:14:15 | 00:00:00 | |
| AA1-15 | 2026-09-06 00:34:04 | 53.78535 | 11.19966 | 90° | 47km/h | 32954m | -28.9m/s | -41.2°C | 0% | 7.8hPa | 2.6V | 18:12:15 | 02:14:13 | 00:00:00 | |
| DF8AY | 2026-09-06 00:33:59 | 53.78543 | 11.19868 | 110° | 44km/h | 33098m | -29.4m/s | -40.7°C | 0% | 7.7hPa | 2.5V | 18:12:15 | 02:14:08 | 00:00:00 | |
| DL4XJ-10 | 2026-09-06 00:33:59 | 53.78543 | 11.19868 | 110° | 37km/h | 33099m | -29.4m/s | -41.3°C | 0% | 0hPa | 2.6V | 00:00:00 | 00:00:00 | 00:00:00 | |
| DL1XH1-15 | 2026-09-06 00:33:58 | 53.78551 | 11.19835 | 118° | 42km/h | 33158m | -31.6m/s | -40.6°C | 2.4% | 7.6hPa | 2.6V | 08:30:00 | 02:14:06 | 00:00:00 | |
| DL1XH-west | 2026-09-06 00:33:56 | 53.78557 | 11.19819 | 120° | 44km/h | 33190m | -31.2m/s | -40.6°C | 0% | 7.6hPa | 2.5V | 18:12:15 | 02:14:05 | 00:00:00 | |
| DB0DAN | 2026-09-06 00:33:55 | 53.78562 | 11.19804 | 120° | 40km/h | 33222m | -32.4m/s | -40.6°C | 0.5% | 7.55hPa | 2.5V | 00:00:00 | 00:00:00 | 00:00:00 | |
| AA1-15 | 2026-09-06 00:33:53 | 53.78572 | 11.19777 | 127° | 29km/h | 33284m | -31.1m/s | -40.4°C | 0% | 7.5hPa | 2.5V | 18:12:15 | 02:14:02 | 00:00:00 | |
| DB0UT-7 | 2026-09-06 00:33:53 | 53.78572 | 11.19777 | 127° | 40km/h | 33285m | -31.0m/s | -40.4°C | 2.4% | 7.4hPa | 2.5V | 00:00:00 | 00:00:00 | 00:00:00 | |
| DL1XH1-15 | 2026-09-06 00:33:52 | 53.78579 | 11.19703 | 79° | 35km/h | 33479m | -32.4m/s | -39.9°C | 2.3% | 7.3hPa | 2.5V | 08:30:00 | 02:13:56 | 00:00:00 | |
| DF8AY | 2026-09-06 00:33:50 | 53.78581 | 11.19732 | 86° | 33km/h | 33413m | -33.6m/s | -40.1°C | 0% | 7.3hPa | 2.5V | 18:12:15 | 02:13:58 | 00:00:00 | |
| DO2JMG | 2026-09-06 00:33:47 | 53.78579 | 11.19703 | 79° | 35km/h | 33480m | -32.4m/s | -39.9°C | 0% | 7.3hPa | 2.5V | 18:12:15 | 02:13:56 | 00:00:00 | |
| DL1XH-15 | 2026-09-06 00:33:46 | 53.78572 | 11.19606 | 68° | 31km/h | 33699m | -44m/s | -40°C | 2.3% | 7.1hPa | 2.5V | 08:30:00 | 02:13:50 | 00:00:00 | |
| DL1XH-west | 2026-09-06 00:33:45 | 53.78577 | 11.19670 | 86° | 40km/h | 33547m | -33m/s | -40°C | 0% | 7.2hPa | 2.6V | 18:12:15 | 02:13:54 | 00:00:00 | |
| AA1-15 | 2026-09-06 00:33:43 | 53.78575 | 11.19637 | 88° | 40km/h | 33617m | -38.4m/s | -40°C | 0% | 7.1hPa | 2.6V | 18:12:15 | 02:13:52 | 00:00:00 | |
| DB0DAN | 2026-09-06 00:33:40 | 53.78569 | 11.19595 | 63° | 29km/h | 33742m | -43.4m/s | -40°C | 0.5% | 6.98hPa | 2.5V | 00:00:00 | 00:00:00 | 00:00:00 | |
| DF8AY | 2026-09-06 00:33:38 | 53.78564 | 11.19572 | 72° | 29km/h | 33825m | -41.9m/s | -40.2°C | 0% | 6.9hPa | 2.6V | 18:12:15 | 02:13:47 | 00:00:00 | |
| DL1XH1-15 | 2026-09-06 00:33:38 | 53.78562 | 11.19559 | 83° | 33km/h | 33865m | -38.4m/s | -40.3°C | 2.4% | 6.8hPa | 2.5V | 08:30:00 | 02:13:46 | 00:00:00 | |
| DO2JMG | 2026-09-06 00:33:37 | 53.78562 | 11.19559 | 83° | 33km/h | 33865m | -38.4m/s | -40.3°C | 0% | 6.8hPa | 2.5V | 18:12:15 | 02:13:46 | 00:00:00 | |
| DL1XH-15 | 2026-09-06 00:33:36 | 53.78584 | 11.19412 | 112° | 91km/h | 34038m | -29.3m/s | -39.4°C | 2.2% | 6.6hPa | 2.6V | 08:30:00 | 02:13:40 | 00:00:00 | |
| DL1XH-west | 2026-09-06 00:33:35 | 53.78562 | 11.19525 | 97° | 46km/h | 33932m | -30.6m/s | -40.3°C | 0% | 6.8hPa | 2.5V | 18:12:15 | 02:13:44 | 00:00:00 | |
| AA1-15 | 2026-09-06 00:33:33 | 53.78569 | 11.19477 | 108° | 71km/h | 33988m | -25.6m/s | -40°C | 0% | 6.7hPa | 2.6V | 18:12:15 | 02:13:42 | 00:00:00 | |
| DL1XH1-15 | 2026-09-06 00:33:32 | 53.78607 | 11.19331 | 120° | 29km/h | 34205m | -39.6m/s | -38.6°C | 2.1% | 6.5hPa | 2.5V | 08:30:00 | 02:13:36 | 00:00:00 | |
| DF8AY | 2026-09-06 00:33:27 | 53.78607 | 11.19331 | 121° | 29km/h | 34205m | -39.6m/s | -38.7°C | 0% | 6.5hPa | 2.5V | 18:12:15 | 02:13:36 | 00:00:00 | |
| D01LWL | 2026-09-06 00:33:27 | 53.78607 | 11.19331 | 120° | 27km/h | 34206m | -39.6m/s | -38.7°C | 0.5% | 6.5hPa | 2.5V | 00:00:00 | 00:00:00 | 00:00:00 | |
| DL1XH-15 | 2026-09-06 00:33:26 | 53.78629 | 11.19273 | 122° | 29km/h | 34285m | 18m/s | -39°C | 2.2% | 6.4hPa | 2.5V | 08:30:00 | 02:13:30 | 00:00:00 | |
| DO2JMG | 2026-09-06 00:33:26 | 53.78611 | 11.19320 | 120° | 27km/h | 34241m | -31.2m/s | -38.8°C | 0% | 6.5hPa | 2.6V | 18:12:15 | 02:13:35 | 00:00:00 | |
| DB0DAN | 2026-09-06 00:33:25 | 53.78614 | 11.19310 | 122° | 26km/h | 34268m | -22.4m/s | -38.9°C | 0.5% | 6.4hPa | 2.6V | 00:00:00 | 00:00:00 | 00:00:00 | |
| DL1XH-west | 2026-09-06 00:33:24 | 53.78618 | 11.19301 | 122° | 27km/h | 34287m | -13.5m/s | -39°C | 0% | 6.4hPa | 2.6V | 18:12:15 | 02:13:33 | 00:00:00 | |
| AA1-15 | 2026-09-06 00:33:23 | 53.78621 | 11.19292 | 123° | 26km/h | 34297m | -3.7m/s | -39°C | 0% | 6.4hPa | 2.5V | 18:12:15 | 02:13:32 | 00:00:00 | |
| DF8AY | 2026-09-06 00:33:17 | 53.78629 | 11.19239 | 90° | 26km/h | 34260m | 4.5m/s | -39°C | 0% | 6.4hPa | 2.6V | 18:12:15 | 02:13:26 | 00:00:00 | |
| DL1XH1-15 | 2026-09-06 00:33:17 | 53.78629 | 11.19239 | 90° | 26km/h | 34260m | 4.5m/s | -39°C | 2.2% | 6.4hPa | 2.6V | 08:30:00 | 02:13:26 | 00:00:00 | |
| DM0DOS-11 | 2026-09-06 00:33:17 | 53.78641 | 11.19178 | 117° | 47km/h | 34236m | 5m/s | -39°C | 2.2% | 6.4hPa | 2.6V | 08:30:00 | 02:13:22 | 00:00:00 | |
| DO2JMG | 2026-09-06 00:33:16 | 53.78630 | 11.19227 | 99° | 31km/h | 34254m | 6.1m/s | -39°C | 0% | 6.4hPa | 2.6V | 18:12:15 | 02:13:25 | 00:00:00 | |
| DL1XH-west | 2026-09-06 00:33:14 | 53.78636 | 11.19196 | 114° | 46km/h | 34242m | 5.8m/s | -39°C | 0% | 6.4hPa | 2.6V | 18:12:15 | 02:13:23 | 00:00:00 | |
| DL1XH-15 | 2026-09-06 00:33:13 | 53.78651 | 11.19146 | 121° | 38km/h | 34226m | 5.4m/s | -39°C | 2.2% | 6.5hPa | 2.6V | 08:30:00 | 02:13:20 | 00:00:00 | |
| AA1-15 | 2026-09-06 00:33:12 | 53.78646 | 11.19161 | 119° | 44km/h | 34231m | 4.7m/s | -39°C | 0% | 6.4hPa | 2.6V | 18:12:15 | 02:13:21 | 00:00:00 | |
| DO2SHX-10 | 2026-09-06 00:33:12 | 53.78646 | 11.19161 | 120° | 37km/h | 34232m | 4.6m/s | -39.0°C | 2.1% | 6.4hPa | 2.6V | 00:00:00 | 02:13:21 | 00:00:00 | |
| DB0DAN | 2026-09-06 00:33:10 | 53.78656 | 11.19134 | 122° | 29km/h | 34221m | 5.8m/s | -39°C | 0.5% | 6.44hPa | 2.6V | 00:00:00 | 00:00:00 | 00:00:00 | |
| EDDB2-12 | 2026-09-06 00:33:10 | 53.78659 | 11.19124 | 122° | 20km/h | 34215m | 5.5m/s | -39.0°C | 0.5% | 6.4hPa | 2.6V | 00:00:00 | 00:00:00 | 00:00:00 | |
| DO2SHX-10 | 2026-09-06 00:33:09 | 53.78659 | 11.19124 | 123° | 18km/h | 34215m | 5.5m/s | -39.0°C | 2.2% | 6.4hPa | 2.6V | 00:00:00 | 02:13:18 | 00:00:00 | |
| DJ2DS-15 | 2026-09-06 00:33:08 | 53.78662 | 11.19118 | 122° | 33km/h | 34210m | 5.0m/s | -39.0°C | 2.2% | 6.4hPa | 2.6V | 00:00:00 | 02:13:17 | 00:00:00 | |
| DM0DOS-11 | 2026-09-06 00:33:07 | 53.78672 | 11.19070 | 103° | 40km/h | 34183m | 5.5m/s | -39.1°C | 2.1% | 6.5hPa | 2.6V | 08:30:00 | 02:13:12 | 00:00:00 | |
| DF8AY | 2026-09-06 00:33:07 | 53.78664 | 11.19112 | 118° | 16km/h | 34205m | 4.6m/s | -39.1°C | 0% | 6.5hPa | 2.6V | 18:12:15 | 02:13:16 | 00:00:00 | |
| DL1XH-west | 2026-09-06 00:33:03 | 53.78672 | 11.19070 | 104° | 40km/h | 34183m | 5.5m/s | -39.1°C | 0% | 6.5hPa | 2.6V | 18:12:15 | 02:13:12 | 00:00:00 | |
| AA1-15 | 2026-09-06 00:33:02 | 53.78675 | 11.19052 | 102° | 46km/h | 34178m | 5.1m/s | -39.2°C | 0% | 6.5hPa | 2.6V | 18:12:15 | 02:13:11 | 00:00:00 | |
| DO2SHX-10 | 2026-09-06 00:33:00 | 53.78678 | 11.19013 | 96° | 40km/h | 34167m | 6.2m/s | -39.1°C | 2.1% | 6.4hPa | 2.6V | 00:00:00 | 02:13:09 | 00:00:00 | |
| DL4XJ-10 | 2026-09-06 00:32:58 | 53.78680 | 11.18975 | 93° | 38km/h | 34156m | 4.9m/s | -39.8°C | 0% | 0hPa | 2.6V | 00:00:00 | 00:00:00 | 00:00:00 | |
| DM0DOS-11 | 2026-09-06 00:32:57 | 53.78691 | 11.18908 | 119° | 29km/h | 34128m | 4.9m/s | -39.5°C | 2.1% | 6.5hPa | 2.6V | 08:30:00 | 02:13:02 | 00:00:00 | |
| DF8AY | 2026-09-06 00:32:56 | 53.78682 | 11.18945 | 102° | 33km/h | 34145m | 5.5m/s | -39.3°C | 0% | 6.5hPa | 2.6V | 18:12:15 | 02:13:05 | 00:00:00 | |
| D01LWL | 2026-09-06 00:32:56 | 53.78684 | 11.18931 | 110° | 31km/h | 34139m | 6.4m/s | -39.4°C | 0.5% | 6.5hPa | 2.6V | 00:00:00 | 00:00:00 | 00:00:00 | |
| DB0DAN | 2026-09-06 00:32:55 | 53.78684 | 11.18931 | 110° | 31km/h | 34139m | 6.4m/s | -39.4°C | 0.5% | 6.5hPa | 2.6V | 00:00:00 | 00:00:00 | 00:00:00 | |
| DO2JMG | 2026-09-06 00:32:53 | 53.78691 | 11.18908 | 119° | 29km/h | 34128m | 4.9m/s | -39.5°C | 0% | 6.5hPa | 2.6V | 18:12:15 | 02:13:02 | 00:00:00 | |
| DL1XH-west | 2026-09-06 00:32:52 | 53.78694 | 11.18897 | 116° | 27km/h | 34123m | 4.8m/s | -39.6°C | 0% | 6.5hPa | 2.6V | 18:12:15 | 02:13:01 | 00:00:00 | |
| AA1-15 | 2026-09-06 00:32:51 | 53.78697 | 11.18886 | 109° | 27km/h | 34117m | 5.7m/s | -39.6°C | 0% | 6.5hPa | 2.6V | 18:12:15 | 02:13:00 | 00:00:00 | |
| HARRO8 | 2026-09-06 00:32:48 | 53.78698 | 11.18834 | 89° | 38km/h | 34097m | 4.7m/s | -39.9°C | 0.5% | 6.5hPa | 2.6V | 00:00:00 | 00:00:00 | 00:00:00 | |
| DM0DOS-11 | 2026-09-06 00:32:47 | 53.78708 | 11.18753 | 109° | 53km/h | 34074m | 4.7m/s | -40.2°C | 2.2% | 6.6hPa | 2.6V | 08:30:00 | 02:12:52 | 00:00:00 | |
| EDDB2-11 | 2026-09-06 00:32:47 | 53.78699 | 11.18816 | 95° | 44km/h | 34091m | 5.6m/s | -40.0°C | 0.5% | 6.6hPa | 2.6V | 00:00:00 | 00:00:00 | 00:00:00 | |
| DL1XH-15 | 2026-09-06 00:32:46 | 53.78716 | 11.18713 | 107° | 44km/h | 34065m | 5.1m/s | -40.3°C | 2.3% | 6.6hPa | 2.6V | 08:30:00 | 02:12:50 | 00:00:00 | |
| DF8AY | 2026-09-06 00:32:45 | 53.78700 | 11.18796 | 101° | 49km/h | 34085m | 6.2m/s | -40.1°C | 0% | 6.6hPa | 2.6V | 18:12:15 | 02:12:54 | 00:00:00 | |
| DO2JMG | 2026-09-06 00:32:43 | 53.78708 | 11.18753 | 110° | 53km/h | 34074m | 4.7m/s | -40.2°C | 0% | 6.6hPa | 2.6V | 18:12:15 | 02:12:52 | 00:00:00 | |
| DL1XH1-15 | 2026-09-06 00:32:42 | 53.78717 | 11.18655 | 77° | 33km/h | 34043m | 4.4m/s | -40.4°C | 2.3% | 6.6hPa | 2.6V | 08:30:00 | 02:12:46 | 00:00:00 | |
| DL1XH-west | 2026-09-06 00:32:42 | 53.78712 | 11.18732 | 111° | 49km/h | 34070m | 4.3m/s | -40.2°C | 0% | 6.6hPa | 2.6V | 18:12:15 | 02:12:51 | 00:00:00 | |
| AA1-15 | 2026-09-06 00:32:41 | 53.78716 | 11.18713 | 108° | 44km/h | 34065m | 5.1m/s | -40.3°C | 0% | 6.6hPa | 2.6V | 18:12:15 | 02:12:50 | 00:00:00 | |
| DB0DAN | 2026-09-06 00:32:40 | 53.78719 | 11.18697 | 101° | 37km/h | 34059m | 6.3m/s | -40.4°C | 0.5% | 6.61hPa | 2.6V | 00:00:00 | 00:00:00 | 00:00:00 | |
| GOEST3-10 | 2026-09-06 00:32:40 | 53.78719 | 11.18697 | 102° | 35km/h | 34060m | 6.2m/s | -40.3°C | 2.3% | 6.6hPa | 2.6V | 00:00:00 | 00:00:00 | 00:00:00 | |
| EDDB2-12 | 2026-09-06 00:32:39 | 53.78719 | 11.18669 | 80° | 31km/h | 34048m | 4.7m/s | -40.4°C | 0.5% | 6.6hPa | 2.6V | 00:00:00 | 00:00:00 | 00:00:00 | |
| DL4XJ-10 | 2026-09-06 00:32:38 | 53.78719 | 11.18669 | 81° | 44km/h | 34048m | 4.7m/s | -41.0°C | 0% | 0hPa | 2.6V | 00:00:00 | 00:00:00 | 00:00:00 | |
| DM0DOS-11 | 2026-09-06 00:32:37 | 53.78716 | 11.18582 | 95° | 55km/h | 34021m | 5.5m/s | -40.6°C | 2.3% | 6.6hPa | 2.6V | 08:30:00 | 02:12:42 | 00:00:00 | |
| DL1XH-15 | 2026-09-06 00:32:36 | 53.78719 | 11.18535 | 96° | 55km/h | 34011m | 5.1m/s | -40.7°C | 2.3% | 6.6hPa | 2.6V | 08:30:00 | 02:12:40 | 00:00:00 | |
| DF8AY | 2026-09-06 00:32:35 | 53.78715 | 11.18623 | 86° | 42km/h | 34033m | 5.8m/s | -40.5°C | 0% | 6.6hPa | 2.6V | 18:12:15 | 02:12:44 | 00:00:00 | |
| DL1XH-west | 2026-09-06 00:32:31 | 53.78719 | 11.18535 | 97° | 55km/h | 34011m | 5.1m/s | -40.7°C | 0% | 6.6hPa | 2.6V | 18:12:15 | 02:12:40 | 00:00:00 | |
| DO2JMG | 2026-09-06 00:32:30 | 53.78720 | 11.18512 | 95° | 51km/h | 34006m | 5.8m/s | -40.7°C | 0% | 6.6hPa | 2.6V | 18:12:15 | 02:12:39 | 00:00:00 | |
| GOEST3-10 | 2026-09-06 00:32:30 | 53.78720 | 11.18512 | 96° | 44km/h | 34006m | 5.7m/s | -40.7°C | 2.4% | 6.6hPa | 2.6V | 00:00:00 | 00:00:00 | 00:00:00 | |
| DL1XH1-15 | 2026-09-06 00:32:27 | 53.78720 | 11.18455 | 82° | 40km/h | 33988m | 5.1m/s | -40.8°C | 2.4% | 6.7hPa | 2.6V | 08:30:00 | 02:12:36 | 00:00:00 | |
| DM0DOS-11 | 2026-09-06 00:32:27 | 53.78717 | 11.18381 | 91° | 51km/h | 33966m | 5.8m/s | -40.9°C | 2.4% | 6.7hPa | 2.6V | 08:30:00 | 02:12:32 | 00:00:00 | |
| DL1XH-15 | 2026-09-06 00:32:26 | 53.78718 | 11.18336 | 93° | 53km/h | 33956m | 4.5m/s | -40.9°C | 2.4% | 6.7hPa | 2.6V | 08:30:00 | 02:12:30 | 00:00:00 | |
| DB0DAN | 2026-09-06 00:32:25 | 53.78717 | 11.18421 | 85° | 40km/h | 33978m | 5.6m/s | -40.9°C | 0.5% | 6.69hPa | 2.6V | 00:00:00 | 00:00:00 | 00:00:00 | |
| DF8AY | 2026-09-06 00:32:24 | 53.78717 | 11.18402 | 89° | 46km/h | 33972m | 6.2m/s | -40.9°C | 0% | 6.7hPa | 2.6V | 18:12:15 | 02:12:33 | 00:00:00 | |
| DL1XH-west | 2026-09-06 00:32:20 | 53.78719 | 11.18314 | 92° | 51km/h | 33951m | 4.6m/s | -40.9°C | 0% | 6.7hPa | 2.6V | 18:12:15 | 02:12:29 | 00:00:00 | |
| GOEST3-10 | 2026-09-06 00:32:20 | 53.78719 | 11.18314 | 93° | 42km/h | 33951m | 4.5m/s | -40.8°C | 2.4% | 6.6hPa | 2.6V | 00:00:00 | 00:00:00 | 00:00:00 | |
| DL4BBY-15 | 2026-09-06 00:32:19 | 53.78719 | 11.18293 | 91° | 42km/h | 33946m | 5.7m/s | -41.4°C | 0% | 0hPa | 2.6V | 00:00:00 | 00:00:00 | 00:00:00 | |
| DO2JMG | 2026-09-06 00:32:19 | 53.78719 | 11.18293 | 90° | 46km/h | 33946m | 5.7m/s | -40.8°C | 0% | 6.7hPa | 2.6V | 18:12:15 | 02:12:28 | 00:00:00 | |
| DL1XH1-15 | 2026-09-06 00:32:17 | 53.78718 | 11.18259 | 86° | 35km/h | 33934m | 5.2m/s | -40.8°C | 2.4% | 6.7hPa | 2.6V | 08:30:00 | 02:12:26 | 00:00:00 | |
| DM0DOS-11 | 2026-09-06 00:32:17 | 53.78720 | 11.18199 | 98° | 42km/h | 33913m | 6m/s | -40.8°C | 2.4% | 6.8hPa | 2.6V | 08:30:00 | 02:12:22 | 00:00:00 | |
| HARRO8 | 2026-09-06 00:32:17 | 53.78718 | 11.18244 | 88° | 31km/h | 33929m | 4.8m/s | -40.8°C | 0.5% | 6.7hPa | 2.5V | 00:00:00 | 00:00:00 | 00:00:00 | |
| DL1XH-15 | 2026-09-06 00:32:16 | 53.78723 | 11.18160 | 96° | 51km/h | 33902m | 5.1m/s | -40.7°C | 2.4% | 6.8hPa | 2.5V | 08:30:00 | 02:12:20 | 00:00:00 | |
| DF8AY | 2026-09-06 00:32:14 | 53.78719 | 11.18215 | 96° | 37km/h | 33919m | 5.9m/s | -40.8°C | 0% | 6.7hPa | 2.6V | 18:12:15 | 02:12:23 | 00:00:00 | |
| SMARD9-10 | 2026-09-06 00:32:12 | 53.78720 | 11.18199 | 99° | 42km/h | 33914m | 6.0m/s | -40.8°C | 0.5% | 6.8hPa | 2.6V | 00:00:00 | 00:00:00 | 00:00:00 | |
| DK7RCA | 2026-09-06 00:32:11 | 53.78721 | 11.18180 | 100° | 47km/h | 33907m | 5.7m/s | -40.8°C | 0.5% | 6.8hPa | 2.6V | 00:00:00 | 00:00:00 | 00:00:00 | |
| DB0DAN | 2026-09-06 00:32:10 | 53.78724 | 11.18138 | 91° | 49km/h | 33897m | 5m/s | -40.7°C | 0.5% | 6.78hPa | 2.6V | 00:00:00 | 00:00:00 | 00:00:00 | |
| DL1XH-west | 2026-09-06 00:32:10 | 53.78724 | 11.18138 | 91° | 53km/h | 33897m | 5m/s | -40.7°C | 0% | 6.8hPa | 2.6V | 18:12:15 | 02:12:19 | 00:00:00 | |
| DL1XH1-15 | 2026-09-06 00:32:08 | 53.78719 | 11.18075 | 76° | 46km/h | 33879m | 5.4m/s | -40.7°C | 2.4% | 6.8hPa | 2.6V | 08:30:00 | 02:12:16 | 00:00:00 | |
| DO2JMG | 2026-09-06 00:32:08 | 53.78722 | 11.18095 | 80° | 49km/h | 33885m | 6.2m/s | -40.7°C | 0% | 6.8hPa | 2.6V | 18:12:15 | 02:12:17 | 00:00:00 | |
| EDDB2-12 | 2026-09-06 00:32:08 | 53.78719 | 11.18075 | 76° | 46km/h | 33879m | 5.4m/s | -40.7°C | 0.5% | 6.8hPa | 2.6V | 00:00:00 | 00:00:00 | 00:00:00 | |
| DM0DOS-11 | 2026-09-06 00:32:07 | 53.78712 | 11.18004 | 91° | 40km/h | 33857m | 5.8m/s | -40.8°C | 2.3% | 6.8hPa | 2.6V | 08:30:00 | 02:12:12 | 00:00:00 | |
| DB0UT-7 | 2026-09-06 00:32:07 | 53.78719 | 11.18075 | 77° | 38km/h | 33879m | 5.3m/s | -40.7°C | 2.4% | 6.7hPa | 2.6V | 00:00:00 | 00:00:00 | 00:00:00 | |
| DL1XH-15 | 2026-09-06 00:32:06 | 53.78714 | 11.17972 | 98° | 35km/h | 33846m | 5m/s | -40.8°C | 2.4% | 6.8hPa | 2.6V | 08:30:00 | 02:12:10 | 00:00:00 | |
| DF8AY | 2026-09-06 00:32:03 | 53.78712 | 11.18004 | 91° | 40km/h | 33857m | 5.8m/s | -40.8°C | 0% | 6.8hPa | 2.6V | 18:12:15 | 02:12:12 | 00:00:00 | |
| DL1XH-west | 2026-09-06 00:31:59 | 53.78716 | 11.17945 | 89° | 29km/h | 33835m | 6.4m/s | -40.7°C | 0% | 6.8hPa | 2.6V | 18:12:15 | 02:12:08 | 00:00:00 | |
| DO2SHX-10 | 2026-09-06 00:31:59 | 53.78716 | 11.17945 | 90° | 29km/h | 33835m | 6.4m/s | -40.7°C | 2.4% | 6.8hPa | 2.6V | 00:00:00 | 02:12:08 | 00:00:00 | |
| DO2LYB-13 | 2026-09-06 00:31:58 | 53.78716 | 11.17945 | 90° | 29km/h | 33835m | 6.4m/s | -40.7°C | 0.6% | 6.8hPa | 2.6V | 00:00:00 | 00:00:00 | 00:00:00 | |
| DM0DOS-11 | 2026-09-06 00:31:57 | 53.78704 | 11.17850 | 82° | 51km/h | 33800m | 5.9m/s | -40.6°C | 2.4% | 6.8hPa | 2.6V | 08:30:00 | 02:12:02 | 00:00:00 | |
| DL1XH-15 | 2026-09-06 00:31:56 | 53.78701 | 11.17807 | 82° | 49km/h | 33790m | 4.9m/s | -40.6°C | 2.3% | 6.9hPa | 2.6V | 08:30:00 | 02:12:00 | 00:00:00 | |
| DL3AQ-11 | 2026-09-06 00:31:56 | 53.78709 | 11.17890 | 76° | 42km/h | 33813m | 6.2m/s | -40.7°C | 0.5% | 6.9hPa | 2.6V | 00:00:00 | 00:00:00 | 00:00:00 | |
| DB0DAN | 2026-09-06 00:31:55 | 53.78709 | 11.17890 | 77° | 40km/h | 33813m | 6.2m/s | -40.7°C | 0.5% | 6.86hPa | 2.6V | 00:00:00 | 00:00:00 | 00:00:00 | |
| DO2JMG | 2026-09-06 00:31:52 | 53.78703 | 11.17828 | 84° | 53km/h | 33794m | 5m/s | -40.6°C | 0% | 6.9hPa | 2.6V | 18:12:15 | 02:12:01 | 00:00:00 | |
| DL1XH-west | 2026-09-06 00:31:49 | 53.78698 | 11.17770 | 78° | 37km/h | 33778m | 6.1m/s | -40.6°C | 0% | 6.9hPa | 2.6V | 18:12:15 | 02:11:58 | 00:00:00 | |
| HARRO8 | 2026-09-06 00:31:47 | 53.78692 | 11.17723 | 84° | 27km/h | 33756m | 6.0m/s | -40.6°C | 0.5% | 6.9hPa | 2.6V | 00:00:00 | 00:00:00 | 00:00:00 | |
| DL1XH-15 | 2026-09-06 00:31:46 | 53.78688 | 11.17660 | 78° | 42km/h | 33734m | 5m/s | -40.6°C | 2.3% | 6.9hPa | 2.6V | 08:30:00 | 02:11:50 | 00:00:00 | |
| EDDB2-11 | 2026-09-06 00:31:45 | 53.78691 | 11.17709 | 86° | 33km/h | 33751m | 5.8m/s | -40.6°C | 0.5% | 6.9hPa | 2.6V | 00:00:00 | 00:00:00 | 00:00:00 | |
| DF8AY | 2026-09-06 00:31:41 | 53.78688 | 11.17660 | 78° | 42km/h | 33734m | 5m/s | -40.6°C | 0% | 6.9hPa | 2.6V | 18:12:15 | 02:11:50 | 00:00:00 | |
| DB0DAN | 2026-09-06 00:31:40 | 53.78686 | 11.17642 | 74° | 40km/h | 33729m | 5.9m/s | -40.7°C | 0.5% | 6.94hPa | 2.6V | 00:00:00 | 00:00:00 | 00:00:00 | |
| DL1XH-west | 2026-09-06 00:31:39 | 53.78682 | 11.17626 | 69° | 38km/h | 33723m | 6.1m/s | -40.7°C | 0% | 7hPa | 2.6V | 18:12:15 | 02:11:48 | 00:00:00 | |
| DL1XH1-15 | 2026-09-06 00:31:38 | 53.78676 | 11.17599 | 69° | 29km/h | 33711m | 4.9m/s | -40.6°C | 2.4% | 7hPa | 2.6V | 08:30:00 | 02:11:46 | 00:00:00 | |
| AA1-15 | 2026-09-06 00:31:38 | 53.78679 | 11.17612 | 67° | 35km/h | 33717m | 5.6m/s | -40.7°C | 0% | 7hPa | 2.6V | 18:12:15 | 02:11:47 | 00:00:00 | |
| DB0UT-7 | 2026-09-06 00:31:37 | 53.78676 | 11.17599 | 70° | 35km/h | 33712m | 4.8m/s | -40.6°C | 2.4% | 6.9hPa | 2.6V | 00:00:00 | 02:11:46 | 00:00:00 | |
| DO2SHX-10 | 2026-09-06 00:31:36 | 53.78674 | 11.17588 | 77° | 31km/h | 33707m | 4.7m/s | -40.6°C | 2.3% | 6.9hPa | 2.6V | 00:00:00 | 02:11:45 | 08:30:00 | |
| DO3MHA-11 | 2026-09-06 00:31:35 | 53.78673 | 11.17575 | 89° | 35km/h | 33702m | 5.2m/s | 0°C | 0% | 0hPa | 2.6V | 00:00:00 | 02:11:44 | 00:00:00 | |
| DL4XJ-10 | 2026-09-06 00:31:34 | 53.78673 | 11.17562 | 95° | 35km/h | 33697m | 5.6m/s | -41.2°C | 0% | 0hPa | 2.6V | 00:00:00 | 00:00:00 | 00:00:00 | |
| DO2SHX-10 | 2026-09-06 00:31:33 | 53.78674 | 11.17547 | 96° | 42km/h | 33691m | 5.6m/s | -40.6°C | 2.3% | 6.9hPa | 2.6V | 00:00:00 | 02:11:42 | 00:00:00 | |
| DL1XH-15 | 2026-09-06 00:31:32 | 53.78675 | 11.17511 | 85° | 44km/h | 33680m | 5m/s | -40.6°C | 2.4% | 7hPa | 2.6V | 08:30:00 | 02:11:40 | 00:00:00 | |
| DL1XH1-15 | 2026-09-06 00:31:32 | 53.78662 | 11.17449 | 55° | 29km/h | 33658m | 6m/s | -40.6°C | 2.4% | 7hPa | 2.6V | 08:30:00 | 02:11:36 | 00:00:00 | |
| DO2JMG | 2026-09-06 00:31:31 | 53.78675 | 11.17511 | 86° | 44km/h | 33680m | 5m/s | -40.6°C | 0% | 7hPa | 2.6V | 18:12:15 | 02:11:40 | 00:00:00 | |
| DF8AY | 2026-09-06 00:31:30 | 53.78673 | 11.17493 | 79° | 44km/h | 33675m | 5.2m/s | -40.6°C | 0% | 7hPa | 2.6V | 18:12:15 | 02:11:39 | 00:00:00 | |
| DL1XH-west | 2026-09-06 00:31:28 | 53.78666 | 11.17461 | 62° | 35km/h | 33664m | 5.9m/s | -40.6°C | 0% | 7hPa | 2.6V | 18:12:15 | 02:11:37 | 00:00:00 | |
| AA1-15 | 2026-09-06 00:31:27 | 53.78662 | 11.17449 | 55° | 29km/h | 33658m | 6m/s | -40.6°C | 0% | 7hPa | 2.6V | 18:12:15 | 02:11:36 | 00:00:00 | |
| DB0DAN | 2026-09-06 00:31:25 | 53.78655 | 11.17431 | 63° | 20km/h | 33646m | 5.2m/s | -40.6°C | 0.5% | 7.03hPa | 2.6V | 00:00:00 | 00:00:00 | 00:00:00 | |
| DO3MHA-11 | 2026-09-06 00:31:25 | 53.78655 | 11.17431 | 63° | 33km/h | 33646m | 5.1m/s | 0°C | 0% | 0hPa | 2.6V | 00:00:00 | 02:11:34 | 00:00:00 | |
| SP3WXH-11 | 2026-09-06 00:31:24 | 53.78652 | 11.17412 | 84° | 26km/h | 33636m | 5.5m/s | -40.5°C | 0.5% | 7.1hPa | 2.6V | 00:00:00 | 00:00:00 | 00:00:00 | |
| DO2SHX-10 | 2026-09-06 00:31:23 | 53.78652 | 11.17412 | 85° | 35km/h | 33636m | 5.5m/s | -40.5°C | 2.3% | 7.0hPa | 2.6V | 00:00:00 | 02:11:32 | 00:00:00 | |
| DL1XH-15 | 2026-09-06 00:31:22 | 53.78651 | 11.17384 | 89° | 38km/h | 33624m | 5.5m/s | -40.5°C | 2.3% | 7.1hPa | 2.6V | 08:30:00 | 02:11:30 | 00:00:00 | |
| DO2JMG | 2026-09-06 00:31:20 | 53.78651 | 11.17367 | 88° | 42km/h | 33619m | 5.2m/s | -40.5°C | 0% | 7.1hPa | 2.6V | 18:12:15 | 02:11:29 | 00:00:00 | |
| GOEST3-10 | 2026-09-06 00:31:20 | 53.78651 | 11.17367 | 89° | 37km/h | 33619m | 5.1m/s | -40.5°C | 2.4% | 7.0hPa | 2.6V | 00:00:00 | 00:00:00 | 00:00:00 | |
| DL4BBY-15 | 2026-09-06 00:31:19 | 53.78651 | 11.17350 | 86° | 29km/h | 33614m | 5.2m/s | -41.1°C | 0% | 0hPa | 2.6V | 00:00:00 | 00:00:00 | 00:00:00 | |
| DL1XH1-15 | 2026-09-06 00:31:18 | 53.78648 | 11.17319 | 81° | 33km/h | 33602m | 5.7m/s | -40.5°C | 2.3% | 7.1hPa | 2.6V | 08:30:00 | 02:11:26 | 00:00:00 | |
| DO2SHX-10 | 2026-09-06 00:31:18 | 53.78649 | 11.17333 | 83° | 33km/h | 33608m | 5.5m/s | -40.5°C | 2.3% | 7.0hPa | 2.6V | 00:00:00 | 02:11:27 | 00:00:00 | |
| DM0DOS-11 | 2026-09-06 00:31:17 | 53.78650 | 11.17275 | 105° | 26km/h | 33580m | 5.5m/s | -40.4°C | 2.3% | 7.1hPa | 2.6V | 08:30:00 | 02:11:22 | 00:00:00 | |
| DL1XH-west | 2026-09-06 00:31:17 | 53.78648 | 11.17319 | 82° | 33km/h | 33602m | 5.7m/s | -40.5°C | 0% | 7.1hPa | 2.6V | 18:12:15 | 02:11:26 | 00:00:00 | |
| AA1-15 | 2026-09-06 00:31:16 | 53.78648 | 11.17306 | 85° | 27km/h | 33597m | 5.6m/s | -40.5°C | 0% | 7.1hPa | 2.6V | 18:12:15 | 02:11:25 | 00:00:00 | |
| DO2SHX-10 | 2026-09-06 00:31:15 | 53.78647 | 11.17295 | 94° | 29km/h | 33591m | 5.6m/s | -40.4°C | 2.3% | 7.1hPa | 2.6V | 00:00:00 | 02:11:24 | 00:00:00 | |
| EDDB2-11 | 2026-09-06 00:31:14 | 53.78649 | 11.17275 | 105° | 26km/h | 33580m | 5.5m/s | -40.4°C | 0.5% | 7.1hPa | 2.6V | 00:00:00 | 00:00:00 | 00:00:00 | |
| DL1XH1-15 | 2026-09-06 00:31:13 | 53.78649 | 11.17194 | 75° | 31km/h | 33548m | 5m/s | -40.3°C | 2.3% | 7.2hPa | 2.6V | 08:30:00 | 02:11:16 | 00:00:00 | |
| DF8AY | 2026-09-06 00:31:10 | 53.78652 | 11.17222 | 82° | 35km/h | 33558m | 5.6m/s | -40.3°C | 0% | 7.1hPa | 2.6V | 18:12:15 | 02:11:18 | 00:00:00 | |
| DB0DAN | 2026-09-06 00:31:10 | 53.78653 | 11.17237 | 90° | 33km/h | 33564m | 5.3m/s | -40.3°C | 0.5% | 7.13hPa | 2.6V | 00:00:00 | 00:00:00 | 00:00:00 | |
| DL1XH-west | 2026-09-06 00:31:07 | 53.78649 | 11.17194 | 76° | 31km/h | 33548m | 5m/s | -40.3°C | 0% | 7.2hPa | 2.6V | 18:12:15 | 02:11:16 | 00:00:00 | |
| AA1-15 | 2026-09-06 00:31:06 | 53.78647 | 11.17182 | 82° | 27km/h | 33543m | 5.2m/s | -40.3°C | 0% | 7.1hPa | 2.6V | 18:12:15 | 02:11:15 | 00:00:00 | |
| DF8AY | 2026-09-06 00:30:59 | 53.78668 | 11.17091 | 107° | 35km/h | 33504m | 5.4m/s | -40.4°C | 0% | 7.2hPa | 2.6V | 18:12:15 | 02:11:08 | 00:00:00 | |
| DL1XH1-15 | 2026-09-06 00:30:58 | 53.78671 | 11.17066 | 88° | 24km/h | 33492m | 6m/s | -40.5°C | 2.3% | 7.2hPa | 2.6V | 08:30:00 | 02:11:06 | 00:00:00 | |
| DL1XH-west | 2026-09-06 00:30:56 | 53.78670 | 11.17056 | 82° | 20km/h | 33486m | 5.9m/s | -40.6°C | 0% | 7.2hPa | 2.6V | 18:12:15 | 02:11:05 | 00:00:00 | |
| DB0DAN | 2026-09-06 00:30:55 | 53.78670 | 11.17049 | 81° | 15km/h | 33480m | 5.3m/s | -40.5°C | 0.5% | 7.23hPa | 2.6V | 00:00:00 | 00:00:00 | 00:00:00 | |
| AA1-15 | 2026-09-06 00:30:55 | 53.78670 | 11.17049 | 81° | 16km/h | 33480m | 5.3m/s | -40.5°C | 0% | 7.2hPa | 2.6V | 18:12:15 | 02:11:04 | 00:00:00 | |
| DJ2DS-15 | 2026-09-06 00:30:54 | 53.78669 | 11.17042 | 92° | 15km/h | 33476m | 5.3m/s | -40.5°C | 0.5% | 7.2hPa | 2.6V | 00:00:00 | 00:00:00 | 00:00:00 | |
| SP3WXH-11 | 2026-09-06 00:30:53 | 53.78672 | 11.17026 | 112° | 26km/h | 33464m | 6.1m/s | -40.5°C | 0.5% | 7.2hPa | 2.6V | 00:00:00 | 00:00:00 | 00:00:00 | |
| DM0DOS-11 | 2026-09-06 00:30:52 | 53.78679 | 11.17001 | 116° | 38km/h | 33452m | 5.3m/s | -40.5°C | 2.3% | 7.2hPa | 2.6V | 08:30:00 | 02:10:59 | 00:00:00 | |
| DF8AY | 2026-09-06 00:30:49 | 53.78683 | 11.16985 | 114° | 40km/h | 33447m | 4.9m/s | -40.6°C | 0% | 7.2hPa | 2.6V | 18:12:15 | 02:10:58 | 00:00:00 | |
| DL4BBY-15 | 2026-09-06 00:30:49 | 53.78683 | 11.16985 | 115° | 35km/h | 33448m | 4.9m/s | -41.2°C | 0% | 0hPa | 2.6V | 00:00:00 | 00:00:00 | 00:00:00 | |
| DL1XH1-15 | 2026-09-06 00:30:48 | 53.78691 | 11.16956 | 112° | 33km/h | 33436m | 6.4m/s | -40.6°C | 2.3% | 7.3hPa | 2.6V | 08:30:00 | 02:10:56 | 00:00:00 | |
| DJ2DS-15 | 2026-09-06 00:30:48 | 53.78687 | 11.16970 | 115° | 31km/h | 33442m | 5.5m/s | -40.5°C | 2.3% | 7.2hPa | 2.6V | 00:00:00 | 02:10:57 | 00:00:00 | |
| DO2SHX-10 | 2026-09-06 00:30:47 | 53.78691 | 11.16956 | 113° | 27km/h | 33436m | 6.4m/s | -40.5°C | 2.3% | 7.2hPa | 2.6V | 00:00:00 | 02:10:56 | 00:00:00 | |
| DL1XH-15 | 2026-09-06 00:30:46 | 53.78708 | 11.16905 | 130° | 31km/h | 33403m | 5.8m/s | -40.7°C | 2.3% | 7.3hPa | 2.6V | 08:30:00 | 02:10:50 | 00:00:00 | |
| DL1XH-west | 2026-09-06 00:30:45 | 53.78696 | 11.16935 | 113° | 20km/h | 33423m | 6m/s | -40.6°C | 0% | 7.3hPa | 2.6V | 18:12:15 | 02:10:54 | 00:00:00 | |
| AA1-15 | 2026-09-06 00:30:44 | 53.78698 | 11.16928 | 117° | 16km/h | 33417m | 5.3m/s | -40.6°C | 0% | 7.3hPa | 2.6V | 18:12:15 | 02:10:53 | 00:00:00 | |
| DO2JMG | 2026-09-06 00:30:43 | 53.78700 | 11.16921 | 125° | 18km/h | 33412m | 4.3m/s | -40.6°C | 0% | 7.3hPa | 2.6V | 18:12:15 | 02:10:52 | 00:00:00 | |
| EDDB2-11 | 2026-09-06 00:30:42 | 53.78703 | 11.16914 | 129° | 22km/h | 33409m | 4.3m/s | -40.7°C | 0.5% | 7.3hPa | 2.6V | 00:00:00 | 00:00:00 | 00:00:00 | |
| DB0DAN | 2026-09-06 00:30:40 | 53.78713 | 11.16894 | 128° | 38km/h | 33397m | 6.7m/s | -40.7°C | 0.5% | 7.31hPa | 2.6V | 00:00:00 | 00:00:00 | 00:00:00 | |
| DF8AY | 2026-09-06 00:30:38 | 53.78726 | 11.16861 | 121° | 53km/h | 33385m | 5.4m/s | -40.7°C | 0% | 7.3hPa | 2.6V | 18:12:15 | 02:10:47 | 00:00:00 | |
| DL1XH1-15 | 2026-09-06 00:30:38 | 53.78733 | 11.16842 | 115° | 51km/h | 33379m | 4.9m/s | -40.7°C | 2.4% | 7.3hPa | 2.6V | 08:30:00 | 02:10:46 | 00:00:00 | |
| DL1XH-west | 2026-09-06 00:30:35 | 53.78741 | 11.16806 | 109° | 38km/h | 33370m | 5.5m/s | -40.8°C | 0% | 7.3hPa | 2.6V | 18:12:15 | 02:10:44 | 00:00:00 | |
| AA1-15 | 2026-09-06 00:30:33 | 53.78746 | 11.16784 | 117° | 18km/h | 33357m | 6.4m/s | -40.8°C | 0% | 7.3hPa | 2.6V | 18:12:15 | 02:10:42 | 00:00:00 | |
| DO2JMG | 2026-09-06 00:30:32 | 53.78749 | 11.16778 | 136° | 15km/h | 33351m | 5.9m/s | -40.9°C | 0% | 7.3hPa | 2.6V | 18:12:15 | 02:10:41 | 00:00:00 | |
| DL1XH-15 | 2026-09-06 00:30:32 | 53.78752 | 11.16774 | 150° | 16km/h | 33345m | 5.1m/s | -40.9°C | 2.4% | 7.4hPa | 2.6V | 08:30:00 | 02:10:40 | 00:00:00 | |
| DO2SHX-10 | 2026-09-06 00:30:32 | 53.78749 | 11.16778 | 136° | 18km/h | 33351m | 5.9m/s | -40.8°C | 2.4% | 7.3hPa | 2.6V | 00:00:00 | 02:10:41 | 00:00:00 | |
| GOEST3-10 | 2026-09-06 00:30:30 | 53.78756 | 11.16770 | 146° | 38km/h | 33341m | 4.5m/s | -40.8°C | 2.4% | 7.3hPa | 2.6V | 00:00:00 | 00:00:00 | 08:30:00 | |
| DO2SHX-10 | 2026-09-06 00:30:29 | 53.78760 | 11.16763 | 135° | 40km/h | 33336m | 4.8m/s | -40.8°C | 2.4% | 7.3hPa | 2.6V | 00:00:00 | 02:10:38 | 08:30:00 | |
| DL1XH1-15 | 2026-09-06 00:30:28 | 53.78771 | 11.16736 | 115° | 47km/h | 33324m | 6.4m/s | -40.8°C | 2.4% | 7.4hPa | 2.6V | 08:30:00 | 02:10:36 | 00:00:00 | |
| DF8AY | 2026-09-06 00:30:27 | 53.78771 | 11.16736 | 116° | 47km/h | 33324m | 6.4m/s | -40.8°C | 0% | 7.4hPa | 2.6V | 18:12:15 | 02:10:36 | 00:00:00 | |
| DB0DAN | 2026-09-06 00:30:25 | 53.78780 | 11.16694 | 105° | 55km/h | 33312m | 5.8m/s | -40.8°C | 0.5% | 7.4hPa | 2.6V | 00:00:00 | 00:00:00 | 00:00:00 | |
| DL1XH-west | 2026-09-06 00:30:24 | 53.78783 | 11.16670 | 102° | 57km/h | 33306m | 5.2m/s | -40.8°C | 0% | 7.4hPa | 2.6V | 18:12:15 | 02:10:33 | 00:00:00 | |
| AA1-15 | 2026-09-06 00:30:22 | 53.78789 | 11.16629 | 108° | 44km/h | 33296m | 5.4m/s | -40.8°C | 0% | 7.4hPa | 2.6V | 18:12:15 | 02:10:31 | 00:00:00 | |
| DF8AY | 2026-09-06 00:30:17 | 53.78829 | 11.16460 | 100° | 44km/h | 33227m | 6.5m/s | -41°C | 0% | 7.5hPa | 2.6V | 18:12:15 | 02:10:19 | 00:00:00 | |
| DL1XH-west | 2026-09-06 00:30:14 | 53.78828 | 11.16533 | 95° | 37km/h | 33249m | 6.7m/s | -41°C | 0% | 7.5hPa | 2.6V | 18:12:15 | 02:10:23 | 00:00:00 | |
| DO2SHX-10 | 2026-09-06 00:30:13 | 53.78828 | 11.16516 | 89° | 44km/h | 33243m | 5.6m/s | -40.9°C | 2.4% | 7.4hPa | 2.6V | 00:00:00 | 02:10:22 | 00:00:00 | |
| DL1XH-15 | 2026-09-06 00:30:12 | 53.78828 | 11.16479 | 92° | 46km/h | 33232m | 5.4m/s | -41°C | 2.4% | 7.5hPa | 2.6V | 08:30:00 | 02:10:20 | 00:00:00 | |
| AA1-15 | 2026-09-06 00:30:12 | 53.78828 | 11.16498 | 88° | 44km/h | 33238m | 4.9m/s | -41°C | 0% | 7.5hPa | 2.6V | 18:12:15 | 02:10:21 | 00:00:00 | |
| DB0DAN | 2026-09-06 00:30:10 | 53.78829 | 11.16460 | 100° | 42km/h | 33227m | 6.5m/s | -41°C | 0.5% | 7.49hPa | 2.6V | 00:00:00 | 00:00:00 | 00:00:00 | |
| DO2SHX-10 | 2026-09-06 00:30:10 | 53.78829 | 11.16460 | 101° | 44km/h | 33227m | 6.4m/s | -40.9°C | 2.4% | 7.4hPa | 2.6V | 00:00:00 | 02:10:19 | 00:00:00 | |
| DJ2DS-15 | 2026-09-06 00:30:08 | 53.78836 | 11.16425 | 120° | 46km/h | 33214m | 5.7m/s | -40.9°C | 2.4% | 7.5hPa | 2.6V | 00:00:00 | 02:10:17 | 00:00:00 | |
| SMARD9-15 | 2026-09-06 00:30:07 | 53.78848 | 11.16395 | 123° | 40km/h | 33204m | 4.9m/s | -41.0°C | 0.5% | 7.5hPa | 2.6V | 00:00:00 | 00:00:00 | 00:00:00 | |
| DL1XH-15 | 2026-09-06 00:30:06 | 53.78860 | 11.16313 | 88° | 42km/h | 33174m | 5.1m/s | -40.9°C | 2.3% | 7.5hPa | 2.6V | 08:30:00 | 02:10:10 | 00:00:00 | |
| DF8AY | 2026-09-06 00:30:05 | 53.78853 | 11.16380 | 118° | 40km/h | 33198m | 5.9m/s | -41°C | 0% | 7.5hPa | 2.6V | 18:12:15 | 02:10:14 | 00:00:00 | |
| DO2JMG | 2026-09-06 00:30:04 | 53.78857 | 11.16364 | 108° | 38km/h | 33192m | 6.5m/s | -40.9°C | 0% | 7.5hPa | 2.6V | 18:12:15 | 02:10:13 | 00:00:00 | |
| DL1XH-west | 2026-09-06 00:30:03 | 53.78859 | 11.16348 | 97° | 40km/h | 33185m | 6.2m/s | -40.9°C | 0% | 7.5hPa | 2.6V | 18:12:15 | 02:10:12 | 00:00:00 | |
| AA1-15 | 2026-09-06 00:30:01 | 53.78860 | 11.16313 | 88° | 42km/h | 33174m | 5.1m/s | -40.9°C | 0% | 7.5hPa | 2.6V | 18:12:15 | 02:10:10 | 00:00:00 | |
| GOEST3-10 | 2026-09-06 00:30:00 | 53.78860 | 11.16295 | 91° | 44km/h | 33169m | 5.1m/s | -40.8°C | 2.4% | 7.5hPa | 2.6V | 00:00:00 | 00:00:00 | 00:00:00 | |
| DO2SHX-10 | 2026-09-06 00:29:59 | 53.78860 | 11.16277 | 98° | 46km/h | 33163m | 6.2m/s | -40.8°C | 2.3% | 7.5hPa | 2.6V | 00:00:00 | 02:10:08 | 00:00:00 | |
| DL1XH1-15 | 2026-09-06 00:29:58 | 53.78867 | 11.16243 | 113° | 46km/h | 33150m | 6.2m/s | -40.9°C | 2.3% | 7.6hPa | 2.6V | 08:30:00 | 02:10:06 | 00:00:00 | |
| DG6HD-15 | 2026-09-06 00:29:58 | 53.78863 | 11.16260 | 107° | 42km/h | 33157m | 6.6m/s | -40.9°C | 0.5% | 7.6hPa | 2.6V | 00:00:00 | 00:00:00 | 00:00:00 | |
| DL1XH-15 | 2026-09-06 00:29:56 | 53.78889 | 11.16115 | 91° | 55km/h | 33115m | 5.4m/s | -41.2°C | 2.4% | 7.6hPa | 2.6V | 08:30:00 | 02:10:00 | 00:00:00 | |
| DL3AQ-11 | 2026-09-06 00:29:56 | 53.78877 | 11.16205 | 114° | 51km/h | 33139m | 4.7m/s | -41.0°C | 0.5% | 7.6hPa | 2.6V | 00:00:00 | 00:00:00 | 00:00:00 | |
| DB0DAN | 2026-09-06 00:29:55 | 53.78877 | 11.16205 | 115° | 49km/h | 33138m | 4.7m/s | -41°C | 0.5% | 7.6hPa | 2.6V | 00:00:00 | 00:00:00 | 00:00:00 | |
| DF8AY | 2026-09-06 00:29:54 | 53.78882 | 11.16185 | 110° | 53km/h | 33134m | 5.1m/s | -41.1°C | 0% | 7.6hPa | 2.6V | 18:12:15 | 02:10:03 | 00:00:00 | |
| DL1XH-west | 2026-09-06 00:29:53 | 53.78886 | 11.16163 | 104° | 55km/h | 33127m | 6.6m/s | -41.1°C | 0% | 7.6hPa | 2.6V | 18:12:15 | 02:10:02 | 00:00:00 | |
| DC4HF-4 | 2026-09-06 00:29:52 | 53.78888 | 11.16139 | 96° | 55km/h | 33121m | 6.1m/s | -41.2°C | 0.5% | 7.6hPa | 2.6V | 00:00:00 | 00:00:00 | 00:00:00 | |
| DM0DOS-11 | 2026-09-06 00:29:51 | 53.78889 | 11.16092 | 89° | 53km/h | 33110m | 5.4m/s | -41.3°C | 2.4% | 7.6hPa | 2.6V | 08:30:00 | 02:09:59 | 00:00:00 | |
| AA1-15 | 2026-09-06 00:29:51 | 53.78889 | 11.16115 | 92° | 55km/h | 33115m | 5.4m/s | -41.2°C | 0% | 7.6hPa | 2.6V | 18:12:15 | 02:10:00 | 00:00:00 | |
| DL1ZP-14 | 2026-09-06 00:29:51 | 53.78889 | 11.16092 | 89° | 53km/h | 33110m | 5.4m/s | -41.3°C | 0.5% | 7.6hPa | 2.6V | 00:00:00 | 00:00:00 | 00:00:00 | |
| DB0UT-7 | 2026-09-06 00:29:50 | 53.78889 | 11.16092 | 90° | 40km/h | 33110m | 5.4m/s | -41.2°C | 2.4% | 7.6hPa | 2.6V | 00:00:00 | 00:00:00 | 00:00:00 | |
| DL4BBY-15 | 2026-09-06 00:29:49 | 53.78889 | 11.16071 | 92° | 42km/h | 33104m | 6.1m/s | -41.9°C | 0% | 0hPa | 2.6V | 00:00:00 | 00:00:00 | 00:00:00 | |
| DL1XH1-15 | 2026-09-06 00:29:48 | 53.78892 | 11.16032 | 100° | 42km/h | 33092m | 5.8m/s | -41.4°C | 2.4% | 7.7hPa | 2.6V | 08:30:00 | 02:09:56 | 00:00:00 | |
| DJ2DS-15 | 2026-09-06 00:29:48 | 53.78890 | 11.16051 | 96° | 42km/h | 33099m | 6.3m/s | -41.3°C | 2.4% | 7.6hPa | 2.6V | 00:00:00 | 02:09:57 | 00:00:00 | |
| DO2SHX-10 | 2026-09-06 00:29:47 | 53.78892 | 11.16032 | 101° | 40km/h | 33092m | 5.8m/s | -41.3°C | 2.4% | 7.6hPa | 2.6V | 00:00:00 | 02:09:56 | 00:00:00 | |
| DK7RCA | 2026-09-06 00:29:46 | 53.78892 | 11.16032 | 102° | 42km/h | 33092m | 5.8m/s | -41.4°C | 0.6% | 7.7hPa | 2.6V | 00:00:00 | 00:00:00 | 00:00:00 | |
| DL1XH-15 | 2026-09-06 00:29:45 | 53.78904 | 11.15926 | 92° | 47km/h | 33056m | 5.1m/s | -41.5°C | 2.4% | 7.7hPa | 2.6V | 08:30:00 | 02:09:50 | 00:00:00 | |
| DO2JMG | 2026-09-06 00:29:44 | 53.78899 | 11.15982 | 103° | 42km/h | 33075m | 6.3m/s | -41.5°C | 0% | 7.7hPa | 2.6V | 18:12:15 | 02:09:53 | 00:00:00 | |
| DF8AY | 2026-09-06 00:29:43 | 53.78901 | 11.15964 | 99° | 44km/h | 33068m | 6.5m/s | -41.5°C | 0% | 7.7hPa | 2.6V | 18:12:15 | 02:09:52 | 00:00:00 | |
| DL1XH-west | 2026-09-06 00:29:42 | 53.78903 | 11.15945 | 95° | 46km/h | 33062m | 5.6m/s | -41.5°C | 0% | 7.7hPa | 2.6V | 18:12:15 | 02:09:51 | 00:00:00 | |
| DM0DOS-11 | 2026-09-06 00:29:41 | 53.78904 | 11.15906 | 92° | 47km/h | 33051m | 5.5m/s | -41.5°C | 2.4% | 7.7hPa | 2.6V | 08:30:00 | 02:09:49 | 00:00:00 | |
| AA1-15 | 2026-09-06 00:29:40 | 53.78904 | 11.15906 | 93° | 47km/h | 33051m | 5.5m/s | -41.5°C | 0% | 7.7hPa | 2.6V | 18:12:15 | 02:09:49 | 00:00:00 | |
| DB0DAN | 2026-09-06 00:29:40 | 53.78904 | 11.15906 | 93° | 44km/h | 33051m | 5.5m/s | -41.5°C | 0.5% | 7.7hPa | 2.6V | 00:00:00 | 00:00:00 | 00:00:00 | |
| GOEST3-10 | 2026-09-06 00:29:40 | 53.78904 | 11.15906 | 93° | 44km/h | 33052m | 5.4m/s | -41.4°C | 2.4% | 7.7hPa | 2.6V | 00:00:00 | 00:00:00 | 00:00:00 | |
| SP3BTT-10 | 2026-09-06 00:29:39 | 53.78905 | 11.15886 | 95° | 38km/h | 33046m | 6.3m/s | -41.4°C | 2.4% | 7.7hPa | 2.6V | 00:00:00 | 00:00:00 | 00:00:00 | |
| DO2SHX-10 | 2026-09-06 00:29:38 | 53.78906 | 11.15867 | 96° | 42km/h | 33039m | 6.1m/s | -41.4°C | 2.4% | 7.7hPa | 2.6V | 00:00:00 | 02:09:47 | 00:00:00 | |
| DG6HD-15 | 2026-09-06 00:29:37 | 53.78906 | 11.15867 | 96° | 44km/h | 33039m | 6.2m/s | -41.5°C | 0.5% | 7.7hPa | 2.6V | 00:00:00 | 00:00:00 | 00:00:00 | |
| DO3MHA-11 | 2026-09-06 00:29:36 | 53.78907 | 11.15831 | 93° | 38km/h | 33028m | 5.0m/s | 0°C | 0% | 0hPa | 2.6V | 00:00:00 | 02:09:45 | 00:00:00 | |
| DL1XH-15 | 2026-09-06 00:29:35 | 53.78895 | 11.15740 | 66° | 42km/h | 32999m | 5.3m/s | -41.5°C | 2.4% | 7.7hPa | 2.6V | 08:30:00 | 02:09:40 | 00:00:00 | |
| DO2JMG | 2026-09-06 00:29:33 | 53.78903 | 11.15775 | 74° | 47km/h | 33010m | 6.2m/s | -41.5°C | 0% | 7.8hPa | 2.6V | 18:12:15 | 02:09:42 | 00:00:00 | |
| DL1XH-west | 2026-09-06 00:29:32 | 53.78899 | 11.15757 | 69° | 46km/h | 33004m | 5.4m/s | -41.5°C | 0% | 7.7hPa | 2.6V | 18:12:15 | 02:09:41 | 00:00:00 | |
| DM0DOS-11 | 2026-09-06 00:29:31 | 53.78891 | 11.15724 | 67° | 37km/h | 32992m | 6.8m/s | -41.5°C | 2.4% | 7.8hPa | 2.6V | 08:30:00 | 02:09:39 | 00:00:00 | |
| AA1-15 | 2026-09-06 00:29:30 | 53.78891 | 11.15724 | 67° | 37km/h | 32992m | 6.8m/s | -41.5°C | 0% | 7.8hPa | 2.6V | 18:12:15 | 02:09:39 | 00:00:00 | |
| GOEST3-10 | 2026-09-06 00:29:30 | 53.78891 | 11.15724 | 68° | 31km/h | 32993m | 6.8m/s | -41.5°C | 2.4% | 7.7hPa | 2.6V | 00:00:00 | 00:00:00 | 00:00:00 | |
| DJ2DS-15 | 2026-09-06 00:29:28 | 53.78886 | 11.15699 | 75° | 38km/h | 32980m | 5.3m/s | -41.6°C | 2.4% | 7.8hPa | 2.6V | 00:00:00 | 02:09:37 | 00:00:00 | |
| DO3MHA-11 | 2026-09-06 00:29:26 | 53.78883 | 11.15675 | 78° | 38km/h | 32970m | 5.1m/s | 0°C | 0% | 0hPa | 2.6V | 00:00:00 | 02:09:35 | 00:00:00 | |
| DM0DOS-11 | 2026-09-06 00:29:25 | 53.78867 | 11.15558 | 78° | 47km/h | 32935m | 5.9m/s | -42.1°C | 2.5% | 7.8hPa | 2.6V | 08:30:00 | 02:09:29 | 00:00:00 | |
| DL1XH-15 | 2026-09-06 00:29:25 | 53.78869 | 11.15578 | 76° | 51km/h | 32941m | 5.2m/s | -42.1°C | 2.5% | 7.8hPa | 2.6V | 08:30:00 | 02:09:30 | 00:00:00 | |
| DB0DAN | 2026-09-06 00:29:25 | 53.78881 | 11.15660 | 78° | 37km/h | 32964m | 6.4m/s | -41.9°C | 0.6% | 7.8hPa | 2.6V | 00:00:00 | 00:00:00 | 00:00:00 | |
| DO2JMG | 2026-09-06 00:29:22 | 53.78872 | 11.15600 | 76° | 53km/h | 32946m | 5.1m/s | -42.1°C | 0% | 7.8hPa | 2.6V | 18:12:15 | 02:09:31 | 00:00:00 | |
| DL1XH-west | 2026-09-06 00:29:21 | 53.78869 | 11.15578 | 76° | 51km/h | 32941m | 5.2m/s | -42.1°C | 0% | 7.8hPa | 2.6V | 18:12:15 | 02:09:30 | 00:00:00 | |
| AA1-15 | 2026-09-06 00:29:19 | 53.78864 | 11.15540 | 78° | 40km/h | 32929m | 6.1m/s | -42.1°C | 0% | 7.9hPa | 2.6V | 18:12:15 | 02:09:28 | 00:00:00 | |
| DG6HD-15 | 2026-09-06 00:29:18 | 53.78862 | 11.15525 | 78° | 31km/h | 32924m | 5.8m/s | -42.1°C | 0.6% | 7.9hPa | 2.6V | 00:00:00 | 00:00:00 | 00:00:00 | |
| DO2SHX-10 | 2026-09-06 00:29:17 | 53.78860 | 11.15513 | 68° | 27km/h | 32918m | 5.3m/s | -42.0°C | 2.5% | 7.8hPa | 2.6V | 00:00:00 | 02:09:26 | 00:00:00 | |
| DC4HF-4 | 2026-09-06 00:29:16 | 53.78857 | 11.15504 | 56° | 26km/h | 32912m | 5.5m/s | -42.1°C | 0.6% | 7.9hPa | 2.6V | 00:00:00 | 00:00:00 | 00:00:00 | |
| DL1XH-15 | 2026-09-06 00:29:15 | 53.78823 | 11.15447 | 46° | 46km/h | 32882m | 5.3m/s | -42°C | 2.6% | 7.9hPa | 2.6V | 08:30:00 | 02:09:20 | 00:00:00 | |
| DM0DOS-11 | 2026-09-06 00:29:15 | 53.78816 | 11.15433 | 51° | 44km/h | 32877m | 5.7m/s | -42°C | 2.5% | 7.9hPa | 2.6V | 08:30:00 | 02:09:19 | 00:00:00 | |
| DF8AY | 2026-09-06 00:29:12 | 53.78832 | 11.15461 | 44° | 46km/h | 32887m | 5.4m/s | -42°C | 0% | 7.9hPa | 2.6V | 18:12:15 | 02:09:21 | 00:00:00 | |
| DL1XH-west | 2026-09-06 00:29:11 | 53.78823 | 11.15447 | 46° | 46km/h | 32882m | 5.3m/s | -42°C | 0% | 7.9hPa | 2.6V | 18:12:15 | 02:09:20 | 00:00:00 | |
| DB0DAN | 2026-09-06 00:29:10 | 53.78816 | 11.15433 | 51° | 42km/h | 32877m | 5.7m/s | -42°C | 0.6% | 7.89hPa | 2.6V | 00:00:00 | 00:00:00 | 00:00:00 | |
| AP2371 | 2026-09-06 00:29:10 | 53.78816 | 11.15432 | 52° | 44km/h | 32877m | 5.7m/s | -42.0°C | 0.6% | 7.9hPa | 2.6V | 00:00:00 | 00:00:00 | 00:00:00 | |
| EDDB2-11 | 2026-09-06 00:29:09 | 53.78810 | 11.15419 | 54° | 38km/h | 32871m | 6.1m/s | -42.0°C | 0.6% | 7.9hPa | 2.6V | 00:00:00 | 00:00:00 | 00:00:00 | |
| DL1XH1-15 | 2026-09-06 00:29:08 | 53.78801 | 11.15395 | 62° | 27km/h | 32859m | 5.6m/s | -42°C | 2.5% | 7.9hPa | 2.6V | 08:30:00 | 02:09:16 | 00:00:00 | |
| AA1-15 | 2026-09-06 00:29:08 | 53.78805 | 11.15406 | 60° | 33km/h | 32864m | 6m/s | -42°C | 0% | 7.9hPa | 2.6V | 18:12:15 | 02:09:17 | 00:00:00 | |
| DL1CLM-18 | 2026-09-06 00:29:08 | 53.78805 | 11.15406 | 61° | 33km/h | 32865m | 6.0m/s | -42.0°C | 0% | 0hPa | 2.6V | 00:00:00 | 00:00:00 | 00:00:00 | |
| DO2SHX-10 | 2026-09-06 00:29:07 | 53.78801 | 11.15395 | 63° | 37km/h | 32859m | 5.5m/s | -41.9°C | 2.5% | 7.9hPa | 2.6V | 00:00:00 | 02:09:16 | 00:00:00 | |
| DL1XH-15 | 2026-09-06 00:29:06 | 53.78773 | 11.15325 | 59° | 46km/h | 32825m | 5.9m/s | -41.8°C | 2.5% | 8hPa | 2.6V | 08:30:00 | 02:09:10 | 00:00:00 | |
| DF8AY | 2026-09-06 00:29:01 | 53.78773 | 11.15325 | 59° | 47km/h | 32825m | 5.9m/s | -41.8°C | 0% | 8hPa | 2.6V | 18:12:15 | 02:09:10 | 00:00:00 | |
| DL1XH-west | 2026-09-06 00:29:00 | 53.78767 | 11.15308 | 64° | 47km/h | 32819m | 5.9m/s | -41.8°C | 0% | 8hPa | 2.6V | 18:12:15 | 02:09:09 | 00:00:00 | |
| DL1XH1-15 | 2026-09-06 00:28:58 | 53.78755 | 11.15257 | 67° | 37km/h | 32802m | 5.5m/s | -41.7°C | 2.5% | 8hPa | 2.6V | 08:30:00 | 02:09:06 | 00:00:00 | |
| AA1-15 | 2026-09-06 00:28:58 | 53.78755 | 11.15257 | 68° | 37km/h | 32802m | 5.5m/s | -41.7°C | 0% | 8hPa | 2.6V | 18:12:15 | 02:09:06 | 00:00:00 | |
| DO2SHX-10 | 2026-09-06 00:28:57 | 53.78755 | 11.15257 | 68° | 33km/h | 32803m | 5.5m/s | -41.7°C | 2.5% | 8.0hPa | 2.6V | 00:00:00 | 02:09:06 | 00:00:00 | |
| DL1XH-15 | 2026-09-06 00:28:57 | 53.78727 | 11.15182 | 64° | 40km/h | 32767m | 5.6m/s | -41.6°C | 2.5% | 8.1hPa | 2.6V | 08:30:00 | 02:09:00 | 00:00:00 | |
| DM0DOS-11 | 2026-09-06 00:28:56 | 53.78742 | 11.15221 | 52° | 33km/h | 32785m | 5.8m/s | -41.6°C | 2.5% | 8hPa | 2.6V | 08:30:00 | 02:09:03 | 00:00:00 | |
| DO2JMG | 2026-09-06 00:28:56 | 53.78751 | 11.15244 | 63° | 33km/h | 32796m | 5.8m/s | -41.7°C | 0% | 8hPa | 2.6V | 18:12:15 | 02:09:05 | 00:00:00 | |
| DB0DAN | 2026-09-06 00:28:55 | 53.78747 | 11.15232 | 55° | 29km/h | 32790m | 5.9m/s | -41.7°C | 0.6% | 8hPa | 2.6V | 00:00:00 | 00:00:00 | 00:00:00 | |
| DL1XH-west | 2026-09-06 00:28:50 | 53.78723 | 11.15166 | 72° | 42km/h | 32762m | 5.5m/s | -41.6°C | 0% | 8.1hPa | 2.6V | 18:12:15 | 02:08:59 | 00:00:00 | |
| Es werden nur die letzten 3500 von 8109 Frames angezeigt. GPX/KML und Diagramme bleiben verfügbar. | |||||||||||||||